<?xml version="1.0" encoding="UTF-8" standalone="no" ?>
<gpx xmlns="http://www.topografix.com/GPX/1/1" xmlns:xsi="http://www.w3.org/2001/XMLSchema-instance" xsi:schemaLocation="http://www.topografix.com/GPX/1/1 http://www.topografix.com/GPX/1/1/gpx.xsd" version="1.1" creator="VisuGPX - https://www.visugpx.com">
  <metadata>
    <name>Bouclette au Mont Fromage</name>
    <desc><![CDATA[
]]></desc>
  </metadata>
  <trk>
    <name><![CDATA[Bouclette au Mont Fromage]]></name>
    <trkseg>
      <trkpt lat="45.29453" lon="5.76522">
        <ele>1375.4</ele>
        <time>2020-02-08T10:17:32Z</time>
      </trkpt>
      <trkpt lat="45.29456" lon="5.76521">
        <ele>1375.4</ele>
        <time>2020-02-08T10:17:40Z</time>
      </trkpt>
      <trkpt lat="45.29456" lon="5.76521">
        <ele>1375.2</ele>
        <time>2020-02-08T10:17:41Z</time>
      </trkpt>
      <trkpt lat="45.29457" lon="5.76518">
        <ele>1375.2</ele>
        <time>2020-02-08T10:17:42Z</time>
      </trkpt>
      <trkpt lat="45.29457" lon="5.76518">
        <ele>1374.8</ele>
        <time>2020-02-08T10:17:43Z</time>
      </trkpt>
      <trkpt lat="45.29457" lon="5.76518">
        <ele>1374.8</ele>
        <time>2020-02-08T10:17:44Z</time>
      </trkpt>
      <trkpt lat="45.29458" lon="5.76514">
        <ele>1374.8</ele>
        <time>2020-02-08T10:17:45Z</time>
      </trkpt>
      <trkpt lat="45.29459" lon="5.76512">
        <ele>1374.6</ele>
        <time>2020-02-08T10:17:46Z</time>
      </trkpt>
      <trkpt lat="45.2946" lon="5.76509">
        <ele>1374.6</ele>
        <time>2020-02-08T10:17:47Z</time>
      </trkpt>
      <trkpt lat="45.29461" lon="5.76507">
        <ele>1374.6</ele>
        <time>2020-02-08T10:17:48Z</time>
      </trkpt>
      <trkpt lat="45.29461" lon="5.76507">
        <ele>1374.6</ele>
        <time>2020-02-08T10:17:49Z</time>
      </trkpt>
      <trkpt lat="45.29462" lon="5.76503">
        <ele>1374.4</ele>
        <time>2020-02-08T10:17:50Z</time>
      </trkpt>
      <trkpt lat="45.29462" lon="5.76503">
        <ele>1374.8</ele>
        <time>2020-02-08T10:17:51Z</time>
      </trkpt>
      <trkpt lat="45.29463" lon="5.76499">
        <ele>1375</ele>
        <time>2020-02-08T10:17:52Z</time>
      </trkpt>
      <trkpt lat="45.29463" lon="5.76496">
        <ele>1375</ele>
        <time>2020-02-08T10:17:53Z</time>
      </trkpt>
      <trkpt lat="45.29463" lon="5.76496">
        <ele>1375</ele>
        <time>2020-02-08T10:17:54Z</time>
      </trkpt>
      <trkpt lat="45.29464" lon="5.76492">
        <ele>1375.2</ele>
        <time>2020-02-08T10:17:55Z</time>
      </trkpt>
      <trkpt lat="45.29464" lon="5.76492">
        <ele>1375.2</ele>
        <time>2020-02-08T10:17:56Z</time>
      </trkpt>
      <trkpt lat="45.29464" lon="5.76492">
        <ele>1375.6</ele>
        <time>2020-02-08T10:17:57Z</time>
      </trkpt>
      <trkpt lat="45.29464" lon="5.76483">
        <ele>1375.6</ele>
        <time>2020-02-08T10:17:58Z</time>
      </trkpt>
      <trkpt lat="45.29464" lon="5.76482">
        <ele>1375.8</ele>
        <time>2020-02-08T10:17:59Z</time>
      </trkpt>
      <trkpt lat="45.29464" lon="5.76481">
        <ele>1375.4</ele>
        <time>2020-02-08T10:18:00Z</time>
      </trkpt>
      <trkpt lat="45.29465" lon="5.76477">
        <ele>1375.6</ele>
        <time>2020-02-08T10:18:01Z</time>
      </trkpt>
      <trkpt lat="45.29465" lon="5.76477">
        <ele>1375.4</ele>
        <time>2020-02-08T10:18:02Z</time>
      </trkpt>
      <trkpt lat="45.29466" lon="5.76474">
        <ele>1375.6</ele>
        <time>2020-02-08T10:18:03Z</time>
      </trkpt>
      <trkpt lat="45.29466" lon="5.76474">
        <ele>1375.6</ele>
        <time>2020-02-08T10:18:04Z</time>
      </trkpt>
      <trkpt lat="45.29466" lon="5.76474">
        <ele>1375.4</ele>
        <time>2020-02-08T10:18:05Z</time>
      </trkpt>
      <trkpt lat="45.29466" lon="5.76474">
        <ele>1375</ele>
        <time>2020-02-08T10:18:06Z</time>
      </trkpt>
      <trkpt lat="45.29465" lon="5.76471">
        <ele>1374.8</ele>
        <time>2020-02-08T10:18:07Z</time>
      </trkpt>
      <trkpt lat="45.29465" lon="5.76471">
        <ele>1375.4</ele>
        <time>2020-02-08T10:18:08Z</time>
      </trkpt>
      <trkpt lat="45.29464" lon="5.76469">
        <ele>1375.8</ele>
        <time>2020-02-08T10:18:09Z</time>
      </trkpt>
      <trkpt lat="45.29464" lon="5.76469">
        <ele>1376</ele>
        <time>2020-02-08T10:18:10Z</time>
      </trkpt>
      <trkpt lat="45.29464" lon="5.76469">
        <ele>1376.2</ele>
        <time>2020-02-08T10:18:11Z</time>
      </trkpt>
      <trkpt lat="45.29464" lon="5.76469">
        <ele>1376.4</ele>
        <time>2020-02-08T10:18:12Z</time>
      </trkpt>
      <trkpt lat="45.29464" lon="5.76469">
        <ele>1376.8</ele>
        <time>2020-02-08T10:18:13Z</time>
      </trkpt>
      <trkpt lat="45.29464" lon="5.76469">
        <ele>1376.2</ele>
        <time>2020-02-08T10:18:14Z</time>
      </trkpt>
      <trkpt lat="45.29464" lon="5.76469">
        <ele>1376.4</ele>
        <time>2020-02-08T10:18:15Z</time>
      </trkpt>
      <trkpt lat="45.29464" lon="5.76469">
        <ele>1376.4</ele>
        <time>2020-02-08T10:18:16Z</time>
      </trkpt>
      <trkpt lat="45.29466" lon="5.76467">
        <ele>1376.4</ele>
        <time>2020-02-08T10:18:17Z</time>
      </trkpt>
      <trkpt lat="45.29466" lon="5.76467">
        <ele>1376.2</ele>
        <time>2020-02-08T10:18:18Z</time>
      </trkpt>
      <trkpt lat="45.29466" lon="5.76462">
        <ele>1376</ele>
        <time>2020-02-08T10:18:19Z</time>
      </trkpt>
      <trkpt lat="45.29466" lon="5.7646">
        <ele>1376</ele>
        <time>2020-02-08T10:18:20Z</time>
      </trkpt>
      <trkpt lat="45.29466" lon="5.76457">
        <ele>1375.6</ele>
        <time>2020-02-08T10:18:21Z</time>
      </trkpt>
      <trkpt lat="45.29466" lon="5.76457">
        <ele>1375.8</ele>
        <time>2020-02-08T10:18:22Z</time>
      </trkpt>
      <trkpt lat="45.29465" lon="5.76452">
        <ele>1375.4</ele>
        <time>2020-02-08T10:18:23Z</time>
      </trkpt>
      <trkpt lat="45.29464" lon="5.76449">
        <ele>1375.2</ele>
        <time>2020-02-08T10:18:24Z</time>
      </trkpt>
      <trkpt lat="45.29463" lon="5.76446">
        <ele>1375.2</ele>
        <time>2020-02-08T10:18:25Z</time>
      </trkpt>
      <trkpt lat="45.29462" lon="5.76443">
        <ele>1374.6</ele>
        <time>2020-02-08T10:18:26Z</time>
      </trkpt>
      <trkpt lat="45.29461" lon="5.76441">
        <ele>1374.4</ele>
        <time>2020-02-08T10:18:27Z</time>
      </trkpt>
      <trkpt lat="45.29459" lon="5.76438">
        <ele>1374</ele>
        <time>2020-02-08T10:18:28Z</time>
      </trkpt>
      <trkpt lat="45.29458" lon="5.76435">
        <ele>1373.8</ele>
        <time>2020-02-08T10:18:29Z</time>
      </trkpt>
      <trkpt lat="45.29457" lon="5.76433">
        <ele>1373.6</ele>
        <time>2020-02-08T10:18:30Z</time>
      </trkpt>
      <trkpt lat="45.29456" lon="5.7643">
        <ele>1373.6</ele>
        <time>2020-02-08T10:18:31Z</time>
      </trkpt>
      <trkpt lat="45.29455" lon="5.76427">
        <ele>1373.4</ele>
        <time>2020-02-08T10:18:32Z</time>
      </trkpt>
      <trkpt lat="45.29455" lon="5.76427">
        <ele>1373.4</ele>
        <time>2020-02-08T10:18:33Z</time>
      </trkpt>
      <trkpt lat="45.29455" lon="5.76427">
        <ele>1373.2</ele>
        <time>2020-02-08T10:18:34Z</time>
      </trkpt>
      <trkpt lat="45.29453" lon="5.76424">
        <ele>1372.8</ele>
        <time>2020-02-08T10:18:35Z</time>
      </trkpt>
      <trkpt lat="45.29452" lon="5.7642">
        <ele>1372.8</ele>
        <time>2020-02-08T10:18:36Z</time>
      </trkpt>
      <trkpt lat="45.2945" lon="5.76417">
        <ele>1372.4</ele>
        <time>2020-02-08T10:18:37Z</time>
      </trkpt>
      <trkpt lat="45.29448" lon="5.76414">
        <ele>1372.2</ele>
        <time>2020-02-08T10:18:38Z</time>
      </trkpt>
      <trkpt lat="45.29447" lon="5.7641">
        <ele>1371.6</ele>
        <time>2020-02-08T10:18:39Z</time>
      </trkpt>
      <trkpt lat="45.29444" lon="5.76403">
        <ele>1371.2</ele>
        <time>2020-02-08T10:18:40Z</time>
      </trkpt>
      <trkpt lat="45.29443" lon="5.76401">
        <ele>1371</ele>
        <time>2020-02-08T10:18:41Z</time>
      </trkpt>
      <trkpt lat="45.29442" lon="5.76399">
        <ele>1371</ele>
        <time>2020-02-08T10:18:42Z</time>
      </trkpt>
      <trkpt lat="45.29441" lon="5.76396">
        <ele>1371</ele>
        <time>2020-02-08T10:18:43Z</time>
      </trkpt>
      <trkpt lat="45.2944" lon="5.76393">
        <ele>1370.8</ele>
        <time>2020-02-08T10:18:44Z</time>
      </trkpt>
      <trkpt lat="45.29438" lon="5.76391">
        <ele>1371</ele>
        <time>2020-02-08T10:18:45Z</time>
      </trkpt>
      <trkpt lat="45.29437" lon="5.76388">
        <ele>1371</ele>
        <time>2020-02-08T10:18:46Z</time>
      </trkpt>
      <trkpt lat="45.29435" lon="5.76386">
        <ele>1371.2</ele>
        <time>2020-02-08T10:18:47Z</time>
      </trkpt>
      <trkpt lat="45.29434" lon="5.76384">
        <ele>1371.4</ele>
        <time>2020-02-08T10:18:48Z</time>
      </trkpt>
      <trkpt lat="45.29433" lon="5.76381">
        <ele>1371.4</ele>
        <time>2020-02-08T10:18:49Z</time>
      </trkpt>
      <trkpt lat="45.29432" lon="5.76378">
        <ele>1371.2</ele>
        <time>2020-02-08T10:18:50Z</time>
      </trkpt>
      <trkpt lat="45.29431" lon="5.76375">
        <ele>1371.4</ele>
        <time>2020-02-08T10:18:51Z</time>
      </trkpt>
      <trkpt lat="45.29431" lon="5.76372">
        <ele>1371.2</ele>
        <time>2020-02-08T10:18:52Z</time>
      </trkpt>
      <trkpt lat="45.29431" lon="5.7637">
        <ele>1370.6</ele>
        <time>2020-02-08T10:18:53Z</time>
      </trkpt>
      <trkpt lat="45.2943" lon="5.76366">
        <ele>1370.2</ele>
        <time>2020-02-08T10:18:54Z</time>
      </trkpt>
      <trkpt lat="45.29429" lon="5.76363">
        <ele>1370</ele>
        <time>2020-02-08T10:18:55Z</time>
      </trkpt>
      <trkpt lat="45.29429" lon="5.7636">
        <ele>1370</ele>
        <time>2020-02-08T10:18:56Z</time>
      </trkpt>
      <trkpt lat="45.29429" lon="5.76356">
        <ele>1370.2</ele>
        <time>2020-02-08T10:18:57Z</time>
      </trkpt>
      <trkpt lat="45.29428" lon="5.76353">
        <ele>1370.2</ele>
        <time>2020-02-08T10:18:58Z</time>
      </trkpt>
      <trkpt lat="45.29429" lon="5.76349">
        <ele>1370.2</ele>
        <time>2020-02-08T10:18:59Z</time>
      </trkpt>
      <trkpt lat="45.29429" lon="5.76345">
        <ele>1370.2</ele>
        <time>2020-02-08T10:19:00Z</time>
      </trkpt>
      <trkpt lat="45.29429" lon="5.76342">
        <ele>1370</ele>
        <time>2020-02-08T10:19:01Z</time>
      </trkpt>
      <trkpt lat="45.29429" lon="5.76339">
        <ele>1370.2</ele>
        <time>2020-02-08T10:19:02Z</time>
      </trkpt>
      <trkpt lat="45.29428" lon="5.76335">
        <ele>1370.4</ele>
        <time>2020-02-08T10:19:03Z</time>
      </trkpt>
      <trkpt lat="45.29428" lon="5.76333">
        <ele>1370.4</ele>
        <time>2020-02-08T10:19:04Z</time>
      </trkpt>
      <trkpt lat="45.29428" lon="5.7633">
        <ele>1370.4</ele>
        <time>2020-02-08T10:19:05Z</time>
      </trkpt>
      <trkpt lat="45.29428" lon="5.7633">
        <ele>1370.4</ele>
        <time>2020-02-08T10:19:06Z</time>
      </trkpt>
      <trkpt lat="45.29427" lon="5.76326">
        <ele>1370.4</ele>
        <time>2020-02-08T10:19:07Z</time>
      </trkpt>
      <trkpt lat="45.29427" lon="5.76326">
        <ele>1370</ele>
        <time>2020-02-08T10:19:08Z</time>
      </trkpt>
      <trkpt lat="45.29427" lon="5.76326">
        <ele>1369.8</ele>
        <time>2020-02-08T10:19:09Z</time>
      </trkpt>
      <trkpt lat="45.29425" lon="5.76317">
        <ele>1370</ele>
        <time>2020-02-08T10:19:10Z</time>
      </trkpt>
      <trkpt lat="45.29424" lon="5.76315">
        <ele>1370.4</ele>
        <time>2020-02-08T10:19:11Z</time>
      </trkpt>
      <trkpt lat="45.29424" lon="5.76314">
        <ele>1371.2</ele>
        <time>2020-02-08T10:19:12Z</time>
      </trkpt>
      <trkpt lat="45.29424" lon="5.76314">
        <ele>1370.8</ele>
        <time>2020-02-08T10:19:13Z</time>
      </trkpt>
      <trkpt lat="45.29423" lon="5.76309">
        <ele>1370.6</ele>
        <time>2020-02-08T10:19:14Z</time>
      </trkpt>
      <trkpt lat="45.29423" lon="5.76309">
        <ele>1370.4</ele>
        <time>2020-02-08T10:19:15Z</time>
      </trkpt>
      <trkpt lat="45.29424" lon="5.76304">
        <ele>1370.8</ele>
        <time>2020-02-08T10:19:16Z</time>
      </trkpt>
      <trkpt lat="45.29424" lon="5.76304">
        <ele>1371</ele>
        <time>2020-02-08T10:19:17Z</time>
      </trkpt>
      <trkpt lat="45.29424" lon="5.76299">
        <ele>1371.2</ele>
        <time>2020-02-08T10:19:18Z</time>
      </trkpt>
      <trkpt lat="45.29424" lon="5.76299">
        <ele>1371.2</ele>
        <time>2020-02-08T10:19:19Z</time>
      </trkpt>
      <trkpt lat="45.29424" lon="5.76299">
        <ele>1371</ele>
        <time>2020-02-08T10:19:20Z</time>
      </trkpt>
      <trkpt lat="45.29424" lon="5.76297">
        <ele>1371</ele>
        <time>2020-02-08T10:19:21Z</time>
      </trkpt>
      <trkpt lat="45.29424" lon="5.76294">
        <ele>1371.4</ele>
        <time>2020-02-08T10:19:22Z</time>
      </trkpt>
      <trkpt lat="45.29423" lon="5.76292">
        <ele>1371.8</ele>
        <time>2020-02-08T10:19:23Z</time>
      </trkpt>
      <trkpt lat="45.29423" lon="5.76289">
        <ele>1372</ele>
        <time>2020-02-08T10:19:24Z</time>
      </trkpt>
      <trkpt lat="45.29423" lon="5.76287">
        <ele>1372.6</ele>
        <time>2020-02-08T10:19:25Z</time>
      </trkpt>
      <trkpt lat="45.29423" lon="5.76284">
        <ele>1372.2</ele>
        <time>2020-02-08T10:19:26Z</time>
      </trkpt>
      <trkpt lat="45.29423" lon="5.76282">
        <ele>1372.2</ele>
        <time>2020-02-08T10:19:27Z</time>
      </trkpt>
      <trkpt lat="45.29423" lon="5.76282">
        <ele>1372.4</ele>
        <time>2020-02-08T10:19:28Z</time>
      </trkpt>
      <trkpt lat="45.29423" lon="5.76282">
        <ele>1372.6</ele>
        <time>2020-02-08T10:19:29Z</time>
      </trkpt>
      <trkpt lat="45.29422" lon="5.76275">
        <ele>1373</ele>
        <time>2020-02-08T10:19:30Z</time>
      </trkpt>
      <trkpt lat="45.29422" lon="5.76275">
        <ele>1372.4</ele>
        <time>2020-02-08T10:19:31Z</time>
      </trkpt>
      <trkpt lat="45.29422" lon="5.76275">
        <ele>1372.4</ele>
        <time>2020-02-08T10:19:32Z</time>
      </trkpt>
      <trkpt lat="45.29422" lon="5.76273">
        <ele>1372.6</ele>
        <time>2020-02-08T10:19:33Z</time>
      </trkpt>
      <trkpt lat="45.29422" lon="5.76271">
        <ele>1372.6</ele>
        <time>2020-02-08T10:19:34Z</time>
      </trkpt>
      <trkpt lat="45.29422" lon="5.7627">
        <ele>1372.8</ele>
        <time>2020-02-08T10:19:35Z</time>
      </trkpt>
      <trkpt lat="45.29422" lon="5.76268">
        <ele>1372.8</ele>
        <time>2020-02-08T10:19:36Z</time>
      </trkpt>
      <trkpt lat="45.29422" lon="5.76267">
        <ele>1372.8</ele>
        <time>2020-02-08T10:19:37Z</time>
      </trkpt>
      <trkpt lat="45.29422" lon="5.76265">
        <ele>1373</ele>
        <time>2020-02-08T10:19:38Z</time>
      </trkpt>
      <trkpt lat="45.29422" lon="5.76264">
        <ele>1373.6</ele>
        <time>2020-02-08T10:19:39Z</time>
      </trkpt>
      <trkpt lat="45.29422" lon="5.76263">
        <ele>1374.4</ele>
        <time>2020-02-08T10:19:40Z</time>
      </trkpt>
      <trkpt lat="45.29422" lon="5.76261">
        <ele>1374</ele>
        <time>2020-02-08T10:19:41Z</time>
      </trkpt>
      <trkpt lat="45.29422" lon="5.7626">
        <ele>1374.2</ele>
        <time>2020-02-08T10:19:42Z</time>
      </trkpt>
      <trkpt lat="45.29422" lon="5.76258">
        <ele>1374.6</ele>
        <time>2020-02-08T10:19:43Z</time>
      </trkpt>
      <trkpt lat="45.29422" lon="5.76257">
        <ele>1375</ele>
        <time>2020-02-08T10:19:44Z</time>
      </trkpt>
      <trkpt lat="45.29422" lon="5.76255">
        <ele>1375.2</ele>
        <time>2020-02-08T10:19:45Z</time>
      </trkpt>
      <trkpt lat="45.29422" lon="5.76254">
        <ele>1375.4</ele>
        <time>2020-02-08T10:19:46Z</time>
      </trkpt>
      <trkpt lat="45.29422" lon="5.76253">
        <ele>1375.6</ele>
        <time>2020-02-08T10:19:47Z</time>
      </trkpt>
      <trkpt lat="45.29422" lon="5.76251">
        <ele>1376</ele>
        <time>2020-02-08T10:19:48Z</time>
      </trkpt>
      <trkpt lat="45.29422" lon="5.76249">
        <ele>1376</ele>
        <time>2020-02-08T10:19:49Z</time>
      </trkpt>
      <trkpt lat="45.29422" lon="5.76248">
        <ele>1376.6</ele>
        <time>2020-02-08T10:19:50Z</time>
      </trkpt>
      <trkpt lat="45.29423" lon="5.76246">
        <ele>1376.6</ele>
        <time>2020-02-08T10:19:51Z</time>
      </trkpt>
      <trkpt lat="45.29423" lon="5.76244">
        <ele>1376.6</ele>
        <time>2020-02-08T10:19:52Z</time>
      </trkpt>
      <trkpt lat="45.29423" lon="5.76243">
        <ele>1376.8</ele>
        <time>2020-02-08T10:19:53Z</time>
      </trkpt>
      <trkpt lat="45.29423" lon="5.76241">
        <ele>1377</ele>
        <time>2020-02-08T10:19:54Z</time>
      </trkpt>
      <trkpt lat="45.29423" lon="5.76239">
        <ele>1377.2</ele>
        <time>2020-02-08T10:19:55Z</time>
      </trkpt>
      <trkpt lat="45.29423" lon="5.76238">
        <ele>1377.6</ele>
        <time>2020-02-08T10:19:56Z</time>
      </trkpt>
      <trkpt lat="45.29423" lon="5.76235">
        <ele>1377.8</ele>
        <time>2020-02-08T10:19:57Z</time>
      </trkpt>
      <trkpt lat="45.29423" lon="5.76232">
        <ele>1378.4</ele>
        <time>2020-02-08T10:19:58Z</time>
      </trkpt>
      <trkpt lat="45.29423" lon="5.7623">
        <ele>1378.8</ele>
        <time>2020-02-08T10:19:59Z</time>
      </trkpt>
      <trkpt lat="45.29424" lon="5.76227">
        <ele>1379.2</ele>
        <time>2020-02-08T10:20:00Z</time>
      </trkpt>
      <trkpt lat="45.29424" lon="5.76227">
        <ele>1378.8</ele>
        <time>2020-02-08T10:20:01Z</time>
      </trkpt>
      <trkpt lat="45.29424" lon="5.76227">
        <ele>1378.6</ele>
        <time>2020-02-08T10:20:02Z</time>
      </trkpt>
      <trkpt lat="45.29424" lon="5.76225">
        <ele>1379.2</ele>
        <time>2020-02-08T10:20:03Z</time>
      </trkpt>
      <trkpt lat="45.29423" lon="5.76224">
        <ele>1379.6</ele>
        <time>2020-02-08T10:20:04Z</time>
      </trkpt>
      <trkpt lat="45.29423" lon="5.76223">
        <ele>1380</ele>
        <time>2020-02-08T10:20:05Z</time>
      </trkpt>
      <trkpt lat="45.29423" lon="5.76221">
        <ele>1380.4</ele>
        <time>2020-02-08T10:20:06Z</time>
      </trkpt>
      <trkpt lat="45.29423" lon="5.7622">
        <ele>1380</ele>
        <time>2020-02-08T10:20:07Z</time>
      </trkpt>
      <trkpt lat="45.29423" lon="5.76218">
        <ele>1380.4</ele>
        <time>2020-02-08T10:20:08Z</time>
      </trkpt>
      <trkpt lat="45.29423" lon="5.76217">
        <ele>1380.8</ele>
        <time>2020-02-08T10:20:09Z</time>
      </trkpt>
      <trkpt lat="45.29423" lon="5.76215">
        <ele>1381.2</ele>
        <time>2020-02-08T10:20:10Z</time>
      </trkpt>
      <trkpt lat="45.29423" lon="5.76214">
        <ele>1381.6</ele>
        <time>2020-02-08T10:20:11Z</time>
      </trkpt>
      <trkpt lat="45.29423" lon="5.76212">
        <ele>1381.6</ele>
        <time>2020-02-08T10:20:12Z</time>
      </trkpt>
      <trkpt lat="45.29423" lon="5.76211">
        <ele>1381.6</ele>
        <time>2020-02-08T10:20:13Z</time>
      </trkpt>
      <trkpt lat="45.29423" lon="5.76209">
        <ele>1381.8</ele>
        <time>2020-02-08T10:20:14Z</time>
      </trkpt>
      <trkpt lat="45.29424" lon="5.76208">
        <ele>1382.4</ele>
        <time>2020-02-08T10:20:15Z</time>
      </trkpt>
      <trkpt lat="45.29424" lon="5.76207">
        <ele>1382.8</ele>
        <time>2020-02-08T10:20:16Z</time>
      </trkpt>
      <trkpt lat="45.29424" lon="5.76205">
        <ele>1383</ele>
        <time>2020-02-08T10:20:17Z</time>
      </trkpt>
      <trkpt lat="45.29424" lon="5.76204">
        <ele>1383</ele>
        <time>2020-02-08T10:20:18Z</time>
      </trkpt>
      <trkpt lat="45.29424" lon="5.76202">
        <ele>1382.8</ele>
        <time>2020-02-08T10:20:19Z</time>
      </trkpt>
      <trkpt lat="45.29425" lon="5.76201">
        <ele>1383</ele>
        <time>2020-02-08T10:20:20Z</time>
      </trkpt>
      <trkpt lat="45.29425" lon="5.76199">
        <ele>1383.4</ele>
        <time>2020-02-08T10:20:21Z</time>
      </trkpt>
      <trkpt lat="45.29425" lon="5.76198">
        <ele>1384</ele>
        <time>2020-02-08T10:20:22Z</time>
      </trkpt>
      <trkpt lat="45.29426" lon="5.76192">
        <ele>1384.4</ele>
        <time>2020-02-08T10:20:23Z</time>
      </trkpt>
      <trkpt lat="45.29426" lon="5.76192">
        <ele>1384.2</ele>
        <time>2020-02-08T10:20:24Z</time>
      </trkpt>
      <trkpt lat="45.29426" lon="5.76192">
        <ele>1384.2</ele>
        <time>2020-02-08T10:20:25Z</time>
      </trkpt>
      <trkpt lat="45.29426" lon="5.76191">
        <ele>1384.2</ele>
        <time>2020-02-08T10:20:26Z</time>
      </trkpt>
      <trkpt lat="45.29426" lon="5.76189">
        <ele>1384.4</ele>
        <time>2020-02-08T10:20:27Z</time>
      </trkpt>
      <trkpt lat="45.29426" lon="5.76188">
        <ele>1384.8</ele>
        <time>2020-02-08T10:20:28Z</time>
      </trkpt>
      <trkpt lat="45.29427" lon="5.76186">
        <ele>1385.4</ele>
        <time>2020-02-08T10:20:29Z</time>
      </trkpt>
      <trkpt lat="45.29427" lon="5.76185">
        <ele>1385.6</ele>
        <time>2020-02-08T10:20:30Z</time>
      </trkpt>
      <trkpt lat="45.29427" lon="5.76184">
        <ele>1385.6</ele>
        <time>2020-02-08T10:20:31Z</time>
      </trkpt>
      <trkpt lat="45.29427" lon="5.76182">
        <ele>1385.6</ele>
        <time>2020-02-08T10:20:32Z</time>
      </trkpt>
      <trkpt lat="45.29427" lon="5.76181">
        <ele>1386</ele>
        <time>2020-02-08T10:20:33Z</time>
      </trkpt>
      <trkpt lat="45.29427" lon="5.76179">
        <ele>1386.6</ele>
        <time>2020-02-08T10:20:34Z</time>
      </trkpt>
      <trkpt lat="45.29427" lon="5.76178">
        <ele>1387</ele>
        <time>2020-02-08T10:20:35Z</time>
      </trkpt>
      <trkpt lat="45.29427" lon="5.76176">
        <ele>1387.4</ele>
        <time>2020-02-08T10:20:36Z</time>
      </trkpt>
      <trkpt lat="45.29427" lon="5.76174">
        <ele>1387.2</ele>
        <time>2020-02-08T10:20:37Z</time>
      </trkpt>
      <trkpt lat="45.29427" lon="5.76173">
        <ele>1387.2</ele>
        <time>2020-02-08T10:20:38Z</time>
      </trkpt>
      <trkpt lat="45.29427" lon="5.76171">
        <ele>1387.6</ele>
        <time>2020-02-08T10:20:39Z</time>
      </trkpt>
      <trkpt lat="45.29427" lon="5.76169">
        <ele>1388</ele>
        <time>2020-02-08T10:20:40Z</time>
      </trkpt>
      <trkpt lat="45.29427" lon="5.76167">
        <ele>1388.2</ele>
        <time>2020-02-08T10:20:41Z</time>
      </trkpt>
      <trkpt lat="45.29427" lon="5.76166">
        <ele>1388.6</ele>
        <time>2020-02-08T10:20:42Z</time>
      </trkpt>
      <trkpt lat="45.29427" lon="5.76164">
        <ele>1388.4</ele>
        <time>2020-02-08T10:20:43Z</time>
      </trkpt>
      <trkpt lat="45.29427" lon="5.76162">
        <ele>1388.6</ele>
        <time>2020-02-08T10:20:44Z</time>
      </trkpt>
      <trkpt lat="45.29427" lon="5.76161">
        <ele>1389</ele>
        <time>2020-02-08T10:20:45Z</time>
      </trkpt>
      <trkpt lat="45.29427" lon="5.76159">
        <ele>1389.2</ele>
        <time>2020-02-08T10:20:46Z</time>
      </trkpt>
      <trkpt lat="45.29426" lon="5.76158">
        <ele>1389</ele>
        <time>2020-02-08T10:20:47Z</time>
      </trkpt>
      <trkpt lat="45.29426" lon="5.76156">
        <ele>1388.6</ele>
        <time>2020-02-08T10:20:48Z</time>
      </trkpt>
      <trkpt lat="45.29426" lon="5.76155">
        <ele>1388.6</ele>
        <time>2020-02-08T10:20:49Z</time>
      </trkpt>
      <trkpt lat="45.29426" lon="5.76153">
        <ele>1389</ele>
        <time>2020-02-08T10:20:50Z</time>
      </trkpt>
      <trkpt lat="45.29426" lon="5.76152">
        <ele>1389</ele>
        <time>2020-02-08T10:20:51Z</time>
      </trkpt>
      <trkpt lat="45.29426" lon="5.7615">
        <ele>1388.6</ele>
        <time>2020-02-08T10:20:52Z</time>
      </trkpt>
      <trkpt lat="45.29425" lon="5.76148">
        <ele>1388.6</ele>
        <time>2020-02-08T10:20:53Z</time>
      </trkpt>
      <trkpt lat="45.29425" lon="5.76147">
        <ele>1389</ele>
        <time>2020-02-08T10:20:54Z</time>
      </trkpt>
      <trkpt lat="45.29424" lon="5.76145">
        <ele>1389.4</ele>
        <time>2020-02-08T10:20:55Z</time>
      </trkpt>
      <trkpt lat="45.29423" lon="5.76143">
        <ele>1389.6</ele>
        <time>2020-02-08T10:20:56Z</time>
      </trkpt>
      <trkpt lat="45.29422" lon="5.76141">
        <ele>1390.2</ele>
        <time>2020-02-08T10:20:57Z</time>
      </trkpt>
      <trkpt lat="45.29422" lon="5.76139">
        <ele>1389.6</ele>
        <time>2020-02-08T10:20:58Z</time>
      </trkpt>
      <trkpt lat="45.29421" lon="5.76138">
        <ele>1389.6</ele>
        <time>2020-02-08T10:20:59Z</time>
      </trkpt>
      <trkpt lat="45.29421" lon="5.76136">
        <ele>1390</ele>
        <time>2020-02-08T10:21:00Z</time>
      </trkpt>
      <trkpt lat="45.29421" lon="5.76134">
        <ele>1390.2</ele>
        <time>2020-02-08T10:21:01Z</time>
      </trkpt>
      <trkpt lat="45.2942" lon="5.76133">
        <ele>1390.6</ele>
        <time>2020-02-08T10:21:02Z</time>
      </trkpt>
      <trkpt lat="45.2942" lon="5.76131">
        <ele>1390.8</ele>
        <time>2020-02-08T10:21:03Z</time>
      </trkpt>
      <trkpt lat="45.2942" lon="5.7613">
        <ele>1390.4</ele>
        <time>2020-02-08T10:21:04Z</time>
      </trkpt>
      <trkpt lat="45.29419" lon="5.76128">
        <ele>1390.6</ele>
        <time>2020-02-08T10:21:05Z</time>
      </trkpt>
      <trkpt lat="45.29419" lon="5.76127">
        <ele>1391</ele>
        <time>2020-02-08T10:21:06Z</time>
      </trkpt>
      <trkpt lat="45.29419" lon="5.76125">
        <ele>1391.2</ele>
        <time>2020-02-08T10:21:07Z</time>
      </trkpt>
      <trkpt lat="45.29418" lon="5.76123">
        <ele>1391.8</ele>
        <time>2020-02-08T10:21:08Z</time>
      </trkpt>
      <trkpt lat="45.29417" lon="5.76122">
        <ele>1391.4</ele>
        <time>2020-02-08T10:21:09Z</time>
      </trkpt>
      <trkpt lat="45.29417" lon="5.76121">
        <ele>1391.6</ele>
        <time>2020-02-08T10:21:10Z</time>
      </trkpt>
      <trkpt lat="45.29416" lon="5.76119">
        <ele>1392</ele>
        <time>2020-02-08T10:21:11Z</time>
      </trkpt>
      <trkpt lat="45.29416" lon="5.76115">
        <ele>1392.4</ele>
        <time>2020-02-08T10:21:12Z</time>
      </trkpt>
      <trkpt lat="45.29416" lon="5.76111">
        <ele>1392.6</ele>
        <time>2020-02-08T10:21:13Z</time>
      </trkpt>
      <trkpt lat="45.29416" lon="5.76107">
        <ele>1392.8</ele>
        <time>2020-02-08T10:21:14Z</time>
      </trkpt>
      <trkpt lat="45.29415" lon="5.76104">
        <ele>1392.8</ele>
        <time>2020-02-08T10:21:15Z</time>
      </trkpt>
      <trkpt lat="45.29415" lon="5.761">
        <ele>1392.8</ele>
        <time>2020-02-08T10:21:16Z</time>
      </trkpt>
      <trkpt lat="45.29415" lon="5.761">
        <ele>1393</ele>
        <time>2020-02-08T10:21:17Z</time>
      </trkpt>
      <trkpt lat="45.29415" lon="5.761">
        <ele>1393.4</ele>
        <time>2020-02-08T10:21:18Z</time>
      </trkpt>
      <trkpt lat="45.29415" lon="5.76098">
        <ele>1393.8</ele>
        <time>2020-02-08T10:21:19Z</time>
      </trkpt>
      <trkpt lat="45.29415" lon="5.76097">
        <ele>1393.6</ele>
        <time>2020-02-08T10:21:20Z</time>
      </trkpt>
      <trkpt lat="45.29415" lon="5.76095">
        <ele>1393.8</ele>
        <time>2020-02-08T10:21:21Z</time>
      </trkpt>
      <trkpt lat="45.29414" lon="5.76094">
        <ele>1394.2</ele>
        <time>2020-02-08T10:21:22Z</time>
      </trkpt>
      <trkpt lat="45.29414" lon="5.76092">
        <ele>1394.2</ele>
        <time>2020-02-08T10:21:23Z</time>
      </trkpt>
      <trkpt lat="45.29414" lon="5.76091">
        <ele>1394</ele>
        <time>2020-02-08T10:21:24Z</time>
      </trkpt>
      <trkpt lat="45.29414" lon="5.76089">
        <ele>1394.2</ele>
        <time>2020-02-08T10:21:25Z</time>
      </trkpt>
      <trkpt lat="45.29414" lon="5.76088">
        <ele>1394.4</ele>
        <time>2020-02-08T10:21:26Z</time>
      </trkpt>
      <trkpt lat="45.29413" lon="5.76086">
        <ele>1395</ele>
        <time>2020-02-08T10:21:27Z</time>
      </trkpt>
      <trkpt lat="45.29413" lon="5.76085">
        <ele>1395.2</ele>
        <time>2020-02-08T10:21:28Z</time>
      </trkpt>
      <trkpt lat="45.29412" lon="5.76084">
        <ele>1395.4</ele>
        <time>2020-02-08T10:21:29Z</time>
      </trkpt>
      <trkpt lat="45.29412" lon="5.76084">
        <ele>1395.8</ele>
        <time>2020-02-08T10:21:30Z</time>
      </trkpt>
      <trkpt lat="45.29411" lon="5.76083">
        <ele>1396.2</ele>
        <time>2020-02-08T10:21:31Z</time>
      </trkpt>
      <trkpt lat="45.29411" lon="5.76082">
        <ele>1397</ele>
        <time>2020-02-08T10:21:32Z</time>
      </trkpt>
      <trkpt lat="45.2941" lon="5.76081">
        <ele>1396.6</ele>
        <time>2020-02-08T10:21:33Z</time>
      </trkpt>
      <trkpt lat="45.2941" lon="5.7608">
        <ele>1396.8</ele>
        <time>2020-02-08T10:21:34Z</time>
      </trkpt>
      <trkpt lat="45.29409" lon="5.76079">
        <ele>1397.2</ele>
        <time>2020-02-08T10:21:35Z</time>
      </trkpt>
      <trkpt lat="45.29409" lon="5.76079">
        <ele>1397.8</ele>
        <time>2020-02-08T10:21:36Z</time>
      </trkpt>
      <trkpt lat="45.29409" lon="5.76079">
        <ele>1397.8</ele>
        <time>2020-02-08T10:21:37Z</time>
      </trkpt>
      <trkpt lat="45.29409" lon="5.76078">
        <ele>1397.8</ele>
        <time>2020-02-08T10:21:38Z</time>
      </trkpt>
      <trkpt lat="45.29408" lon="5.76077">
        <ele>1398.4</ele>
        <time>2020-02-08T10:21:39Z</time>
      </trkpt>
      <trkpt lat="45.29408" lon="5.76076">
        <ele>1398.8</ele>
        <time>2020-02-08T10:21:40Z</time>
      </trkpt>
      <trkpt lat="45.29408" lon="5.76075">
        <ele>1399.4</ele>
        <time>2020-02-08T10:21:41Z</time>
      </trkpt>
      <trkpt lat="45.29407" lon="5.76074">
        <ele>1399.4</ele>
        <time>2020-02-08T10:21:42Z</time>
      </trkpt>
      <trkpt lat="45.29407" lon="5.76073">
        <ele>1399.8</ele>
        <time>2020-02-08T10:21:43Z</time>
      </trkpt>
      <trkpt lat="45.29407" lon="5.76073">
        <ele>1400.4</ele>
        <time>2020-02-08T10:21:44Z</time>
      </trkpt>
      <trkpt lat="45.29406" lon="5.76072">
        <ele>1401</ele>
        <time>2020-02-08T10:21:45Z</time>
      </trkpt>
      <trkpt lat="45.29406" lon="5.76071">
        <ele>1401</ele>
        <time>2020-02-08T10:21:46Z</time>
      </trkpt>
      <trkpt lat="45.29406" lon="5.7607">
        <ele>1401</ele>
        <time>2020-02-08T10:21:47Z</time>
      </trkpt>
      <trkpt lat="45.29405" lon="5.76069">
        <ele>1401.2</ele>
        <time>2020-02-08T10:21:48Z</time>
      </trkpt>
      <trkpt lat="45.29405" lon="5.76068">
        <ele>1401.8</ele>
        <time>2020-02-08T10:21:49Z</time>
      </trkpt>
      <trkpt lat="45.29404" lon="5.76067">
        <ele>1401.4</ele>
        <time>2020-02-08T10:21:50Z</time>
      </trkpt>
      <trkpt lat="45.29403" lon="5.76066">
        <ele>1401.6</ele>
        <time>2020-02-08T10:21:51Z</time>
      </trkpt>
      <trkpt lat="45.29402" lon="5.76065">
        <ele>1402</ele>
        <time>2020-02-08T10:21:52Z</time>
      </trkpt>
      <trkpt lat="45.29401" lon="5.76064">
        <ele>1402.6</ele>
        <time>2020-02-08T10:21:53Z</time>
      </trkpt>
      <trkpt lat="45.294" lon="5.76064">
        <ele>1402.4</ele>
        <time>2020-02-08T10:21:54Z</time>
      </trkpt>
      <trkpt lat="45.29399" lon="5.76063">
        <ele>1402.6</ele>
        <time>2020-02-08T10:21:55Z</time>
      </trkpt>
      <trkpt lat="45.29398" lon="5.76062">
        <ele>1403</ele>
        <time>2020-02-08T10:21:56Z</time>
      </trkpt>
      <trkpt lat="45.29397" lon="5.76061">
        <ele>1403.2</ele>
        <time>2020-02-08T10:21:57Z</time>
      </trkpt>
      <trkpt lat="45.29397" lon="5.76059">
        <ele>1403.2</ele>
        <time>2020-02-08T10:21:58Z</time>
      </trkpt>
      <trkpt lat="45.29397" lon="5.76057">
        <ele>1403.4</ele>
        <time>2020-02-08T10:21:59Z</time>
      </trkpt>
      <trkpt lat="45.29397" lon="5.76055">
        <ele>1403.8</ele>
        <time>2020-02-08T10:22:00Z</time>
      </trkpt>
      <trkpt lat="45.29397" lon="5.76054">
        <ele>1404.2</ele>
        <time>2020-02-08T10:22:01Z</time>
      </trkpt>
      <trkpt lat="45.29397" lon="5.76052">
        <ele>1404</ele>
        <time>2020-02-08T10:22:02Z</time>
      </trkpt>
      <trkpt lat="45.29397" lon="5.7605">
        <ele>1404.2</ele>
        <time>2020-02-08T10:22:03Z</time>
      </trkpt>
      <trkpt lat="45.29397" lon="5.76048">
        <ele>1404.2</ele>
        <time>2020-02-08T10:22:04Z</time>
      </trkpt>
      <trkpt lat="45.29397" lon="5.76046">
        <ele>1405</ele>
        <time>2020-02-08T10:22:05Z</time>
      </trkpt>
      <trkpt lat="45.29397" lon="5.76045">
        <ele>1404.8</ele>
        <time>2020-02-08T10:22:06Z</time>
      </trkpt>
      <trkpt lat="45.29397" lon="5.76043">
        <ele>1405.2</ele>
        <time>2020-02-08T10:22:07Z</time>
      </trkpt>
      <trkpt lat="45.29398" lon="5.76042">
        <ele>1405.4</ele>
        <time>2020-02-08T10:22:08Z</time>
      </trkpt>
      <trkpt lat="45.29398" lon="5.7604">
        <ele>1406</ele>
        <time>2020-02-08T10:22:09Z</time>
      </trkpt>
      <trkpt lat="45.29398" lon="5.76039">
        <ele>1405.6</ele>
        <time>2020-02-08T10:22:10Z</time>
      </trkpt>
      <trkpt lat="45.29398" lon="5.76037">
        <ele>1405.6</ele>
        <time>2020-02-08T10:22:11Z</time>
      </trkpt>
      <trkpt lat="45.29399" lon="5.76035">
        <ele>1406</ele>
        <time>2020-02-08T10:22:12Z</time>
      </trkpt>
      <trkpt lat="45.29398" lon="5.76035">
        <ele>1406.2</ele>
        <time>2020-02-08T10:22:13Z</time>
      </trkpt>
      <trkpt lat="45.29397" lon="5.76034">
        <ele>1406.8</ele>
        <time>2020-02-08T10:22:14Z</time>
      </trkpt>
      <trkpt lat="45.29396" lon="5.76033">
        <ele>1407</ele>
        <time>2020-02-08T10:22:15Z</time>
      </trkpt>
      <trkpt lat="45.29395" lon="5.76033">
        <ele>1407.4</ele>
        <time>2020-02-08T10:22:16Z</time>
      </trkpt>
      <trkpt lat="45.29394" lon="5.76032">
        <ele>1408</ele>
        <time>2020-02-08T10:22:17Z</time>
      </trkpt>
      <trkpt lat="45.29393" lon="5.76031">
        <ele>1408</ele>
        <time>2020-02-08T10:22:18Z</time>
      </trkpt>
      <trkpt lat="45.29393" lon="5.7603">
        <ele>1408</ele>
        <time>2020-02-08T10:22:19Z</time>
      </trkpt>
      <trkpt lat="45.29392" lon="5.7603">
        <ele>1408.4</ele>
        <time>2020-02-08T10:22:20Z</time>
      </trkpt>
      <trkpt lat="45.29391" lon="5.76029">
        <ele>1409</ele>
        <time>2020-02-08T10:22:21Z</time>
      </trkpt>
      <trkpt lat="45.2939" lon="5.76028">
        <ele>1408.8</ele>
        <time>2020-02-08T10:22:22Z</time>
      </trkpt>
      <trkpt lat="45.29389" lon="5.76028">
        <ele>1409.4</ele>
        <time>2020-02-08T10:22:23Z</time>
      </trkpt>
      <trkpt lat="45.29389" lon="5.76027">
        <ele>1409.8</ele>
        <time>2020-02-08T10:22:24Z</time>
      </trkpt>
      <trkpt lat="45.29388" lon="5.76026">
        <ele>1410.4</ele>
        <time>2020-02-08T10:22:25Z</time>
      </trkpt>
      <trkpt lat="45.29388" lon="5.76026">
        <ele>1410.2</ele>
        <time>2020-02-08T10:22:26Z</time>
      </trkpt>
      <trkpt lat="45.29387" lon="5.76025">
        <ele>1410.8</ele>
        <time>2020-02-08T10:22:27Z</time>
      </trkpt>
      <trkpt lat="45.29387" lon="5.76024">
        <ele>1411.2</ele>
        <time>2020-02-08T10:22:28Z</time>
      </trkpt>
      <trkpt lat="45.29387" lon="5.76024">
        <ele>1411.8</ele>
        <time>2020-02-08T10:22:29Z</time>
      </trkpt>
      <trkpt lat="45.29386" lon="5.76023">
        <ele>1411.6</ele>
        <time>2020-02-08T10:22:30Z</time>
      </trkpt>
      <trkpt lat="45.29386" lon="5.76022">
        <ele>1412.2</ele>
        <time>2020-02-08T10:22:31Z</time>
      </trkpt>
      <trkpt lat="45.29385" lon="5.76021">
        <ele>1412.4</ele>
        <time>2020-02-08T10:22:32Z</time>
      </trkpt>
      <trkpt lat="45.29385" lon="5.76021">
        <ele>1412.8</ele>
        <time>2020-02-08T10:22:33Z</time>
      </trkpt>
      <trkpt lat="45.29384" lon="5.7602">
        <ele>1412.6</ele>
        <time>2020-02-08T10:22:34Z</time>
      </trkpt>
      <trkpt lat="45.29384" lon="5.76019">
        <ele>1413</ele>
        <time>2020-02-08T10:22:35Z</time>
      </trkpt>
      <trkpt lat="45.29383" lon="5.76019">
        <ele>1413.4</ele>
        <time>2020-02-08T10:22:36Z</time>
      </trkpt>
      <trkpt lat="45.29383" lon="5.76019">
        <ele>1413.8</ele>
        <time>2020-02-08T10:22:37Z</time>
      </trkpt>
      <trkpt lat="45.29382" lon="5.76015">
        <ele>1413.8</ele>
        <time>2020-02-08T10:22:38Z</time>
      </trkpt>
      <trkpt lat="45.29382" lon="5.76015">
        <ele>1414</ele>
        <time>2020-02-08T10:22:39Z</time>
      </trkpt>
      <trkpt lat="45.29382" lon="5.76015">
        <ele>1414.6</ele>
        <time>2020-02-08T10:22:40Z</time>
      </trkpt>
      <trkpt lat="45.29382" lon="5.76012">
        <ele>1415.2</ele>
        <time>2020-02-08T10:22:41Z</time>
      </trkpt>
      <trkpt lat="45.29382" lon="5.76012">
        <ele>1415.2</ele>
        <time>2020-02-08T10:22:42Z</time>
      </trkpt>
      <trkpt lat="45.29382" lon="5.76012">
        <ele>1415.6</ele>
        <time>2020-02-08T10:22:43Z</time>
      </trkpt>
      <trkpt lat="45.29382" lon="5.7601">
        <ele>1415.8</ele>
        <time>2020-02-08T10:22:44Z</time>
      </trkpt>
      <trkpt lat="45.29381" lon="5.76009">
        <ele>1416</ele>
        <time>2020-02-08T10:22:45Z</time>
      </trkpt>
      <trkpt lat="45.29381" lon="5.76008">
        <ele>1416.2</ele>
        <time>2020-02-08T10:22:46Z</time>
      </trkpt>
      <trkpt lat="45.29381" lon="5.76006">
        <ele>1416.4</ele>
        <time>2020-02-08T10:22:47Z</time>
      </trkpt>
      <trkpt lat="45.29381" lon="5.76005">
        <ele>1416.4</ele>
        <time>2020-02-08T10:22:48Z</time>
      </trkpt>
      <trkpt lat="45.29381" lon="5.76004">
        <ele>1416.8</ele>
        <time>2020-02-08T10:22:49Z</time>
      </trkpt>
      <trkpt lat="45.2938" lon="5.76">
        <ele>1417</ele>
        <time>2020-02-08T10:22:50Z</time>
      </trkpt>
      <trkpt lat="45.2938" lon="5.76">
        <ele>1417.4</ele>
        <time>2020-02-08T10:22:51Z</time>
      </trkpt>
      <trkpt lat="45.2938" lon="5.76">
        <ele>1417.6</ele>
        <time>2020-02-08T10:22:52Z</time>
      </trkpt>
      <trkpt lat="45.2938" lon="5.75999">
        <ele>1418</ele>
        <time>2020-02-08T10:22:53Z</time>
      </trkpt>
      <trkpt lat="45.29379" lon="5.75997">
        <ele>1418.2</ele>
        <time>2020-02-08T10:22:54Z</time>
      </trkpt>
      <trkpt lat="45.29378" lon="5.75996">
        <ele>1418.6</ele>
        <time>2020-02-08T10:22:55Z</time>
      </trkpt>
      <trkpt lat="45.29378" lon="5.75994">
        <ele>1419.2</ele>
        <time>2020-02-08T10:22:56Z</time>
      </trkpt>
      <trkpt lat="45.29376" lon="5.75991">
        <ele>1419</ele>
        <time>2020-02-08T10:22:57Z</time>
      </trkpt>
      <trkpt lat="45.29376" lon="5.75991">
        <ele>1419.4</ele>
        <time>2020-02-08T10:22:58Z</time>
      </trkpt>
      <trkpt lat="45.29376" lon="5.75991">
        <ele>1419.6</ele>
        <time>2020-02-08T10:22:59Z</time>
      </trkpt>
      <trkpt lat="45.29376" lon="5.7599">
        <ele>1420.4</ele>
        <time>2020-02-08T10:23:00Z</time>
      </trkpt>
      <trkpt lat="45.29376" lon="5.7599">
        <ele>1420.2</ele>
        <time>2020-02-08T10:23:01Z</time>
      </trkpt>
      <trkpt lat="45.29375" lon="5.75989">
        <ele>1420.6</ele>
        <time>2020-02-08T10:23:02Z</time>
      </trkpt>
      <trkpt lat="45.29375" lon="5.75989">
        <ele>1421.2</ele>
        <time>2020-02-08T10:23:03Z</time>
      </trkpt>
      <trkpt lat="45.29375" lon="5.75988">
        <ele>1421.2</ele>
        <time>2020-02-08T10:23:04Z</time>
      </trkpt>
      <trkpt lat="45.29374" lon="5.75988">
        <ele>1420.8</ele>
        <time>2020-02-08T10:23:05Z</time>
      </trkpt>
      <trkpt lat="45.29374" lon="5.75987">
        <ele>1421.2</ele>
        <time>2020-02-08T10:23:06Z</time>
      </trkpt>
      <trkpt lat="45.29374" lon="5.75987">
        <ele>1421.4</ele>
        <time>2020-02-08T10:23:07Z</time>
      </trkpt>
      <trkpt lat="45.29373" lon="5.75986">
        <ele>1421.8</ele>
        <time>2020-02-08T10:23:08Z</time>
      </trkpt>
      <trkpt lat="45.29371" lon="5.75985">
        <ele>1421.8</ele>
        <time>2020-02-08T10:23:09Z</time>
      </trkpt>
      <trkpt lat="45.29371" lon="5.75985">
        <ele>1422</ele>
        <time>2020-02-08T10:23:10Z</time>
      </trkpt>
      <trkpt lat="45.2937" lon="5.75982">
        <ele>1422.2</ele>
        <time>2020-02-08T10:23:11Z</time>
      </trkpt>
      <trkpt lat="45.2937" lon="5.75982">
        <ele>1422</ele>
        <time>2020-02-08T10:23:12Z</time>
      </trkpt>
      <trkpt lat="45.2937" lon="5.75982">
        <ele>1422.4</ele>
        <time>2020-02-08T10:23:13Z</time>
      </trkpt>
      <trkpt lat="45.29368" lon="5.7598">
        <ele>1423</ele>
        <time>2020-02-08T10:23:14Z</time>
      </trkpt>
      <trkpt lat="45.29368" lon="5.7598">
        <ele>1423</ele>
        <time>2020-02-08T10:23:15Z</time>
      </trkpt>
      <trkpt lat="45.29368" lon="5.7598">
        <ele>1423</ele>
        <time>2020-02-08T10:23:16Z</time>
      </trkpt>
      <trkpt lat="45.29366" lon="5.75977">
        <ele>1423.2</ele>
        <time>2020-02-08T10:23:17Z</time>
      </trkpt>
      <trkpt lat="45.29366" lon="5.75977">
        <ele>1423.8</ele>
        <time>2020-02-08T10:23:18Z</time>
      </trkpt>
      <trkpt lat="45.29366" lon="5.75977">
        <ele>1424</ele>
        <time>2020-02-08T10:23:19Z</time>
      </trkpt>
      <trkpt lat="45.29364" lon="5.75975">
        <ele>1424.2</ele>
        <time>2020-02-08T10:23:20Z</time>
      </trkpt>
      <trkpt lat="45.29364" lon="5.75975">
        <ele>1424.6</ele>
        <time>2020-02-08T10:23:21Z</time>
      </trkpt>
      <trkpt lat="45.29364" lon="5.75975">
        <ele>1424.6</ele>
        <time>2020-02-08T10:23:22Z</time>
      </trkpt>
      <trkpt lat="45.29363" lon="5.75974">
        <ele>1425</ele>
        <time>2020-02-08T10:23:23Z</time>
      </trkpt>
      <trkpt lat="45.29362" lon="5.75973">
        <ele>1425.4</ele>
        <time>2020-02-08T10:23:24Z</time>
      </trkpt>
      <trkpt lat="45.29362" lon="5.75972">
        <ele>1425.2</ele>
        <time>2020-02-08T10:23:25Z</time>
      </trkpt>
      <trkpt lat="45.29361" lon="5.75971">
        <ele>1425.8</ele>
        <time>2020-02-08T10:23:26Z</time>
      </trkpt>
      <trkpt lat="45.29361" lon="5.75969">
        <ele>1426</ele>
        <time>2020-02-08T10:23:27Z</time>
      </trkpt>
      <trkpt lat="45.29361" lon="5.75969">
        <ele>1426.4</ele>
        <time>2020-02-08T10:23:28Z</time>
      </trkpt>
      <trkpt lat="45.29361" lon="5.75969">
        <ele>1426.2</ele>
        <time>2020-02-08T10:23:29Z</time>
      </trkpt>
      <trkpt lat="45.29361" lon="5.75969">
        <ele>1426.4</ele>
        <time>2020-02-08T10:23:30Z</time>
      </trkpt>
      <trkpt lat="45.29361" lon="5.75969">
        <ele>1427</ele>
        <time>2020-02-08T10:23:31Z</time>
      </trkpt>
      <trkpt lat="45.29357" lon="5.75966">
        <ele>1427.2</ele>
        <time>2020-02-08T10:23:32Z</time>
      </trkpt>
      <trkpt lat="45.29357" lon="5.75966">
        <ele>1427.4</ele>
        <time>2020-02-08T10:23:33Z</time>
      </trkpt>
      <trkpt lat="45.29357" lon="5.75966">
        <ele>1427.6</ele>
        <time>2020-02-08T10:23:34Z</time>
      </trkpt>
      <trkpt lat="45.29355" lon="5.75964">
        <ele>1427.6</ele>
        <time>2020-02-08T10:23:35Z</time>
      </trkpt>
      <trkpt lat="45.29355" lon="5.75964">
        <ele>1428.2</ele>
        <time>2020-02-08T10:23:36Z</time>
      </trkpt>
      <trkpt lat="45.29355" lon="5.75964">
        <ele>1428.6</ele>
        <time>2020-02-08T10:23:37Z</time>
      </trkpt>
      <trkpt lat="45.29353" lon="5.75961">
        <ele>1428.8</ele>
        <time>2020-02-08T10:23:38Z</time>
      </trkpt>
      <trkpt lat="45.29353" lon="5.75961">
        <ele>1429</ele>
        <time>2020-02-08T10:23:39Z</time>
      </trkpt>
      <trkpt lat="45.29353" lon="5.75958">
        <ele>1429.6</ele>
        <time>2020-02-08T10:23:40Z</time>
      </trkpt>
      <trkpt lat="45.29353" lon="5.75958">
        <ele>1429.8</ele>
        <time>2020-02-08T10:23:41Z</time>
      </trkpt>
      <trkpt lat="45.29352" lon="5.75955">
        <ele>1430.2</ele>
        <time>2020-02-08T10:23:42Z</time>
      </trkpt>
      <trkpt lat="45.29352" lon="5.75955">
        <ele>1430.2</ele>
        <time>2020-02-08T10:23:43Z</time>
      </trkpt>
      <trkpt lat="45.29352" lon="5.75955">
        <ele>1430.6</ele>
        <time>2020-02-08T10:23:44Z</time>
      </trkpt>
      <trkpt lat="45.29352" lon="5.75954">
        <ele>1431</ele>
        <time>2020-02-08T10:23:45Z</time>
      </trkpt>
      <trkpt lat="45.29352" lon="5.75953">
        <ele>1431</ele>
        <time>2020-02-08T10:23:46Z</time>
      </trkpt>
      <trkpt lat="45.29352" lon="5.75953">
        <ele>1431.2</ele>
        <time>2020-02-08T10:23:47Z</time>
      </trkpt>
      <trkpt lat="45.29352" lon="5.75952">
        <ele>1431.4</ele>
        <time>2020-02-08T10:23:48Z</time>
      </trkpt>
      <trkpt lat="45.29351" lon="5.75951">
        <ele>1431.8</ele>
        <time>2020-02-08T10:23:49Z</time>
      </trkpt>
      <trkpt lat="45.29351" lon="5.7595">
        <ele>1432</ele>
        <time>2020-02-08T10:23:50Z</time>
      </trkpt>
      <trkpt lat="45.29351" lon="5.75949">
        <ele>1432.2</ele>
        <time>2020-02-08T10:23:51Z</time>
      </trkpt>
      <trkpt lat="45.29351" lon="5.75948">
        <ele>1432.8</ele>
        <time>2020-02-08T10:23:52Z</time>
      </trkpt>
      <trkpt lat="45.29351" lon="5.75947">
        <ele>1432.6</ele>
        <time>2020-02-08T10:23:53Z</time>
      </trkpt>
      <trkpt lat="45.29351" lon="5.75947">
        <ele>1433</ele>
        <time>2020-02-08T10:23:54Z</time>
      </trkpt>
      <trkpt lat="45.29351" lon="5.75946">
        <ele>1433.6</ele>
        <time>2020-02-08T10:23:55Z</time>
      </trkpt>
      <trkpt lat="45.2935" lon="5.75945">
        <ele>1434</ele>
        <time>2020-02-08T10:23:56Z</time>
      </trkpt>
      <trkpt lat="45.2935" lon="5.75944">
        <ele>1434.2</ele>
        <time>2020-02-08T10:23:57Z</time>
      </trkpt>
      <trkpt lat="45.2935" lon="5.75943">
        <ele>1434.6</ele>
        <time>2020-02-08T10:23:58Z</time>
      </trkpt>
      <trkpt lat="45.2935" lon="5.75942">
        <ele>1435</ele>
        <time>2020-02-08T10:23:59Z</time>
      </trkpt>
      <trkpt lat="45.29349" lon="5.7594">
        <ele>1435</ele>
        <time>2020-02-08T10:24:00Z</time>
      </trkpt>
      <trkpt lat="45.29349" lon="5.75938">
        <ele>1435.4</ele>
        <time>2020-02-08T10:24:01Z</time>
      </trkpt>
      <trkpt lat="45.29348" lon="5.75935">
        <ele>1435.8</ele>
        <time>2020-02-08T10:24:02Z</time>
      </trkpt>
      <trkpt lat="45.29348" lon="5.75933">
        <ele>1436.2</ele>
        <time>2020-02-08T10:24:03Z</time>
      </trkpt>
      <trkpt lat="45.29347" lon="5.7593">
        <ele>1436</ele>
        <time>2020-02-08T10:24:04Z</time>
      </trkpt>
      <trkpt lat="45.29347" lon="5.75928">
        <ele>1436.2</ele>
        <time>2020-02-08T10:24:05Z</time>
      </trkpt>
      <trkpt lat="45.29347" lon="5.75928">
        <ele>1436.4</ele>
        <time>2020-02-08T10:24:06Z</time>
      </trkpt>
      <trkpt lat="45.29347" lon="5.75925">
        <ele>1436.2</ele>
        <time>2020-02-08T10:24:07Z</time>
      </trkpt>
      <trkpt lat="45.29347" lon="5.75925">
        <ele>1436.4</ele>
        <time>2020-02-08T10:24:08Z</time>
      </trkpt>
      <trkpt lat="45.29347" lon="5.75925">
        <ele>1436.6</ele>
        <time>2020-02-08T10:24:09Z</time>
      </trkpt>
      <trkpt lat="45.29348" lon="5.75922">
        <ele>1437</ele>
        <time>2020-02-08T10:24:10Z</time>
      </trkpt>
      <trkpt lat="45.29348" lon="5.75919">
        <ele>1437.2</ele>
        <time>2020-02-08T10:24:11Z</time>
      </trkpt>
      <trkpt lat="45.29348" lon="5.75917">
        <ele>1437.4</ele>
        <time>2020-02-08T10:24:12Z</time>
      </trkpt>
      <trkpt lat="45.29349" lon="5.75914">
        <ele>1437.8</ele>
        <time>2020-02-08T10:24:13Z</time>
      </trkpt>
      <trkpt lat="45.29349" lon="5.75911">
        <ele>1437.6</ele>
        <time>2020-02-08T10:24:14Z</time>
      </trkpt>
      <trkpt lat="45.29349" lon="5.75911">
        <ele>1438</ele>
        <time>2020-02-08T10:24:15Z</time>
      </trkpt>
      <trkpt lat="45.29349" lon="5.75911">
        <ele>1438.4</ele>
        <time>2020-02-08T10:24:16Z</time>
      </trkpt>
      <trkpt lat="45.29349" lon="5.75908">
        <ele>1438.2</ele>
        <time>2020-02-08T10:24:17Z</time>
      </trkpt>
      <trkpt lat="45.29349" lon="5.75908">
        <ele>1438.6</ele>
        <time>2020-02-08T10:24:18Z</time>
      </trkpt>
      <trkpt lat="45.29349" lon="5.75905">
        <ele>1438.8</ele>
        <time>2020-02-08T10:24:19Z</time>
      </trkpt>
      <trkpt lat="45.29349" lon="5.75905">
        <ele>1439.2</ele>
        <time>2020-02-08T10:24:20Z</time>
      </trkpt>
      <trkpt lat="45.29349" lon="5.75905">
        <ele>1439</ele>
        <time>2020-02-08T10:24:21Z</time>
      </trkpt>
      <trkpt lat="45.29349" lon="5.75904">
        <ele>1439.4</ele>
        <time>2020-02-08T10:24:22Z</time>
      </trkpt>
      <trkpt lat="45.29349" lon="5.75903">
        <ele>1439.6</ele>
        <time>2020-02-08T10:24:23Z</time>
      </trkpt>
      <trkpt lat="45.2935" lon="5.75902">
        <ele>1440.2</ele>
        <time>2020-02-08T10:24:24Z</time>
      </trkpt>
      <trkpt lat="45.2935" lon="5.75902">
        <ele>1440.6</ele>
        <time>2020-02-08T10:24:25Z</time>
      </trkpt>
      <trkpt lat="45.2935" lon="5.75901">
        <ele>1441</ele>
        <time>2020-02-08T10:24:26Z</time>
      </trkpt>
      <trkpt lat="45.2935" lon="5.759">
        <ele>1441.4</ele>
        <time>2020-02-08T10:24:27Z</time>
      </trkpt>
      <trkpt lat="45.29351" lon="5.75899">
        <ele>1441.2</ele>
        <time>2020-02-08T10:24:28Z</time>
      </trkpt>
      <trkpt lat="45.29351" lon="5.75899">
        <ele>1441.4</ele>
        <time>2020-02-08T10:24:29Z</time>
      </trkpt>
      <trkpt lat="45.29351" lon="5.75899">
        <ele>1441.6</ele>
        <time>2020-02-08T10:24:30Z</time>
      </trkpt>
      <trkpt lat="45.29351" lon="5.75896">
        <ele>1442.4</ele>
        <time>2020-02-08T10:24:31Z</time>
      </trkpt>
      <trkpt lat="45.29351" lon="5.75896">
        <ele>1442.4</ele>
        <time>2020-02-08T10:24:32Z</time>
      </trkpt>
      <trkpt lat="45.29351" lon="5.75896">
        <ele>1442.8</ele>
        <time>2020-02-08T10:24:33Z</time>
      </trkpt>
      <trkpt lat="45.29351" lon="5.75896">
        <ele>1443</ele>
        <time>2020-02-08T10:24:34Z</time>
      </trkpt>
      <trkpt lat="45.2935" lon="5.75893">
        <ele>1443.4</ele>
        <time>2020-02-08T10:24:35Z</time>
      </trkpt>
      <trkpt lat="45.2935" lon="5.75893">
        <ele>1443.8</ele>
        <time>2020-02-08T10:24:36Z</time>
      </trkpt>
      <trkpt lat="45.2935" lon="5.75893">
        <ele>1444.4</ele>
        <time>2020-02-08T10:24:37Z</time>
      </trkpt>
      <trkpt lat="45.2935" lon="5.75893">
        <ele>1444.6</ele>
        <time>2020-02-08T10:24:38Z</time>
      </trkpt>
      <trkpt lat="45.2935" lon="5.75893">
        <ele>1444.8</ele>
        <time>2020-02-08T10:24:39Z</time>
      </trkpt>
      <trkpt lat="45.2935" lon="5.75893">
        <ele>1445.4</ele>
        <time>2020-02-08T10:24:40Z</time>
      </trkpt>
      <trkpt lat="45.2935" lon="5.7589">
        <ele>1445.2</ele>
        <time>2020-02-08T10:24:41Z</time>
      </trkpt>
      <trkpt lat="45.2935" lon="5.7589">
        <ele>1445.8</ele>
        <time>2020-02-08T10:24:42Z</time>
      </trkpt>
      <trkpt lat="45.2935" lon="5.7589">
        <ele>1446</ele>
        <time>2020-02-08T10:24:43Z</time>
      </trkpt>
      <trkpt lat="45.2935" lon="5.75889">
        <ele>1446.4</ele>
        <time>2020-02-08T10:24:44Z</time>
      </trkpt>
      <trkpt lat="45.2935" lon="5.75888">
        <ele>1446.8</ele>
        <time>2020-02-08T10:24:45Z</time>
      </trkpt>
      <trkpt lat="45.2935" lon="5.75887">
        <ele>1446.6</ele>
        <time>2020-02-08T10:24:46Z</time>
      </trkpt>
      <trkpt lat="45.2935" lon="5.75886">
        <ele>1446.4</ele>
        <time>2020-02-08T10:24:47Z</time>
      </trkpt>
      <trkpt lat="45.2935" lon="5.75886">
        <ele>1446.4</ele>
        <time>2020-02-08T10:24:48Z</time>
      </trkpt>
      <trkpt lat="45.2935" lon="5.75885">
        <ele>1446.4</ele>
        <time>2020-02-08T10:24:49Z</time>
      </trkpt>
      <trkpt lat="45.29351" lon="5.75884">
        <ele>1446.8</ele>
        <time>2020-02-08T10:24:50Z</time>
      </trkpt>
      <trkpt lat="45.29351" lon="5.75883">
        <ele>1447</ele>
        <time>2020-02-08T10:24:51Z</time>
      </trkpt>
      <trkpt lat="45.29351" lon="5.75883">
        <ele>1447.4</ele>
        <time>2020-02-08T10:24:52Z</time>
      </trkpt>
      <trkpt lat="45.29351" lon="5.75882">
        <ele>1448</ele>
        <time>2020-02-08T10:24:53Z</time>
      </trkpt>
      <trkpt lat="45.29351" lon="5.75881">
        <ele>1448.2</ele>
        <time>2020-02-08T10:24:54Z</time>
      </trkpt>
      <trkpt lat="45.29351" lon="5.7588">
        <ele>1448.4</ele>
        <time>2020-02-08T10:24:55Z</time>
      </trkpt>
      <trkpt lat="45.29351" lon="5.7588">
        <ele>1449</ele>
        <time>2020-02-08T10:24:56Z</time>
      </trkpt>
      <trkpt lat="45.29351" lon="5.75878">
        <ele>1449.4</ele>
        <time>2020-02-08T10:24:57Z</time>
      </trkpt>
      <trkpt lat="45.29351" lon="5.75878">
        <ele>1449.8</ele>
        <time>2020-02-08T10:24:58Z</time>
      </trkpt>
      <trkpt lat="45.29351" lon="5.75878">
        <ele>1450</ele>
        <time>2020-02-08T10:24:59Z</time>
      </trkpt>
      <trkpt lat="45.2935" lon="5.75876">
        <ele>1450</ele>
        <time>2020-02-08T10:25:00Z</time>
      </trkpt>
      <trkpt lat="45.2935" lon="5.75876">
        <ele>1450</ele>
        <time>2020-02-08T10:25:01Z</time>
      </trkpt>
      <trkpt lat="45.2935" lon="5.75876">
        <ele>1450.6</ele>
        <time>2020-02-08T10:25:02Z</time>
      </trkpt>
      <trkpt lat="45.29348" lon="5.75873">
        <ele>1450.4</ele>
        <time>2020-02-08T10:25:03Z</time>
      </trkpt>
      <trkpt lat="45.29348" lon="5.75873">
        <ele>1450.4</ele>
        <time>2020-02-08T10:25:04Z</time>
      </trkpt>
      <trkpt lat="45.29348" lon="5.75873">
        <ele>1450.8</ele>
        <time>2020-02-08T10:25:05Z</time>
      </trkpt>
      <trkpt lat="45.29348" lon="5.7587">
        <ele>1450.6</ele>
        <time>2020-02-08T10:25:06Z</time>
      </trkpt>
      <trkpt lat="45.29348" lon="5.7587">
        <ele>1450.4</ele>
        <time>2020-02-08T10:25:07Z</time>
      </trkpt>
      <trkpt lat="45.29347" lon="5.75867">
        <ele>1450.6</ele>
        <time>2020-02-08T10:25:08Z</time>
      </trkpt>
      <trkpt lat="45.29347" lon="5.75867">
        <ele>1451.2</ele>
        <time>2020-02-08T10:25:09Z</time>
      </trkpt>
      <trkpt lat="45.29347" lon="5.75867">
        <ele>1450.8</ele>
        <time>2020-02-08T10:25:10Z</time>
      </trkpt>
      <trkpt lat="45.29346" lon="5.75864">
        <ele>1451</ele>
        <time>2020-02-08T10:25:11Z</time>
      </trkpt>
      <trkpt lat="45.29346" lon="5.75864">
        <ele>1451.4</ele>
        <time>2020-02-08T10:25:12Z</time>
      </trkpt>
      <trkpt lat="45.29346" lon="5.75864">
        <ele>1452.2</ele>
        <time>2020-02-08T10:25:13Z</time>
      </trkpt>
      <trkpt lat="45.29344" lon="5.75862">
        <ele>1452</ele>
        <time>2020-02-08T10:25:14Z</time>
      </trkpt>
      <trkpt lat="45.29344" lon="5.75862">
        <ele>1452.4</ele>
        <time>2020-02-08T10:25:15Z</time>
      </trkpt>
      <trkpt lat="45.29342" lon="5.75859">
        <ele>1452.8</ele>
        <time>2020-02-08T10:25:16Z</time>
      </trkpt>
      <trkpt lat="45.29342" lon="5.75859">
        <ele>1453.2</ele>
        <time>2020-02-08T10:25:17Z</time>
      </trkpt>
      <trkpt lat="45.29342" lon="5.75859">
        <ele>1453</ele>
        <time>2020-02-08T10:25:18Z</time>
      </trkpt>
      <trkpt lat="45.29341" lon="5.75858">
        <ele>1453.2</ele>
        <time>2020-02-08T10:25:19Z</time>
      </trkpt>
      <trkpt lat="45.29341" lon="5.75856">
        <ele>1453.6</ele>
        <time>2020-02-08T10:25:20Z</time>
      </trkpt>
      <trkpt lat="45.2934" lon="5.75854">
        <ele>1453.6</ele>
        <time>2020-02-08T10:25:21Z</time>
      </trkpt>
      <trkpt lat="45.29339" lon="5.75853">
        <ele>1453.4</ele>
        <time>2020-02-08T10:25:22Z</time>
      </trkpt>
      <trkpt lat="45.29339" lon="5.75853">
        <ele>1453.6</ele>
        <time>2020-02-08T10:25:23Z</time>
      </trkpt>
      <trkpt lat="45.29337" lon="5.75851">
        <ele>1454.4</ele>
        <time>2020-02-08T10:25:24Z</time>
      </trkpt>
      <trkpt lat="45.29337" lon="5.75851">
        <ele>1454</ele>
        <time>2020-02-08T10:25:25Z</time>
      </trkpt>
      <trkpt lat="45.29335" lon="5.7585">
        <ele>1454.4</ele>
        <time>2020-02-08T10:25:26Z</time>
      </trkpt>
      <trkpt lat="45.29335" lon="5.7585">
        <ele>1454.8</ele>
        <time>2020-02-08T10:25:27Z</time>
      </trkpt>
      <trkpt lat="45.29333" lon="5.75848">
        <ele>1455.2</ele>
        <time>2020-02-08T10:25:28Z</time>
      </trkpt>
      <trkpt lat="45.29333" lon="5.75848">
        <ele>1455.4</ele>
        <time>2020-02-08T10:25:29Z</time>
      </trkpt>
      <trkpt lat="45.29333" lon="5.75848">
        <ele>1455.6</ele>
        <time>2020-02-08T10:25:30Z</time>
      </trkpt>
      <trkpt lat="45.29329" lon="5.75847">
        <ele>1455.8</ele>
        <time>2020-02-08T10:25:31Z</time>
      </trkpt>
      <trkpt lat="45.29329" lon="5.75847">
        <ele>1456</ele>
        <time>2020-02-08T10:25:32Z</time>
      </trkpt>
      <trkpt lat="45.29329" lon="5.75847">
        <ele>1456.4</ele>
        <time>2020-02-08T10:25:33Z</time>
      </trkpt>
      <trkpt lat="45.29328" lon="5.75847">
        <ele>1456.2</ele>
        <time>2020-02-08T10:25:34Z</time>
      </trkpt>
      <trkpt lat="45.29327" lon="5.75846">
        <ele>1456</ele>
        <time>2020-02-08T10:25:35Z</time>
      </trkpt>
      <trkpt lat="45.29326" lon="5.75846">
        <ele>1456.4</ele>
        <time>2020-02-08T10:25:36Z</time>
      </trkpt>
      <trkpt lat="45.29325" lon="5.75846">
        <ele>1456.6</ele>
        <time>2020-02-08T10:25:37Z</time>
      </trkpt>
      <trkpt lat="45.29324" lon="5.75846">
        <ele>1456.6</ele>
        <time>2020-02-08T10:25:38Z</time>
      </trkpt>
      <trkpt lat="45.29323" lon="5.75845">
        <ele>1456.6</ele>
        <time>2020-02-08T10:25:39Z</time>
      </trkpt>
      <trkpt lat="45.29322" lon="5.75845">
        <ele>1456.8</ele>
        <time>2020-02-08T10:25:40Z</time>
      </trkpt>
      <trkpt lat="45.29321" lon="5.75845">
        <ele>1456.2</ele>
        <time>2020-02-08T10:25:41Z</time>
      </trkpt>
      <trkpt lat="45.2932" lon="5.75844">
        <ele>1456</ele>
        <time>2020-02-08T10:25:42Z</time>
      </trkpt>
      <trkpt lat="45.29319" lon="5.75843">
        <ele>1456.2</ele>
        <time>2020-02-08T10:25:43Z</time>
      </trkpt>
      <trkpt lat="45.29317" lon="5.75841">
        <ele>1456.6</ele>
        <time>2020-02-08T10:25:44Z</time>
      </trkpt>
      <trkpt lat="45.29316" lon="5.75839">
        <ele>1456.6</ele>
        <time>2020-02-08T10:25:45Z</time>
      </trkpt>
      <trkpt lat="45.29315" lon="5.75837">
        <ele>1456.6</ele>
        <time>2020-02-08T10:25:46Z</time>
      </trkpt>
      <trkpt lat="45.29314" lon="5.75835">
        <ele>1456.8</ele>
        <time>2020-02-08T10:25:47Z</time>
      </trkpt>
      <trkpt lat="45.29313" lon="5.75833">
        <ele>1457</ele>
        <time>2020-02-08T10:25:48Z</time>
      </trkpt>
      <trkpt lat="45.29311" lon="5.75832">
        <ele>1456.8</ele>
        <time>2020-02-08T10:25:49Z</time>
      </trkpt>
      <trkpt lat="45.29309" lon="5.75831">
        <ele>1456.4</ele>
        <time>2020-02-08T10:25:50Z</time>
      </trkpt>
      <trkpt lat="45.29307" lon="5.75829">
        <ele>1455.8</ele>
        <time>2020-02-08T10:25:51Z</time>
      </trkpt>
      <trkpt lat="45.29305" lon="5.75828">
        <ele>1455.2</ele>
        <time>2020-02-08T10:25:52Z</time>
      </trkpt>
      <trkpt lat="45.29303" lon="5.75827">
        <ele>1455.2</ele>
        <time>2020-02-08T10:25:53Z</time>
      </trkpt>
      <trkpt lat="45.29302" lon="5.75825">
        <ele>1455.2</ele>
        <time>2020-02-08T10:25:54Z</time>
      </trkpt>
      <trkpt lat="45.293" lon="5.75823">
        <ele>1455.4</ele>
        <time>2020-02-08T10:25:55Z</time>
      </trkpt>
      <trkpt lat="45.29298" lon="5.75821">
        <ele>1454.8</ele>
        <time>2020-02-08T10:25:56Z</time>
      </trkpt>
      <trkpt lat="45.29296" lon="5.7582">
        <ele>1454.8</ele>
        <time>2020-02-08T10:25:57Z</time>
      </trkpt>
      <trkpt lat="45.29294" lon="5.75819">
        <ele>1454.8</ele>
        <time>2020-02-08T10:25:58Z</time>
      </trkpt>
      <trkpt lat="45.29293" lon="5.75818">
        <ele>1454.4</ele>
        <time>2020-02-08T10:25:59Z</time>
      </trkpt>
      <trkpt lat="45.29291" lon="5.75817">
        <ele>1454.2</ele>
        <time>2020-02-08T10:26:00Z</time>
      </trkpt>
      <trkpt lat="45.2929" lon="5.75817">
        <ele>1454.6</ele>
        <time>2020-02-08T10:26:01Z</time>
      </trkpt>
      <trkpt lat="45.29289" lon="5.75816">
        <ele>1454.8</ele>
        <time>2020-02-08T10:26:02Z</time>
      </trkpt>
      <trkpt lat="45.29287" lon="5.75815">
        <ele>1454.2</ele>
        <time>2020-02-08T10:26:03Z</time>
      </trkpt>
      <trkpt lat="45.29287" lon="5.75814">
        <ele>1454.4</ele>
        <time>2020-02-08T10:26:04Z</time>
      </trkpt>
      <trkpt lat="45.29286" lon="5.75814">
        <ele>1454.8</ele>
        <time>2020-02-08T10:26:05Z</time>
      </trkpt>
      <trkpt lat="45.29286" lon="5.75813">
        <ele>1455</ele>
        <time>2020-02-08T10:26:06Z</time>
      </trkpt>
      <trkpt lat="45.29285" lon="5.75813">
        <ele>1454.4</ele>
        <time>2020-02-08T10:26:07Z</time>
      </trkpt>
      <trkpt lat="45.29285" lon="5.75812">
        <ele>1454.6</ele>
        <time>2020-02-08T10:26:08Z</time>
      </trkpt>
      <trkpt lat="45.29284" lon="5.75811">
        <ele>1455</ele>
        <time>2020-02-08T10:26:09Z</time>
      </trkpt>
      <trkpt lat="45.29284" lon="5.75811">
        <ele>1455.8</ele>
        <time>2020-02-08T10:26:10Z</time>
      </trkpt>
      <trkpt lat="45.29283" lon="5.7581">
        <ele>1455.6</ele>
        <time>2020-02-08T10:26:11Z</time>
      </trkpt>
      <trkpt lat="45.29283" lon="5.7581">
        <ele>1456</ele>
        <time>2020-02-08T10:26:12Z</time>
      </trkpt>
      <trkpt lat="45.29282" lon="5.75809">
        <ele>1456.8</ele>
        <time>2020-02-08T10:26:13Z</time>
      </trkpt>
      <trkpt lat="45.29282" lon="5.75809">
        <ele>1457</ele>
        <time>2020-02-08T10:26:14Z</time>
      </trkpt>
      <trkpt lat="45.29282" lon="5.75809">
        <ele>1457.2</ele>
        <time>2020-02-08T10:26:15Z</time>
      </trkpt>
      <trkpt lat="45.29282" lon="5.75809">
        <ele>1457.6</ele>
        <time>2020-02-08T10:26:16Z</time>
      </trkpt>
      <trkpt lat="45.29282" lon="5.75809">
        <ele>1458.2</ele>
        <time>2020-02-08T10:26:17Z</time>
      </trkpt>
      <trkpt lat="45.29282" lon="5.75809">
        <ele>1458.4</ele>
        <time>2020-02-08T10:26:18Z</time>
      </trkpt>
      <trkpt lat="45.29282" lon="5.75809">
        <ele>1458.6</ele>
        <time>2020-02-08T10:26:19Z</time>
      </trkpt>
      <trkpt lat="45.29282" lon="5.75809">
        <ele>1458.6</ele>
        <time>2020-02-08T10:26:20Z</time>
      </trkpt>
      <trkpt lat="45.29282" lon="5.75809">
        <ele>1458.8</ele>
        <time>2020-02-08T10:26:21Z</time>
      </trkpt>
      <trkpt lat="45.2928" lon="5.75808">
        <ele>1459.4</ele>
        <time>2020-02-08T10:26:22Z</time>
      </trkpt>
      <trkpt lat="45.2928" lon="5.75808">
        <ele>1459.2</ele>
        <time>2020-02-08T10:26:23Z</time>
      </trkpt>
      <trkpt lat="45.29278" lon="5.75808">
        <ele>1459.2</ele>
        <time>2020-02-08T10:26:24Z</time>
      </trkpt>
      <trkpt lat="45.29278" lon="5.75808">
        <ele>1459.2</ele>
        <time>2020-02-08T10:26:25Z</time>
      </trkpt>
      <trkpt lat="45.29275" lon="5.75808">
        <ele>1459</ele>
        <time>2020-02-08T10:26:26Z</time>
      </trkpt>
      <trkpt lat="45.29275" lon="5.75808">
        <ele>1459.2</ele>
        <time>2020-02-08T10:26:27Z</time>
      </trkpt>
      <trkpt lat="45.29273" lon="5.75808">
        <ele>1459.4</ele>
        <time>2020-02-08T10:26:28Z</time>
      </trkpt>
      <trkpt lat="45.29273" lon="5.75808">
        <ele>1458.6</ele>
        <time>2020-02-08T10:26:29Z</time>
      </trkpt>
      <trkpt lat="45.29273" lon="5.75808">
        <ele>1458.2</ele>
        <time>2020-02-08T10:26:30Z</time>
      </trkpt>
      <trkpt lat="45.2927" lon="5.75807">
        <ele>1458.2</ele>
        <time>2020-02-08T10:26:31Z</time>
      </trkpt>
      <trkpt lat="45.29268" lon="5.75806">
        <ele>1457.6</ele>
        <time>2020-02-08T10:26:32Z</time>
      </trkpt>
      <trkpt lat="45.29266" lon="5.75805">
        <ele>1457.6</ele>
        <time>2020-02-08T10:26:33Z</time>
      </trkpt>
      <trkpt lat="45.29264" lon="5.75804">
        <ele>1457.6</ele>
        <time>2020-02-08T10:26:34Z</time>
      </trkpt>
      <trkpt lat="45.29261" lon="5.75804">
        <ele>1457.4</ele>
        <time>2020-02-08T10:26:35Z</time>
      </trkpt>
      <trkpt lat="45.29259" lon="5.75803">
        <ele>1457.2</ele>
        <time>2020-02-08T10:26:36Z</time>
      </trkpt>
      <trkpt lat="45.29257" lon="5.75803">
        <ele>1457</ele>
        <time>2020-02-08T10:26:37Z</time>
      </trkpt>
      <trkpt lat="45.29255" lon="5.75802">
        <ele>1457</ele>
        <time>2020-02-08T10:26:38Z</time>
      </trkpt>
      <trkpt lat="45.29253" lon="5.75802">
        <ele>1457.4</ele>
        <time>2020-02-08T10:26:39Z</time>
      </trkpt>
      <trkpt lat="45.29251" lon="5.75801">
        <ele>1457</ele>
        <time>2020-02-08T10:26:40Z</time>
      </trkpt>
      <trkpt lat="45.29249" lon="5.758">
        <ele>1457</ele>
        <time>2020-02-08T10:26:41Z</time>
      </trkpt>
      <trkpt lat="45.29247" lon="5.75799">
        <ele>1457.2</ele>
        <time>2020-02-08T10:26:42Z</time>
      </trkpt>
      <trkpt lat="45.29245" lon="5.75798">
        <ele>1456.4</ele>
        <time>2020-02-08T10:26:43Z</time>
      </trkpt>
      <trkpt lat="45.29243" lon="5.75797">
        <ele>1456.2</ele>
        <time>2020-02-08T10:26:44Z</time>
      </trkpt>
      <trkpt lat="45.29241" lon="5.75796">
        <ele>1456</ele>
        <time>2020-02-08T10:26:45Z</time>
      </trkpt>
      <trkpt lat="45.29239" lon="5.75795">
        <ele>1455.8</ele>
        <time>2020-02-08T10:26:46Z</time>
      </trkpt>
      <trkpt lat="45.29237" lon="5.75794">
        <ele>1455.4</ele>
        <time>2020-02-08T10:26:47Z</time>
      </trkpt>
      <trkpt lat="45.29235" lon="5.75793">
        <ele>1454.8</ele>
        <time>2020-02-08T10:26:48Z</time>
      </trkpt>
      <trkpt lat="45.29233" lon="5.75792">
        <ele>1454.4</ele>
        <time>2020-02-08T10:26:49Z</time>
      </trkpt>
      <trkpt lat="45.29231" lon="5.75791">
        <ele>1453.6</ele>
        <time>2020-02-08T10:26:50Z</time>
      </trkpt>
      <trkpt lat="45.29219" lon="5.75786">
        <ele>1453.2</ele>
        <time>2020-02-08T10:26:51Z</time>
      </trkpt>
      <trkpt lat="45.29217" lon="5.75786">
        <ele>1452.8</ele>
        <time>2020-02-08T10:26:52Z</time>
      </trkpt>
      <trkpt lat="45.29215" lon="5.75785">
        <ele>1452.6</ele>
        <time>2020-02-08T10:26:53Z</time>
      </trkpt>
      <trkpt lat="45.29208" lon="5.75784">
        <ele>1452.2</ele>
        <time>2020-02-08T10:26:54Z</time>
      </trkpt>
      <trkpt lat="45.29206" lon="5.75784">
        <ele>1452</ele>
        <time>2020-02-08T10:26:55Z</time>
      </trkpt>
      <trkpt lat="45.29205" lon="5.75783">
        <ele>1451.6</ele>
        <time>2020-02-08T10:26:56Z</time>
      </trkpt>
      <trkpt lat="45.29199" lon="5.75783">
        <ele>1451</ele>
        <time>2020-02-08T10:26:57Z</time>
      </trkpt>
      <trkpt lat="45.29199" lon="5.75783">
        <ele>1450.8</ele>
        <time>2020-02-08T10:26:58Z</time>
      </trkpt>
      <trkpt lat="45.29199" lon="5.75783">
        <ele>1450.6</ele>
        <time>2020-02-08T10:26:59Z</time>
      </trkpt>
      <trkpt lat="45.29197" lon="5.75782">
        <ele>1450.2</ele>
        <time>2020-02-08T10:27:00Z</time>
      </trkpt>
      <trkpt lat="45.29195" lon="5.75782">
        <ele>1449.8</ele>
        <time>2020-02-08T10:27:01Z</time>
      </trkpt>
      <trkpt lat="45.29192" lon="5.75782">
        <ele>1449.8</ele>
        <time>2020-02-08T10:27:02Z</time>
      </trkpt>
      <trkpt lat="45.2919" lon="5.75781">
        <ele>1450.2</ele>
        <time>2020-02-08T10:27:03Z</time>
      </trkpt>
      <trkpt lat="45.29188" lon="5.75781">
        <ele>1449.8</ele>
        <time>2020-02-08T10:27:04Z</time>
      </trkpt>
      <trkpt lat="45.29187" lon="5.75781">
        <ele>1449.6</ele>
        <time>2020-02-08T10:27:05Z</time>
      </trkpt>
      <trkpt lat="45.29185" lon="5.7578">
        <ele>1449.8</ele>
        <time>2020-02-08T10:27:06Z</time>
      </trkpt>
      <trkpt lat="45.29184" lon="5.7578">
        <ele>1450.2</ele>
        <time>2020-02-08T10:27:07Z</time>
      </trkpt>
      <trkpt lat="45.29182" lon="5.75779">
        <ele>1450.6</ele>
        <time>2020-02-08T10:27:08Z</time>
      </trkpt>
      <trkpt lat="45.29181" lon="5.75779">
        <ele>1451.2</ele>
        <time>2020-02-08T10:27:09Z</time>
      </trkpt>
      <trkpt lat="45.29179" lon="5.75779">
        <ele>1451</ele>
        <time>2020-02-08T10:27:10Z</time>
      </trkpt>
      <trkpt lat="45.29178" lon="5.75778">
        <ele>1451.4</ele>
        <time>2020-02-08T10:27:11Z</time>
      </trkpt>
      <trkpt lat="45.29176" lon="5.75778">
        <ele>1451.2</ele>
        <time>2020-02-08T10:27:12Z</time>
      </trkpt>
      <trkpt lat="45.29175" lon="5.75777">
        <ele>1451.4</ele>
        <time>2020-02-08T10:27:13Z</time>
      </trkpt>
      <trkpt lat="45.29174" lon="5.75777">
        <ele>1451.6</ele>
        <time>2020-02-08T10:27:14Z</time>
      </trkpt>
      <trkpt lat="45.29172" lon="5.75776">
        <ele>1451.2</ele>
        <time>2020-02-08T10:27:15Z</time>
      </trkpt>
      <trkpt lat="45.29171" lon="5.75776">
        <ele>1451.2</ele>
        <time>2020-02-08T10:27:16Z</time>
      </trkpt>
      <trkpt lat="45.29168" lon="5.75774">
        <ele>1451.4</ele>
        <time>2020-02-08T10:27:17Z</time>
      </trkpt>
      <trkpt lat="45.29165" lon="5.75772">
        <ele>1450.8</ele>
        <time>2020-02-08T10:27:18Z</time>
      </trkpt>
      <trkpt lat="45.29162" lon="5.75771">
        <ele>1450.6</ele>
        <time>2020-02-08T10:27:19Z</time>
      </trkpt>
      <trkpt lat="45.29159" lon="5.75769">
        <ele>1450.2</ele>
        <time>2020-02-08T10:27:20Z</time>
      </trkpt>
      <trkpt lat="45.29156" lon="5.75767">
        <ele>1450.2</ele>
        <time>2020-02-08T10:27:21Z</time>
      </trkpt>
      <trkpt lat="45.29154" lon="5.75766">
        <ele>1450.2</ele>
        <time>2020-02-08T10:27:22Z</time>
      </trkpt>
      <trkpt lat="45.29153" lon="5.75765">
        <ele>1449.8</ele>
        <time>2020-02-08T10:27:23Z</time>
      </trkpt>
      <trkpt lat="45.29151" lon="5.75763">
        <ele>1449.8</ele>
        <time>2020-02-08T10:27:24Z</time>
      </trkpt>
      <trkpt lat="45.29149" lon="5.75762">
        <ele>1449</ele>
        <time>2020-02-08T10:27:25Z</time>
      </trkpt>
      <trkpt lat="45.29148" lon="5.7576">
        <ele>1449</ele>
        <time>2020-02-08T10:27:26Z</time>
      </trkpt>
      <trkpt lat="45.29146" lon="5.75759">
        <ele>1449</ele>
        <time>2020-02-08T10:27:27Z</time>
      </trkpt>
      <trkpt lat="45.29146" lon="5.75759">
        <ele>1448.8</ele>
        <time>2020-02-08T10:27:28Z</time>
      </trkpt>
      <trkpt lat="45.29143" lon="5.75757">
        <ele>1448.6</ele>
        <time>2020-02-08T10:27:29Z</time>
      </trkpt>
      <trkpt lat="45.29143" lon="5.75757">
        <ele>1449</ele>
        <time>2020-02-08T10:27:30Z</time>
      </trkpt>
      <trkpt lat="45.29143" lon="5.75757">
        <ele>1449</ele>
        <time>2020-02-08T10:27:31Z</time>
      </trkpt>
      <trkpt lat="45.29139" lon="5.75756">
        <ele>1449.8</ele>
        <time>2020-02-08T10:27:32Z</time>
      </trkpt>
      <trkpt lat="45.29139" lon="5.75756">
        <ele>1449.6</ele>
        <time>2020-02-08T10:27:33Z</time>
      </trkpt>
      <trkpt lat="45.29137" lon="5.75753">
        <ele>1449.4</ele>
        <time>2020-02-08T10:27:34Z</time>
      </trkpt>
      <trkpt lat="45.29137" lon="5.75753">
        <ele>1449.6</ele>
        <time>2020-02-08T10:27:35Z</time>
      </trkpt>
      <trkpt lat="45.29135" lon="5.75751">
        <ele>1449.6</ele>
        <time>2020-02-08T10:27:36Z</time>
      </trkpt>
      <trkpt lat="45.29135" lon="5.75751">
        <ele>1449.8</ele>
        <time>2020-02-08T10:27:37Z</time>
      </trkpt>
      <trkpt lat="45.29134" lon="5.75748">
        <ele>1449.8</ele>
        <time>2020-02-08T10:27:38Z</time>
      </trkpt>
      <trkpt lat="45.29134" lon="5.75748">
        <ele>1450.2</ele>
        <time>2020-02-08T10:27:39Z</time>
      </trkpt>
      <trkpt lat="45.29132" lon="5.75745">
        <ele>1450</ele>
        <time>2020-02-08T10:27:40Z</time>
      </trkpt>
      <trkpt lat="45.29131" lon="5.75743">
        <ele>1450.2</ele>
        <time>2020-02-08T10:27:41Z</time>
      </trkpt>
      <trkpt lat="45.29129" lon="5.75742">
        <ele>1450</ele>
        <time>2020-02-08T10:27:42Z</time>
      </trkpt>
      <trkpt lat="45.29129" lon="5.75742">
        <ele>1450</ele>
        <time>2020-02-08T10:27:43Z</time>
      </trkpt>
      <trkpt lat="45.29127" lon="5.7574">
        <ele>1450</ele>
        <time>2020-02-08T10:27:44Z</time>
      </trkpt>
      <trkpt lat="45.29127" lon="5.7574">
        <ele>1450.2</ele>
        <time>2020-02-08T10:27:45Z</time>
      </trkpt>
      <trkpt lat="45.29125" lon="5.75738">
        <ele>1450.6</ele>
        <time>2020-02-08T10:27:46Z</time>
      </trkpt>
      <trkpt lat="45.29125" lon="5.75738">
        <ele>1450.2</ele>
        <time>2020-02-08T10:27:47Z</time>
      </trkpt>
      <trkpt lat="45.29124" lon="5.75735">
        <ele>1450.4</ele>
        <time>2020-02-08T10:27:48Z</time>
      </trkpt>
      <trkpt lat="45.29124" lon="5.75735">
        <ele>1450.8</ele>
        <time>2020-02-08T10:27:49Z</time>
      </trkpt>
      <trkpt lat="45.29123" lon="5.75733">
        <ele>1451.6</ele>
        <time>2020-02-08T10:27:50Z</time>
      </trkpt>
      <trkpt lat="45.29123" lon="5.75733">
        <ele>1451.4</ele>
        <time>2020-02-08T10:27:51Z</time>
      </trkpt>
      <trkpt lat="45.29123" lon="5.75733">
        <ele>1451.8</ele>
        <time>2020-02-08T10:27:52Z</time>
      </trkpt>
      <trkpt lat="45.29125" lon="5.7573">
        <ele>1452.2</ele>
        <time>2020-02-08T10:27:53Z</time>
      </trkpt>
      <trkpt lat="45.29125" lon="5.7573">
        <ele>1452.8</ele>
        <time>2020-02-08T10:27:54Z</time>
      </trkpt>
      <trkpt lat="45.29125" lon="5.7573">
        <ele>1452.4</ele>
        <time>2020-02-08T10:27:55Z</time>
      </trkpt>
      <trkpt lat="45.29126" lon="5.75725">
        <ele>1453</ele>
        <time>2020-02-08T10:27:56Z</time>
      </trkpt>
      <trkpt lat="45.29126" lon="5.75725">
        <ele>1453.4</ele>
        <time>2020-02-08T10:27:57Z</time>
      </trkpt>
      <trkpt lat="45.29126" lon="5.75725">
        <ele>1454</ele>
        <time>2020-02-08T10:27:58Z</time>
      </trkpt>
      <trkpt lat="45.29126" lon="5.75723">
        <ele>1454</ele>
        <time>2020-02-08T10:27:59Z</time>
      </trkpt>
      <trkpt lat="45.29126" lon="5.75722">
        <ele>1454.4</ele>
        <time>2020-02-08T10:28:00Z</time>
      </trkpt>
      <trkpt lat="45.29125" lon="5.7572">
        <ele>1454.8</ele>
        <time>2020-02-08T10:28:01Z</time>
      </trkpt>
      <trkpt lat="45.29125" lon="5.75719">
        <ele>1455.2</ele>
        <time>2020-02-08T10:28:02Z</time>
      </trkpt>
      <trkpt lat="45.29124" lon="5.75718">
        <ele>1455.2</ele>
        <time>2020-02-08T10:28:03Z</time>
      </trkpt>
      <trkpt lat="45.29124" lon="5.75716">
        <ele>1455.2</ele>
        <time>2020-02-08T10:28:04Z</time>
      </trkpt>
      <trkpt lat="45.29123" lon="5.75715">
        <ele>1455.6</ele>
        <time>2020-02-08T10:28:05Z</time>
      </trkpt>
      <trkpt lat="45.29123" lon="5.75713">
        <ele>1456</ele>
        <time>2020-02-08T10:28:06Z</time>
      </trkpt>
      <trkpt lat="45.29122" lon="5.75712">
        <ele>1456.2</ele>
        <time>2020-02-08T10:28:07Z</time>
      </trkpt>
      <trkpt lat="45.29121" lon="5.75711">
        <ele>1456.4</ele>
        <time>2020-02-08T10:28:08Z</time>
      </trkpt>
      <trkpt lat="45.2912" lon="5.75711">
        <ele>1456.6</ele>
        <time>2020-02-08T10:28:09Z</time>
      </trkpt>
      <trkpt lat="45.2912" lon="5.7571">
        <ele>1456.4</ele>
        <time>2020-02-08T10:28:10Z</time>
      </trkpt>
      <trkpt lat="45.29119" lon="5.75709">
        <ele>1456.6</ele>
        <time>2020-02-08T10:28:11Z</time>
      </trkpt>
      <trkpt lat="45.29117" lon="5.75708">
        <ele>1456.8</ele>
        <time>2020-02-08T10:28:12Z</time>
      </trkpt>
      <trkpt lat="45.29117" lon="5.75708">
        <ele>1457.2</ele>
        <time>2020-02-08T10:28:13Z</time>
      </trkpt>
      <trkpt lat="45.29117" lon="5.75708">
        <ele>1456.8</ele>
        <time>2020-02-08T10:28:14Z</time>
      </trkpt>
      <trkpt lat="45.29115" lon="5.75706">
        <ele>1456.8</ele>
        <time>2020-02-08T10:28:15Z</time>
      </trkpt>
      <trkpt lat="45.29115" lon="5.75706">
        <ele>1457.2</ele>
        <time>2020-02-08T10:28:16Z</time>
      </trkpt>
      <trkpt lat="45.29115" lon="5.75706">
        <ele>1457.8</ele>
        <time>2020-02-08T10:28:17Z</time>
      </trkpt>
      <trkpt lat="45.29114" lon="5.75705">
        <ele>1457.4</ele>
        <time>2020-02-08T10:28:18Z</time>
      </trkpt>
      <trkpt lat="45.29113" lon="5.75704">
        <ele>1457.6</ele>
        <time>2020-02-08T10:28:19Z</time>
      </trkpt>
      <trkpt lat="45.29112" lon="5.75703">
        <ele>1457.8</ele>
        <time>2020-02-08T10:28:20Z</time>
      </trkpt>
      <trkpt lat="45.29111" lon="5.75702">
        <ele>1458.2</ele>
        <time>2020-02-08T10:28:21Z</time>
      </trkpt>
      <trkpt lat="45.2911" lon="5.75701">
        <ele>1457.8</ele>
        <time>2020-02-08T10:28:22Z</time>
      </trkpt>
      <trkpt lat="45.29109" lon="5.757">
        <ele>1458.2</ele>
        <time>2020-02-08T10:28:23Z</time>
      </trkpt>
      <trkpt lat="45.29109" lon="5.757">
        <ele>1458.4</ele>
        <time>2020-02-08T10:28:24Z</time>
      </trkpt>
      <trkpt lat="45.29108" lon="5.75699">
        <ele>1458.6</ele>
        <time>2020-02-08T10:28:25Z</time>
      </trkpt>
      <trkpt lat="45.29107" lon="5.75698">
        <ele>1459.2</ele>
        <time>2020-02-08T10:28:26Z</time>
      </trkpt>
      <trkpt lat="45.29106" lon="5.75697">
        <ele>1459.6</ele>
        <time>2020-02-08T10:28:27Z</time>
      </trkpt>
      <trkpt lat="45.29105" lon="5.75696">
        <ele>1459.8</ele>
        <time>2020-02-08T10:28:28Z</time>
      </trkpt>
      <trkpt lat="45.29104" lon="5.75695">
        <ele>1460</ele>
        <time>2020-02-08T10:28:29Z</time>
      </trkpt>
      <trkpt lat="45.29104" lon="5.75695">
        <ele>1460.4</ele>
        <time>2020-02-08T10:28:30Z</time>
      </trkpt>
      <trkpt lat="45.29103" lon="5.75694">
        <ele>1460.8</ele>
        <time>2020-02-08T10:28:31Z</time>
      </trkpt>
      <trkpt lat="45.29102" lon="5.75693">
        <ele>1460.8</ele>
        <time>2020-02-08T10:28:32Z</time>
      </trkpt>
      <trkpt lat="45.29101" lon="5.75692">
        <ele>1461</ele>
        <time>2020-02-08T10:28:33Z</time>
      </trkpt>
      <trkpt lat="45.291" lon="5.75691">
        <ele>1461.2</ele>
        <time>2020-02-08T10:28:34Z</time>
      </trkpt>
      <trkpt lat="45.291" lon="5.75691">
        <ele>1461.2</ele>
        <time>2020-02-08T10:28:35Z</time>
      </trkpt>
      <trkpt lat="45.29099" lon="5.7569">
        <ele>1461.6</ele>
        <time>2020-02-08T10:28:36Z</time>
      </trkpt>
      <trkpt lat="45.29099" lon="5.75689">
        <ele>1461.4</ele>
        <time>2020-02-08T10:28:37Z</time>
      </trkpt>
      <trkpt lat="45.29098" lon="5.75687">
        <ele>1461.6</ele>
        <time>2020-02-08T10:28:38Z</time>
      </trkpt>
      <trkpt lat="45.29098" lon="5.75686">
        <ele>1461.8</ele>
        <time>2020-02-08T10:28:39Z</time>
      </trkpt>
      <trkpt lat="45.29098" lon="5.75685">
        <ele>1462.2</ele>
        <time>2020-02-08T10:28:40Z</time>
      </trkpt>
      <trkpt lat="45.29097" lon="5.75684">
        <ele>1462.6</ele>
        <time>2020-02-08T10:28:41Z</time>
      </trkpt>
      <trkpt lat="45.29097" lon="5.75683">
        <ele>1462.6</ele>
        <time>2020-02-08T10:28:42Z</time>
      </trkpt>
      <trkpt lat="45.29097" lon="5.75682">
        <ele>1462.8</ele>
        <time>2020-02-08T10:28:43Z</time>
      </trkpt>
      <trkpt lat="45.29097" lon="5.7568">
        <ele>1463.2</ele>
        <time>2020-02-08T10:28:44Z</time>
      </trkpt>
      <trkpt lat="45.29096" lon="5.75679">
        <ele>1463.6</ele>
        <time>2020-02-08T10:28:45Z</time>
      </trkpt>
      <trkpt lat="45.29096" lon="5.75678">
        <ele>1463.6</ele>
        <time>2020-02-08T10:28:46Z</time>
      </trkpt>
      <trkpt lat="45.29096" lon="5.75677">
        <ele>1463.6</ele>
        <time>2020-02-08T10:28:47Z</time>
      </trkpt>
      <trkpt lat="45.29095" lon="5.75676">
        <ele>1464</ele>
        <time>2020-02-08T10:28:48Z</time>
      </trkpt>
      <trkpt lat="45.29094" lon="5.75675">
        <ele>1464.4</ele>
        <time>2020-02-08T10:28:49Z</time>
      </trkpt>
      <trkpt lat="45.29094" lon="5.75674">
        <ele>1464.2</ele>
        <time>2020-02-08T10:28:50Z</time>
      </trkpt>
      <trkpt lat="45.29093" lon="5.75673">
        <ele>1464</ele>
        <time>2020-02-08T10:28:51Z</time>
      </trkpt>
      <trkpt lat="45.29093" lon="5.75672">
        <ele>1464.4</ele>
        <time>2020-02-08T10:28:52Z</time>
      </trkpt>
      <trkpt lat="45.29092" lon="5.75671">
        <ele>1464.2</ele>
        <time>2020-02-08T10:28:53Z</time>
      </trkpt>
      <trkpt lat="45.29092" lon="5.7567">
        <ele>1465</ele>
        <time>2020-02-08T10:28:54Z</time>
      </trkpt>
      <trkpt lat="45.29091" lon="5.75669">
        <ele>1465.2</ele>
        <time>2020-02-08T10:28:55Z</time>
      </trkpt>
      <trkpt lat="45.2909" lon="5.75668">
        <ele>1465.4</ele>
        <time>2020-02-08T10:28:56Z</time>
      </trkpt>
      <trkpt lat="45.2909" lon="5.75667">
        <ele>1465.8</ele>
        <time>2020-02-08T10:28:57Z</time>
      </trkpt>
      <trkpt lat="45.29089" lon="5.75666">
        <ele>1466.2</ele>
        <time>2020-02-08T10:28:58Z</time>
      </trkpt>
      <trkpt lat="45.29088" lon="5.75666">
        <ele>1466.4</ele>
        <time>2020-02-08T10:28:59Z</time>
      </trkpt>
      <trkpt lat="45.29088" lon="5.75665">
        <ele>1466.8</ele>
        <time>2020-02-08T10:29:00Z</time>
      </trkpt>
      <trkpt lat="45.29087" lon="5.75664">
        <ele>1467.2</ele>
        <time>2020-02-08T10:29:01Z</time>
      </trkpt>
      <trkpt lat="45.29086" lon="5.75664">
        <ele>1467.4</ele>
        <time>2020-02-08T10:29:02Z</time>
      </trkpt>
      <trkpt lat="45.29086" lon="5.75663">
        <ele>1467.8</ele>
        <time>2020-02-08T10:29:03Z</time>
      </trkpt>
      <trkpt lat="45.29085" lon="5.75663">
        <ele>1467.8</ele>
        <time>2020-02-08T10:29:04Z</time>
      </trkpt>
      <trkpt lat="45.29084" lon="5.75663">
        <ele>1468</ele>
        <time>2020-02-08T10:29:05Z</time>
      </trkpt>
      <trkpt lat="45.29084" lon="5.75663">
        <ele>1468.2</ele>
        <time>2020-02-08T10:29:06Z</time>
      </trkpt>
      <trkpt lat="45.29083" lon="5.75663">
        <ele>1468.8</ele>
        <time>2020-02-08T10:29:07Z</time>
      </trkpt>
      <trkpt lat="45.29082" lon="5.75664">
        <ele>1469.2</ele>
        <time>2020-02-08T10:29:08Z</time>
      </trkpt>
      <trkpt lat="45.29082" lon="5.75664">
        <ele>1469.2</ele>
        <time>2020-02-08T10:29:09Z</time>
      </trkpt>
      <trkpt lat="45.29081" lon="5.75664">
        <ele>1469.8</ele>
        <time>2020-02-08T10:29:10Z</time>
      </trkpt>
      <trkpt lat="45.2908" lon="5.75664">
        <ele>1470</ele>
        <time>2020-02-08T10:29:11Z</time>
      </trkpt>
      <trkpt lat="45.2908" lon="5.75664">
        <ele>1469.8</ele>
        <time>2020-02-08T10:29:12Z</time>
      </trkpt>
      <trkpt lat="45.29079" lon="5.75664">
        <ele>1470.2</ele>
        <time>2020-02-08T10:29:13Z</time>
      </trkpt>
      <trkpt lat="45.29078" lon="5.75664">
        <ele>1470.2</ele>
        <time>2020-02-08T10:29:14Z</time>
      </trkpt>
      <trkpt lat="45.29078" lon="5.75665">
        <ele>1470.4</ele>
        <time>2020-02-08T10:29:15Z</time>
      </trkpt>
      <trkpt lat="45.29077" lon="5.75665">
        <ele>1469.8</ele>
        <time>2020-02-08T10:29:16Z</time>
      </trkpt>
      <trkpt lat="45.29075" lon="5.75664">
        <ele>1469.8</ele>
        <time>2020-02-08T10:29:17Z</time>
      </trkpt>
      <trkpt lat="45.29073" lon="5.75663">
        <ele>1469.8</ele>
        <time>2020-02-08T10:29:18Z</time>
      </trkpt>
      <trkpt lat="45.29071" lon="5.75662">
        <ele>1469.8</ele>
        <time>2020-02-08T10:29:19Z</time>
      </trkpt>
      <trkpt lat="45.29069" lon="5.75661">
        <ele>1469.6</ele>
        <time>2020-02-08T10:29:20Z</time>
      </trkpt>
      <trkpt lat="45.29067" lon="5.7566">
        <ele>1469.2</ele>
        <time>2020-02-08T10:29:21Z</time>
      </trkpt>
      <trkpt lat="45.29065" lon="5.75659">
        <ele>1469.4</ele>
        <time>2020-02-08T10:29:22Z</time>
      </trkpt>
      <trkpt lat="45.29063" lon="5.75657">
        <ele>1469</ele>
        <time>2020-02-08T10:29:23Z</time>
      </trkpt>
      <trkpt lat="45.29061" lon="5.75656">
        <ele>1468.8</ele>
        <time>2020-02-08T10:29:24Z</time>
      </trkpt>
      <trkpt lat="45.2906" lon="5.75655">
        <ele>1468.8</ele>
        <time>2020-02-08T10:29:25Z</time>
      </trkpt>
      <trkpt lat="45.29058" lon="5.75653">
        <ele>1468.4</ele>
        <time>2020-02-08T10:29:26Z</time>
      </trkpt>
      <trkpt lat="45.29056" lon="5.75652">
        <ele>1468.8</ele>
        <time>2020-02-08T10:29:27Z</time>
      </trkpt>
      <trkpt lat="45.29055" lon="5.75651">
        <ele>1469.2</ele>
        <time>2020-02-08T10:29:28Z</time>
      </trkpt>
      <trkpt lat="45.29053" lon="5.7565">
        <ele>1468.8</ele>
        <time>2020-02-08T10:29:29Z</time>
      </trkpt>
      <trkpt lat="45.29051" lon="5.75649">
        <ele>1468.4</ele>
        <time>2020-02-08T10:29:30Z</time>
      </trkpt>
      <trkpt lat="45.2905" lon="5.75648">
        <ele>1468</ele>
        <time>2020-02-08T10:29:31Z</time>
      </trkpt>
      <trkpt lat="45.29048" lon="5.75647">
        <ele>1468</ele>
        <time>2020-02-08T10:29:32Z</time>
      </trkpt>
      <trkpt lat="45.29047" lon="5.75645">
        <ele>1467.6</ele>
        <time>2020-02-08T10:29:33Z</time>
      </trkpt>
      <trkpt lat="45.29045" lon="5.75644">
        <ele>1467.6</ele>
        <time>2020-02-08T10:29:34Z</time>
      </trkpt>
      <trkpt lat="45.29043" lon="5.75642">
        <ele>1467</ele>
        <time>2020-02-08T10:29:35Z</time>
      </trkpt>
      <trkpt lat="45.29041" lon="5.75641">
        <ele>1467.2</ele>
        <time>2020-02-08T10:29:36Z</time>
      </trkpt>
      <trkpt lat="45.2904" lon="5.75639">
        <ele>1467</ele>
        <time>2020-02-08T10:29:37Z</time>
      </trkpt>
      <trkpt lat="45.29038" lon="5.75638">
        <ele>1467</ele>
        <time>2020-02-08T10:29:38Z</time>
      </trkpt>
      <trkpt lat="45.29036" lon="5.75637">
        <ele>1466.6</ele>
        <time>2020-02-08T10:29:39Z</time>
      </trkpt>
      <trkpt lat="45.29034" lon="5.75635">
        <ele>1466.2</ele>
        <time>2020-02-08T10:29:40Z</time>
      </trkpt>
      <trkpt lat="45.29033" lon="5.75634">
        <ele>1465.8</ele>
        <time>2020-02-08T10:29:41Z</time>
      </trkpt>
      <trkpt lat="45.29031" lon="5.75633">
        <ele>1465.4</ele>
        <time>2020-02-08T10:29:42Z</time>
      </trkpt>
      <trkpt lat="45.29029" lon="5.75632">
        <ele>1464.8</ele>
        <time>2020-02-08T10:29:43Z</time>
      </trkpt>
      <trkpt lat="45.29027" lon="5.7563">
        <ele>1464.4</ele>
        <time>2020-02-08T10:29:44Z</time>
      </trkpt>
      <trkpt lat="45.29025" lon="5.75629">
        <ele>1464.4</ele>
        <time>2020-02-08T10:29:45Z</time>
      </trkpt>
      <trkpt lat="45.29023" lon="5.75628">
        <ele>1464.4</ele>
        <time>2020-02-08T10:29:46Z</time>
      </trkpt>
      <trkpt lat="45.29021" lon="5.75626">
        <ele>1464</ele>
        <time>2020-02-08T10:29:47Z</time>
      </trkpt>
      <trkpt lat="45.29019" lon="5.75625">
        <ele>1463.8</ele>
        <time>2020-02-08T10:29:48Z</time>
      </trkpt>
      <trkpt lat="45.29017" lon="5.75624">
        <ele>1464</ele>
        <time>2020-02-08T10:29:49Z</time>
      </trkpt>
      <trkpt lat="45.29015" lon="5.75622">
        <ele>1464.6</ele>
        <time>2020-02-08T10:29:50Z</time>
      </trkpt>
      <trkpt lat="45.29014" lon="5.75621">
        <ele>1464</ele>
        <time>2020-02-08T10:29:51Z</time>
      </trkpt>
      <trkpt lat="45.29012" lon="5.7562">
        <ele>1464.4</ele>
        <time>2020-02-08T10:29:52Z</time>
      </trkpt>
      <trkpt lat="45.29011" lon="5.7562">
        <ele>1464.6</ele>
        <time>2020-02-08T10:29:53Z</time>
      </trkpt>
      <trkpt lat="45.29009" lon="5.75619">
        <ele>1464.4</ele>
        <time>2020-02-08T10:29:54Z</time>
      </trkpt>
      <trkpt lat="45.29008" lon="5.75619">
        <ele>1464.2</ele>
        <time>2020-02-08T10:29:55Z</time>
      </trkpt>
      <trkpt lat="45.29007" lon="5.75619">
        <ele>1463.8</ele>
        <time>2020-02-08T10:29:56Z</time>
      </trkpt>
      <trkpt lat="45.29005" lon="5.75619">
        <ele>1463.8</ele>
        <time>2020-02-08T10:29:57Z</time>
      </trkpt>
      <trkpt lat="45.29004" lon="5.75619">
        <ele>1463.2</ele>
        <time>2020-02-08T10:29:58Z</time>
      </trkpt>
      <trkpt lat="45.29002" lon="5.75619">
        <ele>1463</ele>
        <time>2020-02-08T10:29:59Z</time>
      </trkpt>
      <trkpt lat="45.29001" lon="5.75617">
        <ele>1462.4</ele>
        <time>2020-02-08T10:30:00Z</time>
      </trkpt>
      <trkpt lat="45.29" lon="5.75615">
        <ele>1462.4</ele>
        <time>2020-02-08T10:30:01Z</time>
      </trkpt>
      <trkpt lat="45.28999" lon="5.75613">
        <ele>1462.4</ele>
        <time>2020-02-08T10:30:02Z</time>
      </trkpt>
      <trkpt lat="45.28998" lon="5.7561">
        <ele>1462</ele>
        <time>2020-02-08T10:30:03Z</time>
      </trkpt>
      <trkpt lat="45.28997" lon="5.75608">
        <ele>1462.2</ele>
        <time>2020-02-08T10:30:04Z</time>
      </trkpt>
      <trkpt lat="45.28996" lon="5.75606">
        <ele>1462.6</ele>
        <time>2020-02-08T10:30:05Z</time>
      </trkpt>
      <trkpt lat="45.28996" lon="5.75604">
        <ele>1462.6</ele>
        <time>2020-02-08T10:30:06Z</time>
      </trkpt>
      <trkpt lat="45.28996" lon="5.75602">
        <ele>1463</ele>
        <time>2020-02-08T10:30:07Z</time>
      </trkpt>
      <trkpt lat="45.28996" lon="5.756">
        <ele>1463.4</ele>
        <time>2020-02-08T10:30:08Z</time>
      </trkpt>
      <trkpt lat="45.28996" lon="5.75597">
        <ele>1463</ele>
        <time>2020-02-08T10:30:09Z</time>
      </trkpt>
      <trkpt lat="45.28996" lon="5.75595">
        <ele>1463.6</ele>
        <time>2020-02-08T10:30:10Z</time>
      </trkpt>
      <trkpt lat="45.28996" lon="5.75593">
        <ele>1464.2</ele>
        <time>2020-02-08T10:30:11Z</time>
      </trkpt>
      <trkpt lat="45.28996" lon="5.75593">
        <ele>1464</ele>
        <time>2020-02-08T10:30:12Z</time>
      </trkpt>
      <trkpt lat="45.28997" lon="5.75593">
        <ele>1464.4</ele>
        <time>2020-02-08T10:30:13Z</time>
      </trkpt>
      <trkpt lat="45.28998" lon="5.75593">
        <ele>1465.4</ele>
        <time>2020-02-08T10:30:14Z</time>
      </trkpt>
      <trkpt lat="45.28999" lon="5.75593">
        <ele>1464.8</ele>
        <time>2020-02-08T10:30:15Z</time>
      </trkpt>
      <trkpt lat="45.28999" lon="5.75593">
        <ele>1465.4</ele>
        <time>2020-02-08T10:30:16Z</time>
      </trkpt>
      <trkpt lat="45.29" lon="5.75592">
        <ele>1466.2</ele>
        <time>2020-02-08T10:30:17Z</time>
      </trkpt>
      <trkpt lat="45.29001" lon="5.75592">
        <ele>1466.2</ele>
        <time>2020-02-08T10:30:18Z</time>
      </trkpt>
      <trkpt lat="45.29002" lon="5.75592">
        <ele>1466.4</ele>
        <time>2020-02-08T10:30:19Z</time>
      </trkpt>
      <trkpt lat="45.29003" lon="5.75592">
        <ele>1467</ele>
        <time>2020-02-08T10:30:20Z</time>
      </trkpt>
      <trkpt lat="45.29003" lon="5.75592">
        <ele>1467.6</ele>
        <time>2020-02-08T10:30:21Z</time>
      </trkpt>
      <trkpt lat="45.29004" lon="5.75592">
        <ele>1467.6</ele>
        <time>2020-02-08T10:30:22Z</time>
      </trkpt>
      <trkpt lat="45.29005" lon="5.75592">
        <ele>1468.2</ele>
        <time>2020-02-08T10:30:23Z</time>
      </trkpt>
      <trkpt lat="45.29005" lon="5.75591">
        <ele>1468.4</ele>
        <time>2020-02-08T10:30:24Z</time>
      </trkpt>
      <trkpt lat="45.29005" lon="5.75591">
        <ele>1468.6</ele>
        <time>2020-02-08T10:30:25Z</time>
      </trkpt>
      <trkpt lat="45.29005" lon="5.75591">
        <ele>1468.2</ele>
        <time>2020-02-08T10:30:26Z</time>
      </trkpt>
      <trkpt lat="45.29004" lon="5.75591">
        <ele>1468.6</ele>
        <time>2020-02-08T10:30:27Z</time>
      </trkpt>
      <trkpt lat="45.29004" lon="5.7559">
        <ele>1468.8</ele>
        <time>2020-02-08T10:30:28Z</time>
      </trkpt>
      <trkpt lat="45.29004" lon="5.7559">
        <ele>1469</ele>
        <time>2020-02-08T10:30:29Z</time>
      </trkpt>
      <trkpt lat="45.29004" lon="5.7559">
        <ele>1469</ele>
        <time>2020-02-08T10:30:30Z</time>
      </trkpt>
      <trkpt lat="45.29004" lon="5.7559">
        <ele>1469.2</ele>
        <time>2020-02-08T10:30:31Z</time>
      </trkpt>
      <trkpt lat="45.29004" lon="5.75589">
        <ele>1469</ele>
        <time>2020-02-08T10:30:32Z</time>
      </trkpt>
      <trkpt lat="45.29004" lon="5.75589">
        <ele>1469.4</ele>
        <time>2020-02-08T10:30:33Z</time>
      </trkpt>
      <trkpt lat="45.29004" lon="5.75589">
        <ele>1469.6</ele>
        <time>2020-02-08T10:30:34Z</time>
      </trkpt>
      <trkpt lat="45.29004" lon="5.75588">
        <ele>1470</ele>
        <time>2020-02-08T10:30:35Z</time>
      </trkpt>
      <trkpt lat="45.29004" lon="5.75588">
        <ele>1471</ele>
        <time>2020-02-08T10:30:36Z</time>
      </trkpt>
      <trkpt lat="45.29004" lon="5.75588">
        <ele>1471.2</ele>
        <time>2020-02-08T10:30:37Z</time>
      </trkpt>
      <trkpt lat="45.29003" lon="5.75588">
        <ele>1471.8</ele>
        <time>2020-02-08T10:30:38Z</time>
      </trkpt>
      <trkpt lat="45.29003" lon="5.75587">
        <ele>1471.8</ele>
        <time>2020-02-08T10:30:39Z</time>
      </trkpt>
      <trkpt lat="45.29003" lon="5.75587">
        <ele>1472</ele>
        <time>2020-02-08T10:30:40Z</time>
      </trkpt>
      <trkpt lat="45.29003" lon="5.75587">
        <ele>1472.4</ele>
        <time>2020-02-08T10:30:41Z</time>
      </trkpt>
      <trkpt lat="45.29003" lon="5.75587">
        <ele>1472.2</ele>
        <time>2020-02-08T10:30:42Z</time>
      </trkpt>
      <trkpt lat="45.29003" lon="5.75586">
        <ele>1472.4</ele>
        <time>2020-02-08T10:30:43Z</time>
      </trkpt>
      <trkpt lat="45.29003" lon="5.75586">
        <ele>1472.8</ele>
        <time>2020-02-08T10:30:44Z</time>
      </trkpt>
      <trkpt lat="45.29003" lon="5.75586">
        <ele>1472.8</ele>
        <time>2020-02-08T10:30:45Z</time>
      </trkpt>
      <trkpt lat="45.29003" lon="5.75585">
        <ele>1473.8</ele>
        <time>2020-02-08T10:30:46Z</time>
      </trkpt>
      <trkpt lat="45.29003" lon="5.75585">
        <ele>1474</ele>
        <time>2020-02-08T10:30:47Z</time>
      </trkpt>
      <trkpt lat="45.29002" lon="5.75585">
        <ele>1474</ele>
        <time>2020-02-08T10:30:48Z</time>
      </trkpt>
      <trkpt lat="45.29002" lon="5.75585">
        <ele>1474.6</ele>
        <time>2020-02-08T10:30:49Z</time>
      </trkpt>
      <trkpt lat="45.29002" lon="5.75584">
        <ele>1474.4</ele>
        <time>2020-02-08T10:30:50Z</time>
      </trkpt>
      <trkpt lat="45.29002" lon="5.75584">
        <ele>1474.6</ele>
        <time>2020-02-08T10:30:51Z</time>
      </trkpt>
      <trkpt lat="45.29002" lon="5.75584">
        <ele>1474.6</ele>
        <time>2020-02-08T10:30:52Z</time>
      </trkpt>
      <trkpt lat="45.29002" lon="5.75584">
        <ele>1474</ele>
        <time>2020-02-08T10:30:53Z</time>
      </trkpt>
      <trkpt lat="45.29002" lon="5.75583">
        <ele>1474.6</ele>
        <time>2020-02-08T10:30:54Z</time>
      </trkpt>
      <trkpt lat="45.29002" lon="5.75583">
        <ele>1474.8</ele>
        <time>2020-02-08T10:30:55Z</time>
      </trkpt>
      <trkpt lat="45.29002" lon="5.75583">
        <ele>1474.8</ele>
        <time>2020-02-08T10:30:56Z</time>
      </trkpt>
      <trkpt lat="45.29002" lon="5.75582">
        <ele>1474.8</ele>
        <time>2020-02-08T10:30:57Z</time>
      </trkpt>
      <trkpt lat="45.29002" lon="5.75582">
        <ele>1475</ele>
        <time>2020-02-08T10:30:58Z</time>
      </trkpt>
      <trkpt lat="45.29001" lon="5.75582">
        <ele>1474.4</ele>
        <time>2020-02-08T10:30:59Z</time>
      </trkpt>
      <trkpt lat="45.29001" lon="5.75582">
        <ele>1474.8</ele>
        <time>2020-02-08T10:31:00Z</time>
      </trkpt>
      <trkpt lat="45.29001" lon="5.75581">
        <ele>1475.4</ele>
        <time>2020-02-08T10:31:01Z</time>
      </trkpt>
      <trkpt lat="45.29" lon="5.7558">
        <ele>1475.2</ele>
        <time>2020-02-08T10:31:02Z</time>
      </trkpt>
      <trkpt lat="45.28999" lon="5.75579">
        <ele>1475.6</ele>
        <time>2020-02-08T10:31:03Z</time>
      </trkpt>
      <trkpt lat="45.28999" lon="5.75578">
        <ele>1476</ele>
        <time>2020-02-08T10:31:04Z</time>
      </trkpt>
      <trkpt lat="45.28998" lon="5.75578">
        <ele>1476.2</ele>
        <time>2020-02-08T10:31:05Z</time>
      </trkpt>
      <trkpt lat="45.28998" lon="5.75577">
        <ele>1476.4</ele>
        <time>2020-02-08T10:31:06Z</time>
      </trkpt>
      <trkpt lat="45.28997" lon="5.75576">
        <ele>1476</ele>
        <time>2020-02-08T10:31:07Z</time>
      </trkpt>
      <trkpt lat="45.28996" lon="5.75575">
        <ele>1476.6</ele>
        <time>2020-02-08T10:31:08Z</time>
      </trkpt>
      <trkpt lat="45.28996" lon="5.75574">
        <ele>1477.4</ele>
        <time>2020-02-08T10:31:09Z</time>
      </trkpt>
      <trkpt lat="45.28996" lon="5.75574">
        <ele>1477.4</ele>
        <time>2020-02-08T10:31:10Z</time>
      </trkpt>
      <trkpt lat="45.28996" lon="5.75573">
        <ele>1477.8</ele>
        <time>2020-02-08T10:31:11Z</time>
      </trkpt>
      <trkpt lat="45.28996" lon="5.75572">
        <ele>1478</ele>
        <time>2020-02-08T10:31:12Z</time>
      </trkpt>
      <trkpt lat="45.28996" lon="5.75572">
        <ele>1478.4</ele>
        <time>2020-02-08T10:31:13Z</time>
      </trkpt>
      <trkpt lat="45.28996" lon="5.75571">
        <ele>1478.6</ele>
        <time>2020-02-08T10:31:14Z</time>
      </trkpt>
      <trkpt lat="45.28996" lon="5.75571">
        <ele>1478.8</ele>
        <time>2020-02-08T10:31:15Z</time>
      </trkpt>
      <trkpt lat="45.28996" lon="5.7557">
        <ele>1479.2</ele>
        <time>2020-02-08T10:31:16Z</time>
      </trkpt>
      <trkpt lat="45.28996" lon="5.75569">
        <ele>1479</ele>
        <time>2020-02-08T10:31:17Z</time>
      </trkpt>
      <trkpt lat="45.28996" lon="5.75569">
        <ele>1479.6</ele>
        <time>2020-02-08T10:31:18Z</time>
      </trkpt>
      <trkpt lat="45.28996" lon="5.75568">
        <ele>1479.4</ele>
        <time>2020-02-08T10:31:19Z</time>
      </trkpt>
      <trkpt lat="45.28996" lon="5.75567">
        <ele>1479.2</ele>
        <time>2020-02-08T10:31:20Z</time>
      </trkpt>
      <trkpt lat="45.28996" lon="5.75567">
        <ele>1479.4</ele>
        <time>2020-02-08T10:31:21Z</time>
      </trkpt>
      <trkpt lat="45.28996" lon="5.75566">
        <ele>1479.6</ele>
        <time>2020-02-08T10:31:22Z</time>
      </trkpt>
      <trkpt lat="45.28995" lon="5.75565">
        <ele>1479.8</ele>
        <time>2020-02-08T10:31:23Z</time>
      </trkpt>
      <trkpt lat="45.28995" lon="5.75565">
        <ele>1480</ele>
        <time>2020-02-08T10:31:24Z</time>
      </trkpt>
      <trkpt lat="45.28994" lon="5.75564">
        <ele>1480.4</ele>
        <time>2020-02-08T10:31:25Z</time>
      </trkpt>
      <trkpt lat="45.28993" lon="5.75563">
        <ele>1480.2</ele>
        <time>2020-02-08T10:31:26Z</time>
      </trkpt>
      <trkpt lat="45.28993" lon="5.75563">
        <ele>1480.4</ele>
        <time>2020-02-08T10:31:27Z</time>
      </trkpt>
      <trkpt lat="45.28992" lon="5.75562">
        <ele>1481</ele>
        <time>2020-02-08T10:31:28Z</time>
      </trkpt>
      <trkpt lat="45.28991" lon="5.75561">
        <ele>1481.2</ele>
        <time>2020-02-08T10:31:29Z</time>
      </trkpt>
      <trkpt lat="45.28991" lon="5.75561">
        <ele>1481.6</ele>
        <time>2020-02-08T10:31:30Z</time>
      </trkpt>
      <trkpt lat="45.2899" lon="5.75558">
        <ele>1482</ele>
        <time>2020-02-08T10:31:31Z</time>
      </trkpt>
      <trkpt lat="45.2899" lon="5.75558">
        <ele>1482</ele>
        <time>2020-02-08T10:31:32Z</time>
      </trkpt>
      <trkpt lat="45.2899" lon="5.75558">
        <ele>1482.4</ele>
        <time>2020-02-08T10:31:33Z</time>
      </trkpt>
      <trkpt lat="45.2899" lon="5.75558">
        <ele>1482.4</ele>
        <time>2020-02-08T10:31:34Z</time>
      </trkpt>
      <trkpt lat="45.28989" lon="5.75555">
        <ele>1483.2</ele>
        <time>2020-02-08T10:31:35Z</time>
      </trkpt>
      <trkpt lat="45.28989" lon="5.75555">
        <ele>1483.6</ele>
        <time>2020-02-08T10:31:36Z</time>
      </trkpt>
      <trkpt lat="45.28992" lon="5.75554">
        <ele>1484</ele>
        <time>2020-02-08T10:31:37Z</time>
      </trkpt>
      <trkpt lat="45.28992" lon="5.75554">
        <ele>1484.4</ele>
        <time>2020-02-08T10:31:38Z</time>
      </trkpt>
      <trkpt lat="45.28992" lon="5.75554">
        <ele>1484.4</ele>
        <time>2020-02-08T10:31:39Z</time>
      </trkpt>
      <trkpt lat="45.28994" lon="5.75553">
        <ele>1484.4</ele>
        <time>2020-02-08T10:31:40Z</time>
      </trkpt>
      <trkpt lat="45.28994" lon="5.75553">
        <ele>1484.2</ele>
        <time>2020-02-08T10:31:41Z</time>
      </trkpt>
      <trkpt lat="45.28996" lon="5.75552">
        <ele>1484.4</ele>
        <time>2020-02-08T10:31:42Z</time>
      </trkpt>
      <trkpt lat="45.28996" lon="5.75552">
        <ele>1484.6</ele>
        <time>2020-02-08T10:31:43Z</time>
      </trkpt>
      <trkpt lat="45.28998" lon="5.75551">
        <ele>1484.8</ele>
        <time>2020-02-08T10:31:44Z</time>
      </trkpt>
      <trkpt lat="45.28998" lon="5.75551">
        <ele>1484.8</ele>
        <time>2020-02-08T10:31:45Z</time>
      </trkpt>
      <trkpt lat="45.29001" lon="5.75551">
        <ele>1485</ele>
        <time>2020-02-08T10:31:46Z</time>
      </trkpt>
      <trkpt lat="45.29001" lon="5.75551">
        <ele>1485.2</ele>
        <time>2020-02-08T10:31:47Z</time>
      </trkpt>
      <trkpt lat="45.29003" lon="5.7555">
        <ele>1485.8</ele>
        <time>2020-02-08T10:31:48Z</time>
      </trkpt>
      <trkpt lat="45.29003" lon="5.7555">
        <ele>1485.8</ele>
        <time>2020-02-08T10:31:49Z</time>
      </trkpt>
      <trkpt lat="45.29003" lon="5.7555">
        <ele>1485.8</ele>
        <time>2020-02-08T10:31:50Z</time>
      </trkpt>
      <trkpt lat="45.29003" lon="5.7555">
        <ele>1486</ele>
        <time>2020-02-08T10:31:51Z</time>
      </trkpt>
      <trkpt lat="45.29003" lon="5.7555">
        <ele>1486</ele>
        <time>2020-02-08T10:31:52Z</time>
      </trkpt>
      <trkpt lat="45.29003" lon="5.7555">
        <ele>1485.2</ele>
        <time>2020-02-08T10:31:53Z</time>
      </trkpt>
      <trkpt lat="45.29003" lon="5.7555">
        <ele>1485.4</ele>
        <time>2020-02-08T10:31:54Z</time>
      </trkpt>
      <trkpt lat="45.29003" lon="5.7555">
        <ele>1484.8</ele>
        <time>2020-02-08T10:31:55Z</time>
      </trkpt>
      <trkpt lat="45.29003" lon="5.7555">
        <ele>1485</ele>
        <time>2020-02-08T10:31:56Z</time>
      </trkpt>
      <trkpt lat="45.28999" lon="5.75549">
        <ele>1485.6</ele>
        <time>2020-02-08T10:31:57Z</time>
      </trkpt>
      <trkpt lat="45.28999" lon="5.75549">
        <ele>1485.4</ele>
        <time>2020-02-08T10:31:58Z</time>
      </trkpt>
      <trkpt lat="45.28999" lon="5.75549">
        <ele>1485.8</ele>
        <time>2020-02-08T10:31:59Z</time>
      </trkpt>
      <trkpt lat="45.28998" lon="5.75548">
        <ele>1485.8</ele>
        <time>2020-02-08T10:32:00Z</time>
      </trkpt>
      <trkpt lat="45.28997" lon="5.75548">
        <ele>1486.2</ele>
        <time>2020-02-08T10:32:01Z</time>
      </trkpt>
      <trkpt lat="45.28996" lon="5.75547">
        <ele>1486</ele>
        <time>2020-02-08T10:32:02Z</time>
      </trkpt>
      <trkpt lat="45.28995" lon="5.75547">
        <ele>1485.8</ele>
        <time>2020-02-08T10:32:03Z</time>
      </trkpt>
      <trkpt lat="45.28994" lon="5.75546">
        <ele>1486.2</ele>
        <time>2020-02-08T10:32:04Z</time>
      </trkpt>
      <trkpt lat="45.28993" lon="5.75546">
        <ele>1486.4</ele>
        <time>2020-02-08T10:32:05Z</time>
      </trkpt>
      <trkpt lat="45.28992" lon="5.75545">
        <ele>1486</ele>
        <time>2020-02-08T10:32:06Z</time>
      </trkpt>
      <trkpt lat="45.28991" lon="5.75545">
        <ele>1486</ele>
        <time>2020-02-08T10:32:07Z</time>
      </trkpt>
      <trkpt lat="45.28989" lon="5.75544">
        <ele>1486.4</ele>
        <time>2020-02-08T10:32:08Z</time>
      </trkpt>
      <trkpt lat="45.28989" lon="5.75544">
        <ele>1486.4</ele>
        <time>2020-02-08T10:32:09Z</time>
      </trkpt>
      <trkpt lat="45.28989" lon="5.75544">
        <ele>1486.6</ele>
        <time>2020-02-08T10:32:10Z</time>
      </trkpt>
      <trkpt lat="45.28989" lon="5.75544">
        <ele>1486.8</ele>
        <time>2020-02-08T10:32:11Z</time>
      </trkpt>
      <trkpt lat="45.28987" lon="5.75543">
        <ele>1487.2</ele>
        <time>2020-02-08T10:32:12Z</time>
      </trkpt>
      <trkpt lat="45.28987" lon="5.75543">
        <ele>1487</ele>
        <time>2020-02-08T10:32:13Z</time>
      </trkpt>
      <trkpt lat="45.28987" lon="5.75543">
        <ele>1487</ele>
        <time>2020-02-08T10:32:14Z</time>
      </trkpt>
      <trkpt lat="45.28987" lon="5.75543">
        <ele>1487</ele>
        <time>2020-02-08T10:32:15Z</time>
      </trkpt>
      <trkpt lat="45.28987" lon="5.75543">
        <ele>1487.4</ele>
        <time>2020-02-08T10:32:16Z</time>
      </trkpt>
      <trkpt lat="45.28987" lon="5.75543">
        <ele>1487.2</ele>
        <time>2020-02-08T10:32:17Z</time>
      </trkpt>
      <trkpt lat="45.28987" lon="5.75543">
        <ele>1488</ele>
        <time>2020-02-08T10:32:18Z</time>
      </trkpt>
      <trkpt lat="45.28987" lon="5.75543">
        <ele>1488.4</ele>
        <time>2020-02-08T10:32:19Z</time>
      </trkpt>
      <trkpt lat="45.28987" lon="5.75539">
        <ele>1488.8</ele>
        <time>2020-02-08T10:32:20Z</time>
      </trkpt>
      <trkpt lat="45.28987" lon="5.75539">
        <ele>1489</ele>
        <time>2020-02-08T10:32:21Z</time>
      </trkpt>
      <trkpt lat="45.28988" lon="5.75538">
        <ele>1489.2</ele>
        <time>2020-02-08T10:32:22Z</time>
      </trkpt>
      <trkpt lat="45.28988" lon="5.75538">
        <ele>1489.2</ele>
        <time>2020-02-08T10:32:23Z</time>
      </trkpt>
      <trkpt lat="45.28988" lon="5.75538">
        <ele>1489.4</ele>
        <time>2020-02-08T10:32:24Z</time>
      </trkpt>
      <trkpt lat="45.28988" lon="5.75538">
        <ele>1489.2</ele>
        <time>2020-02-08T10:32:25Z</time>
      </trkpt>
      <trkpt lat="45.28987" lon="5.75537">
        <ele>1488.8</ele>
        <time>2020-02-08T10:32:26Z</time>
      </trkpt>
      <trkpt lat="45.28987" lon="5.75537">
        <ele>1489</ele>
        <time>2020-02-08T10:32:27Z</time>
      </trkpt>
      <trkpt lat="45.28987" lon="5.75537">
        <ele>1489</ele>
        <time>2020-02-08T10:32:28Z</time>
      </trkpt>
      <trkpt lat="45.28986" lon="5.75537">
        <ele>1488.8</ele>
        <time>2020-02-08T10:32:29Z</time>
      </trkpt>
      <trkpt lat="45.28986" lon="5.75537">
        <ele>1488.6</ele>
        <time>2020-02-08T10:32:30Z</time>
      </trkpt>
      <trkpt lat="45.28986" lon="5.75537">
        <ele>1489</ele>
        <time>2020-02-08T10:32:31Z</time>
      </trkpt>
      <trkpt lat="45.28985" lon="5.75536">
        <ele>1489</ele>
        <time>2020-02-08T10:32:32Z</time>
      </trkpt>
      <trkpt lat="45.28985" lon="5.75536">
        <ele>1489.2</ele>
        <time>2020-02-08T10:32:33Z</time>
      </trkpt>
      <trkpt lat="45.28985" lon="5.75536">
        <ele>1489.2</ele>
        <time>2020-02-08T10:32:34Z</time>
      </trkpt>
      <trkpt lat="45.28984" lon="5.75536">
        <ele>1489</ele>
        <time>2020-02-08T10:32:35Z</time>
      </trkpt>
      <trkpt lat="45.28984" lon="5.75536">
        <ele>1489.4</ele>
        <time>2020-02-08T10:32:36Z</time>
      </trkpt>
      <trkpt lat="45.28984" lon="5.75535">
        <ele>1490.2</ele>
        <time>2020-02-08T10:32:37Z</time>
      </trkpt>
      <trkpt lat="45.28983" lon="5.75535">
        <ele>1490.2</ele>
        <time>2020-02-08T10:32:38Z</time>
      </trkpt>
      <trkpt lat="45.28983" lon="5.75535">
        <ele>1490.6</ele>
        <time>2020-02-08T10:32:39Z</time>
      </trkpt>
      <trkpt lat="45.28983" lon="5.75535">
        <ele>1490.8</ele>
        <time>2020-02-08T10:32:40Z</time>
      </trkpt>
      <trkpt lat="45.28982" lon="5.75535">
        <ele>1491</ele>
        <time>2020-02-08T10:32:41Z</time>
      </trkpt>
      <trkpt lat="45.28982" lon="5.75534">
        <ele>1491.6</ele>
        <time>2020-02-08T10:32:42Z</time>
      </trkpt>
      <trkpt lat="45.28982" lon="5.75534">
        <ele>1491.8</ele>
        <time>2020-02-08T10:32:43Z</time>
      </trkpt>
      <trkpt lat="45.28982" lon="5.75534">
        <ele>1492</ele>
        <time>2020-02-08T10:32:44Z</time>
      </trkpt>
      <trkpt lat="45.28983" lon="5.75533">
        <ele>1492.6</ele>
        <time>2020-02-08T10:32:45Z</time>
      </trkpt>
      <trkpt lat="45.28984" lon="5.75532">
        <ele>1493</ele>
        <time>2020-02-08T10:32:46Z</time>
      </trkpt>
      <trkpt lat="45.28985" lon="5.75531">
        <ele>1493.2</ele>
        <time>2020-02-08T10:32:47Z</time>
      </trkpt>
      <trkpt lat="45.28986" lon="5.75531">
        <ele>1493.2</ele>
        <time>2020-02-08T10:32:48Z</time>
      </trkpt>
      <trkpt lat="45.28986" lon="5.75531">
        <ele>1493.2</ele>
        <time>2020-02-08T10:32:49Z</time>
      </trkpt>
      <trkpt lat="45.28986" lon="5.75531">
        <ele>1493.4</ele>
        <time>2020-02-08T10:32:50Z</time>
      </trkpt>
      <trkpt lat="45.28986" lon="5.75531">
        <ele>1493.2</ele>
        <time>2020-02-08T10:32:51Z</time>
      </trkpt>
      <trkpt lat="45.28986" lon="5.75531">
        <ele>1493.2</ele>
        <time>2020-02-08T10:32:52Z</time>
      </trkpt>
      <trkpt lat="45.28986" lon="5.75531">
        <ele>1493.4</ele>
        <time>2020-02-08T10:32:53Z</time>
      </trkpt>
      <trkpt lat="45.28986" lon="5.75531">
        <ele>1493.8</ele>
        <time>2020-02-08T10:32:54Z</time>
      </trkpt>
      <trkpt lat="45.28986" lon="5.75531">
        <ele>1493.8</ele>
        <time>2020-02-08T10:32:55Z</time>
      </trkpt>
      <trkpt lat="45.28986" lon="5.75531">
        <ele>1494</ele>
        <time>2020-02-08T10:32:56Z</time>
      </trkpt>
      <trkpt lat="45.28986" lon="5.75531">
        <ele>1494.4</ele>
        <time>2020-02-08T10:32:57Z</time>
      </trkpt>
      <trkpt lat="45.28986" lon="5.75531">
        <ele>1494.4</ele>
        <time>2020-02-08T10:32:58Z</time>
      </trkpt>
      <trkpt lat="45.28986" lon="5.75526">
        <ele>1494.6</ele>
        <time>2020-02-08T10:32:59Z</time>
      </trkpt>
      <trkpt lat="45.28986" lon="5.75526">
        <ele>1494.6</ele>
        <time>2020-02-08T10:33:00Z</time>
      </trkpt>
      <trkpt lat="45.28986" lon="5.75526">
        <ele>1494.6</ele>
        <time>2020-02-08T10:33:01Z</time>
      </trkpt>
      <trkpt lat="45.28985" lon="5.75526">
        <ele>1494.8</ele>
        <time>2020-02-08T10:33:02Z</time>
      </trkpt>
      <trkpt lat="45.28985" lon="5.75526">
        <ele>1494.4</ele>
        <time>2020-02-08T10:33:03Z</time>
      </trkpt>
      <trkpt lat="45.28985" lon="5.75526">
        <ele>1494.4</ele>
        <time>2020-02-08T10:33:04Z</time>
      </trkpt>
      <trkpt lat="45.28985" lon="5.75526">
        <ele>1493.6</ele>
        <time>2020-02-08T10:33:05Z</time>
      </trkpt>
      <trkpt lat="45.28985" lon="5.75525">
        <ele>1493.6</ele>
        <time>2020-02-08T10:33:06Z</time>
      </trkpt>
      <trkpt lat="45.28984" lon="5.75525">
        <ele>1493.2</ele>
        <time>2020-02-08T10:33:07Z</time>
      </trkpt>
      <trkpt lat="45.28984" lon="5.75525">
        <ele>1493.8</ele>
        <time>2020-02-08T10:33:08Z</time>
      </trkpt>
      <trkpt lat="45.28984" lon="5.75525">
        <ele>1494.4</ele>
        <time>2020-02-08T10:33:09Z</time>
      </trkpt>
      <trkpt lat="45.28984" lon="5.75525">
        <ele>1494.6</ele>
        <time>2020-02-08T10:33:10Z</time>
      </trkpt>
      <trkpt lat="45.28984" lon="5.75524">
        <ele>1495</ele>
        <time>2020-02-08T10:33:11Z</time>
      </trkpt>
      <trkpt lat="45.28983" lon="5.75524">
        <ele>1495.2</ele>
        <time>2020-02-08T10:33:12Z</time>
      </trkpt>
      <trkpt lat="45.28983" lon="5.75524">
        <ele>1495</ele>
        <time>2020-02-08T10:33:13Z</time>
      </trkpt>
      <trkpt lat="45.28983" lon="5.75524">
        <ele>1494.8</ele>
        <time>2020-02-08T10:33:14Z</time>
      </trkpt>
      <trkpt lat="45.28983" lon="5.75524">
        <ele>1495.4</ele>
        <time>2020-02-08T10:33:15Z</time>
      </trkpt>
      <trkpt lat="45.28983" lon="5.75524">
        <ele>1495.4</ele>
        <time>2020-02-08T10:33:16Z</time>
      </trkpt>
      <trkpt lat="45.28982" lon="5.75523">
        <ele>1495.6</ele>
        <time>2020-02-08T10:33:17Z</time>
      </trkpt>
      <trkpt lat="45.28982" lon="5.75523">
        <ele>1495.6</ele>
        <time>2020-02-08T10:33:18Z</time>
      </trkpt>
      <trkpt lat="45.28982" lon="5.75523">
        <ele>1496</ele>
        <time>2020-02-08T10:33:19Z</time>
      </trkpt>
      <trkpt lat="45.28982" lon="5.75523">
        <ele>1496.2</ele>
        <time>2020-02-08T10:33:20Z</time>
      </trkpt>
      <trkpt lat="45.28982" lon="5.75523">
        <ele>1496.4</ele>
        <time>2020-02-08T10:33:21Z</time>
      </trkpt>
      <trkpt lat="45.28981" lon="5.75522">
        <ele>1496.4</ele>
        <time>2020-02-08T10:33:22Z</time>
      </trkpt>
      <trkpt lat="45.28981" lon="5.75522">
        <ele>1496.6</ele>
        <time>2020-02-08T10:33:23Z</time>
      </trkpt>
      <trkpt lat="45.28981" lon="5.75522">
        <ele>1496.2</ele>
        <time>2020-02-08T10:33:24Z</time>
      </trkpt>
      <trkpt lat="45.28981" lon="5.75522">
        <ele>1496</ele>
        <time>2020-02-08T10:33:25Z</time>
      </trkpt>
      <trkpt lat="45.28981" lon="5.75521">
        <ele>1495.8</ele>
        <time>2020-02-08T10:33:26Z</time>
      </trkpt>
      <trkpt lat="45.2898" lon="5.75521">
        <ele>1495.4</ele>
        <time>2020-02-08T10:33:27Z</time>
      </trkpt>
      <trkpt lat="45.2898" lon="5.75521">
        <ele>1495.2</ele>
        <time>2020-02-08T10:33:28Z</time>
      </trkpt>
      <trkpt lat="45.2898" lon="5.7552">
        <ele>1495.8</ele>
        <time>2020-02-08T10:33:29Z</time>
      </trkpt>
      <trkpt lat="45.2898" lon="5.7552">
        <ele>1495.6</ele>
        <time>2020-02-08T10:33:30Z</time>
      </trkpt>
      <trkpt lat="45.2898" lon="5.7552">
        <ele>1496</ele>
        <time>2020-02-08T10:33:31Z</time>
      </trkpt>
      <trkpt lat="45.28979" lon="5.75519">
        <ele>1496.2</ele>
        <time>2020-02-08T10:33:32Z</time>
      </trkpt>
      <trkpt lat="45.28979" lon="5.75519">
        <ele>1496.6</ele>
        <time>2020-02-08T10:33:33Z</time>
      </trkpt>
      <trkpt lat="45.28979" lon="5.75519">
        <ele>1496.4</ele>
        <time>2020-02-08T10:33:34Z</time>
      </trkpt>
      <trkpt lat="45.28979" lon="5.75518">
        <ele>1497</ele>
        <time>2020-02-08T10:33:35Z</time>
      </trkpt>
      <trkpt lat="45.28979" lon="5.75518">
        <ele>1497.8</ele>
        <time>2020-02-08T10:33:36Z</time>
      </trkpt>
      <trkpt lat="45.28978" lon="5.75518">
        <ele>1498.2</ele>
        <time>2020-02-08T10:33:37Z</time>
      </trkpt>
      <trkpt lat="45.28978" lon="5.75517">
        <ele>1498.4</ele>
        <time>2020-02-08T10:33:38Z</time>
      </trkpt>
      <trkpt lat="45.28978" lon="5.75517">
        <ele>1498.6</ele>
        <time>2020-02-08T10:33:39Z</time>
      </trkpt>
      <trkpt lat="45.28978" lon="5.75517">
        <ele>1498.8</ele>
        <time>2020-02-08T10:33:40Z</time>
      </trkpt>
      <trkpt lat="45.28978" lon="5.75516">
        <ele>1498.8</ele>
        <time>2020-02-08T10:33:41Z</time>
      </trkpt>
      <trkpt lat="45.28977" lon="5.75516">
        <ele>1498.8</ele>
        <time>2020-02-08T10:33:42Z</time>
      </trkpt>
      <trkpt lat="45.28977" lon="5.75516">
        <ele>1499</ele>
        <time>2020-02-08T10:33:43Z</time>
      </trkpt>
      <trkpt lat="45.28977" lon="5.75515">
        <ele>1498.8</ele>
        <time>2020-02-08T10:33:44Z</time>
      </trkpt>
      <trkpt lat="45.28977" lon="5.75515">
        <ele>1498.8</ele>
        <time>2020-02-08T10:33:45Z</time>
      </trkpt>
      <trkpt lat="45.28977" lon="5.75515">
        <ele>1498</ele>
        <time>2020-02-08T10:33:46Z</time>
      </trkpt>
      <trkpt lat="45.28976" lon="5.75514">
        <ele>1498.8</ele>
        <time>2020-02-08T10:33:47Z</time>
      </trkpt>
      <trkpt lat="45.28976" lon="5.75514">
        <ele>1498.8</ele>
        <time>2020-02-08T10:33:48Z</time>
      </trkpt>
      <trkpt lat="45.28976" lon="5.75514">
        <ele>1499</ele>
        <time>2020-02-08T10:33:49Z</time>
      </trkpt>
      <trkpt lat="45.28976" lon="5.75513">
        <ele>1498.8</ele>
        <time>2020-02-08T10:33:50Z</time>
      </trkpt>
      <trkpt lat="45.28976" lon="5.75513">
        <ele>1499.2</ele>
        <time>2020-02-08T10:33:51Z</time>
      </trkpt>
      <trkpt lat="45.28975" lon="5.75513">
        <ele>1499</ele>
        <time>2020-02-08T10:33:52Z</time>
      </trkpt>
      <trkpt lat="45.28975" lon="5.75512">
        <ele>1499.4</ele>
        <time>2020-02-08T10:33:53Z</time>
      </trkpt>
      <trkpt lat="45.28976" lon="5.75512">
        <ele>1499.4</ele>
        <time>2020-02-08T10:33:54Z</time>
      </trkpt>
      <trkpt lat="45.28977" lon="5.75512">
        <ele>1499.8</ele>
        <time>2020-02-08T10:33:55Z</time>
      </trkpt>
      <trkpt lat="45.28977" lon="5.75511">
        <ele>1500.2</ele>
        <time>2020-02-08T10:33:56Z</time>
      </trkpt>
      <trkpt lat="45.28978" lon="5.75511">
        <ele>1500.6</ele>
        <time>2020-02-08T10:33:57Z</time>
      </trkpt>
      <trkpt lat="45.28979" lon="5.75511">
        <ele>1500.8</ele>
        <time>2020-02-08T10:33:58Z</time>
      </trkpt>
      <trkpt lat="45.28979" lon="5.7551">
        <ele>1500.8</ele>
        <time>2020-02-08T10:33:59Z</time>
      </trkpt>
      <trkpt lat="45.2898" lon="5.7551">
        <ele>1500.6</ele>
        <time>2020-02-08T10:34:00Z</time>
      </trkpt>
      <trkpt lat="45.2898" lon="5.75509">
        <ele>1500.8</ele>
        <time>2020-02-08T10:34:01Z</time>
      </trkpt>
      <trkpt lat="45.28981" lon="5.75509">
        <ele>1501</ele>
        <time>2020-02-08T10:34:02Z</time>
      </trkpt>
      <trkpt lat="45.28982" lon="5.75509">
        <ele>1501.4</ele>
        <time>2020-02-08T10:34:03Z</time>
      </trkpt>
      <trkpt lat="45.28982" lon="5.75508">
        <ele>1502</ele>
        <time>2020-02-08T10:34:04Z</time>
      </trkpt>
      <trkpt lat="45.28983" lon="5.75508">
        <ele>1502.2</ele>
        <time>2020-02-08T10:34:05Z</time>
      </trkpt>
      <trkpt lat="45.28984" lon="5.75508">
        <ele>1502.2</ele>
        <time>2020-02-08T10:34:06Z</time>
      </trkpt>
      <trkpt lat="45.28984" lon="5.75507">
        <ele>1502</ele>
        <time>2020-02-08T10:34:07Z</time>
      </trkpt>
      <trkpt lat="45.28984" lon="5.75507">
        <ele>1502</ele>
        <time>2020-02-08T10:34:08Z</time>
      </trkpt>
      <trkpt lat="45.28984" lon="5.75507">
        <ele>1502</ele>
        <time>2020-02-08T10:34:09Z</time>
      </trkpt>
      <trkpt lat="45.28984" lon="5.75507">
        <ele>1501.8</ele>
        <time>2020-02-08T10:34:10Z</time>
      </trkpt>
      <trkpt lat="45.28987" lon="5.75506">
        <ele>1502</ele>
        <time>2020-02-08T10:34:11Z</time>
      </trkpt>
      <trkpt lat="45.28987" lon="5.75506">
        <ele>1502.2</ele>
        <time>2020-02-08T10:34:12Z</time>
      </trkpt>
      <trkpt lat="45.28989" lon="5.75506">
        <ele>1502.6</ele>
        <time>2020-02-08T10:34:13Z</time>
      </trkpt>
      <trkpt lat="45.28989" lon="5.75506">
        <ele>1502.6</ele>
        <time>2020-02-08T10:34:14Z</time>
      </trkpt>
      <trkpt lat="45.28989" lon="5.75506">
        <ele>1502.8</ele>
        <time>2020-02-08T10:34:15Z</time>
      </trkpt>
      <trkpt lat="45.28989" lon="5.75506">
        <ele>1503</ele>
        <time>2020-02-08T10:34:16Z</time>
      </trkpt>
      <trkpt lat="45.28992" lon="5.75508">
        <ele>1502.8</ele>
        <time>2020-02-08T10:34:17Z</time>
      </trkpt>
      <trkpt lat="45.28992" lon="5.75508">
        <ele>1502.4</ele>
        <time>2020-02-08T10:34:18Z</time>
      </trkpt>
      <trkpt lat="45.28992" lon="5.75508">
        <ele>1502</ele>
        <time>2020-02-08T10:34:19Z</time>
      </trkpt>
      <trkpt lat="45.28993" lon="5.7551">
        <ele>1502.4</ele>
        <time>2020-02-08T10:34:20Z</time>
      </trkpt>
      <trkpt lat="45.28993" lon="5.7551">
        <ele>1502.8</ele>
        <time>2020-02-08T10:34:21Z</time>
      </trkpt>
      <trkpt lat="45.28995" lon="5.75512">
        <ele>1503.2</ele>
        <time>2020-02-08T10:34:22Z</time>
      </trkpt>
      <trkpt lat="45.28995" lon="5.75512">
        <ele>1503.4</ele>
        <time>2020-02-08T10:34:23Z</time>
      </trkpt>
      <trkpt lat="45.28995" lon="5.75512">
        <ele>1503.6</ele>
        <time>2020-02-08T10:34:24Z</time>
      </trkpt>
      <trkpt lat="45.28995" lon="5.75512">
        <ele>1503.6</ele>
        <time>2020-02-08T10:34:25Z</time>
      </trkpt>
      <trkpt lat="45.28995" lon="5.75512">
        <ele>1503.8</ele>
        <time>2020-02-08T10:34:26Z</time>
      </trkpt>
      <trkpt lat="45.28995" lon="5.75512">
        <ele>1503.6</ele>
        <time>2020-02-08T10:34:27Z</time>
      </trkpt>
      <trkpt lat="45.28995" lon="5.75512">
        <ele>1503.6</ele>
        <time>2020-02-08T10:34:28Z</time>
      </trkpt>
      <trkpt lat="45.28995" lon="5.75512">
        <ele>1503.6</ele>
        <time>2020-02-08T10:34:29Z</time>
      </trkpt>
      <trkpt lat="45.28995" lon="5.75512">
        <ele>1503.8</ele>
        <time>2020-02-08T10:34:30Z</time>
      </trkpt>
      <trkpt lat="45.28995" lon="5.75512">
        <ele>1503.4</ele>
        <time>2020-02-08T10:34:31Z</time>
      </trkpt>
      <trkpt lat="45.28995" lon="5.75512">
        <ele>1504</ele>
        <time>2020-02-08T10:34:32Z</time>
      </trkpt>
      <trkpt lat="45.28995" lon="5.75512">
        <ele>1504.2</ele>
        <time>2020-02-08T10:34:33Z</time>
      </trkpt>
      <trkpt lat="45.28995" lon="5.75512">
        <ele>1504.2</ele>
        <time>2020-02-08T10:34:34Z</time>
      </trkpt>
      <trkpt lat="45.28995" lon="5.75512">
        <ele>1504.6</ele>
        <time>2020-02-08T10:34:35Z</time>
      </trkpt>
      <trkpt lat="45.28995" lon="5.75512">
        <ele>1504.8</ele>
        <time>2020-02-08T10:34:36Z</time>
      </trkpt>
      <trkpt lat="45.28995" lon="5.75512">
        <ele>1505.2</ele>
        <time>2020-02-08T10:34:37Z</time>
      </trkpt>
      <trkpt lat="45.28995" lon="5.75507">
        <ele>1505.2</ele>
        <time>2020-02-08T10:34:38Z</time>
      </trkpt>
      <trkpt lat="45.28995" lon="5.75507">
        <ele>1505.6</ele>
        <time>2020-02-08T10:34:39Z</time>
      </trkpt>
      <trkpt lat="45.28995" lon="5.75507">
        <ele>1505.8</ele>
        <time>2020-02-08T10:34:40Z</time>
      </trkpt>
      <trkpt lat="45.28995" lon="5.75507">
        <ele>1506.2</ele>
        <time>2020-02-08T10:34:41Z</time>
      </trkpt>
      <trkpt lat="45.28995" lon="5.75507">
        <ele>1506.2</ele>
        <time>2020-02-08T10:34:42Z</time>
      </trkpt>
      <trkpt lat="45.28995" lon="5.75507">
        <ele>1506.4</ele>
        <time>2020-02-08T10:34:43Z</time>
      </trkpt>
      <trkpt lat="45.28995" lon="5.75507">
        <ele>1506.4</ele>
        <time>2020-02-08T10:34:44Z</time>
      </trkpt>
      <trkpt lat="45.28995" lon="5.75507">
        <ele>1506.4</ele>
        <time>2020-02-08T10:34:45Z</time>
      </trkpt>
      <trkpt lat="45.28995" lon="5.75507">
        <ele>1506.4</ele>
        <time>2020-02-08T10:34:46Z</time>
      </trkpt>
      <trkpt lat="45.28995" lon="5.75507">
        <ele>1505.8</ele>
        <time>2020-02-08T10:34:47Z</time>
      </trkpt>
      <trkpt lat="45.28995" lon="5.75507">
        <ele>1506</ele>
        <time>2020-02-08T10:34:48Z</time>
      </trkpt>
      <trkpt lat="45.28995" lon="5.75507">
        <ele>1505.6</ele>
        <time>2020-02-08T10:34:49Z</time>
      </trkpt>
      <trkpt lat="45.28995" lon="5.75507">
        <ele>1505.8</ele>
        <time>2020-02-08T10:34:50Z</time>
      </trkpt>
      <trkpt lat="45.28995" lon="5.75507">
        <ele>1505.6</ele>
        <time>2020-02-08T10:34:51Z</time>
      </trkpt>
      <trkpt lat="45.28995" lon="5.75507">
        <ele>1505.8</ele>
        <time>2020-02-08T10:34:52Z</time>
      </trkpt>
      <trkpt lat="45.28995" lon="5.75507">
        <ele>1506.2</ele>
        <time>2020-02-08T10:34:53Z</time>
      </trkpt>
      <trkpt lat="45.28995" lon="5.75507">
        <ele>1506.4</ele>
        <time>2020-02-08T10:34:54Z</time>
      </trkpt>
      <trkpt lat="45.28992" lon="5.75504">
        <ele>1506.4</ele>
        <time>2020-02-08T10:34:55Z</time>
      </trkpt>
      <trkpt lat="45.28992" lon="5.75504">
        <ele>1506.4</ele>
        <time>2020-02-08T10:34:56Z</time>
      </trkpt>
      <trkpt lat="45.28992" lon="5.75504">
        <ele>1506.6</ele>
        <time>2020-02-08T10:34:57Z</time>
      </trkpt>
      <trkpt lat="45.28992" lon="5.75504">
        <ele>1506.8</ele>
        <time>2020-02-08T10:34:58Z</time>
      </trkpt>
      <trkpt lat="45.28991" lon="5.75503">
        <ele>1507</ele>
        <time>2020-02-08T10:34:59Z</time>
      </trkpt>
      <trkpt lat="45.28991" lon="5.75503">
        <ele>1507.8</ele>
        <time>2020-02-08T10:35:00Z</time>
      </trkpt>
      <trkpt lat="45.28991" lon="5.75503">
        <ele>1507.6</ele>
        <time>2020-02-08T10:35:01Z</time>
      </trkpt>
      <trkpt lat="45.2899" lon="5.75503">
        <ele>1507.6</ele>
        <time>2020-02-08T10:35:02Z</time>
      </trkpt>
      <trkpt lat="45.2899" lon="5.75503">
        <ele>1507.6</ele>
        <time>2020-02-08T10:35:03Z</time>
      </trkpt>
      <trkpt lat="45.28989" lon="5.75502">
        <ele>1508.2</ele>
        <time>2020-02-08T10:35:04Z</time>
      </trkpt>
      <trkpt lat="45.28989" lon="5.75502">
        <ele>1508.6</ele>
        <time>2020-02-08T10:35:05Z</time>
      </trkpt>
      <trkpt lat="45.28988" lon="5.75502">
        <ele>1508.4</ele>
        <time>2020-02-08T10:35:06Z</time>
      </trkpt>
      <trkpt lat="45.28988" lon="5.75502">
        <ele>1508.6</ele>
        <time>2020-02-08T10:35:07Z</time>
      </trkpt>
      <trkpt lat="45.28988" lon="5.75501">
        <ele>1508.6</ele>
        <time>2020-02-08T10:35:08Z</time>
      </trkpt>
      <trkpt lat="45.28987" lon="5.75501">
        <ele>1508.6</ele>
        <time>2020-02-08T10:35:09Z</time>
      </trkpt>
      <trkpt lat="45.28987" lon="5.75501">
        <ele>1508.8</ele>
        <time>2020-02-08T10:35:10Z</time>
      </trkpt>
      <trkpt lat="45.28986" lon="5.75501">
        <ele>1509</ele>
        <time>2020-02-08T10:35:11Z</time>
      </trkpt>
      <trkpt lat="45.28986" lon="5.75501">
        <ele>1508.8</ele>
        <time>2020-02-08T10:35:12Z</time>
      </trkpt>
      <trkpt lat="45.28985" lon="5.755">
        <ele>1508.8</ele>
        <time>2020-02-08T10:35:13Z</time>
      </trkpt>
      <trkpt lat="45.28985" lon="5.755">
        <ele>1509.2</ele>
        <time>2020-02-08T10:35:14Z</time>
      </trkpt>
      <trkpt lat="45.28985" lon="5.755">
        <ele>1509</ele>
        <time>2020-02-08T10:35:15Z</time>
      </trkpt>
      <trkpt lat="45.28984" lon="5.755">
        <ele>1509.2</ele>
        <time>2020-02-08T10:35:16Z</time>
      </trkpt>
      <trkpt lat="45.28984" lon="5.755">
        <ele>1509.4</ele>
        <time>2020-02-08T10:35:17Z</time>
      </trkpt>
      <trkpt lat="45.28983" lon="5.75499">
        <ele>1509.4</ele>
        <time>2020-02-08T10:35:18Z</time>
      </trkpt>
      <trkpt lat="45.28983" lon="5.75499">
        <ele>1510</ele>
        <time>2020-02-08T10:35:19Z</time>
      </trkpt>
      <trkpt lat="45.28983" lon="5.75499">
        <ele>1509.8</ele>
        <time>2020-02-08T10:35:20Z</time>
      </trkpt>
      <trkpt lat="45.28983" lon="5.75498">
        <ele>1510</ele>
        <time>2020-02-08T10:35:21Z</time>
      </trkpt>
      <trkpt lat="45.28983" lon="5.75497">
        <ele>1510.4</ele>
        <time>2020-02-08T10:35:22Z</time>
      </trkpt>
      <trkpt lat="45.28983" lon="5.75497">
        <ele>1510.4</ele>
        <time>2020-02-08T10:35:23Z</time>
      </trkpt>
      <trkpt lat="45.28982" lon="5.75496">
        <ele>1510.6</ele>
        <time>2020-02-08T10:35:24Z</time>
      </trkpt>
      <trkpt lat="45.28982" lon="5.75496">
        <ele>1510.8</ele>
        <time>2020-02-08T10:35:25Z</time>
      </trkpt>
      <trkpt lat="45.28982" lon="5.75495">
        <ele>1510.6</ele>
        <time>2020-02-08T10:35:26Z</time>
      </trkpt>
      <trkpt lat="45.28982" lon="5.75494">
        <ele>1510.6</ele>
        <time>2020-02-08T10:35:27Z</time>
      </trkpt>
      <trkpt lat="45.28982" lon="5.75494">
        <ele>1511.2</ele>
        <time>2020-02-08T10:35:28Z</time>
      </trkpt>
      <trkpt lat="45.28982" lon="5.75493">
        <ele>1511.8</ele>
        <time>2020-02-08T10:35:29Z</time>
      </trkpt>
      <trkpt lat="45.28982" lon="5.75493">
        <ele>1512.2</ele>
        <time>2020-02-08T10:35:30Z</time>
      </trkpt>
      <trkpt lat="45.28982" lon="5.75492">
        <ele>1512.4</ele>
        <time>2020-02-08T10:35:31Z</time>
      </trkpt>
      <trkpt lat="45.28982" lon="5.75491">
        <ele>1512.6</ele>
        <time>2020-02-08T10:35:32Z</time>
      </trkpt>
      <trkpt lat="45.28982" lon="5.75491">
        <ele>1512.8</ele>
        <time>2020-02-08T10:35:33Z</time>
      </trkpt>
      <trkpt lat="45.28982" lon="5.7549">
        <ele>1512.8</ele>
        <time>2020-02-08T10:35:34Z</time>
      </trkpt>
      <trkpt lat="45.28982" lon="5.7549">
        <ele>1512.8</ele>
        <time>2020-02-08T10:35:35Z</time>
      </trkpt>
      <trkpt lat="45.28982" lon="5.75489">
        <ele>1512.8</ele>
        <time>2020-02-08T10:35:36Z</time>
      </trkpt>
      <trkpt lat="45.28982" lon="5.75488">
        <ele>1512.6</ele>
        <time>2020-02-08T10:35:37Z</time>
      </trkpt>
      <trkpt lat="45.28981" lon="5.75488">
        <ele>1512.8</ele>
        <time>2020-02-08T10:35:38Z</time>
      </trkpt>
      <trkpt lat="45.28981" lon="5.75487">
        <ele>1512.8</ele>
        <time>2020-02-08T10:35:39Z</time>
      </trkpt>
      <trkpt lat="45.28981" lon="5.75487">
        <ele>1512.8</ele>
        <time>2020-02-08T10:35:40Z</time>
      </trkpt>
      <trkpt lat="45.28981" lon="5.75486">
        <ele>1513</ele>
        <time>2020-02-08T10:35:41Z</time>
      </trkpt>
      <trkpt lat="45.28982" lon="5.75486">
        <ele>1513</ele>
        <time>2020-02-08T10:35:42Z</time>
      </trkpt>
      <trkpt lat="45.28982" lon="5.75486">
        <ele>1513.6</ele>
        <time>2020-02-08T10:35:43Z</time>
      </trkpt>
      <trkpt lat="45.28983" lon="5.75486">
        <ele>1514</ele>
        <time>2020-02-08T10:35:44Z</time>
      </trkpt>
      <trkpt lat="45.28983" lon="5.75486">
        <ele>1514.4</ele>
        <time>2020-02-08T10:35:45Z</time>
      </trkpt>
      <trkpt lat="45.28983" lon="5.75486">
        <ele>1514.4</ele>
        <time>2020-02-08T10:35:46Z</time>
      </trkpt>
      <trkpt lat="45.28984" lon="5.75486">
        <ele>1514.4</ele>
        <time>2020-02-08T10:35:47Z</time>
      </trkpt>
      <trkpt lat="45.28984" lon="5.75486">
        <ele>1514.2</ele>
        <time>2020-02-08T10:35:48Z</time>
      </trkpt>
      <trkpt lat="45.28985" lon="5.75486">
        <ele>1514.4</ele>
        <time>2020-02-08T10:35:49Z</time>
      </trkpt>
      <trkpt lat="45.28985" lon="5.75486">
        <ele>1514.4</ele>
        <time>2020-02-08T10:35:50Z</time>
      </trkpt>
      <trkpt lat="45.28986" lon="5.75486">
        <ele>1514.4</ele>
        <time>2020-02-08T10:35:51Z</time>
      </trkpt>
      <trkpt lat="45.28986" lon="5.75486">
        <ele>1515</ele>
        <time>2020-02-08T10:35:52Z</time>
      </trkpt>
      <trkpt lat="45.28986" lon="5.75485">
        <ele>1515</ele>
        <time>2020-02-08T10:35:53Z</time>
      </trkpt>
      <trkpt lat="45.28987" lon="5.75485">
        <ele>1515.4</ele>
        <time>2020-02-08T10:35:54Z</time>
      </trkpt>
      <trkpt lat="45.28987" lon="5.75485">
        <ele>1515.4</ele>
        <time>2020-02-08T10:35:55Z</time>
      </trkpt>
      <trkpt lat="45.28987" lon="5.75485">
        <ele>1515.8</ele>
        <time>2020-02-08T10:35:56Z</time>
      </trkpt>
      <trkpt lat="45.28988" lon="5.75484">
        <ele>1515.8</ele>
        <time>2020-02-08T10:35:57Z</time>
      </trkpt>
      <trkpt lat="45.28988" lon="5.75484">
        <ele>1515.4</ele>
        <time>2020-02-08T10:35:58Z</time>
      </trkpt>
      <trkpt lat="45.28988" lon="5.75484">
        <ele>1515.6</ele>
        <time>2020-02-08T10:35:59Z</time>
      </trkpt>
      <trkpt lat="45.28989" lon="5.75483">
        <ele>1515.4</ele>
        <time>2020-02-08T10:36:00Z</time>
      </trkpt>
      <trkpt lat="45.28989" lon="5.75483">
        <ele>1515.4</ele>
        <time>2020-02-08T10:36:01Z</time>
      </trkpt>
      <trkpt lat="45.28989" lon="5.75483">
        <ele>1515.4</ele>
        <time>2020-02-08T10:36:02Z</time>
      </trkpt>
      <trkpt lat="45.2899" lon="5.75483">
        <ele>1516</ele>
        <time>2020-02-08T10:36:03Z</time>
      </trkpt>
      <trkpt lat="45.2899" lon="5.75482">
        <ele>1516</ele>
        <time>2020-02-08T10:36:04Z</time>
      </trkpt>
      <trkpt lat="45.28989" lon="5.75482">
        <ele>1516.2</ele>
        <time>2020-02-08T10:36:05Z</time>
      </trkpt>
      <trkpt lat="45.28989" lon="5.75481">
        <ele>1516.4</ele>
        <time>2020-02-08T10:36:06Z</time>
      </trkpt>
      <trkpt lat="45.28988" lon="5.7548">
        <ele>1516.4</ele>
        <time>2020-02-08T10:36:07Z</time>
      </trkpt>
      <trkpt lat="45.28988" lon="5.7548">
        <ele>1516.2</ele>
        <time>2020-02-08T10:36:08Z</time>
      </trkpt>
      <trkpt lat="45.28987" lon="5.75479">
        <ele>1516.6</ele>
        <time>2020-02-08T10:36:09Z</time>
      </trkpt>
      <trkpt lat="45.28986" lon="5.75478">
        <ele>1516.8</ele>
        <time>2020-02-08T10:36:10Z</time>
      </trkpt>
      <trkpt lat="45.28986" lon="5.75478">
        <ele>1517.2</ele>
        <time>2020-02-08T10:36:11Z</time>
      </trkpt>
      <trkpt lat="45.28985" lon="5.75477">
        <ele>1517</ele>
        <time>2020-02-08T10:36:12Z</time>
      </trkpt>
      <trkpt lat="45.28985" lon="5.75476">
        <ele>1517.2</ele>
        <time>2020-02-08T10:36:13Z</time>
      </trkpt>
      <trkpt lat="45.28984" lon="5.75476">
        <ele>1517.2</ele>
        <time>2020-02-08T10:36:14Z</time>
      </trkpt>
      <trkpt lat="45.28984" lon="5.75475">
        <ele>1517.8</ele>
        <time>2020-02-08T10:36:15Z</time>
      </trkpt>
      <trkpt lat="45.28983" lon="5.75475">
        <ele>1517.6</ele>
        <time>2020-02-08T10:36:16Z</time>
      </trkpt>
      <trkpt lat="45.28982" lon="5.75474">
        <ele>1518</ele>
        <time>2020-02-08T10:36:17Z</time>
      </trkpt>
      <trkpt lat="45.28983" lon="5.75474">
        <ele>1518.2</ele>
        <time>2020-02-08T10:36:18Z</time>
      </trkpt>
      <trkpt lat="45.28984" lon="5.75474">
        <ele>1519</ele>
        <time>2020-02-08T10:36:19Z</time>
      </trkpt>
      <trkpt lat="45.28985" lon="5.75474">
        <ele>1519.2</ele>
        <time>2020-02-08T10:36:20Z</time>
      </trkpt>
      <trkpt lat="45.28986" lon="5.75474">
        <ele>1519.8</ele>
        <time>2020-02-08T10:36:21Z</time>
      </trkpt>
      <trkpt lat="45.28987" lon="5.75473">
        <ele>1520</ele>
        <time>2020-02-08T10:36:22Z</time>
      </trkpt>
      <trkpt lat="45.28987" lon="5.75473">
        <ele>1519.8</ele>
        <time>2020-02-08T10:36:23Z</time>
      </trkpt>
      <trkpt lat="45.28988" lon="5.75473">
        <ele>1520.2</ele>
        <time>2020-02-08T10:36:24Z</time>
      </trkpt>
      <trkpt lat="45.28989" lon="5.75473">
        <ele>1520.4</ele>
        <time>2020-02-08T10:36:25Z</time>
      </trkpt>
      <trkpt lat="45.2899" lon="5.75473">
        <ele>1520.6</ele>
        <time>2020-02-08T10:36:26Z</time>
      </trkpt>
      <trkpt lat="45.28991" lon="5.75473">
        <ele>1520.6</ele>
        <time>2020-02-08T10:36:27Z</time>
      </trkpt>
      <trkpt lat="45.28992" lon="5.75473">
        <ele>1520.8</ele>
        <time>2020-02-08T10:36:28Z</time>
      </trkpt>
      <trkpt lat="45.28992" lon="5.75473">
        <ele>1520.8</ele>
        <time>2020-02-08T10:36:29Z</time>
      </trkpt>
      <trkpt lat="45.28994" lon="5.75473">
        <ele>1520.8</ele>
        <time>2020-02-08T10:36:30Z</time>
      </trkpt>
      <trkpt lat="45.28995" lon="5.75474">
        <ele>1520.6</ele>
        <time>2020-02-08T10:36:31Z</time>
      </trkpt>
      <trkpt lat="45.28996" lon="5.75474">
        <ele>1520.6</ele>
        <time>2020-02-08T10:36:32Z</time>
      </trkpt>
      <trkpt lat="45.28997" lon="5.75474">
        <ele>1520.8</ele>
        <time>2020-02-08T10:36:33Z</time>
      </trkpt>
      <trkpt lat="45.28998" lon="5.75475">
        <ele>1521.2</ele>
        <time>2020-02-08T10:36:34Z</time>
      </trkpt>
      <trkpt lat="45.28999" lon="5.75475">
        <ele>1521.4</ele>
        <time>2020-02-08T10:36:35Z</time>
      </trkpt>
      <trkpt lat="45.29" lon="5.75475">
        <ele>1521.8</ele>
        <time>2020-02-08T10:36:36Z</time>
      </trkpt>
      <trkpt lat="45.29002" lon="5.75475">
        <ele>1522</ele>
        <time>2020-02-08T10:36:37Z</time>
      </trkpt>
      <trkpt lat="45.29002" lon="5.75475">
        <ele>1522.2</ele>
        <time>2020-02-08T10:36:38Z</time>
      </trkpt>
      <trkpt lat="45.29002" lon="5.75475">
        <ele>1522.2</ele>
        <time>2020-02-08T10:36:39Z</time>
      </trkpt>
      <trkpt lat="45.29002" lon="5.75475">
        <ele>1522.2</ele>
        <time>2020-02-08T10:36:40Z</time>
      </trkpt>
      <trkpt lat="45.29002" lon="5.75475">
        <ele>1522.6</ele>
        <time>2020-02-08T10:36:41Z</time>
      </trkpt>
      <trkpt lat="45.29002" lon="5.75475">
        <ele>1523</ele>
        <time>2020-02-08T10:36:42Z</time>
      </trkpt>
      <trkpt lat="45.29004" lon="5.75476">
        <ele>1522.8</ele>
        <time>2020-02-08T10:36:43Z</time>
      </trkpt>
      <trkpt lat="45.29004" lon="5.75476">
        <ele>1523.4</ele>
        <time>2020-02-08T10:36:44Z</time>
      </trkpt>
      <trkpt lat="45.29004" lon="5.75476">
        <ele>1523.6</ele>
        <time>2020-02-08T10:36:45Z</time>
      </trkpt>
      <trkpt lat="45.29004" lon="5.75476">
        <ele>1523.8</ele>
        <time>2020-02-08T10:36:46Z</time>
      </trkpt>
      <trkpt lat="45.29004" lon="5.75476">
        <ele>1523.8</ele>
        <time>2020-02-08T10:36:47Z</time>
      </trkpt>
      <trkpt lat="45.29004" lon="5.75476">
        <ele>1523.6</ele>
        <time>2020-02-08T10:36:48Z</time>
      </trkpt>
      <trkpt lat="45.29002" lon="5.75476">
        <ele>1523.4</ele>
        <time>2020-02-08T10:36:49Z</time>
      </trkpt>
      <trkpt lat="45.29002" lon="5.75476">
        <ele>1523.2</ele>
        <time>2020-02-08T10:36:50Z</time>
      </trkpt>
      <trkpt lat="45.29002" lon="5.75476">
        <ele>1523.6</ele>
        <time>2020-02-08T10:36:51Z</time>
      </trkpt>
      <trkpt lat="45.29002" lon="5.75476">
        <ele>1523.8</ele>
        <time>2020-02-08T10:36:52Z</time>
      </trkpt>
      <trkpt lat="45.28998" lon="5.75476">
        <ele>1524.4</ele>
        <time>2020-02-08T10:36:53Z</time>
      </trkpt>
      <trkpt lat="45.28998" lon="5.75476">
        <ele>1524</ele>
        <time>2020-02-08T10:36:54Z</time>
      </trkpt>
      <trkpt lat="45.28998" lon="5.75476">
        <ele>1524.4</ele>
        <time>2020-02-08T10:36:55Z</time>
      </trkpt>
      <trkpt lat="45.28998" lon="5.75476">
        <ele>1524.8</ele>
        <time>2020-02-08T10:36:56Z</time>
      </trkpt>
      <trkpt lat="45.28998" lon="5.75476">
        <ele>1525</ele>
        <time>2020-02-08T10:36:57Z</time>
      </trkpt>
      <trkpt lat="45.28998" lon="5.75476">
        <ele>1525</ele>
        <time>2020-02-08T10:36:58Z</time>
      </trkpt>
      <trkpt lat="45.28998" lon="5.75476">
        <ele>1525.2</ele>
        <time>2020-02-08T10:36:59Z</time>
      </trkpt>
      <trkpt lat="45.28998" lon="5.75476">
        <ele>1525.2</ele>
        <time>2020-02-08T10:37:00Z</time>
      </trkpt>
      <trkpt lat="45.28998" lon="5.75476">
        <ele>1525.4</ele>
        <time>2020-02-08T10:37:01Z</time>
      </trkpt>
      <trkpt lat="45.28998" lon="5.75476">
        <ele>1525.4</ele>
        <time>2020-02-08T10:37:02Z</time>
      </trkpt>
      <trkpt lat="45.28998" lon="5.75476">
        <ele>1525.6</ele>
        <time>2020-02-08T10:37:03Z</time>
      </trkpt>
      <trkpt lat="45.28998" lon="5.75476">
        <ele>1525.2</ele>
        <time>2020-02-08T10:37:04Z</time>
      </trkpt>
      <trkpt lat="45.28998" lon="5.75476">
        <ele>1525.2</ele>
        <time>2020-02-08T10:37:05Z</time>
      </trkpt>
      <trkpt lat="45.28998" lon="5.75476">
        <ele>1525</ele>
        <time>2020-02-08T10:37:06Z</time>
      </trkpt>
      <trkpt lat="45.28998" lon="5.75476">
        <ele>1524.6</ele>
        <time>2020-02-08T10:37:07Z</time>
      </trkpt>
      <trkpt lat="45.28997" lon="5.75474">
        <ele>1524.8</ele>
        <time>2020-02-08T10:37:08Z</time>
      </trkpt>
      <trkpt lat="45.28997" lon="5.75474">
        <ele>1524.8</ele>
        <time>2020-02-08T10:37:09Z</time>
      </trkpt>
      <trkpt lat="45.28997" lon="5.75474">
        <ele>1525.2</ele>
        <time>2020-02-08T10:37:10Z</time>
      </trkpt>
      <trkpt lat="45.28997" lon="5.75474">
        <ele>1525.4</ele>
        <time>2020-02-08T10:37:11Z</time>
      </trkpt>
      <trkpt lat="45.28995" lon="5.75473">
        <ele>1525.4</ele>
        <time>2020-02-08T10:37:12Z</time>
      </trkpt>
      <trkpt lat="45.28995" lon="5.75473">
        <ele>1526</ele>
        <time>2020-02-08T10:37:13Z</time>
      </trkpt>
      <trkpt lat="45.28995" lon="5.75473">
        <ele>1526.2</ele>
        <time>2020-02-08T10:37:14Z</time>
      </trkpt>
      <trkpt lat="45.28995" lon="5.75473">
        <ele>1526.6</ele>
        <time>2020-02-08T10:37:15Z</time>
      </trkpt>
      <trkpt lat="45.28995" lon="5.75473">
        <ele>1526.6</ele>
        <time>2020-02-08T10:37:16Z</time>
      </trkpt>
      <trkpt lat="45.28995" lon="5.75473">
        <ele>1526.8</ele>
        <time>2020-02-08T10:37:17Z</time>
      </trkpt>
      <trkpt lat="45.28995" lon="5.75473">
        <ele>1526.8</ele>
        <time>2020-02-08T10:37:18Z</time>
      </trkpt>
      <trkpt lat="45.28995" lon="5.75473">
        <ele>1526.8</ele>
        <time>2020-02-08T10:37:19Z</time>
      </trkpt>
      <trkpt lat="45.28993" lon="5.75473">
        <ele>1526.6</ele>
        <time>2020-02-08T10:37:20Z</time>
      </trkpt>
      <trkpt lat="45.28993" lon="5.75473">
        <ele>1527</ele>
        <time>2020-02-08T10:37:21Z</time>
      </trkpt>
      <trkpt lat="45.28993" lon="5.75473">
        <ele>1526.6</ele>
        <time>2020-02-08T10:37:22Z</time>
      </trkpt>
      <trkpt lat="45.28993" lon="5.75473">
        <ele>1527.2</ele>
        <time>2020-02-08T10:37:23Z</time>
      </trkpt>
      <trkpt lat="45.28994" lon="5.75472">
        <ele>1527.4</ele>
        <time>2020-02-08T10:37:24Z</time>
      </trkpt>
      <trkpt lat="45.28994" lon="5.75471">
        <ele>1527.8</ele>
        <time>2020-02-08T10:37:25Z</time>
      </trkpt>
      <trkpt lat="45.28994" lon="5.7547">
        <ele>1527.8</ele>
        <time>2020-02-08T10:37:26Z</time>
      </trkpt>
      <trkpt lat="45.28994" lon="5.7547">
        <ele>1528.4</ele>
        <time>2020-02-08T10:37:27Z</time>
      </trkpt>
      <trkpt lat="45.28994" lon="5.75469">
        <ele>1528.4</ele>
        <time>2020-02-08T10:37:28Z</time>
      </trkpt>
      <trkpt lat="45.28995" lon="5.75468">
        <ele>1529</ele>
        <time>2020-02-08T10:37:29Z</time>
      </trkpt>
      <trkpt lat="45.28995" lon="5.75467">
        <ele>1529.4</ele>
        <time>2020-02-08T10:37:30Z</time>
      </trkpt>
      <trkpt lat="45.28995" lon="5.75467">
        <ele>1529.4</ele>
        <time>2020-02-08T10:37:31Z</time>
      </trkpt>
      <trkpt lat="45.28995" lon="5.75466">
        <ele>1529.6</ele>
        <time>2020-02-08T10:37:32Z</time>
      </trkpt>
      <trkpt lat="45.28996" lon="5.75465">
        <ele>1529.6</ele>
        <time>2020-02-08T10:37:33Z</time>
      </trkpt>
      <trkpt lat="45.28996" lon="5.75464">
        <ele>1530</ele>
        <time>2020-02-08T10:37:34Z</time>
      </trkpt>
      <trkpt lat="45.28996" lon="5.75464">
        <ele>1529.8</ele>
        <time>2020-02-08T10:37:35Z</time>
      </trkpt>
      <trkpt lat="45.28996" lon="5.75463">
        <ele>1530.2</ele>
        <time>2020-02-08T10:37:36Z</time>
      </trkpt>
      <trkpt lat="45.28996" lon="5.75462">
        <ele>1531</ele>
        <time>2020-02-08T10:37:37Z</time>
      </trkpt>
      <trkpt lat="45.28997" lon="5.75461">
        <ele>1531.4</ele>
        <time>2020-02-08T10:37:38Z</time>
      </trkpt>
      <trkpt lat="45.28997" lon="5.75461">
        <ele>1532</ele>
        <time>2020-02-08T10:37:39Z</time>
      </trkpt>
      <trkpt lat="45.28998" lon="5.75461">
        <ele>1532.2</ele>
        <time>2020-02-08T10:37:40Z</time>
      </trkpt>
      <trkpt lat="45.28998" lon="5.7546">
        <ele>1532.8</ele>
        <time>2020-02-08T10:37:41Z</time>
      </trkpt>
      <trkpt lat="45.28998" lon="5.7546">
        <ele>1533</ele>
        <time>2020-02-08T10:37:42Z</time>
      </trkpt>
      <trkpt lat="45.28999" lon="5.75459">
        <ele>1533.2</ele>
        <time>2020-02-08T10:37:43Z</time>
      </trkpt>
      <trkpt lat="45.28999" lon="5.75459">
        <ele>1533.2</ele>
        <time>2020-02-08T10:37:44Z</time>
      </trkpt>
      <trkpt lat="45.29" lon="5.75459">
        <ele>1533.2</ele>
        <time>2020-02-08T10:37:45Z</time>
      </trkpt>
      <trkpt lat="45.29" lon="5.75458">
        <ele>1533</ele>
        <time>2020-02-08T10:37:46Z</time>
      </trkpt>
      <trkpt lat="45.29001" lon="5.75458">
        <ele>1532.8</ele>
        <time>2020-02-08T10:37:47Z</time>
      </trkpt>
      <trkpt lat="45.29001" lon="5.75457">
        <ele>1532.8</ele>
        <time>2020-02-08T10:37:48Z</time>
      </trkpt>
      <trkpt lat="45.29001" lon="5.75457">
        <ele>1532.8</ele>
        <time>2020-02-08T10:37:49Z</time>
      </trkpt>
      <trkpt lat="45.29002" lon="5.75456">
        <ele>1533.2</ele>
        <time>2020-02-08T10:37:50Z</time>
      </trkpt>
      <trkpt lat="45.29002" lon="5.75456">
        <ele>1533</ele>
        <time>2020-02-08T10:37:51Z</time>
      </trkpt>
      <trkpt lat="45.29003" lon="5.75456">
        <ele>1533.4</ele>
        <time>2020-02-08T10:37:52Z</time>
      </trkpt>
      <trkpt lat="45.29003" lon="5.75455">
        <ele>1533.4</ele>
        <time>2020-02-08T10:37:53Z</time>
      </trkpt>
      <trkpt lat="45.29004" lon="5.75455">
        <ele>1534</ele>
        <time>2020-02-08T10:37:54Z</time>
      </trkpt>
      <trkpt lat="45.29004" lon="5.75454">
        <ele>1534.6</ele>
        <time>2020-02-08T10:37:55Z</time>
      </trkpt>
      <trkpt lat="45.29004" lon="5.75454">
        <ele>1535</ele>
        <time>2020-02-08T10:37:56Z</time>
      </trkpt>
      <trkpt lat="45.29005" lon="5.75454">
        <ele>1535.2</ele>
        <time>2020-02-08T10:37:57Z</time>
      </trkpt>
      <trkpt lat="45.29005" lon="5.75454">
        <ele>1535.4</ele>
        <time>2020-02-08T10:37:58Z</time>
      </trkpt>
      <trkpt lat="45.29005" lon="5.75454">
        <ele>1535.4</ele>
        <time>2020-02-08T10:37:59Z</time>
      </trkpt>
      <trkpt lat="45.29006" lon="5.75456">
        <ele>1535.2</ele>
        <time>2020-02-08T10:38:00Z</time>
      </trkpt>
      <trkpt lat="45.29006" lon="5.75456">
        <ele>1535.2</ele>
        <time>2020-02-08T10:38:01Z</time>
      </trkpt>
      <trkpt lat="45.29006" lon="5.75456">
        <ele>1535.4</ele>
        <time>2020-02-08T10:38:02Z</time>
      </trkpt>
      <trkpt lat="45.29007" lon="5.75455">
        <ele>1535.6</ele>
        <time>2020-02-08T10:38:03Z</time>
      </trkpt>
      <trkpt lat="45.29007" lon="5.75455">
        <ele>1536.2</ele>
        <time>2020-02-08T10:38:04Z</time>
      </trkpt>
      <trkpt lat="45.29008" lon="5.75455">
        <ele>1536.6</ele>
        <time>2020-02-08T10:38:05Z</time>
      </trkpt>
      <trkpt lat="45.29008" lon="5.75455">
        <ele>1537</ele>
        <time>2020-02-08T10:38:06Z</time>
      </trkpt>
      <trkpt lat="45.29008" lon="5.75454">
        <ele>1537</ele>
        <time>2020-02-08T10:38:07Z</time>
      </trkpt>
      <trkpt lat="45.29009" lon="5.75454">
        <ele>1537.2</ele>
        <time>2020-02-08T10:38:08Z</time>
      </trkpt>
      <trkpt lat="45.29009" lon="5.75454">
        <ele>1537</ele>
        <time>2020-02-08T10:38:09Z</time>
      </trkpt>
      <trkpt lat="45.29009" lon="5.75454">
        <ele>1536.8</ele>
        <time>2020-02-08T10:38:10Z</time>
      </trkpt>
      <trkpt lat="45.2901" lon="5.75453">
        <ele>1537.2</ele>
        <time>2020-02-08T10:38:11Z</time>
      </trkpt>
      <trkpt lat="45.2901" lon="5.75453">
        <ele>1537.6</ele>
        <time>2020-02-08T10:38:12Z</time>
      </trkpt>
      <trkpt lat="45.29011" lon="5.75453">
        <ele>1538</ele>
        <time>2020-02-08T10:38:13Z</time>
      </trkpt>
      <trkpt lat="45.29011" lon="5.75453">
        <ele>1538.2</ele>
        <time>2020-02-08T10:38:14Z</time>
      </trkpt>
      <trkpt lat="45.29011" lon="5.75452">
        <ele>1538.4</ele>
        <time>2020-02-08T10:38:15Z</time>
      </trkpt>
      <trkpt lat="45.29012" lon="5.75452">
        <ele>1538.6</ele>
        <time>2020-02-08T10:38:16Z</time>
      </trkpt>
      <trkpt lat="45.29012" lon="5.75452">
        <ele>1539</ele>
        <time>2020-02-08T10:38:17Z</time>
      </trkpt>
      <trkpt lat="45.29013" lon="5.75452">
        <ele>1539.2</ele>
        <time>2020-02-08T10:38:18Z</time>
      </trkpt>
      <trkpt lat="45.29013" lon="5.75451">
        <ele>1539.2</ele>
        <time>2020-02-08T10:38:19Z</time>
      </trkpt>
      <trkpt lat="45.29013" lon="5.75451">
        <ele>1539.6</ele>
        <time>2020-02-08T10:38:20Z</time>
      </trkpt>
      <trkpt lat="45.29014" lon="5.75451">
        <ele>1540</ele>
        <time>2020-02-08T10:38:21Z</time>
      </trkpt>
      <trkpt lat="45.29014" lon="5.75451">
        <ele>1540.2</ele>
        <time>2020-02-08T10:38:22Z</time>
      </trkpt>
      <trkpt lat="45.29015" lon="5.7545">
        <ele>1540.8</ele>
        <time>2020-02-08T10:38:23Z</time>
      </trkpt>
      <trkpt lat="45.29015" lon="5.7545">
        <ele>1541</ele>
        <time>2020-02-08T10:38:24Z</time>
      </trkpt>
      <trkpt lat="45.29016" lon="5.7545">
        <ele>1541</ele>
        <time>2020-02-08T10:38:25Z</time>
      </trkpt>
      <trkpt lat="45.29017" lon="5.75451">
        <ele>1541.4</ele>
        <time>2020-02-08T10:38:26Z</time>
      </trkpt>
      <trkpt lat="45.29018" lon="5.75451">
        <ele>1541.8</ele>
        <time>2020-02-08T10:38:27Z</time>
      </trkpt>
      <trkpt lat="45.29019" lon="5.75451">
        <ele>1542</ele>
        <time>2020-02-08T10:38:28Z</time>
      </trkpt>
      <trkpt lat="45.2902" lon="5.75452">
        <ele>1542.4</ele>
        <time>2020-02-08T10:38:29Z</time>
      </trkpt>
      <trkpt lat="45.2902" lon="5.75452">
        <ele>1542.6</ele>
        <time>2020-02-08T10:38:30Z</time>
      </trkpt>
      <trkpt lat="45.29021" lon="5.75452">
        <ele>1542.8</ele>
        <time>2020-02-08T10:38:31Z</time>
      </trkpt>
      <trkpt lat="45.29022" lon="5.75452">
        <ele>1543</ele>
        <time>2020-02-08T10:38:32Z</time>
      </trkpt>
      <trkpt lat="45.29023" lon="5.75453">
        <ele>1543.4</ele>
        <time>2020-02-08T10:38:33Z</time>
      </trkpt>
      <trkpt lat="45.29024" lon="5.75453">
        <ele>1544</ele>
        <time>2020-02-08T10:38:34Z</time>
      </trkpt>
      <trkpt lat="45.29025" lon="5.75453">
        <ele>1543.8</ele>
        <time>2020-02-08T10:38:35Z</time>
      </trkpt>
      <trkpt lat="45.29025" lon="5.75453">
        <ele>1544.2</ele>
        <time>2020-02-08T10:38:36Z</time>
      </trkpt>
      <trkpt lat="45.29026" lon="5.75453">
        <ele>1544.4</ele>
        <time>2020-02-08T10:38:37Z</time>
      </trkpt>
      <trkpt lat="45.29026" lon="5.75454">
        <ele>1544.6</ele>
        <time>2020-02-08T10:38:38Z</time>
      </trkpt>
      <trkpt lat="45.29027" lon="5.75454">
        <ele>1544.4</ele>
        <time>2020-02-08T10:38:39Z</time>
      </trkpt>
      <trkpt lat="45.29027" lon="5.75454">
        <ele>1545</ele>
        <time>2020-02-08T10:38:40Z</time>
      </trkpt>
      <trkpt lat="45.29028" lon="5.75454">
        <ele>1545</ele>
        <time>2020-02-08T10:38:41Z</time>
      </trkpt>
      <trkpt lat="45.29028" lon="5.75454">
        <ele>1545.4</ele>
        <time>2020-02-08T10:38:42Z</time>
      </trkpt>
      <trkpt lat="45.29029" lon="5.75454">
        <ele>1545.4</ele>
        <time>2020-02-08T10:38:43Z</time>
      </trkpt>
      <trkpt lat="45.29029" lon="5.75455">
        <ele>1545.4</ele>
        <time>2020-02-08T10:38:44Z</time>
      </trkpt>
      <trkpt lat="45.2903" lon="5.75455">
        <ele>1545.4</ele>
        <time>2020-02-08T10:38:45Z</time>
      </trkpt>
      <trkpt lat="45.2903" lon="5.75455">
        <ele>1545.4</ele>
        <time>2020-02-08T10:38:46Z</time>
      </trkpt>
      <trkpt lat="45.29031" lon="5.75455">
        <ele>1545.4</ele>
        <time>2020-02-08T10:38:47Z</time>
      </trkpt>
      <trkpt lat="45.29031" lon="5.75455">
        <ele>1545.6</ele>
        <time>2020-02-08T10:38:48Z</time>
      </trkpt>
      <trkpt lat="45.29031" lon="5.75455">
        <ele>1545.4</ele>
        <time>2020-02-08T10:38:49Z</time>
      </trkpt>
      <trkpt lat="45.29032" lon="5.75456">
        <ele>1545.2</ele>
        <time>2020-02-08T10:38:50Z</time>
      </trkpt>
      <trkpt lat="45.29032" lon="5.75456">
        <ele>1545.2</ele>
        <time>2020-02-08T10:38:51Z</time>
      </trkpt>
      <trkpt lat="45.29033" lon="5.75456">
        <ele>1545</ele>
        <time>2020-02-08T10:38:52Z</time>
      </trkpt>
      <trkpt lat="45.29033" lon="5.75456">
        <ele>1545</ele>
        <time>2020-02-08T10:38:53Z</time>
      </trkpt>
      <trkpt lat="45.29033" lon="5.75456">
        <ele>1545</ele>
        <time>2020-02-08T10:38:54Z</time>
      </trkpt>
      <trkpt lat="45.29033" lon="5.75456">
        <ele>1545</ele>
        <time>2020-02-08T10:38:55Z</time>
      </trkpt>
      <trkpt lat="45.29033" lon="5.75456">
        <ele>1544.8</ele>
        <time>2020-02-08T10:38:56Z</time>
      </trkpt>
      <trkpt lat="45.29033" lon="5.75456">
        <ele>1545</ele>
        <time>2020-02-08T10:38:57Z</time>
      </trkpt>
      <trkpt lat="45.29033" lon="5.75458">
        <ele>1545</ele>
        <time>2020-02-08T10:38:58Z</time>
      </trkpt>
      <trkpt lat="45.29033" lon="5.75458">
        <ele>1545.2</ele>
        <time>2020-02-08T10:38:59Z</time>
      </trkpt>
      <trkpt lat="45.29033" lon="5.75458">
        <ele>1545.4</ele>
        <time>2020-02-08T10:39:00Z</time>
      </trkpt>
      <trkpt lat="45.29033" lon="5.75458">
        <ele>1545.4</ele>
        <time>2020-02-08T10:39:01Z</time>
      </trkpt>
      <trkpt lat="45.29031" lon="5.7546">
        <ele>1545.4</ele>
        <time>2020-02-08T10:39:02Z</time>
      </trkpt>
      <trkpt lat="45.29031" lon="5.7546">
        <ele>1545.6</ele>
        <time>2020-02-08T10:39:03Z</time>
      </trkpt>
      <trkpt lat="45.29031" lon="5.7546">
        <ele>1545.6</ele>
        <time>2020-02-08T10:39:04Z</time>
      </trkpt>
      <trkpt lat="45.29031" lon="5.7546">
        <ele>1545.4</ele>
        <time>2020-02-08T10:39:05Z</time>
      </trkpt>
      <trkpt lat="45.29031" lon="5.7546">
        <ele>1545.8</ele>
        <time>2020-02-08T10:39:06Z</time>
      </trkpt>
      <trkpt lat="45.29031" lon="5.7546">
        <ele>1545.6</ele>
        <time>2020-02-08T10:39:07Z</time>
      </trkpt>
      <trkpt lat="45.29031" lon="5.7546">
        <ele>1545.6</ele>
        <time>2020-02-08T10:39:08Z</time>
      </trkpt>
      <trkpt lat="45.29031" lon="5.7546">
        <ele>1545.6</ele>
        <time>2020-02-08T10:39:09Z</time>
      </trkpt>
      <trkpt lat="45.29031" lon="5.7546">
        <ele>1545.4</ele>
        <time>2020-02-08T10:39:10Z</time>
      </trkpt>
      <trkpt lat="45.29031" lon="5.7546">
        <ele>1545.4</ele>
        <time>2020-02-08T10:39:11Z</time>
      </trkpt>
      <trkpt lat="45.29029" lon="5.75457">
        <ele>1545.2</ele>
        <time>2020-02-08T10:39:12Z</time>
      </trkpt>
      <trkpt lat="45.29029" lon="5.75457">
        <ele>1545.2</ele>
        <time>2020-02-08T10:39:13Z</time>
      </trkpt>
      <trkpt lat="45.29029" lon="5.75457">
        <ele>1545.2</ele>
        <time>2020-02-08T10:39:14Z</time>
      </trkpt>
      <trkpt lat="45.29029" lon="5.75456">
        <ele>1545.4</ele>
        <time>2020-02-08T10:39:15Z</time>
      </trkpt>
      <trkpt lat="45.29028" lon="5.75455">
        <ele>1545.6</ele>
        <time>2020-02-08T10:39:16Z</time>
      </trkpt>
      <trkpt lat="45.29027" lon="5.75454">
        <ele>1545.4</ele>
        <time>2020-02-08T10:39:17Z</time>
      </trkpt>
      <trkpt lat="45.29026" lon="5.75453">
        <ele>1545.6</ele>
        <time>2020-02-08T10:39:18Z</time>
      </trkpt>
      <trkpt lat="45.29026" lon="5.75452">
        <ele>1545.8</ele>
        <time>2020-02-08T10:39:19Z</time>
      </trkpt>
      <trkpt lat="45.29025" lon="5.75451">
        <ele>1546.2</ele>
        <time>2020-02-08T10:39:20Z</time>
      </trkpt>
      <trkpt lat="45.29024" lon="5.7545">
        <ele>1547</ele>
        <time>2020-02-08T10:39:21Z</time>
      </trkpt>
      <trkpt lat="45.29024" lon="5.75449">
        <ele>1546.6</ele>
        <time>2020-02-08T10:39:22Z</time>
      </trkpt>
      <trkpt lat="45.29023" lon="5.75448">
        <ele>1546.4</ele>
        <time>2020-02-08T10:39:23Z</time>
      </trkpt>
      <trkpt lat="45.29022" lon="5.75447">
        <ele>1546.8</ele>
        <time>2020-02-08T10:39:24Z</time>
      </trkpt>
      <trkpt lat="45.29021" lon="5.75446">
        <ele>1547</ele>
        <time>2020-02-08T10:39:25Z</time>
      </trkpt>
      <trkpt lat="45.2902" lon="5.75444">
        <ele>1547.2</ele>
        <time>2020-02-08T10:39:26Z</time>
      </trkpt>
      <trkpt lat="45.29018" lon="5.75443">
        <ele>1547.2</ele>
        <time>2020-02-08T10:39:27Z</time>
      </trkpt>
      <trkpt lat="45.29017" lon="5.75442">
        <ele>1547</ele>
        <time>2020-02-08T10:39:28Z</time>
      </trkpt>
      <trkpt lat="45.29016" lon="5.7544">
        <ele>1547.4</ele>
        <time>2020-02-08T10:39:29Z</time>
      </trkpt>
      <trkpt lat="45.29014" lon="5.75439">
        <ele>1547.6</ele>
        <time>2020-02-08T10:39:30Z</time>
      </trkpt>
      <trkpt lat="45.29012" lon="5.75437">
        <ele>1547.8</ele>
        <time>2020-02-08T10:39:31Z</time>
      </trkpt>
      <trkpt lat="45.29011" lon="5.75435">
        <ele>1547.8</ele>
        <time>2020-02-08T10:39:32Z</time>
      </trkpt>
      <trkpt lat="45.29009" lon="5.75433">
        <ele>1548</ele>
        <time>2020-02-08T10:39:33Z</time>
      </trkpt>
      <trkpt lat="45.29007" lon="5.75431">
        <ele>1548</ele>
        <time>2020-02-08T10:39:34Z</time>
      </trkpt>
      <trkpt lat="45.29006" lon="5.75429">
        <ele>1548.2</ele>
        <time>2020-02-08T10:39:35Z</time>
      </trkpt>
      <trkpt lat="45.29006" lon="5.75428">
        <ele>1548.4</ele>
        <time>2020-02-08T10:39:36Z</time>
      </trkpt>
      <trkpt lat="45.29005" lon="5.75427">
        <ele>1548.4</ele>
        <time>2020-02-08T10:39:37Z</time>
      </trkpt>
      <trkpt lat="45.29004" lon="5.75425">
        <ele>1548.4</ele>
        <time>2020-02-08T10:39:38Z</time>
      </trkpt>
      <trkpt lat="45.29004" lon="5.75424">
        <ele>1548.8</ele>
        <time>2020-02-08T10:39:39Z</time>
      </trkpt>
      <trkpt lat="45.29003" lon="5.75422">
        <ele>1548.8</ele>
        <time>2020-02-08T10:39:40Z</time>
      </trkpt>
      <trkpt lat="45.29002" lon="5.75421">
        <ele>1549.2</ele>
        <time>2020-02-08T10:39:41Z</time>
      </trkpt>
      <trkpt lat="45.29001" lon="5.75419">
        <ele>1548.8</ele>
        <time>2020-02-08T10:39:42Z</time>
      </trkpt>
      <trkpt lat="45.29" lon="5.75418">
        <ele>1548.8</ele>
        <time>2020-02-08T10:39:43Z</time>
      </trkpt>
      <trkpt lat="45.29" lon="5.75417">
        <ele>1549.4</ele>
        <time>2020-02-08T10:39:44Z</time>
      </trkpt>
      <trkpt lat="45.28999" lon="5.75415">
        <ele>1549.6</ele>
        <time>2020-02-08T10:39:45Z</time>
      </trkpt>
      <trkpt lat="45.28998" lon="5.75414">
        <ele>1549.4</ele>
        <time>2020-02-08T10:39:46Z</time>
      </trkpt>
      <trkpt lat="45.28997" lon="5.75412">
        <ele>1549.4</ele>
        <time>2020-02-08T10:39:47Z</time>
      </trkpt>
      <trkpt lat="45.28996" lon="5.75411">
        <ele>1549.8</ele>
        <time>2020-02-08T10:39:48Z</time>
      </trkpt>
      <trkpt lat="45.28995" lon="5.7541">
        <ele>1550</ele>
        <time>2020-02-08T10:39:49Z</time>
      </trkpt>
      <trkpt lat="45.28994" lon="5.75408">
        <ele>1550.4</ele>
        <time>2020-02-08T10:39:50Z</time>
      </trkpt>
      <trkpt lat="45.28994" lon="5.75407">
        <ele>1550.6</ele>
        <time>2020-02-08T10:39:51Z</time>
      </trkpt>
      <trkpt lat="45.28993" lon="5.75406">
        <ele>1551</ele>
        <time>2020-02-08T10:39:52Z</time>
      </trkpt>
      <trkpt lat="45.28992" lon="5.75405">
        <ele>1551.2</ele>
        <time>2020-02-08T10:39:53Z</time>
      </trkpt>
      <trkpt lat="45.28992" lon="5.75403">
        <ele>1551.4</ele>
        <time>2020-02-08T10:39:54Z</time>
      </trkpt>
      <trkpt lat="45.28991" lon="5.75402">
        <ele>1551.6</ele>
        <time>2020-02-08T10:39:55Z</time>
      </trkpt>
      <trkpt lat="45.28991" lon="5.75401">
        <ele>1551.2</ele>
        <time>2020-02-08T10:39:56Z</time>
      </trkpt>
      <trkpt lat="45.2899" lon="5.754">
        <ele>1551.4</ele>
        <time>2020-02-08T10:39:57Z</time>
      </trkpt>
      <trkpt lat="45.2899" lon="5.75398">
        <ele>1551.8</ele>
        <time>2020-02-08T10:39:58Z</time>
      </trkpt>
      <trkpt lat="45.28988" lon="5.75397">
        <ele>1552</ele>
        <time>2020-02-08T10:39:59Z</time>
      </trkpt>
      <trkpt lat="45.28987" lon="5.75396">
        <ele>1552</ele>
        <time>2020-02-08T10:40:00Z</time>
      </trkpt>
      <trkpt lat="45.28986" lon="5.75394">
        <ele>1552</ele>
        <time>2020-02-08T10:40:01Z</time>
      </trkpt>
      <trkpt lat="45.28984" lon="5.75393">
        <ele>1552.2</ele>
        <time>2020-02-08T10:40:02Z</time>
      </trkpt>
      <trkpt lat="45.28983" lon="5.75391">
        <ele>1552.4</ele>
        <time>2020-02-08T10:40:03Z</time>
      </trkpt>
      <trkpt lat="45.28982" lon="5.7539">
        <ele>1552.8</ele>
        <time>2020-02-08T10:40:04Z</time>
      </trkpt>
      <trkpt lat="45.2898" lon="5.75389">
        <ele>1552.4</ele>
        <time>2020-02-08T10:40:05Z</time>
      </trkpt>
      <trkpt lat="45.28979" lon="5.75387">
        <ele>1552.4</ele>
        <time>2020-02-08T10:40:06Z</time>
      </trkpt>
      <trkpt lat="45.28978" lon="5.75386">
        <ele>1552.6</ele>
        <time>2020-02-08T10:40:07Z</time>
      </trkpt>
      <trkpt lat="45.28977" lon="5.75385">
        <ele>1552.8</ele>
        <time>2020-02-08T10:40:08Z</time>
      </trkpt>
      <trkpt lat="45.28975" lon="5.75384">
        <ele>1552.8</ele>
        <time>2020-02-08T10:40:09Z</time>
      </trkpt>
      <trkpt lat="45.28974" lon="5.75382">
        <ele>1552.4</ele>
        <time>2020-02-08T10:40:10Z</time>
      </trkpt>
      <trkpt lat="45.28972" lon="5.75381">
        <ele>1552.6</ele>
        <time>2020-02-08T10:40:11Z</time>
      </trkpt>
      <trkpt lat="45.28971" lon="5.75381">
        <ele>1552.8</ele>
        <time>2020-02-08T10:40:12Z</time>
      </trkpt>
      <trkpt lat="45.28969" lon="5.7538">
        <ele>1553</ele>
        <time>2020-02-08T10:40:13Z</time>
      </trkpt>
      <trkpt lat="45.28967" lon="5.75379">
        <ele>1553.2</ele>
        <time>2020-02-08T10:40:14Z</time>
      </trkpt>
      <trkpt lat="45.28966" lon="5.75378">
        <ele>1553.2</ele>
        <time>2020-02-08T10:40:15Z</time>
      </trkpt>
      <trkpt lat="45.28964" lon="5.75378">
        <ele>1553</ele>
        <time>2020-02-08T10:40:16Z</time>
      </trkpt>
      <trkpt lat="45.28963" lon="5.75376">
        <ele>1553.2</ele>
        <time>2020-02-08T10:40:17Z</time>
      </trkpt>
      <trkpt lat="45.28962" lon="5.75374">
        <ele>1553.6</ele>
        <time>2020-02-08T10:40:18Z</time>
      </trkpt>
      <trkpt lat="45.28961" lon="5.75373">
        <ele>1553.4</ele>
        <time>2020-02-08T10:40:19Z</time>
      </trkpt>
      <trkpt lat="45.2896" lon="5.75371">
        <ele>1553.2</ele>
        <time>2020-02-08T10:40:20Z</time>
      </trkpt>
      <trkpt lat="45.28959" lon="5.7537">
        <ele>1553</ele>
        <time>2020-02-08T10:40:21Z</time>
      </trkpt>
      <trkpt lat="45.28958" lon="5.75368">
        <ele>1553.2</ele>
        <time>2020-02-08T10:40:22Z</time>
      </trkpt>
      <trkpt lat="45.28957" lon="5.75366">
        <ele>1553.8</ele>
        <time>2020-02-08T10:40:23Z</time>
      </trkpt>
      <trkpt lat="45.28956" lon="5.75364">
        <ele>1554.6</ele>
        <time>2020-02-08T10:40:24Z</time>
      </trkpt>
      <trkpt lat="45.28956" lon="5.75363">
        <ele>1554.8</ele>
        <time>2020-02-08T10:40:25Z</time>
      </trkpt>
      <trkpt lat="45.28955" lon="5.75361">
        <ele>1555</ele>
        <time>2020-02-08T10:40:26Z</time>
      </trkpt>
      <trkpt lat="45.28954" lon="5.75359">
        <ele>1555.2</ele>
        <time>2020-02-08T10:40:27Z</time>
      </trkpt>
      <trkpt lat="45.28954" lon="5.75357">
        <ele>1555.6</ele>
        <time>2020-02-08T10:40:28Z</time>
      </trkpt>
      <trkpt lat="45.28953" lon="5.75356">
        <ele>1555.8</ele>
        <time>2020-02-08T10:40:29Z</time>
      </trkpt>
      <trkpt lat="45.2895" lon="5.75348">
        <ele>1555.6</ele>
        <time>2020-02-08T10:40:30Z</time>
      </trkpt>
      <trkpt lat="45.28949" lon="5.75348">
        <ele>1556</ele>
        <time>2020-02-08T10:40:31Z</time>
      </trkpt>
      <trkpt lat="45.28948" lon="5.75347">
        <ele>1556</ele>
        <time>2020-02-08T10:40:32Z</time>
      </trkpt>
      <trkpt lat="45.28948" lon="5.75347">
        <ele>1556</ele>
        <time>2020-02-08T10:40:33Z</time>
      </trkpt>
      <trkpt lat="45.28946" lon="5.75345">
        <ele>1555.8</ele>
        <time>2020-02-08T10:40:34Z</time>
      </trkpt>
      <trkpt lat="45.28946" lon="5.75345">
        <ele>1556</ele>
        <time>2020-02-08T10:40:35Z</time>
      </trkpt>
      <trkpt lat="45.28943" lon="5.75343">
        <ele>1556</ele>
        <time>2020-02-08T10:40:36Z</time>
      </trkpt>
      <trkpt lat="45.28943" lon="5.75343">
        <ele>1556</ele>
        <time>2020-02-08T10:40:37Z</time>
      </trkpt>
      <trkpt lat="45.28943" lon="5.75343">
        <ele>1556.2</ele>
        <time>2020-02-08T10:40:38Z</time>
      </trkpt>
      <trkpt lat="45.28942" lon="5.75341">
        <ele>1555.8</ele>
        <time>2020-02-08T10:40:39Z</time>
      </trkpt>
      <trkpt lat="45.2894" lon="5.7534">
        <ele>1555.8</ele>
        <time>2020-02-08T10:40:40Z</time>
      </trkpt>
      <trkpt lat="45.28938" lon="5.75339">
        <ele>1556.2</ele>
        <time>2020-02-08T10:40:41Z</time>
      </trkpt>
      <trkpt lat="45.28936" lon="5.75338">
        <ele>1556.4</ele>
        <time>2020-02-08T10:40:42Z</time>
      </trkpt>
      <trkpt lat="45.28936" lon="5.75338">
        <ele>1556.8</ele>
        <time>2020-02-08T10:40:43Z</time>
      </trkpt>
      <trkpt lat="45.28936" lon="5.75338">
        <ele>1556.8</ele>
        <time>2020-02-08T10:40:44Z</time>
      </trkpt>
      <trkpt lat="45.28935" lon="5.75336">
        <ele>1557</ele>
        <time>2020-02-08T10:40:45Z</time>
      </trkpt>
      <trkpt lat="45.28934" lon="5.75335">
        <ele>1557.2</ele>
        <time>2020-02-08T10:40:46Z</time>
      </trkpt>
      <trkpt lat="45.28933" lon="5.75333">
        <ele>1557</ele>
        <time>2020-02-08T10:40:47Z</time>
      </trkpt>
      <trkpt lat="45.28932" lon="5.75332">
        <ele>1557.4</ele>
        <time>2020-02-08T10:40:48Z</time>
      </trkpt>
      <trkpt lat="45.28931" lon="5.75331">
        <ele>1557</ele>
        <time>2020-02-08T10:40:49Z</time>
      </trkpt>
      <trkpt lat="45.2893" lon="5.75329">
        <ele>1557.2</ele>
        <time>2020-02-08T10:40:50Z</time>
      </trkpt>
      <trkpt lat="45.28929" lon="5.75328">
        <ele>1557.6</ele>
        <time>2020-02-08T10:40:51Z</time>
      </trkpt>
      <trkpt lat="45.28929" lon="5.75326">
        <ele>1558</ele>
        <time>2020-02-08T10:40:52Z</time>
      </trkpt>
      <trkpt lat="45.28928" lon="5.75325">
        <ele>1558.2</ele>
        <time>2020-02-08T10:40:53Z</time>
      </trkpt>
      <trkpt lat="45.28927" lon="5.75323">
        <ele>1558.2</ele>
        <time>2020-02-08T10:40:54Z</time>
      </trkpt>
      <trkpt lat="45.28926" lon="5.75322">
        <ele>1558.4</ele>
        <time>2020-02-08T10:40:55Z</time>
      </trkpt>
      <trkpt lat="45.28925" lon="5.75321">
        <ele>1558.6</ele>
        <time>2020-02-08T10:40:56Z</time>
      </trkpt>
      <trkpt lat="45.28925" lon="5.75319">
        <ele>1558.6</ele>
        <time>2020-02-08T10:40:57Z</time>
      </trkpt>
      <trkpt lat="45.28924" lon="5.75317">
        <ele>1559</ele>
        <time>2020-02-08T10:40:58Z</time>
      </trkpt>
      <trkpt lat="45.28924" lon="5.75314">
        <ele>1558.6</ele>
        <time>2020-02-08T10:40:59Z</time>
      </trkpt>
      <trkpt lat="45.28923" lon="5.75311">
        <ele>1558.6</ele>
        <time>2020-02-08T10:41:00Z</time>
      </trkpt>
      <trkpt lat="45.28923" lon="5.75309">
        <ele>1558.6</ele>
        <time>2020-02-08T10:41:01Z</time>
      </trkpt>
      <trkpt lat="45.28922" lon="5.75306">
        <ele>1558.8</ele>
        <time>2020-02-08T10:41:02Z</time>
      </trkpt>
      <trkpt lat="45.28922" lon="5.75304">
        <ele>1558.8</ele>
        <time>2020-02-08T10:41:03Z</time>
      </trkpt>
      <trkpt lat="45.28922" lon="5.75303">
        <ele>1558.6</ele>
        <time>2020-02-08T10:41:04Z</time>
      </trkpt>
      <trkpt lat="45.28922" lon="5.75302">
        <ele>1558.8</ele>
        <time>2020-02-08T10:41:05Z</time>
      </trkpt>
      <trkpt lat="45.28921" lon="5.753">
        <ele>1558.8</ele>
        <time>2020-02-08T10:41:06Z</time>
      </trkpt>
      <trkpt lat="45.28921" lon="5.75299">
        <ele>1559</ele>
        <time>2020-02-08T10:41:07Z</time>
      </trkpt>
      <trkpt lat="45.28921" lon="5.75297">
        <ele>1559.2</ele>
        <time>2020-02-08T10:41:08Z</time>
      </trkpt>
      <trkpt lat="45.2892" lon="5.75296">
        <ele>1559.4</ele>
        <time>2020-02-08T10:41:09Z</time>
      </trkpt>
      <trkpt lat="45.2892" lon="5.75294">
        <ele>1559.2</ele>
        <time>2020-02-08T10:41:10Z</time>
      </trkpt>
      <trkpt lat="45.2892" lon="5.75293">
        <ele>1559.4</ele>
        <time>2020-02-08T10:41:11Z</time>
      </trkpt>
      <trkpt lat="45.2892" lon="5.7529">
        <ele>1559.8</ele>
        <time>2020-02-08T10:41:12Z</time>
      </trkpt>
      <trkpt lat="45.28919" lon="5.75288">
        <ele>1560.2</ele>
        <time>2020-02-08T10:41:13Z</time>
      </trkpt>
      <trkpt lat="45.28919" lon="5.75285">
        <ele>1560.6</ele>
        <time>2020-02-08T10:41:14Z</time>
      </trkpt>
      <trkpt lat="45.28919" lon="5.75282">
        <ele>1560.4</ele>
        <time>2020-02-08T10:41:15Z</time>
      </trkpt>
      <trkpt lat="45.28918" lon="5.7528">
        <ele>1560.6</ele>
        <time>2020-02-08T10:41:16Z</time>
      </trkpt>
      <trkpt lat="45.28917" lon="5.75279">
        <ele>1560.8</ele>
        <time>2020-02-08T10:41:17Z</time>
      </trkpt>
      <trkpt lat="45.28916" lon="5.75278">
        <ele>1561.2</ele>
        <time>2020-02-08T10:41:18Z</time>
      </trkpt>
      <trkpt lat="45.28915" lon="5.75278">
        <ele>1561.6</ele>
        <time>2020-02-08T10:41:19Z</time>
      </trkpt>
      <trkpt lat="45.28914" lon="5.75277">
        <ele>1561.4</ele>
        <time>2020-02-08T10:41:20Z</time>
      </trkpt>
      <trkpt lat="45.28913" lon="5.75276">
        <ele>1561.4</ele>
        <time>2020-02-08T10:41:21Z</time>
      </trkpt>
      <trkpt lat="45.28912" lon="5.75276">
        <ele>1561.8</ele>
        <time>2020-02-08T10:41:22Z</time>
      </trkpt>
      <trkpt lat="45.28911" lon="5.75275">
        <ele>1562</ele>
        <time>2020-02-08T10:41:23Z</time>
      </trkpt>
      <trkpt lat="45.2891" lon="5.75274">
        <ele>1561.6</ele>
        <time>2020-02-08T10:41:24Z</time>
      </trkpt>
      <trkpt lat="45.28909" lon="5.75274">
        <ele>1562</ele>
        <time>2020-02-08T10:41:25Z</time>
      </trkpt>
      <trkpt lat="45.28907" lon="5.75273">
        <ele>1562.2</ele>
        <time>2020-02-08T10:41:26Z</time>
      </trkpt>
      <trkpt lat="45.28906" lon="5.75273">
        <ele>1562.6</ele>
        <time>2020-02-08T10:41:27Z</time>
      </trkpt>
      <trkpt lat="45.28905" lon="5.75273">
        <ele>1562.2</ele>
        <time>2020-02-08T10:41:28Z</time>
      </trkpt>
      <trkpt lat="45.28904" lon="5.75272">
        <ele>1562.4</ele>
        <time>2020-02-08T10:41:29Z</time>
      </trkpt>
      <trkpt lat="45.28903" lon="5.75272">
        <ele>1562.6</ele>
        <time>2020-02-08T10:41:30Z</time>
      </trkpt>
      <trkpt lat="45.28901" lon="5.75271">
        <ele>1562.4</ele>
        <time>2020-02-08T10:41:31Z</time>
      </trkpt>
      <trkpt lat="45.289" lon="5.75271">
        <ele>1562.2</ele>
        <time>2020-02-08T10:41:32Z</time>
      </trkpt>
      <trkpt lat="45.28899" lon="5.75269">
        <ele>1562.2</ele>
        <time>2020-02-08T10:41:33Z</time>
      </trkpt>
      <trkpt lat="45.28898" lon="5.75267">
        <ele>1562.2</ele>
        <time>2020-02-08T10:41:34Z</time>
      </trkpt>
      <trkpt lat="45.28896" lon="5.75265">
        <ele>1562.4</ele>
        <time>2020-02-08T10:41:35Z</time>
      </trkpt>
      <trkpt lat="45.28895" lon="5.75263">
        <ele>1562</ele>
        <time>2020-02-08T10:41:36Z</time>
      </trkpt>
      <trkpt lat="45.28894" lon="5.75261">
        <ele>1562.2</ele>
        <time>2020-02-08T10:41:37Z</time>
      </trkpt>
      <trkpt lat="45.28894" lon="5.75259">
        <ele>1562.2</ele>
        <time>2020-02-08T10:41:38Z</time>
      </trkpt>
      <trkpt lat="45.28893" lon="5.75257">
        <ele>1562.4</ele>
        <time>2020-02-08T10:41:39Z</time>
      </trkpt>
      <trkpt lat="45.28893" lon="5.75255">
        <ele>1562.2</ele>
        <time>2020-02-08T10:41:40Z</time>
      </trkpt>
      <trkpt lat="45.28893" lon="5.75253">
        <ele>1562</ele>
        <time>2020-02-08T10:41:41Z</time>
      </trkpt>
      <trkpt lat="45.28893" lon="5.75251">
        <ele>1561.8</ele>
        <time>2020-02-08T10:41:42Z</time>
      </trkpt>
      <trkpt lat="45.28892" lon="5.75248">
        <ele>1561.4</ele>
        <time>2020-02-08T10:41:43Z</time>
      </trkpt>
      <trkpt lat="45.28894" lon="5.75245">
        <ele>1561.2</ele>
        <time>2020-02-08T10:41:44Z</time>
      </trkpt>
      <trkpt lat="45.28895" lon="5.75242">
        <ele>1560.6</ele>
        <time>2020-02-08T10:41:45Z</time>
      </trkpt>
      <trkpt lat="45.28896" lon="5.75239">
        <ele>1560</ele>
        <time>2020-02-08T10:41:46Z</time>
      </trkpt>
      <trkpt lat="45.28898" lon="5.75235">
        <ele>1559.8</ele>
        <time>2020-02-08T10:41:47Z</time>
      </trkpt>
      <trkpt lat="45.28899" lon="5.7523">
        <ele>1559.2</ele>
        <time>2020-02-08T10:41:48Z</time>
      </trkpt>
      <trkpt lat="45.289" lon="5.75224">
        <ele>1558.6</ele>
        <time>2020-02-08T10:41:49Z</time>
      </trkpt>
      <trkpt lat="45.28902" lon="5.75219">
        <ele>1557.6</ele>
        <time>2020-02-08T10:41:50Z</time>
      </trkpt>
      <trkpt lat="45.28903" lon="5.75213">
        <ele>1557.4</ele>
        <time>2020-02-08T10:41:51Z</time>
      </trkpt>
      <trkpt lat="45.28907" lon="5.75205">
        <ele>1556.6</ele>
        <time>2020-02-08T10:41:52Z</time>
      </trkpt>
      <trkpt lat="45.28909" lon="5.75203">
        <ele>1556.2</ele>
        <time>2020-02-08T10:41:53Z</time>
      </trkpt>
      <trkpt lat="45.2891" lon="5.75201">
        <ele>1555.6</ele>
        <time>2020-02-08T10:41:54Z</time>
      </trkpt>
      <trkpt lat="45.28913" lon="5.75196">
        <ele>1555.2</ele>
        <time>2020-02-08T10:41:55Z</time>
      </trkpt>
      <trkpt lat="45.28913" lon="5.75196">
        <ele>1555.2</ele>
        <time>2020-02-08T10:41:56Z</time>
      </trkpt>
      <trkpt lat="45.28913" lon="5.75196">
        <ele>1554.6</ele>
        <time>2020-02-08T10:41:57Z</time>
      </trkpt>
      <trkpt lat="45.28916" lon="5.75193">
        <ele>1554.2</ele>
        <time>2020-02-08T10:41:58Z</time>
      </trkpt>
      <trkpt lat="45.28918" lon="5.75189">
        <ele>1554.2</ele>
        <time>2020-02-08T10:41:59Z</time>
      </trkpt>
      <trkpt lat="45.2892" lon="5.75185">
        <ele>1554.2</ele>
        <time>2020-02-08T10:42:00Z</time>
      </trkpt>
      <trkpt lat="45.28922" lon="5.75181">
        <ele>1553.8</ele>
        <time>2020-02-08T10:42:01Z</time>
      </trkpt>
      <trkpt lat="45.28923" lon="5.75176">
        <ele>1553.6</ele>
        <time>2020-02-08T10:42:02Z</time>
      </trkpt>
      <trkpt lat="45.28923" lon="5.75174">
        <ele>1553.4</ele>
        <time>2020-02-08T10:42:03Z</time>
      </trkpt>
      <trkpt lat="45.28923" lon="5.75174">
        <ele>1553.6</ele>
        <time>2020-02-08T10:42:04Z</time>
      </trkpt>
      <trkpt lat="45.28923" lon="5.75174">
        <ele>1553.6</ele>
        <time>2020-02-08T10:42:05Z</time>
      </trkpt>
      <trkpt lat="45.28924" lon="5.75172">
        <ele>1553</ele>
        <time>2020-02-08T10:42:06Z</time>
      </trkpt>
      <trkpt lat="45.28924" lon="5.75169">
        <ele>1552.6</ele>
        <time>2020-02-08T10:42:07Z</time>
      </trkpt>
      <trkpt lat="45.28925" lon="5.75166">
        <ele>1552.8</ele>
        <time>2020-02-08T10:42:08Z</time>
      </trkpt>
      <trkpt lat="45.28925" lon="5.75163">
        <ele>1553.2</ele>
        <time>2020-02-08T10:42:09Z</time>
      </trkpt>
      <trkpt lat="45.28926" lon="5.7516">
        <ele>1553.2</ele>
        <time>2020-02-08T10:42:10Z</time>
      </trkpt>
      <trkpt lat="45.28927" lon="5.75158">
        <ele>1553.2</ele>
        <time>2020-02-08T10:42:11Z</time>
      </trkpt>
      <trkpt lat="45.28927" lon="5.75155">
        <ele>1553.2</ele>
        <time>2020-02-08T10:42:12Z</time>
      </trkpt>
      <trkpt lat="45.28928" lon="5.75153">
        <ele>1553</ele>
        <time>2020-02-08T10:42:13Z</time>
      </trkpt>
      <trkpt lat="45.28929" lon="5.7515">
        <ele>1553.4</ele>
        <time>2020-02-08T10:42:14Z</time>
      </trkpt>
      <trkpt lat="45.2893" lon="5.75147">
        <ele>1553.4</ele>
        <time>2020-02-08T10:42:15Z</time>
      </trkpt>
      <trkpt lat="45.2893" lon="5.75145">
        <ele>1553.6</ele>
        <time>2020-02-08T10:42:16Z</time>
      </trkpt>
      <trkpt lat="45.28931" lon="5.75143">
        <ele>1553.2</ele>
        <time>2020-02-08T10:42:17Z</time>
      </trkpt>
      <trkpt lat="45.28931" lon="5.75141">
        <ele>1553.4</ele>
        <time>2020-02-08T10:42:18Z</time>
      </trkpt>
      <trkpt lat="45.28932" lon="5.75138">
        <ele>1553.4</ele>
        <time>2020-02-08T10:42:19Z</time>
      </trkpt>
      <trkpt lat="45.28932" lon="5.75136">
        <ele>1553.6</ele>
        <time>2020-02-08T10:42:20Z</time>
      </trkpt>
      <trkpt lat="45.28933" lon="5.75134">
        <ele>1553.8</ele>
        <time>2020-02-08T10:42:21Z</time>
      </trkpt>
      <trkpt lat="45.28933" lon="5.75132">
        <ele>1554.2</ele>
        <time>2020-02-08T10:42:22Z</time>
      </trkpt>
      <trkpt lat="45.28934" lon="5.75131">
        <ele>1553.6</ele>
        <time>2020-02-08T10:42:23Z</time>
      </trkpt>
      <trkpt lat="45.28935" lon="5.75129">
        <ele>1553.6</ele>
        <time>2020-02-08T10:42:24Z</time>
      </trkpt>
      <trkpt lat="45.28936" lon="5.75127">
        <ele>1553.6</ele>
        <time>2020-02-08T10:42:25Z</time>
      </trkpt>
      <trkpt lat="45.28937" lon="5.75126">
        <ele>1554</ele>
        <time>2020-02-08T10:42:26Z</time>
      </trkpt>
      <trkpt lat="45.28937" lon="5.75124">
        <ele>1554.2</ele>
        <time>2020-02-08T10:42:27Z</time>
      </trkpt>
      <trkpt lat="45.28938" lon="5.75123">
        <ele>1554</ele>
        <time>2020-02-08T10:42:28Z</time>
      </trkpt>
      <trkpt lat="45.28938" lon="5.75121">
        <ele>1553.8</ele>
        <time>2020-02-08T10:42:29Z</time>
      </trkpt>
      <trkpt lat="45.28939" lon="5.75119">
        <ele>1554</ele>
        <time>2020-02-08T10:42:30Z</time>
      </trkpt>
      <trkpt lat="45.28939" lon="5.75117">
        <ele>1554.2</ele>
        <time>2020-02-08T10:42:31Z</time>
      </trkpt>
      <trkpt lat="45.2894" lon="5.75116">
        <ele>1554.6</ele>
        <time>2020-02-08T10:42:32Z</time>
      </trkpt>
      <trkpt lat="45.2894" lon="5.75114">
        <ele>1554.8</ele>
        <time>2020-02-08T10:42:33Z</time>
      </trkpt>
      <trkpt lat="45.28941" lon="5.75112">
        <ele>1554.8</ele>
        <time>2020-02-08T10:42:34Z</time>
      </trkpt>
      <trkpt lat="45.28941" lon="5.7511">
        <ele>1554.6</ele>
        <time>2020-02-08T10:42:35Z</time>
      </trkpt>
      <trkpt lat="45.28942" lon="5.75108">
        <ele>1554.8</ele>
        <time>2020-02-08T10:42:36Z</time>
      </trkpt>
      <trkpt lat="45.28943" lon="5.75106">
        <ele>1555.2</ele>
        <time>2020-02-08T10:42:37Z</time>
      </trkpt>
      <trkpt lat="45.28944" lon="5.75105">
        <ele>1555.4</ele>
        <time>2020-02-08T10:42:38Z</time>
      </trkpt>
      <trkpt lat="45.28946" lon="5.75103">
        <ele>1555.4</ele>
        <time>2020-02-08T10:42:39Z</time>
      </trkpt>
      <trkpt lat="45.28947" lon="5.75101">
        <ele>1556</ele>
        <time>2020-02-08T10:42:40Z</time>
      </trkpt>
      <trkpt lat="45.28948" lon="5.75099">
        <ele>1556.2</ele>
        <time>2020-02-08T10:42:41Z</time>
      </trkpt>
      <trkpt lat="45.28948" lon="5.75097">
        <ele>1556.2</ele>
        <time>2020-02-08T10:42:42Z</time>
      </trkpt>
      <trkpt lat="45.28948" lon="5.75095">
        <ele>1556.4</ele>
        <time>2020-02-08T10:42:43Z</time>
      </trkpt>
      <trkpt lat="45.28949" lon="5.75093">
        <ele>1556.6</ele>
        <time>2020-02-08T10:42:44Z</time>
      </trkpt>
      <trkpt lat="45.28949" lon="5.75091">
        <ele>1557</ele>
        <time>2020-02-08T10:42:45Z</time>
      </trkpt>
      <trkpt lat="45.28949" lon="5.75089">
        <ele>1557.2</ele>
        <time>2020-02-08T10:42:46Z</time>
      </trkpt>
      <trkpt lat="45.28949" lon="5.75087">
        <ele>1557</ele>
        <time>2020-02-08T10:42:47Z</time>
      </trkpt>
      <trkpt lat="45.2895" lon="5.75086">
        <ele>1557</ele>
        <time>2020-02-08T10:42:48Z</time>
      </trkpt>
      <trkpt lat="45.28951" lon="5.75084">
        <ele>1557</ele>
        <time>2020-02-08T10:42:49Z</time>
      </trkpt>
      <trkpt lat="45.28951" lon="5.75082">
        <ele>1557.4</ele>
        <time>2020-02-08T10:42:50Z</time>
      </trkpt>
      <trkpt lat="45.28952" lon="5.7508">
        <ele>1557.8</ele>
        <time>2020-02-08T10:42:51Z</time>
      </trkpt>
      <trkpt lat="45.28953" lon="5.75078">
        <ele>1558.2</ele>
        <time>2020-02-08T10:42:52Z</time>
      </trkpt>
      <trkpt lat="45.28954" lon="5.75076">
        <ele>1558</ele>
        <time>2020-02-08T10:42:53Z</time>
      </trkpt>
      <trkpt lat="45.28955" lon="5.75074">
        <ele>1558</ele>
        <time>2020-02-08T10:42:54Z</time>
      </trkpt>
      <trkpt lat="45.28955" lon="5.75072">
        <ele>1558.4</ele>
        <time>2020-02-08T10:42:55Z</time>
      </trkpt>
      <trkpt lat="45.28956" lon="5.7507">
        <ele>1558.8</ele>
        <time>2020-02-08T10:42:56Z</time>
      </trkpt>
      <trkpt lat="45.28957" lon="5.75068">
        <ele>1559.2</ele>
        <time>2020-02-08T10:42:57Z</time>
      </trkpt>
      <trkpt lat="45.28958" lon="5.75066">
        <ele>1559.4</ele>
        <time>2020-02-08T10:42:58Z</time>
      </trkpt>
      <trkpt lat="45.28959" lon="5.75064">
        <ele>1559.4</ele>
        <time>2020-02-08T10:42:59Z</time>
      </trkpt>
      <trkpt lat="45.2896" lon="5.75062">
        <ele>1559.2</ele>
        <time>2020-02-08T10:43:00Z</time>
      </trkpt>
      <trkpt lat="45.28961" lon="5.7506">
        <ele>1559.4</ele>
        <time>2020-02-08T10:43:01Z</time>
      </trkpt>
      <trkpt lat="45.28962" lon="5.75058">
        <ele>1559.6</ele>
        <time>2020-02-08T10:43:02Z</time>
      </trkpt>
      <trkpt lat="45.28962" lon="5.75057">
        <ele>1559.6</ele>
        <time>2020-02-08T10:43:03Z</time>
      </trkpt>
      <trkpt lat="45.28963" lon="5.75055">
        <ele>1560.2</ele>
        <time>2020-02-08T10:43:04Z</time>
      </trkpt>
      <trkpt lat="45.28964" lon="5.75053">
        <ele>1560</ele>
        <time>2020-02-08T10:43:05Z</time>
      </trkpt>
      <trkpt lat="45.28965" lon="5.75051">
        <ele>1560</ele>
        <time>2020-02-08T10:43:06Z</time>
      </trkpt>
      <trkpt lat="45.28966" lon="5.75049">
        <ele>1560.2</ele>
        <time>2020-02-08T10:43:07Z</time>
      </trkpt>
      <trkpt lat="45.28966" lon="5.75048">
        <ele>1560.6</ele>
        <time>2020-02-08T10:43:08Z</time>
      </trkpt>
      <trkpt lat="45.28967" lon="5.75047">
        <ele>1561</ele>
        <time>2020-02-08T10:43:09Z</time>
      </trkpt>
      <trkpt lat="45.28968" lon="5.75045">
        <ele>1561.2</ele>
        <time>2020-02-08T10:43:10Z</time>
      </trkpt>
      <trkpt lat="45.28968" lon="5.75044">
        <ele>1560.8</ele>
        <time>2020-02-08T10:43:11Z</time>
      </trkpt>
      <trkpt lat="45.28969" lon="5.75043">
        <ele>1560.8</ele>
        <time>2020-02-08T10:43:12Z</time>
      </trkpt>
      <trkpt lat="45.2897" lon="5.75041">
        <ele>1561</ele>
        <time>2020-02-08T10:43:13Z</time>
      </trkpt>
      <trkpt lat="45.28971" lon="5.7504">
        <ele>1561.2</ele>
        <time>2020-02-08T10:43:14Z</time>
      </trkpt>
      <trkpt lat="45.28971" lon="5.75038">
        <ele>1561.4</ele>
        <time>2020-02-08T10:43:15Z</time>
      </trkpt>
      <trkpt lat="45.28972" lon="5.75036">
        <ele>1561.6</ele>
        <time>2020-02-08T10:43:16Z</time>
      </trkpt>
      <trkpt lat="45.28972" lon="5.75035">
        <ele>1562.2</ele>
        <time>2020-02-08T10:43:17Z</time>
      </trkpt>
      <trkpt lat="45.28973" lon="5.75033">
        <ele>1562</ele>
        <time>2020-02-08T10:43:18Z</time>
      </trkpt>
      <trkpt lat="45.28973" lon="5.75032">
        <ele>1561.8</ele>
        <time>2020-02-08T10:43:19Z</time>
      </trkpt>
      <trkpt lat="45.28974" lon="5.7503">
        <ele>1562.2</ele>
        <time>2020-02-08T10:43:20Z</time>
      </trkpt>
      <trkpt lat="45.28975" lon="5.75028">
        <ele>1562.6</ele>
        <time>2020-02-08T10:43:21Z</time>
      </trkpt>
      <trkpt lat="45.28975" lon="5.75027">
        <ele>1563</ele>
        <time>2020-02-08T10:43:22Z</time>
      </trkpt>
      <trkpt lat="45.28976" lon="5.75025">
        <ele>1563.2</ele>
        <time>2020-02-08T10:43:23Z</time>
      </trkpt>
      <trkpt lat="45.28977" lon="5.75023">
        <ele>1563.2</ele>
        <time>2020-02-08T10:43:24Z</time>
      </trkpt>
      <trkpt lat="45.28977" lon="5.75022">
        <ele>1563.6</ele>
        <time>2020-02-08T10:43:25Z</time>
      </trkpt>
      <trkpt lat="45.28978" lon="5.7502">
        <ele>1563.4</ele>
        <time>2020-02-08T10:43:26Z</time>
      </trkpt>
      <trkpt lat="45.28978" lon="5.75019">
        <ele>1563.4</ele>
        <time>2020-02-08T10:43:27Z</time>
      </trkpt>
      <trkpt lat="45.28979" lon="5.75017">
        <ele>1563.6</ele>
        <time>2020-02-08T10:43:28Z</time>
      </trkpt>
      <trkpt lat="45.2898" lon="5.75016">
        <ele>1563.4</ele>
        <time>2020-02-08T10:43:29Z</time>
      </trkpt>
      <trkpt lat="45.28981" lon="5.75014">
        <ele>1563.6</ele>
        <time>2020-02-08T10:43:30Z</time>
      </trkpt>
      <trkpt lat="45.28981" lon="5.75013">
        <ele>1563.8</ele>
        <time>2020-02-08T10:43:31Z</time>
      </trkpt>
      <trkpt lat="45.28982" lon="5.75011">
        <ele>1564</ele>
        <time>2020-02-08T10:43:32Z</time>
      </trkpt>
      <trkpt lat="45.28983" lon="5.7501">
        <ele>1564.4</ele>
        <time>2020-02-08T10:43:33Z</time>
      </trkpt>
      <trkpt lat="45.28984" lon="5.75008">
        <ele>1564.6</ele>
        <time>2020-02-08T10:43:34Z</time>
      </trkpt>
      <trkpt lat="45.28985" lon="5.75007">
        <ele>1564.8</ele>
        <time>2020-02-08T10:43:35Z</time>
      </trkpt>
      <trkpt lat="45.28986" lon="5.75005">
        <ele>1565.4</ele>
        <time>2020-02-08T10:43:36Z</time>
      </trkpt>
      <trkpt lat="45.28987" lon="5.75004">
        <ele>1565.4</ele>
        <time>2020-02-08T10:43:37Z</time>
      </trkpt>
      <trkpt lat="45.28988" lon="5.75002">
        <ele>1565.6</ele>
        <time>2020-02-08T10:43:38Z</time>
      </trkpt>
      <trkpt lat="45.28989" lon="5.75001">
        <ele>1566</ele>
        <time>2020-02-08T10:43:39Z</time>
      </trkpt>
      <trkpt lat="45.2899" lon="5.74999">
        <ele>1566.4</ele>
        <time>2020-02-08T10:43:40Z</time>
      </trkpt>
      <trkpt lat="45.28991" lon="5.74997">
        <ele>1566.8</ele>
        <time>2020-02-08T10:43:41Z</time>
      </trkpt>
      <trkpt lat="45.28992" lon="5.74996">
        <ele>1567.2</ele>
        <time>2020-02-08T10:43:42Z</time>
      </trkpt>
      <trkpt lat="45.28993" lon="5.74995">
        <ele>1567.6</ele>
        <time>2020-02-08T10:43:43Z</time>
      </trkpt>
      <trkpt lat="45.28993" lon="5.74993">
        <ele>1567.6</ele>
        <time>2020-02-08T10:43:44Z</time>
      </trkpt>
      <trkpt lat="45.28994" lon="5.74992">
        <ele>1567.2</ele>
        <time>2020-02-08T10:43:45Z</time>
      </trkpt>
      <trkpt lat="45.28995" lon="5.74991">
        <ele>1567.6</ele>
        <time>2020-02-08T10:43:46Z</time>
      </trkpt>
      <trkpt lat="45.28995" lon="5.74989">
        <ele>1568</ele>
        <time>2020-02-08T10:43:47Z</time>
      </trkpt>
      <trkpt lat="45.28996" lon="5.74988">
        <ele>1568.8</ele>
        <time>2020-02-08T10:43:48Z</time>
      </trkpt>
      <trkpt lat="45.28996" lon="5.74987">
        <ele>1569.2</ele>
        <time>2020-02-08T10:43:49Z</time>
      </trkpt>
      <trkpt lat="45.28997" lon="5.74985">
        <ele>1569.4</ele>
        <time>2020-02-08T10:43:50Z</time>
      </trkpt>
      <trkpt lat="45.28998" lon="5.74984">
        <ele>1569.6</ele>
        <time>2020-02-08T10:43:51Z</time>
      </trkpt>
      <trkpt lat="45.28999" lon="5.74983">
        <ele>1569.8</ele>
        <time>2020-02-08T10:43:52Z</time>
      </trkpt>
      <trkpt lat="45.28999" lon="5.74982">
        <ele>1569.6</ele>
        <time>2020-02-08T10:43:53Z</time>
      </trkpt>
      <trkpt lat="45.29" lon="5.74981">
        <ele>1569.8</ele>
        <time>2020-02-08T10:43:54Z</time>
      </trkpt>
      <trkpt lat="45.29001" lon="5.7498">
        <ele>1569.8</ele>
        <time>2020-02-08T10:43:55Z</time>
      </trkpt>
      <trkpt lat="45.29002" lon="5.74978">
        <ele>1570.4</ele>
        <time>2020-02-08T10:43:56Z</time>
      </trkpt>
      <trkpt lat="45.29002" lon="5.74977">
        <ele>1571</ele>
        <time>2020-02-08T10:43:57Z</time>
      </trkpt>
      <trkpt lat="45.29003" lon="5.74976">
        <ele>1571.2</ele>
        <time>2020-02-08T10:43:58Z</time>
      </trkpt>
      <trkpt lat="45.29004" lon="5.74974">
        <ele>1571.6</ele>
        <time>2020-02-08T10:43:59Z</time>
      </trkpt>
      <trkpt lat="45.29005" lon="5.74973">
        <ele>1571.8</ele>
        <time>2020-02-08T10:44:00Z</time>
      </trkpt>
      <trkpt lat="45.29005" lon="5.74971">
        <ele>1571.4</ele>
        <time>2020-02-08T10:44:01Z</time>
      </trkpt>
      <trkpt lat="45.29006" lon="5.74969">
        <ele>1571.4</ele>
        <time>2020-02-08T10:44:02Z</time>
      </trkpt>
      <trkpt lat="45.29007" lon="5.74968">
        <ele>1571.8</ele>
        <time>2020-02-08T10:44:03Z</time>
      </trkpt>
      <trkpt lat="45.29008" lon="5.74966">
        <ele>1572</ele>
        <time>2020-02-08T10:44:04Z</time>
      </trkpt>
      <trkpt lat="45.29008" lon="5.74964">
        <ele>1572.6</ele>
        <time>2020-02-08T10:44:05Z</time>
      </trkpt>
      <trkpt lat="45.29009" lon="5.74962">
        <ele>1572.8</ele>
        <time>2020-02-08T10:44:06Z</time>
      </trkpt>
      <trkpt lat="45.2901" lon="5.7496">
        <ele>1573</ele>
        <time>2020-02-08T10:44:07Z</time>
      </trkpt>
      <trkpt lat="45.2901" lon="5.74958">
        <ele>1572.8</ele>
        <time>2020-02-08T10:44:08Z</time>
      </trkpt>
      <trkpt lat="45.29011" lon="5.74956">
        <ele>1573</ele>
        <time>2020-02-08T10:44:09Z</time>
      </trkpt>
      <trkpt lat="45.29012" lon="5.74954">
        <ele>1572.8</ele>
        <time>2020-02-08T10:44:10Z</time>
      </trkpt>
      <trkpt lat="45.29012" lon="5.74951">
        <ele>1573.2</ele>
        <time>2020-02-08T10:44:11Z</time>
      </trkpt>
      <trkpt lat="45.29014" lon="5.7495">
        <ele>1573.4</ele>
        <time>2020-02-08T10:44:12Z</time>
      </trkpt>
      <trkpt lat="45.29015" lon="5.74949">
        <ele>1573.4</ele>
        <time>2020-02-08T10:44:13Z</time>
      </trkpt>
      <trkpt lat="45.29016" lon="5.74948">
        <ele>1573.2</ele>
        <time>2020-02-08T10:44:14Z</time>
      </trkpt>
      <trkpt lat="45.29017" lon="5.74947">
        <ele>1573.2</ele>
        <time>2020-02-08T10:44:15Z</time>
      </trkpt>
      <trkpt lat="45.29018" lon="5.74946">
        <ele>1573.2</ele>
        <time>2020-02-08T10:44:16Z</time>
      </trkpt>
      <trkpt lat="45.29019" lon="5.74945">
        <ele>1573.6</ele>
        <time>2020-02-08T10:44:17Z</time>
      </trkpt>
      <trkpt lat="45.2902" lon="5.74943">
        <ele>1574</ele>
        <time>2020-02-08T10:44:18Z</time>
      </trkpt>
      <trkpt lat="45.29021" lon="5.74942">
        <ele>1574.2</ele>
        <time>2020-02-08T10:44:19Z</time>
      </trkpt>
      <trkpt lat="45.29022" lon="5.74941">
        <ele>1574</ele>
        <time>2020-02-08T10:44:20Z</time>
      </trkpt>
      <trkpt lat="45.29024" lon="5.7494">
        <ele>1574.2</ele>
        <time>2020-02-08T10:44:21Z</time>
      </trkpt>
      <trkpt lat="45.29025" lon="5.74939">
        <ele>1575</ele>
        <time>2020-02-08T10:44:22Z</time>
      </trkpt>
      <trkpt lat="45.29026" lon="5.74938">
        <ele>1575.6</ele>
        <time>2020-02-08T10:44:23Z</time>
      </trkpt>
      <trkpt lat="45.29028" lon="5.74937">
        <ele>1576</ele>
        <time>2020-02-08T10:44:24Z</time>
      </trkpt>
      <trkpt lat="45.29029" lon="5.74935">
        <ele>1576</ele>
        <time>2020-02-08T10:44:25Z</time>
      </trkpt>
      <trkpt lat="45.29031" lon="5.74934">
        <ele>1576.4</ele>
        <time>2020-02-08T10:44:26Z</time>
      </trkpt>
      <trkpt lat="45.29031" lon="5.74934">
        <ele>1576.6</ele>
        <time>2020-02-08T10:44:27Z</time>
      </trkpt>
      <trkpt lat="45.29031" lon="5.74934">
        <ele>1576.6</ele>
        <time>2020-02-08T10:44:28Z</time>
      </trkpt>
      <trkpt lat="45.29031" lon="5.74934">
        <ele>1576.6</ele>
        <time>2020-02-08T10:44:29Z</time>
      </trkpt>
      <trkpt lat="45.29031" lon="5.74934">
        <ele>1576.6</ele>
        <time>2020-02-08T10:44:30Z</time>
      </trkpt>
      <trkpt lat="45.29034" lon="5.74935">
        <ele>1577</ele>
        <time>2020-02-08T10:44:31Z</time>
      </trkpt>
      <trkpt lat="45.29034" lon="5.74935">
        <ele>1577.4</ele>
        <time>2020-02-08T10:44:32Z</time>
      </trkpt>
      <trkpt lat="45.29034" lon="5.74935">
        <ele>1577.4</ele>
        <time>2020-02-08T10:44:33Z</time>
      </trkpt>
      <trkpt lat="45.29035" lon="5.74933">
        <ele>1577.6</ele>
        <time>2020-02-08T10:44:34Z</time>
      </trkpt>
      <trkpt lat="45.29036" lon="5.74931">
        <ele>1578</ele>
        <time>2020-02-08T10:44:35Z</time>
      </trkpt>
      <trkpt lat="45.29036" lon="5.74929">
        <ele>1577.8</ele>
        <time>2020-02-08T10:44:36Z</time>
      </trkpt>
      <trkpt lat="45.29037" lon="5.74927">
        <ele>1578</ele>
        <time>2020-02-08T10:44:37Z</time>
      </trkpt>
      <trkpt lat="45.29038" lon="5.74926">
        <ele>1577.6</ele>
        <time>2020-02-08T10:44:38Z</time>
      </trkpt>
      <trkpt lat="45.29039" lon="5.74924">
        <ele>1577.6</ele>
        <time>2020-02-08T10:44:39Z</time>
      </trkpt>
      <trkpt lat="45.2904" lon="5.74922">
        <ele>1577.8</ele>
        <time>2020-02-08T10:44:40Z</time>
      </trkpt>
      <trkpt lat="45.29041" lon="5.74921">
        <ele>1577.8</ele>
        <time>2020-02-08T10:44:41Z</time>
      </trkpt>
      <trkpt lat="45.29043" lon="5.7492">
        <ele>1577.8</ele>
        <time>2020-02-08T10:44:42Z</time>
      </trkpt>
      <trkpt lat="45.29044" lon="5.74918">
        <ele>1577.8</ele>
        <time>2020-02-08T10:44:43Z</time>
      </trkpt>
      <trkpt lat="45.29045" lon="5.74917">
        <ele>1577.8</ele>
        <time>2020-02-08T10:44:44Z</time>
      </trkpt>
      <trkpt lat="45.29047" lon="5.74916">
        <ele>1578</ele>
        <time>2020-02-08T10:44:45Z</time>
      </trkpt>
      <trkpt lat="45.29048" lon="5.74915">
        <ele>1578.4</ele>
        <time>2020-02-08T10:44:46Z</time>
      </trkpt>
      <trkpt lat="45.2905" lon="5.74913">
        <ele>1578.8</ele>
        <time>2020-02-08T10:44:47Z</time>
      </trkpt>
      <trkpt lat="45.29051" lon="5.74911">
        <ele>1579.2</ele>
        <time>2020-02-08T10:44:48Z</time>
      </trkpt>
      <trkpt lat="45.29053" lon="5.7491">
        <ele>1579.2</ele>
        <time>2020-02-08T10:44:49Z</time>
      </trkpt>
      <trkpt lat="45.29054" lon="5.74908">
        <ele>1579</ele>
        <time>2020-02-08T10:44:50Z</time>
      </trkpt>
      <trkpt lat="45.29054" lon="5.74908">
        <ele>1578.8</ele>
        <time>2020-02-08T10:44:51Z</time>
      </trkpt>
      <trkpt lat="45.29054" lon="5.74908">
        <ele>1579.2</ele>
        <time>2020-02-08T10:44:52Z</time>
      </trkpt>
      <trkpt lat="45.29056" lon="5.74907">
        <ele>1579.6</ele>
        <time>2020-02-08T10:44:53Z</time>
      </trkpt>
      <trkpt lat="45.29057" lon="5.74907">
        <ele>1580</ele>
        <time>2020-02-08T10:44:54Z</time>
      </trkpt>
      <trkpt lat="45.29058" lon="5.74906">
        <ele>1580.4</ele>
        <time>2020-02-08T10:44:55Z</time>
      </trkpt>
      <trkpt lat="45.29059" lon="5.74906">
        <ele>1580.8</ele>
        <time>2020-02-08T10:44:56Z</time>
      </trkpt>
      <trkpt lat="45.2906" lon="5.74905">
        <ele>1581.6</ele>
        <time>2020-02-08T10:44:57Z</time>
      </trkpt>
      <trkpt lat="45.29062" lon="5.74905">
        <ele>1581.4</ele>
        <time>2020-02-08T10:44:58Z</time>
      </trkpt>
      <trkpt lat="45.29063" lon="5.74904">
        <ele>1581.2</ele>
        <time>2020-02-08T10:44:59Z</time>
      </trkpt>
      <trkpt lat="45.29064" lon="5.74904">
        <ele>1581.2</ele>
        <time>2020-02-08T10:45:00Z</time>
      </trkpt>
      <trkpt lat="45.29065" lon="5.74903">
        <ele>1581.6</ele>
        <time>2020-02-08T10:45:01Z</time>
      </trkpt>
      <trkpt lat="45.29067" lon="5.74903">
        <ele>1582.2</ele>
        <time>2020-02-08T10:45:02Z</time>
      </trkpt>
      <trkpt lat="45.29068" lon="5.74902">
        <ele>1582.8</ele>
        <time>2020-02-08T10:45:03Z</time>
      </trkpt>
      <trkpt lat="45.29069" lon="5.74902">
        <ele>1583.4</ele>
        <time>2020-02-08T10:45:04Z</time>
      </trkpt>
      <trkpt lat="45.29071" lon="5.74901">
        <ele>1584</ele>
        <time>2020-02-08T10:45:05Z</time>
      </trkpt>
      <trkpt lat="45.29072" lon="5.74901">
        <ele>1584.2</ele>
        <time>2020-02-08T10:45:06Z</time>
      </trkpt>
      <trkpt lat="45.29073" lon="5.749">
        <ele>1584.2</ele>
        <time>2020-02-08T10:45:07Z</time>
      </trkpt>
      <trkpt lat="45.29075" lon="5.749">
        <ele>1584.6</ele>
        <time>2020-02-08T10:45:08Z</time>
      </trkpt>
      <trkpt lat="45.29076" lon="5.74899">
        <ele>1584.6</ele>
        <time>2020-02-08T10:45:09Z</time>
      </trkpt>
      <trkpt lat="45.29078" lon="5.74899">
        <ele>1585</ele>
        <time>2020-02-08T10:45:10Z</time>
      </trkpt>
      <trkpt lat="45.29079" lon="5.74898">
        <ele>1585.4</ele>
        <time>2020-02-08T10:45:11Z</time>
      </trkpt>
      <trkpt lat="45.29081" lon="5.74898">
        <ele>1585.8</ele>
        <time>2020-02-08T10:45:12Z</time>
      </trkpt>
      <trkpt lat="45.29081" lon="5.74898">
        <ele>1586.2</ele>
        <time>2020-02-08T10:45:13Z</time>
      </trkpt>
      <trkpt lat="45.29081" lon="5.74898">
        <ele>1587</ele>
        <time>2020-02-08T10:45:14Z</time>
      </trkpt>
      <trkpt lat="45.29082" lon="5.74897">
        <ele>1587</ele>
        <time>2020-02-08T10:45:15Z</time>
      </trkpt>
      <trkpt lat="45.29084" lon="5.74896">
        <ele>1586.8</ele>
        <time>2020-02-08T10:45:16Z</time>
      </trkpt>
      <trkpt lat="45.29085" lon="5.74895">
        <ele>1586.8</ele>
        <time>2020-02-08T10:45:17Z</time>
      </trkpt>
      <trkpt lat="45.29086" lon="5.74894">
        <ele>1587</ele>
        <time>2020-02-08T10:45:18Z</time>
      </trkpt>
      <trkpt lat="45.29088" lon="5.74894">
        <ele>1587.6</ele>
        <time>2020-02-08T10:45:19Z</time>
      </trkpt>
      <trkpt lat="45.29089" lon="5.74893">
        <ele>1588</ele>
        <time>2020-02-08T10:45:20Z</time>
      </trkpt>
      <trkpt lat="45.29089" lon="5.74893">
        <ele>1588.4</ele>
        <time>2020-02-08T10:45:21Z</time>
      </trkpt>
      <trkpt lat="45.29089" lon="5.74893">
        <ele>1588.8</ele>
        <time>2020-02-08T10:45:22Z</time>
      </trkpt>
      <trkpt lat="45.2909" lon="5.74892">
        <ele>1589.4</ele>
        <time>2020-02-08T10:45:23Z</time>
      </trkpt>
      <trkpt lat="45.29091" lon="5.74891">
        <ele>1589.4</ele>
        <time>2020-02-08T10:45:24Z</time>
      </trkpt>
      <trkpt lat="45.29092" lon="5.7489">
        <ele>1589.6</ele>
        <time>2020-02-08T10:45:25Z</time>
      </trkpt>
      <trkpt lat="45.29094" lon="5.74889">
        <ele>1589.8</ele>
        <time>2020-02-08T10:45:26Z</time>
      </trkpt>
      <trkpt lat="45.29095" lon="5.74888">
        <ele>1590.4</ele>
        <time>2020-02-08T10:45:27Z</time>
      </trkpt>
      <trkpt lat="45.29096" lon="5.74887">
        <ele>1590.4</ele>
        <time>2020-02-08T10:45:28Z</time>
      </trkpt>
      <trkpt lat="45.29097" lon="5.74886">
        <ele>1590.8</ele>
        <time>2020-02-08T10:45:29Z</time>
      </trkpt>
      <trkpt lat="45.29098" lon="5.74884">
        <ele>1591.2</ele>
        <time>2020-02-08T10:45:30Z</time>
      </trkpt>
      <trkpt lat="45.29098" lon="5.74882">
        <ele>1591.4</ele>
        <time>2020-02-08T10:45:31Z</time>
      </trkpt>
      <trkpt lat="45.29099" lon="5.7488">
        <ele>1591.2</ele>
        <time>2020-02-08T10:45:32Z</time>
      </trkpt>
      <trkpt lat="45.291" lon="5.74877">
        <ele>1591.6</ele>
        <time>2020-02-08T10:45:33Z</time>
      </trkpt>
      <trkpt lat="45.291" lon="5.74875">
        <ele>1591.8</ele>
        <time>2020-02-08T10:45:34Z</time>
      </trkpt>
      <trkpt lat="45.29101" lon="5.74873">
        <ele>1591.8</ele>
        <time>2020-02-08T10:45:35Z</time>
      </trkpt>
      <trkpt lat="45.29101" lon="5.7487">
        <ele>1591.8</ele>
        <time>2020-02-08T10:45:36Z</time>
      </trkpt>
      <trkpt lat="45.29102" lon="5.74868">
        <ele>1591.4</ele>
        <time>2020-02-08T10:45:37Z</time>
      </trkpt>
      <trkpt lat="45.29103" lon="5.74866">
        <ele>1591.6</ele>
        <time>2020-02-08T10:45:38Z</time>
      </trkpt>
      <trkpt lat="45.29103" lon="5.74865">
        <ele>1591.8</ele>
        <time>2020-02-08T10:45:39Z</time>
      </trkpt>
      <trkpt lat="45.29104" lon="5.74863">
        <ele>1591.8</ele>
        <time>2020-02-08T10:45:40Z</time>
      </trkpt>
      <trkpt lat="45.29105" lon="5.74861">
        <ele>1592.2</ele>
        <time>2020-02-08T10:45:41Z</time>
      </trkpt>
      <trkpt lat="45.29106" lon="5.74859">
        <ele>1592.2</ele>
        <time>2020-02-08T10:45:42Z</time>
      </trkpt>
      <trkpt lat="45.29107" lon="5.74857">
        <ele>1592.2</ele>
        <time>2020-02-08T10:45:43Z</time>
      </trkpt>
      <trkpt lat="45.29108" lon="5.74855">
        <ele>1592.4</ele>
        <time>2020-02-08T10:45:44Z</time>
      </trkpt>
      <trkpt lat="45.29109" lon="5.74853">
        <ele>1592.6</ele>
        <time>2020-02-08T10:45:45Z</time>
      </trkpt>
      <trkpt lat="45.2911" lon="5.74851">
        <ele>1593</ele>
        <time>2020-02-08T10:45:46Z</time>
      </trkpt>
      <trkpt lat="45.2911" lon="5.74851">
        <ele>1593.4</ele>
        <time>2020-02-08T10:45:47Z</time>
      </trkpt>
      <trkpt lat="45.2911" lon="5.74851">
        <ele>1592.8</ele>
        <time>2020-02-08T10:45:48Z</time>
      </trkpt>
      <trkpt lat="45.29111" lon="5.74847">
        <ele>1592.8</ele>
        <time>2020-02-08T10:45:49Z</time>
      </trkpt>
      <trkpt lat="45.29111" lon="5.74847">
        <ele>1593</ele>
        <time>2020-02-08T10:45:50Z</time>
      </trkpt>
      <trkpt lat="45.29113" lon="5.74845">
        <ele>1593.4</ele>
        <time>2020-02-08T10:45:51Z</time>
      </trkpt>
      <trkpt lat="45.29113" lon="5.74845">
        <ele>1593.6</ele>
        <time>2020-02-08T10:45:52Z</time>
      </trkpt>
      <trkpt lat="45.29114" lon="5.74842">
        <ele>1594</ele>
        <time>2020-02-08T10:45:53Z</time>
      </trkpt>
      <trkpt lat="45.29114" lon="5.74842">
        <ele>1593.6</ele>
        <time>2020-02-08T10:45:54Z</time>
      </trkpt>
      <trkpt lat="45.29114" lon="5.74842">
        <ele>1593.6</ele>
        <time>2020-02-08T10:45:55Z</time>
      </trkpt>
      <trkpt lat="45.29114" lon="5.74841">
        <ele>1593.6</ele>
        <time>2020-02-08T10:45:56Z</time>
      </trkpt>
      <trkpt lat="45.29114" lon="5.74841">
        <ele>1593.8</ele>
        <time>2020-02-08T10:45:57Z</time>
      </trkpt>
      <trkpt lat="45.29114" lon="5.7484">
        <ele>1593.8</ele>
        <time>2020-02-08T10:45:58Z</time>
      </trkpt>
      <trkpt lat="45.29115" lon="5.74839">
        <ele>1594.2</ele>
        <time>2020-02-08T10:45:59Z</time>
      </trkpt>
      <trkpt lat="45.29115" lon="5.74838">
        <ele>1594.4</ele>
        <time>2020-02-08T10:46:00Z</time>
      </trkpt>
      <trkpt lat="45.29115" lon="5.74837">
        <ele>1594.6</ele>
        <time>2020-02-08T10:46:01Z</time>
      </trkpt>
      <trkpt lat="45.29115" lon="5.74836">
        <ele>1595</ele>
        <time>2020-02-08T10:46:02Z</time>
      </trkpt>
      <trkpt lat="45.29116" lon="5.74835">
        <ele>1595</ele>
        <time>2020-02-08T10:46:03Z</time>
      </trkpt>
      <trkpt lat="45.29116" lon="5.74835">
        <ele>1595.4</ele>
        <time>2020-02-08T10:46:04Z</time>
      </trkpt>
      <trkpt lat="45.29116" lon="5.74835">
        <ele>1595.6</ele>
        <time>2020-02-08T10:46:05Z</time>
      </trkpt>
      <trkpt lat="45.29116" lon="5.74834">
        <ele>1595.6</ele>
        <time>2020-02-08T10:46:06Z</time>
      </trkpt>
      <trkpt lat="45.29116" lon="5.74834">
        <ele>1595.8</ele>
        <time>2020-02-08T10:46:07Z</time>
      </trkpt>
      <trkpt lat="45.29116" lon="5.74834">
        <ele>1595.8</ele>
        <time>2020-02-08T10:46:08Z</time>
      </trkpt>
      <trkpt lat="45.29116" lon="5.74833">
        <ele>1596</ele>
        <time>2020-02-08T10:46:09Z</time>
      </trkpt>
      <trkpt lat="45.29116" lon="5.74833">
        <ele>1595.6</ele>
        <time>2020-02-08T10:46:11Z</time>
      </trkpt>
      <trkpt lat="45.29116" lon="5.74833">
        <ele>1595.2</ele>
        <time>2020-02-08T10:46:12Z</time>
      </trkpt>
      <trkpt lat="45.29116" lon="5.74832">
        <ele>1595</ele>
        <time>2020-02-08T10:46:13Z</time>
      </trkpt>
      <trkpt lat="45.29116" lon="5.74832">
        <ele>1595.2</ele>
        <time>2020-02-08T10:46:14Z</time>
      </trkpt>
      <trkpt lat="45.29116" lon="5.74831">
        <ele>1595.2</ele>
        <time>2020-02-08T10:46:15Z</time>
      </trkpt>
      <trkpt lat="45.29116" lon="5.74831">
        <ele>1595.2</ele>
        <time>2020-02-08T10:46:16Z</time>
      </trkpt>
      <trkpt lat="45.29116" lon="5.74831">
        <ele>1595.6</ele>
        <time>2020-02-08T10:46:17Z</time>
      </trkpt>
      <trkpt lat="45.29116" lon="5.7483">
        <ele>1595.6</ele>
        <time>2020-02-08T10:46:18Z</time>
      </trkpt>
      <trkpt lat="45.29117" lon="5.7483">
        <ele>1595.6</ele>
        <time>2020-02-08T10:46:19Z</time>
      </trkpt>
      <trkpt lat="45.29117" lon="5.7483">
        <ele>1595.6</ele>
        <time>2020-02-08T10:46:20Z</time>
      </trkpt>
      <trkpt lat="45.29117" lon="5.74829">
        <ele>1595.6</ele>
        <time>2020-02-08T10:46:21Z</time>
      </trkpt>
      <trkpt lat="45.29117" lon="5.74829">
        <ele>1595.6</ele>
        <time>2020-02-08T10:46:22Z</time>
      </trkpt>
      <trkpt lat="45.29117" lon="5.74829">
        <ele>1595.4</ele>
        <time>2020-02-08T10:46:23Z</time>
      </trkpt>
      <trkpt lat="45.29117" lon="5.74828">
        <ele>1595.2</ele>
        <time>2020-02-08T10:46:24Z</time>
      </trkpt>
      <trkpt lat="45.29117" lon="5.74828">
        <ele>1595.2</ele>
        <time>2020-02-08T10:46:25Z</time>
      </trkpt>
      <trkpt lat="45.29117" lon="5.74828">
        <ele>1595.2</ele>
        <time>2020-02-08T10:46:26Z</time>
      </trkpt>
      <trkpt lat="45.29117" lon="5.74828">
        <ele>1595.2</ele>
        <time>2020-02-08T10:46:27Z</time>
      </trkpt>
      <trkpt lat="45.29117" lon="5.74828">
        <ele>1595.2</ele>
        <time>2020-02-08T10:46:28Z</time>
      </trkpt>
      <trkpt lat="45.29118" lon="5.74824">
        <ele>1595.6</ele>
        <time>2020-02-08T10:46:29Z</time>
      </trkpt>
      <trkpt lat="45.29118" lon="5.74824">
        <ele>1595.6</ele>
        <time>2020-02-08T10:46:30Z</time>
      </trkpt>
      <trkpt lat="45.29118" lon="5.74824">
        <ele>1595.6</ele>
        <time>2020-02-08T10:46:31Z</time>
      </trkpt>
      <trkpt lat="45.29119" lon="5.74822">
        <ele>1596</ele>
        <time>2020-02-08T10:46:32Z</time>
      </trkpt>
      <trkpt lat="45.29119" lon="5.74822">
        <ele>1595.4</ele>
        <time>2020-02-08T10:46:33Z</time>
      </trkpt>
      <trkpt lat="45.29119" lon="5.74822">
        <ele>1595.8</ele>
        <time>2020-02-08T10:46:34Z</time>
      </trkpt>
      <trkpt lat="45.29119" lon="5.74821">
        <ele>1596.4</ele>
        <time>2020-02-08T10:46:35Z</time>
      </trkpt>
      <trkpt lat="45.2912" lon="5.7482">
        <ele>1596.4</ele>
        <time>2020-02-08T10:46:36Z</time>
      </trkpt>
      <trkpt lat="45.2912" lon="5.74819">
        <ele>1596.8</ele>
        <time>2020-02-08T10:46:37Z</time>
      </trkpt>
      <trkpt lat="45.2912" lon="5.74819">
        <ele>1596.8</ele>
        <time>2020-02-08T10:46:38Z</time>
      </trkpt>
      <trkpt lat="45.29121" lon="5.74818">
        <ele>1597.2</ele>
        <time>2020-02-08T10:46:39Z</time>
      </trkpt>
      <trkpt lat="45.29121" lon="5.74817">
        <ele>1597</ele>
        <time>2020-02-08T10:46:40Z</time>
      </trkpt>
      <trkpt lat="45.29122" lon="5.74816">
        <ele>1597.4</ele>
        <time>2020-02-08T10:46:41Z</time>
      </trkpt>
      <trkpt lat="45.29122" lon="5.74815">
        <ele>1597.4</ele>
        <time>2020-02-08T10:46:42Z</time>
      </trkpt>
      <trkpt lat="45.29123" lon="5.74814">
        <ele>1598</ele>
        <time>2020-02-08T10:46:43Z</time>
      </trkpt>
      <trkpt lat="45.29123" lon="5.74814">
        <ele>1598.2</ele>
        <time>2020-02-08T10:46:44Z</time>
      </trkpt>
      <trkpt lat="45.29124" lon="5.74813">
        <ele>1598.6</ele>
        <time>2020-02-08T10:46:45Z</time>
      </trkpt>
      <trkpt lat="45.29124" lon="5.74812">
        <ele>1598.6</ele>
        <time>2020-02-08T10:46:46Z</time>
      </trkpt>
      <trkpt lat="45.29124" lon="5.74811">
        <ele>1598.8</ele>
        <time>2020-02-08T10:46:47Z</time>
      </trkpt>
      <trkpt lat="45.29125" lon="5.74811">
        <ele>1598.6</ele>
        <time>2020-02-08T10:46:48Z</time>
      </trkpt>
      <trkpt lat="45.29125" lon="5.7481">
        <ele>1599.2</ele>
        <time>2020-02-08T10:46:49Z</time>
      </trkpt>
      <trkpt lat="45.29126" lon="5.74809">
        <ele>1599.4</ele>
        <time>2020-02-08T10:46:50Z</time>
      </trkpt>
      <trkpt lat="45.29126" lon="5.74808">
        <ele>1600</ele>
        <time>2020-02-08T10:46:51Z</time>
      </trkpt>
      <trkpt lat="45.29127" lon="5.74808">
        <ele>1600</ele>
        <time>2020-02-08T10:46:52Z</time>
      </trkpt>
      <trkpt lat="45.29127" lon="5.74807">
        <ele>1600.6</ele>
        <time>2020-02-08T10:46:53Z</time>
      </trkpt>
      <trkpt lat="45.29128" lon="5.74806">
        <ele>1600.6</ele>
        <time>2020-02-08T10:46:54Z</time>
      </trkpt>
      <trkpt lat="45.29128" lon="5.74806">
        <ele>1601</ele>
        <time>2020-02-08T10:46:55Z</time>
      </trkpt>
      <trkpt lat="45.29129" lon="5.74805">
        <ele>1601.4</ele>
        <time>2020-02-08T10:46:56Z</time>
      </trkpt>
      <trkpt lat="45.29129" lon="5.74804">
        <ele>1601.4</ele>
        <time>2020-02-08T10:46:57Z</time>
      </trkpt>
      <trkpt lat="45.29129" lon="5.74804">
        <ele>1601.4</ele>
        <time>2020-02-08T10:46:58Z</time>
      </trkpt>
      <trkpt lat="45.2913" lon="5.74803">
        <ele>1601.8</ele>
        <time>2020-02-08T10:46:59Z</time>
      </trkpt>
      <trkpt lat="45.2913" lon="5.74802">
        <ele>1602</ele>
        <time>2020-02-08T10:47:00Z</time>
      </trkpt>
      <trkpt lat="45.29131" lon="5.74801">
        <ele>1602</ele>
        <time>2020-02-08T10:47:01Z</time>
      </trkpt>
      <trkpt lat="45.29131" lon="5.74801">
        <ele>1602.4</ele>
        <time>2020-02-08T10:47:02Z</time>
      </trkpt>
      <trkpt lat="45.29132" lon="5.748">
        <ele>1602.8</ele>
        <time>2020-02-08T10:47:03Z</time>
      </trkpt>
      <trkpt lat="45.29132" lon="5.74799">
        <ele>1603</ele>
        <time>2020-02-08T10:47:04Z</time>
      </trkpt>
      <trkpt lat="45.29132" lon="5.74798">
        <ele>1603</ele>
        <time>2020-02-08T10:47:05Z</time>
      </trkpt>
      <trkpt lat="45.29133" lon="5.74797">
        <ele>1603</ele>
        <time>2020-02-08T10:47:06Z</time>
      </trkpt>
      <trkpt lat="45.29133" lon="5.74796">
        <ele>1603</ele>
        <time>2020-02-08T10:47:07Z</time>
      </trkpt>
      <trkpt lat="45.29134" lon="5.74795">
        <ele>1603</ele>
        <time>2020-02-08T10:47:08Z</time>
      </trkpt>
      <trkpt lat="45.29134" lon="5.74794">
        <ele>1603.6</ele>
        <time>2020-02-08T10:47:09Z</time>
      </trkpt>
      <trkpt lat="45.29134" lon="5.74793">
        <ele>1603.6</ele>
        <time>2020-02-08T10:47:10Z</time>
      </trkpt>
      <trkpt lat="45.29135" lon="5.74792">
        <ele>1604.2</ele>
        <time>2020-02-08T10:47:11Z</time>
      </trkpt>
      <trkpt lat="45.29135" lon="5.74791">
        <ele>1604.8</ele>
        <time>2020-02-08T10:47:12Z</time>
      </trkpt>
      <trkpt lat="45.29135" lon="5.7479">
        <ele>1605.2</ele>
        <time>2020-02-08T10:47:13Z</time>
      </trkpt>
      <trkpt lat="45.29136" lon="5.74789">
        <ele>1605.8</ele>
        <time>2020-02-08T10:47:14Z</time>
      </trkpt>
      <trkpt lat="45.29136" lon="5.74788">
        <ele>1605.8</ele>
        <time>2020-02-08T10:47:15Z</time>
      </trkpt>
      <trkpt lat="45.29136" lon="5.74788">
        <ele>1606.2</ele>
        <time>2020-02-08T10:47:16Z</time>
      </trkpt>
      <trkpt lat="45.29137" lon="5.74788">
        <ele>1606</ele>
        <time>2020-02-08T10:47:17Z</time>
      </trkpt>
      <trkpt lat="45.29137" lon="5.74787">
        <ele>1606.4</ele>
        <time>2020-02-08T10:47:18Z</time>
      </trkpt>
      <trkpt lat="45.29137" lon="5.74787">
        <ele>1606.2</ele>
        <time>2020-02-08T10:47:19Z</time>
      </trkpt>
      <trkpt lat="45.29137" lon="5.74786">
        <ele>1606.4</ele>
        <time>2020-02-08T10:47:20Z</time>
      </trkpt>
      <trkpt lat="45.29137" lon="5.74786">
        <ele>1606.8</ele>
        <time>2020-02-08T10:47:21Z</time>
      </trkpt>
      <trkpt lat="45.29138" lon="5.74785">
        <ele>1607.2</ele>
        <time>2020-02-08T10:47:22Z</time>
      </trkpt>
      <trkpt lat="45.29138" lon="5.74785">
        <ele>1607.8</ele>
        <time>2020-02-08T10:47:23Z</time>
      </trkpt>
      <trkpt lat="45.29138" lon="5.74785">
        <ele>1607.6</ele>
        <time>2020-02-08T10:47:24Z</time>
      </trkpt>
      <trkpt lat="45.29138" lon="5.74784">
        <ele>1607.8</ele>
        <time>2020-02-08T10:47:25Z</time>
      </trkpt>
      <trkpt lat="45.29139" lon="5.74784">
        <ele>1608.2</ele>
        <time>2020-02-08T10:47:26Z</time>
      </trkpt>
      <trkpt lat="45.29139" lon="5.74783">
        <ele>1608.4</ele>
        <time>2020-02-08T10:47:27Z</time>
      </trkpt>
      <trkpt lat="45.29139" lon="5.74783">
        <ele>1608.4</ele>
        <time>2020-02-08T10:47:28Z</time>
      </trkpt>
      <trkpt lat="45.29139" lon="5.74783">
        <ele>1608.6</ele>
        <time>2020-02-08T10:47:29Z</time>
      </trkpt>
      <trkpt lat="45.29139" lon="5.74782">
        <ele>1608.8</ele>
        <time>2020-02-08T10:47:30Z</time>
      </trkpt>
      <trkpt lat="45.2914" lon="5.74782">
        <ele>1609.6</ele>
        <time>2020-02-08T10:47:31Z</time>
      </trkpt>
      <trkpt lat="45.2914" lon="5.74781">
        <ele>1609.8</ele>
        <time>2020-02-08T10:47:32Z</time>
      </trkpt>
      <trkpt lat="45.2914" lon="5.74781">
        <ele>1610.2</ele>
        <time>2020-02-08T10:47:33Z</time>
      </trkpt>
      <trkpt lat="45.2914" lon="5.7478">
        <ele>1610.4</ele>
        <time>2020-02-08T10:47:34Z</time>
      </trkpt>
      <trkpt lat="45.29141" lon="5.7478">
        <ele>1611</ele>
        <time>2020-02-08T10:47:35Z</time>
      </trkpt>
      <trkpt lat="45.29141" lon="5.7478">
        <ele>1611.2</ele>
        <time>2020-02-08T10:47:36Z</time>
      </trkpt>
      <trkpt lat="45.29141" lon="5.74779">
        <ele>1611.2</ele>
        <time>2020-02-08T10:47:37Z</time>
      </trkpt>
      <trkpt lat="45.29141" lon="5.74779">
        <ele>1611.6</ele>
        <time>2020-02-08T10:47:38Z</time>
      </trkpt>
      <trkpt lat="45.29141" lon="5.74778">
        <ele>1611.6</ele>
        <time>2020-02-08T10:47:39Z</time>
      </trkpt>
      <trkpt lat="45.29141" lon="5.74777">
        <ele>1611.4</ele>
        <time>2020-02-08T10:47:40Z</time>
      </trkpt>
      <trkpt lat="45.29141" lon="5.74777">
        <ele>1611.6</ele>
        <time>2020-02-08T10:47:41Z</time>
      </trkpt>
      <trkpt lat="45.2914" lon="5.74776">
        <ele>1611.6</ele>
        <time>2020-02-08T10:47:42Z</time>
      </trkpt>
      <trkpt lat="45.2914" lon="5.74775">
        <ele>1611.8</ele>
        <time>2020-02-08T10:47:43Z</time>
      </trkpt>
      <trkpt lat="45.2914" lon="5.74774">
        <ele>1612</ele>
        <time>2020-02-08T10:47:44Z</time>
      </trkpt>
      <trkpt lat="45.29139" lon="5.74773">
        <ele>1612.4</ele>
        <time>2020-02-08T10:47:45Z</time>
      </trkpt>
      <trkpt lat="45.29139" lon="5.74772">
        <ele>1612.8</ele>
        <time>2020-02-08T10:47:46Z</time>
      </trkpt>
      <trkpt lat="45.29139" lon="5.74771">
        <ele>1613</ele>
        <time>2020-02-08T10:47:47Z</time>
      </trkpt>
      <trkpt lat="45.29138" lon="5.7477">
        <ele>1613.2</ele>
        <time>2020-02-08T10:47:48Z</time>
      </trkpt>
      <trkpt lat="45.29138" lon="5.74769">
        <ele>1613</ele>
        <time>2020-02-08T10:47:49Z</time>
      </trkpt>
      <trkpt lat="45.29138" lon="5.74769">
        <ele>1613</ele>
        <time>2020-02-08T10:47:50Z</time>
      </trkpt>
      <trkpt lat="45.29137" lon="5.74768">
        <ele>1613</ele>
        <time>2020-02-08T10:47:51Z</time>
      </trkpt>
      <trkpt lat="45.29137" lon="5.74767">
        <ele>1613.4</ele>
        <time>2020-02-08T10:47:52Z</time>
      </trkpt>
      <trkpt lat="45.29139" lon="5.74763">
        <ele>1613.6</ele>
        <time>2020-02-08T10:47:53Z</time>
      </trkpt>
      <trkpt lat="45.29139" lon="5.74763">
        <ele>1613.8</ele>
        <time>2020-02-08T10:47:54Z</time>
      </trkpt>
      <trkpt lat="45.29139" lon="5.74763">
        <ele>1614.2</ele>
        <time>2020-02-08T10:47:55Z</time>
      </trkpt>
      <trkpt lat="45.29141" lon="5.74762">
        <ele>1614.6</ele>
        <time>2020-02-08T10:47:56Z</time>
      </trkpt>
      <trkpt lat="45.29141" lon="5.74762">
        <ele>1615</ele>
        <time>2020-02-08T10:47:57Z</time>
      </trkpt>
      <trkpt lat="45.29141" lon="5.74762">
        <ele>1614.8</ele>
        <time>2020-02-08T10:47:58Z</time>
      </trkpt>
      <trkpt lat="45.29142" lon="5.7476">
        <ele>1615.6</ele>
        <time>2020-02-08T10:47:59Z</time>
      </trkpt>
      <trkpt lat="45.29142" lon="5.74759">
        <ele>1616</ele>
        <time>2020-02-08T10:48:00Z</time>
      </trkpt>
      <trkpt lat="45.29143" lon="5.74758">
        <ele>1615.8</ele>
        <time>2020-02-08T10:48:01Z</time>
      </trkpt>
      <trkpt lat="45.29143" lon="5.74757">
        <ele>1616.2</ele>
        <time>2020-02-08T10:48:02Z</time>
      </trkpt>
      <trkpt lat="45.29144" lon="5.74756">
        <ele>1616</ele>
        <time>2020-02-08T10:48:03Z</time>
      </trkpt>
      <trkpt lat="45.29144" lon="5.74755">
        <ele>1616.6</ele>
        <time>2020-02-08T10:48:04Z</time>
      </trkpt>
      <trkpt lat="45.29144" lon="5.74754">
        <ele>1616.6</ele>
        <time>2020-02-08T10:48:05Z</time>
      </trkpt>
      <trkpt lat="45.29145" lon="5.74752">
        <ele>1616.8</ele>
        <time>2020-02-08T10:48:06Z</time>
      </trkpt>
      <trkpt lat="45.29145" lon="5.74751">
        <ele>1617.2</ele>
        <time>2020-02-08T10:48:07Z</time>
      </trkpt>
      <trkpt lat="45.29146" lon="5.7475">
        <ele>1617.4</ele>
        <time>2020-02-08T10:48:08Z</time>
      </trkpt>
      <trkpt lat="45.29146" lon="5.7475">
        <ele>1617</ele>
        <time>2020-02-08T10:48:09Z</time>
      </trkpt>
      <trkpt lat="45.29146" lon="5.74749">
        <ele>1617.6</ele>
        <time>2020-02-08T10:48:10Z</time>
      </trkpt>
      <trkpt lat="45.29146" lon="5.74749">
        <ele>1618</ele>
        <time>2020-02-08T10:48:11Z</time>
      </trkpt>
      <trkpt lat="45.29146" lon="5.74749">
        <ele>1618</ele>
        <time>2020-02-08T10:48:12Z</time>
      </trkpt>
      <trkpt lat="45.29146" lon="5.74748">
        <ele>1618.2</ele>
        <time>2020-02-08T10:48:13Z</time>
      </trkpt>
      <trkpt lat="45.29146" lon="5.74748">
        <ele>1618</ele>
        <time>2020-02-08T10:48:14Z</time>
      </trkpt>
      <trkpt lat="45.29147" lon="5.74747">
        <ele>1618.4</ele>
        <time>2020-02-08T10:48:15Z</time>
      </trkpt>
      <trkpt lat="45.29147" lon="5.74747">
        <ele>1618.8</ele>
        <time>2020-02-08T10:48:16Z</time>
      </trkpt>
      <trkpt lat="45.29147" lon="5.74747">
        <ele>1618.8</ele>
        <time>2020-02-08T10:48:17Z</time>
      </trkpt>
      <trkpt lat="45.29147" lon="5.74746">
        <ele>1619.2</ele>
        <time>2020-02-08T10:48:18Z</time>
      </trkpt>
      <trkpt lat="45.29147" lon="5.74746">
        <ele>1619.4</ele>
        <time>2020-02-08T10:48:19Z</time>
      </trkpt>
      <trkpt lat="45.29147" lon="5.74745">
        <ele>1619.6</ele>
        <time>2020-02-08T10:48:20Z</time>
      </trkpt>
      <trkpt lat="45.29147" lon="5.74745">
        <ele>1619.6</ele>
        <time>2020-02-08T10:48:21Z</time>
      </trkpt>
      <trkpt lat="45.29147" lon="5.74745">
        <ele>1620.2</ele>
        <time>2020-02-08T10:48:22Z</time>
      </trkpt>
      <trkpt lat="45.29147" lon="5.74744">
        <ele>1620.6</ele>
        <time>2020-02-08T10:48:23Z</time>
      </trkpt>
      <trkpt lat="45.29147" lon="5.74744">
        <ele>1620.6</ele>
        <time>2020-02-08T10:48:24Z</time>
      </trkpt>
      <trkpt lat="45.29147" lon="5.74744">
        <ele>1620.2</ele>
        <time>2020-02-08T10:48:25Z</time>
      </trkpt>
      <trkpt lat="45.29147" lon="5.74743">
        <ele>1620.6</ele>
        <time>2020-02-08T10:48:26Z</time>
      </trkpt>
      <trkpt lat="45.29148" lon="5.74743">
        <ele>1621.2</ele>
        <time>2020-02-08T10:48:27Z</time>
      </trkpt>
      <trkpt lat="45.29148" lon="5.74742">
        <ele>1621.6</ele>
        <time>2020-02-08T10:48:28Z</time>
      </trkpt>
      <trkpt lat="45.29148" lon="5.74742">
        <ele>1621.8</ele>
        <time>2020-02-08T10:48:29Z</time>
      </trkpt>
      <trkpt lat="45.29148" lon="5.74742">
        <ele>1622</ele>
        <time>2020-02-08T10:48:30Z</time>
      </trkpt>
      <trkpt lat="45.29148" lon="5.74741">
        <ele>1622.6</ele>
        <time>2020-02-08T10:48:31Z</time>
      </trkpt>
      <trkpt lat="45.29148" lon="5.74741">
        <ele>1622.6</ele>
        <time>2020-02-08T10:48:32Z</time>
      </trkpt>
      <trkpt lat="45.29148" lon="5.74741">
        <ele>1623.2</ele>
        <time>2020-02-08T10:48:33Z</time>
      </trkpt>
      <trkpt lat="45.29148" lon="5.7474">
        <ele>1623.4</ele>
        <time>2020-02-08T10:48:34Z</time>
      </trkpt>
      <trkpt lat="45.29148" lon="5.7474">
        <ele>1623.2</ele>
        <time>2020-02-08T10:48:35Z</time>
      </trkpt>
      <trkpt lat="45.29148" lon="5.74739">
        <ele>1623.2</ele>
        <time>2020-02-08T10:48:36Z</time>
      </trkpt>
      <trkpt lat="45.29148" lon="5.74739">
        <ele>1623.8</ele>
        <time>2020-02-08T10:48:37Z</time>
      </trkpt>
      <trkpt lat="45.29148" lon="5.74739">
        <ele>1624</ele>
        <time>2020-02-08T10:48:38Z</time>
      </trkpt>
      <trkpt lat="45.29149" lon="5.74738">
        <ele>1624.4</ele>
        <time>2020-02-08T10:48:39Z</time>
      </trkpt>
      <trkpt lat="45.29149" lon="5.74738">
        <ele>1625</ele>
        <time>2020-02-08T10:48:40Z</time>
      </trkpt>
      <trkpt lat="45.29149" lon="5.74737">
        <ele>1625.4</ele>
        <time>2020-02-08T10:48:41Z</time>
      </trkpt>
      <trkpt lat="45.29149" lon="5.74737">
        <ele>1625.6</ele>
        <time>2020-02-08T10:48:42Z</time>
      </trkpt>
      <trkpt lat="45.29149" lon="5.74737">
        <ele>1626</ele>
        <time>2020-02-08T10:48:43Z</time>
      </trkpt>
      <trkpt lat="45.29149" lon="5.74736">
        <ele>1626</ele>
        <time>2020-02-08T10:48:44Z</time>
      </trkpt>
      <trkpt lat="45.29149" lon="5.74736">
        <ele>1626.4</ele>
        <time>2020-02-08T10:48:45Z</time>
      </trkpt>
      <trkpt lat="45.29149" lon="5.74735">
        <ele>1626.8</ele>
        <time>2020-02-08T10:48:46Z</time>
      </trkpt>
      <trkpt lat="45.2915" lon="5.74735">
        <ele>1627.4</ele>
        <time>2020-02-08T10:48:47Z</time>
      </trkpt>
      <trkpt lat="45.2915" lon="5.74734">
        <ele>1627.4</ele>
        <time>2020-02-08T10:48:48Z</time>
      </trkpt>
      <trkpt lat="45.2915" lon="5.74734">
        <ele>1627.4</ele>
        <time>2020-02-08T10:48:49Z</time>
      </trkpt>
      <trkpt lat="45.2915" lon="5.74734">
        <ele>1627.4</ele>
        <time>2020-02-08T10:48:50Z</time>
      </trkpt>
      <trkpt lat="45.2915" lon="5.74733">
        <ele>1627.2</ele>
        <time>2020-02-08T10:48:51Z</time>
      </trkpt>
      <trkpt lat="45.2915" lon="5.74733">
        <ele>1627</ele>
        <time>2020-02-08T10:48:52Z</time>
      </trkpt>
      <trkpt lat="45.2915" lon="5.74732">
        <ele>1627.4</ele>
        <time>2020-02-08T10:48:53Z</time>
      </trkpt>
      <trkpt lat="45.2915" lon="5.74732">
        <ele>1627.2</ele>
        <time>2020-02-08T10:48:54Z</time>
      </trkpt>
      <trkpt lat="45.29151" lon="5.74732">
        <ele>1627.4</ele>
        <time>2020-02-08T10:48:55Z</time>
      </trkpt>
      <trkpt lat="45.29151" lon="5.74731">
        <ele>1627.6</ele>
        <time>2020-02-08T10:48:56Z</time>
      </trkpt>
      <trkpt lat="45.29151" lon="5.74731">
        <ele>1628</ele>
        <time>2020-02-08T10:48:57Z</time>
      </trkpt>
      <trkpt lat="45.29151" lon="5.7473">
        <ele>1628</ele>
        <time>2020-02-08T10:48:58Z</time>
      </trkpt>
      <trkpt lat="45.29151" lon="5.7473">
        <ele>1628.4</ele>
        <time>2020-02-08T10:48:59Z</time>
      </trkpt>
      <trkpt lat="45.29151" lon="5.74729">
        <ele>1628.8</ele>
        <time>2020-02-08T10:49:00Z</time>
      </trkpt>
      <trkpt lat="45.29151" lon="5.74729">
        <ele>1628.6</ele>
        <time>2020-02-08T10:49:01Z</time>
      </trkpt>
      <trkpt lat="45.29151" lon="5.74729">
        <ele>1628.8</ele>
        <time>2020-02-08T10:49:02Z</time>
      </trkpt>
      <trkpt lat="45.29152" lon="5.74728">
        <ele>1629.2</ele>
        <time>2020-02-08T10:49:03Z</time>
      </trkpt>
      <trkpt lat="45.29152" lon="5.74728">
        <ele>1629.8</ele>
        <time>2020-02-08T10:49:04Z</time>
      </trkpt>
      <trkpt lat="45.29152" lon="5.74727">
        <ele>1630.2</ele>
        <time>2020-02-08T10:49:05Z</time>
      </trkpt>
      <trkpt lat="45.29152" lon="5.74727">
        <ele>1630.2</ele>
        <time>2020-02-08T10:49:06Z</time>
      </trkpt>
      <trkpt lat="45.29152" lon="5.74726">
        <ele>1630.6</ele>
        <time>2020-02-08T10:49:07Z</time>
      </trkpt>
      <trkpt lat="45.29152" lon="5.74725">
        <ele>1630.6</ele>
        <time>2020-02-08T10:49:08Z</time>
      </trkpt>
      <trkpt lat="45.29152" lon="5.74724">
        <ele>1631</ele>
        <time>2020-02-08T10:49:09Z</time>
      </trkpt>
      <trkpt lat="45.29153" lon="5.74722">
        <ele>1631.4</ele>
        <time>2020-02-08T10:49:10Z</time>
      </trkpt>
      <trkpt lat="45.29153" lon="5.74721">
        <ele>1631.6</ele>
        <time>2020-02-08T10:49:11Z</time>
      </trkpt>
      <trkpt lat="45.29153" lon="5.7472">
        <ele>1631.6</ele>
        <time>2020-02-08T10:49:12Z</time>
      </trkpt>
      <trkpt lat="45.29153" lon="5.74719">
        <ele>1631.4</ele>
        <time>2020-02-08T10:49:13Z</time>
      </trkpt>
      <trkpt lat="45.29153" lon="5.74718">
        <ele>1631.8</ele>
        <time>2020-02-08T10:49:14Z</time>
      </trkpt>
      <trkpt lat="45.29153" lon="5.74717">
        <ele>1632.2</ele>
        <time>2020-02-08T10:49:15Z</time>
      </trkpt>
      <trkpt lat="45.29153" lon="5.74715">
        <ele>1632.2</ele>
        <time>2020-02-08T10:49:16Z</time>
      </trkpt>
      <trkpt lat="45.29154" lon="5.74714">
        <ele>1632.6</ele>
        <time>2020-02-08T10:49:17Z</time>
      </trkpt>
      <trkpt lat="45.29154" lon="5.74713">
        <ele>1633.2</ele>
        <time>2020-02-08T10:49:18Z</time>
      </trkpt>
      <trkpt lat="45.29155" lon="5.74712">
        <ele>1633</ele>
        <time>2020-02-08T10:49:19Z</time>
      </trkpt>
      <trkpt lat="45.29155" lon="5.7471">
        <ele>1633.4</ele>
        <time>2020-02-08T10:49:20Z</time>
      </trkpt>
      <trkpt lat="45.29156" lon="5.74709">
        <ele>1633.4</ele>
        <time>2020-02-08T10:49:21Z</time>
      </trkpt>
      <trkpt lat="45.29157" lon="5.74708">
        <ele>1633.6</ele>
        <time>2020-02-08T10:49:22Z</time>
      </trkpt>
      <trkpt lat="45.29157" lon="5.74706">
        <ele>1634.4</ele>
        <time>2020-02-08T10:49:23Z</time>
      </trkpt>
      <trkpt lat="45.29158" lon="5.74705">
        <ele>1634.2</ele>
        <time>2020-02-08T10:49:24Z</time>
      </trkpt>
      <trkpt lat="45.29158" lon="5.74704">
        <ele>1634.6</ele>
        <time>2020-02-08T10:49:25Z</time>
      </trkpt>
      <trkpt lat="45.29159" lon="5.74703">
        <ele>1635</ele>
        <time>2020-02-08T10:49:26Z</time>
      </trkpt>
      <trkpt lat="45.2916" lon="5.74702">
        <ele>1635.4</ele>
        <time>2020-02-08T10:49:27Z</time>
      </trkpt>
      <trkpt lat="45.29161" lon="5.74701">
        <ele>1635.8</ele>
        <time>2020-02-08T10:49:28Z</time>
      </trkpt>
      <trkpt lat="45.29162" lon="5.747">
        <ele>1636</ele>
        <time>2020-02-08T10:49:29Z</time>
      </trkpt>
      <trkpt lat="45.29164" lon="5.74699">
        <ele>1636</ele>
        <time>2020-02-08T10:49:30Z</time>
      </trkpt>
      <trkpt lat="45.29165" lon="5.74699">
        <ele>1636.4</ele>
        <time>2020-02-08T10:49:31Z</time>
      </trkpt>
      <trkpt lat="45.29166" lon="5.74698">
        <ele>1636.2</ele>
        <time>2020-02-08T10:49:32Z</time>
      </trkpt>
      <trkpt lat="45.29167" lon="5.74697">
        <ele>1636.6</ele>
        <time>2020-02-08T10:49:33Z</time>
      </trkpt>
      <trkpt lat="45.29167" lon="5.74697">
        <ele>1636.6</ele>
        <time>2020-02-08T10:49:34Z</time>
      </trkpt>
      <trkpt lat="45.29169" lon="5.74696">
        <ele>1636.2</ele>
        <time>2020-02-08T10:49:35Z</time>
      </trkpt>
      <trkpt lat="45.29169" lon="5.74696">
        <ele>1637</ele>
        <time>2020-02-08T10:49:36Z</time>
      </trkpt>
      <trkpt lat="45.29169" lon="5.74696">
        <ele>1636.8</ele>
        <time>2020-02-08T10:49:37Z</time>
      </trkpt>
      <trkpt lat="45.2917" lon="5.74694">
        <ele>1636.8</ele>
        <time>2020-02-08T10:49:38Z</time>
      </trkpt>
      <trkpt lat="45.29171" lon="5.74693">
        <ele>1637.2</ele>
        <time>2020-02-08T10:49:39Z</time>
      </trkpt>
      <trkpt lat="45.29173" lon="5.74691">
        <ele>1637.2</ele>
        <time>2020-02-08T10:49:40Z</time>
      </trkpt>
      <trkpt lat="45.29174" lon="5.7469">
        <ele>1637.2</ele>
        <time>2020-02-08T10:49:41Z</time>
      </trkpt>
      <trkpt lat="45.29175" lon="5.74688">
        <ele>1638</ele>
        <time>2020-02-08T10:49:42Z</time>
      </trkpt>
      <trkpt lat="45.29176" lon="5.74687">
        <ele>1638.2</ele>
        <time>2020-02-08T10:49:43Z</time>
      </trkpt>
      <trkpt lat="45.29176" lon="5.74687">
        <ele>1638.2</ele>
        <time>2020-02-08T10:49:44Z</time>
      </trkpt>
      <trkpt lat="45.29178" lon="5.74685">
        <ele>1638.6</ele>
        <time>2020-02-08T10:49:45Z</time>
      </trkpt>
      <trkpt lat="45.29178" lon="5.74685">
        <ele>1639</ele>
        <time>2020-02-08T10:49:46Z</time>
      </trkpt>
      <trkpt lat="45.29178" lon="5.74685">
        <ele>1639</ele>
        <time>2020-02-08T10:49:47Z</time>
      </trkpt>
      <trkpt lat="45.29178" lon="5.74684">
        <ele>1639.6</ele>
        <time>2020-02-08T10:49:48Z</time>
      </trkpt>
      <trkpt lat="45.29178" lon="5.74683">
        <ele>1639.8</ele>
        <time>2020-02-08T10:49:49Z</time>
      </trkpt>
      <trkpt lat="45.29179" lon="5.74682">
        <ele>1639.8</ele>
        <time>2020-02-08T10:49:50Z</time>
      </trkpt>
      <trkpt lat="45.29179" lon="5.74681">
        <ele>1640</ele>
        <time>2020-02-08T10:49:51Z</time>
      </trkpt>
      <trkpt lat="45.2918" lon="5.7468">
        <ele>1640.4</ele>
        <time>2020-02-08T10:49:52Z</time>
      </trkpt>
      <trkpt lat="45.2918" lon="5.74679">
        <ele>1640.4</ele>
        <time>2020-02-08T10:49:53Z</time>
      </trkpt>
      <trkpt lat="45.2918" lon="5.74678">
        <ele>1640.4</ele>
        <time>2020-02-08T10:49:54Z</time>
      </trkpt>
      <trkpt lat="45.2918" lon="5.74678">
        <ele>1640.2</ele>
        <time>2020-02-08T10:49:55Z</time>
      </trkpt>
      <trkpt lat="45.2918" lon="5.74675">
        <ele>1640.4</ele>
        <time>2020-02-08T10:49:56Z</time>
      </trkpt>
      <trkpt lat="45.2918" lon="5.74675">
        <ele>1640.8</ele>
        <time>2020-02-08T10:49:57Z</time>
      </trkpt>
      <trkpt lat="45.2918" lon="5.74675">
        <ele>1641.6</ele>
        <time>2020-02-08T10:49:58Z</time>
      </trkpt>
      <trkpt lat="45.2918" lon="5.74675">
        <ele>1641.8</ele>
        <time>2020-02-08T10:49:59Z</time>
      </trkpt>
      <trkpt lat="45.2918" lon="5.74675">
        <ele>1641.6</ele>
        <time>2020-02-08T10:50:00Z</time>
      </trkpt>
      <trkpt lat="45.29182" lon="5.74673">
        <ele>1641.6</ele>
        <time>2020-02-08T10:50:01Z</time>
      </trkpt>
      <trkpt lat="45.29182" lon="5.74673">
        <ele>1642.6</ele>
        <time>2020-02-08T10:50:02Z</time>
      </trkpt>
      <trkpt lat="45.29182" lon="5.74673">
        <ele>1642.6</ele>
        <time>2020-02-08T10:50:03Z</time>
      </trkpt>
      <trkpt lat="45.29183" lon="5.74671">
        <ele>1643</ele>
        <time>2020-02-08T10:50:04Z</time>
      </trkpt>
      <trkpt lat="45.29183" lon="5.74671">
        <ele>1643</ele>
        <time>2020-02-08T10:50:05Z</time>
      </trkpt>
      <trkpt lat="45.29185" lon="5.74669">
        <ele>1643.4</ele>
        <time>2020-02-08T10:50:06Z</time>
      </trkpt>
      <trkpt lat="45.29185" lon="5.74669">
        <ele>1644</ele>
        <time>2020-02-08T10:50:07Z</time>
      </trkpt>
      <trkpt lat="45.29185" lon="5.74669">
        <ele>1644.6</ele>
        <time>2020-02-08T10:50:08Z</time>
      </trkpt>
      <trkpt lat="45.29186" lon="5.74669">
        <ele>1645</ele>
        <time>2020-02-08T10:50:09Z</time>
      </trkpt>
      <trkpt lat="45.29186" lon="5.74668">
        <ele>1645</ele>
        <time>2020-02-08T10:50:10Z</time>
      </trkpt>
      <trkpt lat="45.29187" lon="5.74668">
        <ele>1645.6</ele>
        <time>2020-02-08T10:50:11Z</time>
      </trkpt>
      <trkpt lat="45.29187" lon="5.74667">
        <ele>1645.4</ele>
        <time>2020-02-08T10:50:12Z</time>
      </trkpt>
      <trkpt lat="45.29188" lon="5.74667">
        <ele>1646.2</ele>
        <time>2020-02-08T10:50:13Z</time>
      </trkpt>
      <trkpt lat="45.29188" lon="5.74667">
        <ele>1646.2</ele>
        <time>2020-02-08T10:50:14Z</time>
      </trkpt>
      <trkpt lat="45.29189" lon="5.74666">
        <ele>1646.2</ele>
        <time>2020-02-08T10:50:15Z</time>
      </trkpt>
      <trkpt lat="45.2919" lon="5.74666">
        <ele>1646.6</ele>
        <time>2020-02-08T10:50:16Z</time>
      </trkpt>
      <trkpt lat="45.2919" lon="5.74665">
        <ele>1646.8</ele>
        <time>2020-02-08T10:50:17Z</time>
      </trkpt>
      <trkpt lat="45.29191" lon="5.74665">
        <ele>1646.8</ele>
        <time>2020-02-08T10:50:18Z</time>
      </trkpt>
      <trkpt lat="45.29191" lon="5.74664">
        <ele>1647</ele>
        <time>2020-02-08T10:50:19Z</time>
      </trkpt>
      <trkpt lat="45.29191" lon="5.74663">
        <ele>1647.4</ele>
        <time>2020-02-08T10:50:20Z</time>
      </trkpt>
      <trkpt lat="45.29191" lon="5.74662">
        <ele>1647.6</ele>
        <time>2020-02-08T10:50:21Z</time>
      </trkpt>
      <trkpt lat="45.29191" lon="5.74661">
        <ele>1647.6</ele>
        <time>2020-02-08T10:50:22Z</time>
      </trkpt>
      <trkpt lat="45.29191" lon="5.74661">
        <ele>1647.8</ele>
        <time>2020-02-08T10:50:23Z</time>
      </trkpt>
      <trkpt lat="45.29191" lon="5.7466">
        <ele>1648</ele>
        <time>2020-02-08T10:50:24Z</time>
      </trkpt>
      <trkpt lat="45.29191" lon="5.74659">
        <ele>1648.4</ele>
        <time>2020-02-08T10:50:25Z</time>
      </trkpt>
      <trkpt lat="45.29192" lon="5.74658">
        <ele>1648.6</ele>
        <time>2020-02-08T10:50:26Z</time>
      </trkpt>
      <trkpt lat="45.29192" lon="5.74657">
        <ele>1648.8</ele>
        <time>2020-02-08T10:50:27Z</time>
      </trkpt>
      <trkpt lat="45.29192" lon="5.74657">
        <ele>1649</ele>
        <time>2020-02-08T10:50:28Z</time>
      </trkpt>
      <trkpt lat="45.29192" lon="5.74656">
        <ele>1649.2</ele>
        <time>2020-02-08T10:50:29Z</time>
      </trkpt>
      <trkpt lat="45.29192" lon="5.74655">
        <ele>1649.2</ele>
        <time>2020-02-08T10:50:30Z</time>
      </trkpt>
      <trkpt lat="45.29192" lon="5.74654">
        <ele>1649.6</ele>
        <time>2020-02-08T10:50:31Z</time>
      </trkpt>
      <trkpt lat="45.29192" lon="5.74653">
        <ele>1650</ele>
        <time>2020-02-08T10:50:32Z</time>
      </trkpt>
      <trkpt lat="45.29192" lon="5.74652">
        <ele>1650</ele>
        <time>2020-02-08T10:50:33Z</time>
      </trkpt>
      <trkpt lat="45.29192" lon="5.74652">
        <ele>1650</ele>
        <time>2020-02-08T10:50:34Z</time>
      </trkpt>
      <trkpt lat="45.29192" lon="5.74652">
        <ele>1650.6</ele>
        <time>2020-02-08T10:50:35Z</time>
      </trkpt>
      <trkpt lat="45.29194" lon="5.74648">
        <ele>1651</ele>
        <time>2020-02-08T10:50:36Z</time>
      </trkpt>
      <trkpt lat="45.29194" lon="5.74648">
        <ele>1651.4</ele>
        <time>2020-02-08T10:50:37Z</time>
      </trkpt>
      <trkpt lat="45.29194" lon="5.74648">
        <ele>1651.4</ele>
        <time>2020-02-08T10:50:38Z</time>
      </trkpt>
      <trkpt lat="45.29195" lon="5.74646">
        <ele>1651.6</ele>
        <time>2020-02-08T10:50:39Z</time>
      </trkpt>
      <trkpt lat="45.29195" lon="5.74646">
        <ele>1651.8</ele>
        <time>2020-02-08T10:50:40Z</time>
      </trkpt>
      <trkpt lat="45.29195" lon="5.74643">
        <ele>1652</ele>
        <time>2020-02-08T10:50:41Z</time>
      </trkpt>
      <trkpt lat="45.29195" lon="5.74643">
        <ele>1652.4</ele>
        <time>2020-02-08T10:50:42Z</time>
      </trkpt>
      <trkpt lat="45.29195" lon="5.74643">
        <ele>1652</ele>
        <time>2020-02-08T10:50:43Z</time>
      </trkpt>
      <trkpt lat="45.29196" lon="5.7464">
        <ele>1652.2</ele>
        <time>2020-02-08T10:50:44Z</time>
      </trkpt>
      <trkpt lat="45.29196" lon="5.7464">
        <ele>1653.2</ele>
        <time>2020-02-08T10:50:45Z</time>
      </trkpt>
      <trkpt lat="45.29196" lon="5.7464">
        <ele>1653.2</ele>
        <time>2020-02-08T10:50:46Z</time>
      </trkpt>
      <trkpt lat="45.29197" lon="5.74638">
        <ele>1653.4</ele>
        <time>2020-02-08T10:50:47Z</time>
      </trkpt>
      <trkpt lat="45.29197" lon="5.74637">
        <ele>1653.8</ele>
        <time>2020-02-08T10:50:48Z</time>
      </trkpt>
      <trkpt lat="45.29198" lon="5.74636">
        <ele>1653.6</ele>
        <time>2020-02-08T10:50:49Z</time>
      </trkpt>
      <trkpt lat="45.29199" lon="5.74634">
        <ele>1653.6</ele>
        <time>2020-02-08T10:50:50Z</time>
      </trkpt>
      <trkpt lat="45.292" lon="5.74633">
        <ele>1654</ele>
        <time>2020-02-08T10:50:51Z</time>
      </trkpt>
      <trkpt lat="45.292" lon="5.74631">
        <ele>1653.8</ele>
        <time>2020-02-08T10:50:52Z</time>
      </trkpt>
      <trkpt lat="45.29201" lon="5.7463">
        <ele>1653.8</ele>
        <time>2020-02-08T10:50:53Z</time>
      </trkpt>
      <trkpt lat="45.29201" lon="5.7463">
        <ele>1653.6</ele>
        <time>2020-02-08T10:50:54Z</time>
      </trkpt>
      <trkpt lat="45.29201" lon="5.7463">
        <ele>1654</ele>
        <time>2020-02-08T10:50:55Z</time>
      </trkpt>
      <trkpt lat="45.29201" lon="5.7463">
        <ele>1654.4</ele>
        <time>2020-02-08T10:50:56Z</time>
      </trkpt>
      <trkpt lat="45.29201" lon="5.7463">
        <ele>1654.4</ele>
        <time>2020-02-08T10:50:57Z</time>
      </trkpt>
      <trkpt lat="45.292" lon="5.74626">
        <ele>1654.8</ele>
        <time>2020-02-08T10:50:58Z</time>
      </trkpt>
      <trkpt lat="45.292" lon="5.74626">
        <ele>1654.8</ele>
        <time>2020-02-08T10:50:59Z</time>
      </trkpt>
      <trkpt lat="45.292" lon="5.74626">
        <ele>1655</ele>
        <time>2020-02-08T10:51:00Z</time>
      </trkpt>
      <trkpt lat="45.29201" lon="5.74626">
        <ele>1655</ele>
        <time>2020-02-08T10:51:01Z</time>
      </trkpt>
      <trkpt lat="45.29201" lon="5.74626">
        <ele>1655.2</ele>
        <time>2020-02-08T10:51:02Z</time>
      </trkpt>
      <trkpt lat="45.29202" lon="5.74626">
        <ele>1655</ele>
        <time>2020-02-08T10:51:03Z</time>
      </trkpt>
      <trkpt lat="45.29202" lon="5.74626">
        <ele>1655.2</ele>
        <time>2020-02-08T10:51:04Z</time>
      </trkpt>
      <trkpt lat="45.29203" lon="5.74626">
        <ele>1655</ele>
        <time>2020-02-08T10:51:05Z</time>
      </trkpt>
      <trkpt lat="45.29203" lon="5.74626">
        <ele>1655.2</ele>
        <time>2020-02-08T10:51:06Z</time>
      </trkpt>
      <trkpt lat="45.29204" lon="5.74626">
        <ele>1655.2</ele>
        <time>2020-02-08T10:51:07Z</time>
      </trkpt>
      <trkpt lat="45.29204" lon="5.74626">
        <ele>1655.2</ele>
        <time>2020-02-08T10:51:08Z</time>
      </trkpt>
      <trkpt lat="45.29205" lon="5.74626">
        <ele>1655.2</ele>
        <time>2020-02-08T10:51:09Z</time>
      </trkpt>
      <trkpt lat="45.29205" lon="5.74626">
        <ele>1655.2</ele>
        <time>2020-02-08T10:51:10Z</time>
      </trkpt>
      <trkpt lat="45.29206" lon="5.74626">
        <ele>1655.6</ele>
        <time>2020-02-08T10:51:11Z</time>
      </trkpt>
      <trkpt lat="45.29206" lon="5.74626">
        <ele>1656</ele>
        <time>2020-02-08T10:51:12Z</time>
      </trkpt>
      <trkpt lat="45.29207" lon="5.74626">
        <ele>1656</ele>
        <time>2020-02-08T10:51:13Z</time>
      </trkpt>
      <trkpt lat="45.29207" lon="5.74626">
        <ele>1656</ele>
        <time>2020-02-08T10:51:14Z</time>
      </trkpt>
      <trkpt lat="45.29208" lon="5.74626">
        <ele>1656.4</ele>
        <time>2020-02-08T10:51:15Z</time>
      </trkpt>
      <trkpt lat="45.29208" lon="5.74626">
        <ele>1656.4</ele>
        <time>2020-02-08T10:51:16Z</time>
      </trkpt>
      <trkpt lat="45.29209" lon="5.74626">
        <ele>1656.4</ele>
        <time>2020-02-08T10:51:17Z</time>
      </trkpt>
      <trkpt lat="45.29209" lon="5.74626">
        <ele>1656.8</ele>
        <time>2020-02-08T10:51:18Z</time>
      </trkpt>
      <trkpt lat="45.2921" lon="5.74626">
        <ele>1657</ele>
        <time>2020-02-08T10:51:19Z</time>
      </trkpt>
      <trkpt lat="45.29211" lon="5.74626">
        <ele>1657.4</ele>
        <time>2020-02-08T10:51:20Z</time>
      </trkpt>
      <trkpt lat="45.29213" lon="5.74626">
        <ele>1657.6</ele>
        <time>2020-02-08T10:51:21Z</time>
      </trkpt>
      <trkpt lat="45.29214" lon="5.74626">
        <ele>1657.8</ele>
        <time>2020-02-08T10:51:22Z</time>
      </trkpt>
      <trkpt lat="45.29215" lon="5.74625">
        <ele>1658.4</ele>
        <time>2020-02-08T10:51:23Z</time>
      </trkpt>
      <trkpt lat="45.29216" lon="5.74625">
        <ele>1658.4</ele>
        <time>2020-02-08T10:51:24Z</time>
      </trkpt>
      <trkpt lat="45.29218" lon="5.74627">
        <ele>1658.2</ele>
        <time>2020-02-08T10:51:25Z</time>
      </trkpt>
      <trkpt lat="45.29218" lon="5.74627">
        <ele>1658</ele>
        <time>2020-02-08T10:51:26Z</time>
      </trkpt>
      <trkpt lat="45.29218" lon="5.74627">
        <ele>1658</ele>
        <time>2020-02-08T10:51:27Z</time>
      </trkpt>
      <trkpt lat="45.29218" lon="5.74627">
        <ele>1658</ele>
        <time>2020-02-08T10:51:28Z</time>
      </trkpt>
      <trkpt lat="45.29218" lon="5.74627">
        <ele>1658.2</ele>
        <time>2020-02-08T10:51:29Z</time>
      </trkpt>
      <trkpt lat="45.2922" lon="5.74628">
        <ele>1658.4</ele>
        <time>2020-02-08T10:51:30Z</time>
      </trkpt>
      <trkpt lat="45.2922" lon="5.74628">
        <ele>1658.2</ele>
        <time>2020-02-08T10:51:31Z</time>
      </trkpt>
      <trkpt lat="45.2922" lon="5.74628">
        <ele>1658.4</ele>
        <time>2020-02-08T10:51:32Z</time>
      </trkpt>
      <trkpt lat="45.2922" lon="5.74628">
        <ele>1658</ele>
        <time>2020-02-08T10:51:33Z</time>
      </trkpt>
      <trkpt lat="45.2922" lon="5.74628">
        <ele>1657.8</ele>
        <time>2020-02-08T10:51:34Z</time>
      </trkpt>
      <trkpt lat="45.2922" lon="5.74628">
        <ele>1657.4</ele>
        <time>2020-02-08T10:51:35Z</time>
      </trkpt>
      <trkpt lat="45.2922" lon="5.74628">
        <ele>1657</ele>
        <time>2020-02-08T10:51:36Z</time>
      </trkpt>
      <trkpt lat="45.2922" lon="5.74628">
        <ele>1656.8</ele>
        <time>2020-02-08T10:51:37Z</time>
      </trkpt>
      <trkpt lat="45.2922" lon="5.74628">
        <ele>1656.8</ele>
        <time>2020-02-08T10:51:38Z</time>
      </trkpt>
      <trkpt lat="45.2922" lon="5.74628">
        <ele>1657</ele>
        <time>2020-02-08T10:51:39Z</time>
      </trkpt>
      <trkpt lat="45.2922" lon="5.74628">
        <ele>1657.4</ele>
        <time>2020-02-08T10:51:40Z</time>
      </trkpt>
      <trkpt lat="45.2922" lon="5.74628">
        <ele>1657.6</ele>
        <time>2020-02-08T10:51:41Z</time>
      </trkpt>
      <trkpt lat="45.2922" lon="5.74628">
        <ele>1657.2</ele>
        <time>2020-02-08T10:51:42Z</time>
      </trkpt>
      <trkpt lat="45.2922" lon="5.74628">
        <ele>1657.2</ele>
        <time>2020-02-08T10:51:43Z</time>
      </trkpt>
      <trkpt lat="45.2922" lon="5.74628">
        <ele>1657.6</ele>
        <time>2020-02-08T10:51:44Z</time>
      </trkpt>
      <trkpt lat="45.2922" lon="5.74628">
        <ele>1657.6</ele>
        <time>2020-02-08T10:51:45Z</time>
      </trkpt>
      <trkpt lat="45.2922" lon="5.74628">
        <ele>1658</ele>
        <time>2020-02-08T10:51:46Z</time>
      </trkpt>
      <trkpt lat="45.2922" lon="5.74628">
        <ele>1658</ele>
        <time>2020-02-08T10:51:47Z</time>
      </trkpt>
      <trkpt lat="45.2922" lon="5.74628">
        <ele>1657.4</ele>
        <time>2020-02-08T10:51:48Z</time>
      </trkpt>
      <trkpt lat="45.29219" lon="5.74625">
        <ele>1657.2</ele>
        <time>2020-02-08T10:51:49Z</time>
      </trkpt>
      <trkpt lat="45.29219" lon="5.74625">
        <ele>1657.2</ele>
        <time>2020-02-08T10:51:50Z</time>
      </trkpt>
      <trkpt lat="45.29219" lon="5.74625">
        <ele>1657</ele>
        <time>2020-02-08T10:51:51Z</time>
      </trkpt>
      <trkpt lat="45.29219" lon="5.74625">
        <ele>1657.2</ele>
        <time>2020-02-08T10:51:52Z</time>
      </trkpt>
      <trkpt lat="45.29219" lon="5.74625">
        <ele>1657.6</ele>
        <time>2020-02-08T10:51:53Z</time>
      </trkpt>
      <trkpt lat="45.29219" lon="5.74625">
        <ele>1657.4</ele>
        <time>2020-02-08T10:51:54Z</time>
      </trkpt>
      <trkpt lat="45.29219" lon="5.74625">
        <ele>1657.6</ele>
        <time>2020-02-08T10:51:55Z</time>
      </trkpt>
      <trkpt lat="45.29219" lon="5.74625">
        <ele>1658</ele>
        <time>2020-02-08T10:51:56Z</time>
      </trkpt>
      <trkpt lat="45.29219" lon="5.74625">
        <ele>1658</ele>
        <time>2020-02-08T10:51:57Z</time>
      </trkpt>
      <trkpt lat="45.29219" lon="5.74625">
        <ele>1658.2</ele>
        <time>2020-02-08T10:51:58Z</time>
      </trkpt>
      <trkpt lat="45.29219" lon="5.74625">
        <ele>1658.2</ele>
        <time>2020-02-08T10:51:59Z</time>
      </trkpt>
      <trkpt lat="45.29219" lon="5.74625">
        <ele>1658.2</ele>
        <time>2020-02-08T10:52:00Z</time>
      </trkpt>
      <trkpt lat="45.29219" lon="5.74625">
        <ele>1658.2</ele>
        <time>2020-02-08T10:52:01Z</time>
      </trkpt>
      <trkpt lat="45.29219" lon="5.74625">
        <ele>1658.4</ele>
        <time>2020-02-08T10:52:02Z</time>
      </trkpt>
      <trkpt lat="45.29219" lon="5.74625">
        <ele>1658.6</ele>
        <time>2020-02-08T10:52:03Z</time>
      </trkpt>
      <trkpt lat="45.29219" lon="5.74625">
        <ele>1658.6</ele>
        <time>2020-02-08T10:52:04Z</time>
      </trkpt>
      <trkpt lat="45.29219" lon="5.74625">
        <ele>1658.2</ele>
        <time>2020-02-08T10:52:05Z</time>
      </trkpt>
      <trkpt lat="45.29219" lon="5.74625">
        <ele>1657.8</ele>
        <time>2020-02-08T10:52:06Z</time>
      </trkpt>
      <trkpt lat="45.29219" lon="5.74628">
        <ele>1658.2</ele>
        <time>2020-02-08T10:52:07Z</time>
      </trkpt>
      <trkpt lat="45.29219" lon="5.74628">
        <ele>1658.2</ele>
        <time>2020-02-08T10:52:08Z</time>
      </trkpt>
      <trkpt lat="45.29219" lon="5.74628">
        <ele>1658</ele>
        <time>2020-02-08T10:52:09Z</time>
      </trkpt>
      <trkpt lat="45.29219" lon="5.74628">
        <ele>1658</ele>
        <time>2020-02-08T10:52:10Z</time>
      </trkpt>
      <trkpt lat="45.29218" lon="5.7463">
        <ele>1658</ele>
        <time>2020-02-08T10:52:11Z</time>
      </trkpt>
      <trkpt lat="45.29218" lon="5.7463">
        <ele>1657.8</ele>
        <time>2020-02-08T10:52:12Z</time>
      </trkpt>
      <trkpt lat="45.29218" lon="5.7463">
        <ele>1658.2</ele>
        <time>2020-02-08T10:52:13Z</time>
      </trkpt>
      <trkpt lat="45.29218" lon="5.7463">
        <ele>1658.4</ele>
        <time>2020-02-08T10:52:14Z</time>
      </trkpt>
      <trkpt lat="45.29218" lon="5.7463">
        <ele>1658.8</ele>
        <time>2020-02-08T10:52:15Z</time>
      </trkpt>
      <trkpt lat="45.29218" lon="5.7463">
        <ele>1658.6</ele>
        <time>2020-02-08T10:52:16Z</time>
      </trkpt>
      <trkpt lat="45.29218" lon="5.7463">
        <ele>1659.2</ele>
        <time>2020-02-08T10:52:17Z</time>
      </trkpt>
      <trkpt lat="45.29218" lon="5.7463">
        <ele>1659.6</ele>
        <time>2020-02-08T10:52:18Z</time>
      </trkpt>
      <trkpt lat="45.2922" lon="5.74628">
        <ele>1659.8</ele>
        <time>2020-02-08T10:52:19Z</time>
      </trkpt>
      <trkpt lat="45.2922" lon="5.74628">
        <ele>1659.8</ele>
        <time>2020-02-08T10:52:20Z</time>
      </trkpt>
      <trkpt lat="45.2922" lon="5.74628">
        <ele>1659.8</ele>
        <time>2020-02-08T10:52:21Z</time>
      </trkpt>
      <trkpt lat="45.2922" lon="5.74628">
        <ele>1660.2</ele>
        <time>2020-02-08T10:52:22Z</time>
      </trkpt>
      <trkpt lat="45.2922" lon="5.74628">
        <ele>1659.8</ele>
        <time>2020-02-08T10:52:23Z</time>
      </trkpt>
      <trkpt lat="45.2922" lon="5.74628">
        <ele>1659.4</ele>
        <time>2020-02-08T10:52:24Z</time>
      </trkpt>
      <trkpt lat="45.2922" lon="5.74628">
        <ele>1659.4</ele>
        <time>2020-02-08T10:52:25Z</time>
      </trkpt>
      <trkpt lat="45.2922" lon="5.74628">
        <ele>1659.6</ele>
        <time>2020-02-08T10:52:26Z</time>
      </trkpt>
      <trkpt lat="45.2922" lon="5.74628">
        <ele>1659.4</ele>
        <time>2020-02-08T10:52:27Z</time>
      </trkpt>
      <trkpt lat="45.2922" lon="5.74628">
        <ele>1659.4</ele>
        <time>2020-02-08T10:52:28Z</time>
      </trkpt>
      <trkpt lat="45.2922" lon="5.74628">
        <ele>1659</ele>
        <time>2020-02-08T10:52:29Z</time>
      </trkpt>
      <trkpt lat="45.2922" lon="5.74628">
        <ele>1659</ele>
        <time>2020-02-08T10:52:30Z</time>
      </trkpt>
      <trkpt lat="45.29222" lon="5.74627">
        <ele>1658.8</ele>
        <time>2020-02-08T10:52:31Z</time>
      </trkpt>
      <trkpt lat="45.29222" lon="5.74627">
        <ele>1658.8</ele>
        <time>2020-02-08T10:52:32Z</time>
      </trkpt>
      <trkpt lat="45.29222" lon="5.74627">
        <ele>1658.8</ele>
        <time>2020-02-08T10:52:33Z</time>
      </trkpt>
      <trkpt lat="45.29223" lon="5.74625">
        <ele>1658.8</ele>
        <time>2020-02-08T10:52:34Z</time>
      </trkpt>
      <trkpt lat="45.29223" lon="5.74625">
        <ele>1658.8</ele>
        <time>2020-02-08T10:52:35Z</time>
      </trkpt>
      <trkpt lat="45.29223" lon="5.74625">
        <ele>1658.8</ele>
        <time>2020-02-08T10:52:36Z</time>
      </trkpt>
      <trkpt lat="45.29223" lon="5.74625">
        <ele>1659</ele>
        <time>2020-02-08T10:52:37Z</time>
      </trkpt>
      <trkpt lat="45.29224" lon="5.74623">
        <ele>1659</ele>
        <time>2020-02-08T10:52:38Z</time>
      </trkpt>
      <trkpt lat="45.29224" lon="5.74623">
        <ele>1659.4</ele>
        <time>2020-02-08T10:52:39Z</time>
      </trkpt>
      <trkpt lat="45.29224" lon="5.74623">
        <ele>1659.6</ele>
        <time>2020-02-08T10:52:40Z</time>
      </trkpt>
      <trkpt lat="45.29224" lon="5.74623">
        <ele>1660.2</ele>
        <time>2020-02-08T10:52:41Z</time>
      </trkpt>
      <trkpt lat="45.29224" lon="5.74623">
        <ele>1660.6</ele>
        <time>2020-02-08T10:52:42Z</time>
      </trkpt>
      <trkpt lat="45.29224" lon="5.74623">
        <ele>1660.8</ele>
        <time>2020-02-08T10:52:43Z</time>
      </trkpt>
      <trkpt lat="45.29224" lon="5.74623">
        <ele>1660.6</ele>
        <time>2020-02-08T10:52:44Z</time>
      </trkpt>
      <trkpt lat="45.29224" lon="5.74623">
        <ele>1661.4</ele>
        <time>2020-02-08T10:52:45Z</time>
      </trkpt>
      <trkpt lat="45.29224" lon="5.74623">
        <ele>1661.6</ele>
        <time>2020-02-08T10:52:46Z</time>
      </trkpt>
      <trkpt lat="45.29224" lon="5.74623">
        <ele>1661.4</ele>
        <time>2020-02-08T10:52:47Z</time>
      </trkpt>
      <trkpt lat="45.29224" lon="5.74623">
        <ele>1661</ele>
        <time>2020-02-08T10:52:48Z</time>
      </trkpt>
      <trkpt lat="45.29224" lon="5.74623">
        <ele>1661.8</ele>
        <time>2020-02-08T10:52:49Z</time>
      </trkpt>
      <trkpt lat="45.29224" lon="5.74623">
        <ele>1662</ele>
        <time>2020-02-08T10:52:50Z</time>
      </trkpt>
      <trkpt lat="45.29224" lon="5.74623">
        <ele>1662.2</ele>
        <time>2020-02-08T10:52:51Z</time>
      </trkpt>
      <trkpt lat="45.29224" lon="5.74623">
        <ele>1662.2</ele>
        <time>2020-02-08T10:52:52Z</time>
      </trkpt>
      <trkpt lat="45.29224" lon="5.74623">
        <ele>1662.2</ele>
        <time>2020-02-08T10:52:53Z</time>
      </trkpt>
      <trkpt lat="45.29224" lon="5.74619">
        <ele>1662.6</ele>
        <time>2020-02-08T10:52:54Z</time>
      </trkpt>
      <trkpt lat="45.29224" lon="5.74619">
        <ele>1662.4</ele>
        <time>2020-02-08T10:52:55Z</time>
      </trkpt>
      <trkpt lat="45.29224" lon="5.74619">
        <ele>1662.4</ele>
        <time>2020-02-08T10:52:56Z</time>
      </trkpt>
      <trkpt lat="45.29224" lon="5.74619">
        <ele>1662</ele>
        <time>2020-02-08T10:52:57Z</time>
      </trkpt>
      <trkpt lat="45.29223" lon="5.74619">
        <ele>1661.8</ele>
        <time>2020-02-08T10:52:58Z</time>
      </trkpt>
      <trkpt lat="45.29223" lon="5.74619">
        <ele>1662</ele>
        <time>2020-02-08T10:52:59Z</time>
      </trkpt>
      <trkpt lat="45.29223" lon="5.74619">
        <ele>1662</ele>
        <time>2020-02-08T10:53:00Z</time>
      </trkpt>
      <trkpt lat="45.29222" lon="5.74619">
        <ele>1662.4</ele>
        <time>2020-02-08T10:53:01Z</time>
      </trkpt>
      <trkpt lat="45.29222" lon="5.74619">
        <ele>1662.6</ele>
        <time>2020-02-08T10:53:02Z</time>
      </trkpt>
      <trkpt lat="45.29222" lon="5.74619">
        <ele>1662.8</ele>
        <time>2020-02-08T10:53:03Z</time>
      </trkpt>
      <trkpt lat="45.29221" lon="5.74618">
        <ele>1663</ele>
        <time>2020-02-08T10:53:04Z</time>
      </trkpt>
      <trkpt lat="45.29221" lon="5.74618">
        <ele>1663.2</ele>
        <time>2020-02-08T10:53:05Z</time>
      </trkpt>
      <trkpt lat="45.29221" lon="5.74618">
        <ele>1662.8</ele>
        <time>2020-02-08T10:53:06Z</time>
      </trkpt>
      <trkpt lat="45.2922" lon="5.74618">
        <ele>1662.8</ele>
        <time>2020-02-08T10:53:07Z</time>
      </trkpt>
      <trkpt lat="45.2922" lon="5.74618">
        <ele>1663.2</ele>
        <time>2020-02-08T10:53:08Z</time>
      </trkpt>
      <trkpt lat="45.2922" lon="5.74618">
        <ele>1663</ele>
        <time>2020-02-08T10:53:09Z</time>
      </trkpt>
      <trkpt lat="45.29219" lon="5.74618">
        <ele>1663</ele>
        <time>2020-02-08T10:53:10Z</time>
      </trkpt>
      <trkpt lat="45.29219" lon="5.74618">
        <ele>1663.4</ele>
        <time>2020-02-08T10:53:11Z</time>
      </trkpt>
      <trkpt lat="45.29219" lon="5.74618">
        <ele>1663.4</ele>
        <time>2020-02-08T10:53:12Z</time>
      </trkpt>
      <trkpt lat="45.29218" lon="5.74618">
        <ele>1664.4</ele>
        <time>2020-02-08T10:53:13Z</time>
      </trkpt>
      <trkpt lat="45.29218" lon="5.74617">
        <ele>1665.2</ele>
        <time>2020-02-08T10:53:14Z</time>
      </trkpt>
      <trkpt lat="45.29218" lon="5.74617">
        <ele>1665.6</ele>
        <time>2020-02-08T10:53:15Z</time>
      </trkpt>
      <trkpt lat="45.29217" lon="5.74617">
        <ele>1666.4</ele>
        <time>2020-02-08T10:53:16Z</time>
      </trkpt>
      <trkpt lat="45.29217" lon="5.74617">
        <ele>1666.6</ele>
        <time>2020-02-08T10:53:17Z</time>
      </trkpt>
      <trkpt lat="45.29217" lon="5.74617">
        <ele>1667</ele>
        <time>2020-02-08T10:53:18Z</time>
      </trkpt>
      <trkpt lat="45.29216" lon="5.74617">
        <ele>1667.2</ele>
        <time>2020-02-08T10:53:19Z</time>
      </trkpt>
      <trkpt lat="45.29216" lon="5.74617">
        <ele>1667.6</ele>
        <time>2020-02-08T10:53:20Z</time>
      </trkpt>
      <trkpt lat="45.29216" lon="5.74617">
        <ele>1667.8</ele>
        <time>2020-02-08T10:53:21Z</time>
      </trkpt>
      <trkpt lat="45.29215" lon="5.74617">
        <ele>1667.8</ele>
        <time>2020-02-08T10:53:22Z</time>
      </trkpt>
      <trkpt lat="45.29215" lon="5.74616">
        <ele>1668</ele>
        <time>2020-02-08T10:53:23Z</time>
      </trkpt>
      <trkpt lat="45.29215" lon="5.74616">
        <ele>1667.8</ele>
        <time>2020-02-08T10:53:24Z</time>
      </trkpt>
      <trkpt lat="45.29215" lon="5.74616">
        <ele>1668</ele>
        <time>2020-02-08T10:53:25Z</time>
      </trkpt>
      <trkpt lat="45.29215" lon="5.74616">
        <ele>1668</ele>
        <time>2020-02-08T10:53:26Z</time>
      </trkpt>
      <trkpt lat="45.29214" lon="5.7461">
        <ele>1668.2</ele>
        <time>2020-02-08T10:53:27Z</time>
      </trkpt>
      <trkpt lat="45.29214" lon="5.7461">
        <ele>1668.2</ele>
        <time>2020-02-08T10:53:28Z</time>
      </trkpt>
      <trkpt lat="45.29213" lon="5.74608">
        <ele>1668.6</ele>
        <time>2020-02-08T10:53:29Z</time>
      </trkpt>
      <trkpt lat="45.29213" lon="5.74608">
        <ele>1668.8</ele>
        <time>2020-02-08T10:53:30Z</time>
      </trkpt>
      <trkpt lat="45.29213" lon="5.74608">
        <ele>1669</ele>
        <time>2020-02-08T10:53:31Z</time>
      </trkpt>
      <trkpt lat="45.29213" lon="5.74608">
        <ele>1668.4</ele>
        <time>2020-02-08T10:53:32Z</time>
      </trkpt>
      <trkpt lat="45.29212" lon="5.74606">
        <ele>1668.4</ele>
        <time>2020-02-08T10:53:33Z</time>
      </trkpt>
      <trkpt lat="45.29212" lon="5.74606">
        <ele>1668.2</ele>
        <time>2020-02-08T10:53:34Z</time>
      </trkpt>
      <trkpt lat="45.29211" lon="5.74603">
        <ele>1668.4</ele>
        <time>2020-02-08T10:53:35Z</time>
      </trkpt>
      <trkpt lat="45.29211" lon="5.74603">
        <ele>1668</ele>
        <time>2020-02-08T10:53:36Z</time>
      </trkpt>
      <trkpt lat="45.2921" lon="5.74601">
        <ele>1668.2</ele>
        <time>2020-02-08T10:53:37Z</time>
      </trkpt>
      <trkpt lat="45.2921" lon="5.74601">
        <ele>1668</ele>
        <time>2020-02-08T10:53:38Z</time>
      </trkpt>
      <trkpt lat="45.2921" lon="5.74601">
        <ele>1667.8</ele>
        <time>2020-02-08T10:53:39Z</time>
      </trkpt>
      <trkpt lat="45.2921" lon="5.746">
        <ele>1668</ele>
        <time>2020-02-08T10:53:40Z</time>
      </trkpt>
      <trkpt lat="45.29209" lon="5.74599">
        <ele>1667.8</ele>
        <time>2020-02-08T10:53:41Z</time>
      </trkpt>
      <trkpt lat="45.29209" lon="5.74598">
        <ele>1667.6</ele>
        <time>2020-02-08T10:53:42Z</time>
      </trkpt>
      <trkpt lat="45.29209" lon="5.74597">
        <ele>1667.8</ele>
        <time>2020-02-08T10:53:43Z</time>
      </trkpt>
      <trkpt lat="45.29208" lon="5.74596">
        <ele>1668</ele>
        <time>2020-02-08T10:53:44Z</time>
      </trkpt>
      <trkpt lat="45.29208" lon="5.74595">
        <ele>1668.2</ele>
        <time>2020-02-08T10:53:45Z</time>
      </trkpt>
      <trkpt lat="45.29208" lon="5.74594">
        <ele>1668</ele>
        <time>2020-02-08T10:53:46Z</time>
      </trkpt>
      <trkpt lat="45.29207" lon="5.74594">
        <ele>1668.2</ele>
        <time>2020-02-08T10:53:47Z</time>
      </trkpt>
      <trkpt lat="45.29207" lon="5.74593">
        <ele>1668.2</ele>
        <time>2020-02-08T10:53:48Z</time>
      </trkpt>
      <trkpt lat="45.29207" lon="5.74592">
        <ele>1667.6</ele>
        <time>2020-02-08T10:53:49Z</time>
      </trkpt>
      <trkpt lat="45.29207" lon="5.74591">
        <ele>1667.8</ele>
        <time>2020-02-08T10:53:50Z</time>
      </trkpt>
      <trkpt lat="45.29206" lon="5.7459">
        <ele>1668</ele>
        <time>2020-02-08T10:53:51Z</time>
      </trkpt>
      <trkpt lat="45.29206" lon="5.74589">
        <ele>1668</ele>
        <time>2020-02-08T10:53:52Z</time>
      </trkpt>
      <trkpt lat="45.29206" lon="5.74589">
        <ele>1668.2</ele>
        <time>2020-02-08T10:53:53Z</time>
      </trkpt>
      <trkpt lat="45.29205" lon="5.74588">
        <ele>1668</ele>
        <time>2020-02-08T10:53:54Z</time>
      </trkpt>
      <trkpt lat="45.29205" lon="5.74588">
        <ele>1668.2</ele>
        <time>2020-02-08T10:53:55Z</time>
      </trkpt>
      <trkpt lat="45.29205" lon="5.74588">
        <ele>1668</ele>
        <time>2020-02-08T10:53:56Z</time>
      </trkpt>
      <trkpt lat="45.29204" lon="5.74587">
        <ele>1668.4</ele>
        <time>2020-02-08T10:53:57Z</time>
      </trkpt>
      <trkpt lat="45.29204" lon="5.74587">
        <ele>1668.8</ele>
        <time>2020-02-08T10:53:58Z</time>
      </trkpt>
      <trkpt lat="45.29204" lon="5.74587">
        <ele>1669</ele>
        <time>2020-02-08T10:53:59Z</time>
      </trkpt>
      <trkpt lat="45.29203" lon="5.74586">
        <ele>1669.2</ele>
        <time>2020-02-08T10:54:00Z</time>
      </trkpt>
      <trkpt lat="45.29203" lon="5.74586">
        <ele>1669.4</ele>
        <time>2020-02-08T10:54:01Z</time>
      </trkpt>
      <trkpt lat="45.29203" lon="5.74586">
        <ele>1669.4</ele>
        <time>2020-02-08T10:54:02Z</time>
      </trkpt>
      <trkpt lat="45.29202" lon="5.74585">
        <ele>1669.2</ele>
        <time>2020-02-08T10:54:03Z</time>
      </trkpt>
      <trkpt lat="45.29202" lon="5.74585">
        <ele>1668.6</ele>
        <time>2020-02-08T10:54:04Z</time>
      </trkpt>
      <trkpt lat="45.29202" lon="5.74585">
        <ele>1668.2</ele>
        <time>2020-02-08T10:54:05Z</time>
      </trkpt>
      <trkpt lat="45.29201" lon="5.74584">
        <ele>1668</ele>
        <time>2020-02-08T10:54:06Z</time>
      </trkpt>
      <trkpt lat="45.29201" lon="5.74584">
        <ele>1667.8</ele>
        <time>2020-02-08T10:54:07Z</time>
      </trkpt>
      <trkpt lat="45.29201" lon="5.74583">
        <ele>1667.6</ele>
        <time>2020-02-08T10:54:08Z</time>
      </trkpt>
      <trkpt lat="45.29201" lon="5.74583">
        <ele>1667.6</ele>
        <time>2020-02-08T10:54:09Z</time>
      </trkpt>
      <trkpt lat="45.29201" lon="5.74582">
        <ele>1667.6</ele>
        <time>2020-02-08T10:54:10Z</time>
      </trkpt>
      <trkpt lat="45.29201" lon="5.74581">
        <ele>1667.6</ele>
        <time>2020-02-08T10:54:11Z</time>
      </trkpt>
      <trkpt lat="45.29202" lon="5.74581">
        <ele>1667.4</ele>
        <time>2020-02-08T10:54:12Z</time>
      </trkpt>
      <trkpt lat="45.29202" lon="5.7458">
        <ele>1667.6</ele>
        <time>2020-02-08T10:54:13Z</time>
      </trkpt>
      <trkpt lat="45.29202" lon="5.74579">
        <ele>1667.8</ele>
        <time>2020-02-08T10:54:14Z</time>
      </trkpt>
      <trkpt lat="45.29202" lon="5.74579">
        <ele>1668.2</ele>
        <time>2020-02-08T10:54:15Z</time>
      </trkpt>
      <trkpt lat="45.29202" lon="5.74578">
        <ele>1668</ele>
        <time>2020-02-08T10:54:16Z</time>
      </trkpt>
      <trkpt lat="45.29202" lon="5.74577">
        <ele>1668</ele>
        <time>2020-02-08T10:54:17Z</time>
      </trkpt>
      <trkpt lat="45.29202" lon="5.74577">
        <ele>1668.6</ele>
        <time>2020-02-08T10:54:18Z</time>
      </trkpt>
      <trkpt lat="45.29202" lon="5.74576">
        <ele>1669</ele>
        <time>2020-02-08T10:54:19Z</time>
      </trkpt>
      <trkpt lat="45.29202" lon="5.74575">
        <ele>1668.6</ele>
        <time>2020-02-08T10:54:20Z</time>
      </trkpt>
      <trkpt lat="45.29202" lon="5.74575">
        <ele>1668.4</ele>
        <time>2020-02-08T10:54:21Z</time>
      </trkpt>
      <trkpt lat="45.29202" lon="5.74574">
        <ele>1668.2</ele>
        <time>2020-02-08T10:54:22Z</time>
      </trkpt>
      <trkpt lat="45.29203" lon="5.74573">
        <ele>1668</ele>
        <time>2020-02-08T10:54:23Z</time>
      </trkpt>
      <trkpt lat="45.29203" lon="5.74573">
        <ele>1668.2</ele>
        <time>2020-02-08T10:54:24Z</time>
      </trkpt>
      <trkpt lat="45.29203" lon="5.74572">
        <ele>1667.4</ele>
        <time>2020-02-08T10:54:25Z</time>
      </trkpt>
      <trkpt lat="45.29203" lon="5.74571">
        <ele>1667.4</ele>
        <time>2020-02-08T10:54:26Z</time>
      </trkpt>
      <trkpt lat="45.29203" lon="5.74571">
        <ele>1667.6</ele>
        <time>2020-02-08T10:54:27Z</time>
      </trkpt>
      <trkpt lat="45.29203" lon="5.74569">
        <ele>1667.2</ele>
        <time>2020-02-08T10:54:28Z</time>
      </trkpt>
      <trkpt lat="45.29202" lon="5.74568">
        <ele>1667.6</ele>
        <time>2020-02-08T10:54:29Z</time>
      </trkpt>
      <trkpt lat="45.29202" lon="5.74567">
        <ele>1667.6</ele>
        <time>2020-02-08T10:54:30Z</time>
      </trkpt>
      <trkpt lat="45.29201" lon="5.74566">
        <ele>1667.4</ele>
        <time>2020-02-08T10:54:31Z</time>
      </trkpt>
      <trkpt lat="45.29201" lon="5.74565">
        <ele>1667.6</ele>
        <time>2020-02-08T10:54:32Z</time>
      </trkpt>
      <trkpt lat="45.292" lon="5.74563">
        <ele>1667.6</ele>
        <time>2020-02-08T10:54:33Z</time>
      </trkpt>
      <trkpt lat="45.292" lon="5.74562">
        <ele>1667.8</ele>
        <time>2020-02-08T10:54:34Z</time>
      </trkpt>
      <trkpt lat="45.292" lon="5.74561">
        <ele>1667.8</ele>
        <time>2020-02-08T10:54:35Z</time>
      </trkpt>
      <trkpt lat="45.29199" lon="5.7456">
        <ele>1668.2</ele>
        <time>2020-02-08T10:54:36Z</time>
      </trkpt>
      <trkpt lat="45.29199" lon="5.74559">
        <ele>1668.4</ele>
        <time>2020-02-08T10:54:37Z</time>
      </trkpt>
      <trkpt lat="45.29198" lon="5.74557">
        <ele>1668.4</ele>
        <time>2020-02-08T10:54:38Z</time>
      </trkpt>
      <trkpt lat="45.29197" lon="5.74557">
        <ele>1668.8</ele>
        <time>2020-02-08T10:54:39Z</time>
      </trkpt>
      <trkpt lat="45.29196" lon="5.74556">
        <ele>1668.4</ele>
        <time>2020-02-08T10:54:40Z</time>
      </trkpt>
      <trkpt lat="45.29195" lon="5.74555">
        <ele>1668.6</ele>
        <time>2020-02-08T10:54:41Z</time>
      </trkpt>
      <trkpt lat="45.29194" lon="5.74555">
        <ele>1668.6</ele>
        <time>2020-02-08T10:54:42Z</time>
      </trkpt>
      <trkpt lat="45.29192" lon="5.74554">
        <ele>1668.8</ele>
        <time>2020-02-08T10:54:43Z</time>
      </trkpt>
      <trkpt lat="45.29191" lon="5.74553">
        <ele>1668.8</ele>
        <time>2020-02-08T10:54:44Z</time>
      </trkpt>
      <trkpt lat="45.2919" lon="5.74553">
        <ele>1669.2</ele>
        <time>2020-02-08T10:54:45Z</time>
      </trkpt>
      <trkpt lat="45.29189" lon="5.74552">
        <ele>1669.4</ele>
        <time>2020-02-08T10:54:46Z</time>
      </trkpt>
      <trkpt lat="45.29188" lon="5.7455">
        <ele>1669.6</ele>
        <time>2020-02-08T10:54:47Z</time>
      </trkpt>
      <trkpt lat="45.29187" lon="5.74548">
        <ele>1669</ele>
        <time>2020-02-08T10:54:48Z</time>
      </trkpt>
      <trkpt lat="45.29186" lon="5.74546">
        <ele>1669.2</ele>
        <time>2020-02-08T10:54:49Z</time>
      </trkpt>
      <trkpt lat="45.29185" lon="5.74544">
        <ele>1669.6</ele>
        <time>2020-02-08T10:54:50Z</time>
      </trkpt>
      <trkpt lat="45.29184" lon="5.74542">
        <ele>1670</ele>
        <time>2020-02-08T10:54:51Z</time>
      </trkpt>
      <trkpt lat="45.29183" lon="5.7454">
        <ele>1670.4</ele>
        <time>2020-02-08T10:54:52Z</time>
      </trkpt>
      <trkpt lat="45.29182" lon="5.74538">
        <ele>1670.4</ele>
        <time>2020-02-08T10:54:53Z</time>
      </trkpt>
      <trkpt lat="45.29182" lon="5.74538">
        <ele>1670.6</ele>
        <time>2020-02-08T10:54:54Z</time>
      </trkpt>
      <trkpt lat="45.29182" lon="5.74538">
        <ele>1670.8</ele>
        <time>2020-02-08T10:54:55Z</time>
      </trkpt>
      <trkpt lat="45.29182" lon="5.74536">
        <ele>1671</ele>
        <time>2020-02-08T10:54:56Z</time>
      </trkpt>
      <trkpt lat="45.29181" lon="5.74535">
        <ele>1670.4</ele>
        <time>2020-02-08T10:54:57Z</time>
      </trkpt>
      <trkpt lat="45.29181" lon="5.74533">
        <ele>1670.6</ele>
        <time>2020-02-08T10:54:58Z</time>
      </trkpt>
      <trkpt lat="45.29181" lon="5.74532">
        <ele>1671</ele>
        <time>2020-02-08T10:54:59Z</time>
      </trkpt>
      <trkpt lat="45.2918" lon="5.74531">
        <ele>1671.4</ele>
        <time>2020-02-08T10:55:00Z</time>
      </trkpt>
      <trkpt lat="45.2918" lon="5.74529">
        <ele>1671.8</ele>
        <time>2020-02-08T10:55:01Z</time>
      </trkpt>
      <trkpt lat="45.29179" lon="5.74528">
        <ele>1671.2</ele>
        <time>2020-02-08T10:55:02Z</time>
      </trkpt>
      <trkpt lat="45.29179" lon="5.74526">
        <ele>1671.2</ele>
        <time>2020-02-08T10:55:03Z</time>
      </trkpt>
      <trkpt lat="45.29178" lon="5.74525">
        <ele>1671.4</ele>
        <time>2020-02-08T10:55:04Z</time>
      </trkpt>
      <trkpt lat="45.29178" lon="5.74523">
        <ele>1671.8</ele>
        <time>2020-02-08T10:55:05Z</time>
      </trkpt>
      <trkpt lat="45.29178" lon="5.74521">
        <ele>1672.4</ele>
        <time>2020-02-08T10:55:06Z</time>
      </trkpt>
      <trkpt lat="45.29177" lon="5.74519">
        <ele>1672</ele>
        <time>2020-02-08T10:55:07Z</time>
      </trkpt>
      <trkpt lat="45.29177" lon="5.74518">
        <ele>1672.2</ele>
        <time>2020-02-08T10:55:08Z</time>
      </trkpt>
      <trkpt lat="45.29177" lon="5.74516">
        <ele>1672.4</ele>
        <time>2020-02-08T10:55:09Z</time>
      </trkpt>
      <trkpt lat="45.29176" lon="5.74514">
        <ele>1673</ele>
        <time>2020-02-08T10:55:10Z</time>
      </trkpt>
      <trkpt lat="45.29176" lon="5.74512">
        <ele>1673.2</ele>
        <time>2020-02-08T10:55:11Z</time>
      </trkpt>
      <trkpt lat="45.29177" lon="5.74509">
        <ele>1673.6</ele>
        <time>2020-02-08T10:55:12Z</time>
      </trkpt>
      <trkpt lat="45.29178" lon="5.74506">
        <ele>1673.6</ele>
        <time>2020-02-08T10:55:13Z</time>
      </trkpt>
      <trkpt lat="45.29178" lon="5.74503">
        <ele>1673.8</ele>
        <time>2020-02-08T10:55:14Z</time>
      </trkpt>
      <trkpt lat="45.29179" lon="5.74501">
        <ele>1674.2</ele>
        <time>2020-02-08T10:55:15Z</time>
      </trkpt>
      <trkpt lat="45.2918" lon="5.74498">
        <ele>1674.2</ele>
        <time>2020-02-08T10:55:16Z</time>
      </trkpt>
      <trkpt lat="45.2918" lon="5.74498">
        <ele>1674.8</ele>
        <time>2020-02-08T10:55:17Z</time>
      </trkpt>
      <trkpt lat="45.2918" lon="5.74498">
        <ele>1674.8</ele>
        <time>2020-02-08T10:55:18Z</time>
      </trkpt>
      <trkpt lat="45.29179" lon="5.74494">
        <ele>1675.2</ele>
        <time>2020-02-08T10:55:19Z</time>
      </trkpt>
      <trkpt lat="45.29179" lon="5.74494">
        <ele>1675.4</ele>
        <time>2020-02-08T10:55:20Z</time>
      </trkpt>
      <trkpt lat="45.29179" lon="5.74491">
        <ele>1675.2</ele>
        <time>2020-02-08T10:55:21Z</time>
      </trkpt>
      <trkpt lat="45.29179" lon="5.74491">
        <ele>1675.6</ele>
        <time>2020-02-08T10:55:22Z</time>
      </trkpt>
      <trkpt lat="45.29179" lon="5.74491">
        <ele>1675.6</ele>
        <time>2020-02-08T10:55:23Z</time>
      </trkpt>
      <trkpt lat="45.29178" lon="5.74487">
        <ele>1676.2</ele>
        <time>2020-02-08T10:55:24Z</time>
      </trkpt>
      <trkpt lat="45.29178" lon="5.74487">
        <ele>1676.2</ele>
        <time>2020-02-08T10:55:25Z</time>
      </trkpt>
      <trkpt lat="45.29177" lon="5.74483">
        <ele>1676.6</ele>
        <time>2020-02-08T10:55:26Z</time>
      </trkpt>
      <trkpt lat="45.29177" lon="5.74483">
        <ele>1676.8</ele>
        <time>2020-02-08T10:55:27Z</time>
      </trkpt>
      <trkpt lat="45.29177" lon="5.7448">
        <ele>1676.6</ele>
        <time>2020-02-08T10:55:28Z</time>
      </trkpt>
      <trkpt lat="45.29177" lon="5.7448">
        <ele>1677</ele>
        <time>2020-02-08T10:55:29Z</time>
      </trkpt>
      <trkpt lat="45.29177" lon="5.7448">
        <ele>1677.8</ele>
        <time>2020-02-08T10:55:30Z</time>
      </trkpt>
      <trkpt lat="45.29177" lon="5.7448">
        <ele>1678</ele>
        <time>2020-02-08T10:55:31Z</time>
      </trkpt>
      <trkpt lat="45.29178" lon="5.74477">
        <ele>1677.8</ele>
        <time>2020-02-08T10:55:32Z</time>
      </trkpt>
      <trkpt lat="45.29178" lon="5.74477">
        <ele>1678.2</ele>
        <time>2020-02-08T10:55:33Z</time>
      </trkpt>
      <trkpt lat="45.29178" lon="5.74473">
        <ele>1678.4</ele>
        <time>2020-02-08T10:55:34Z</time>
      </trkpt>
      <trkpt lat="45.29178" lon="5.74473">
        <ele>1678.4</ele>
        <time>2020-02-08T10:55:35Z</time>
      </trkpt>
      <trkpt lat="45.2918" lon="5.7447">
        <ele>1678.8</ele>
        <time>2020-02-08T10:55:36Z</time>
      </trkpt>
      <trkpt lat="45.2918" lon="5.7447">
        <ele>1679</ele>
        <time>2020-02-08T10:55:37Z</time>
      </trkpt>
      <trkpt lat="45.29181" lon="5.74466">
        <ele>1679.6</ele>
        <time>2020-02-08T10:55:38Z</time>
      </trkpt>
      <trkpt lat="45.29181" lon="5.74466">
        <ele>1680</ele>
        <time>2020-02-08T10:55:39Z</time>
      </trkpt>
      <trkpt lat="45.29182" lon="5.74463">
        <ele>1680.2</ele>
        <time>2020-02-08T10:55:40Z</time>
      </trkpt>
      <trkpt lat="45.29182" lon="5.74463">
        <ele>1680.2</ele>
        <time>2020-02-08T10:55:41Z</time>
      </trkpt>
      <trkpt lat="45.29184" lon="5.74459">
        <ele>1680.2</ele>
        <time>2020-02-08T10:55:42Z</time>
      </trkpt>
      <trkpt lat="45.29186" lon="5.74458">
        <ele>1680</ele>
        <time>2020-02-08T10:55:43Z</time>
      </trkpt>
      <trkpt lat="45.29189" lon="5.74456">
        <ele>1679.8</ele>
        <time>2020-02-08T10:55:44Z</time>
      </trkpt>
      <trkpt lat="45.29193" lon="5.74455">
        <ele>1679.4</ele>
        <time>2020-02-08T10:55:45Z</time>
      </trkpt>
      <trkpt lat="45.29197" lon="5.74456">
        <ele>1679</ele>
        <time>2020-02-08T10:55:46Z</time>
      </trkpt>
      <trkpt lat="45.29201" lon="5.74456">
        <ele>1678.4</ele>
        <time>2020-02-08T10:55:47Z</time>
      </trkpt>
      <trkpt lat="45.29206" lon="5.74458">
        <ele>1677.8</ele>
        <time>2020-02-08T10:55:48Z</time>
      </trkpt>
      <trkpt lat="45.29211" lon="5.74458">
        <ele>1677.4</ele>
        <time>2020-02-08T10:55:49Z</time>
      </trkpt>
      <trkpt lat="45.29215" lon="5.74458">
        <ele>1677.2</ele>
        <time>2020-02-08T10:55:50Z</time>
      </trkpt>
      <trkpt lat="45.29218" lon="5.74457">
        <ele>1676.8</ele>
        <time>2020-02-08T10:55:51Z</time>
      </trkpt>
      <trkpt lat="45.29221" lon="5.74457">
        <ele>1676.4</ele>
        <time>2020-02-08T10:55:52Z</time>
      </trkpt>
      <trkpt lat="45.29223" lon="5.74456">
        <ele>1676.2</ele>
        <time>2020-02-08T10:55:53Z</time>
      </trkpt>
      <trkpt lat="45.29225" lon="5.74456">
        <ele>1675.6</ele>
        <time>2020-02-08T10:55:54Z</time>
      </trkpt>
      <trkpt lat="45.29227" lon="5.74455">
        <ele>1675.6</ele>
        <time>2020-02-08T10:55:55Z</time>
      </trkpt>
      <trkpt lat="45.29229" lon="5.74454">
        <ele>1675.4</ele>
        <time>2020-02-08T10:55:56Z</time>
      </trkpt>
      <trkpt lat="45.29231" lon="5.74453">
        <ele>1675.2</ele>
        <time>2020-02-08T10:55:57Z</time>
      </trkpt>
      <trkpt lat="45.29233" lon="5.74453">
        <ele>1674.4</ele>
        <time>2020-02-08T10:55:58Z</time>
      </trkpt>
      <trkpt lat="45.29235" lon="5.74452">
        <ele>1674.2</ele>
        <time>2020-02-08T10:55:59Z</time>
      </trkpt>
      <trkpt lat="45.29238" lon="5.74452">
        <ele>1673.8</ele>
        <time>2020-02-08T10:56:00Z</time>
      </trkpt>
      <trkpt lat="45.2924" lon="5.7445">
        <ele>1673.6</ele>
        <time>2020-02-08T10:56:01Z</time>
      </trkpt>
      <trkpt lat="45.29242" lon="5.74449">
        <ele>1673.4</ele>
        <time>2020-02-08T10:56:02Z</time>
      </trkpt>
      <trkpt lat="45.29244" lon="5.74447">
        <ele>1672.8</ele>
        <time>2020-02-08T10:56:03Z</time>
      </trkpt>
      <trkpt lat="45.29246" lon="5.74447">
        <ele>1672.6</ele>
        <time>2020-02-08T10:56:04Z</time>
      </trkpt>
      <trkpt lat="45.29248" lon="5.74448">
        <ele>1672.2</ele>
        <time>2020-02-08T10:56:05Z</time>
      </trkpt>
      <trkpt lat="45.2925" lon="5.7445">
        <ele>1671.8</ele>
        <time>2020-02-08T10:56:06Z</time>
      </trkpt>
      <trkpt lat="45.2925" lon="5.7445">
        <ele>1671.4</ele>
        <time>2020-02-08T10:56:07Z</time>
      </trkpt>
      <trkpt lat="45.2925" lon="5.7445">
        <ele>1671.4</ele>
        <time>2020-02-08T10:56:08Z</time>
      </trkpt>
      <trkpt lat="45.29252" lon="5.74451">
        <ele>1671.4</ele>
        <time>2020-02-08T10:56:09Z</time>
      </trkpt>
      <trkpt lat="45.29252" lon="5.74451">
        <ele>1671.2</ele>
        <time>2020-02-08T10:56:10Z</time>
      </trkpt>
      <trkpt lat="45.29253" lon="5.7445">
        <ele>1670.8</ele>
        <time>2020-02-08T10:56:11Z</time>
      </trkpt>
      <trkpt lat="45.29253" lon="5.7445">
        <ele>1670.2</ele>
        <time>2020-02-08T10:56:12Z</time>
      </trkpt>
      <trkpt lat="45.29257" lon="5.74446">
        <ele>1669.8</ele>
        <time>2020-02-08T10:56:13Z</time>
      </trkpt>
      <trkpt lat="45.29261" lon="5.74442">
        <ele>1669</ele>
        <time>2020-02-08T10:56:14Z</time>
      </trkpt>
      <trkpt lat="45.29261" lon="5.74442">
        <ele>1668</ele>
        <time>2020-02-08T10:56:15Z</time>
      </trkpt>
      <trkpt lat="45.29275" lon="5.74431">
        <ele>1666.8</ele>
        <time>2020-02-08T10:56:16Z</time>
      </trkpt>
      <trkpt lat="45.29287" lon="5.74422">
        <ele>1665</ele>
        <time>2020-02-08T10:56:17Z</time>
      </trkpt>
      <trkpt lat="45.2929" lon="5.74419">
        <ele>1663.4</ele>
        <time>2020-02-08T10:56:18Z</time>
      </trkpt>
      <trkpt lat="45.29298" lon="5.74412">
        <ele>1661.6</ele>
        <time>2020-02-08T10:56:19Z</time>
      </trkpt>
      <trkpt lat="45.29304" lon="5.74406">
        <ele>1660</ele>
        <time>2020-02-08T10:56:20Z</time>
      </trkpt>
      <trkpt lat="45.2931" lon="5.74401">
        <ele>1658.2</ele>
        <time>2020-02-08T10:56:21Z</time>
      </trkpt>
      <trkpt lat="45.29315" lon="5.74395">
        <ele>1656.4</ele>
        <time>2020-02-08T10:56:22Z</time>
      </trkpt>
      <trkpt lat="45.29315" lon="5.74395">
        <ele>1655.2</ele>
        <time>2020-02-08T10:56:23Z</time>
      </trkpt>
      <trkpt lat="45.29324" lon="5.74387">
        <ele>1654</ele>
        <time>2020-02-08T10:56:24Z</time>
      </trkpt>
      <trkpt lat="45.29324" lon="5.74387">
        <ele>1653.8</ele>
        <time>2020-02-08T10:56:25Z</time>
      </trkpt>
      <trkpt lat="45.29324" lon="5.74387">
        <ele>1653.6</ele>
        <time>2020-02-08T10:56:26Z</time>
      </trkpt>
      <trkpt lat="45.29326" lon="5.74385">
        <ele>1653.4</ele>
        <time>2020-02-08T10:56:27Z</time>
      </trkpt>
      <trkpt lat="45.29329" lon="5.74383">
        <ele>1653</ele>
        <time>2020-02-08T10:56:28Z</time>
      </trkpt>
      <trkpt lat="45.29331" lon="5.74382">
        <ele>1653</ele>
        <time>2020-02-08T10:56:29Z</time>
      </trkpt>
      <trkpt lat="45.29333" lon="5.7438">
        <ele>1652</ele>
        <time>2020-02-08T10:56:30Z</time>
      </trkpt>
      <trkpt lat="45.29334" lon="5.74379">
        <ele>1651.8</ele>
        <time>2020-02-08T10:56:31Z</time>
      </trkpt>
      <trkpt lat="45.29335" lon="5.74378">
        <ele>1651.6</ele>
        <time>2020-02-08T10:56:32Z</time>
      </trkpt>
      <trkpt lat="45.29336" lon="5.74377">
        <ele>1651.8</ele>
        <time>2020-02-08T10:56:33Z</time>
      </trkpt>
      <trkpt lat="45.29337" lon="5.74376">
        <ele>1652</ele>
        <time>2020-02-08T10:56:34Z</time>
      </trkpt>
      <trkpt lat="45.29338" lon="5.74375">
        <ele>1652.2</ele>
        <time>2020-02-08T10:56:35Z</time>
      </trkpt>
      <trkpt lat="45.29338" lon="5.74374">
        <ele>1652.4</ele>
        <time>2020-02-08T10:56:36Z</time>
      </trkpt>
      <trkpt lat="45.29339" lon="5.74373">
        <ele>1652.8</ele>
        <time>2020-02-08T10:56:37Z</time>
      </trkpt>
      <trkpt lat="45.2934" lon="5.74372">
        <ele>1652.6</ele>
        <time>2020-02-08T10:56:38Z</time>
      </trkpt>
      <trkpt lat="45.29343" lon="5.74368">
        <ele>1652.6</ele>
        <time>2020-02-08T10:56:39Z</time>
      </trkpt>
      <trkpt lat="45.29343" lon="5.74368">
        <ele>1652.8</ele>
        <time>2020-02-08T10:56:40Z</time>
      </trkpt>
      <trkpt lat="45.29343" lon="5.74368">
        <ele>1653.2</ele>
        <time>2020-02-08T10:56:41Z</time>
      </trkpt>
      <trkpt lat="45.29347" lon="5.74365">
        <ele>1653.6</ele>
        <time>2020-02-08T10:56:42Z</time>
      </trkpt>
      <trkpt lat="45.29347" lon="5.74365">
        <ele>1653.4</ele>
        <time>2020-02-08T10:56:43Z</time>
      </trkpt>
      <trkpt lat="45.29347" lon="5.74365">
        <ele>1653.6</ele>
        <time>2020-02-08T10:56:44Z</time>
      </trkpt>
      <trkpt lat="45.29349" lon="5.74364">
        <ele>1653.2</ele>
        <time>2020-02-08T10:56:45Z</time>
      </trkpt>
      <trkpt lat="45.29351" lon="5.74364">
        <ele>1653.4</ele>
        <time>2020-02-08T10:56:46Z</time>
      </trkpt>
      <trkpt lat="45.29352" lon="5.74363">
        <ele>1653.6</ele>
        <time>2020-02-08T10:56:47Z</time>
      </trkpt>
      <trkpt lat="45.29354" lon="5.74363">
        <ele>1654</ele>
        <time>2020-02-08T10:56:48Z</time>
      </trkpt>
      <trkpt lat="45.29356" lon="5.74362">
        <ele>1654.2</ele>
        <time>2020-02-08T10:56:49Z</time>
      </trkpt>
      <trkpt lat="45.29357" lon="5.74361">
        <ele>1654.6</ele>
        <time>2020-02-08T10:56:50Z</time>
      </trkpt>
      <trkpt lat="45.29359" lon="5.74361">
        <ele>1654.4</ele>
        <time>2020-02-08T10:56:51Z</time>
      </trkpt>
      <trkpt lat="45.2936" lon="5.7436">
        <ele>1654.2</ele>
        <time>2020-02-08T10:56:52Z</time>
      </trkpt>
      <trkpt lat="45.29362" lon="5.74359">
        <ele>1654.6</ele>
        <time>2020-02-08T10:56:53Z</time>
      </trkpt>
      <trkpt lat="45.29363" lon="5.74358">
        <ele>1655</ele>
        <time>2020-02-08T10:56:54Z</time>
      </trkpt>
      <trkpt lat="45.29365" lon="5.74357">
        <ele>1655.6</ele>
        <time>2020-02-08T10:56:55Z</time>
      </trkpt>
      <trkpt lat="45.29366" lon="5.74356">
        <ele>1656.2</ele>
        <time>2020-02-08T10:56:56Z</time>
      </trkpt>
      <trkpt lat="45.29367" lon="5.74355">
        <ele>1656.8</ele>
        <time>2020-02-08T10:56:57Z</time>
      </trkpt>
      <trkpt lat="45.2937" lon="5.74354">
        <ele>1656.6</ele>
        <time>2020-02-08T10:56:58Z</time>
      </trkpt>
      <trkpt lat="45.29372" lon="5.74352">
        <ele>1656</ele>
        <time>2020-02-08T10:56:59Z</time>
      </trkpt>
      <trkpt lat="45.29375" lon="5.74351">
        <ele>1656.4</ele>
        <time>2020-02-08T10:57:00Z</time>
      </trkpt>
      <trkpt lat="45.29377" lon="5.74349">
        <ele>1656.6</ele>
        <time>2020-02-08T10:57:01Z</time>
      </trkpt>
      <trkpt lat="45.2938" lon="5.74348">
        <ele>1657</ele>
        <time>2020-02-08T10:57:02Z</time>
      </trkpt>
      <trkpt lat="45.29382" lon="5.74347">
        <ele>1657.2</ele>
        <time>2020-02-08T10:57:03Z</time>
      </trkpt>
      <trkpt lat="45.29382" lon="5.74347">
        <ele>1657.6</ele>
        <time>2020-02-08T10:57:04Z</time>
      </trkpt>
      <trkpt lat="45.29386" lon="5.74346">
        <ele>1658.2</ele>
        <time>2020-02-08T10:57:05Z</time>
      </trkpt>
      <trkpt lat="45.29386" lon="5.74346">
        <ele>1657.6</ele>
        <time>2020-02-08T10:57:06Z</time>
      </trkpt>
      <trkpt lat="45.29388" lon="5.74345">
        <ele>1657.4</ele>
        <time>2020-02-08T10:57:07Z</time>
      </trkpt>
      <trkpt lat="45.29388" lon="5.74345">
        <ele>1657.6</ele>
        <time>2020-02-08T10:57:08Z</time>
      </trkpt>
      <trkpt lat="45.29391" lon="5.74344">
        <ele>1658</ele>
        <time>2020-02-08T10:57:09Z</time>
      </trkpt>
      <trkpt lat="45.29391" lon="5.74344">
        <ele>1658.4</ele>
        <time>2020-02-08T10:57:10Z</time>
      </trkpt>
      <trkpt lat="45.29393" lon="5.74343">
        <ele>1658.8</ele>
        <time>2020-02-08T10:57:11Z</time>
      </trkpt>
      <trkpt lat="45.29393" lon="5.74343">
        <ele>1659</ele>
        <time>2020-02-08T10:57:12Z</time>
      </trkpt>
      <trkpt lat="45.29395" lon="5.74342">
        <ele>1659.2</ele>
        <time>2020-02-08T10:57:13Z</time>
      </trkpt>
      <trkpt lat="45.29395" lon="5.74342">
        <ele>1658.8</ele>
        <time>2020-02-08T10:57:14Z</time>
      </trkpt>
      <trkpt lat="45.29398" lon="5.74341">
        <ele>1658.8</ele>
        <time>2020-02-08T10:57:15Z</time>
      </trkpt>
      <trkpt lat="45.29398" lon="5.74341">
        <ele>1659</ele>
        <time>2020-02-08T10:57:16Z</time>
      </trkpt>
      <trkpt lat="45.29401" lon="5.74341">
        <ele>1659</ele>
        <time>2020-02-08T10:57:17Z</time>
      </trkpt>
      <trkpt lat="45.29401" lon="5.74341">
        <ele>1659.8</ele>
        <time>2020-02-08T10:57:18Z</time>
      </trkpt>
      <trkpt lat="45.29403" lon="5.7434">
        <ele>1660</ele>
        <time>2020-02-08T10:57:19Z</time>
      </trkpt>
      <trkpt lat="45.29405" lon="5.7434">
        <ele>1660.2</ele>
        <time>2020-02-08T10:57:20Z</time>
      </trkpt>
      <trkpt lat="45.29405" lon="5.7434">
        <ele>1660.4</ele>
        <time>2020-02-08T10:57:21Z</time>
      </trkpt>
      <trkpt lat="45.29408" lon="5.74338">
        <ele>1660.6</ele>
        <time>2020-02-08T10:57:22Z</time>
      </trkpt>
      <trkpt lat="45.29408" lon="5.74338">
        <ele>1660.2</ele>
        <time>2020-02-08T10:57:23Z</time>
      </trkpt>
      <trkpt lat="45.2941" lon="5.74337">
        <ele>1660.4</ele>
        <time>2020-02-08T10:57:24Z</time>
      </trkpt>
      <trkpt lat="45.2941" lon="5.74337">
        <ele>1660.8</ele>
        <time>2020-02-08T10:57:25Z</time>
      </trkpt>
      <trkpt lat="45.29412" lon="5.74337">
        <ele>1661.2</ele>
        <time>2020-02-08T10:57:26Z</time>
      </trkpt>
      <trkpt lat="45.29412" lon="5.74337">
        <ele>1661.4</ele>
        <time>2020-02-08T10:57:27Z</time>
      </trkpt>
      <trkpt lat="45.29415" lon="5.74336">
        <ele>1661.2</ele>
        <time>2020-02-08T10:57:28Z</time>
      </trkpt>
      <trkpt lat="45.29415" lon="5.74336">
        <ele>1661.8</ele>
        <time>2020-02-08T10:57:29Z</time>
      </trkpt>
      <trkpt lat="45.29415" lon="5.74336">
        <ele>1661.8</ele>
        <time>2020-02-08T10:57:30Z</time>
      </trkpt>
      <trkpt lat="45.29418" lon="5.74336">
        <ele>1662.2</ele>
        <time>2020-02-08T10:57:31Z</time>
      </trkpt>
      <trkpt lat="45.29418" lon="5.74336">
        <ele>1662.4</ele>
        <time>2020-02-08T10:57:32Z</time>
      </trkpt>
      <trkpt lat="45.29421" lon="5.74335">
        <ele>1662.6</ele>
        <time>2020-02-08T10:57:33Z</time>
      </trkpt>
      <trkpt lat="45.29421" lon="5.74335">
        <ele>1663.2</ele>
        <time>2020-02-08T10:57:34Z</time>
      </trkpt>
      <trkpt lat="45.29423" lon="5.74333">
        <ele>1663.6</ele>
        <time>2020-02-08T10:57:35Z</time>
      </trkpt>
      <trkpt lat="45.29423" lon="5.74333">
        <ele>1663.8</ele>
        <time>2020-02-08T10:57:36Z</time>
      </trkpt>
      <trkpt lat="45.29426" lon="5.74332">
        <ele>1663.8</ele>
        <time>2020-02-08T10:57:37Z</time>
      </trkpt>
      <trkpt lat="45.29426" lon="5.74332">
        <ele>1663.4</ele>
        <time>2020-02-08T10:57:38Z</time>
      </trkpt>
      <trkpt lat="45.29429" lon="5.7433">
        <ele>1663.6</ele>
        <time>2020-02-08T10:57:39Z</time>
      </trkpt>
      <trkpt lat="45.29429" lon="5.7433">
        <ele>1664.2</ele>
        <time>2020-02-08T10:57:40Z</time>
      </trkpt>
      <trkpt lat="45.29431" lon="5.74329">
        <ele>1664.4</ele>
        <time>2020-02-08T10:57:41Z</time>
      </trkpt>
      <trkpt lat="45.29431" lon="5.74329">
        <ele>1664.6</ele>
        <time>2020-02-08T10:57:42Z</time>
      </trkpt>
      <trkpt lat="45.29433" lon="5.74328">
        <ele>1664.6</ele>
        <time>2020-02-08T10:57:43Z</time>
      </trkpt>
      <trkpt lat="45.29433" lon="5.74328">
        <ele>1664.6</ele>
        <time>2020-02-08T10:57:44Z</time>
      </trkpt>
      <trkpt lat="45.29437" lon="5.74327">
        <ele>1664.6</ele>
        <time>2020-02-08T10:57:45Z</time>
      </trkpt>
      <trkpt lat="45.29437" lon="5.74327">
        <ele>1664.4</ele>
        <time>2020-02-08T10:57:46Z</time>
      </trkpt>
      <trkpt lat="45.29439" lon="5.74326">
        <ele>1664.8</ele>
        <time>2020-02-08T10:57:47Z</time>
      </trkpt>
      <trkpt lat="45.29439" lon="5.74326">
        <ele>1665.6</ele>
        <time>2020-02-08T10:57:48Z</time>
      </trkpt>
      <trkpt lat="45.29441" lon="5.74327">
        <ele>1665.8</ele>
        <time>2020-02-08T10:57:49Z</time>
      </trkpt>
      <trkpt lat="45.29441" lon="5.74327">
        <ele>1666.2</ele>
        <time>2020-02-08T10:57:50Z</time>
      </trkpt>
      <trkpt lat="45.29443" lon="5.74327">
        <ele>1666.6</ele>
        <time>2020-02-08T10:57:51Z</time>
      </trkpt>
      <trkpt lat="45.29443" lon="5.74327">
        <ele>1667</ele>
        <time>2020-02-08T10:57:52Z</time>
      </trkpt>
      <trkpt lat="45.29446" lon="5.74328">
        <ele>1667</ele>
        <time>2020-02-08T10:57:53Z</time>
      </trkpt>
      <trkpt lat="45.29446" lon="5.74328">
        <ele>1667.6</ele>
        <time>2020-02-08T10:57:54Z</time>
      </trkpt>
      <trkpt lat="45.29448" lon="5.74327">
        <ele>1668.2</ele>
        <time>2020-02-08T10:57:55Z</time>
      </trkpt>
      <trkpt lat="45.29448" lon="5.74327">
        <ele>1668.4</ele>
        <time>2020-02-08T10:57:56Z</time>
      </trkpt>
      <trkpt lat="45.29449" lon="5.74329">
        <ele>1668.8</ele>
        <time>2020-02-08T10:57:57Z</time>
      </trkpt>
      <trkpt lat="45.29449" lon="5.74329">
        <ele>1668.6</ele>
        <time>2020-02-08T10:57:58Z</time>
      </trkpt>
      <trkpt lat="45.29449" lon="5.74329">
        <ele>1668.8</ele>
        <time>2020-02-08T10:57:59Z</time>
      </trkpt>
      <trkpt lat="45.29452" lon="5.74331">
        <ele>1669</ele>
        <time>2020-02-08T10:58:00Z</time>
      </trkpt>
      <trkpt lat="45.29452" lon="5.74331">
        <ele>1669.4</ele>
        <time>2020-02-08T10:58:01Z</time>
      </trkpt>
      <trkpt lat="45.29455" lon="5.74332">
        <ele>1670.2</ele>
        <time>2020-02-08T10:58:02Z</time>
      </trkpt>
      <trkpt lat="45.29455" lon="5.74332">
        <ele>1670</ele>
        <time>2020-02-08T10:58:03Z</time>
      </trkpt>
      <trkpt lat="45.29458" lon="5.74334">
        <ele>1669.8</ele>
        <time>2020-02-08T10:58:04Z</time>
      </trkpt>
      <trkpt lat="45.29458" lon="5.74334">
        <ele>1670.4</ele>
        <time>2020-02-08T10:58:05Z</time>
      </trkpt>
      <trkpt lat="45.29461" lon="5.74335">
        <ele>1671</ele>
        <time>2020-02-08T10:58:06Z</time>
      </trkpt>
      <trkpt lat="45.29461" lon="5.74335">
        <ele>1671.4</ele>
        <time>2020-02-08T10:58:07Z</time>
      </trkpt>
      <trkpt lat="45.29462" lon="5.74336">
        <ele>1671.4</ele>
        <time>2020-02-08T10:58:08Z</time>
      </trkpt>
      <trkpt lat="45.29462" lon="5.74336">
        <ele>1671.6</ele>
        <time>2020-02-08T10:58:09Z</time>
      </trkpt>
      <trkpt lat="45.29465" lon="5.74336">
        <ele>1671.6</ele>
        <time>2020-02-08T10:58:10Z</time>
      </trkpt>
      <trkpt lat="45.29465" lon="5.74336">
        <ele>1672.2</ele>
        <time>2020-02-08T10:58:11Z</time>
      </trkpt>
      <trkpt lat="45.29465" lon="5.74336">
        <ele>1672.2</ele>
        <time>2020-02-08T10:58:12Z</time>
      </trkpt>
      <trkpt lat="45.29467" lon="5.74336">
        <ele>1672.4</ele>
        <time>2020-02-08T10:58:13Z</time>
      </trkpt>
      <trkpt lat="45.29467" lon="5.74336">
        <ele>1672.6</ele>
        <time>2020-02-08T10:58:14Z</time>
      </trkpt>
      <trkpt lat="45.29467" lon="5.74336">
        <ele>1672.8</ele>
        <time>2020-02-08T10:58:15Z</time>
      </trkpt>
      <trkpt lat="45.2947" lon="5.74335">
        <ele>1672.8</ele>
        <time>2020-02-08T10:58:16Z</time>
      </trkpt>
      <trkpt lat="45.2947" lon="5.74335">
        <ele>1673.4</ele>
        <time>2020-02-08T10:58:17Z</time>
      </trkpt>
      <trkpt lat="45.29472" lon="5.74335">
        <ele>1673.8</ele>
        <time>2020-02-08T10:58:18Z</time>
      </trkpt>
      <trkpt lat="45.29472" lon="5.74335">
        <ele>1674</ele>
        <time>2020-02-08T10:58:19Z</time>
      </trkpt>
      <trkpt lat="45.29474" lon="5.74336">
        <ele>1673.4</ele>
        <time>2020-02-08T10:58:20Z</time>
      </trkpt>
      <trkpt lat="45.29474" lon="5.74336">
        <ele>1673.4</ele>
        <time>2020-02-08T10:58:21Z</time>
      </trkpt>
      <trkpt lat="45.29476" lon="5.74339">
        <ele>1674.2</ele>
        <time>2020-02-08T10:58:22Z</time>
      </trkpt>
      <trkpt lat="45.29476" lon="5.74339">
        <ele>1674.4</ele>
        <time>2020-02-08T10:58:23Z</time>
      </trkpt>
      <trkpt lat="45.29478" lon="5.74341">
        <ele>1674.4</ele>
        <time>2020-02-08T10:58:24Z</time>
      </trkpt>
      <trkpt lat="45.29478" lon="5.74341">
        <ele>1675</ele>
        <time>2020-02-08T10:58:25Z</time>
      </trkpt>
      <trkpt lat="45.2948" lon="5.74342">
        <ele>1675.2</ele>
        <time>2020-02-08T10:58:26Z</time>
      </trkpt>
      <trkpt lat="45.2948" lon="5.74342">
        <ele>1674.8</ele>
        <time>2020-02-08T10:58:27Z</time>
      </trkpt>
      <trkpt lat="45.29482" lon="5.74344">
        <ele>1675.4</ele>
        <time>2020-02-08T10:58:28Z</time>
      </trkpt>
      <trkpt lat="45.29482" lon="5.74344">
        <ele>1675.4</ele>
        <time>2020-02-08T10:58:29Z</time>
      </trkpt>
      <trkpt lat="45.29484" lon="5.74345">
        <ele>1676</ele>
        <time>2020-02-08T10:58:30Z</time>
      </trkpt>
      <trkpt lat="45.29484" lon="5.74345">
        <ele>1675.8</ele>
        <time>2020-02-08T10:58:31Z</time>
      </trkpt>
      <trkpt lat="45.29484" lon="5.74345">
        <ele>1676</ele>
        <time>2020-02-08T10:58:32Z</time>
      </trkpt>
      <trkpt lat="45.29486" lon="5.74345">
        <ele>1676.2</ele>
        <time>2020-02-08T10:58:33Z</time>
      </trkpt>
      <trkpt lat="45.29486" lon="5.74345">
        <ele>1676.4</ele>
        <time>2020-02-08T10:58:34Z</time>
      </trkpt>
      <trkpt lat="45.29488" lon="5.74345">
        <ele>1676.6</ele>
        <time>2020-02-08T10:58:35Z</time>
      </trkpt>
      <trkpt lat="45.29488" lon="5.74345">
        <ele>1676.8</ele>
        <time>2020-02-08T10:58:36Z</time>
      </trkpt>
      <trkpt lat="45.29491" lon="5.74345">
        <ele>1677.4</ele>
        <time>2020-02-08T10:58:37Z</time>
      </trkpt>
      <trkpt lat="45.29491" lon="5.74345">
        <ele>1677.2</ele>
        <time>2020-02-08T10:58:38Z</time>
      </trkpt>
      <trkpt lat="45.29493" lon="5.74347">
        <ele>1677.8</ele>
        <time>2020-02-08T10:58:39Z</time>
      </trkpt>
      <trkpt lat="45.29493" lon="5.74347">
        <ele>1677.8</ele>
        <time>2020-02-08T10:58:40Z</time>
      </trkpt>
      <trkpt lat="45.29495" lon="5.74347">
        <ele>1678.2</ele>
        <time>2020-02-08T10:58:41Z</time>
      </trkpt>
      <trkpt lat="45.29495" lon="5.74347">
        <ele>1678.6</ele>
        <time>2020-02-08T10:58:42Z</time>
      </trkpt>
      <trkpt lat="45.29498" lon="5.74348">
        <ele>1678.2</ele>
        <time>2020-02-08T10:58:43Z</time>
      </trkpt>
      <trkpt lat="45.29498" lon="5.74348">
        <ele>1678</ele>
        <time>2020-02-08T10:58:44Z</time>
      </trkpt>
      <trkpt lat="45.295" lon="5.74348">
        <ele>1678.2</ele>
        <time>2020-02-08T10:58:45Z</time>
      </trkpt>
      <trkpt lat="45.295" lon="5.74348">
        <ele>1678.6</ele>
        <time>2020-02-08T10:58:46Z</time>
      </trkpt>
      <trkpt lat="45.29502" lon="5.74347">
        <ele>1678.6</ele>
        <time>2020-02-08T10:58:47Z</time>
      </trkpt>
      <trkpt lat="45.29502" lon="5.74347">
        <ele>1679</ele>
        <time>2020-02-08T10:58:48Z</time>
      </trkpt>
      <trkpt lat="45.29502" lon="5.74347">
        <ele>1679</ele>
        <time>2020-02-08T10:58:49Z</time>
      </trkpt>
      <trkpt lat="45.29504" lon="5.74347">
        <ele>1679.4</ele>
        <time>2020-02-08T10:58:50Z</time>
      </trkpt>
      <trkpt lat="45.29504" lon="5.74347">
        <ele>1679.6</ele>
        <time>2020-02-08T10:58:51Z</time>
      </trkpt>
      <trkpt lat="45.29504" lon="5.74347">
        <ele>1679.8</ele>
        <time>2020-02-08T10:58:52Z</time>
      </trkpt>
      <trkpt lat="45.29506" lon="5.74348">
        <ele>1679.8</ele>
        <time>2020-02-08T10:58:53Z</time>
      </trkpt>
      <trkpt lat="45.29506" lon="5.74348">
        <ele>1680.6</ele>
        <time>2020-02-08T10:58:54Z</time>
      </trkpt>
      <trkpt lat="45.29506" lon="5.74348">
        <ele>1680.6</ele>
        <time>2020-02-08T10:58:55Z</time>
      </trkpt>
      <trkpt lat="45.29508" lon="5.74349">
        <ele>1680.6</ele>
        <time>2020-02-08T10:58:56Z</time>
      </trkpt>
      <trkpt lat="45.29508" lon="5.74349">
        <ele>1681.2</ele>
        <time>2020-02-08T10:58:57Z</time>
      </trkpt>
      <trkpt lat="45.29508" lon="5.74349">
        <ele>1681</ele>
        <time>2020-02-08T10:58:58Z</time>
      </trkpt>
      <trkpt lat="45.2951" lon="5.74348">
        <ele>1681</ele>
        <time>2020-02-08T10:58:59Z</time>
      </trkpt>
      <trkpt lat="45.2951" lon="5.74348">
        <ele>1681.4</ele>
        <time>2020-02-08T10:59:00Z</time>
      </trkpt>
      <trkpt lat="45.29512" lon="5.74348">
        <ele>1681</ele>
        <time>2020-02-08T10:59:01Z</time>
      </trkpt>
      <trkpt lat="45.29512" lon="5.74348">
        <ele>1681.6</ele>
        <time>2020-02-08T10:59:02Z</time>
      </trkpt>
      <trkpt lat="45.29515" lon="5.74348">
        <ele>1681.6</ele>
        <time>2020-02-08T10:59:03Z</time>
      </trkpt>
      <trkpt lat="45.29515" lon="5.74348">
        <ele>1681.8</ele>
        <time>2020-02-08T10:59:04Z</time>
      </trkpt>
      <trkpt lat="45.29517" lon="5.74347">
        <ele>1682</ele>
        <time>2020-02-08T10:59:05Z</time>
      </trkpt>
      <trkpt lat="45.29517" lon="5.74347">
        <ele>1682.4</ele>
        <time>2020-02-08T10:59:06Z</time>
      </trkpt>
      <trkpt lat="45.29519" lon="5.74348">
        <ele>1682.6</ele>
        <time>2020-02-08T10:59:07Z</time>
      </trkpt>
      <trkpt lat="45.29519" lon="5.74348">
        <ele>1682.8</ele>
        <time>2020-02-08T10:59:08Z</time>
      </trkpt>
      <trkpt lat="45.29519" lon="5.74348">
        <ele>1683.2</ele>
        <time>2020-02-08T10:59:09Z</time>
      </trkpt>
      <trkpt lat="45.29521" lon="5.74348">
        <ele>1683</ele>
        <time>2020-02-08T10:59:10Z</time>
      </trkpt>
      <trkpt lat="45.29521" lon="5.74348">
        <ele>1683.8</ele>
        <time>2020-02-08T10:59:11Z</time>
      </trkpt>
      <trkpt lat="45.29521" lon="5.74348">
        <ele>1683.8</ele>
        <time>2020-02-08T10:59:12Z</time>
      </trkpt>
      <trkpt lat="45.29524" lon="5.74347">
        <ele>1684.4</ele>
        <time>2020-02-08T10:59:13Z</time>
      </trkpt>
      <trkpt lat="45.29524" lon="5.74347">
        <ele>1684.4</ele>
        <time>2020-02-08T10:59:14Z</time>
      </trkpt>
      <trkpt lat="45.29527" lon="5.74347">
        <ele>1685</ele>
        <time>2020-02-08T10:59:15Z</time>
      </trkpt>
      <trkpt lat="45.29527" lon="5.74347">
        <ele>1684.8</ele>
        <time>2020-02-08T10:59:16Z</time>
      </trkpt>
      <trkpt lat="45.2953" lon="5.74347">
        <ele>1685.2</ele>
        <time>2020-02-08T10:59:17Z</time>
      </trkpt>
      <trkpt lat="45.2953" lon="5.74347">
        <ele>1685.6</ele>
        <time>2020-02-08T10:59:18Z</time>
      </trkpt>
      <trkpt lat="45.29532" lon="5.74347">
        <ele>1686</ele>
        <time>2020-02-08T10:59:19Z</time>
      </trkpt>
      <trkpt lat="45.29532" lon="5.74347">
        <ele>1686</ele>
        <time>2020-02-08T10:59:20Z</time>
      </trkpt>
      <trkpt lat="45.29534" lon="5.74348">
        <ele>1686.2</ele>
        <time>2020-02-08T10:59:21Z</time>
      </trkpt>
      <trkpt lat="45.29534" lon="5.74348">
        <ele>1686.6</ele>
        <time>2020-02-08T10:59:22Z</time>
      </trkpt>
      <trkpt lat="45.29536" lon="5.74349">
        <ele>1687</ele>
        <time>2020-02-08T10:59:23Z</time>
      </trkpt>
      <trkpt lat="45.29536" lon="5.74349">
        <ele>1687.2</ele>
        <time>2020-02-08T10:59:24Z</time>
      </trkpt>
      <trkpt lat="45.29536" lon="5.74349">
        <ele>1687</ele>
        <time>2020-02-08T10:59:25Z</time>
      </trkpt>
      <trkpt lat="45.29539" lon="5.7435">
        <ele>1687.2</ele>
        <time>2020-02-08T10:59:26Z</time>
      </trkpt>
      <trkpt lat="45.29539" lon="5.7435">
        <ele>1687.4</ele>
        <time>2020-02-08T10:59:27Z</time>
      </trkpt>
      <trkpt lat="45.29541" lon="5.7435">
        <ele>1688.2</ele>
        <time>2020-02-08T10:59:28Z</time>
      </trkpt>
      <trkpt lat="45.29541" lon="5.7435">
        <ele>1688</ele>
        <time>2020-02-08T10:59:29Z</time>
      </trkpt>
      <trkpt lat="45.29544" lon="5.74351">
        <ele>1688.2</ele>
        <time>2020-02-08T10:59:30Z</time>
      </trkpt>
      <trkpt lat="45.29544" lon="5.74351">
        <ele>1688.4</ele>
        <time>2020-02-08T10:59:31Z</time>
      </trkpt>
      <trkpt lat="45.29546" lon="5.74351">
        <ele>1688.8</ele>
        <time>2020-02-08T10:59:32Z</time>
      </trkpt>
      <trkpt lat="45.29546" lon="5.74351">
        <ele>1689.2</ele>
        <time>2020-02-08T10:59:33Z</time>
      </trkpt>
      <trkpt lat="45.29548" lon="5.74353">
        <ele>1689.2</ele>
        <time>2020-02-08T10:59:34Z</time>
      </trkpt>
      <trkpt lat="45.29548" lon="5.74353">
        <ele>1689.4</ele>
        <time>2020-02-08T10:59:35Z</time>
      </trkpt>
      <trkpt lat="45.2955" lon="5.74354">
        <ele>1689.6</ele>
        <time>2020-02-08T10:59:36Z</time>
      </trkpt>
      <trkpt lat="45.2955" lon="5.74354">
        <ele>1690.4</ele>
        <time>2020-02-08T10:59:37Z</time>
      </trkpt>
      <trkpt lat="45.2955" lon="5.74354">
        <ele>1691</ele>
        <time>2020-02-08T10:59:38Z</time>
      </trkpt>
      <trkpt lat="45.29552" lon="5.74357">
        <ele>1691.2</ele>
        <time>2020-02-08T10:59:39Z</time>
      </trkpt>
      <trkpt lat="45.29552" lon="5.74357">
        <ele>1690.8</ele>
        <time>2020-02-08T10:59:40Z</time>
      </trkpt>
      <trkpt lat="45.29552" lon="5.74357">
        <ele>1691</ele>
        <time>2020-02-08T10:59:41Z</time>
      </trkpt>
      <trkpt lat="45.29554" lon="5.74357">
        <ele>1691</ele>
        <time>2020-02-08T10:59:42Z</time>
      </trkpt>
      <trkpt lat="45.29554" lon="5.74357">
        <ele>1691.2</ele>
        <time>2020-02-08T10:59:43Z</time>
      </trkpt>
      <trkpt lat="45.29557" lon="5.74356">
        <ele>1691.6</ele>
        <time>2020-02-08T10:59:44Z</time>
      </trkpt>
      <trkpt lat="45.29557" lon="5.74356">
        <ele>1691.4</ele>
        <time>2020-02-08T10:59:45Z</time>
      </trkpt>
      <trkpt lat="45.29557" lon="5.74356">
        <ele>1691.6</ele>
        <time>2020-02-08T10:59:46Z</time>
      </trkpt>
      <trkpt lat="45.29559" lon="5.74355">
        <ele>1692</ele>
        <time>2020-02-08T10:59:47Z</time>
      </trkpt>
      <trkpt lat="45.29559" lon="5.74355">
        <ele>1692.4</ele>
        <time>2020-02-08T10:59:48Z</time>
      </trkpt>
      <trkpt lat="45.29559" lon="5.74355">
        <ele>1693</ele>
        <time>2020-02-08T10:59:49Z</time>
      </trkpt>
      <trkpt lat="45.2956" lon="5.74355">
        <ele>1693.2</ele>
        <time>2020-02-08T10:59:50Z</time>
      </trkpt>
      <trkpt lat="45.29561" lon="5.74356">
        <ele>1693.8</ele>
        <time>2020-02-08T10:59:51Z</time>
      </trkpt>
      <trkpt lat="45.29562" lon="5.74356">
        <ele>1694</ele>
        <time>2020-02-08T10:59:52Z</time>
      </trkpt>
      <trkpt lat="45.29562" lon="5.74357">
        <ele>1694.4</ele>
        <time>2020-02-08T10:59:53Z</time>
      </trkpt>
      <trkpt lat="45.29564" lon="5.74359">
        <ele>1694.6</ele>
        <time>2020-02-08T10:59:54Z</time>
      </trkpt>
      <trkpt lat="45.29564" lon="5.74359">
        <ele>1694.8</ele>
        <time>2020-02-08T10:59:55Z</time>
      </trkpt>
      <trkpt lat="45.29566" lon="5.74361">
        <ele>1695.2</ele>
        <time>2020-02-08T10:59:56Z</time>
      </trkpt>
      <trkpt lat="45.29566" lon="5.74361">
        <ele>1694.8</ele>
        <time>2020-02-08T10:59:57Z</time>
      </trkpt>
      <trkpt lat="45.29566" lon="5.74361">
        <ele>1695.4</ele>
        <time>2020-02-08T10:59:58Z</time>
      </trkpt>
      <trkpt lat="45.29569" lon="5.74361">
        <ele>1695</ele>
        <time>2020-02-08T10:59:59Z</time>
      </trkpt>
      <trkpt lat="45.29569" lon="5.74361">
        <ele>1695.2</ele>
        <time>2020-02-08T11:00:00Z</time>
      </trkpt>
      <trkpt lat="45.2957" lon="5.74362">
        <ele>1695.2</ele>
        <time>2020-02-08T11:00:01Z</time>
      </trkpt>
      <trkpt lat="45.2957" lon="5.74362">
        <ele>1695.6</ele>
        <time>2020-02-08T11:00:02Z</time>
      </trkpt>
      <trkpt lat="45.2957" lon="5.74362">
        <ele>1695.8</ele>
        <time>2020-02-08T11:00:03Z</time>
      </trkpt>
      <trkpt lat="45.29572" lon="5.74362">
        <ele>1695.4</ele>
        <time>2020-02-08T11:00:04Z</time>
      </trkpt>
      <trkpt lat="45.29573" lon="5.74363">
        <ele>1695.6</ele>
        <time>2020-02-08T11:00:05Z</time>
      </trkpt>
      <trkpt lat="45.29574" lon="5.74363">
        <ele>1696</ele>
        <time>2020-02-08T11:00:06Z</time>
      </trkpt>
      <trkpt lat="45.29575" lon="5.74364">
        <ele>1696.4</ele>
        <time>2020-02-08T11:00:07Z</time>
      </trkpt>
      <trkpt lat="45.29577" lon="5.74364">
        <ele>1696.6</ele>
        <time>2020-02-08T11:00:08Z</time>
      </trkpt>
      <trkpt lat="45.29578" lon="5.74364">
        <ele>1697.2</ele>
        <time>2020-02-08T11:00:09Z</time>
      </trkpt>
      <trkpt lat="45.2958" lon="5.74365">
        <ele>1697.2</ele>
        <time>2020-02-08T11:00:10Z</time>
      </trkpt>
      <trkpt lat="45.29582" lon="5.74365">
        <ele>1697.8</ele>
        <time>2020-02-08T11:00:11Z</time>
      </trkpt>
      <trkpt lat="45.29583" lon="5.74365">
        <ele>1698.2</ele>
        <time>2020-02-08T11:00:12Z</time>
      </trkpt>
      <trkpt lat="45.29585" lon="5.74365">
        <ele>1698.6</ele>
        <time>2020-02-08T11:00:13Z</time>
      </trkpt>
      <trkpt lat="45.29586" lon="5.74365">
        <ele>1698.6</ele>
        <time>2020-02-08T11:00:14Z</time>
      </trkpt>
      <trkpt lat="45.29586" lon="5.74365">
        <ele>1698.8</ele>
        <time>2020-02-08T11:00:15Z</time>
      </trkpt>
      <trkpt lat="45.29588" lon="5.74367">
        <ele>1699</ele>
        <time>2020-02-08T11:00:16Z</time>
      </trkpt>
      <trkpt lat="45.29588" lon="5.74367">
        <ele>1699.8</ele>
        <time>2020-02-08T11:00:17Z</time>
      </trkpt>
      <trkpt lat="45.29588" lon="5.74367">
        <ele>1700</ele>
        <time>2020-02-08T11:00:18Z</time>
      </trkpt>
      <trkpt lat="45.29591" lon="5.74366">
        <ele>1700</ele>
        <time>2020-02-08T11:00:19Z</time>
      </trkpt>
      <trkpt lat="45.29591" lon="5.74366">
        <ele>1700.8</ele>
        <time>2020-02-08T11:00:20Z</time>
      </trkpt>
      <trkpt lat="45.29591" lon="5.74366">
        <ele>1700.6</ele>
        <time>2020-02-08T11:00:21Z</time>
      </trkpt>
      <trkpt lat="45.29593" lon="5.74367">
        <ele>1701.2</ele>
        <time>2020-02-08T11:00:22Z</time>
      </trkpt>
      <trkpt lat="45.29593" lon="5.74367">
        <ele>1701.2</ele>
        <time>2020-02-08T11:00:23Z</time>
      </trkpt>
      <trkpt lat="45.29594" lon="5.74368">
        <ele>1701.4</ele>
        <time>2020-02-08T11:00:24Z</time>
      </trkpt>
      <trkpt lat="45.29594" lon="5.74368">
        <ele>1701.8</ele>
        <time>2020-02-08T11:00:25Z</time>
      </trkpt>
      <trkpt lat="45.29597" lon="5.74369">
        <ele>1701.8</ele>
        <time>2020-02-08T11:00:26Z</time>
      </trkpt>
      <trkpt lat="45.29597" lon="5.74369">
        <ele>1702</ele>
        <time>2020-02-08T11:00:27Z</time>
      </trkpt>
      <trkpt lat="45.29599" lon="5.7437">
        <ele>1702.4</ele>
        <time>2020-02-08T11:00:28Z</time>
      </trkpt>
      <trkpt lat="45.29599" lon="5.7437">
        <ele>1702.2</ele>
        <time>2020-02-08T11:00:29Z</time>
      </trkpt>
      <trkpt lat="45.29601" lon="5.7437">
        <ele>1702.8</ele>
        <time>2020-02-08T11:00:30Z</time>
      </trkpt>
      <trkpt lat="45.29601" lon="5.7437">
        <ele>1702.8</ele>
        <time>2020-02-08T11:00:31Z</time>
      </trkpt>
      <trkpt lat="45.29603" lon="5.7437">
        <ele>1703.4</ele>
        <time>2020-02-08T11:00:32Z</time>
      </trkpt>
      <trkpt lat="45.29603" lon="5.7437">
        <ele>1703.4</ele>
        <time>2020-02-08T11:00:33Z</time>
      </trkpt>
      <trkpt lat="45.29606" lon="5.74371">
        <ele>1703.4</ele>
        <time>2020-02-08T11:00:34Z</time>
      </trkpt>
      <trkpt lat="45.29606" lon="5.74371">
        <ele>1703.8</ele>
        <time>2020-02-08T11:00:35Z</time>
      </trkpt>
      <trkpt lat="45.29608" lon="5.74372">
        <ele>1703.6</ele>
        <time>2020-02-08T11:00:36Z</time>
      </trkpt>
      <trkpt lat="45.29608" lon="5.74372">
        <ele>1704.2</ele>
        <time>2020-02-08T11:00:37Z</time>
      </trkpt>
      <trkpt lat="45.2961" lon="5.74374">
        <ele>1704.2</ele>
        <time>2020-02-08T11:00:38Z</time>
      </trkpt>
      <trkpt lat="45.2961" lon="5.74374">
        <ele>1704.4</ele>
        <time>2020-02-08T11:00:39Z</time>
      </trkpt>
      <trkpt lat="45.29612" lon="5.74375">
        <ele>1704.4</ele>
        <time>2020-02-08T11:00:40Z</time>
      </trkpt>
      <trkpt lat="45.29612" lon="5.74375">
        <ele>1705</ele>
        <time>2020-02-08T11:00:41Z</time>
      </trkpt>
      <trkpt lat="45.29614" lon="5.74376">
        <ele>1704.6</ele>
        <time>2020-02-08T11:00:42Z</time>
      </trkpt>
      <trkpt lat="45.29614" lon="5.74376">
        <ele>1704.8</ele>
        <time>2020-02-08T11:00:43Z</time>
      </trkpt>
      <trkpt lat="45.29616" lon="5.74376">
        <ele>1705</ele>
        <time>2020-02-08T11:00:44Z</time>
      </trkpt>
      <trkpt lat="45.29616" lon="5.74376">
        <ele>1705.2</ele>
        <time>2020-02-08T11:00:45Z</time>
      </trkpt>
      <trkpt lat="45.29619" lon="5.74376">
        <ele>1705.6</ele>
        <time>2020-02-08T11:00:46Z</time>
      </trkpt>
      <trkpt lat="45.29619" lon="5.74376">
        <ele>1706</ele>
        <time>2020-02-08T11:00:47Z</time>
      </trkpt>
      <trkpt lat="45.29621" lon="5.74376">
        <ele>1706.4</ele>
        <time>2020-02-08T11:00:48Z</time>
      </trkpt>
      <trkpt lat="45.29621" lon="5.74376">
        <ele>1706.6</ele>
        <time>2020-02-08T11:00:49Z</time>
      </trkpt>
      <trkpt lat="45.29621" lon="5.74376">
        <ele>1706.8</ele>
        <time>2020-02-08T11:00:50Z</time>
      </trkpt>
      <trkpt lat="45.29623" lon="5.74376">
        <ele>1707</ele>
        <time>2020-02-08T11:00:51Z</time>
      </trkpt>
      <trkpt lat="45.29625" lon="5.74377">
        <ele>1707.2</ele>
        <time>2020-02-08T11:00:52Z</time>
      </trkpt>
      <trkpt lat="45.29627" lon="5.74377">
        <ele>1707.2</ele>
        <time>2020-02-08T11:00:53Z</time>
      </trkpt>
      <trkpt lat="45.29628" lon="5.74378">
        <ele>1707</ele>
        <time>2020-02-08T11:00:54Z</time>
      </trkpt>
      <trkpt lat="45.2963" lon="5.74378">
        <ele>1707.2</ele>
        <time>2020-02-08T11:00:55Z</time>
      </trkpt>
      <trkpt lat="45.29632" lon="5.74379">
        <ele>1707.4</ele>
        <time>2020-02-08T11:00:56Z</time>
      </trkpt>
      <trkpt lat="45.29634" lon="5.74379">
        <ele>1707.6</ele>
        <time>2020-02-08T11:00:57Z</time>
      </trkpt>
      <trkpt lat="45.29634" lon="5.74379">
        <ele>1707.8</ele>
        <time>2020-02-08T11:00:58Z</time>
      </trkpt>
      <trkpt lat="45.29637" lon="5.74381">
        <ele>1708.2</ele>
        <time>2020-02-08T11:00:59Z</time>
      </trkpt>
      <trkpt lat="45.29639" lon="5.74382">
        <ele>1708.6</ele>
        <time>2020-02-08T11:01:00Z</time>
      </trkpt>
      <trkpt lat="45.29639" lon="5.74382">
        <ele>1709</ele>
        <time>2020-02-08T11:01:01Z</time>
      </trkpt>
      <trkpt lat="45.29642" lon="5.74383">
        <ele>1708.8</ele>
        <time>2020-02-08T11:01:02Z</time>
      </trkpt>
      <trkpt lat="45.29642" lon="5.74383">
        <ele>1708.8</ele>
        <time>2020-02-08T11:01:03Z</time>
      </trkpt>
      <trkpt lat="45.29645" lon="5.74384">
        <ele>1709</ele>
        <time>2020-02-08T11:01:04Z</time>
      </trkpt>
      <trkpt lat="45.29645" lon="5.74384">
        <ele>1709.2</ele>
        <time>2020-02-08T11:01:05Z</time>
      </trkpt>
      <trkpt lat="45.29648" lon="5.74386">
        <ele>1709.4</ele>
        <time>2020-02-08T11:01:06Z</time>
      </trkpt>
      <trkpt lat="45.29648" lon="5.74386">
        <ele>1709.2</ele>
        <time>2020-02-08T11:01:07Z</time>
      </trkpt>
      <trkpt lat="45.29651" lon="5.74388">
        <ele>1709.2</ele>
        <time>2020-02-08T11:01:08Z</time>
      </trkpt>
      <trkpt lat="45.29651" lon="5.74388">
        <ele>1709.6</ele>
        <time>2020-02-08T11:01:09Z</time>
      </trkpt>
      <trkpt lat="45.29651" lon="5.74388">
        <ele>1709.6</ele>
        <time>2020-02-08T11:01:10Z</time>
      </trkpt>
      <trkpt lat="45.29656" lon="5.74387">
        <ele>1710</ele>
        <time>2020-02-08T11:01:11Z</time>
      </trkpt>
      <trkpt lat="45.29657" lon="5.74386">
        <ele>1710</ele>
        <time>2020-02-08T11:01:12Z</time>
      </trkpt>
      <trkpt lat="45.29659" lon="5.74385">
        <ele>1710.2</ele>
        <time>2020-02-08T11:01:13Z</time>
      </trkpt>
      <trkpt lat="45.29661" lon="5.74384">
        <ele>1709.8</ele>
        <time>2020-02-08T11:01:14Z</time>
      </trkpt>
      <trkpt lat="45.29661" lon="5.74384">
        <ele>1709.8</ele>
        <time>2020-02-08T11:01:15Z</time>
      </trkpt>
      <trkpt lat="45.29667" lon="5.74383">
        <ele>1709.4</ele>
        <time>2020-02-08T11:01:16Z</time>
      </trkpt>
      <trkpt lat="45.2967" lon="5.74382">
        <ele>1709.4</ele>
        <time>2020-02-08T11:01:17Z</time>
      </trkpt>
      <trkpt lat="45.29672" lon="5.74382">
        <ele>1709.4</ele>
        <time>2020-02-08T11:01:18Z</time>
      </trkpt>
      <trkpt lat="45.29674" lon="5.74382">
        <ele>1709</ele>
        <time>2020-02-08T11:01:19Z</time>
      </trkpt>
      <trkpt lat="45.29677" lon="5.74381">
        <ele>1708.8</ele>
        <time>2020-02-08T11:01:20Z</time>
      </trkpt>
      <trkpt lat="45.29679" lon="5.7438">
        <ele>1708.8</ele>
        <time>2020-02-08T11:01:21Z</time>
      </trkpt>
      <trkpt lat="45.29681" lon="5.7438">
        <ele>1708.2</ele>
        <time>2020-02-08T11:01:22Z</time>
      </trkpt>
      <trkpt lat="45.29683" lon="5.74378">
        <ele>1708</ele>
        <time>2020-02-08T11:01:23Z</time>
      </trkpt>
      <trkpt lat="45.29685" lon="5.74376">
        <ele>1707.8</ele>
        <time>2020-02-08T11:01:24Z</time>
      </trkpt>
      <trkpt lat="45.29686" lon="5.74375">
        <ele>1707.6</ele>
        <time>2020-02-08T11:01:25Z</time>
      </trkpt>
      <trkpt lat="45.29686" lon="5.74375">
        <ele>1707.6</ele>
        <time>2020-02-08T11:01:26Z</time>
      </trkpt>
      <trkpt lat="45.29689" lon="5.74371">
        <ele>1707.4</ele>
        <time>2020-02-08T11:01:27Z</time>
      </trkpt>
      <trkpt lat="45.2969" lon="5.7437">
        <ele>1707.4</ele>
        <time>2020-02-08T11:01:28Z</time>
      </trkpt>
      <trkpt lat="45.2969" lon="5.7437">
        <ele>1707.4</ele>
        <time>2020-02-08T11:01:29Z</time>
      </trkpt>
      <trkpt lat="45.29692" lon="5.74366">
        <ele>1707.8</ele>
        <time>2020-02-08T11:01:30Z</time>
      </trkpt>
      <trkpt lat="45.29692" lon="5.74366">
        <ele>1707.8</ele>
        <time>2020-02-08T11:01:31Z</time>
      </trkpt>
      <trkpt lat="45.29692" lon="5.74366">
        <ele>1707.8</ele>
        <time>2020-02-08T11:01:32Z</time>
      </trkpt>
      <trkpt lat="45.29695" lon="5.74366">
        <ele>1707.8</ele>
        <time>2020-02-08T11:01:33Z</time>
      </trkpt>
      <trkpt lat="45.29695" lon="5.74366">
        <ele>1707.8</ele>
        <time>2020-02-08T11:01:34Z</time>
      </trkpt>
      <trkpt lat="45.29696" lon="5.74363">
        <ele>1707.8</ele>
        <time>2020-02-08T11:01:35Z</time>
      </trkpt>
      <trkpt lat="45.29696" lon="5.74363">
        <ele>1707.8</ele>
        <time>2020-02-08T11:01:36Z</time>
      </trkpt>
      <trkpt lat="45.29699" lon="5.7436">
        <ele>1707.4</ele>
        <time>2020-02-08T11:01:37Z</time>
      </trkpt>
      <trkpt lat="45.29701" lon="5.74358">
        <ele>1707.4</ele>
        <time>2020-02-08T11:01:38Z</time>
      </trkpt>
      <trkpt lat="45.29701" lon="5.74358">
        <ele>1707.2</ele>
        <time>2020-02-08T11:01:39Z</time>
      </trkpt>
      <trkpt lat="45.29703" lon="5.74355">
        <ele>1707.2</ele>
        <time>2020-02-08T11:01:40Z</time>
      </trkpt>
      <trkpt lat="45.29704" lon="5.74352">
        <ele>1707</ele>
        <time>2020-02-08T11:01:41Z</time>
      </trkpt>
      <trkpt lat="45.29704" lon="5.74352">
        <ele>1707.2</ele>
        <time>2020-02-08T11:01:42Z</time>
      </trkpt>
      <trkpt lat="45.29706" lon="5.74349">
        <ele>1707</ele>
        <time>2020-02-08T11:01:43Z</time>
      </trkpt>
      <trkpt lat="45.29708" lon="5.74346">
        <ele>1707</ele>
        <time>2020-02-08T11:01:44Z</time>
      </trkpt>
      <trkpt lat="45.2971" lon="5.74343">
        <ele>1706.8</ele>
        <time>2020-02-08T11:01:45Z</time>
      </trkpt>
      <trkpt lat="45.29712" lon="5.74341">
        <ele>1706.8</ele>
        <time>2020-02-08T11:01:46Z</time>
      </trkpt>
      <trkpt lat="45.29714" lon="5.74339">
        <ele>1706.2</ele>
        <time>2020-02-08T11:01:47Z</time>
      </trkpt>
      <trkpt lat="45.29714" lon="5.74339">
        <ele>1705.8</ele>
        <time>2020-02-08T11:01:48Z</time>
      </trkpt>
      <trkpt lat="45.29717" lon="5.74336">
        <ele>1705.8</ele>
        <time>2020-02-08T11:01:49Z</time>
      </trkpt>
      <trkpt lat="45.29719" lon="5.74335">
        <ele>1706</ele>
        <time>2020-02-08T11:01:50Z</time>
      </trkpt>
      <trkpt lat="45.2972" lon="5.74334">
        <ele>1706.4</ele>
        <time>2020-02-08T11:01:51Z</time>
      </trkpt>
      <trkpt lat="45.2972" lon="5.74334">
        <ele>1706.6</ele>
        <time>2020-02-08T11:01:52Z</time>
      </trkpt>
      <trkpt lat="45.2972" lon="5.74334">
        <ele>1707</ele>
        <time>2020-02-08T11:01:53Z</time>
      </trkpt>
      <trkpt lat="45.29722" lon="5.74332">
        <ele>1707.2</ele>
        <time>2020-02-08T11:01:54Z</time>
      </trkpt>
      <trkpt lat="45.29724" lon="5.74331">
        <ele>1707.4</ele>
        <time>2020-02-08T11:01:55Z</time>
      </trkpt>
      <trkpt lat="45.29726" lon="5.74329">
        <ele>1707.2</ele>
        <time>2020-02-08T11:01:56Z</time>
      </trkpt>
      <trkpt lat="45.29728" lon="5.74327">
        <ele>1707</ele>
        <time>2020-02-08T11:01:57Z</time>
      </trkpt>
      <trkpt lat="45.2973" lon="5.74326">
        <ele>1707</ele>
        <time>2020-02-08T11:01:58Z</time>
      </trkpt>
      <trkpt lat="45.29732" lon="5.74324">
        <ele>1707.4</ele>
        <time>2020-02-08T11:01:59Z</time>
      </trkpt>
      <trkpt lat="45.29736" lon="5.74321">
        <ele>1707.4</ele>
        <time>2020-02-08T11:02:00Z</time>
      </trkpt>
      <trkpt lat="45.29737" lon="5.7432">
        <ele>1707.6</ele>
        <time>2020-02-08T11:02:01Z</time>
      </trkpt>
      <trkpt lat="45.29738" lon="5.74318">
        <ele>1707.4</ele>
        <time>2020-02-08T11:02:02Z</time>
      </trkpt>
      <trkpt lat="45.2974" lon="5.74316">
        <ele>1707.4</ele>
        <time>2020-02-08T11:02:03Z</time>
      </trkpt>
      <trkpt lat="45.29741" lon="5.74315">
        <ele>1707.4</ele>
        <time>2020-02-08T11:02:04Z</time>
      </trkpt>
      <trkpt lat="45.29742" lon="5.74312">
        <ele>1707.2</ele>
        <time>2020-02-08T11:02:05Z</time>
      </trkpt>
      <trkpt lat="45.29742" lon="5.7431">
        <ele>1707</ele>
        <time>2020-02-08T11:02:06Z</time>
      </trkpt>
      <trkpt lat="45.29742" lon="5.7431">
        <ele>1706.8</ele>
        <time>2020-02-08T11:02:07Z</time>
      </trkpt>
      <trkpt lat="45.29744" lon="5.74305">
        <ele>1706.6</ele>
        <time>2020-02-08T11:02:08Z</time>
      </trkpt>
      <trkpt lat="45.29746" lon="5.74303">
        <ele>1706.2</ele>
        <time>2020-02-08T11:02:09Z</time>
      </trkpt>
      <trkpt lat="45.29746" lon="5.74303">
        <ele>1705.4</ele>
        <time>2020-02-08T11:02:10Z</time>
      </trkpt>
      <trkpt lat="45.29746" lon="5.74303">
        <ele>1705</ele>
        <time>2020-02-08T11:02:11Z</time>
      </trkpt>
      <trkpt lat="45.29755" lon="5.74287">
        <ele>1704</ele>
        <time>2020-02-08T11:02:12Z</time>
      </trkpt>
      <trkpt lat="45.29758" lon="5.74283">
        <ele>1702.8</ele>
        <time>2020-02-08T11:02:13Z</time>
      </trkpt>
      <trkpt lat="45.29762" lon="5.74279">
        <ele>1701.4</ele>
        <time>2020-02-08T11:02:14Z</time>
      </trkpt>
      <trkpt lat="45.29764" lon="5.74276">
        <ele>1700.6</ele>
        <time>2020-02-08T11:02:15Z</time>
      </trkpt>
      <trkpt lat="45.29766" lon="5.74273">
        <ele>1700.2</ele>
        <time>2020-02-08T11:02:16Z</time>
      </trkpt>
      <trkpt lat="45.2977" lon="5.74267">
        <ele>1699.2</ele>
        <time>2020-02-08T11:02:17Z</time>
      </trkpt>
      <trkpt lat="45.2977" lon="5.74267">
        <ele>1698.8</ele>
        <time>2020-02-08T11:02:18Z</time>
      </trkpt>
      <trkpt lat="45.29772" lon="5.74265">
        <ele>1698.6</ele>
        <time>2020-02-08T11:02:19Z</time>
      </trkpt>
      <trkpt lat="45.29774" lon="5.74262">
        <ele>1698.6</ele>
        <time>2020-02-08T11:02:20Z</time>
      </trkpt>
      <trkpt lat="45.29775" lon="5.7426">
        <ele>1698.6</ele>
        <time>2020-02-08T11:02:21Z</time>
      </trkpt>
      <trkpt lat="45.29777" lon="5.74258">
        <ele>1698.8</ele>
        <time>2020-02-08T11:02:22Z</time>
      </trkpt>
      <trkpt lat="45.2978" lon="5.74257">
        <ele>1699</ele>
        <time>2020-02-08T11:02:23Z</time>
      </trkpt>
      <trkpt lat="45.29783" lon="5.74256">
        <ele>1699</ele>
        <time>2020-02-08T11:02:24Z</time>
      </trkpt>
      <trkpt lat="45.29786" lon="5.74256">
        <ele>1698.6</ele>
        <time>2020-02-08T11:02:25Z</time>
      </trkpt>
      <trkpt lat="45.29789" lon="5.74255">
        <ele>1698.4</ele>
        <time>2020-02-08T11:02:26Z</time>
      </trkpt>
      <trkpt lat="45.29789" lon="5.74255">
        <ele>1698.6</ele>
        <time>2020-02-08T11:02:27Z</time>
      </trkpt>
      <trkpt lat="45.29792" lon="5.74255">
        <ele>1698.8</ele>
        <time>2020-02-08T11:02:28Z</time>
      </trkpt>
      <trkpt lat="45.29795" lon="5.74254">
        <ele>1699.2</ele>
        <time>2020-02-08T11:02:29Z</time>
      </trkpt>
      <trkpt lat="45.29798" lon="5.74254">
        <ele>1699.2</ele>
        <time>2020-02-08T11:02:30Z</time>
      </trkpt>
      <trkpt lat="45.29801" lon="5.74253">
        <ele>1699.2</ele>
        <time>2020-02-08T11:02:31Z</time>
      </trkpt>
      <trkpt lat="45.29801" lon="5.74253">
        <ele>1699.2</ele>
        <time>2020-02-08T11:02:32Z</time>
      </trkpt>
      <trkpt lat="45.29804" lon="5.74255">
        <ele>1699</ele>
        <time>2020-02-08T11:02:33Z</time>
      </trkpt>
      <trkpt lat="45.29804" lon="5.74255">
        <ele>1699.6</ele>
        <time>2020-02-08T11:02:34Z</time>
      </trkpt>
      <trkpt lat="45.29806" lon="5.74255">
        <ele>1700</ele>
        <time>2020-02-08T11:02:35Z</time>
      </trkpt>
      <trkpt lat="45.29806" lon="5.74255">
        <ele>1700.2</ele>
        <time>2020-02-08T11:02:36Z</time>
      </trkpt>
      <trkpt lat="45.29808" lon="5.74254">
        <ele>1700.6</ele>
        <time>2020-02-08T11:02:37Z</time>
      </trkpt>
      <trkpt lat="45.29808" lon="5.74254">
        <ele>1700.8</ele>
        <time>2020-02-08T11:02:38Z</time>
      </trkpt>
      <trkpt lat="45.2981" lon="5.74254">
        <ele>1700.8</ele>
        <time>2020-02-08T11:02:39Z</time>
      </trkpt>
      <trkpt lat="45.2981" lon="5.74254">
        <ele>1701.2</ele>
        <time>2020-02-08T11:02:40Z</time>
      </trkpt>
      <trkpt lat="45.29813" lon="5.74255">
        <ele>1701</ele>
        <time>2020-02-08T11:02:41Z</time>
      </trkpt>
      <trkpt lat="45.29813" lon="5.74255">
        <ele>1701</ele>
        <time>2020-02-08T11:02:42Z</time>
      </trkpt>
      <trkpt lat="45.29817" lon="5.74256">
        <ele>1701.4</ele>
        <time>2020-02-08T11:02:43Z</time>
      </trkpt>
      <trkpt lat="45.29817" lon="5.74256">
        <ele>1701.6</ele>
        <time>2020-02-08T11:02:44Z</time>
      </trkpt>
      <trkpt lat="45.29819" lon="5.74257">
        <ele>1702</ele>
        <time>2020-02-08T11:02:45Z</time>
      </trkpt>
      <trkpt lat="45.29819" lon="5.74257">
        <ele>1701.8</ele>
        <time>2020-02-08T11:02:46Z</time>
      </trkpt>
      <trkpt lat="45.29822" lon="5.74259">
        <ele>1702.2</ele>
        <time>2020-02-08T11:02:47Z</time>
      </trkpt>
      <trkpt lat="45.29822" lon="5.74259">
        <ele>1702.4</ele>
        <time>2020-02-08T11:02:48Z</time>
      </trkpt>
      <trkpt lat="45.29824" lon="5.7426">
        <ele>1702.6</ele>
        <time>2020-02-08T11:02:49Z</time>
      </trkpt>
      <trkpt lat="45.29824" lon="5.7426">
        <ele>1702.8</ele>
        <time>2020-02-08T11:02:50Z</time>
      </trkpt>
      <trkpt lat="45.29827" lon="5.7426">
        <ele>1703</ele>
        <time>2020-02-08T11:02:51Z</time>
      </trkpt>
      <trkpt lat="45.29827" lon="5.7426">
        <ele>1703.4</ele>
        <time>2020-02-08T11:02:52Z</time>
      </trkpt>
      <trkpt lat="45.2983" lon="5.74261">
        <ele>1703.4</ele>
        <time>2020-02-08T11:02:53Z</time>
      </trkpt>
      <trkpt lat="45.2983" lon="5.74261">
        <ele>1703.6</ele>
        <time>2020-02-08T11:02:54Z</time>
      </trkpt>
      <trkpt lat="45.29833" lon="5.74263">
        <ele>1703.6</ele>
        <time>2020-02-08T11:02:55Z</time>
      </trkpt>
      <trkpt lat="45.29833" lon="5.74263">
        <ele>1703.4</ele>
        <time>2020-02-08T11:02:56Z</time>
      </trkpt>
      <trkpt lat="45.29836" lon="5.74264">
        <ele>1703.8</ele>
        <time>2020-02-08T11:02:57Z</time>
      </trkpt>
      <trkpt lat="45.29838" lon="5.74265">
        <ele>1704.2</ele>
        <time>2020-02-08T11:02:58Z</time>
      </trkpt>
      <trkpt lat="45.29838" lon="5.74265">
        <ele>1704</ele>
        <time>2020-02-08T11:02:59Z</time>
      </trkpt>
      <trkpt lat="45.29841" lon="5.74268">
        <ele>1704</ele>
        <time>2020-02-08T11:03:00Z</time>
      </trkpt>
      <trkpt lat="45.29844" lon="5.7427">
        <ele>1704</ele>
        <time>2020-02-08T11:03:01Z</time>
      </trkpt>
      <trkpt lat="45.29845" lon="5.7427">
        <ele>1703.8</ele>
        <time>2020-02-08T11:03:02Z</time>
      </trkpt>
      <trkpt lat="45.29847" lon="5.74271">
        <ele>1703.6</ele>
        <time>2020-02-08T11:03:03Z</time>
      </trkpt>
      <trkpt lat="45.2985" lon="5.74272">
        <ele>1703.6</ele>
        <time>2020-02-08T11:03:04Z</time>
      </trkpt>
      <trkpt lat="45.2985" lon="5.74272">
        <ele>1703.4</ele>
        <time>2020-02-08T11:03:05Z</time>
      </trkpt>
      <trkpt lat="45.29853" lon="5.74274">
        <ele>1703</ele>
        <time>2020-02-08T11:03:06Z</time>
      </trkpt>
      <trkpt lat="45.29855" lon="5.74275">
        <ele>1702.6</ele>
        <time>2020-02-08T11:03:07Z</time>
      </trkpt>
      <trkpt lat="45.29857" lon="5.74277">
        <ele>1702.4</ele>
        <time>2020-02-08T11:03:08Z</time>
      </trkpt>
      <trkpt lat="45.29859" lon="5.7428">
        <ele>1702.2</ele>
        <time>2020-02-08T11:03:09Z</time>
      </trkpt>
      <trkpt lat="45.29861" lon="5.74282">
        <ele>1702</ele>
        <time>2020-02-08T11:03:10Z</time>
      </trkpt>
      <trkpt lat="45.29863" lon="5.74284">
        <ele>1702.2</ele>
        <time>2020-02-08T11:03:11Z</time>
      </trkpt>
      <trkpt lat="45.29863" lon="5.74284">
        <ele>1702.4</ele>
        <time>2020-02-08T11:03:12Z</time>
      </trkpt>
      <trkpt lat="45.29863" lon="5.74284">
        <ele>1702.6</ele>
        <time>2020-02-08T11:03:13Z</time>
      </trkpt>
      <trkpt lat="45.29866" lon="5.74289">
        <ele>1702.2</ele>
        <time>2020-02-08T11:03:14Z</time>
      </trkpt>
      <trkpt lat="45.29867" lon="5.7429">
        <ele>1702.6</ele>
        <time>2020-02-08T11:03:15Z</time>
      </trkpt>
      <trkpt lat="45.29867" lon="5.74291">
        <ele>1702.6</ele>
        <time>2020-02-08T11:03:16Z</time>
      </trkpt>
      <trkpt lat="45.2987" lon="5.74293">
        <ele>1702.2</ele>
        <time>2020-02-08T11:03:17Z</time>
      </trkpt>
      <trkpt lat="45.2987" lon="5.74293">
        <ele>1702.6</ele>
        <time>2020-02-08T11:03:18Z</time>
      </trkpt>
      <trkpt lat="45.29871" lon="5.74295">
        <ele>1702.2</ele>
        <time>2020-02-08T11:03:19Z</time>
      </trkpt>
      <trkpt lat="45.29871" lon="5.74295">
        <ele>1702</ele>
        <time>2020-02-08T11:03:20Z</time>
      </trkpt>
      <trkpt lat="45.29871" lon="5.74295">
        <ele>1702.4</ele>
        <time>2020-02-08T11:03:21Z</time>
      </trkpt>
      <trkpt lat="45.29873" lon="5.74297">
        <ele>1702.8</ele>
        <time>2020-02-08T11:03:22Z</time>
      </trkpt>
      <trkpt lat="45.29875" lon="5.74298">
        <ele>1703</ele>
        <time>2020-02-08T11:03:23Z</time>
      </trkpt>
      <trkpt lat="45.29876" lon="5.743">
        <ele>1703.2</ele>
        <time>2020-02-08T11:03:24Z</time>
      </trkpt>
      <trkpt lat="45.29878" lon="5.74302">
        <ele>1703</ele>
        <time>2020-02-08T11:03:25Z</time>
      </trkpt>
      <trkpt lat="45.2988" lon="5.74303">
        <ele>1702.8</ele>
        <time>2020-02-08T11:03:26Z</time>
      </trkpt>
      <trkpt lat="45.29881" lon="5.74305">
        <ele>1702.8</ele>
        <time>2020-02-08T11:03:27Z</time>
      </trkpt>
      <trkpt lat="45.29881" lon="5.74305">
        <ele>1703.2</ele>
        <time>2020-02-08T11:03:28Z</time>
      </trkpt>
      <trkpt lat="45.29881" lon="5.74305">
        <ele>1703.4</ele>
        <time>2020-02-08T11:03:29Z</time>
      </trkpt>
      <trkpt lat="45.29884" lon="5.74309">
        <ele>1703.6</ele>
        <time>2020-02-08T11:03:30Z</time>
      </trkpt>
      <trkpt lat="45.29884" lon="5.74309">
        <ele>1703.2</ele>
        <time>2020-02-08T11:03:31Z</time>
      </trkpt>
      <trkpt lat="45.29884" lon="5.74309">
        <ele>1703.2</ele>
        <time>2020-02-08T11:03:32Z</time>
      </trkpt>
      <trkpt lat="45.29886" lon="5.74311">
        <ele>1703.6</ele>
        <time>2020-02-08T11:03:33Z</time>
      </trkpt>
      <trkpt lat="45.29888" lon="5.74313">
        <ele>1704</ele>
        <time>2020-02-08T11:03:34Z</time>
      </trkpt>
      <trkpt lat="45.2989" lon="5.74315">
        <ele>1704</ele>
        <time>2020-02-08T11:03:35Z</time>
      </trkpt>
      <trkpt lat="45.29891" lon="5.74317">
        <ele>1704.2</ele>
        <time>2020-02-08T11:03:36Z</time>
      </trkpt>
      <trkpt lat="45.29891" lon="5.74317">
        <ele>1704</ele>
        <time>2020-02-08T11:03:37Z</time>
      </trkpt>
      <trkpt lat="45.29894" lon="5.74321">
        <ele>1704</ele>
        <time>2020-02-08T11:03:38Z</time>
      </trkpt>
      <trkpt lat="45.29895" lon="5.74322">
        <ele>1703.8</ele>
        <time>2020-02-08T11:03:39Z</time>
      </trkpt>
      <trkpt lat="45.29897" lon="5.74324">
        <ele>1703.6</ele>
        <time>2020-02-08T11:03:40Z</time>
      </trkpt>
      <trkpt lat="45.299" lon="5.74326">
        <ele>1703.8</ele>
        <time>2020-02-08T11:03:41Z</time>
      </trkpt>
      <trkpt lat="45.29902" lon="5.74328">
        <ele>1703.6</ele>
        <time>2020-02-08T11:03:42Z</time>
      </trkpt>
      <trkpt lat="45.29905" lon="5.74331">
        <ele>1703.4</ele>
        <time>2020-02-08T11:03:43Z</time>
      </trkpt>
      <trkpt lat="45.29907" lon="5.74334">
        <ele>1703.4</ele>
        <time>2020-02-08T11:03:44Z</time>
      </trkpt>
      <trkpt lat="45.29909" lon="5.74335">
        <ele>1703.6</ele>
        <time>2020-02-08T11:03:45Z</time>
      </trkpt>
      <trkpt lat="45.29911" lon="5.74337">
        <ele>1703.6</ele>
        <time>2020-02-08T11:03:46Z</time>
      </trkpt>
      <trkpt lat="45.29913" lon="5.74339">
        <ele>1703.6</ele>
        <time>2020-02-08T11:03:47Z</time>
      </trkpt>
      <trkpt lat="45.29916" lon="5.74341">
        <ele>1703.4</ele>
        <time>2020-02-08T11:03:48Z</time>
      </trkpt>
      <trkpt lat="45.29919" lon="5.74343">
        <ele>1703</ele>
        <time>2020-02-08T11:03:49Z</time>
      </trkpt>
      <trkpt lat="45.29921" lon="5.74345">
        <ele>1702.8</ele>
        <time>2020-02-08T11:03:50Z</time>
      </trkpt>
      <trkpt lat="45.29923" lon="5.74346">
        <ele>1702.6</ele>
        <time>2020-02-08T11:03:51Z</time>
      </trkpt>
      <trkpt lat="45.29926" lon="5.74347">
        <ele>1702.2</ele>
        <time>2020-02-08T11:03:52Z</time>
      </trkpt>
      <trkpt lat="45.29928" lon="5.74349">
        <ele>1702</ele>
        <time>2020-02-08T11:03:53Z</time>
      </trkpt>
      <trkpt lat="45.2993" lon="5.74351">
        <ele>1701.8</ele>
        <time>2020-02-08T11:03:54Z</time>
      </trkpt>
      <trkpt lat="45.29932" lon="5.74353">
        <ele>1701.2</ele>
        <time>2020-02-08T11:03:55Z</time>
      </trkpt>
      <trkpt lat="45.29935" lon="5.74357">
        <ele>1701</ele>
        <time>2020-02-08T11:03:56Z</time>
      </trkpt>
      <trkpt lat="45.29938" lon="5.7436">
        <ele>1700.6</ele>
        <time>2020-02-08T11:03:57Z</time>
      </trkpt>
      <trkpt lat="45.29938" lon="5.7436">
        <ele>1700.8</ele>
        <time>2020-02-08T11:03:58Z</time>
      </trkpt>
      <trkpt lat="45.29939" lon="5.74363">
        <ele>1700.4</ele>
        <time>2020-02-08T11:03:59Z</time>
      </trkpt>
      <trkpt lat="45.29939" lon="5.74363">
        <ele>1700.8</ele>
        <time>2020-02-08T11:04:00Z</time>
      </trkpt>
      <trkpt lat="45.29939" lon="5.74363">
        <ele>1701.2</ele>
        <time>2020-02-08T11:04:01Z</time>
      </trkpt>
      <trkpt lat="45.29939" lon="5.74363">
        <ele>1701</ele>
        <time>2020-02-08T11:04:02Z</time>
      </trkpt>
      <trkpt lat="45.29939" lon="5.74363">
        <ele>1700.8</ele>
        <time>2020-02-08T11:04:03Z</time>
      </trkpt>
      <trkpt lat="45.29939" lon="5.74363">
        <ele>1700.8</ele>
        <time>2020-02-08T11:04:04Z</time>
      </trkpt>
      <trkpt lat="45.29939" lon="5.74363">
        <ele>1700</ele>
        <time>2020-02-08T11:04:05Z</time>
      </trkpt>
      <trkpt lat="45.29939" lon="5.74363">
        <ele>1699.6</ele>
        <time>2020-02-08T11:04:06Z</time>
      </trkpt>
      <trkpt lat="45.29939" lon="5.74363">
        <ele>1700</ele>
        <time>2020-02-08T11:04:07Z</time>
      </trkpt>
      <trkpt lat="45.29939" lon="5.74363">
        <ele>1700</ele>
        <time>2020-02-08T11:04:08Z</time>
      </trkpt>
      <trkpt lat="45.29939" lon="5.74363">
        <ele>1700.2</ele>
        <time>2020-02-08T11:04:09Z</time>
      </trkpt>
      <trkpt lat="45.29939" lon="5.74363">
        <ele>1700.4</ele>
        <time>2020-02-08T11:04:10Z</time>
      </trkpt>
      <trkpt lat="45.29939" lon="5.74363">
        <ele>1700.4</ele>
        <time>2020-02-08T11:04:11Z</time>
      </trkpt>
      <trkpt lat="45.29939" lon="5.74363">
        <ele>1700</ele>
        <time>2020-02-08T11:04:12Z</time>
      </trkpt>
      <trkpt lat="45.29939" lon="5.74363">
        <ele>1699.8</ele>
        <time>2020-02-08T11:04:13Z</time>
      </trkpt>
      <trkpt lat="45.29939" lon="5.74363">
        <ele>1699.6</ele>
        <time>2020-02-08T11:04:14Z</time>
      </trkpt>
      <trkpt lat="45.29939" lon="5.74363">
        <ele>1700.2</ele>
        <time>2020-02-08T11:04:15Z</time>
      </trkpt>
      <trkpt lat="45.29939" lon="5.74363">
        <ele>1700.8</ele>
        <time>2020-02-08T11:04:16Z</time>
      </trkpt>
      <trkpt lat="45.29939" lon="5.74363">
        <ele>1700.8</ele>
        <time>2020-02-08T11:04:17Z</time>
      </trkpt>
      <trkpt lat="45.29939" lon="5.74363">
        <ele>1701</ele>
        <time>2020-02-08T11:04:18Z</time>
      </trkpt>
      <trkpt lat="45.29939" lon="5.74363">
        <ele>1701.2</ele>
        <time>2020-02-08T11:04:19Z</time>
      </trkpt>
      <trkpt lat="45.29939" lon="5.74363">
        <ele>1701</ele>
        <time>2020-02-08T11:04:20Z</time>
      </trkpt>
      <trkpt lat="45.29939" lon="5.74363">
        <ele>1700.8</ele>
        <time>2020-02-08T11:04:21Z</time>
      </trkpt>
      <trkpt lat="45.29939" lon="5.74363">
        <ele>1700.4</ele>
        <time>2020-02-08T11:04:22Z</time>
      </trkpt>
      <trkpt lat="45.2994" lon="5.7436">
        <ele>1699.8</ele>
        <time>2020-02-08T11:04:23Z</time>
      </trkpt>
      <trkpt lat="45.2994" lon="5.7436">
        <ele>1699.2</ele>
        <time>2020-02-08T11:04:24Z</time>
      </trkpt>
      <trkpt lat="45.2994" lon="5.74357">
        <ele>1698.6</ele>
        <time>2020-02-08T11:04:25Z</time>
      </trkpt>
      <trkpt lat="45.2994" lon="5.74357">
        <ele>1698.4</ele>
        <time>2020-02-08T11:04:26Z</time>
      </trkpt>
      <trkpt lat="45.2994" lon="5.74357">
        <ele>1697.6</ele>
        <time>2020-02-08T11:04:27Z</time>
      </trkpt>
      <trkpt lat="45.29943" lon="5.74356">
        <ele>1697.6</ele>
        <time>2020-02-08T11:04:28Z</time>
      </trkpt>
      <trkpt lat="45.29945" lon="5.74357">
        <ele>1697.2</ele>
        <time>2020-02-08T11:04:29Z</time>
      </trkpt>
      <trkpt lat="45.29945" lon="5.74357">
        <ele>1696.6</ele>
        <time>2020-02-08T11:04:30Z</time>
      </trkpt>
      <trkpt lat="45.29949" lon="5.74358">
        <ele>1695.4</ele>
        <time>2020-02-08T11:04:31Z</time>
      </trkpt>
      <trkpt lat="45.29951" lon="5.7436">
        <ele>1695.2</ele>
        <time>2020-02-08T11:04:32Z</time>
      </trkpt>
      <trkpt lat="45.29953" lon="5.74361">
        <ele>1695.2</ele>
        <time>2020-02-08T11:04:33Z</time>
      </trkpt>
      <trkpt lat="45.29953" lon="5.74361">
        <ele>1694.8</ele>
        <time>2020-02-08T11:04:34Z</time>
      </trkpt>
      <trkpt lat="45.29953" lon="5.74361">
        <ele>1694.4</ele>
        <time>2020-02-08T11:04:35Z</time>
      </trkpt>
      <trkpt lat="45.29953" lon="5.74361">
        <ele>1694</ele>
        <time>2020-02-08T11:04:36Z</time>
      </trkpt>
      <trkpt lat="45.29953" lon="5.74361">
        <ele>1693.8</ele>
        <time>2020-02-08T11:04:37Z</time>
      </trkpt>
      <trkpt lat="45.29954" lon="5.74358">
        <ele>1693.2</ele>
        <time>2020-02-08T11:04:38Z</time>
      </trkpt>
      <trkpt lat="45.29954" lon="5.74358">
        <ele>1692.8</ele>
        <time>2020-02-08T11:04:39Z</time>
      </trkpt>
      <trkpt lat="45.29955" lon="5.74356">
        <ele>1692.4</ele>
        <time>2020-02-08T11:04:40Z</time>
      </trkpt>
      <trkpt lat="45.29955" lon="5.74356">
        <ele>1692</ele>
        <time>2020-02-08T11:04:41Z</time>
      </trkpt>
      <trkpt lat="45.29956" lon="5.74353">
        <ele>1691.6</ele>
        <time>2020-02-08T11:04:42Z</time>
      </trkpt>
      <trkpt lat="45.29956" lon="5.74353">
        <ele>1691.4</ele>
        <time>2020-02-08T11:04:43Z</time>
      </trkpt>
      <trkpt lat="45.29959" lon="5.74353">
        <ele>1690.6</ele>
        <time>2020-02-08T11:04:44Z</time>
      </trkpt>
      <trkpt lat="45.29961" lon="5.74354">
        <ele>1690</ele>
        <time>2020-02-08T11:04:45Z</time>
      </trkpt>
      <trkpt lat="45.29964" lon="5.74356">
        <ele>1688.4</ele>
        <time>2020-02-08T11:04:46Z</time>
      </trkpt>
      <trkpt lat="45.29967" lon="5.74358">
        <ele>1687.6</ele>
        <time>2020-02-08T11:04:47Z</time>
      </trkpt>
      <trkpt lat="45.2997" lon="5.7436">
        <ele>1686.6</ele>
        <time>2020-02-08T11:04:48Z</time>
      </trkpt>
      <trkpt lat="45.29973" lon="5.74363">
        <ele>1686</ele>
        <time>2020-02-08T11:04:49Z</time>
      </trkpt>
      <trkpt lat="45.29973" lon="5.74363">
        <ele>1685.2</ele>
        <time>2020-02-08T11:04:50Z</time>
      </trkpt>
      <trkpt lat="45.29973" lon="5.74363">
        <ele>1684.4</ele>
        <time>2020-02-08T11:04:51Z</time>
      </trkpt>
      <trkpt lat="45.29979" lon="5.74369">
        <ele>1684</ele>
        <time>2020-02-08T11:04:52Z</time>
      </trkpt>
      <trkpt lat="45.2998" lon="5.7437">
        <ele>1683.6</ele>
        <time>2020-02-08T11:04:53Z</time>
      </trkpt>
      <trkpt lat="45.29982" lon="5.7437">
        <ele>1683.4</ele>
        <time>2020-02-08T11:04:54Z</time>
      </trkpt>
      <trkpt lat="45.29983" lon="5.74372">
        <ele>1682.8</ele>
        <time>2020-02-08T11:04:55Z</time>
      </trkpt>
      <trkpt lat="45.29983" lon="5.74372">
        <ele>1681.8</ele>
        <time>2020-02-08T11:04:56Z</time>
      </trkpt>
      <trkpt lat="45.29986" lon="5.74375">
        <ele>1681.4</ele>
        <time>2020-02-08T11:04:57Z</time>
      </trkpt>
      <trkpt lat="45.29986" lon="5.74375">
        <ele>1681.2</ele>
        <time>2020-02-08T11:04:58Z</time>
      </trkpt>
      <trkpt lat="45.29989" lon="5.74378">
        <ele>1680.8</ele>
        <time>2020-02-08T11:04:59Z</time>
      </trkpt>
      <trkpt lat="45.29989" lon="5.74378">
        <ele>1680.6</ele>
        <time>2020-02-08T11:05:00Z</time>
      </trkpt>
      <trkpt lat="45.29992" lon="5.7438">
        <ele>1680.4</ele>
        <time>2020-02-08T11:05:01Z</time>
      </trkpt>
      <trkpt lat="45.29992" lon="5.7438">
        <ele>1680.2</ele>
        <time>2020-02-08T11:05:02Z</time>
      </trkpt>
      <trkpt lat="45.29992" lon="5.7438">
        <ele>1679.8</ele>
        <time>2020-02-08T11:05:03Z</time>
      </trkpt>
      <trkpt lat="45.29992" lon="5.7438">
        <ele>1679.8</ele>
        <time>2020-02-08T11:05:04Z</time>
      </trkpt>
      <trkpt lat="45.29992" lon="5.7438">
        <ele>1679.8</ele>
        <time>2020-02-08T11:05:05Z</time>
      </trkpt>
      <trkpt lat="45.29992" lon="5.7438">
        <ele>1680</ele>
        <time>2020-02-08T11:05:06Z</time>
      </trkpt>
      <trkpt lat="45.29991" lon="5.74383">
        <ele>1679.4</ele>
        <time>2020-02-08T11:05:07Z</time>
      </trkpt>
      <trkpt lat="45.29991" lon="5.74383">
        <ele>1678.8</ele>
        <time>2020-02-08T11:05:08Z</time>
      </trkpt>
      <trkpt lat="45.29991" lon="5.74383">
        <ele>1678</ele>
        <time>2020-02-08T11:05:09Z</time>
      </trkpt>
      <trkpt lat="45.29992" lon="5.74385">
        <ele>1677.8</ele>
        <time>2020-02-08T11:05:10Z</time>
      </trkpt>
      <trkpt lat="45.29992" lon="5.74385">
        <ele>1677</ele>
        <time>2020-02-08T11:05:11Z</time>
      </trkpt>
      <trkpt lat="45.29995" lon="5.74386">
        <ele>1676.8</ele>
        <time>2020-02-08T11:05:12Z</time>
      </trkpt>
      <trkpt lat="45.29995" lon="5.74386">
        <ele>1676.4</ele>
        <time>2020-02-08T11:05:13Z</time>
      </trkpt>
      <trkpt lat="45.29998" lon="5.74386">
        <ele>1675.8</ele>
        <time>2020-02-08T11:05:14Z</time>
      </trkpt>
      <trkpt lat="45.29998" lon="5.74386">
        <ele>1675.8</ele>
        <time>2020-02-08T11:05:15Z</time>
      </trkpt>
      <trkpt lat="45.3" lon="5.74387">
        <ele>1675.8</ele>
        <time>2020-02-08T11:05:16Z</time>
      </trkpt>
      <trkpt lat="45.3" lon="5.74387">
        <ele>1675.4</ele>
        <time>2020-02-08T11:05:17Z</time>
      </trkpt>
      <trkpt lat="45.3" lon="5.74387">
        <ele>1675</ele>
        <time>2020-02-08T11:05:18Z</time>
      </trkpt>
      <trkpt lat="45.30002" lon="5.74387">
        <ele>1674.6</ele>
        <time>2020-02-08T11:05:19Z</time>
      </trkpt>
      <trkpt lat="45.30004" lon="5.74388">
        <ele>1674.4</ele>
        <time>2020-02-08T11:05:20Z</time>
      </trkpt>
      <trkpt lat="45.30006" lon="5.74389">
        <ele>1674.4</ele>
        <time>2020-02-08T11:05:21Z</time>
      </trkpt>
      <trkpt lat="45.30008" lon="5.7439">
        <ele>1674.2</ele>
        <time>2020-02-08T11:05:22Z</time>
      </trkpt>
      <trkpt lat="45.3001" lon="5.7439">
        <ele>1674</ele>
        <time>2020-02-08T11:05:23Z</time>
      </trkpt>
      <trkpt lat="45.30012" lon="5.74391">
        <ele>1673.8</ele>
        <time>2020-02-08T11:05:24Z</time>
      </trkpt>
      <trkpt lat="45.30012" lon="5.74391">
        <ele>1673.4</ele>
        <time>2020-02-08T11:05:25Z</time>
      </trkpt>
      <trkpt lat="45.30013" lon="5.74392">
        <ele>1673.4</ele>
        <time>2020-02-08T11:05:26Z</time>
      </trkpt>
      <trkpt lat="45.30013" lon="5.74392">
        <ele>1673</ele>
        <time>2020-02-08T11:05:27Z</time>
      </trkpt>
      <trkpt lat="45.30013" lon="5.74392">
        <ele>1672.8</ele>
        <time>2020-02-08T11:05:28Z</time>
      </trkpt>
      <trkpt lat="45.30016" lon="5.74394">
        <ele>1672.6</ele>
        <time>2020-02-08T11:05:29Z</time>
      </trkpt>
      <trkpt lat="45.30017" lon="5.74396">
        <ele>1672.6</ele>
        <time>2020-02-08T11:05:30Z</time>
      </trkpt>
      <trkpt lat="45.30019" lon="5.744">
        <ele>1672.2</ele>
        <time>2020-02-08T11:05:31Z</time>
      </trkpt>
      <trkpt lat="45.30019" lon="5.744">
        <ele>1672</ele>
        <time>2020-02-08T11:05:32Z</time>
      </trkpt>
      <trkpt lat="45.30021" lon="5.74403">
        <ele>1672</ele>
        <time>2020-02-08T11:05:33Z</time>
      </trkpt>
      <trkpt lat="45.30022" lon="5.74406">
        <ele>1671.8</ele>
        <time>2020-02-08T11:05:34Z</time>
      </trkpt>
      <trkpt lat="45.30022" lon="5.74406">
        <ele>1671.4</ele>
        <time>2020-02-08T11:05:35Z</time>
      </trkpt>
      <trkpt lat="45.30022" lon="5.74406">
        <ele>1671.2</ele>
        <time>2020-02-08T11:05:36Z</time>
      </trkpt>
      <trkpt lat="45.30024" lon="5.74407">
        <ele>1671.2</ele>
        <time>2020-02-08T11:05:37Z</time>
      </trkpt>
      <trkpt lat="45.30025" lon="5.74407">
        <ele>1671.4</ele>
        <time>2020-02-08T11:05:38Z</time>
      </trkpt>
      <trkpt lat="45.30027" lon="5.74408">
        <ele>1671.2</ele>
        <time>2020-02-08T11:05:39Z</time>
      </trkpt>
      <trkpt lat="45.30028" lon="5.74409">
        <ele>1671</ele>
        <time>2020-02-08T11:05:40Z</time>
      </trkpt>
      <trkpt lat="45.3003" lon="5.7441">
        <ele>1670.6</ele>
        <time>2020-02-08T11:05:41Z</time>
      </trkpt>
      <trkpt lat="45.30031" lon="5.74411">
        <ele>1671</ele>
        <time>2020-02-08T11:05:42Z</time>
      </trkpt>
      <trkpt lat="45.30034" lon="5.7441">
        <ele>1671</ele>
        <time>2020-02-08T11:05:43Z</time>
      </trkpt>
      <trkpt lat="45.30037" lon="5.74408">
        <ele>1671</ele>
        <time>2020-02-08T11:05:44Z</time>
      </trkpt>
      <trkpt lat="45.3004" lon="5.74407">
        <ele>1670.8</ele>
        <time>2020-02-08T11:05:45Z</time>
      </trkpt>
      <trkpt lat="45.30043" lon="5.74406">
        <ele>1670.8</ele>
        <time>2020-02-08T11:05:46Z</time>
      </trkpt>
      <trkpt lat="45.30045" lon="5.74407">
        <ele>1670</ele>
        <time>2020-02-08T11:05:47Z</time>
      </trkpt>
      <trkpt lat="45.30047" lon="5.74408">
        <ele>1669.6</ele>
        <time>2020-02-08T11:05:48Z</time>
      </trkpt>
      <trkpt lat="45.30048" lon="5.74409">
        <ele>1669.4</ele>
        <time>2020-02-08T11:05:49Z</time>
      </trkpt>
      <trkpt lat="45.3005" lon="5.7441">
        <ele>1669</ele>
        <time>2020-02-08T11:05:50Z</time>
      </trkpt>
      <trkpt lat="45.30052" lon="5.74411">
        <ele>1668.6</ele>
        <time>2020-02-08T11:05:51Z</time>
      </trkpt>
      <trkpt lat="45.30053" lon="5.74412">
        <ele>1668.4</ele>
        <time>2020-02-08T11:05:52Z</time>
      </trkpt>
      <trkpt lat="45.30054" lon="5.74413">
        <ele>1668.2</ele>
        <time>2020-02-08T11:05:53Z</time>
      </trkpt>
      <trkpt lat="45.30055" lon="5.74414">
        <ele>1667.2</ele>
        <time>2020-02-08T11:05:54Z</time>
      </trkpt>
      <trkpt lat="45.30057" lon="5.74415">
        <ele>1666.4</ele>
        <time>2020-02-08T11:05:55Z</time>
      </trkpt>
      <trkpt lat="45.30058" lon="5.74416">
        <ele>1665.8</ele>
        <time>2020-02-08T11:05:56Z</time>
      </trkpt>
      <trkpt lat="45.30059" lon="5.74417">
        <ele>1665.4</ele>
        <time>2020-02-08T11:05:57Z</time>
      </trkpt>
      <trkpt lat="45.3006" lon="5.74418">
        <ele>1665.2</ele>
        <time>2020-02-08T11:05:58Z</time>
      </trkpt>
      <trkpt lat="45.30062" lon="5.7442">
        <ele>1664.6</ele>
        <time>2020-02-08T11:05:59Z</time>
      </trkpt>
      <trkpt lat="45.30064" lon="5.74421">
        <ele>1664.2</ele>
        <time>2020-02-08T11:06:00Z</time>
      </trkpt>
      <trkpt lat="45.30067" lon="5.74423">
        <ele>1664.4</ele>
        <time>2020-02-08T11:06:01Z</time>
      </trkpt>
      <trkpt lat="45.30069" lon="5.74425">
        <ele>1664.4</ele>
        <time>2020-02-08T11:06:02Z</time>
      </trkpt>
      <trkpt lat="45.30071" lon="5.74426">
        <ele>1664.4</ele>
        <time>2020-02-08T11:06:03Z</time>
      </trkpt>
      <trkpt lat="45.30072" lon="5.74427">
        <ele>1664</ele>
        <time>2020-02-08T11:06:04Z</time>
      </trkpt>
      <trkpt lat="45.30074" lon="5.74427">
        <ele>1663.8</ele>
        <time>2020-02-08T11:06:05Z</time>
      </trkpt>
      <trkpt lat="45.30076" lon="5.74428">
        <ele>1664</ele>
        <time>2020-02-08T11:06:06Z</time>
      </trkpt>
      <trkpt lat="45.30077" lon="5.74429">
        <ele>1664.2</ele>
        <time>2020-02-08T11:06:07Z</time>
      </trkpt>
      <trkpt lat="45.30077" lon="5.74429">
        <ele>1664.4</ele>
        <time>2020-02-08T11:06:08Z</time>
      </trkpt>
      <trkpt lat="45.30079" lon="5.7443">
        <ele>1664.6</ele>
        <time>2020-02-08T11:06:09Z</time>
      </trkpt>
      <trkpt lat="45.30079" lon="5.7443">
        <ele>1664.6</ele>
        <time>2020-02-08T11:06:10Z</time>
      </trkpt>
      <trkpt lat="45.30079" lon="5.7443">
        <ele>1664.4</ele>
        <time>2020-02-08T11:06:11Z</time>
      </trkpt>
      <trkpt lat="45.30079" lon="5.7443">
        <ele>1664.6</ele>
        <time>2020-02-08T11:06:12Z</time>
      </trkpt>
      <trkpt lat="45.30079" lon="5.7443">
        <ele>1664.4</ele>
        <time>2020-02-08T11:06:13Z</time>
      </trkpt>
      <trkpt lat="45.30079" lon="5.7443">
        <ele>1664.4</ele>
        <time>2020-02-08T11:06:14Z</time>
      </trkpt>
      <trkpt lat="45.30079" lon="5.7443">
        <ele>1664.6</ele>
        <time>2020-02-08T11:06:15Z</time>
      </trkpt>
      <trkpt lat="45.30079" lon="5.7443">
        <ele>1664.6</ele>
        <time>2020-02-08T11:06:16Z</time>
      </trkpt>
      <trkpt lat="45.30081" lon="5.74431">
        <ele>1664.8</ele>
        <time>2020-02-08T11:06:17Z</time>
      </trkpt>
      <trkpt lat="45.30081" lon="5.74431">
        <ele>1664.4</ele>
        <time>2020-02-08T11:06:18Z</time>
      </trkpt>
      <trkpt lat="45.30082" lon="5.74434">
        <ele>1664.6</ele>
        <time>2020-02-08T11:06:19Z</time>
      </trkpt>
      <trkpt lat="45.30082" lon="5.74434">
        <ele>1665</ele>
        <time>2020-02-08T11:06:20Z</time>
      </trkpt>
      <trkpt lat="45.30082" lon="5.74434">
        <ele>1665.4</ele>
        <time>2020-02-08T11:06:21Z</time>
      </trkpt>
      <trkpt lat="45.30084" lon="5.74437">
        <ele>1665.6</ele>
        <time>2020-02-08T11:06:22Z</time>
      </trkpt>
      <trkpt lat="45.30084" lon="5.74437">
        <ele>1665</ele>
        <time>2020-02-08T11:06:23Z</time>
      </trkpt>
      <trkpt lat="45.30084" lon="5.74437">
        <ele>1665.2</ele>
        <time>2020-02-08T11:06:24Z</time>
      </trkpt>
      <trkpt lat="45.30085" lon="5.74437">
        <ele>1665.4</ele>
        <time>2020-02-08T11:06:25Z</time>
      </trkpt>
      <trkpt lat="45.30085" lon="5.74437">
        <ele>1665.6</ele>
        <time>2020-02-08T11:06:26Z</time>
      </trkpt>
      <trkpt lat="45.30086" lon="5.74437">
        <ele>1665.6</ele>
        <time>2020-02-08T11:06:27Z</time>
      </trkpt>
      <trkpt lat="45.30087" lon="5.74437">
        <ele>1665.8</ele>
        <time>2020-02-08T11:06:28Z</time>
      </trkpt>
      <trkpt lat="45.30088" lon="5.74437">
        <ele>1666</ele>
        <time>2020-02-08T11:06:29Z</time>
      </trkpt>
      <trkpt lat="45.30089" lon="5.74437">
        <ele>1666</ele>
        <time>2020-02-08T11:06:30Z</time>
      </trkpt>
      <trkpt lat="45.3009" lon="5.74437">
        <ele>1666.2</ele>
        <time>2020-02-08T11:06:31Z</time>
      </trkpt>
      <trkpt lat="45.3009" lon="5.74437">
        <ele>1666.4</ele>
        <time>2020-02-08T11:06:32Z</time>
      </trkpt>
      <trkpt lat="45.30091" lon="5.74437">
        <ele>1666.6</ele>
        <time>2020-02-08T11:06:33Z</time>
      </trkpt>
      <trkpt lat="45.30092" lon="5.74437">
        <ele>1667</ele>
        <time>2020-02-08T11:06:34Z</time>
      </trkpt>
      <trkpt lat="45.30093" lon="5.74437">
        <ele>1667.2</ele>
        <time>2020-02-08T11:06:35Z</time>
      </trkpt>
      <trkpt lat="45.30094" lon="5.74437">
        <ele>1667.4</ele>
        <time>2020-02-08T11:06:36Z</time>
      </trkpt>
      <trkpt lat="45.30095" lon="5.74438">
        <ele>1668</ele>
        <time>2020-02-08T11:06:37Z</time>
      </trkpt>
      <trkpt lat="45.30095" lon="5.74438">
        <ele>1668</ele>
        <time>2020-02-08T11:06:38Z</time>
      </trkpt>
      <trkpt lat="45.30096" lon="5.74438">
        <ele>1668</ele>
        <time>2020-02-08T11:06:39Z</time>
      </trkpt>
      <trkpt lat="45.30097" lon="5.74438">
        <ele>1668</ele>
        <time>2020-02-08T11:06:40Z</time>
      </trkpt>
      <trkpt lat="45.30098" lon="5.74438">
        <ele>1668</ele>
        <time>2020-02-08T11:06:41Z</time>
      </trkpt>
      <trkpt lat="45.30099" lon="5.74439">
        <ele>1668.6</ele>
        <time>2020-02-08T11:06:42Z</time>
      </trkpt>
      <trkpt lat="45.301" lon="5.74439">
        <ele>1668.4</ele>
        <time>2020-02-08T11:06:43Z</time>
      </trkpt>
      <trkpt lat="45.301" lon="5.74439">
        <ele>1668.6</ele>
        <time>2020-02-08T11:06:44Z</time>
      </trkpt>
      <trkpt lat="45.30101" lon="5.74439">
        <ele>1668.8</ele>
        <time>2020-02-08T11:06:45Z</time>
      </trkpt>
      <trkpt lat="45.30102" lon="5.74439">
        <ele>1669.6</ele>
        <time>2020-02-08T11:06:46Z</time>
      </trkpt>
      <trkpt lat="45.30103" lon="5.7444">
        <ele>1669.4</ele>
        <time>2020-02-08T11:06:47Z</time>
      </trkpt>
      <trkpt lat="45.30105" lon="5.74441">
        <ele>1669.6</ele>
        <time>2020-02-08T11:06:48Z</time>
      </trkpt>
      <trkpt lat="45.30106" lon="5.74442">
        <ele>1670</ele>
        <time>2020-02-08T11:06:49Z</time>
      </trkpt>
      <trkpt lat="45.30107" lon="5.74442">
        <ele>1670.4</ele>
        <time>2020-02-08T11:06:50Z</time>
      </trkpt>
      <trkpt lat="45.30109" lon="5.74443">
        <ele>1670.8</ele>
        <time>2020-02-08T11:06:51Z</time>
      </trkpt>
      <trkpt lat="45.3011" lon="5.74444">
        <ele>1672.2</ele>
        <time>2020-02-08T11:06:52Z</time>
      </trkpt>
      <trkpt lat="45.30111" lon="5.74445">
        <ele>1671.8</ele>
        <time>2020-02-08T11:06:53Z</time>
      </trkpt>
      <trkpt lat="45.30112" lon="5.74445">
        <ele>1671.8</ele>
        <time>2020-02-08T11:06:54Z</time>
      </trkpt>
      <trkpt lat="45.30114" lon="5.74446">
        <ele>1672.6</ele>
        <time>2020-02-08T11:06:55Z</time>
      </trkpt>
      <trkpt lat="45.30115" lon="5.74447">
        <ele>1672.8</ele>
        <time>2020-02-08T11:06:56Z</time>
      </trkpt>
      <trkpt lat="45.30118" lon="5.7445">
        <ele>1673.4</ele>
        <time>2020-02-08T11:06:57Z</time>
      </trkpt>
      <trkpt lat="45.30119" lon="5.74451">
        <ele>1673.8</ele>
        <time>2020-02-08T11:06:58Z</time>
      </trkpt>
      <trkpt lat="45.3012" lon="5.74451">
        <ele>1674.4</ele>
        <time>2020-02-08T11:06:59Z</time>
      </trkpt>
      <trkpt lat="45.3012" lon="5.74451">
        <ele>1674.4</ele>
        <time>2020-02-08T11:07:00Z</time>
      </trkpt>
      <trkpt lat="45.30123" lon="5.74452">
        <ele>1674.6</ele>
        <time>2020-02-08T11:07:01Z</time>
      </trkpt>
      <trkpt lat="45.30123" lon="5.74452">
        <ele>1674.6</ele>
        <time>2020-02-08T11:07:02Z</time>
      </trkpt>
      <trkpt lat="45.30125" lon="5.74451">
        <ele>1674.4</ele>
        <time>2020-02-08T11:07:03Z</time>
      </trkpt>
      <trkpt lat="45.30125" lon="5.74451">
        <ele>1674.2</ele>
        <time>2020-02-08T11:07:04Z</time>
      </trkpt>
      <trkpt lat="45.30125" lon="5.74451">
        <ele>1674.2</ele>
        <time>2020-02-08T11:07:05Z</time>
      </trkpt>
      <trkpt lat="45.30127" lon="5.74452">
        <ele>1674</ele>
        <time>2020-02-08T11:07:06Z</time>
      </trkpt>
      <trkpt lat="45.30128" lon="5.74453">
        <ele>1674.2</ele>
        <time>2020-02-08T11:07:07Z</time>
      </trkpt>
      <trkpt lat="45.3013" lon="5.74454">
        <ele>1673.8</ele>
        <time>2020-02-08T11:07:08Z</time>
      </trkpt>
      <trkpt lat="45.30131" lon="5.74454">
        <ele>1673.4</ele>
        <time>2020-02-08T11:07:09Z</time>
      </trkpt>
      <trkpt lat="45.30132" lon="5.74455">
        <ele>1673.4</ele>
        <time>2020-02-08T11:07:10Z</time>
      </trkpt>
      <trkpt lat="45.30134" lon="5.74456">
        <ele>1673.6</ele>
        <time>2020-02-08T11:07:11Z</time>
      </trkpt>
      <trkpt lat="45.30135" lon="5.74457">
        <ele>1673.8</ele>
        <time>2020-02-08T11:07:12Z</time>
      </trkpt>
      <trkpt lat="45.30136" lon="5.74458">
        <ele>1674.2</ele>
        <time>2020-02-08T11:07:13Z</time>
      </trkpt>
      <trkpt lat="45.30138" lon="5.74459">
        <ele>1674.6</ele>
        <time>2020-02-08T11:07:14Z</time>
      </trkpt>
      <trkpt lat="45.30139" lon="5.7446">
        <ele>1674.6</ele>
        <time>2020-02-08T11:07:15Z</time>
      </trkpt>
      <trkpt lat="45.3014" lon="5.74461">
        <ele>1674.4</ele>
        <time>2020-02-08T11:07:16Z</time>
      </trkpt>
      <trkpt lat="45.30142" lon="5.74462">
        <ele>1674.4</ele>
        <time>2020-02-08T11:07:17Z</time>
      </trkpt>
      <trkpt lat="45.30143" lon="5.74463">
        <ele>1674.8</ele>
        <time>2020-02-08T11:07:18Z</time>
      </trkpt>
      <trkpt lat="45.30145" lon="5.74465">
        <ele>1675.2</ele>
        <time>2020-02-08T11:07:19Z</time>
      </trkpt>
      <trkpt lat="45.30147" lon="5.74466">
        <ele>1675</ele>
        <time>2020-02-08T11:07:20Z</time>
      </trkpt>
      <trkpt lat="45.3015" lon="5.74468">
        <ele>1674.6</ele>
        <time>2020-02-08T11:07:21Z</time>
      </trkpt>
      <trkpt lat="45.30152" lon="5.7447">
        <ele>1674.6</ele>
        <time>2020-02-08T11:07:22Z</time>
      </trkpt>
      <trkpt lat="45.30154" lon="5.74471">
        <ele>1674.6</ele>
        <time>2020-02-08T11:07:23Z</time>
      </trkpt>
      <trkpt lat="45.30154" lon="5.74471">
        <ele>1675</ele>
        <time>2020-02-08T11:07:24Z</time>
      </trkpt>
      <trkpt lat="45.30154" lon="5.74471">
        <ele>1675.2</ele>
        <time>2020-02-08T11:07:25Z</time>
      </trkpt>
      <trkpt lat="45.30156" lon="5.74473">
        <ele>1675</ele>
        <time>2020-02-08T11:07:26Z</time>
      </trkpt>
      <trkpt lat="45.30158" lon="5.74474">
        <ele>1675</ele>
        <time>2020-02-08T11:07:27Z</time>
      </trkpt>
      <trkpt lat="45.3016" lon="5.74475">
        <ele>1675</ele>
        <time>2020-02-08T11:07:28Z</time>
      </trkpt>
      <trkpt lat="45.30162" lon="5.74477">
        <ele>1675.2</ele>
        <time>2020-02-08T11:07:29Z</time>
      </trkpt>
      <trkpt lat="45.30164" lon="5.74478">
        <ele>1675.2</ele>
        <time>2020-02-08T11:07:30Z</time>
      </trkpt>
      <trkpt lat="45.30167" lon="5.74479">
        <ele>1675.2</ele>
        <time>2020-02-08T11:07:31Z</time>
      </trkpt>
      <trkpt lat="45.30169" lon="5.7448">
        <ele>1675.6</ele>
        <time>2020-02-08T11:07:32Z</time>
      </trkpt>
      <trkpt lat="45.30171" lon="5.74481">
        <ele>1675.6</ele>
        <time>2020-02-08T11:07:33Z</time>
      </trkpt>
      <trkpt lat="45.30173" lon="5.74482">
        <ele>1675.8</ele>
        <time>2020-02-08T11:07:34Z</time>
      </trkpt>
      <trkpt lat="45.30175" lon="5.74482">
        <ele>1675.6</ele>
        <time>2020-02-08T11:07:35Z</time>
      </trkpt>
      <trkpt lat="45.30177" lon="5.74483">
        <ele>1675.6</ele>
        <time>2020-02-08T11:07:36Z</time>
      </trkpt>
      <trkpt lat="45.30179" lon="5.74483">
        <ele>1675.6</ele>
        <time>2020-02-08T11:07:37Z</time>
      </trkpt>
      <trkpt lat="45.3018" lon="5.74484">
        <ele>1675.6</ele>
        <time>2020-02-08T11:07:38Z</time>
      </trkpt>
      <trkpt lat="45.30182" lon="5.74485">
        <ele>1675.8</ele>
        <time>2020-02-08T11:07:39Z</time>
      </trkpt>
      <trkpt lat="45.30183" lon="5.74486">
        <ele>1676</ele>
        <time>2020-02-08T11:07:40Z</time>
      </trkpt>
      <trkpt lat="45.30185" lon="5.74487">
        <ele>1676.4</ele>
        <time>2020-02-08T11:07:41Z</time>
      </trkpt>
      <trkpt lat="45.30186" lon="5.74489">
        <ele>1676.2</ele>
        <time>2020-02-08T11:07:42Z</time>
      </trkpt>
      <trkpt lat="45.30188" lon="5.7449">
        <ele>1676.2</ele>
        <time>2020-02-08T11:07:43Z</time>
      </trkpt>
      <trkpt lat="45.30189" lon="5.74491">
        <ele>1676.4</ele>
        <time>2020-02-08T11:07:44Z</time>
      </trkpt>
      <trkpt lat="45.30192" lon="5.74493">
        <ele>1677</ele>
        <time>2020-02-08T11:07:45Z</time>
      </trkpt>
      <trkpt lat="45.30195" lon="5.74495">
        <ele>1676.8</ele>
        <time>2020-02-08T11:07:46Z</time>
      </trkpt>
      <trkpt lat="45.30197" lon="5.74497">
        <ele>1677.2</ele>
        <time>2020-02-08T11:07:47Z</time>
      </trkpt>
      <trkpt lat="45.302" lon="5.74499">
        <ele>1677.2</ele>
        <time>2020-02-08T11:07:48Z</time>
      </trkpt>
      <trkpt lat="45.30203" lon="5.74501">
        <ele>1677.2</ele>
        <time>2020-02-08T11:07:49Z</time>
      </trkpt>
      <trkpt lat="45.30204" lon="5.74503">
        <ele>1677.2</ele>
        <time>2020-02-08T11:07:50Z</time>
      </trkpt>
      <trkpt lat="45.30206" lon="5.74506">
        <ele>1677.6</ele>
        <time>2020-02-08T11:07:51Z</time>
      </trkpt>
      <trkpt lat="45.30208" lon="5.74506">
        <ele>1678</ele>
        <time>2020-02-08T11:07:52Z</time>
      </trkpt>
      <trkpt lat="45.30209" lon="5.74507">
        <ele>1677.6</ele>
        <time>2020-02-08T11:07:53Z</time>
      </trkpt>
      <trkpt lat="45.30209" lon="5.74507">
        <ele>1677.4</ele>
        <time>2020-02-08T11:07:54Z</time>
      </trkpt>
      <trkpt lat="45.30209" lon="5.74507">
        <ele>1677.6</ele>
        <time>2020-02-08T11:07:55Z</time>
      </trkpt>
      <trkpt lat="45.3021" lon="5.74508">
        <ele>1677.8</ele>
        <time>2020-02-08T11:07:56Z</time>
      </trkpt>
      <trkpt lat="45.30211" lon="5.74509">
        <ele>1677.4</ele>
        <time>2020-02-08T11:07:57Z</time>
      </trkpt>
      <trkpt lat="45.30213" lon="5.7451">
        <ele>1677.6</ele>
        <time>2020-02-08T11:07:58Z</time>
      </trkpt>
      <trkpt lat="45.30214" lon="5.74511">
        <ele>1677.8</ele>
        <time>2020-02-08T11:07:59Z</time>
      </trkpt>
      <trkpt lat="45.30215" lon="5.74512">
        <ele>1677.8</ele>
        <time>2020-02-08T11:08:00Z</time>
      </trkpt>
      <trkpt lat="45.30216" lon="5.74513">
        <ele>1678.2</ele>
        <time>2020-02-08T11:08:01Z</time>
      </trkpt>
      <trkpt lat="45.30218" lon="5.74515">
        <ele>1678.8</ele>
        <time>2020-02-08T11:08:02Z</time>
      </trkpt>
      <trkpt lat="45.30219" lon="5.74516">
        <ele>1678.4</ele>
        <time>2020-02-08T11:08:03Z</time>
      </trkpt>
      <trkpt lat="45.30221" lon="5.74517">
        <ele>1678.4</ele>
        <time>2020-02-08T11:08:04Z</time>
      </trkpt>
      <trkpt lat="45.30223" lon="5.74519">
        <ele>1678.8</ele>
        <time>2020-02-08T11:08:05Z</time>
      </trkpt>
      <trkpt lat="45.30225" lon="5.7452">
        <ele>1678.8</ele>
        <time>2020-02-08T11:08:06Z</time>
      </trkpt>
      <trkpt lat="45.30226" lon="5.74522">
        <ele>1679</ele>
        <time>2020-02-08T11:08:07Z</time>
      </trkpt>
      <trkpt lat="45.30226" lon="5.74522">
        <ele>1678.4</ele>
        <time>2020-02-08T11:08:08Z</time>
      </trkpt>
      <trkpt lat="45.30227" lon="5.74523">
        <ele>1678.2</ele>
        <time>2020-02-08T11:08:09Z</time>
      </trkpt>
      <trkpt lat="45.30228" lon="5.74523">
        <ele>1678.2</ele>
        <time>2020-02-08T11:08:10Z</time>
      </trkpt>
      <trkpt lat="45.30229" lon="5.74524">
        <ele>1678.4</ele>
        <time>2020-02-08T11:08:11Z</time>
      </trkpt>
      <trkpt lat="45.3023" lon="5.74525">
        <ele>1678.8</ele>
        <time>2020-02-08T11:08:12Z</time>
      </trkpt>
      <trkpt lat="45.30231" lon="5.74526">
        <ele>1679.2</ele>
        <time>2020-02-08T11:08:13Z</time>
      </trkpt>
      <trkpt lat="45.30232" lon="5.74527">
        <ele>1679.6</ele>
        <time>2020-02-08T11:08:14Z</time>
      </trkpt>
      <trkpt lat="45.30233" lon="5.74528">
        <ele>1679.8</ele>
        <time>2020-02-08T11:08:15Z</time>
      </trkpt>
      <trkpt lat="45.30234" lon="5.74529">
        <ele>1680</ele>
        <time>2020-02-08T11:08:16Z</time>
      </trkpt>
      <trkpt lat="45.30236" lon="5.74529">
        <ele>1680</ele>
        <time>2020-02-08T11:08:17Z</time>
      </trkpt>
      <trkpt lat="45.30237" lon="5.7453">
        <ele>1680</ele>
        <time>2020-02-08T11:08:18Z</time>
      </trkpt>
      <trkpt lat="45.30238" lon="5.7453">
        <ele>1680.8</ele>
        <time>2020-02-08T11:08:19Z</time>
      </trkpt>
      <trkpt lat="45.30239" lon="5.74531">
        <ele>1680.6</ele>
        <time>2020-02-08T11:08:20Z</time>
      </trkpt>
      <trkpt lat="45.30241" lon="5.74531">
        <ele>1680.6</ele>
        <time>2020-02-08T11:08:21Z</time>
      </trkpt>
      <trkpt lat="45.30242" lon="5.74532">
        <ele>1680.6</ele>
        <time>2020-02-08T11:08:22Z</time>
      </trkpt>
      <trkpt lat="45.30243" lon="5.74533">
        <ele>1681</ele>
        <time>2020-02-08T11:08:23Z</time>
      </trkpt>
      <trkpt lat="45.30245" lon="5.74533">
        <ele>1681.4</ele>
        <time>2020-02-08T11:08:24Z</time>
      </trkpt>
      <trkpt lat="45.30246" lon="5.74534">
        <ele>1681.2</ele>
        <time>2020-02-08T11:08:25Z</time>
      </trkpt>
      <trkpt lat="45.30248" lon="5.74535">
        <ele>1681</ele>
        <time>2020-02-08T11:08:26Z</time>
      </trkpt>
      <trkpt lat="45.3025" lon="5.74536">
        <ele>1680.8</ele>
        <time>2020-02-08T11:08:27Z</time>
      </trkpt>
      <trkpt lat="45.30251" lon="5.74536">
        <ele>1681.4</ele>
        <time>2020-02-08T11:08:28Z</time>
      </trkpt>
      <trkpt lat="45.30253" lon="5.74537">
        <ele>1681.4</ele>
        <time>2020-02-08T11:08:29Z</time>
      </trkpt>
      <trkpt lat="45.30254" lon="5.74538">
        <ele>1681.4</ele>
        <time>2020-02-08T11:08:30Z</time>
      </trkpt>
      <trkpt lat="45.30256" lon="5.74539">
        <ele>1681.8</ele>
        <time>2020-02-08T11:08:31Z</time>
      </trkpt>
      <trkpt lat="45.30258" lon="5.7454">
        <ele>1681.4</ele>
        <time>2020-02-08T11:08:32Z</time>
      </trkpt>
      <trkpt lat="45.30259" lon="5.74541">
        <ele>1681.6</ele>
        <time>2020-02-08T11:08:33Z</time>
      </trkpt>
      <trkpt lat="45.30261" lon="5.74542">
        <ele>1681.8</ele>
        <time>2020-02-08T11:08:34Z</time>
      </trkpt>
      <trkpt lat="45.30262" lon="5.74543">
        <ele>1682.2</ele>
        <time>2020-02-08T11:08:35Z</time>
      </trkpt>
      <trkpt lat="45.30264" lon="5.74544">
        <ele>1682.6</ele>
        <time>2020-02-08T11:08:36Z</time>
      </trkpt>
      <trkpt lat="45.30265" lon="5.74545">
        <ele>1682.4</ele>
        <time>2020-02-08T11:08:37Z</time>
      </trkpt>
      <trkpt lat="45.30266" lon="5.74546">
        <ele>1682.4</ele>
        <time>2020-02-08T11:08:38Z</time>
      </trkpt>
      <trkpt lat="45.30267" lon="5.74547">
        <ele>1682.8</ele>
        <time>2020-02-08T11:08:39Z</time>
      </trkpt>
      <trkpt lat="45.30269" lon="5.74548">
        <ele>1683.2</ele>
        <time>2020-02-08T11:08:40Z</time>
      </trkpt>
      <trkpt lat="45.3027" lon="5.74549">
        <ele>1683.4</ele>
        <time>2020-02-08T11:08:41Z</time>
      </trkpt>
      <trkpt lat="45.30271" lon="5.7455">
        <ele>1683.2</ele>
        <time>2020-02-08T11:08:42Z</time>
      </trkpt>
      <trkpt lat="45.30273" lon="5.74551">
        <ele>1683.4</ele>
        <time>2020-02-08T11:08:43Z</time>
      </trkpt>
      <trkpt lat="45.30274" lon="5.74552">
        <ele>1683.8</ele>
        <time>2020-02-08T11:08:44Z</time>
      </trkpt>
      <trkpt lat="45.30275" lon="5.74553">
        <ele>1683.6</ele>
        <time>2020-02-08T11:08:45Z</time>
      </trkpt>
      <trkpt lat="45.30277" lon="5.74554">
        <ele>1683.8</ele>
        <time>2020-02-08T11:08:46Z</time>
      </trkpt>
      <trkpt lat="45.30278" lon="5.74555">
        <ele>1683.8</ele>
        <time>2020-02-08T11:08:47Z</time>
      </trkpt>
      <trkpt lat="45.3028" lon="5.74556">
        <ele>1684.2</ele>
        <time>2020-02-08T11:08:48Z</time>
      </trkpt>
      <trkpt lat="45.30281" lon="5.74557">
        <ele>1684</ele>
        <time>2020-02-08T11:08:49Z</time>
      </trkpt>
      <trkpt lat="45.30283" lon="5.74558">
        <ele>1684</ele>
        <time>2020-02-08T11:08:50Z</time>
      </trkpt>
      <trkpt lat="45.30284" lon="5.74559">
        <ele>1684.4</ele>
        <time>2020-02-08T11:08:51Z</time>
      </trkpt>
      <trkpt lat="45.30286" lon="5.74561">
        <ele>1684</ele>
        <time>2020-02-08T11:08:52Z</time>
      </trkpt>
      <trkpt lat="45.30287" lon="5.74562">
        <ele>1684</ele>
        <time>2020-02-08T11:08:53Z</time>
      </trkpt>
      <trkpt lat="45.30289" lon="5.74563">
        <ele>1684.4</ele>
        <time>2020-02-08T11:08:54Z</time>
      </trkpt>
      <trkpt lat="45.3029" lon="5.74564">
        <ele>1684.6</ele>
        <time>2020-02-08T11:08:55Z</time>
      </trkpt>
      <trkpt lat="45.30291" lon="5.74565">
        <ele>1684.8</ele>
        <time>2020-02-08T11:08:56Z</time>
      </trkpt>
      <trkpt lat="45.30292" lon="5.74566">
        <ele>1684.8</ele>
        <time>2020-02-08T11:08:57Z</time>
      </trkpt>
      <trkpt lat="45.30293" lon="5.74566">
        <ele>1684.8</ele>
        <time>2020-02-08T11:08:58Z</time>
      </trkpt>
      <trkpt lat="45.30294" lon="5.74567">
        <ele>1685.2</ele>
        <time>2020-02-08T11:08:59Z</time>
      </trkpt>
      <trkpt lat="45.30296" lon="5.74568">
        <ele>1685.6</ele>
        <time>2020-02-08T11:09:00Z</time>
      </trkpt>
      <trkpt lat="45.30297" lon="5.74568">
        <ele>1685.4</ele>
        <time>2020-02-08T11:09:01Z</time>
      </trkpt>
      <trkpt lat="45.30298" lon="5.74569">
        <ele>1685.6</ele>
        <time>2020-02-08T11:09:02Z</time>
      </trkpt>
      <trkpt lat="45.30299" lon="5.74569">
        <ele>1685.8</ele>
        <time>2020-02-08T11:09:03Z</time>
      </trkpt>
      <trkpt lat="45.303" lon="5.74569">
        <ele>1686.4</ele>
        <time>2020-02-08T11:09:04Z</time>
      </trkpt>
      <trkpt lat="45.30301" lon="5.74569">
        <ele>1686.8</ele>
        <time>2020-02-08T11:09:05Z</time>
      </trkpt>
      <trkpt lat="45.30302" lon="5.74569">
        <ele>1686.6</ele>
        <time>2020-02-08T11:09:06Z</time>
      </trkpt>
      <trkpt lat="45.30303" lon="5.74569">
        <ele>1686.8</ele>
        <time>2020-02-08T11:09:07Z</time>
      </trkpt>
      <trkpt lat="45.30304" lon="5.74569">
        <ele>1687.2</ele>
        <time>2020-02-08T11:09:08Z</time>
      </trkpt>
      <trkpt lat="45.30305" lon="5.74569">
        <ele>1687.4</ele>
        <time>2020-02-08T11:09:09Z</time>
      </trkpt>
      <trkpt lat="45.30306" lon="5.74569">
        <ele>1687.8</ele>
        <time>2020-02-08T11:09:10Z</time>
      </trkpt>
      <trkpt lat="45.30308" lon="5.74569">
        <ele>1687.8</ele>
        <time>2020-02-08T11:09:11Z</time>
      </trkpt>
      <trkpt lat="45.30309" lon="5.7457">
        <ele>1687.4</ele>
        <time>2020-02-08T11:09:12Z</time>
      </trkpt>
      <trkpt lat="45.30311" lon="5.74571">
        <ele>1687.6</ele>
        <time>2020-02-08T11:09:13Z</time>
      </trkpt>
      <trkpt lat="45.30313" lon="5.74572">
        <ele>1687.6</ele>
        <time>2020-02-08T11:09:14Z</time>
      </trkpt>
      <trkpt lat="45.30314" lon="5.74573">
        <ele>1688</ele>
        <time>2020-02-08T11:09:15Z</time>
      </trkpt>
      <trkpt lat="45.30316" lon="5.74574">
        <ele>1688</ele>
        <time>2020-02-08T11:09:16Z</time>
      </trkpt>
      <trkpt lat="45.30318" lon="5.74575">
        <ele>1687.8</ele>
        <time>2020-02-08T11:09:17Z</time>
      </trkpt>
      <trkpt lat="45.30319" lon="5.74576">
        <ele>1688.2</ele>
        <time>2020-02-08T11:09:18Z</time>
      </trkpt>
      <trkpt lat="45.30321" lon="5.74578">
        <ele>1688.4</ele>
        <time>2020-02-08T11:09:19Z</time>
      </trkpt>
      <trkpt lat="45.30322" lon="5.74579">
        <ele>1688.6</ele>
        <time>2020-02-08T11:09:20Z</time>
      </trkpt>
      <trkpt lat="45.30324" lon="5.7458">
        <ele>1689</ele>
        <time>2020-02-08T11:09:21Z</time>
      </trkpt>
      <trkpt lat="45.30325" lon="5.74582">
        <ele>1688.8</ele>
        <time>2020-02-08T11:09:22Z</time>
      </trkpt>
      <trkpt lat="45.30327" lon="5.74583">
        <ele>1688.6</ele>
        <time>2020-02-08T11:09:23Z</time>
      </trkpt>
      <trkpt lat="45.30328" lon="5.74584">
        <ele>1689</ele>
        <time>2020-02-08T11:09:24Z</time>
      </trkpt>
      <trkpt lat="45.30329" lon="5.74585">
        <ele>1689</ele>
        <time>2020-02-08T11:09:25Z</time>
      </trkpt>
      <trkpt lat="45.30331" lon="5.74586">
        <ele>1689.4</ele>
        <time>2020-02-08T11:09:26Z</time>
      </trkpt>
      <trkpt lat="45.30332" lon="5.74587">
        <ele>1689.2</ele>
        <time>2020-02-08T11:09:27Z</time>
      </trkpt>
      <trkpt lat="45.30333" lon="5.74588">
        <ele>1689</ele>
        <time>2020-02-08T11:09:28Z</time>
      </trkpt>
      <trkpt lat="45.30334" lon="5.74589">
        <ele>1689.2</ele>
        <time>2020-02-08T11:09:29Z</time>
      </trkpt>
      <trkpt lat="45.30336" lon="5.7459">
        <ele>1689.2</ele>
        <time>2020-02-08T11:09:30Z</time>
      </trkpt>
      <trkpt lat="45.30338" lon="5.74591">
        <ele>1689.2</ele>
        <time>2020-02-08T11:09:31Z</time>
      </trkpt>
      <trkpt lat="45.30341" lon="5.74592">
        <ele>1689</ele>
        <time>2020-02-08T11:09:32Z</time>
      </trkpt>
      <trkpt lat="45.30343" lon="5.74593">
        <ele>1689</ele>
        <time>2020-02-08T11:09:33Z</time>
      </trkpt>
      <trkpt lat="45.30346" lon="5.74593">
        <ele>1689.4</ele>
        <time>2020-02-08T11:09:34Z</time>
      </trkpt>
      <trkpt lat="45.30348" lon="5.74594">
        <ele>1689.6</ele>
        <time>2020-02-08T11:09:35Z</time>
      </trkpt>
      <trkpt lat="45.3035" lon="5.74595">
        <ele>1689.8</ele>
        <time>2020-02-08T11:09:36Z</time>
      </trkpt>
      <trkpt lat="45.3035" lon="5.74595">
        <ele>1689.6</ele>
        <time>2020-02-08T11:09:37Z</time>
      </trkpt>
      <trkpt lat="45.3035" lon="5.74596">
        <ele>1689.6</ele>
        <time>2020-02-08T11:09:38Z</time>
      </trkpt>
      <trkpt lat="45.30351" lon="5.74596">
        <ele>1689.6</ele>
        <time>2020-02-08T11:09:39Z</time>
      </trkpt>
      <trkpt lat="45.30352" lon="5.74597">
        <ele>1690.2</ele>
        <time>2020-02-08T11:09:40Z</time>
      </trkpt>
      <trkpt lat="45.30353" lon="5.74598">
        <ele>1691</ele>
        <time>2020-02-08T11:09:41Z</time>
      </trkpt>
      <trkpt lat="45.30354" lon="5.74599">
        <ele>1691</ele>
        <time>2020-02-08T11:09:42Z</time>
      </trkpt>
      <trkpt lat="45.30355" lon="5.74599">
        <ele>1691.2</ele>
        <time>2020-02-08T11:09:43Z</time>
      </trkpt>
      <trkpt lat="45.30356" lon="5.746">
        <ele>1691.4</ele>
        <time>2020-02-08T11:09:44Z</time>
      </trkpt>
      <trkpt lat="45.30357" lon="5.74601">
        <ele>1691.8</ele>
        <time>2020-02-08T11:09:45Z</time>
      </trkpt>
      <trkpt lat="45.30358" lon="5.74601">
        <ele>1692</ele>
        <time>2020-02-08T11:09:46Z</time>
      </trkpt>
      <trkpt lat="45.30359" lon="5.74602">
        <ele>1692</ele>
        <time>2020-02-08T11:09:47Z</time>
      </trkpt>
      <trkpt lat="45.30361" lon="5.74604">
        <ele>1692</ele>
        <time>2020-02-08T11:09:48Z</time>
      </trkpt>
      <trkpt lat="45.30362" lon="5.74605">
        <ele>1692.2</ele>
        <time>2020-02-08T11:09:49Z</time>
      </trkpt>
      <trkpt lat="45.30363" lon="5.74606">
        <ele>1692.4</ele>
        <time>2020-02-08T11:09:50Z</time>
      </trkpt>
      <trkpt lat="45.30365" lon="5.74607">
        <ele>1692.4</ele>
        <time>2020-02-08T11:09:51Z</time>
      </trkpt>
      <trkpt lat="45.30366" lon="5.74608">
        <ele>1692</ele>
        <time>2020-02-08T11:09:52Z</time>
      </trkpt>
      <trkpt lat="45.30367" lon="5.74609">
        <ele>1691.8</ele>
        <time>2020-02-08T11:09:53Z</time>
      </trkpt>
      <trkpt lat="45.30368" lon="5.7461">
        <ele>1692.2</ele>
        <time>2020-02-08T11:09:54Z</time>
      </trkpt>
      <trkpt lat="45.30369" lon="5.74611">
        <ele>1692.6</ele>
        <time>2020-02-08T11:09:55Z</time>
      </trkpt>
      <trkpt lat="45.3037" lon="5.74612">
        <ele>1693</ele>
        <time>2020-02-08T11:09:56Z</time>
      </trkpt>
      <trkpt lat="45.30371" lon="5.74613">
        <ele>1693.2</ele>
        <time>2020-02-08T11:09:57Z</time>
      </trkpt>
      <trkpt lat="45.30372" lon="5.74613">
        <ele>1694</ele>
        <time>2020-02-08T11:09:58Z</time>
      </trkpt>
      <trkpt lat="45.30373" lon="5.74614">
        <ele>1693.8</ele>
        <time>2020-02-08T11:09:59Z</time>
      </trkpt>
      <trkpt lat="45.30374" lon="5.74615">
        <ele>1694.2</ele>
        <time>2020-02-08T11:10:00Z</time>
      </trkpt>
      <trkpt lat="45.30375" lon="5.74616">
        <ele>1694.8</ele>
        <time>2020-02-08T11:10:01Z</time>
      </trkpt>
      <trkpt lat="45.30376" lon="5.74617">
        <ele>1695</ele>
        <time>2020-02-08T11:10:02Z</time>
      </trkpt>
      <trkpt lat="45.30378" lon="5.74617">
        <ele>1695.2</ele>
        <time>2020-02-08T11:10:03Z</time>
      </trkpt>
      <trkpt lat="45.30379" lon="5.74618">
        <ele>1695.4</ele>
        <time>2020-02-08T11:10:04Z</time>
      </trkpt>
      <trkpt lat="45.3038" lon="5.74619">
        <ele>1695.8</ele>
        <time>2020-02-08T11:10:05Z</time>
      </trkpt>
      <trkpt lat="45.30382" lon="5.74619">
        <ele>1696</ele>
        <time>2020-02-08T11:10:06Z</time>
      </trkpt>
      <trkpt lat="45.30383" lon="5.7462">
        <ele>1696.2</ele>
        <time>2020-02-08T11:10:07Z</time>
      </trkpt>
      <trkpt lat="45.30384" lon="5.7462">
        <ele>1696.2</ele>
        <time>2020-02-08T11:10:08Z</time>
      </trkpt>
      <trkpt lat="45.30385" lon="5.74621">
        <ele>1696.8</ele>
        <time>2020-02-08T11:10:09Z</time>
      </trkpt>
      <trkpt lat="45.30386" lon="5.74621">
        <ele>1696.6</ele>
        <time>2020-02-08T11:10:10Z</time>
      </trkpt>
      <trkpt lat="45.30387" lon="5.74622">
        <ele>1697</ele>
        <time>2020-02-08T11:10:11Z</time>
      </trkpt>
      <trkpt lat="45.30388" lon="5.74622">
        <ele>1697.4</ele>
        <time>2020-02-08T11:10:12Z</time>
      </trkpt>
      <trkpt lat="45.3039" lon="5.74622">
        <ele>1697.8</ele>
        <time>2020-02-08T11:10:13Z</time>
      </trkpt>
      <trkpt lat="45.30392" lon="5.74622">
        <ele>1698.2</ele>
        <time>2020-02-08T11:10:14Z</time>
      </trkpt>
      <trkpt lat="45.30393" lon="5.74622">
        <ele>1698.2</ele>
        <time>2020-02-08T11:10:15Z</time>
      </trkpt>
      <trkpt lat="45.30395" lon="5.74623">
        <ele>1698</ele>
        <time>2020-02-08T11:10:16Z</time>
      </trkpt>
      <trkpt lat="45.30397" lon="5.74623">
        <ele>1698.2</ele>
        <time>2020-02-08T11:10:17Z</time>
      </trkpt>
      <trkpt lat="45.30397" lon="5.74623">
        <ele>1698.6</ele>
        <time>2020-02-08T11:10:18Z</time>
      </trkpt>
      <trkpt lat="45.304" lon="5.74623">
        <ele>1698.8</ele>
        <time>2020-02-08T11:10:19Z</time>
      </trkpt>
      <trkpt lat="45.304" lon="5.74623">
        <ele>1698.8</ele>
        <time>2020-02-08T11:10:20Z</time>
      </trkpt>
      <trkpt lat="45.304" lon="5.74623">
        <ele>1698.6</ele>
        <time>2020-02-08T11:10:21Z</time>
      </trkpt>
      <trkpt lat="45.30404" lon="5.74622">
        <ele>1698.4</ele>
        <time>2020-02-08T11:10:22Z</time>
      </trkpt>
      <trkpt lat="45.30404" lon="5.74622">
        <ele>1698.8</ele>
        <time>2020-02-08T11:10:23Z</time>
      </trkpt>
      <trkpt lat="45.30407" lon="5.74622">
        <ele>1699.2</ele>
        <time>2020-02-08T11:10:24Z</time>
      </trkpt>
      <trkpt lat="45.30409" lon="5.74622">
        <ele>1699.8</ele>
        <time>2020-02-08T11:10:25Z</time>
      </trkpt>
      <trkpt lat="45.30409" lon="5.74622">
        <ele>1700.2</ele>
        <time>2020-02-08T11:10:26Z</time>
      </trkpt>
      <trkpt lat="45.30411" lon="5.74623">
        <ele>1700</ele>
        <time>2020-02-08T11:10:27Z</time>
      </trkpt>
      <trkpt lat="45.30411" lon="5.74623">
        <ele>1699.8</ele>
        <time>2020-02-08T11:10:28Z</time>
      </trkpt>
      <trkpt lat="45.30414" lon="5.74623">
        <ele>1699.8</ele>
        <time>2020-02-08T11:10:29Z</time>
      </trkpt>
      <trkpt lat="45.30416" lon="5.74623">
        <ele>1700.2</ele>
        <time>2020-02-08T11:10:30Z</time>
      </trkpt>
      <trkpt lat="45.30416" lon="5.74623">
        <ele>1700.6</ele>
        <time>2020-02-08T11:10:31Z</time>
      </trkpt>
      <trkpt lat="45.30419" lon="5.74624">
        <ele>1700.6</ele>
        <time>2020-02-08T11:10:32Z</time>
      </trkpt>
      <trkpt lat="45.30419" lon="5.74624">
        <ele>1700.2</ele>
        <time>2020-02-08T11:10:33Z</time>
      </trkpt>
      <trkpt lat="45.30422" lon="5.74625">
        <ele>1700.2</ele>
        <time>2020-02-08T11:10:34Z</time>
      </trkpt>
      <trkpt lat="45.30422" lon="5.74625">
        <ele>1700.6</ele>
        <time>2020-02-08T11:10:35Z</time>
      </trkpt>
      <trkpt lat="45.30424" lon="5.74628">
        <ele>1701</ele>
        <time>2020-02-08T11:10:36Z</time>
      </trkpt>
      <trkpt lat="45.30424" lon="5.74628">
        <ele>1701</ele>
        <time>2020-02-08T11:10:37Z</time>
      </trkpt>
      <trkpt lat="45.30424" lon="5.74628">
        <ele>1701.6</ele>
        <time>2020-02-08T11:10:38Z</time>
      </trkpt>
      <trkpt lat="45.30427" lon="5.74631">
        <ele>1701.6</ele>
        <time>2020-02-08T11:10:39Z</time>
      </trkpt>
      <trkpt lat="45.30427" lon="5.74631">
        <ele>1702</ele>
        <time>2020-02-08T11:10:40Z</time>
      </trkpt>
      <trkpt lat="45.3043" lon="5.74632">
        <ele>1702.2</ele>
        <time>2020-02-08T11:10:41Z</time>
      </trkpt>
      <trkpt lat="45.3043" lon="5.74632">
        <ele>1702.2</ele>
        <time>2020-02-08T11:10:42Z</time>
      </trkpt>
      <trkpt lat="45.3043" lon="5.74632">
        <ele>1702.2</ele>
        <time>2020-02-08T11:10:43Z</time>
      </trkpt>
      <trkpt lat="45.30432" lon="5.74633">
        <ele>1702</ele>
        <time>2020-02-08T11:10:44Z</time>
      </trkpt>
      <trkpt lat="45.30434" lon="5.74633">
        <ele>1701.8</ele>
        <time>2020-02-08T11:10:45Z</time>
      </trkpt>
      <trkpt lat="45.30437" lon="5.74634">
        <ele>1701.8</ele>
        <time>2020-02-08T11:10:46Z</time>
      </trkpt>
      <trkpt lat="45.30439" lon="5.74634">
        <ele>1702</ele>
        <time>2020-02-08T11:10:47Z</time>
      </trkpt>
      <trkpt lat="45.30442" lon="5.74634">
        <ele>1702.4</ele>
        <time>2020-02-08T11:10:48Z</time>
      </trkpt>
      <trkpt lat="45.30444" lon="5.74635">
        <ele>1702.8</ele>
        <time>2020-02-08T11:10:49Z</time>
      </trkpt>
      <trkpt lat="45.30446" lon="5.74635">
        <ele>1702.4</ele>
        <time>2020-02-08T11:10:50Z</time>
      </trkpt>
      <trkpt lat="45.30446" lon="5.74635">
        <ele>1702.6</ele>
        <time>2020-02-08T11:10:51Z</time>
      </trkpt>
      <trkpt lat="45.3045" lon="5.74637">
        <ele>1702.6</ele>
        <time>2020-02-08T11:10:52Z</time>
      </trkpt>
      <trkpt lat="45.3045" lon="5.74637">
        <ele>1702.6</ele>
        <time>2020-02-08T11:10:53Z</time>
      </trkpt>
      <trkpt lat="45.30452" lon="5.74638">
        <ele>1702.8</ele>
        <time>2020-02-08T11:10:54Z</time>
      </trkpt>
      <trkpt lat="45.30452" lon="5.74638">
        <ele>1703.4</ele>
        <time>2020-02-08T11:10:55Z</time>
      </trkpt>
      <trkpt lat="45.30452" lon="5.74638">
        <ele>1703.6</ele>
        <time>2020-02-08T11:10:56Z</time>
      </trkpt>
      <trkpt lat="45.30454" lon="5.74639">
        <ele>1704</ele>
        <time>2020-02-08T11:10:57Z</time>
      </trkpt>
      <trkpt lat="45.30456" lon="5.74639">
        <ele>1704.4</ele>
        <time>2020-02-08T11:10:58Z</time>
      </trkpt>
      <trkpt lat="45.30457" lon="5.74639">
        <ele>1704.4</ele>
        <time>2020-02-08T11:10:59Z</time>
      </trkpt>
      <trkpt lat="45.30459" lon="5.7464">
        <ele>1704.2</ele>
        <time>2020-02-08T11:11:00Z</time>
      </trkpt>
      <trkpt lat="45.30461" lon="5.7464">
        <ele>1704.4</ele>
        <time>2020-02-08T11:11:01Z</time>
      </trkpt>
      <trkpt lat="45.30463" lon="5.74641">
        <ele>1704.8</ele>
        <time>2020-02-08T11:11:02Z</time>
      </trkpt>
      <trkpt lat="45.30465" lon="5.74641">
        <ele>1705.2</ele>
        <time>2020-02-08T11:11:03Z</time>
      </trkpt>
      <trkpt lat="45.30467" lon="5.74642">
        <ele>1705.4</ele>
        <time>2020-02-08T11:11:04Z</time>
      </trkpt>
      <trkpt lat="45.30467" lon="5.74642">
        <ele>1705.8</ele>
        <time>2020-02-08T11:11:05Z</time>
      </trkpt>
      <trkpt lat="45.30469" lon="5.74643">
        <ele>1705.6</ele>
        <time>2020-02-08T11:11:06Z</time>
      </trkpt>
      <trkpt lat="45.30469" lon="5.74643">
        <ele>1705.4</ele>
        <time>2020-02-08T11:11:07Z</time>
      </trkpt>
      <trkpt lat="45.30469" lon="5.74643">
        <ele>1705.6</ele>
        <time>2020-02-08T11:11:08Z</time>
      </trkpt>
      <trkpt lat="45.3047" lon="5.74643">
        <ele>1706</ele>
        <time>2020-02-08T11:11:09Z</time>
      </trkpt>
      <trkpt lat="45.30472" lon="5.74643">
        <ele>1706.4</ele>
        <time>2020-02-08T11:11:10Z</time>
      </trkpt>
      <trkpt lat="45.30473" lon="5.74643">
        <ele>1705.8</ele>
        <time>2020-02-08T11:11:11Z</time>
      </trkpt>
      <trkpt lat="45.30475" lon="5.74643">
        <ele>1705.6</ele>
        <time>2020-02-08T11:11:12Z</time>
      </trkpt>
      <trkpt lat="45.30476" lon="5.74643">
        <ele>1705.8</ele>
        <time>2020-02-08T11:11:13Z</time>
      </trkpt>
      <trkpt lat="45.30478" lon="5.74643">
        <ele>1706.4</ele>
        <time>2020-02-08T11:11:14Z</time>
      </trkpt>
      <trkpt lat="45.30479" lon="5.74643">
        <ele>1706.8</ele>
        <time>2020-02-08T11:11:15Z</time>
      </trkpt>
      <trkpt lat="45.30481" lon="5.74644">
        <ele>1707</ele>
        <time>2020-02-08T11:11:16Z</time>
      </trkpt>
      <trkpt lat="45.30482" lon="5.74645">
        <ele>1707.2</ele>
        <time>2020-02-08T11:11:17Z</time>
      </trkpt>
      <trkpt lat="45.30484" lon="5.74645">
        <ele>1707</ele>
        <time>2020-02-08T11:11:18Z</time>
      </trkpt>
      <trkpt lat="45.30485" lon="5.74646">
        <ele>1707</ele>
        <time>2020-02-08T11:11:19Z</time>
      </trkpt>
      <trkpt lat="45.30486" lon="5.74647">
        <ele>1707.2</ele>
        <time>2020-02-08T11:11:20Z</time>
      </trkpt>
      <trkpt lat="45.30488" lon="5.74648">
        <ele>1707.4</ele>
        <time>2020-02-08T11:11:21Z</time>
      </trkpt>
      <trkpt lat="45.30489" lon="5.74648">
        <ele>1707.6</ele>
        <time>2020-02-08T11:11:22Z</time>
      </trkpt>
      <trkpt lat="45.30491" lon="5.74649">
        <ele>1707.6</ele>
        <time>2020-02-08T11:11:23Z</time>
      </trkpt>
      <trkpt lat="45.30493" lon="5.74649">
        <ele>1707.6</ele>
        <time>2020-02-08T11:11:24Z</time>
      </trkpt>
      <trkpt lat="45.30494" lon="5.7465">
        <ele>1707.8</ele>
        <time>2020-02-08T11:11:25Z</time>
      </trkpt>
      <trkpt lat="45.30496" lon="5.74651">
        <ele>1708.2</ele>
        <time>2020-02-08T11:11:26Z</time>
      </trkpt>
      <trkpt lat="45.30497" lon="5.74651">
        <ele>1708.4</ele>
        <time>2020-02-08T11:11:27Z</time>
      </trkpt>
      <trkpt lat="45.30499" lon="5.74652">
        <ele>1708.4</ele>
        <time>2020-02-08T11:11:28Z</time>
      </trkpt>
      <trkpt lat="45.30501" lon="5.74652">
        <ele>1708.6</ele>
        <time>2020-02-08T11:11:29Z</time>
      </trkpt>
      <trkpt lat="45.30503" lon="5.74652">
        <ele>1708.2</ele>
        <time>2020-02-08T11:11:30Z</time>
      </trkpt>
      <trkpt lat="45.30505" lon="5.74653">
        <ele>1708.2</ele>
        <time>2020-02-08T11:11:31Z</time>
      </trkpt>
      <trkpt lat="45.30507" lon="5.74653">
        <ele>1708.4</ele>
        <time>2020-02-08T11:11:32Z</time>
      </trkpt>
      <trkpt lat="45.30509" lon="5.74653">
        <ele>1708.6</ele>
        <time>2020-02-08T11:11:33Z</time>
      </trkpt>
      <trkpt lat="45.3051" lon="5.74654">
        <ele>1708.2</ele>
        <time>2020-02-08T11:11:34Z</time>
      </trkpt>
      <trkpt lat="45.30512" lon="5.74655">
        <ele>1708</ele>
        <time>2020-02-08T11:11:35Z</time>
      </trkpt>
      <trkpt lat="45.30514" lon="5.74656">
        <ele>1708</ele>
        <time>2020-02-08T11:11:36Z</time>
      </trkpt>
      <trkpt lat="45.30516" lon="5.74657">
        <ele>1708.2</ele>
        <time>2020-02-08T11:11:37Z</time>
      </trkpt>
      <trkpt lat="45.30517" lon="5.74658">
        <ele>1708.4</ele>
        <time>2020-02-08T11:11:38Z</time>
      </trkpt>
      <trkpt lat="45.30522" lon="5.7466">
        <ele>1708.6</ele>
        <time>2020-02-08T11:11:39Z</time>
      </trkpt>
      <trkpt lat="45.30522" lon="5.7466">
        <ele>1708.6</ele>
        <time>2020-02-08T11:11:40Z</time>
      </trkpt>
      <trkpt lat="45.30522" lon="5.7466">
        <ele>1708.2</ele>
        <time>2020-02-08T11:11:41Z</time>
      </trkpt>
      <trkpt lat="45.30526" lon="5.74661">
        <ele>1708.4</ele>
        <time>2020-02-08T11:11:42Z</time>
      </trkpt>
      <trkpt lat="45.30526" lon="5.74661">
        <ele>1708.6</ele>
        <time>2020-02-08T11:11:43Z</time>
      </trkpt>
      <trkpt lat="45.30526" lon="5.74661">
        <ele>1708.8</ele>
        <time>2020-02-08T11:11:44Z</time>
      </trkpt>
      <trkpt lat="45.3053" lon="5.74664">
        <ele>1708.8</ele>
        <time>2020-02-08T11:11:45Z</time>
      </trkpt>
      <trkpt lat="45.3053" lon="5.74664">
        <ele>1708.4</ele>
        <time>2020-02-08T11:11:46Z</time>
      </trkpt>
      <trkpt lat="45.3053" lon="5.74664">
        <ele>1708.2</ele>
        <time>2020-02-08T11:11:47Z</time>
      </trkpt>
      <trkpt lat="45.30531" lon="5.74665">
        <ele>1708.4</ele>
        <time>2020-02-08T11:11:48Z</time>
      </trkpt>
      <trkpt lat="45.30532" lon="5.74665">
        <ele>1708.6</ele>
        <time>2020-02-08T11:11:49Z</time>
      </trkpt>
      <trkpt lat="45.30533" lon="5.74665">
        <ele>1709</ele>
        <time>2020-02-08T11:11:50Z</time>
      </trkpt>
      <trkpt lat="45.30534" lon="5.74666">
        <ele>1709.4</ele>
        <time>2020-02-08T11:11:51Z</time>
      </trkpt>
      <trkpt lat="45.30535" lon="5.74667">
        <ele>1709.8</ele>
        <time>2020-02-08T11:11:52Z</time>
      </trkpt>
      <trkpt lat="45.30536" lon="5.74668">
        <ele>1709.8</ele>
        <time>2020-02-08T11:11:53Z</time>
      </trkpt>
      <trkpt lat="45.30537" lon="5.74669">
        <ele>1709.6</ele>
        <time>2020-02-08T11:11:54Z</time>
      </trkpt>
      <trkpt lat="45.30538" lon="5.7467">
        <ele>1709.6</ele>
        <time>2020-02-08T11:11:55Z</time>
      </trkpt>
      <trkpt lat="45.30539" lon="5.74672">
        <ele>1709.8</ele>
        <time>2020-02-08T11:11:56Z</time>
      </trkpt>
      <trkpt lat="45.3054" lon="5.74673">
        <ele>1710</ele>
        <time>2020-02-08T11:11:57Z</time>
      </trkpt>
      <trkpt lat="45.30542" lon="5.74674">
        <ele>1710.2</ele>
        <time>2020-02-08T11:11:58Z</time>
      </trkpt>
      <trkpt lat="45.30542" lon="5.74674">
        <ele>1710.2</ele>
        <time>2020-02-08T11:11:59Z</time>
      </trkpt>
      <trkpt lat="45.30543" lon="5.74673">
        <ele>1710.2</ele>
        <time>2020-02-08T11:12:00Z</time>
      </trkpt>
      <trkpt lat="45.30544" lon="5.74673">
        <ele>1710</ele>
        <time>2020-02-08T11:12:01Z</time>
      </trkpt>
      <trkpt lat="45.30544" lon="5.74673">
        <ele>1710</ele>
        <time>2020-02-08T11:12:02Z</time>
      </trkpt>
      <trkpt lat="45.30545" lon="5.74673">
        <ele>1710.4</ele>
        <time>2020-02-08T11:12:03Z</time>
      </trkpt>
      <trkpt lat="45.30546" lon="5.74672">
        <ele>1710.8</ele>
        <time>2020-02-08T11:12:04Z</time>
      </trkpt>
      <trkpt lat="45.30546" lon="5.74672">
        <ele>1711.2</ele>
        <time>2020-02-08T11:12:05Z</time>
      </trkpt>
      <trkpt lat="45.30547" lon="5.74672">
        <ele>1712</ele>
        <time>2020-02-08T11:12:06Z</time>
      </trkpt>
      <trkpt lat="45.30548" lon="5.74671">
        <ele>1712.4</ele>
        <time>2020-02-08T11:12:07Z</time>
      </trkpt>
      <trkpt lat="45.30548" lon="5.74671">
        <ele>1712.6</ele>
        <time>2020-02-08T11:12:08Z</time>
      </trkpt>
      <trkpt lat="45.30549" lon="5.74672">
        <ele>1712.6</ele>
        <time>2020-02-08T11:12:09Z</time>
      </trkpt>
      <trkpt lat="45.30551" lon="5.74672">
        <ele>1713</ele>
        <time>2020-02-08T11:12:10Z</time>
      </trkpt>
      <trkpt lat="45.30552" lon="5.74673">
        <ele>1714</ele>
        <time>2020-02-08T11:12:11Z</time>
      </trkpt>
      <trkpt lat="45.30553" lon="5.74673">
        <ele>1714.4</ele>
        <time>2020-02-08T11:12:12Z</time>
      </trkpt>
      <trkpt lat="45.30554" lon="5.74674">
        <ele>1715.2</ele>
        <time>2020-02-08T11:12:13Z</time>
      </trkpt>
      <trkpt lat="45.30555" lon="5.74675">
        <ele>1715.6</ele>
        <time>2020-02-08T11:12:14Z</time>
      </trkpt>
      <trkpt lat="45.30556" lon="5.74675">
        <ele>1716</ele>
        <time>2020-02-08T11:12:15Z</time>
      </trkpt>
      <trkpt lat="45.30557" lon="5.74676">
        <ele>1716.6</ele>
        <time>2020-02-08T11:12:16Z</time>
      </trkpt>
      <trkpt lat="45.30559" lon="5.74676">
        <ele>1717.4</ele>
        <time>2020-02-08T11:12:17Z</time>
      </trkpt>
      <trkpt lat="45.3056" lon="5.74677">
        <ele>1717.6</ele>
        <time>2020-02-08T11:12:18Z</time>
      </trkpt>
      <trkpt lat="45.30561" lon="5.74677">
        <ele>1718.6</ele>
        <time>2020-02-08T11:12:19Z</time>
      </trkpt>
      <trkpt lat="45.30563" lon="5.74678">
        <ele>1719</ele>
        <time>2020-02-08T11:12:20Z</time>
      </trkpt>
      <trkpt lat="45.30564" lon="5.74678">
        <ele>1719.6</ele>
        <time>2020-02-08T11:12:21Z</time>
      </trkpt>
      <trkpt lat="45.30566" lon="5.74679">
        <ele>1720</ele>
        <time>2020-02-08T11:12:22Z</time>
      </trkpt>
      <trkpt lat="45.30567" lon="5.7468">
        <ele>1720.2</ele>
        <time>2020-02-08T11:12:23Z</time>
      </trkpt>
      <trkpt lat="45.30568" lon="5.7468">
        <ele>1721.2</ele>
        <time>2020-02-08T11:12:24Z</time>
      </trkpt>
      <trkpt lat="45.30569" lon="5.74681">
        <ele>1721.6</ele>
        <time>2020-02-08T11:12:25Z</time>
      </trkpt>
      <trkpt lat="45.30569" lon="5.74682">
        <ele>1721.8</ele>
        <time>2020-02-08T11:12:26Z</time>
      </trkpt>
      <trkpt lat="45.3057" lon="5.74683">
        <ele>1722.4</ele>
        <time>2020-02-08T11:12:27Z</time>
      </trkpt>
      <trkpt lat="45.30571" lon="5.74684">
        <ele>1723</ele>
        <time>2020-02-08T11:12:28Z</time>
      </trkpt>
      <trkpt lat="45.30572" lon="5.74684">
        <ele>1723.2</ele>
        <time>2020-02-08T11:12:29Z</time>
      </trkpt>
      <trkpt lat="45.30573" lon="5.74685">
        <ele>1724</ele>
        <time>2020-02-08T11:12:30Z</time>
      </trkpt>
      <trkpt lat="45.30573" lon="5.74686">
        <ele>1724.2</ele>
        <time>2020-02-08T11:12:31Z</time>
      </trkpt>
      <trkpt lat="45.30574" lon="5.74687">
        <ele>1724.6</ele>
        <time>2020-02-08T11:12:32Z</time>
      </trkpt>
      <trkpt lat="45.30575" lon="5.74688">
        <ele>1725.2</ele>
        <time>2020-02-08T11:12:33Z</time>
      </trkpt>
      <trkpt lat="45.30576" lon="5.74689">
        <ele>1725.2</ele>
        <time>2020-02-08T11:12:34Z</time>
      </trkpt>
      <trkpt lat="45.30577" lon="5.7469">
        <ele>1725.8</ele>
        <time>2020-02-08T11:12:35Z</time>
      </trkpt>
      <trkpt lat="45.30578" lon="5.74691">
        <ele>1726</ele>
        <time>2020-02-08T11:12:36Z</time>
      </trkpt>
      <trkpt lat="45.30579" lon="5.74692">
        <ele>1725.8</ele>
        <time>2020-02-08T11:12:37Z</time>
      </trkpt>
      <trkpt lat="45.3058" lon="5.74693">
        <ele>1726.4</ele>
        <time>2020-02-08T11:12:38Z</time>
      </trkpt>
      <trkpt lat="45.30581" lon="5.74694">
        <ele>1726.4</ele>
        <time>2020-02-08T11:12:39Z</time>
      </trkpt>
      <trkpt lat="45.30583" lon="5.74696">
        <ele>1726.8</ele>
        <time>2020-02-08T11:12:40Z</time>
      </trkpt>
      <trkpt lat="45.30584" lon="5.74697">
        <ele>1726.4</ele>
        <time>2020-02-08T11:12:41Z</time>
      </trkpt>
      <trkpt lat="45.30585" lon="5.74699">
        <ele>1727</ele>
        <time>2020-02-08T11:12:42Z</time>
      </trkpt>
      <trkpt lat="45.30587" lon="5.747">
        <ele>1726.8</ele>
        <time>2020-02-08T11:12:43Z</time>
      </trkpt>
      <trkpt lat="45.30587" lon="5.747">
        <ele>1726.6</ele>
        <time>2020-02-08T11:12:44Z</time>
      </trkpt>
      <trkpt lat="45.30587" lon="5.747">
        <ele>1727</ele>
        <time>2020-02-08T11:12:45Z</time>
      </trkpt>
      <trkpt lat="45.30589" lon="5.74703">
        <ele>1727</ele>
        <time>2020-02-08T11:12:46Z</time>
      </trkpt>
      <trkpt lat="45.30589" lon="5.74703">
        <ele>1727.6</ele>
        <time>2020-02-08T11:12:47Z</time>
      </trkpt>
      <trkpt lat="45.30591" lon="5.74705">
        <ele>1727.6</ele>
        <time>2020-02-08T11:12:48Z</time>
      </trkpt>
      <trkpt lat="45.30591" lon="5.74705">
        <ele>1727.4</ele>
        <time>2020-02-08T11:12:49Z</time>
      </trkpt>
      <trkpt lat="45.30591" lon="5.74705">
        <ele>1727.6</ele>
        <time>2020-02-08T11:12:50Z</time>
      </trkpt>
      <trkpt lat="45.30593" lon="5.74708">
        <ele>1727.8</ele>
        <time>2020-02-08T11:12:51Z</time>
      </trkpt>
      <trkpt lat="45.30593" lon="5.74708">
        <ele>1728</ele>
        <time>2020-02-08T11:12:52Z</time>
      </trkpt>
      <trkpt lat="45.30593" lon="5.74708">
        <ele>1728.4</ele>
        <time>2020-02-08T11:12:53Z</time>
      </trkpt>
      <trkpt lat="45.30595" lon="5.74708">
        <ele>1728.6</ele>
        <time>2020-02-08T11:12:54Z</time>
      </trkpt>
      <trkpt lat="45.30595" lon="5.74708">
        <ele>1728.8</ele>
        <time>2020-02-08T11:12:55Z</time>
      </trkpt>
      <trkpt lat="45.30596" lon="5.7471">
        <ele>1728.8</ele>
        <time>2020-02-08T11:12:56Z</time>
      </trkpt>
      <trkpt lat="45.30596" lon="5.7471">
        <ele>1729</ele>
        <time>2020-02-08T11:12:57Z</time>
      </trkpt>
      <trkpt lat="45.30596" lon="5.7471">
        <ele>1729.2</ele>
        <time>2020-02-08T11:12:58Z</time>
      </trkpt>
      <trkpt lat="45.30596" lon="5.7471">
        <ele>1729.6</ele>
        <time>2020-02-08T11:12:59Z</time>
      </trkpt>
      <trkpt lat="45.30598" lon="5.74712">
        <ele>1729.6</ele>
        <time>2020-02-08T11:13:00Z</time>
      </trkpt>
      <trkpt lat="45.30598" lon="5.74712">
        <ele>1730</ele>
        <time>2020-02-08T11:13:01Z</time>
      </trkpt>
      <trkpt lat="45.30598" lon="5.74712">
        <ele>1729.8</ele>
        <time>2020-02-08T11:13:02Z</time>
      </trkpt>
      <trkpt lat="45.30601" lon="5.74713">
        <ele>1730.4</ele>
        <time>2020-02-08T11:13:03Z</time>
      </trkpt>
      <trkpt lat="45.30601" lon="5.74713">
        <ele>1730.4</ele>
        <time>2020-02-08T11:13:04Z</time>
      </trkpt>
      <trkpt lat="45.30604" lon="5.74715">
        <ele>1730.8</ele>
        <time>2020-02-08T11:13:05Z</time>
      </trkpt>
      <trkpt lat="45.30604" lon="5.74715">
        <ele>1730.8</ele>
        <time>2020-02-08T11:13:06Z</time>
      </trkpt>
      <trkpt lat="45.30606" lon="5.74716">
        <ele>1731.4</ele>
        <time>2020-02-08T11:13:07Z</time>
      </trkpt>
      <trkpt lat="45.30606" lon="5.74716">
        <ele>1731.6</ele>
        <time>2020-02-08T11:13:08Z</time>
      </trkpt>
      <trkpt lat="45.30608" lon="5.74717">
        <ele>1731.6</ele>
        <time>2020-02-08T11:13:09Z</time>
      </trkpt>
      <trkpt lat="45.30608" lon="5.74717">
        <ele>1732</ele>
        <time>2020-02-08T11:13:10Z</time>
      </trkpt>
      <trkpt lat="45.30608" lon="5.74717">
        <ele>1732</ele>
        <time>2020-02-08T11:13:11Z</time>
      </trkpt>
      <trkpt lat="45.3061" lon="5.74718">
        <ele>1732</ele>
        <time>2020-02-08T11:13:12Z</time>
      </trkpt>
      <trkpt lat="45.3061" lon="5.74718">
        <ele>1732.4</ele>
        <time>2020-02-08T11:13:13Z</time>
      </trkpt>
      <trkpt lat="45.30612" lon="5.7472">
        <ele>1732.4</ele>
        <time>2020-02-08T11:13:14Z</time>
      </trkpt>
      <trkpt lat="45.30612" lon="5.7472">
        <ele>1732.8</ele>
        <time>2020-02-08T11:13:15Z</time>
      </trkpt>
      <trkpt lat="45.30614" lon="5.7472">
        <ele>1732.4</ele>
        <time>2020-02-08T11:13:16Z</time>
      </trkpt>
      <trkpt lat="45.30614" lon="5.7472">
        <ele>1732.6</ele>
        <time>2020-02-08T11:13:17Z</time>
      </trkpt>
      <trkpt lat="45.30614" lon="5.7472">
        <ele>1733.4</ele>
        <time>2020-02-08T11:13:18Z</time>
      </trkpt>
      <trkpt lat="45.30616" lon="5.74719">
        <ele>1734</ele>
        <time>2020-02-08T11:13:19Z</time>
      </trkpt>
      <trkpt lat="45.30616" lon="5.74719">
        <ele>1734.6</ele>
        <time>2020-02-08T11:13:20Z</time>
      </trkpt>
      <trkpt lat="45.30618" lon="5.74718">
        <ele>1734.6</ele>
        <time>2020-02-08T11:13:21Z</time>
      </trkpt>
      <trkpt lat="45.30618" lon="5.74718">
        <ele>1735.2</ele>
        <time>2020-02-08T11:13:22Z</time>
      </trkpt>
      <trkpt lat="45.3062" lon="5.74717">
        <ele>1735.6</ele>
        <time>2020-02-08T11:13:23Z</time>
      </trkpt>
      <trkpt lat="45.3062" lon="5.74717">
        <ele>1735.8</ele>
        <time>2020-02-08T11:13:24Z</time>
      </trkpt>
      <trkpt lat="45.30622" lon="5.74717">
        <ele>1736.4</ele>
        <time>2020-02-08T11:13:25Z</time>
      </trkpt>
      <trkpt lat="45.30622" lon="5.74717">
        <ele>1736</ele>
        <time>2020-02-08T11:13:26Z</time>
      </trkpt>
      <trkpt lat="45.30625" lon="5.74718">
        <ele>1736.6</ele>
        <time>2020-02-08T11:13:27Z</time>
      </trkpt>
      <trkpt lat="45.30625" lon="5.74718">
        <ele>1737.6</ele>
        <time>2020-02-08T11:13:28Z</time>
      </trkpt>
      <trkpt lat="45.30626" lon="5.74719">
        <ele>1738</ele>
        <time>2020-02-08T11:13:29Z</time>
      </trkpt>
      <trkpt lat="45.30626" lon="5.74719">
        <ele>1738.6</ele>
        <time>2020-02-08T11:13:30Z</time>
      </trkpt>
      <trkpt lat="45.30628" lon="5.7472">
        <ele>1739.4</ele>
        <time>2020-02-08T11:13:31Z</time>
      </trkpt>
      <trkpt lat="45.30628" lon="5.7472">
        <ele>1739.6</ele>
        <time>2020-02-08T11:13:32Z</time>
      </trkpt>
      <trkpt lat="45.3063" lon="5.74721">
        <ele>1740</ele>
        <time>2020-02-08T11:13:33Z</time>
      </trkpt>
      <trkpt lat="45.3063" lon="5.74721">
        <ele>1740.2</ele>
        <time>2020-02-08T11:13:34Z</time>
      </trkpt>
      <trkpt lat="45.30632" lon="5.74722">
        <ele>1740.2</ele>
        <time>2020-02-08T11:13:35Z</time>
      </trkpt>
      <trkpt lat="45.30632" lon="5.74722">
        <ele>1740.4</ele>
        <time>2020-02-08T11:13:36Z</time>
      </trkpt>
      <trkpt lat="45.30634" lon="5.74724">
        <ele>1740.4</ele>
        <time>2020-02-08T11:13:37Z</time>
      </trkpt>
      <trkpt lat="45.30634" lon="5.74724">
        <ele>1740.6</ele>
        <time>2020-02-08T11:13:38Z</time>
      </trkpt>
      <trkpt lat="45.30636" lon="5.74726">
        <ele>1741</ele>
        <time>2020-02-08T11:13:39Z</time>
      </trkpt>
      <trkpt lat="45.30636" lon="5.74726">
        <ele>1741</ele>
        <time>2020-02-08T11:13:40Z</time>
      </trkpt>
      <trkpt lat="45.30638" lon="5.74728">
        <ele>1741.6</ele>
        <time>2020-02-08T11:13:41Z</time>
      </trkpt>
      <trkpt lat="45.30638" lon="5.74728">
        <ele>1741.6</ele>
        <time>2020-02-08T11:13:42Z</time>
      </trkpt>
      <trkpt lat="45.3064" lon="5.74728">
        <ele>1741.8</ele>
        <time>2020-02-08T11:13:43Z</time>
      </trkpt>
      <trkpt lat="45.3064" lon="5.74728">
        <ele>1742.2</ele>
        <time>2020-02-08T11:13:44Z</time>
      </trkpt>
      <trkpt lat="45.3064" lon="5.74728">
        <ele>1742.2</ele>
        <time>2020-02-08T11:13:45Z</time>
      </trkpt>
      <trkpt lat="45.30643" lon="5.74728">
        <ele>1742.6</ele>
        <time>2020-02-08T11:13:46Z</time>
      </trkpt>
      <trkpt lat="45.30643" lon="5.74728">
        <ele>1743.2</ele>
        <time>2020-02-08T11:13:47Z</time>
      </trkpt>
      <trkpt lat="45.30645" lon="5.74728">
        <ele>1743.6</ele>
        <time>2020-02-08T11:13:48Z</time>
      </trkpt>
      <trkpt lat="45.30645" lon="5.74728">
        <ele>1743.4</ele>
        <time>2020-02-08T11:13:49Z</time>
      </trkpt>
      <trkpt lat="45.30647" lon="5.74727">
        <ele>1744.2</ele>
        <time>2020-02-08T11:13:50Z</time>
      </trkpt>
      <trkpt lat="45.30647" lon="5.74727">
        <ele>1744.4</ele>
        <time>2020-02-08T11:13:51Z</time>
      </trkpt>
      <trkpt lat="45.30649" lon="5.74727">
        <ele>1744.8</ele>
        <time>2020-02-08T11:13:52Z</time>
      </trkpt>
      <trkpt lat="45.30649" lon="5.74727">
        <ele>1745.4</ele>
        <time>2020-02-08T11:13:53Z</time>
      </trkpt>
      <trkpt lat="45.30649" lon="5.74727">
        <ele>1745.2</ele>
        <time>2020-02-08T11:13:54Z</time>
      </trkpt>
      <trkpt lat="45.30652" lon="5.74727">
        <ele>1746</ele>
        <time>2020-02-08T11:13:55Z</time>
      </trkpt>
      <trkpt lat="45.30652" lon="5.74727">
        <ele>1746.4</ele>
        <time>2020-02-08T11:13:56Z</time>
      </trkpt>
      <trkpt lat="45.30654" lon="5.74728">
        <ele>1746.6</ele>
        <time>2020-02-08T11:13:57Z</time>
      </trkpt>
      <trkpt lat="45.30654" lon="5.74728">
        <ele>1747.2</ele>
        <time>2020-02-08T11:13:58Z</time>
      </trkpt>
      <trkpt lat="45.30656" lon="5.74729">
        <ele>1747</ele>
        <time>2020-02-08T11:13:59Z</time>
      </trkpt>
      <trkpt lat="45.30656" lon="5.74729">
        <ele>1747.4</ele>
        <time>2020-02-08T11:14:00Z</time>
      </trkpt>
      <trkpt lat="45.30658" lon="5.7473">
        <ele>1747.8</ele>
        <time>2020-02-08T11:14:01Z</time>
      </trkpt>
      <trkpt lat="45.30658" lon="5.7473">
        <ele>1747.6</ele>
        <time>2020-02-08T11:14:02Z</time>
      </trkpt>
      <trkpt lat="45.3066" lon="5.74731">
        <ele>1748</ele>
        <time>2020-02-08T11:14:03Z</time>
      </trkpt>
      <trkpt lat="45.3066" lon="5.74731">
        <ele>1748</ele>
        <time>2020-02-08T11:14:04Z</time>
      </trkpt>
      <trkpt lat="45.30663" lon="5.74732">
        <ele>1748.2</ele>
        <time>2020-02-08T11:14:05Z</time>
      </trkpt>
      <trkpt lat="45.30663" lon="5.74732">
        <ele>1747.8</ele>
        <time>2020-02-08T11:14:06Z</time>
      </trkpt>
      <trkpt lat="45.30664" lon="5.74734">
        <ele>1748.2</ele>
        <time>2020-02-08T11:14:07Z</time>
      </trkpt>
      <trkpt lat="45.30664" lon="5.74734">
        <ele>1748.4</ele>
        <time>2020-02-08T11:14:08Z</time>
      </trkpt>
      <trkpt lat="45.30666" lon="5.74737">
        <ele>1749</ele>
        <time>2020-02-08T11:14:09Z</time>
      </trkpt>
      <trkpt lat="45.30666" lon="5.74737">
        <ele>1749.2</ele>
        <time>2020-02-08T11:14:10Z</time>
      </trkpt>
      <trkpt lat="45.30668" lon="5.74739">
        <ele>1749</ele>
        <time>2020-02-08T11:14:11Z</time>
      </trkpt>
      <trkpt lat="45.30668" lon="5.74739">
        <ele>1749</ele>
        <time>2020-02-08T11:14:12Z</time>
      </trkpt>
      <trkpt lat="45.30669" lon="5.74742">
        <ele>1748.8</ele>
        <time>2020-02-08T11:14:13Z</time>
      </trkpt>
      <trkpt lat="45.30669" lon="5.74742">
        <ele>1749</ele>
        <time>2020-02-08T11:14:14Z</time>
      </trkpt>
      <trkpt lat="45.30671" lon="5.74745">
        <ele>1749</ele>
        <time>2020-02-08T11:14:15Z</time>
      </trkpt>
      <trkpt lat="45.30671" lon="5.74745">
        <ele>1749</ele>
        <time>2020-02-08T11:14:16Z</time>
      </trkpt>
      <trkpt lat="45.30672" lon="5.74747">
        <ele>1749</ele>
        <time>2020-02-08T11:14:17Z</time>
      </trkpt>
      <trkpt lat="45.30672" lon="5.74747">
        <ele>1749.2</ele>
        <time>2020-02-08T11:14:18Z</time>
      </trkpt>
      <trkpt lat="45.30674" lon="5.74749">
        <ele>1749.6</ele>
        <time>2020-02-08T11:14:19Z</time>
      </trkpt>
      <trkpt lat="45.30674" lon="5.74749">
        <ele>1749.4</ele>
        <time>2020-02-08T11:14:20Z</time>
      </trkpt>
      <trkpt lat="45.30676" lon="5.74753">
        <ele>1749.8</ele>
        <time>2020-02-08T11:14:21Z</time>
      </trkpt>
      <trkpt lat="45.30678" lon="5.74754">
        <ele>1750</ele>
        <time>2020-02-08T11:14:22Z</time>
      </trkpt>
      <trkpt lat="45.30679" lon="5.74756">
        <ele>1750</ele>
        <time>2020-02-08T11:14:23Z</time>
      </trkpt>
      <trkpt lat="45.30681" lon="5.74758">
        <ele>1750.2</ele>
        <time>2020-02-08T11:14:24Z</time>
      </trkpt>
      <trkpt lat="45.30682" lon="5.7476">
        <ele>1751</ele>
        <time>2020-02-08T11:14:25Z</time>
      </trkpt>
      <trkpt lat="45.30682" lon="5.7476">
        <ele>1750.8</ele>
        <time>2020-02-08T11:14:26Z</time>
      </trkpt>
      <trkpt lat="45.30685" lon="5.74763">
        <ele>1751</ele>
        <time>2020-02-08T11:14:27Z</time>
      </trkpt>
      <trkpt lat="45.30685" lon="5.74763">
        <ele>1751</ele>
        <time>2020-02-08T11:14:28Z</time>
      </trkpt>
      <trkpt lat="45.30687" lon="5.74766">
        <ele>1751</ele>
        <time>2020-02-08T11:14:29Z</time>
      </trkpt>
      <trkpt lat="45.30687" lon="5.74766">
        <ele>1750.8</ele>
        <time>2020-02-08T11:14:30Z</time>
      </trkpt>
      <trkpt lat="45.30689" lon="5.74769">
        <ele>1750.6</ele>
        <time>2020-02-08T11:14:31Z</time>
      </trkpt>
      <trkpt lat="45.30689" lon="5.74769">
        <ele>1751</ele>
        <time>2020-02-08T11:14:32Z</time>
      </trkpt>
      <trkpt lat="45.30691" lon="5.74772">
        <ele>1751.2</ele>
        <time>2020-02-08T11:14:33Z</time>
      </trkpt>
      <trkpt lat="45.30691" lon="5.74772">
        <ele>1751.4</ele>
        <time>2020-02-08T11:14:34Z</time>
      </trkpt>
      <trkpt lat="45.30693" lon="5.74773">
        <ele>1751.4</ele>
        <time>2020-02-08T11:14:35Z</time>
      </trkpt>
      <trkpt lat="45.30693" lon="5.74773">
        <ele>1752</ele>
        <time>2020-02-08T11:14:36Z</time>
      </trkpt>
      <trkpt lat="45.30696" lon="5.74772">
        <ele>1751.8</ele>
        <time>2020-02-08T11:14:37Z</time>
      </trkpt>
      <trkpt lat="45.30696" lon="5.74772">
        <ele>1752</ele>
        <time>2020-02-08T11:14:38Z</time>
      </trkpt>
      <trkpt lat="45.30699" lon="5.74773">
        <ele>1752.4</ele>
        <time>2020-02-08T11:14:39Z</time>
      </trkpt>
      <trkpt lat="45.30699" lon="5.74773">
        <ele>1752.8</ele>
        <time>2020-02-08T11:14:40Z</time>
      </trkpt>
      <trkpt lat="45.30699" lon="5.74773">
        <ele>1753.2</ele>
        <time>2020-02-08T11:14:41Z</time>
      </trkpt>
      <trkpt lat="45.30702" lon="5.74775">
        <ele>1753.2</ele>
        <time>2020-02-08T11:14:42Z</time>
      </trkpt>
      <trkpt lat="45.30702" lon="5.74775">
        <ele>1753.4</ele>
        <time>2020-02-08T11:14:43Z</time>
      </trkpt>
      <trkpt lat="45.30704" lon="5.74776">
        <ele>1753.6</ele>
        <time>2020-02-08T11:14:44Z</time>
      </trkpt>
      <trkpt lat="45.30704" lon="5.74776">
        <ele>1754</ele>
        <time>2020-02-08T11:14:45Z</time>
      </trkpt>
      <trkpt lat="45.30706" lon="5.74777">
        <ele>1753.6</ele>
        <time>2020-02-08T11:14:46Z</time>
      </trkpt>
      <trkpt lat="45.30706" lon="5.74777">
        <ele>1753.4</ele>
        <time>2020-02-08T11:14:47Z</time>
      </trkpt>
      <trkpt lat="45.30708" lon="5.74778">
        <ele>1754.2</ele>
        <time>2020-02-08T11:14:48Z</time>
      </trkpt>
      <trkpt lat="45.30708" lon="5.74778">
        <ele>1755</ele>
        <time>2020-02-08T11:14:49Z</time>
      </trkpt>
      <trkpt lat="45.30708" lon="5.74778">
        <ele>1755.4</ele>
        <time>2020-02-08T11:14:50Z</time>
      </trkpt>
      <trkpt lat="45.30708" lon="5.74778">
        <ele>1755.8</ele>
        <time>2020-02-08T11:14:51Z</time>
      </trkpt>
      <trkpt lat="45.30708" lon="5.74778">
        <ele>1756.4</ele>
        <time>2020-02-08T11:14:52Z</time>
      </trkpt>
      <trkpt lat="45.30708" lon="5.74778">
        <ele>1757.2</ele>
        <time>2020-02-08T11:14:53Z</time>
      </trkpt>
      <trkpt lat="45.30708" lon="5.74778">
        <ele>1757.4</ele>
        <time>2020-02-08T11:14:54Z</time>
      </trkpt>
      <trkpt lat="45.3071" lon="5.74778">
        <ele>1757.2</ele>
        <time>2020-02-08T11:14:55Z</time>
      </trkpt>
      <trkpt lat="45.3071" lon="5.74778">
        <ele>1757.2</ele>
        <time>2020-02-08T11:14:56Z</time>
      </trkpt>
      <trkpt lat="45.3071" lon="5.74778">
        <ele>1757.6</ele>
        <time>2020-02-08T11:14:57Z</time>
      </trkpt>
      <trkpt lat="45.3071" lon="5.74778">
        <ele>1758</ele>
        <time>2020-02-08T11:14:58Z</time>
      </trkpt>
      <trkpt lat="45.3071" lon="5.74778">
        <ele>1758.2</ele>
        <time>2020-02-08T11:14:59Z</time>
      </trkpt>
      <trkpt lat="45.3071" lon="5.74778">
        <ele>1758.4</ele>
        <time>2020-02-08T11:15:00Z</time>
      </trkpt>
      <trkpt lat="45.3071" lon="5.74778">
        <ele>1758.4</ele>
        <time>2020-02-08T11:15:01Z</time>
      </trkpt>
      <trkpt lat="45.3071" lon="5.74778">
        <ele>1758.2</ele>
        <time>2020-02-08T11:15:02Z</time>
      </trkpt>
      <trkpt lat="45.3071" lon="5.74778">
        <ele>1758.6</ele>
        <time>2020-02-08T11:15:03Z</time>
      </trkpt>
      <trkpt lat="45.3071" lon="5.74778">
        <ele>1758.2</ele>
        <time>2020-02-08T11:15:04Z</time>
      </trkpt>
      <trkpt lat="45.3071" lon="5.74778">
        <ele>1758.4</ele>
        <time>2020-02-08T11:15:05Z</time>
      </trkpt>
      <trkpt lat="45.3071" lon="5.74778">
        <ele>1758.6</ele>
        <time>2020-02-08T11:15:06Z</time>
      </trkpt>
      <trkpt lat="45.3071" lon="5.74778">
        <ele>1758.6</ele>
        <time>2020-02-08T11:15:07Z</time>
      </trkpt>
      <trkpt lat="45.3071" lon="5.74778">
        <ele>1758.6</ele>
        <time>2020-02-08T11:15:08Z</time>
      </trkpt>
      <trkpt lat="45.3071" lon="5.74778">
        <ele>1758.8</ele>
        <time>2020-02-08T11:15:09Z</time>
      </trkpt>
      <trkpt lat="45.3071" lon="5.74778">
        <ele>1758.6</ele>
        <time>2020-02-08T11:15:10Z</time>
      </trkpt>
      <trkpt lat="45.3071" lon="5.74778">
        <ele>1758.4</ele>
        <time>2020-02-08T11:15:11Z</time>
      </trkpt>
      <trkpt lat="45.3071" lon="5.74778">
        <ele>1758.2</ele>
        <time>2020-02-08T11:15:12Z</time>
      </trkpt>
      <trkpt lat="45.30709" lon="5.74784">
        <ele>1757.8</ele>
        <time>2020-02-08T11:15:13Z</time>
      </trkpt>
      <trkpt lat="45.30708" lon="5.74789">
        <ele>1757.4</ele>
        <time>2020-02-08T11:15:14Z</time>
      </trkpt>
      <trkpt lat="45.30707" lon="5.74796">
        <ele>1756.2</ele>
        <time>2020-02-08T11:15:15Z</time>
      </trkpt>
      <trkpt lat="45.30708" lon="5.74802">
        <ele>1755</ele>
        <time>2020-02-08T11:15:16Z</time>
      </trkpt>
      <trkpt lat="45.3071" lon="5.74806">
        <ele>1754.6</ele>
        <time>2020-02-08T11:15:17Z</time>
      </trkpt>
      <trkpt lat="45.3071" lon="5.74806">
        <ele>1754.4</ele>
        <time>2020-02-08T11:15:18Z</time>
      </trkpt>
      <trkpt lat="45.3071" lon="5.74806">
        <ele>1754</ele>
        <time>2020-02-08T11:15:19Z</time>
      </trkpt>
      <trkpt lat="45.3071" lon="5.74808">
        <ele>1754</ele>
        <time>2020-02-08T11:15:20Z</time>
      </trkpt>
      <trkpt lat="45.3071" lon="5.74808">
        <ele>1754</ele>
        <time>2020-02-08T11:15:21Z</time>
      </trkpt>
      <trkpt lat="45.3071" lon="5.74808">
        <ele>1753.6</ele>
        <time>2020-02-08T11:15:22Z</time>
      </trkpt>
      <trkpt lat="45.3071" lon="5.74808">
        <ele>1752.8</ele>
        <time>2020-02-08T11:15:23Z</time>
      </trkpt>
      <trkpt lat="45.3071" lon="5.74808">
        <ele>1752.4</ele>
        <time>2020-02-08T11:15:24Z</time>
      </trkpt>
      <trkpt lat="45.3071" lon="5.74808">
        <ele>1752.2</ele>
        <time>2020-02-08T11:15:25Z</time>
      </trkpt>
      <trkpt lat="45.3071" lon="5.74808">
        <ele>1751.8</ele>
        <time>2020-02-08T11:15:26Z</time>
      </trkpt>
      <trkpt lat="45.3071" lon="5.74808">
        <ele>1751.6</ele>
        <time>2020-02-08T11:15:27Z</time>
      </trkpt>
      <trkpt lat="45.3071" lon="5.74808">
        <ele>1751.4</ele>
        <time>2020-02-08T11:15:28Z</time>
      </trkpt>
      <trkpt lat="45.3071" lon="5.74808">
        <ele>1751.2</ele>
        <time>2020-02-08T11:15:29Z</time>
      </trkpt>
      <trkpt lat="45.3071" lon="5.74808">
        <ele>1751</ele>
        <time>2020-02-08T11:15:30Z</time>
      </trkpt>
      <trkpt lat="45.3071" lon="5.74808">
        <ele>1750.8</ele>
        <time>2020-02-08T11:15:31Z</time>
      </trkpt>
      <trkpt lat="45.3071" lon="5.74808">
        <ele>1750.8</ele>
        <time>2020-02-08T11:15:32Z</time>
      </trkpt>
      <trkpt lat="45.3071" lon="5.74808">
        <ele>1750.6</ele>
        <time>2020-02-08T11:15:33Z</time>
      </trkpt>
      <trkpt lat="45.3071" lon="5.74808">
        <ele>1750.6</ele>
        <time>2020-02-08T11:15:34Z</time>
      </trkpt>
      <trkpt lat="45.3071" lon="5.74808">
        <ele>1750.6</ele>
        <time>2020-02-08T11:15:35Z</time>
      </trkpt>
      <trkpt lat="45.3071" lon="5.74808">
        <ele>1751</ele>
        <time>2020-02-08T11:15:36Z</time>
      </trkpt>
      <trkpt lat="45.3071" lon="5.74808">
        <ele>1751</ele>
        <time>2020-02-08T11:15:37Z</time>
      </trkpt>
      <trkpt lat="45.3071" lon="5.74808">
        <ele>1751.2</ele>
        <time>2020-02-08T11:15:38Z</time>
      </trkpt>
      <trkpt lat="45.3071" lon="5.74808">
        <ele>1751.6</ele>
        <time>2020-02-08T11:15:39Z</time>
      </trkpt>
      <trkpt lat="45.3071" lon="5.74808">
        <ele>1751.8</ele>
        <time>2020-02-08T11:15:40Z</time>
      </trkpt>
      <trkpt lat="45.3071" lon="5.74808">
        <ele>1752</ele>
        <time>2020-02-08T11:15:41Z</time>
      </trkpt>
      <trkpt lat="45.3071" lon="5.74808">
        <ele>1752</ele>
        <time>2020-02-08T11:15:42Z</time>
      </trkpt>
      <trkpt lat="45.3071" lon="5.74808">
        <ele>1751.8</ele>
        <time>2020-02-08T11:15:43Z</time>
      </trkpt>
      <trkpt lat="45.3071" lon="5.74808">
        <ele>1751.6</ele>
        <time>2020-02-08T11:15:44Z</time>
      </trkpt>
      <trkpt lat="45.30712" lon="5.74807">
        <ele>1751.2</ele>
        <time>2020-02-08T11:15:45Z</time>
      </trkpt>
      <trkpt lat="45.30712" lon="5.74807">
        <ele>1751</ele>
        <time>2020-02-08T11:15:46Z</time>
      </trkpt>
      <trkpt lat="45.30712" lon="5.74807">
        <ele>1751</ele>
        <time>2020-02-08T11:15:47Z</time>
      </trkpt>
      <trkpt lat="45.30712" lon="5.74807">
        <ele>1751</ele>
        <time>2020-02-08T11:15:48Z</time>
      </trkpt>
      <trkpt lat="45.30712" lon="5.74807">
        <ele>1751</ele>
        <time>2020-02-08T11:15:49Z</time>
      </trkpt>
      <trkpt lat="45.30712" lon="5.74807">
        <ele>1751.2</ele>
        <time>2020-02-08T11:15:50Z</time>
      </trkpt>
      <trkpt lat="45.30712" lon="5.74807">
        <ele>1751.4</ele>
        <time>2020-02-08T11:15:51Z</time>
      </trkpt>
      <trkpt lat="45.30712" lon="5.74807">
        <ele>1751.4</ele>
        <time>2020-02-08T11:15:52Z</time>
      </trkpt>
      <trkpt lat="45.30712" lon="5.74807">
        <ele>1750.4</ele>
        <time>2020-02-08T11:15:53Z</time>
      </trkpt>
      <trkpt lat="45.30712" lon="5.74807">
        <ele>1750.8</ele>
        <time>2020-02-08T11:15:54Z</time>
      </trkpt>
      <trkpt lat="45.30714" lon="5.74808">
        <ele>1751.4</ele>
        <time>2020-02-08T11:15:55Z</time>
      </trkpt>
      <trkpt lat="45.30714" lon="5.74808">
        <ele>1751.8</ele>
        <time>2020-02-08T11:15:56Z</time>
      </trkpt>
      <trkpt lat="45.30714" lon="5.74808">
        <ele>1752.4</ele>
        <time>2020-02-08T11:15:57Z</time>
      </trkpt>
      <trkpt lat="45.30714" lon="5.74808">
        <ele>1752.6</ele>
        <time>2020-02-08T11:15:58Z</time>
      </trkpt>
      <trkpt lat="45.30714" lon="5.74808">
        <ele>1752.6</ele>
        <time>2020-02-08T11:15:59Z</time>
      </trkpt>
      <trkpt lat="45.30714" lon="5.74808">
        <ele>1752.6</ele>
        <time>2020-02-08T11:16:00Z</time>
      </trkpt>
      <trkpt lat="45.30714" lon="5.74808">
        <ele>1752.6</ele>
        <time>2020-02-08T11:16:01Z</time>
      </trkpt>
      <trkpt lat="45.30714" lon="5.74808">
        <ele>1752.6</ele>
        <time>2020-02-08T11:16:02Z</time>
      </trkpt>
      <trkpt lat="45.30714" lon="5.74808">
        <ele>1752.8</ele>
        <time>2020-02-08T11:16:03Z</time>
      </trkpt>
      <trkpt lat="45.30714" lon="5.74808">
        <ele>1753</ele>
        <time>2020-02-08T11:16:04Z</time>
      </trkpt>
      <trkpt lat="45.30714" lon="5.74808">
        <ele>1752.8</ele>
        <time>2020-02-08T11:16:05Z</time>
      </trkpt>
      <trkpt lat="45.30714" lon="5.74808">
        <ele>1752.6</ele>
        <time>2020-02-08T11:16:06Z</time>
      </trkpt>
      <trkpt lat="45.30714" lon="5.74808">
        <ele>1752.6</ele>
        <time>2020-02-08T11:16:07Z</time>
      </trkpt>
      <trkpt lat="45.30714" lon="5.74808">
        <ele>1752.6</ele>
        <time>2020-02-08T11:16:08Z</time>
      </trkpt>
      <trkpt lat="45.30714" lon="5.74808">
        <ele>1752.4</ele>
        <time>2020-02-08T11:16:09Z</time>
      </trkpt>
      <trkpt lat="45.30714" lon="5.74808">
        <ele>1752.8</ele>
        <time>2020-02-08T11:16:10Z</time>
      </trkpt>
      <trkpt lat="45.30714" lon="5.74808">
        <ele>1751.8</ele>
        <time>2020-02-08T11:16:11Z</time>
      </trkpt>
      <trkpt lat="45.30714" lon="5.74808">
        <ele>1751.8</ele>
        <time>2020-02-08T11:16:12Z</time>
      </trkpt>
      <trkpt lat="45.30714" lon="5.74808">
        <ele>1751.4</ele>
        <time>2020-02-08T11:16:13Z</time>
      </trkpt>
      <trkpt lat="45.30714" lon="5.74808">
        <ele>1750</ele>
        <time>2020-02-08T11:16:14Z</time>
      </trkpt>
      <trkpt lat="45.30714" lon="5.74808">
        <ele>1750.4</ele>
        <time>2020-02-08T11:16:15Z</time>
      </trkpt>
      <trkpt lat="45.30714" lon="5.74808">
        <ele>1750.6</ele>
        <time>2020-02-08T11:16:16Z</time>
      </trkpt>
      <trkpt lat="45.30714" lon="5.74808">
        <ele>1750.8</ele>
        <time>2020-02-08T11:16:17Z</time>
      </trkpt>
      <trkpt lat="45.30714" lon="5.74808">
        <ele>1750.8</ele>
        <time>2020-02-08T11:16:18Z</time>
      </trkpt>
      <trkpt lat="45.30714" lon="5.74808">
        <ele>1751</ele>
        <time>2020-02-08T11:16:19Z</time>
      </trkpt>
      <trkpt lat="45.30714" lon="5.74808">
        <ele>1751</ele>
        <time>2020-02-08T11:16:20Z</time>
      </trkpt>
      <trkpt lat="45.30714" lon="5.74808">
        <ele>1751.4</ele>
        <time>2020-02-08T11:16:21Z</time>
      </trkpt>
      <trkpt lat="45.30714" lon="5.74808">
        <ele>1752.2</ele>
        <time>2020-02-08T11:16:22Z</time>
      </trkpt>
      <trkpt lat="45.30714" lon="5.74808">
        <ele>1752.2</ele>
        <time>2020-02-08T11:16:23Z</time>
      </trkpt>
      <trkpt lat="45.30714" lon="5.74808">
        <ele>1752.4</ele>
        <time>2020-02-08T11:16:24Z</time>
      </trkpt>
      <trkpt lat="45.30714" lon="5.74808">
        <ele>1752.4</ele>
        <time>2020-02-08T11:16:25Z</time>
      </trkpt>
      <trkpt lat="45.30714" lon="5.74808">
        <ele>1752.6</ele>
        <time>2020-02-08T11:16:26Z</time>
      </trkpt>
      <trkpt lat="45.30714" lon="5.74808">
        <ele>1752.4</ele>
        <time>2020-02-08T11:16:27Z</time>
      </trkpt>
      <trkpt lat="45.30714" lon="5.74808">
        <ele>1752.2</ele>
        <time>2020-02-08T11:16:28Z</time>
      </trkpt>
      <trkpt lat="45.30714" lon="5.74808">
        <ele>1752.2</ele>
        <time>2020-02-08T11:16:29Z</time>
      </trkpt>
      <trkpt lat="45.30714" lon="5.74808">
        <ele>1752.6</ele>
        <time>2020-02-08T11:16:30Z</time>
      </trkpt>
      <trkpt lat="45.30714" lon="5.74808">
        <ele>1752.4</ele>
        <time>2020-02-08T11:16:31Z</time>
      </trkpt>
      <trkpt lat="45.30714" lon="5.74808">
        <ele>1752.2</ele>
        <time>2020-02-08T11:16:32Z</time>
      </trkpt>
      <trkpt lat="45.30714" lon="5.74808">
        <ele>1752.4</ele>
        <time>2020-02-08T11:16:33Z</time>
      </trkpt>
      <trkpt lat="45.30714" lon="5.74808">
        <ele>1752.6</ele>
        <time>2020-02-08T11:16:34Z</time>
      </trkpt>
      <trkpt lat="45.30714" lon="5.74808">
        <ele>1752.4</ele>
        <time>2020-02-08T11:16:35Z</time>
      </trkpt>
      <trkpt lat="45.30714" lon="5.74808">
        <ele>1752.4</ele>
        <time>2020-02-08T11:16:36Z</time>
      </trkpt>
      <trkpt lat="45.30714" lon="5.74808">
        <ele>1752</ele>
        <time>2020-02-08T11:16:37Z</time>
      </trkpt>
      <trkpt lat="45.30714" lon="5.74808">
        <ele>1751.6</ele>
        <time>2020-02-08T11:16:38Z</time>
      </trkpt>
      <trkpt lat="45.30714" lon="5.74808">
        <ele>1751.4</ele>
        <time>2020-02-08T11:16:39Z</time>
      </trkpt>
      <trkpt lat="45.30712" lon="5.74809">
        <ele>1751.4</ele>
        <time>2020-02-08T11:16:40Z</time>
      </trkpt>
      <trkpt lat="45.30712" lon="5.74809">
        <ele>1751.6</ele>
        <time>2020-02-08T11:16:41Z</time>
      </trkpt>
      <trkpt lat="45.30712" lon="5.74809">
        <ele>1751.6</ele>
        <time>2020-02-08T11:16:42Z</time>
      </trkpt>
      <trkpt lat="45.30712" lon="5.74809">
        <ele>1751.4</ele>
        <time>2020-02-08T11:16:43Z</time>
      </trkpt>
      <trkpt lat="45.30712" lon="5.74809">
        <ele>1751.6</ele>
        <time>2020-02-08T11:16:44Z</time>
      </trkpt>
      <trkpt lat="45.30712" lon="5.74809">
        <ele>1752.2</ele>
        <time>2020-02-08T11:16:45Z</time>
      </trkpt>
      <trkpt lat="45.30712" lon="5.74809">
        <ele>1752.8</ele>
        <time>2020-02-08T11:16:46Z</time>
      </trkpt>
      <trkpt lat="45.30711" lon="5.74806">
        <ele>1753</ele>
        <time>2020-02-08T11:16:47Z</time>
      </trkpt>
      <trkpt lat="45.30711" lon="5.74806">
        <ele>1753</ele>
        <time>2020-02-08T11:16:48Z</time>
      </trkpt>
      <trkpt lat="45.3071" lon="5.74803">
        <ele>1752.6</ele>
        <time>2020-02-08T11:16:49Z</time>
      </trkpt>
      <trkpt lat="45.3071" lon="5.74803">
        <ele>1752.6</ele>
        <time>2020-02-08T11:16:50Z</time>
      </trkpt>
      <trkpt lat="45.3071" lon="5.74801">
        <ele>1752.6</ele>
        <time>2020-02-08T11:16:51Z</time>
      </trkpt>
      <trkpt lat="45.3071" lon="5.74801">
        <ele>1752.4</ele>
        <time>2020-02-08T11:16:52Z</time>
      </trkpt>
      <trkpt lat="45.3071" lon="5.74801">
        <ele>1752.2</ele>
        <time>2020-02-08T11:16:53Z</time>
      </trkpt>
      <trkpt lat="45.3071" lon="5.74801">
        <ele>1752.2</ele>
        <time>2020-02-08T11:16:54Z</time>
      </trkpt>
      <trkpt lat="45.3071" lon="5.74801">
        <ele>1752.2</ele>
        <time>2020-02-08T11:16:55Z</time>
      </trkpt>
      <trkpt lat="45.3071" lon="5.74801">
        <ele>1752.2</ele>
        <time>2020-02-08T11:16:56Z</time>
      </trkpt>
      <trkpt lat="45.3071" lon="5.74801">
        <ele>1752</ele>
        <time>2020-02-08T11:16:57Z</time>
      </trkpt>
      <trkpt lat="45.30713" lon="5.74804">
        <ele>1751.8</ele>
        <time>2020-02-08T11:16:58Z</time>
      </trkpt>
      <trkpt lat="45.30715" lon="5.74806">
        <ele>1751.6</ele>
        <time>2020-02-08T11:16:59Z</time>
      </trkpt>
      <trkpt lat="45.30715" lon="5.74806">
        <ele>1751.2</ele>
        <time>2020-02-08T11:17:00Z</time>
      </trkpt>
      <trkpt lat="45.30715" lon="5.74806">
        <ele>1750.6</ele>
        <time>2020-02-08T11:17:01Z</time>
      </trkpt>
      <trkpt lat="45.30716" lon="5.74807">
        <ele>1750.4</ele>
        <time>2020-02-08T11:17:02Z</time>
      </trkpt>
      <trkpt lat="45.30716" lon="5.74807">
        <ele>1750.4</ele>
        <time>2020-02-08T11:17:03Z</time>
      </trkpt>
      <trkpt lat="45.30716" lon="5.74807">
        <ele>1750</ele>
        <time>2020-02-08T11:17:04Z</time>
      </trkpt>
      <trkpt lat="45.30716" lon="5.74807">
        <ele>1749.6</ele>
        <time>2020-02-08T11:17:05Z</time>
      </trkpt>
      <trkpt lat="45.30719" lon="5.74806">
        <ele>1749.4</ele>
        <time>2020-02-08T11:17:06Z</time>
      </trkpt>
      <trkpt lat="45.30719" lon="5.74806">
        <ele>1749</ele>
        <time>2020-02-08T11:17:07Z</time>
      </trkpt>
      <trkpt lat="45.30722" lon="5.74806">
        <ele>1748.8</ele>
        <time>2020-02-08T11:17:08Z</time>
      </trkpt>
      <trkpt lat="45.30726" lon="5.74807">
        <ele>1748.2</ele>
        <time>2020-02-08T11:17:09Z</time>
      </trkpt>
      <trkpt lat="45.3073" lon="5.74809">
        <ele>1747.6</ele>
        <time>2020-02-08T11:17:10Z</time>
      </trkpt>
      <trkpt lat="45.30733" lon="5.74811">
        <ele>1747</ele>
        <time>2020-02-08T11:17:11Z</time>
      </trkpt>
      <trkpt lat="45.30736" lon="5.74812">
        <ele>1746.4</ele>
        <time>2020-02-08T11:17:12Z</time>
      </trkpt>
      <trkpt lat="45.30736" lon="5.74812">
        <ele>1745.8</ele>
        <time>2020-02-08T11:17:13Z</time>
      </trkpt>
      <trkpt lat="45.30736" lon="5.74812">
        <ele>1745.4</ele>
        <time>2020-02-08T11:17:14Z</time>
      </trkpt>
      <trkpt lat="45.30737" lon="5.74809">
        <ele>1745.4</ele>
        <time>2020-02-08T11:17:15Z</time>
      </trkpt>
      <trkpt lat="45.30736" lon="5.74805">
        <ele>1744.6</ele>
        <time>2020-02-08T11:17:16Z</time>
      </trkpt>
      <trkpt lat="45.30734" lon="5.74799">
        <ele>1743.8</ele>
        <time>2020-02-08T11:17:17Z</time>
      </trkpt>
      <trkpt lat="45.30732" lon="5.74795">
        <ele>1743.4</ele>
        <time>2020-02-08T11:17:18Z</time>
      </trkpt>
      <trkpt lat="45.30732" lon="5.74795">
        <ele>1742.2</ele>
        <time>2020-02-08T11:17:19Z</time>
      </trkpt>
      <trkpt lat="45.30735" lon="5.74794">
        <ele>1740.8</ele>
        <time>2020-02-08T11:17:20Z</time>
      </trkpt>
      <trkpt lat="45.30735" lon="5.74794">
        <ele>1739.8</ele>
        <time>2020-02-08T11:17:21Z</time>
      </trkpt>
      <trkpt lat="45.30735" lon="5.74794">
        <ele>1738.8</ele>
        <time>2020-02-08T11:17:22Z</time>
      </trkpt>
      <trkpt lat="45.30734" lon="5.74788">
        <ele>1738.2</ele>
        <time>2020-02-08T11:17:23Z</time>
      </trkpt>
      <trkpt lat="45.30733" lon="5.74782">
        <ele>1737.4</ele>
        <time>2020-02-08T11:17:24Z</time>
      </trkpt>
      <trkpt lat="45.30732" lon="5.74776">
        <ele>1736.8</ele>
        <time>2020-02-08T11:17:25Z</time>
      </trkpt>
      <trkpt lat="45.30731" lon="5.7477">
        <ele>1736</ele>
        <time>2020-02-08T11:17:26Z</time>
      </trkpt>
      <trkpt lat="45.30729" lon="5.74759">
        <ele>1735.4</ele>
        <time>2020-02-08T11:17:27Z</time>
      </trkpt>
      <trkpt lat="45.30729" lon="5.74757">
        <ele>1734.2</ele>
        <time>2020-02-08T11:17:28Z</time>
      </trkpt>
      <trkpt lat="45.30728" lon="5.74755">
        <ele>1733</ele>
        <time>2020-02-08T11:17:29Z</time>
      </trkpt>
      <trkpt lat="45.30727" lon="5.74748">
        <ele>1731.4</ele>
        <time>2020-02-08T11:17:30Z</time>
      </trkpt>
      <trkpt lat="45.30727" lon="5.74748">
        <ele>1730</ele>
        <time>2020-02-08T11:17:31Z</time>
      </trkpt>
      <trkpt lat="45.30727" lon="5.74748">
        <ele>1728.4</ele>
        <time>2020-02-08T11:17:32Z</time>
      </trkpt>
      <trkpt lat="45.30727" lon="5.74742">
        <ele>1727.2</ele>
        <time>2020-02-08T11:17:33Z</time>
      </trkpt>
      <trkpt lat="45.30728" lon="5.74737">
        <ele>1726.4</ele>
        <time>2020-02-08T11:17:34Z</time>
      </trkpt>
      <trkpt lat="45.30729" lon="5.74731">
        <ele>1725.6</ele>
        <time>2020-02-08T11:17:35Z</time>
      </trkpt>
      <trkpt lat="45.30729" lon="5.74726">
        <ele>1724.8</ele>
        <time>2020-02-08T11:17:36Z</time>
      </trkpt>
      <trkpt lat="45.30729" lon="5.74726">
        <ele>1723.6</ele>
        <time>2020-02-08T11:17:37Z</time>
      </trkpt>
      <trkpt lat="45.30729" lon="5.74726">
        <ele>1722</ele>
        <time>2020-02-08T11:17:38Z</time>
      </trkpt>
      <trkpt lat="45.30731" lon="5.74721">
        <ele>1720.6</ele>
        <time>2020-02-08T11:17:39Z</time>
      </trkpt>
      <trkpt lat="45.30733" lon="5.74715">
        <ele>1718.8</ele>
        <time>2020-02-08T11:17:40Z</time>
      </trkpt>
      <trkpt lat="45.30735" lon="5.7471">
        <ele>1717.6</ele>
        <time>2020-02-08T11:17:41Z</time>
      </trkpt>
      <trkpt lat="45.30737" lon="5.74704">
        <ele>1716.4</ele>
        <time>2020-02-08T11:17:42Z</time>
      </trkpt>
      <trkpt lat="45.30739" lon="5.74694">
        <ele>1714.6</ele>
        <time>2020-02-08T11:17:43Z</time>
      </trkpt>
      <trkpt lat="45.30738" lon="5.74692">
        <ele>1713.2</ele>
        <time>2020-02-08T11:17:44Z</time>
      </trkpt>
      <trkpt lat="45.30737" lon="5.74689">
        <ele>1711.8</ele>
        <time>2020-02-08T11:17:45Z</time>
      </trkpt>
      <trkpt lat="45.30733" lon="5.74679">
        <ele>1710.6</ele>
        <time>2020-02-08T11:17:46Z</time>
      </trkpt>
      <trkpt lat="45.30731" lon="5.74676">
        <ele>1708.6</ele>
        <time>2020-02-08T11:17:47Z</time>
      </trkpt>
      <trkpt lat="45.30728" lon="5.74669">
        <ele>1707.6</ele>
        <time>2020-02-08T11:17:48Z</time>
      </trkpt>
      <trkpt lat="45.30728" lon="5.74669">
        <ele>1706.6</ele>
        <time>2020-02-08T11:17:49Z</time>
      </trkpt>
      <trkpt lat="45.3073" lon="5.74667">
        <ele>1705.2</ele>
        <time>2020-02-08T11:17:50Z</time>
      </trkpt>
      <trkpt lat="45.30731" lon="5.74664">
        <ele>1704</ele>
        <time>2020-02-08T11:17:51Z</time>
      </trkpt>
      <trkpt lat="45.30733" lon="5.74662">
        <ele>1703</ele>
        <time>2020-02-08T11:17:52Z</time>
      </trkpt>
      <trkpt lat="45.30735" lon="5.74659">
        <ele>1702</ele>
        <time>2020-02-08T11:17:53Z</time>
      </trkpt>
      <trkpt lat="45.30736" lon="5.74659">
        <ele>1701.2</ele>
        <time>2020-02-08T11:17:54Z</time>
      </trkpt>
      <trkpt lat="45.30738" lon="5.7466">
        <ele>1701.2</ele>
        <time>2020-02-08T11:17:55Z</time>
      </trkpt>
      <trkpt lat="45.30739" lon="5.7466">
        <ele>1701.2</ele>
        <time>2020-02-08T11:17:56Z</time>
      </trkpt>
      <trkpt lat="45.30741" lon="5.7466">
        <ele>1700.6</ele>
        <time>2020-02-08T11:17:57Z</time>
      </trkpt>
      <trkpt lat="45.30743" lon="5.74658">
        <ele>1700.2</ele>
        <time>2020-02-08T11:17:58Z</time>
      </trkpt>
      <trkpt lat="45.30746" lon="5.74658">
        <ele>1699.6</ele>
        <time>2020-02-08T11:17:59Z</time>
      </trkpt>
      <trkpt lat="45.3075" lon="5.74658">
        <ele>1698.8</ele>
        <time>2020-02-08T11:18:00Z</time>
      </trkpt>
      <trkpt lat="45.30755" lon="5.7466">
        <ele>1698</ele>
        <time>2020-02-08T11:18:01Z</time>
      </trkpt>
      <trkpt lat="45.3076" lon="5.74662">
        <ele>1697</ele>
        <time>2020-02-08T11:18:02Z</time>
      </trkpt>
      <trkpt lat="45.30765" lon="5.74668">
        <ele>1696.2</ele>
        <time>2020-02-08T11:18:03Z</time>
      </trkpt>
      <trkpt lat="45.30769" lon="5.74671">
        <ele>1695.6</ele>
        <time>2020-02-08T11:18:04Z</time>
      </trkpt>
      <trkpt lat="45.30772" lon="5.74673">
        <ele>1695</ele>
        <time>2020-02-08T11:18:05Z</time>
      </trkpt>
      <trkpt lat="45.30776" lon="5.74674">
        <ele>1694.4</ele>
        <time>2020-02-08T11:18:06Z</time>
      </trkpt>
      <trkpt lat="45.3078" lon="5.74676">
        <ele>1693.6</ele>
        <time>2020-02-08T11:18:07Z</time>
      </trkpt>
      <trkpt lat="45.3078" lon="5.74676">
        <ele>1693.2</ele>
        <time>2020-02-08T11:18:08Z</time>
      </trkpt>
      <trkpt lat="45.30781" lon="5.74673">
        <ele>1692.2</ele>
        <time>2020-02-08T11:18:09Z</time>
      </trkpt>
      <trkpt lat="45.30778" lon="5.74669">
        <ele>1691.4</ele>
        <time>2020-02-08T11:18:10Z</time>
      </trkpt>
      <trkpt lat="45.30775" lon="5.74666">
        <ele>1690.8</ele>
        <time>2020-02-08T11:18:11Z</time>
      </trkpt>
      <trkpt lat="45.30775" lon="5.74666">
        <ele>1690.4</ele>
        <time>2020-02-08T11:18:12Z</time>
      </trkpt>
      <trkpt lat="45.30775" lon="5.74666">
        <ele>1690</ele>
        <time>2020-02-08T11:18:13Z</time>
      </trkpt>
      <trkpt lat="45.30775" lon="5.74666">
        <ele>1689.8</ele>
        <time>2020-02-08T11:18:14Z</time>
      </trkpt>
      <trkpt lat="45.30773" lon="5.74666">
        <ele>1689.4</ele>
        <time>2020-02-08T11:18:15Z</time>
      </trkpt>
      <trkpt lat="45.30773" lon="5.74666">
        <ele>1688.8</ele>
        <time>2020-02-08T11:18:16Z</time>
      </trkpt>
      <trkpt lat="45.30773" lon="5.74666">
        <ele>1688.2</ele>
        <time>2020-02-08T11:18:17Z</time>
      </trkpt>
      <trkpt lat="45.30773" lon="5.74666">
        <ele>1687.6</ele>
        <time>2020-02-08T11:18:18Z</time>
      </trkpt>
      <trkpt lat="45.30773" lon="5.74666">
        <ele>1687.4</ele>
        <time>2020-02-08T11:18:19Z</time>
      </trkpt>
      <trkpt lat="45.30772" lon="5.74669">
        <ele>1687</ele>
        <time>2020-02-08T11:18:20Z</time>
      </trkpt>
      <trkpt lat="45.30772" lon="5.74669">
        <ele>1687</ele>
        <time>2020-02-08T11:18:21Z</time>
      </trkpt>
      <trkpt lat="45.30772" lon="5.74669">
        <ele>1687</ele>
        <time>2020-02-08T11:18:22Z</time>
      </trkpt>
      <trkpt lat="45.30772" lon="5.74669">
        <ele>1686.8</ele>
        <time>2020-02-08T11:18:23Z</time>
      </trkpt>
      <trkpt lat="45.30772" lon="5.74669">
        <ele>1687</ele>
        <time>2020-02-08T11:18:24Z</time>
      </trkpt>
      <trkpt lat="45.30772" lon="5.74669">
        <ele>1686.8</ele>
        <time>2020-02-08T11:18:25Z</time>
      </trkpt>
      <trkpt lat="45.30772" lon="5.74669">
        <ele>1686.6</ele>
        <time>2020-02-08T11:18:26Z</time>
      </trkpt>
      <trkpt lat="45.30772" lon="5.74669">
        <ele>1686.6</ele>
        <time>2020-02-08T11:18:27Z</time>
      </trkpt>
      <trkpt lat="45.30772" lon="5.74669">
        <ele>1686.6</ele>
        <time>2020-02-08T11:18:28Z</time>
      </trkpt>
      <trkpt lat="45.30772" lon="5.74669">
        <ele>1686.6</ele>
        <time>2020-02-08T11:18:29Z</time>
      </trkpt>
      <trkpt lat="45.30772" lon="5.74669">
        <ele>1687.2</ele>
        <time>2020-02-08T11:18:30Z</time>
      </trkpt>
      <trkpt lat="45.30772" lon="5.74669">
        <ele>1687.4</ele>
        <time>2020-02-08T11:18:31Z</time>
      </trkpt>
      <trkpt lat="45.30772" lon="5.74669">
        <ele>1687.2</ele>
        <time>2020-02-08T11:18:32Z</time>
      </trkpt>
      <trkpt lat="45.30772" lon="5.74669">
        <ele>1687.6</ele>
        <time>2020-02-08T11:18:33Z</time>
      </trkpt>
      <trkpt lat="45.3077" lon="5.74671">
        <ele>1687.8</ele>
        <time>2020-02-08T11:18:34Z</time>
      </trkpt>
      <trkpt lat="45.3077" lon="5.74671">
        <ele>1688.2</ele>
        <time>2020-02-08T11:18:35Z</time>
      </trkpt>
      <trkpt lat="45.3077" lon="5.74671">
        <ele>1688</ele>
        <time>2020-02-08T11:18:36Z</time>
      </trkpt>
      <trkpt lat="45.3077" lon="5.74671">
        <ele>1688.2</ele>
        <time>2020-02-08T11:18:37Z</time>
      </trkpt>
      <trkpt lat="45.30768" lon="5.74671">
        <ele>1688</ele>
        <time>2020-02-08T11:18:38Z</time>
      </trkpt>
      <trkpt lat="45.30768" lon="5.74671">
        <ele>1688</ele>
        <time>2020-02-08T11:18:39Z</time>
      </trkpt>
      <trkpt lat="45.30766" lon="5.7467">
        <ele>1688</ele>
        <time>2020-02-08T11:18:40Z</time>
      </trkpt>
      <trkpt lat="45.30766" lon="5.7467">
        <ele>1687.8</ele>
        <time>2020-02-08T11:18:41Z</time>
      </trkpt>
      <trkpt lat="45.30763" lon="5.74668">
        <ele>1687.8</ele>
        <time>2020-02-08T11:18:42Z</time>
      </trkpt>
      <trkpt lat="45.30762" lon="5.74666">
        <ele>1687.6</ele>
        <time>2020-02-08T11:18:43Z</time>
      </trkpt>
      <trkpt lat="45.3076" lon="5.74664">
        <ele>1687.4</ele>
        <time>2020-02-08T11:18:44Z</time>
      </trkpt>
      <trkpt lat="45.30759" lon="5.74659">
        <ele>1687</ele>
        <time>2020-02-08T11:18:45Z</time>
      </trkpt>
      <trkpt lat="45.30757" lon="5.74656">
        <ele>1686.6</ele>
        <time>2020-02-08T11:18:46Z</time>
      </trkpt>
      <trkpt lat="45.30757" lon="5.74653">
        <ele>1686.2</ele>
        <time>2020-02-08T11:18:47Z</time>
      </trkpt>
      <trkpt lat="45.30757" lon="5.74653">
        <ele>1685.6</ele>
        <time>2020-02-08T11:18:48Z</time>
      </trkpt>
      <trkpt lat="45.30756" lon="5.74647">
        <ele>1685.2</ele>
        <time>2020-02-08T11:18:49Z</time>
      </trkpt>
      <trkpt lat="45.30755" lon="5.74644">
        <ele>1685</ele>
        <time>2020-02-08T11:18:50Z</time>
      </trkpt>
      <trkpt lat="45.30755" lon="5.7464">
        <ele>1684.6</ele>
        <time>2020-02-08T11:18:51Z</time>
      </trkpt>
      <trkpt lat="45.30755" lon="5.74638">
        <ele>1684.2</ele>
        <time>2020-02-08T11:18:52Z</time>
      </trkpt>
      <trkpt lat="45.30755" lon="5.74635">
        <ele>1683.8</ele>
        <time>2020-02-08T11:18:53Z</time>
      </trkpt>
      <trkpt lat="45.30755" lon="5.74632">
        <ele>1683.2</ele>
        <time>2020-02-08T11:18:54Z</time>
      </trkpt>
      <trkpt lat="45.30755" lon="5.74632">
        <ele>1682.2</ele>
        <time>2020-02-08T11:18:55Z</time>
      </trkpt>
      <trkpt lat="45.30758" lon="5.7463">
        <ele>1681.8</ele>
        <time>2020-02-08T11:18:56Z</time>
      </trkpt>
      <trkpt lat="45.30758" lon="5.7463">
        <ele>1680.8</ele>
        <time>2020-02-08T11:18:57Z</time>
      </trkpt>
      <trkpt lat="45.30758" lon="5.74626">
        <ele>1679.8</ele>
        <time>2020-02-08T11:18:58Z</time>
      </trkpt>
      <trkpt lat="45.30758" lon="5.74622">
        <ele>1679</ele>
        <time>2020-02-08T11:18:59Z</time>
      </trkpt>
      <trkpt lat="45.30758" lon="5.74618">
        <ele>1678</ele>
        <time>2020-02-08T11:19:00Z</time>
      </trkpt>
      <trkpt lat="45.30758" lon="5.74618">
        <ele>1677.4</ele>
        <time>2020-02-08T11:19:01Z</time>
      </trkpt>
      <trkpt lat="45.30758" lon="5.74618">
        <ele>1676.6</ele>
        <time>2020-02-08T11:19:02Z</time>
      </trkpt>
      <trkpt lat="45.3076" lon="5.74617">
        <ele>1675.2</ele>
        <time>2020-02-08T11:19:03Z</time>
      </trkpt>
      <trkpt lat="45.30762" lon="5.74616">
        <ele>1674.2</ele>
        <time>2020-02-08T11:19:04Z</time>
      </trkpt>
      <trkpt lat="45.30764" lon="5.74614">
        <ele>1673.6</ele>
        <time>2020-02-08T11:19:05Z</time>
      </trkpt>
      <trkpt lat="45.30765" lon="5.74613">
        <ele>1672.6</ele>
        <time>2020-02-08T11:19:06Z</time>
      </trkpt>
      <trkpt lat="45.30767" lon="5.74612">
        <ele>1671.6</ele>
        <time>2020-02-08T11:19:07Z</time>
      </trkpt>
      <trkpt lat="45.30779" lon="5.74606">
        <ele>1670.2</ele>
        <time>2020-02-08T11:19:08Z</time>
      </trkpt>
      <trkpt lat="45.30783" lon="5.74606">
        <ele>1668.4</ele>
        <time>2020-02-08T11:19:09Z</time>
      </trkpt>
      <trkpt lat="45.30787" lon="5.74607">
        <ele>1666.8</ele>
        <time>2020-02-08T11:19:10Z</time>
      </trkpt>
      <trkpt lat="45.30798" lon="5.74618">
        <ele>1664.8</ele>
        <time>2020-02-08T11:19:11Z</time>
      </trkpt>
      <trkpt lat="45.308" lon="5.74621">
        <ele>1664</ele>
        <time>2020-02-08T11:19:12Z</time>
      </trkpt>
      <trkpt lat="45.30805" lon="5.74626">
        <ele>1663</ele>
        <time>2020-02-08T11:19:13Z</time>
      </trkpt>
      <trkpt lat="45.30805" lon="5.74626">
        <ele>1662.6</ele>
        <time>2020-02-08T11:19:14Z</time>
      </trkpt>
      <trkpt lat="45.30805" lon="5.74626">
        <ele>1662.2</ele>
        <time>2020-02-08T11:19:15Z</time>
      </trkpt>
      <trkpt lat="45.30806" lon="5.74628">
        <ele>1661.8</ele>
        <time>2020-02-08T11:19:16Z</time>
      </trkpt>
      <trkpt lat="45.30808" lon="5.74629">
        <ele>1661.4</ele>
        <time>2020-02-08T11:19:17Z</time>
      </trkpt>
      <trkpt lat="45.30809" lon="5.7463">
        <ele>1661.6</ele>
        <time>2020-02-08T11:19:18Z</time>
      </trkpt>
      <trkpt lat="45.30811" lon="5.74632">
        <ele>1661.4</ele>
        <time>2020-02-08T11:19:19Z</time>
      </trkpt>
      <trkpt lat="45.30812" lon="5.74633">
        <ele>1661</ele>
        <time>2020-02-08T11:19:20Z</time>
      </trkpt>
      <trkpt lat="45.30814" lon="5.74634">
        <ele>1660.8</ele>
        <time>2020-02-08T11:19:21Z</time>
      </trkpt>
      <trkpt lat="45.30815" lon="5.74637">
        <ele>1660.4</ele>
        <time>2020-02-08T11:19:22Z</time>
      </trkpt>
      <trkpt lat="45.30816" lon="5.7464">
        <ele>1659.8</ele>
        <time>2020-02-08T11:19:23Z</time>
      </trkpt>
      <trkpt lat="45.30817" lon="5.74644">
        <ele>1659.4</ele>
        <time>2020-02-08T11:19:24Z</time>
      </trkpt>
      <trkpt lat="45.30818" lon="5.74647">
        <ele>1659</ele>
        <time>2020-02-08T11:19:25Z</time>
      </trkpt>
      <trkpt lat="45.30819" lon="5.74645">
        <ele>1658.6</ele>
        <time>2020-02-08T11:19:26Z</time>
      </trkpt>
      <trkpt lat="45.3082" lon="5.74644">
        <ele>1658</ele>
        <time>2020-02-08T11:19:27Z</time>
      </trkpt>
      <trkpt lat="45.30822" lon="5.74642">
        <ele>1656.8</ele>
        <time>2020-02-08T11:19:28Z</time>
      </trkpt>
      <trkpt lat="45.30823" lon="5.7464">
        <ele>1656</ele>
        <time>2020-02-08T11:19:29Z</time>
      </trkpt>
      <trkpt lat="45.30824" lon="5.74639">
        <ele>1655.6</ele>
        <time>2020-02-08T11:19:30Z</time>
      </trkpt>
      <trkpt lat="45.30825" lon="5.74637">
        <ele>1654.8</ele>
        <time>2020-02-08T11:19:31Z</time>
      </trkpt>
      <trkpt lat="45.30827" lon="5.74636">
        <ele>1654</ele>
        <time>2020-02-08T11:19:32Z</time>
      </trkpt>
      <trkpt lat="45.30828" lon="5.74634">
        <ele>1653.4</ele>
        <time>2020-02-08T11:19:33Z</time>
      </trkpt>
      <trkpt lat="45.30829" lon="5.74633">
        <ele>1652.2</ele>
        <time>2020-02-08T11:19:34Z</time>
      </trkpt>
      <trkpt lat="45.3083" lon="5.74631">
        <ele>1651.2</ele>
        <time>2020-02-08T11:19:35Z</time>
      </trkpt>
      <trkpt lat="45.30834" lon="5.74625">
        <ele>1650.4</ele>
        <time>2020-02-08T11:19:36Z</time>
      </trkpt>
      <trkpt lat="45.30834" lon="5.74625">
        <ele>1648.8</ele>
        <time>2020-02-08T11:19:37Z</time>
      </trkpt>
      <trkpt lat="45.30834" lon="5.74625">
        <ele>1647.8</ele>
        <time>2020-02-08T11:19:38Z</time>
      </trkpt>
      <trkpt lat="45.30836" lon="5.74628">
        <ele>1646.8</ele>
        <time>2020-02-08T11:19:39Z</time>
      </trkpt>
      <trkpt lat="45.30838" lon="5.74631">
        <ele>1645.4</ele>
        <time>2020-02-08T11:19:40Z</time>
      </trkpt>
      <trkpt lat="45.3084" lon="5.74634">
        <ele>1644.8</ele>
        <time>2020-02-08T11:19:41Z</time>
      </trkpt>
      <trkpt lat="45.30842" lon="5.74637">
        <ele>1644.2</ele>
        <time>2020-02-08T11:19:42Z</time>
      </trkpt>
      <trkpt lat="45.30844" lon="5.74639">
        <ele>1643.6</ele>
        <time>2020-02-08T11:19:43Z</time>
      </trkpt>
      <trkpt lat="45.30845" lon="5.7464">
        <ele>1643.4</ele>
        <time>2020-02-08T11:19:44Z</time>
      </trkpt>
      <trkpt lat="45.30847" lon="5.74642">
        <ele>1643</ele>
        <time>2020-02-08T11:19:45Z</time>
      </trkpt>
      <trkpt lat="45.30848" lon="5.74644">
        <ele>1642.8</ele>
        <time>2020-02-08T11:19:46Z</time>
      </trkpt>
      <trkpt lat="45.3085" lon="5.74645">
        <ele>1642.6</ele>
        <time>2020-02-08T11:19:47Z</time>
      </trkpt>
      <trkpt lat="45.30851" lon="5.74645">
        <ele>1642.2</ele>
        <time>2020-02-08T11:19:48Z</time>
      </trkpt>
      <trkpt lat="45.30852" lon="5.74645">
        <ele>1642</ele>
        <time>2020-02-08T11:19:49Z</time>
      </trkpt>
      <trkpt lat="45.30853" lon="5.74645">
        <ele>1641.8</ele>
        <time>2020-02-08T11:19:50Z</time>
      </trkpt>
      <trkpt lat="45.30854" lon="5.74645">
        <ele>1641</ele>
        <time>2020-02-08T11:19:51Z</time>
      </trkpt>
      <trkpt lat="45.30854" lon="5.74644">
        <ele>1640.4</ele>
        <time>2020-02-08T11:19:52Z</time>
      </trkpt>
      <trkpt lat="45.30855" lon="5.74644">
        <ele>1639.6</ele>
        <time>2020-02-08T11:19:53Z</time>
      </trkpt>
      <trkpt lat="45.30856" lon="5.74644">
        <ele>1639.4</ele>
        <time>2020-02-08T11:19:54Z</time>
      </trkpt>
      <trkpt lat="45.30857" lon="5.74644">
        <ele>1638.6</ele>
        <time>2020-02-08T11:19:55Z</time>
      </trkpt>
      <trkpt lat="45.30858" lon="5.74643">
        <ele>1637.6</ele>
        <time>2020-02-08T11:19:56Z</time>
      </trkpt>
      <trkpt lat="45.30859" lon="5.74643">
        <ele>1636.6</ele>
        <time>2020-02-08T11:19:57Z</time>
      </trkpt>
      <trkpt lat="45.3086" lon="5.74643">
        <ele>1635.6</ele>
        <time>2020-02-08T11:19:58Z</time>
      </trkpt>
      <trkpt lat="45.30862" lon="5.74644">
        <ele>1634.8</ele>
        <time>2020-02-08T11:19:59Z</time>
      </trkpt>
      <trkpt lat="45.30864" lon="5.74645">
        <ele>1633.4</ele>
        <time>2020-02-08T11:20:00Z</time>
      </trkpt>
      <trkpt lat="45.30866" lon="5.74647">
        <ele>1632.4</ele>
        <time>2020-02-08T11:20:01Z</time>
      </trkpt>
      <trkpt lat="45.30868" lon="5.74648">
        <ele>1631.4</ele>
        <time>2020-02-08T11:20:02Z</time>
      </trkpt>
      <trkpt lat="45.30871" lon="5.74648">
        <ele>1630.2</ele>
        <time>2020-02-08T11:20:03Z</time>
      </trkpt>
      <trkpt lat="45.30874" lon="5.74649">
        <ele>1629.2</ele>
        <time>2020-02-08T11:20:04Z</time>
      </trkpt>
      <trkpt lat="45.30876" lon="5.74649">
        <ele>1628.2</ele>
        <time>2020-02-08T11:20:05Z</time>
      </trkpt>
      <trkpt lat="45.30879" lon="5.74649">
        <ele>1626.8</ele>
        <time>2020-02-08T11:20:06Z</time>
      </trkpt>
      <trkpt lat="45.3088" lon="5.7465">
        <ele>1626.2</ele>
        <time>2020-02-08T11:20:07Z</time>
      </trkpt>
      <trkpt lat="45.30882" lon="5.7465">
        <ele>1625.4</ele>
        <time>2020-02-08T11:20:08Z</time>
      </trkpt>
      <trkpt lat="45.30883" lon="5.74651">
        <ele>1624.4</ele>
        <time>2020-02-08T11:20:09Z</time>
      </trkpt>
      <trkpt lat="45.30885" lon="5.74651">
        <ele>1622.8</ele>
        <time>2020-02-08T11:20:10Z</time>
      </trkpt>
      <trkpt lat="45.30886" lon="5.74651">
        <ele>1622</ele>
        <time>2020-02-08T11:20:11Z</time>
      </trkpt>
      <trkpt lat="45.30888" lon="5.74652">
        <ele>1620.8</ele>
        <time>2020-02-08T11:20:12Z</time>
      </trkpt>
      <trkpt lat="45.30889" lon="5.74652">
        <ele>1619.8</ele>
        <time>2020-02-08T11:20:13Z</time>
      </trkpt>
      <trkpt lat="45.30897" lon="5.7466">
        <ele>1618.8</ele>
        <time>2020-02-08T11:20:14Z</time>
      </trkpt>
      <trkpt lat="45.30897" lon="5.7466">
        <ele>1618</ele>
        <time>2020-02-08T11:20:15Z</time>
      </trkpt>
      <trkpt lat="45.30897" lon="5.7466">
        <ele>1617.4</ele>
        <time>2020-02-08T11:20:16Z</time>
      </trkpt>
      <trkpt lat="45.30896" lon="5.74658">
        <ele>1616.6</ele>
        <time>2020-02-08T11:20:17Z</time>
      </trkpt>
      <trkpt lat="45.30896" lon="5.74655">
        <ele>1615.6</ele>
        <time>2020-02-08T11:20:18Z</time>
      </trkpt>
      <trkpt lat="45.30895" lon="5.74652">
        <ele>1614.6</ele>
        <time>2020-02-08T11:20:19Z</time>
      </trkpt>
      <trkpt lat="45.30894" lon="5.74649">
        <ele>1613.8</ele>
        <time>2020-02-08T11:20:20Z</time>
      </trkpt>
      <trkpt lat="45.30894" lon="5.74646">
        <ele>1612.8</ele>
        <time>2020-02-08T11:20:21Z</time>
      </trkpt>
      <trkpt lat="45.30893" lon="5.74644">
        <ele>1612</ele>
        <time>2020-02-08T11:20:22Z</time>
      </trkpt>
      <trkpt lat="45.30896" lon="5.74638">
        <ele>1610.4</ele>
        <time>2020-02-08T11:20:23Z</time>
      </trkpt>
      <trkpt lat="45.30896" lon="5.74638">
        <ele>1609</ele>
        <time>2020-02-08T11:20:24Z</time>
      </trkpt>
      <trkpt lat="45.30896" lon="5.74638">
        <ele>1608</ele>
        <time>2020-02-08T11:20:25Z</time>
      </trkpt>
      <trkpt lat="45.30909" lon="5.7464">
        <ele>1606.8</ele>
        <time>2020-02-08T11:20:26Z</time>
      </trkpt>
      <trkpt lat="45.30913" lon="5.7464">
        <ele>1605.6</ele>
        <time>2020-02-08T11:20:27Z</time>
      </trkpt>
      <trkpt lat="45.30916" lon="5.7464">
        <ele>1604.4</ele>
        <time>2020-02-08T11:20:28Z</time>
      </trkpt>
      <trkpt lat="45.30921" lon="5.7464">
        <ele>1603.8</ele>
        <time>2020-02-08T11:20:29Z</time>
      </trkpt>
      <trkpt lat="45.30927" lon="5.7464">
        <ele>1602.2</ele>
        <time>2020-02-08T11:20:30Z</time>
      </trkpt>
      <trkpt lat="45.30929" lon="5.74641">
        <ele>1600.6</ele>
        <time>2020-02-08T11:20:31Z</time>
      </trkpt>
      <trkpt lat="45.30932" lon="5.74642">
        <ele>1599.2</ele>
        <time>2020-02-08T11:20:32Z</time>
      </trkpt>
      <trkpt lat="45.3094" lon="5.74646">
        <ele>1598.4</ele>
        <time>2020-02-08T11:20:33Z</time>
      </trkpt>
      <trkpt lat="45.30942" lon="5.74647">
        <ele>1597.6</ele>
        <time>2020-02-08T11:20:34Z</time>
      </trkpt>
      <trkpt lat="45.30947" lon="5.74649">
        <ele>1596.8</ele>
        <time>2020-02-08T11:20:35Z</time>
      </trkpt>
      <trkpt lat="45.30947" lon="5.74649">
        <ele>1596.2</ele>
        <time>2020-02-08T11:20:36Z</time>
      </trkpt>
      <trkpt lat="45.3095" lon="5.74648">
        <ele>1595</ele>
        <time>2020-02-08T11:20:37Z</time>
      </trkpt>
      <trkpt lat="45.30954" lon="5.74647">
        <ele>1594.2</ele>
        <time>2020-02-08T11:20:38Z</time>
      </trkpt>
      <trkpt lat="45.30957" lon="5.74646">
        <ele>1592.6</ele>
        <time>2020-02-08T11:20:39Z</time>
      </trkpt>
      <trkpt lat="45.3096" lon="5.74644">
        <ele>1591.2</ele>
        <time>2020-02-08T11:20:40Z</time>
      </trkpt>
      <trkpt lat="45.30963" lon="5.74643">
        <ele>1590</ele>
        <time>2020-02-08T11:20:41Z</time>
      </trkpt>
      <trkpt lat="45.30974" lon="5.74643">
        <ele>1588.6</ele>
        <time>2020-02-08T11:20:42Z</time>
      </trkpt>
      <trkpt lat="45.30979" lon="5.74644">
        <ele>1587.2</ele>
        <time>2020-02-08T11:20:43Z</time>
      </trkpt>
      <trkpt lat="45.30982" lon="5.74644">
        <ele>1586.4</ele>
        <time>2020-02-08T11:20:44Z</time>
      </trkpt>
      <trkpt lat="45.30986" lon="5.74644">
        <ele>1585.2</ele>
        <time>2020-02-08T11:20:45Z</time>
      </trkpt>
      <trkpt lat="45.30995" lon="5.74645">
        <ele>1584</ele>
        <time>2020-02-08T11:20:46Z</time>
      </trkpt>
      <trkpt lat="45.30998" lon="5.74647">
        <ele>1582.8</ele>
        <time>2020-02-08T11:20:47Z</time>
      </trkpt>
      <trkpt lat="45.31005" lon="5.74652">
        <ele>1582</ele>
        <time>2020-02-08T11:20:48Z</time>
      </trkpt>
      <trkpt lat="45.31007" lon="5.74654">
        <ele>1581.4</ele>
        <time>2020-02-08T11:20:49Z</time>
      </trkpt>
      <trkpt lat="45.31013" lon="5.74661">
        <ele>1580.6</ele>
        <time>2020-02-08T11:20:50Z</time>
      </trkpt>
      <trkpt lat="45.31015" lon="5.74663">
        <ele>1580</ele>
        <time>2020-02-08T11:20:51Z</time>
      </trkpt>
      <trkpt lat="45.3102" lon="5.74666">
        <ele>1579.4</ele>
        <time>2020-02-08T11:20:52Z</time>
      </trkpt>
      <trkpt lat="45.3102" lon="5.74666">
        <ele>1579</ele>
        <time>2020-02-08T11:20:53Z</time>
      </trkpt>
      <trkpt lat="45.3102" lon="5.74666">
        <ele>1578.6</ele>
        <time>2020-02-08T11:20:54Z</time>
      </trkpt>
      <trkpt lat="45.31021" lon="5.74666">
        <ele>1578.4</ele>
        <time>2020-02-08T11:20:55Z</time>
      </trkpt>
      <trkpt lat="45.31022" lon="5.74665">
        <ele>1578.4</ele>
        <time>2020-02-08T11:20:56Z</time>
      </trkpt>
      <trkpt lat="45.31023" lon="5.74664">
        <ele>1578.4</ele>
        <time>2020-02-08T11:20:57Z</time>
      </trkpt>
      <trkpt lat="45.31024" lon="5.74664">
        <ele>1578</ele>
        <time>2020-02-08T11:20:58Z</time>
      </trkpt>
      <trkpt lat="45.31025" lon="5.74663">
        <ele>1577.6</ele>
        <time>2020-02-08T11:20:59Z</time>
      </trkpt>
      <trkpt lat="45.31026" lon="5.74663">
        <ele>1577</ele>
        <time>2020-02-08T11:21:00Z</time>
      </trkpt>
      <trkpt lat="45.31027" lon="5.74662">
        <ele>1576.2</ele>
        <time>2020-02-08T11:21:01Z</time>
      </trkpt>
      <trkpt lat="45.31028" lon="5.74661">
        <ele>1575.2</ele>
        <time>2020-02-08T11:21:02Z</time>
      </trkpt>
      <trkpt lat="45.31029" lon="5.74661">
        <ele>1574</ele>
        <time>2020-02-08T11:21:03Z</time>
      </trkpt>
      <trkpt lat="45.31038" lon="5.74654">
        <ele>1572.8</ele>
        <time>2020-02-08T11:21:04Z</time>
      </trkpt>
      <trkpt lat="45.31038" lon="5.74654">
        <ele>1571.6</ele>
        <time>2020-02-08T11:21:05Z</time>
      </trkpt>
      <trkpt lat="45.31038" lon="5.74654">
        <ele>1570.8</ele>
        <time>2020-02-08T11:21:06Z</time>
      </trkpt>
      <trkpt lat="45.31039" lon="5.74652">
        <ele>1569.8</ele>
        <time>2020-02-08T11:21:07Z</time>
      </trkpt>
      <trkpt lat="45.3104" lon="5.7465">
        <ele>1569.2</ele>
        <time>2020-02-08T11:21:08Z</time>
      </trkpt>
      <trkpt lat="45.31041" lon="5.74648">
        <ele>1568.4</ele>
        <time>2020-02-08T11:21:09Z</time>
      </trkpt>
      <trkpt lat="45.31042" lon="5.74646">
        <ele>1568</ele>
        <time>2020-02-08T11:21:10Z</time>
      </trkpt>
      <trkpt lat="45.31043" lon="5.74644">
        <ele>1567.2</ele>
        <time>2020-02-08T11:21:11Z</time>
      </trkpt>
      <trkpt lat="45.31043" lon="5.74641">
        <ele>1565.8</ele>
        <time>2020-02-08T11:21:12Z</time>
      </trkpt>
      <trkpt lat="45.31044" lon="5.74639">
        <ele>1564.6</ele>
        <time>2020-02-08T11:21:13Z</time>
      </trkpt>
      <trkpt lat="45.31046" lon="5.74637">
        <ele>1563.4</ele>
        <time>2020-02-08T11:21:14Z</time>
      </trkpt>
      <trkpt lat="45.31048" lon="5.74634">
        <ele>1562</ele>
        <time>2020-02-08T11:21:15Z</time>
      </trkpt>
      <trkpt lat="45.3105" lon="5.74631">
        <ele>1560.6</ele>
        <time>2020-02-08T11:21:16Z</time>
      </trkpt>
      <trkpt lat="45.31052" lon="5.74629">
        <ele>1559</ele>
        <time>2020-02-08T11:21:17Z</time>
      </trkpt>
      <trkpt lat="45.31054" lon="5.74626">
        <ele>1557</ele>
        <time>2020-02-08T11:21:18Z</time>
      </trkpt>
      <trkpt lat="45.31056" lon="5.74623">
        <ele>1555.6</ele>
        <time>2020-02-08T11:21:19Z</time>
      </trkpt>
      <trkpt lat="45.31063" lon="5.74623">
        <ele>1554.2</ele>
        <time>2020-02-08T11:21:20Z</time>
      </trkpt>
      <trkpt lat="45.31064" lon="5.74623">
        <ele>1553.4</ele>
        <time>2020-02-08T11:21:21Z</time>
      </trkpt>
      <trkpt lat="45.31066" lon="5.74622">
        <ele>1552.4</ele>
        <time>2020-02-08T11:21:22Z</time>
      </trkpt>
      <trkpt lat="45.3107" lon="5.74621">
        <ele>1551.6</ele>
        <time>2020-02-08T11:21:23Z</time>
      </trkpt>
      <trkpt lat="45.3107" lon="5.74621">
        <ele>1550.8</ele>
        <time>2020-02-08T11:21:24Z</time>
      </trkpt>
      <trkpt lat="45.3107" lon="5.74621">
        <ele>1550.4</ele>
        <time>2020-02-08T11:21:25Z</time>
      </trkpt>
      <trkpt lat="45.31081" lon="5.74631">
        <ele>1549.8</ele>
        <time>2020-02-08T11:21:26Z</time>
      </trkpt>
      <trkpt lat="45.31083" lon="5.74632">
        <ele>1549</ele>
        <time>2020-02-08T11:21:27Z</time>
      </trkpt>
      <trkpt lat="45.31084" lon="5.74633">
        <ele>1548.4</ele>
        <time>2020-02-08T11:21:28Z</time>
      </trkpt>
      <trkpt lat="45.3109" lon="5.74639">
        <ele>1547.6</ele>
        <time>2020-02-08T11:21:29Z</time>
      </trkpt>
      <trkpt lat="45.31092" lon="5.7464">
        <ele>1547.2</ele>
        <time>2020-02-08T11:21:30Z</time>
      </trkpt>
      <trkpt lat="45.31093" lon="5.74642">
        <ele>1546.4</ele>
        <time>2020-02-08T11:21:31Z</time>
      </trkpt>
      <trkpt lat="45.31097" lon="5.74646">
        <ele>1546</ele>
        <time>2020-02-08T11:21:32Z</time>
      </trkpt>
      <trkpt lat="45.31097" lon="5.74646">
        <ele>1545.4</ele>
        <time>2020-02-08T11:21:33Z</time>
      </trkpt>
      <trkpt lat="45.31097" lon="5.74646">
        <ele>1544.8</ele>
        <time>2020-02-08T11:21:34Z</time>
      </trkpt>
      <trkpt lat="45.31109" lon="5.74659">
        <ele>1544.4</ele>
        <time>2020-02-08T11:21:35Z</time>
      </trkpt>
      <trkpt lat="45.31111" lon="5.7466">
        <ele>1543.8</ele>
        <time>2020-02-08T11:21:36Z</time>
      </trkpt>
      <trkpt lat="45.31112" lon="5.74661">
        <ele>1543</ele>
        <time>2020-02-08T11:21:37Z</time>
      </trkpt>
      <trkpt lat="45.31121" lon="5.74666">
        <ele>1542.8</ele>
        <time>2020-02-08T11:21:38Z</time>
      </trkpt>
      <trkpt lat="45.31126" lon="5.74669">
        <ele>1542</ele>
        <time>2020-02-08T11:21:39Z</time>
      </trkpt>
      <trkpt lat="45.31126" lon="5.74669">
        <ele>1541.4</ele>
        <time>2020-02-08T11:21:40Z</time>
      </trkpt>
      <trkpt lat="45.31126" lon="5.74669">
        <ele>1540.6</ele>
        <time>2020-02-08T11:21:41Z</time>
      </trkpt>
      <trkpt lat="45.3113" lon="5.74667">
        <ele>1539.4</ele>
        <time>2020-02-08T11:21:42Z</time>
      </trkpt>
      <trkpt lat="45.31133" lon="5.74665">
        <ele>1538.2</ele>
        <time>2020-02-08T11:21:43Z</time>
      </trkpt>
      <trkpt lat="45.31137" lon="5.74664">
        <ele>1536.4</ele>
        <time>2020-02-08T11:21:44Z</time>
      </trkpt>
      <trkpt lat="45.3114" lon="5.74662">
        <ele>1535</ele>
        <time>2020-02-08T11:21:45Z</time>
      </trkpt>
      <trkpt lat="45.31144" lon="5.74657">
        <ele>1533.6</ele>
        <time>2020-02-08T11:21:46Z</time>
      </trkpt>
      <trkpt lat="45.31144" lon="5.74657">
        <ele>1531.6</ele>
        <time>2020-02-08T11:21:47Z</time>
      </trkpt>
      <trkpt lat="45.31144" lon="5.74657">
        <ele>1530.4</ele>
        <time>2020-02-08T11:21:48Z</time>
      </trkpt>
      <trkpt lat="45.31153" lon="5.74653">
        <ele>1529.2</ele>
        <time>2020-02-08T11:21:49Z</time>
      </trkpt>
      <trkpt lat="45.31153" lon="5.74653">
        <ele>1528</ele>
        <time>2020-02-08T11:21:50Z</time>
      </trkpt>
      <trkpt lat="45.31153" lon="5.74653">
        <ele>1527</ele>
        <time>2020-02-08T11:21:51Z</time>
      </trkpt>
      <trkpt lat="45.31154" lon="5.74652">
        <ele>1525.6</ele>
        <time>2020-02-08T11:21:52Z</time>
      </trkpt>
      <trkpt lat="45.31155" lon="5.7465">
        <ele>1524.8</ele>
        <time>2020-02-08T11:21:53Z</time>
      </trkpt>
      <trkpt lat="45.31156" lon="5.74649">
        <ele>1523.4</ele>
        <time>2020-02-08T11:21:54Z</time>
      </trkpt>
      <trkpt lat="45.31157" lon="5.74648">
        <ele>1522.4</ele>
        <time>2020-02-08T11:21:55Z</time>
      </trkpt>
      <trkpt lat="45.31159" lon="5.74647">
        <ele>1521.4</ele>
        <time>2020-02-08T11:21:56Z</time>
      </trkpt>
      <trkpt lat="45.3116" lon="5.74646">
        <ele>1520.2</ele>
        <time>2020-02-08T11:21:57Z</time>
      </trkpt>
      <trkpt lat="45.31161" lon="5.74645">
        <ele>1519.6</ele>
        <time>2020-02-08T11:21:58Z</time>
      </trkpt>
      <trkpt lat="45.31162" lon="5.74644">
        <ele>1519.2</ele>
        <time>2020-02-08T11:21:59Z</time>
      </trkpt>
      <trkpt lat="45.31167" lon="5.74646">
        <ele>1518.4</ele>
        <time>2020-02-08T11:22:00Z</time>
      </trkpt>
      <trkpt lat="45.31171" lon="5.74648">
        <ele>1517.4</ele>
        <time>2020-02-08T11:22:01Z</time>
      </trkpt>
      <trkpt lat="45.31176" lon="5.74651">
        <ele>1516.8</ele>
        <time>2020-02-08T11:22:02Z</time>
      </trkpt>
      <trkpt lat="45.31181" lon="5.74653">
        <ele>1516</ele>
        <time>2020-02-08T11:22:03Z</time>
      </trkpt>
      <trkpt lat="45.31189" lon="5.74657">
        <ele>1515.2</ele>
        <time>2020-02-08T11:22:04Z</time>
      </trkpt>
      <trkpt lat="45.31192" lon="5.74658">
        <ele>1514.4</ele>
        <time>2020-02-08T11:22:05Z</time>
      </trkpt>
      <trkpt lat="45.31201" lon="5.74659">
        <ele>1513.8</ele>
        <time>2020-02-08T11:22:06Z</time>
      </trkpt>
      <trkpt lat="45.31204" lon="5.74658">
        <ele>1513</ele>
        <time>2020-02-08T11:22:07Z</time>
      </trkpt>
      <trkpt lat="45.31207" lon="5.74657">
        <ele>1511.8</ele>
        <time>2020-02-08T11:22:08Z</time>
      </trkpt>
      <trkpt lat="45.31222" lon="5.74653">
        <ele>1510.2</ele>
        <time>2020-02-08T11:22:09Z</time>
      </trkpt>
      <trkpt lat="45.31229" lon="5.74653">
        <ele>1508.8</ele>
        <time>2020-02-08T11:22:10Z</time>
      </trkpt>
      <trkpt lat="45.31235" lon="5.74652">
        <ele>1506.8</ele>
        <time>2020-02-08T11:22:11Z</time>
      </trkpt>
      <trkpt lat="45.31244" lon="5.74653">
        <ele>1505.4</ele>
        <time>2020-02-08T11:22:12Z</time>
      </trkpt>
      <trkpt lat="45.31244" lon="5.74653">
        <ele>1503.8</ele>
        <time>2020-02-08T11:22:13Z</time>
      </trkpt>
      <trkpt lat="45.31256" lon="5.74666">
        <ele>1502.6</ele>
        <time>2020-02-08T11:22:14Z</time>
      </trkpt>
      <trkpt lat="45.31256" lon="5.74666">
        <ele>1501.6</ele>
        <time>2020-02-08T11:22:15Z</time>
      </trkpt>
      <trkpt lat="45.31256" lon="5.74666">
        <ele>1500.6</ele>
        <time>2020-02-08T11:22:16Z</time>
      </trkpt>
      <trkpt lat="45.31257" lon="5.74666">
        <ele>1500.2</ele>
        <time>2020-02-08T11:22:17Z</time>
      </trkpt>
      <trkpt lat="45.31257" lon="5.74667">
        <ele>1499.8</ele>
        <time>2020-02-08T11:22:18Z</time>
      </trkpt>
      <trkpt lat="45.31258" lon="5.74667">
        <ele>1499.2</ele>
        <time>2020-02-08T11:22:19Z</time>
      </trkpt>
      <trkpt lat="45.31258" lon="5.74667">
        <ele>1498.8</ele>
        <time>2020-02-08T11:22:20Z</time>
      </trkpt>
      <trkpt lat="45.31258" lon="5.74668">
        <ele>1498</ele>
        <time>2020-02-08T11:22:21Z</time>
      </trkpt>
      <trkpt lat="45.31259" lon="5.74668">
        <ele>1498.2</ele>
        <time>2020-02-08T11:22:22Z</time>
      </trkpt>
      <trkpt lat="45.31259" lon="5.74668">
        <ele>1498.2</ele>
        <time>2020-02-08T11:22:23Z</time>
      </trkpt>
      <trkpt lat="45.3126" lon="5.74669">
        <ele>1498</ele>
        <time>2020-02-08T11:22:24Z</time>
      </trkpt>
      <trkpt lat="45.3126" lon="5.74669">
        <ele>1498</ele>
        <time>2020-02-08T11:22:25Z</time>
      </trkpt>
      <trkpt lat="45.31261" lon="5.7467">
        <ele>1497.6</ele>
        <time>2020-02-08T11:22:26Z</time>
      </trkpt>
      <trkpt lat="45.31261" lon="5.7467">
        <ele>1497.6</ele>
        <time>2020-02-08T11:22:27Z</time>
      </trkpt>
      <trkpt lat="45.31261" lon="5.7467">
        <ele>1497.6</ele>
        <time>2020-02-08T11:22:28Z</time>
      </trkpt>
      <trkpt lat="45.31262" lon="5.74671">
        <ele>1497.6</ele>
        <time>2020-02-08T11:22:29Z</time>
      </trkpt>
      <trkpt lat="45.31262" lon="5.74671">
        <ele>1498</ele>
        <time>2020-02-08T11:22:30Z</time>
      </trkpt>
      <trkpt lat="45.31263" lon="5.74671">
        <ele>1498</ele>
        <time>2020-02-08T11:22:31Z</time>
      </trkpt>
      <trkpt lat="45.31263" lon="5.74672">
        <ele>1498</ele>
        <time>2020-02-08T11:22:32Z</time>
      </trkpt>
      <trkpt lat="45.31264" lon="5.74672">
        <ele>1498.2</ele>
        <time>2020-02-08T11:22:33Z</time>
      </trkpt>
      <trkpt lat="45.31264" lon="5.74673">
        <ele>1498</ele>
        <time>2020-02-08T11:22:34Z</time>
      </trkpt>
      <trkpt lat="45.31264" lon="5.74673">
        <ele>1497.8</ele>
        <time>2020-02-08T11:22:35Z</time>
      </trkpt>
      <trkpt lat="45.31267" lon="5.74674">
        <ele>1497.6</ele>
        <time>2020-02-08T11:22:36Z</time>
      </trkpt>
      <trkpt lat="45.31269" lon="5.74676">
        <ele>1497.4</ele>
        <time>2020-02-08T11:22:37Z</time>
      </trkpt>
      <trkpt lat="45.31271" lon="5.74678">
        <ele>1497.6</ele>
        <time>2020-02-08T11:22:38Z</time>
      </trkpt>
      <trkpt lat="45.31273" lon="5.74679">
        <ele>1497.6</ele>
        <time>2020-02-08T11:22:39Z</time>
      </trkpt>
      <trkpt lat="45.31273" lon="5.7468">
        <ele>1497.6</ele>
        <time>2020-02-08T11:22:40Z</time>
      </trkpt>
      <trkpt lat="45.31273" lon="5.7468">
        <ele>1498</ele>
        <time>2020-02-08T11:22:41Z</time>
      </trkpt>
      <trkpt lat="45.31273" lon="5.7468">
        <ele>1497.8</ele>
        <time>2020-02-08T11:22:42Z</time>
      </trkpt>
      <trkpt lat="45.31273" lon="5.74681">
        <ele>1497.6</ele>
        <time>2020-02-08T11:22:43Z</time>
      </trkpt>
      <trkpt lat="45.31274" lon="5.74681">
        <ele>1497.2</ele>
        <time>2020-02-08T11:22:44Z</time>
      </trkpt>
      <trkpt lat="45.31274" lon="5.74682">
        <ele>1497.2</ele>
        <time>2020-02-08T11:22:45Z</time>
      </trkpt>
      <trkpt lat="45.31274" lon="5.74682">
        <ele>1497.4</ele>
        <time>2020-02-08T11:22:46Z</time>
      </trkpt>
      <trkpt lat="45.31274" lon="5.74683">
        <ele>1497.4</ele>
        <time>2020-02-08T11:22:47Z</time>
      </trkpt>
      <trkpt lat="45.31274" lon="5.74683">
        <ele>1497.2</ele>
        <time>2020-02-08T11:22:48Z</time>
      </trkpt>
      <trkpt lat="45.31274" lon="5.74684">
        <ele>1497.6</ele>
        <time>2020-02-08T11:22:49Z</time>
      </trkpt>
      <trkpt lat="45.31275" lon="5.74684">
        <ele>1497.6</ele>
        <time>2020-02-08T11:22:50Z</time>
      </trkpt>
      <trkpt lat="45.31275" lon="5.74685">
        <ele>1497.6</ele>
        <time>2020-02-08T11:22:51Z</time>
      </trkpt>
      <trkpt lat="45.31275" lon="5.74685">
        <ele>1497.6</ele>
        <time>2020-02-08T11:22:52Z</time>
      </trkpt>
      <trkpt lat="45.31275" lon="5.74686">
        <ele>1497.6</ele>
        <time>2020-02-08T11:22:53Z</time>
      </trkpt>
      <trkpt lat="45.31275" lon="5.74686">
        <ele>1497.4</ele>
        <time>2020-02-08T11:22:54Z</time>
      </trkpt>
      <trkpt lat="45.31275" lon="5.74687">
        <ele>1497</ele>
        <time>2020-02-08T11:22:55Z</time>
      </trkpt>
      <trkpt lat="45.31275" lon="5.74687">
        <ele>1497.6</ele>
        <time>2020-02-08T11:22:56Z</time>
      </trkpt>
      <trkpt lat="45.31276" lon="5.74687">
        <ele>1497.2</ele>
        <time>2020-02-08T11:22:57Z</time>
      </trkpt>
      <trkpt lat="45.31276" lon="5.74688">
        <ele>1497</ele>
        <time>2020-02-08T11:22:58Z</time>
      </trkpt>
      <trkpt lat="45.31276" lon="5.74688">
        <ele>1497</ele>
        <time>2020-02-08T11:22:59Z</time>
      </trkpt>
      <trkpt lat="45.31276" lon="5.74689">
        <ele>1497</ele>
        <time>2020-02-08T11:23:00Z</time>
      </trkpt>
      <trkpt lat="45.31276" lon="5.74689">
        <ele>1496.8</ele>
        <time>2020-02-08T11:23:01Z</time>
      </trkpt>
      <trkpt lat="45.31276" lon="5.7469">
        <ele>1496.8</ele>
        <time>2020-02-08T11:23:02Z</time>
      </trkpt>
      <trkpt lat="45.31277" lon="5.7469">
        <ele>1496.8</ele>
        <time>2020-02-08T11:23:03Z</time>
      </trkpt>
      <trkpt lat="45.31277" lon="5.74691">
        <ele>1496.8</ele>
        <time>2020-02-08T11:23:04Z</time>
      </trkpt>
      <trkpt lat="45.31277" lon="5.74691">
        <ele>1496.6</ele>
        <time>2020-02-08T11:23:05Z</time>
      </trkpt>
      <trkpt lat="45.31277" lon="5.74692">
        <ele>1496.8</ele>
        <time>2020-02-08T11:23:06Z</time>
      </trkpt>
      <trkpt lat="45.31277" lon="5.74692">
        <ele>1497</ele>
        <time>2020-02-08T11:23:07Z</time>
      </trkpt>
      <trkpt lat="45.31277" lon="5.74693">
        <ele>1497</ele>
        <time>2020-02-08T11:23:08Z</time>
      </trkpt>
      <trkpt lat="45.31278" lon="5.74692">
        <ele>1497.2</ele>
        <time>2020-02-08T11:23:09Z</time>
      </trkpt>
      <trkpt lat="45.31278" lon="5.74692">
        <ele>1497.6</ele>
        <time>2020-02-08T11:23:10Z</time>
      </trkpt>
      <trkpt lat="45.31278" lon="5.74692">
        <ele>1497.6</ele>
        <time>2020-02-08T11:23:11Z</time>
      </trkpt>
      <trkpt lat="45.31279" lon="5.74692">
        <ele>1497</ele>
        <time>2020-02-08T11:23:12Z</time>
      </trkpt>
      <trkpt lat="45.31279" lon="5.74692">
        <ele>1497.2</ele>
        <time>2020-02-08T11:23:13Z</time>
      </trkpt>
      <trkpt lat="45.31279" lon="5.74691">
        <ele>1497.8</ele>
        <time>2020-02-08T11:23:14Z</time>
      </trkpt>
      <trkpt lat="45.31279" lon="5.74691">
        <ele>1497.4</ele>
        <time>2020-02-08T11:23:15Z</time>
      </trkpt>
      <trkpt lat="45.3128" lon="5.74691">
        <ele>1497.6</ele>
        <time>2020-02-08T11:23:16Z</time>
      </trkpt>
      <trkpt lat="45.3128" lon="5.74691">
        <ele>1497.4</ele>
        <time>2020-02-08T11:23:17Z</time>
      </trkpt>
      <trkpt lat="45.3128" lon="5.7469">
        <ele>1497.8</ele>
        <time>2020-02-08T11:23:18Z</time>
      </trkpt>
      <trkpt lat="45.31281" lon="5.7469">
        <ele>1498.4</ele>
        <time>2020-02-08T11:23:19Z</time>
      </trkpt>
      <trkpt lat="45.31281" lon="5.7469">
        <ele>1498.6</ele>
        <time>2020-02-08T11:23:20Z</time>
      </trkpt>
      <trkpt lat="45.31281" lon="5.7469">
        <ele>1498.6</ele>
        <time>2020-02-08T11:23:21Z</time>
      </trkpt>
      <trkpt lat="45.31281" lon="5.7469">
        <ele>1498.4</ele>
        <time>2020-02-08T11:23:22Z</time>
      </trkpt>
      <trkpt lat="45.31282" lon="5.74689">
        <ele>1498.4</ele>
        <time>2020-02-08T11:23:23Z</time>
      </trkpt>
      <trkpt lat="45.31282" lon="5.74689">
        <ele>1498</ele>
        <time>2020-02-08T11:23:24Z</time>
      </trkpt>
      <trkpt lat="45.31282" lon="5.74689">
        <ele>1497.6</ele>
        <time>2020-02-08T11:23:25Z</time>
      </trkpt>
      <trkpt lat="45.31282" lon="5.74689">
        <ele>1497</ele>
        <time>2020-02-08T11:23:26Z</time>
      </trkpt>
      <trkpt lat="45.31282" lon="5.74689">
        <ele>1497</ele>
        <time>2020-02-08T11:23:27Z</time>
      </trkpt>
      <trkpt lat="45.31282" lon="5.74689">
        <ele>1497.4</ele>
        <time>2020-02-08T11:23:28Z</time>
      </trkpt>
      <trkpt lat="45.31282" lon="5.74689">
        <ele>1497.8</ele>
        <time>2020-02-08T11:23:29Z</time>
      </trkpt>
      <trkpt lat="45.31283" lon="5.74689">
        <ele>1497.6</ele>
        <time>2020-02-08T11:23:30Z</time>
      </trkpt>
      <trkpt lat="45.31283" lon="5.74689">
        <ele>1497.4</ele>
        <time>2020-02-08T11:23:31Z</time>
      </trkpt>
      <trkpt lat="45.31283" lon="5.74689">
        <ele>1497.2</ele>
        <time>2020-02-08T11:23:32Z</time>
      </trkpt>
      <trkpt lat="45.31283" lon="5.74689">
        <ele>1497</ele>
        <time>2020-02-08T11:23:33Z</time>
      </trkpt>
      <trkpt lat="45.31283" lon="5.74689">
        <ele>1497.2</ele>
        <time>2020-02-08T11:23:34Z</time>
      </trkpt>
      <trkpt lat="45.31283" lon="5.74689">
        <ele>1497.2</ele>
        <time>2020-02-08T11:23:35Z</time>
      </trkpt>
      <trkpt lat="45.31283" lon="5.74689">
        <ele>1497</ele>
        <time>2020-02-08T11:23:36Z</time>
      </trkpt>
      <trkpt lat="45.31283" lon="5.74689">
        <ele>1496.8</ele>
        <time>2020-02-08T11:23:37Z</time>
      </trkpt>
      <trkpt lat="45.31283" lon="5.74689">
        <ele>1496.8</ele>
        <time>2020-02-08T11:23:38Z</time>
      </trkpt>
      <trkpt lat="45.31284" lon="5.74689">
        <ele>1496.8</ele>
        <time>2020-02-08T11:23:39Z</time>
      </trkpt>
      <trkpt lat="45.31284" lon="5.74689">
        <ele>1496.8</ele>
        <time>2020-02-08T11:23:40Z</time>
      </trkpt>
      <trkpt lat="45.31284" lon="5.74689">
        <ele>1496.8</ele>
        <time>2020-02-08T11:23:41Z</time>
      </trkpt>
      <trkpt lat="45.31284" lon="5.74689">
        <ele>1496.8</ele>
        <time>2020-02-08T11:23:42Z</time>
      </trkpt>
      <trkpt lat="45.31284" lon="5.74689">
        <ele>1496.8</ele>
        <time>2020-02-08T11:23:43Z</time>
      </trkpt>
      <trkpt lat="45.31284" lon="5.74689">
        <ele>1496.6</ele>
        <time>2020-02-08T11:23:44Z</time>
      </trkpt>
      <trkpt lat="45.31284" lon="5.74688">
        <ele>1496.6</ele>
        <time>2020-02-08T11:23:45Z</time>
      </trkpt>
      <trkpt lat="45.31284" lon="5.74688">
        <ele>1496.4</ele>
        <time>2020-02-08T11:23:46Z</time>
      </trkpt>
      <trkpt lat="45.31284" lon="5.74688">
        <ele>1496.6</ele>
        <time>2020-02-08T11:23:47Z</time>
      </trkpt>
      <trkpt lat="45.31285" lon="5.74688">
        <ele>1496.6</ele>
        <time>2020-02-08T11:23:48Z</time>
      </trkpt>
      <trkpt lat="45.31285" lon="5.74688">
        <ele>1496.6</ele>
        <time>2020-02-08T11:23:49Z</time>
      </trkpt>
      <trkpt lat="45.31285" lon="5.74688">
        <ele>1496.8</ele>
        <time>2020-02-08T11:23:50Z</time>
      </trkpt>
      <trkpt lat="45.31285" lon="5.74688">
        <ele>1496.6</ele>
        <time>2020-02-08T11:23:51Z</time>
      </trkpt>
      <trkpt lat="45.31285" lon="5.74688">
        <ele>1496.8</ele>
        <time>2020-02-08T11:23:52Z</time>
      </trkpt>
      <trkpt lat="45.31285" lon="5.74688">
        <ele>1496.8</ele>
        <time>2020-02-08T11:23:53Z</time>
      </trkpt>
      <trkpt lat="45.31285" lon="5.74688">
        <ele>1496.8</ele>
        <time>2020-02-08T11:23:54Z</time>
      </trkpt>
      <trkpt lat="45.31285" lon="5.74688">
        <ele>1496.6</ele>
        <time>2020-02-08T11:23:55Z</time>
      </trkpt>
      <trkpt lat="45.31285" lon="5.74688">
        <ele>1496.8</ele>
        <time>2020-02-08T11:23:56Z</time>
      </trkpt>
      <trkpt lat="45.31286" lon="5.74688">
        <ele>1496.8</ele>
        <time>2020-02-08T11:23:57Z</time>
      </trkpt>
      <trkpt lat="45.31286" lon="5.74688">
        <ele>1496.8</ele>
        <time>2020-02-08T11:23:58Z</time>
      </trkpt>
      <trkpt lat="45.31286" lon="5.74688">
        <ele>1496.6</ele>
        <time>2020-02-08T11:23:59Z</time>
      </trkpt>
      <trkpt lat="45.31286" lon="5.74688">
        <ele>1496.6</ele>
        <time>2020-02-08T11:24:00Z</time>
      </trkpt>
      <trkpt lat="45.31286" lon="5.74688">
        <ele>1496.6</ele>
        <time>2020-02-08T11:24:01Z</time>
      </trkpt>
      <trkpt lat="45.31286" lon="5.74688">
        <ele>1496.6</ele>
        <time>2020-02-08T11:24:02Z</time>
      </trkpt>
      <trkpt lat="45.31286" lon="5.74688">
        <ele>1497.2</ele>
        <time>2020-02-08T11:24:03Z</time>
      </trkpt>
      <trkpt lat="45.31286" lon="5.74688">
        <ele>1497.4</ele>
        <time>2020-02-08T11:24:04Z</time>
      </trkpt>
      <trkpt lat="45.31286" lon="5.74688">
        <ele>1497.8</ele>
        <time>2020-02-08T11:24:05Z</time>
      </trkpt>
      <trkpt lat="45.31287" lon="5.74688">
        <ele>1497.6</ele>
        <time>2020-02-08T11:24:06Z</time>
      </trkpt>
      <trkpt lat="45.31287" lon="5.74688">
        <ele>1498</ele>
        <time>2020-02-08T11:24:07Z</time>
      </trkpt>
      <trkpt lat="45.31287" lon="5.74688">
        <ele>1498.4</ele>
        <time>2020-02-08T11:24:08Z</time>
      </trkpt>
      <trkpt lat="45.31287" lon="5.74688">
        <ele>1498.6</ele>
        <time>2020-02-08T11:24:09Z</time>
      </trkpt>
      <trkpt lat="45.31287" lon="5.74688">
        <ele>1498.6</ele>
        <time>2020-02-08T11:24:10Z</time>
      </trkpt>
      <trkpt lat="45.31287" lon="5.74687">
        <ele>1498.4</ele>
        <time>2020-02-08T11:24:11Z</time>
      </trkpt>
      <trkpt lat="45.31287" lon="5.74687">
        <ele>1497.4</ele>
        <time>2020-02-08T11:24:12Z</time>
      </trkpt>
      <trkpt lat="45.31287" lon="5.74687">
        <ele>1497.2</ele>
        <time>2020-02-08T11:24:13Z</time>
      </trkpt>
      <trkpt lat="45.31287" lon="5.74687">
        <ele>1497.2</ele>
        <time>2020-02-08T11:24:14Z</time>
      </trkpt>
      <trkpt lat="45.31288" lon="5.74687">
        <ele>1497.2</ele>
        <time>2020-02-08T11:24:15Z</time>
      </trkpt>
      <trkpt lat="45.31288" lon="5.74687">
        <ele>1496.6</ele>
        <time>2020-02-08T11:24:16Z</time>
      </trkpt>
      <trkpt lat="45.31288" lon="5.74687">
        <ele>1496.8</ele>
        <time>2020-02-08T11:24:17Z</time>
      </trkpt>
      <trkpt lat="45.31288" lon="5.74687">
        <ele>1497</ele>
        <time>2020-02-08T11:24:18Z</time>
      </trkpt>
      <trkpt lat="45.31288" lon="5.74687">
        <ele>1497</ele>
        <time>2020-02-08T11:24:19Z</time>
      </trkpt>
      <trkpt lat="45.31288" lon="5.74687">
        <ele>1497</ele>
        <time>2020-02-08T11:24:20Z</time>
      </trkpt>
      <trkpt lat="45.31288" lon="5.74687">
        <ele>1497</ele>
        <time>2020-02-08T11:24:21Z</time>
      </trkpt>
      <trkpt lat="45.31288" lon="5.74687">
        <ele>1497.2</ele>
        <time>2020-02-08T11:24:22Z</time>
      </trkpt>
      <trkpt lat="45.31289" lon="5.74687">
        <ele>1496.8</ele>
        <time>2020-02-08T11:24:23Z</time>
      </trkpt>
      <trkpt lat="45.31289" lon="5.74687">
        <ele>1497.2</ele>
        <time>2020-02-08T11:24:24Z</time>
      </trkpt>
      <trkpt lat="45.31289" lon="5.74687">
        <ele>1497.4</ele>
        <time>2020-02-08T11:24:25Z</time>
      </trkpt>
      <trkpt lat="45.31289" lon="5.74687">
        <ele>1497.4</ele>
        <time>2020-02-08T11:24:26Z</time>
      </trkpt>
      <trkpt lat="45.31289" lon="5.74687">
        <ele>1497.6</ele>
        <time>2020-02-08T11:24:27Z</time>
      </trkpt>
      <trkpt lat="45.31289" lon="5.74687">
        <ele>1497.4</ele>
        <time>2020-02-08T11:24:28Z</time>
      </trkpt>
      <trkpt lat="45.31289" lon="5.74687">
        <ele>1497.4</ele>
        <time>2020-02-08T11:24:29Z</time>
      </trkpt>
      <trkpt lat="45.31289" lon="5.74687">
        <ele>1497.4</ele>
        <time>2020-02-08T11:24:30Z</time>
      </trkpt>
      <trkpt lat="45.31289" lon="5.74687">
        <ele>1497.2</ele>
        <time>2020-02-08T11:24:31Z</time>
      </trkpt>
      <trkpt lat="45.3129" lon="5.74687">
        <ele>1496.8</ele>
        <time>2020-02-08T11:24:32Z</time>
      </trkpt>
      <trkpt lat="45.3129" lon="5.74687">
        <ele>1496.8</ele>
        <time>2020-02-08T11:24:33Z</time>
      </trkpt>
      <trkpt lat="45.3129" lon="5.74687">
        <ele>1497.2</ele>
        <time>2020-02-08T11:24:34Z</time>
      </trkpt>
      <trkpt lat="45.3129" lon="5.74687">
        <ele>1497.8</ele>
        <time>2020-02-08T11:24:35Z</time>
      </trkpt>
      <trkpt lat="45.3129" lon="5.74687">
        <ele>1498.2</ele>
        <time>2020-02-08T11:24:36Z</time>
      </trkpt>
      <trkpt lat="45.3129" lon="5.74686">
        <ele>1498.2</ele>
        <time>2020-02-08T11:24:37Z</time>
      </trkpt>
      <trkpt lat="45.3129" lon="5.74686">
        <ele>1498.2</ele>
        <time>2020-02-08T11:24:38Z</time>
      </trkpt>
      <trkpt lat="45.3129" lon="5.74686">
        <ele>1498.2</ele>
        <time>2020-02-08T11:24:39Z</time>
      </trkpt>
      <trkpt lat="45.3129" lon="5.74686">
        <ele>1498</ele>
        <time>2020-02-08T11:24:40Z</time>
      </trkpt>
      <trkpt lat="45.31291" lon="5.74686">
        <ele>1498.2</ele>
        <time>2020-02-08T11:24:41Z</time>
      </trkpt>
      <trkpt lat="45.31291" lon="5.74686">
        <ele>1498.4</ele>
        <time>2020-02-08T11:24:42Z</time>
      </trkpt>
      <trkpt lat="45.31291" lon="5.74686">
        <ele>1499</ele>
        <time>2020-02-08T11:24:43Z</time>
      </trkpt>
      <trkpt lat="45.31292" lon="5.74687">
        <ele>1499.2</ele>
        <time>2020-02-08T11:24:44Z</time>
      </trkpt>
      <trkpt lat="45.31292" lon="5.74688">
        <ele>1499.4</ele>
        <time>2020-02-08T11:24:45Z</time>
      </trkpt>
      <trkpt lat="45.31293" lon="5.74689">
        <ele>1499.6</ele>
        <time>2020-02-08T11:24:46Z</time>
      </trkpt>
      <trkpt lat="45.31294" lon="5.7469">
        <ele>1499.8</ele>
        <time>2020-02-08T11:24:47Z</time>
      </trkpt>
      <trkpt lat="45.31295" lon="5.74691">
        <ele>1499.6</ele>
        <time>2020-02-08T11:24:48Z</time>
      </trkpt>
      <trkpt lat="45.31295" lon="5.74692">
        <ele>1499.4</ele>
        <time>2020-02-08T11:24:49Z</time>
      </trkpt>
      <trkpt lat="45.31296" lon="5.74693">
        <ele>1499.8</ele>
        <time>2020-02-08T11:24:50Z</time>
      </trkpt>
      <trkpt lat="45.31297" lon="5.74694">
        <ele>1500.2</ele>
        <time>2020-02-08T11:24:52Z</time>
      </trkpt>
      <trkpt lat="45.31298" lon="5.74695">
        <ele>1500</ele>
        <time>2020-02-08T11:24:53Z</time>
      </trkpt>
      <trkpt lat="45.31298" lon="5.74696">
        <ele>1500</ele>
        <time>2020-02-08T11:24:54Z</time>
      </trkpt>
      <trkpt lat="45.31299" lon="5.74696">
        <ele>1500.2</ele>
        <time>2020-02-08T11:24:55Z</time>
      </trkpt>
      <trkpt lat="45.313" lon="5.74696">
        <ele>1500.2</ele>
        <time>2020-02-08T11:24:56Z</time>
      </trkpt>
      <trkpt lat="45.31301" lon="5.74697">
        <ele>1500.4</ele>
        <time>2020-02-08T11:24:57Z</time>
      </trkpt>
      <trkpt lat="45.31302" lon="5.74697">
        <ele>1500.8</ele>
        <time>2020-02-08T11:24:58Z</time>
      </trkpt>
      <trkpt lat="45.31302" lon="5.74698">
        <ele>1501</ele>
        <time>2020-02-08T11:24:59Z</time>
      </trkpt>
      <trkpt lat="45.31303" lon="5.74698">
        <ele>1501.2</ele>
        <time>2020-02-08T11:25:00Z</time>
      </trkpt>
      <trkpt lat="45.31304" lon="5.74699">
        <ele>1501.8</ele>
        <time>2020-02-08T11:25:01Z</time>
      </trkpt>
      <trkpt lat="45.31305" lon="5.74699">
        <ele>1501.8</ele>
        <time>2020-02-08T11:25:02Z</time>
      </trkpt>
      <trkpt lat="45.31305" lon="5.74699">
        <ele>1502</ele>
        <time>2020-02-08T11:25:03Z</time>
      </trkpt>
      <trkpt lat="45.31306" lon="5.747">
        <ele>1502.2</ele>
        <time>2020-02-08T11:25:04Z</time>
      </trkpt>
      <trkpt lat="45.31307" lon="5.747">
        <ele>1502.4</ele>
        <time>2020-02-08T11:25:05Z</time>
      </trkpt>
      <trkpt lat="45.31308" lon="5.747">
        <ele>1502.6</ele>
        <time>2020-02-08T11:25:06Z</time>
      </trkpt>
      <trkpt lat="45.31309" lon="5.747">
        <ele>1503.2</ele>
        <time>2020-02-08T11:25:07Z</time>
      </trkpt>
      <trkpt lat="45.3131" lon="5.747">
        <ele>1503.4</ele>
        <time>2020-02-08T11:25:08Z</time>
      </trkpt>
      <trkpt lat="45.3131" lon="5.747">
        <ele>1503.6</ele>
        <time>2020-02-08T11:25:09Z</time>
      </trkpt>
      <trkpt lat="45.31311" lon="5.747">
        <ele>1504</ele>
        <time>2020-02-08T11:25:10Z</time>
      </trkpt>
      <trkpt lat="45.31312" lon="5.747">
        <ele>1504.2</ele>
        <time>2020-02-08T11:25:11Z</time>
      </trkpt>
      <trkpt lat="45.31313" lon="5.747">
        <ele>1504.4</ele>
        <time>2020-02-08T11:25:12Z</time>
      </trkpt>
      <trkpt lat="45.31314" lon="5.747">
        <ele>1504.4</ele>
        <time>2020-02-08T11:25:13Z</time>
      </trkpt>
      <trkpt lat="45.31315" lon="5.747">
        <ele>1504.8</ele>
        <time>2020-02-08T11:25:14Z</time>
      </trkpt>
      <trkpt lat="45.31315" lon="5.747">
        <ele>1505</ele>
        <time>2020-02-08T11:25:15Z</time>
      </trkpt>
      <trkpt lat="45.31316" lon="5.747">
        <ele>1505</ele>
        <time>2020-02-08T11:25:16Z</time>
      </trkpt>
      <trkpt lat="45.31317" lon="5.747">
        <ele>1505.2</ele>
        <time>2020-02-08T11:25:17Z</time>
      </trkpt>
      <trkpt lat="45.31318" lon="5.74701">
        <ele>1505.8</ele>
        <time>2020-02-08T11:25:18Z</time>
      </trkpt>
      <trkpt lat="45.3132" lon="5.74701">
        <ele>1506</ele>
        <time>2020-02-08T11:25:19Z</time>
      </trkpt>
      <trkpt lat="45.31321" lon="5.74701">
        <ele>1506.4</ele>
        <time>2020-02-08T11:25:20Z</time>
      </trkpt>
      <trkpt lat="45.31322" lon="5.74702">
        <ele>1506.4</ele>
        <time>2020-02-08T11:25:21Z</time>
      </trkpt>
      <trkpt lat="45.31323" lon="5.74702">
        <ele>1506.8</ele>
        <time>2020-02-08T11:25:22Z</time>
      </trkpt>
      <trkpt lat="45.31325" lon="5.74703">
        <ele>1506.6</ele>
        <time>2020-02-08T11:25:23Z</time>
      </trkpt>
      <trkpt lat="45.31326" lon="5.74703">
        <ele>1507.2</ele>
        <time>2020-02-08T11:25:24Z</time>
      </trkpt>
      <trkpt lat="45.31327" lon="5.74705">
        <ele>1507.4</ele>
        <time>2020-02-08T11:25:25Z</time>
      </trkpt>
      <trkpt lat="45.31328" lon="5.74706">
        <ele>1507.6</ele>
        <time>2020-02-08T11:25:26Z</time>
      </trkpt>
      <trkpt lat="45.31329" lon="5.74708">
        <ele>1507.8</ele>
        <time>2020-02-08T11:25:27Z</time>
      </trkpt>
      <trkpt lat="45.3133" lon="5.74709">
        <ele>1508.2</ele>
        <time>2020-02-08T11:25:28Z</time>
      </trkpt>
      <trkpt lat="45.31331" lon="5.74711">
        <ele>1508.4</ele>
        <time>2020-02-08T11:25:29Z</time>
      </trkpt>
      <trkpt lat="45.31332" lon="5.74712">
        <ele>1509</ele>
        <time>2020-02-08T11:25:30Z</time>
      </trkpt>
      <trkpt lat="45.31333" lon="5.74714">
        <ele>1509.2</ele>
        <time>2020-02-08T11:25:31Z</time>
      </trkpt>
      <trkpt lat="45.31334" lon="5.74715">
        <ele>1509.4</ele>
        <time>2020-02-08T11:25:32Z</time>
      </trkpt>
      <trkpt lat="45.31334" lon="5.74717">
        <ele>1509.4</ele>
        <time>2020-02-08T11:25:33Z</time>
      </trkpt>
      <trkpt lat="45.31334" lon="5.74718">
        <ele>1509.6</ele>
        <time>2020-02-08T11:25:34Z</time>
      </trkpt>
      <trkpt lat="45.31335" lon="5.7472">
        <ele>1510</ele>
        <time>2020-02-08T11:25:35Z</time>
      </trkpt>
      <trkpt lat="45.31335" lon="5.74721">
        <ele>1510</ele>
        <time>2020-02-08T11:25:36Z</time>
      </trkpt>
      <trkpt lat="45.31336" lon="5.74723">
        <ele>1510.2</ele>
        <time>2020-02-08T11:25:37Z</time>
      </trkpt>
      <trkpt lat="45.31336" lon="5.74724">
        <ele>1510.6</ele>
        <time>2020-02-08T11:25:38Z</time>
      </trkpt>
      <trkpt lat="45.31336" lon="5.74726">
        <ele>1510.6</ele>
        <time>2020-02-08T11:25:39Z</time>
      </trkpt>
      <trkpt lat="45.31337" lon="5.74728">
        <ele>1511</ele>
        <time>2020-02-08T11:25:40Z</time>
      </trkpt>
      <trkpt lat="45.31337" lon="5.74729">
        <ele>1511.2</ele>
        <time>2020-02-08T11:25:41Z</time>
      </trkpt>
      <trkpt lat="45.31337" lon="5.7473">
        <ele>1511.8</ele>
        <time>2020-02-08T11:25:42Z</time>
      </trkpt>
      <trkpt lat="45.31337" lon="5.74732">
        <ele>1512</ele>
        <time>2020-02-08T11:25:43Z</time>
      </trkpt>
      <trkpt lat="45.31338" lon="5.74733">
        <ele>1511.8</ele>
        <time>2020-02-08T11:25:44Z</time>
      </trkpt>
      <trkpt lat="45.31338" lon="5.74734">
        <ele>1512</ele>
        <time>2020-02-08T11:25:45Z</time>
      </trkpt>
      <trkpt lat="45.31338" lon="5.74736">
        <ele>1512.4</ele>
        <time>2020-02-08T11:25:46Z</time>
      </trkpt>
      <trkpt lat="45.31339" lon="5.74737">
        <ele>1512</ele>
        <time>2020-02-08T11:25:47Z</time>
      </trkpt>
      <trkpt lat="45.31339" lon="5.74738">
        <ele>1512.4</ele>
        <time>2020-02-08T11:25:48Z</time>
      </trkpt>
      <trkpt lat="45.31339" lon="5.7474">
        <ele>1512.8</ele>
        <time>2020-02-08T11:25:49Z</time>
      </trkpt>
      <trkpt lat="45.31339" lon="5.74741">
        <ele>1512.6</ele>
        <time>2020-02-08T11:25:50Z</time>
      </trkpt>
      <trkpt lat="45.31338" lon="5.74742">
        <ele>1513</ele>
        <time>2020-02-08T11:25:51Z</time>
      </trkpt>
      <trkpt lat="45.31337" lon="5.74743">
        <ele>1513.4</ele>
        <time>2020-02-08T11:25:52Z</time>
      </trkpt>
      <trkpt lat="45.31337" lon="5.74744">
        <ele>1513</ele>
        <time>2020-02-08T11:25:53Z</time>
      </trkpt>
      <trkpt lat="45.31336" lon="5.74745">
        <ele>1513.4</ele>
        <time>2020-02-08T11:25:54Z</time>
      </trkpt>
      <trkpt lat="45.31335" lon="5.74746">
        <ele>1513.8</ele>
        <time>2020-02-08T11:25:55Z</time>
      </trkpt>
      <trkpt lat="45.31335" lon="5.74747">
        <ele>1514.2</ele>
        <time>2020-02-08T11:25:56Z</time>
      </trkpt>
      <trkpt lat="45.31334" lon="5.74748">
        <ele>1514.6</ele>
        <time>2020-02-08T11:25:57Z</time>
      </trkpt>
      <trkpt lat="45.31334" lon="5.74749">
        <ele>1514.6</ele>
        <time>2020-02-08T11:25:58Z</time>
      </trkpt>
      <trkpt lat="45.31333" lon="5.7475">
        <ele>1515.2</ele>
        <time>2020-02-08T11:25:59Z</time>
      </trkpt>
      <trkpt lat="45.31332" lon="5.74751">
        <ele>1515.6</ele>
        <time>2020-02-08T11:26:00Z</time>
      </trkpt>
      <trkpt lat="45.31332" lon="5.74752">
        <ele>1515.8</ele>
        <time>2020-02-08T11:26:01Z</time>
      </trkpt>
      <trkpt lat="45.31332" lon="5.74753">
        <ele>1516.2</ele>
        <time>2020-02-08T11:26:02Z</time>
      </trkpt>
      <trkpt lat="45.31331" lon="5.74754">
        <ele>1516.2</ele>
        <time>2020-02-08T11:26:03Z</time>
      </trkpt>
      <trkpt lat="45.31331" lon="5.74755">
        <ele>1516.4</ele>
        <time>2020-02-08T11:26:04Z</time>
      </trkpt>
      <trkpt lat="45.31331" lon="5.74756">
        <ele>1516.6</ele>
        <time>2020-02-08T11:26:05Z</time>
      </trkpt>
      <trkpt lat="45.31331" lon="5.74757">
        <ele>1517</ele>
        <time>2020-02-08T11:26:06Z</time>
      </trkpt>
      <trkpt lat="45.3133" lon="5.74758">
        <ele>1517</ele>
        <time>2020-02-08T11:26:07Z</time>
      </trkpt>
      <trkpt lat="45.3133" lon="5.74758">
        <ele>1517.2</ele>
        <time>2020-02-08T11:26:08Z</time>
      </trkpt>
      <trkpt lat="45.3133" lon="5.74759">
        <ele>1517.4</ele>
        <time>2020-02-08T11:26:09Z</time>
      </trkpt>
      <trkpt lat="45.31329" lon="5.7476">
        <ele>1517.4</ele>
        <time>2020-02-08T11:26:10Z</time>
      </trkpt>
      <trkpt lat="45.31329" lon="5.74761">
        <ele>1517.4</ele>
        <time>2020-02-08T11:26:11Z</time>
      </trkpt>
      <trkpt lat="45.31329" lon="5.74762">
        <ele>1518</ele>
        <time>2020-02-08T11:26:12Z</time>
      </trkpt>
      <trkpt lat="45.31328" lon="5.74763">
        <ele>1518</ele>
        <time>2020-02-08T11:26:13Z</time>
      </trkpt>
      <trkpt lat="45.31327" lon="5.74764">
        <ele>1518.4</ele>
        <time>2020-02-08T11:26:14Z</time>
      </trkpt>
      <trkpt lat="45.31327" lon="5.74765">
        <ele>1518.8</ele>
        <time>2020-02-08T11:26:15Z</time>
      </trkpt>
      <trkpt lat="45.31326" lon="5.74766">
        <ele>1518.8</ele>
        <time>2020-02-08T11:26:16Z</time>
      </trkpt>
      <trkpt lat="45.31325" lon="5.74767">
        <ele>1519</ele>
        <time>2020-02-08T11:26:17Z</time>
      </trkpt>
      <trkpt lat="45.31324" lon="5.74768">
        <ele>1519.4</ele>
        <time>2020-02-08T11:26:18Z</time>
      </trkpt>
      <trkpt lat="45.31323" lon="5.74769">
        <ele>1519.4</ele>
        <time>2020-02-08T11:26:19Z</time>
      </trkpt>
      <trkpt lat="45.31322" lon="5.7477">
        <ele>1519.8</ele>
        <time>2020-02-08T11:26:20Z</time>
      </trkpt>
      <trkpt lat="45.31322" lon="5.7477">
        <ele>1519.8</ele>
        <time>2020-02-08T11:26:21Z</time>
      </trkpt>
      <trkpt lat="45.31321" lon="5.74771">
        <ele>1520.4</ele>
        <time>2020-02-08T11:26:22Z</time>
      </trkpt>
      <trkpt lat="45.3132" lon="5.74772">
        <ele>1520.4</ele>
        <time>2020-02-08T11:26:23Z</time>
      </trkpt>
      <trkpt lat="45.31319" lon="5.74773">
        <ele>1520.2</ele>
        <time>2020-02-08T11:26:24Z</time>
      </trkpt>
      <trkpt lat="45.31318" lon="5.74773">
        <ele>1520.6</ele>
        <time>2020-02-08T11:26:25Z</time>
      </trkpt>
      <trkpt lat="45.31317" lon="5.74774">
        <ele>1521</ele>
        <time>2020-02-08T11:26:26Z</time>
      </trkpt>
      <trkpt lat="45.31317" lon="5.74775">
        <ele>1521</ele>
        <time>2020-02-08T11:26:27Z</time>
      </trkpt>
      <trkpt lat="45.31316" lon="5.74775">
        <ele>1521.6</ele>
        <time>2020-02-08T11:26:28Z</time>
      </trkpt>
      <trkpt lat="45.31315" lon="5.74776">
        <ele>1521.8</ele>
        <time>2020-02-08T11:26:29Z</time>
      </trkpt>
      <trkpt lat="45.31314" lon="5.74777">
        <ele>1522</ele>
        <time>2020-02-08T11:26:30Z</time>
      </trkpt>
      <trkpt lat="45.31313" lon="5.74777">
        <ele>1522.4</ele>
        <time>2020-02-08T11:26:31Z</time>
      </trkpt>
      <trkpt lat="45.31312" lon="5.74778">
        <ele>1522.4</ele>
        <time>2020-02-08T11:26:32Z</time>
      </trkpt>
      <trkpt lat="45.31312" lon="5.74779">
        <ele>1522.4</ele>
        <time>2020-02-08T11:26:33Z</time>
      </trkpt>
      <trkpt lat="45.31311" lon="5.74779">
        <ele>1522.8</ele>
        <time>2020-02-08T11:26:34Z</time>
      </trkpt>
      <trkpt lat="45.31311" lon="5.7478">
        <ele>1522.8</ele>
        <time>2020-02-08T11:26:35Z</time>
      </trkpt>
      <trkpt lat="45.3131" lon="5.74781">
        <ele>1523.2</ele>
        <time>2020-02-08T11:26:36Z</time>
      </trkpt>
      <trkpt lat="45.3131" lon="5.74782">
        <ele>1523.6</ele>
        <time>2020-02-08T11:26:37Z</time>
      </trkpt>
      <trkpt lat="45.31309" lon="5.74783">
        <ele>1523.6</ele>
        <time>2020-02-08T11:26:38Z</time>
      </trkpt>
      <trkpt lat="45.31308" lon="5.74784">
        <ele>1524.2</ele>
        <time>2020-02-08T11:26:39Z</time>
      </trkpt>
      <trkpt lat="45.31308" lon="5.74784">
        <ele>1524.2</ele>
        <time>2020-02-08T11:26:40Z</time>
      </trkpt>
      <trkpt lat="45.31307" lon="5.74785">
        <ele>1524.6</ele>
        <time>2020-02-08T11:26:41Z</time>
      </trkpt>
      <trkpt lat="45.31307" lon="5.74786">
        <ele>1524.8</ele>
        <time>2020-02-08T11:26:42Z</time>
      </trkpt>
      <trkpt lat="45.31306" lon="5.74787">
        <ele>1524.6</ele>
        <time>2020-02-08T11:26:43Z</time>
      </trkpt>
      <trkpt lat="45.31305" lon="5.74787">
        <ele>1525.4</ele>
        <time>2020-02-08T11:26:44Z</time>
      </trkpt>
      <trkpt lat="45.31304" lon="5.74787">
        <ele>1525.6</ele>
        <time>2020-02-08T11:26:45Z</time>
      </trkpt>
      <trkpt lat="45.31303" lon="5.74787">
        <ele>1525.8</ele>
        <time>2020-02-08T11:26:46Z</time>
      </trkpt>
      <trkpt lat="45.31301" lon="5.74787">
        <ele>1526</ele>
        <time>2020-02-08T11:26:47Z</time>
      </trkpt>
      <trkpt lat="45.313" lon="5.74787">
        <ele>1526.6</ele>
        <time>2020-02-08T11:26:48Z</time>
      </trkpt>
      <trkpt lat="45.31299" lon="5.74788">
        <ele>1526.6</ele>
        <time>2020-02-08T11:26:49Z</time>
      </trkpt>
      <trkpt lat="45.31298" lon="5.74788">
        <ele>1527</ele>
        <time>2020-02-08T11:26:50Z</time>
      </trkpt>
      <trkpt lat="45.31297" lon="5.74788">
        <ele>1527</ele>
        <time>2020-02-08T11:26:51Z</time>
      </trkpt>
      <trkpt lat="45.31296" lon="5.74789">
        <ele>1527.4</ele>
        <time>2020-02-08T11:26:52Z</time>
      </trkpt>
      <trkpt lat="45.31296" lon="5.7479">
        <ele>1527.6</ele>
        <time>2020-02-08T11:26:53Z</time>
      </trkpt>
      <trkpt lat="45.31295" lon="5.74791">
        <ele>1527.8</ele>
        <time>2020-02-08T11:26:54Z</time>
      </trkpt>
      <trkpt lat="45.31295" lon="5.74792">
        <ele>1528.2</ele>
        <time>2020-02-08T11:26:55Z</time>
      </trkpt>
      <trkpt lat="45.31294" lon="5.74793">
        <ele>1528.4</ele>
        <time>2020-02-08T11:26:56Z</time>
      </trkpt>
      <trkpt lat="45.31294" lon="5.74794">
        <ele>1529</ele>
        <time>2020-02-08T11:26:57Z</time>
      </trkpt>
      <trkpt lat="45.31294" lon="5.74795">
        <ele>1529.2</ele>
        <time>2020-02-08T11:26:58Z</time>
      </trkpt>
      <trkpt lat="45.31293" lon="5.74796">
        <ele>1530</ele>
        <time>2020-02-08T11:26:59Z</time>
      </trkpt>
      <trkpt lat="45.31293" lon="5.74797">
        <ele>1530.2</ele>
        <time>2020-02-08T11:27:00Z</time>
      </trkpt>
      <trkpt lat="45.31292" lon="5.74798">
        <ele>1530.6</ele>
        <time>2020-02-08T11:27:01Z</time>
      </trkpt>
      <trkpt lat="45.31292" lon="5.74799">
        <ele>1530.8</ele>
        <time>2020-02-08T11:27:02Z</time>
      </trkpt>
      <trkpt lat="45.31291" lon="5.748">
        <ele>1530.8</ele>
        <time>2020-02-08T11:27:03Z</time>
      </trkpt>
      <trkpt lat="45.31291" lon="5.74801">
        <ele>1531.2</ele>
        <time>2020-02-08T11:27:04Z</time>
      </trkpt>
      <trkpt lat="45.3129" lon="5.74801">
        <ele>1531.4</ele>
        <time>2020-02-08T11:27:05Z</time>
      </trkpt>
      <trkpt lat="45.31289" lon="5.74802">
        <ele>1531.6</ele>
        <time>2020-02-08T11:27:06Z</time>
      </trkpt>
      <trkpt lat="45.31288" lon="5.74803">
        <ele>1532.2</ele>
        <time>2020-02-08T11:27:07Z</time>
      </trkpt>
      <trkpt lat="45.31288" lon="5.74803">
        <ele>1532.2</ele>
        <time>2020-02-08T11:27:08Z</time>
      </trkpt>
      <trkpt lat="45.31287" lon="5.74804">
        <ele>1532.6</ele>
        <time>2020-02-08T11:27:09Z</time>
      </trkpt>
      <trkpt lat="45.31286" lon="5.74805">
        <ele>1532.6</ele>
        <time>2020-02-08T11:27:10Z</time>
      </trkpt>
      <trkpt lat="45.31285" lon="5.74805">
        <ele>1533</ele>
        <time>2020-02-08T11:27:11Z</time>
      </trkpt>
      <trkpt lat="45.31285" lon="5.74806">
        <ele>1533.2</ele>
        <time>2020-02-08T11:27:12Z</time>
      </trkpt>
      <trkpt lat="45.31284" lon="5.74807">
        <ele>1533.6</ele>
        <time>2020-02-08T11:27:13Z</time>
      </trkpt>
      <trkpt lat="45.31283" lon="5.74807">
        <ele>1533.6</ele>
        <time>2020-02-08T11:27:14Z</time>
      </trkpt>
      <trkpt lat="45.31283" lon="5.74808">
        <ele>1533.8</ele>
        <time>2020-02-08T11:27:15Z</time>
      </trkpt>
      <trkpt lat="45.31282" lon="5.74809">
        <ele>1534</ele>
        <time>2020-02-08T11:27:16Z</time>
      </trkpt>
      <trkpt lat="45.31281" lon="5.7481">
        <ele>1534</ele>
        <time>2020-02-08T11:27:17Z</time>
      </trkpt>
      <trkpt lat="45.31281" lon="5.74811">
        <ele>1534</ele>
        <time>2020-02-08T11:27:18Z</time>
      </trkpt>
      <trkpt lat="45.3128" lon="5.74813">
        <ele>1534.2</ele>
        <time>2020-02-08T11:27:19Z</time>
      </trkpt>
      <trkpt lat="45.3128" lon="5.74814">
        <ele>1534.6</ele>
        <time>2020-02-08T11:27:20Z</time>
      </trkpt>
      <trkpt lat="45.31279" lon="5.74815">
        <ele>1534.4</ele>
        <time>2020-02-08T11:27:21Z</time>
      </trkpt>
      <trkpt lat="45.31279" lon="5.74816">
        <ele>1534.8</ele>
        <time>2020-02-08T11:27:22Z</time>
      </trkpt>
      <trkpt lat="45.31278" lon="5.74817">
        <ele>1535</ele>
        <time>2020-02-08T11:27:23Z</time>
      </trkpt>
      <trkpt lat="45.31277" lon="5.74818">
        <ele>1534.8</ele>
        <time>2020-02-08T11:27:24Z</time>
      </trkpt>
      <trkpt lat="45.31277" lon="5.7482">
        <ele>1535</ele>
        <time>2020-02-08T11:27:25Z</time>
      </trkpt>
      <trkpt lat="45.31277" lon="5.74821">
        <ele>1535.2</ele>
        <time>2020-02-08T11:27:26Z</time>
      </trkpt>
      <trkpt lat="45.31276" lon="5.74823">
        <ele>1535.2</ele>
        <time>2020-02-08T11:27:27Z</time>
      </trkpt>
      <trkpt lat="45.31276" lon="5.74825">
        <ele>1535.4</ele>
        <time>2020-02-08T11:27:28Z</time>
      </trkpt>
      <trkpt lat="45.31276" lon="5.74827">
        <ele>1535.4</ele>
        <time>2020-02-08T11:27:29Z</time>
      </trkpt>
      <trkpt lat="45.31276" lon="5.74829">
        <ele>1535</ele>
        <time>2020-02-08T11:27:30Z</time>
      </trkpt>
      <trkpt lat="45.31275" lon="5.74831">
        <ele>1535</ele>
        <time>2020-02-08T11:27:31Z</time>
      </trkpt>
      <trkpt lat="45.31276" lon="5.74834">
        <ele>1534.8</ele>
        <time>2020-02-08T11:27:32Z</time>
      </trkpt>
      <trkpt lat="45.31276" lon="5.74838">
        <ele>1534.4</ele>
        <time>2020-02-08T11:27:33Z</time>
      </trkpt>
      <trkpt lat="45.31276" lon="5.74841">
        <ele>1534.2</ele>
        <time>2020-02-08T11:27:34Z</time>
      </trkpt>
      <trkpt lat="45.31277" lon="5.74844">
        <ele>1533.8</ele>
        <time>2020-02-08T11:27:35Z</time>
      </trkpt>
      <trkpt lat="45.31277" lon="5.74847">
        <ele>1533.6</ele>
        <time>2020-02-08T11:27:36Z</time>
      </trkpt>
      <trkpt lat="45.31277" lon="5.74849">
        <ele>1533.8</ele>
        <time>2020-02-08T11:27:37Z</time>
      </trkpt>
      <trkpt lat="45.31276" lon="5.74852">
        <ele>1533.6</ele>
        <time>2020-02-08T11:27:38Z</time>
      </trkpt>
      <trkpt lat="45.31276" lon="5.74854">
        <ele>1533</ele>
        <time>2020-02-08T11:27:39Z</time>
      </trkpt>
      <trkpt lat="45.31276" lon="5.74856">
        <ele>1533.2</ele>
        <time>2020-02-08T11:27:40Z</time>
      </trkpt>
      <trkpt lat="45.31276" lon="5.74859">
        <ele>1533.4</ele>
        <time>2020-02-08T11:27:41Z</time>
      </trkpt>
      <trkpt lat="45.31275" lon="5.74861">
        <ele>1533.2</ele>
        <time>2020-02-08T11:27:42Z</time>
      </trkpt>
      <trkpt lat="45.31275" lon="5.74864">
        <ele>1533</ele>
        <time>2020-02-08T11:27:43Z</time>
      </trkpt>
      <trkpt lat="45.31274" lon="5.74868">
        <ele>1533</ele>
        <time>2020-02-08T11:27:44Z</time>
      </trkpt>
      <trkpt lat="45.31274" lon="5.74871">
        <ele>1532.8</ele>
        <time>2020-02-08T11:27:45Z</time>
      </trkpt>
      <trkpt lat="45.31273" lon="5.74874">
        <ele>1533.2</ele>
        <time>2020-02-08T11:27:46Z</time>
      </trkpt>
      <trkpt lat="45.31273" lon="5.74877">
        <ele>1533</ele>
        <time>2020-02-08T11:27:47Z</time>
      </trkpt>
      <trkpt lat="45.31273" lon="5.7488">
        <ele>1532.4</ele>
        <time>2020-02-08T11:27:48Z</time>
      </trkpt>
      <trkpt lat="45.31273" lon="5.74883">
        <ele>1532</ele>
        <time>2020-02-08T11:27:49Z</time>
      </trkpt>
      <trkpt lat="45.31273" lon="5.74886">
        <ele>1531.4</ele>
        <time>2020-02-08T11:27:50Z</time>
      </trkpt>
      <trkpt lat="45.31273" lon="5.74889">
        <ele>1531.4</ele>
        <time>2020-02-08T11:27:51Z</time>
      </trkpt>
      <trkpt lat="45.31273" lon="5.74889">
        <ele>1531.2</ele>
        <time>2020-02-08T11:27:52Z</time>
      </trkpt>
      <trkpt lat="45.31273" lon="5.7489">
        <ele>1530.8</ele>
        <time>2020-02-08T11:27:53Z</time>
      </trkpt>
      <trkpt lat="45.31273" lon="5.74891">
        <ele>1530.6</ele>
        <time>2020-02-08T11:27:54Z</time>
      </trkpt>
      <trkpt lat="45.31273" lon="5.74891">
        <ele>1530.4</ele>
        <time>2020-02-08T11:27:55Z</time>
      </trkpt>
      <trkpt lat="45.31272" lon="5.74892">
        <ele>1530</ele>
        <time>2020-02-08T11:27:56Z</time>
      </trkpt>
      <trkpt lat="45.31272" lon="5.74893">
        <ele>1529.8</ele>
        <time>2020-02-08T11:27:57Z</time>
      </trkpt>
      <trkpt lat="45.31272" lon="5.74893">
        <ele>1529.4</ele>
        <time>2020-02-08T11:27:58Z</time>
      </trkpt>
      <trkpt lat="45.31272" lon="5.74894">
        <ele>1529.2</ele>
        <time>2020-02-08T11:27:59Z</time>
      </trkpt>
      <trkpt lat="45.31272" lon="5.74894">
        <ele>1529</ele>
        <time>2020-02-08T11:28:00Z</time>
      </trkpt>
      <trkpt lat="45.31272" lon="5.74895">
        <ele>1528.6</ele>
        <time>2020-02-08T11:28:01Z</time>
      </trkpt>
      <trkpt lat="45.31272" lon="5.74896">
        <ele>1528.6</ele>
        <time>2020-02-08T11:28:02Z</time>
      </trkpt>
      <trkpt lat="45.31271" lon="5.74896">
        <ele>1528.8</ele>
        <time>2020-02-08T11:28:03Z</time>
      </trkpt>
      <trkpt lat="45.31271" lon="5.74897">
        <ele>1528.6</ele>
        <time>2020-02-08T11:28:04Z</time>
      </trkpt>
      <trkpt lat="45.31271" lon="5.74897">
        <ele>1528.2</ele>
        <time>2020-02-08T11:28:05Z</time>
      </trkpt>
      <trkpt lat="45.31271" lon="5.74898">
        <ele>1528.4</ele>
        <time>2020-02-08T11:28:06Z</time>
      </trkpt>
      <trkpt lat="45.31271" lon="5.74899">
        <ele>1528.4</ele>
        <time>2020-02-08T11:28:07Z</time>
      </trkpt>
      <trkpt lat="45.31271" lon="5.74899">
        <ele>1528.6</ele>
        <time>2020-02-08T11:28:08Z</time>
      </trkpt>
      <trkpt lat="45.31271" lon="5.749">
        <ele>1528.8</ele>
        <time>2020-02-08T11:28:09Z</time>
      </trkpt>
      <trkpt lat="45.3127" lon="5.749">
        <ele>1528.6</ele>
        <time>2020-02-08T11:28:10Z</time>
      </trkpt>
      <trkpt lat="45.3127" lon="5.74901">
        <ele>1528.8</ele>
        <time>2020-02-08T11:28:11Z</time>
      </trkpt>
      <trkpt lat="45.3127" lon="5.74902">
        <ele>1528.6</ele>
        <time>2020-02-08T11:28:12Z</time>
      </trkpt>
      <trkpt lat="45.3127" lon="5.74904">
        <ele>1528.6</ele>
        <time>2020-02-08T11:28:13Z</time>
      </trkpt>
      <trkpt lat="45.3127" lon="5.74905">
        <ele>1528.8</ele>
        <time>2020-02-08T11:28:14Z</time>
      </trkpt>
      <trkpt lat="45.3127" lon="5.74906">
        <ele>1528.8</ele>
        <time>2020-02-08T11:28:15Z</time>
      </trkpt>
      <trkpt lat="45.3127" lon="5.74908">
        <ele>1528.8</ele>
        <time>2020-02-08T11:28:16Z</time>
      </trkpt>
      <trkpt lat="45.31269" lon="5.74909">
        <ele>1529.2</ele>
        <time>2020-02-08T11:28:17Z</time>
      </trkpt>
      <trkpt lat="45.31269" lon="5.7491">
        <ele>1529.4</ele>
        <time>2020-02-08T11:28:18Z</time>
      </trkpt>
      <trkpt lat="45.31269" lon="5.74912">
        <ele>1529.2</ele>
        <time>2020-02-08T11:28:19Z</time>
      </trkpt>
      <trkpt lat="45.31269" lon="5.74913">
        <ele>1529.2</ele>
        <time>2020-02-08T11:28:20Z</time>
      </trkpt>
      <trkpt lat="45.31269" lon="5.74914">
        <ele>1529</ele>
        <time>2020-02-08T11:28:21Z</time>
      </trkpt>
      <trkpt lat="45.31268" lon="5.74915">
        <ele>1529.2</ele>
        <time>2020-02-08T11:28:22Z</time>
      </trkpt>
      <trkpt lat="45.31267" lon="5.74916">
        <ele>1529</ele>
        <time>2020-02-08T11:28:23Z</time>
      </trkpt>
      <trkpt lat="45.31266" lon="5.74917">
        <ele>1529.6</ele>
        <time>2020-02-08T11:28:24Z</time>
      </trkpt>
      <trkpt lat="45.31265" lon="5.74918">
        <ele>1529.6</ele>
        <time>2020-02-08T11:28:25Z</time>
      </trkpt>
      <trkpt lat="45.31265" lon="5.74918">
        <ele>1529.8</ele>
        <time>2020-02-08T11:28:26Z</time>
      </trkpt>
      <trkpt lat="45.31264" lon="5.74919">
        <ele>1529.8</ele>
        <time>2020-02-08T11:28:27Z</time>
      </trkpt>
      <trkpt lat="45.31263" lon="5.7492">
        <ele>1529.8</ele>
        <time>2020-02-08T11:28:28Z</time>
      </trkpt>
      <trkpt lat="45.31262" lon="5.74921">
        <ele>1530.2</ele>
        <time>2020-02-08T11:28:29Z</time>
      </trkpt>
      <trkpt lat="45.31261" lon="5.74922">
        <ele>1530.6</ele>
        <time>2020-02-08T11:28:30Z</time>
      </trkpt>
      <trkpt lat="45.3126" lon="5.74923">
        <ele>1530.8</ele>
        <time>2020-02-08T11:28:31Z</time>
      </trkpt>
      <trkpt lat="45.31259" lon="5.74923">
        <ele>1530.6</ele>
        <time>2020-02-08T11:28:32Z</time>
      </trkpt>
      <trkpt lat="45.31257" lon="5.74924">
        <ele>1530.4</ele>
        <time>2020-02-08T11:28:33Z</time>
      </trkpt>
      <trkpt lat="45.31256" lon="5.74924">
        <ele>1530.8</ele>
        <time>2020-02-08T11:28:34Z</time>
      </trkpt>
      <trkpt lat="45.31254" lon="5.74925">
        <ele>1531.4</ele>
        <time>2020-02-08T11:28:35Z</time>
      </trkpt>
      <trkpt lat="45.31253" lon="5.74925">
        <ele>1531.2</ele>
        <time>2020-02-08T11:28:36Z</time>
      </trkpt>
      <trkpt lat="45.31251" lon="5.74926">
        <ele>1531.2</ele>
        <time>2020-02-08T11:28:37Z</time>
      </trkpt>
      <trkpt lat="45.3125" lon="5.74927">
        <ele>1531.4</ele>
        <time>2020-02-08T11:28:38Z</time>
      </trkpt>
      <trkpt lat="45.31248" lon="5.74929">
        <ele>1531.8</ele>
        <time>2020-02-08T11:28:39Z</time>
      </trkpt>
      <trkpt lat="45.31246" lon="5.7493">
        <ele>1531.8</ele>
        <time>2020-02-08T11:28:40Z</time>
      </trkpt>
      <trkpt lat="45.31244" lon="5.74932">
        <ele>1532.2</ele>
        <time>2020-02-08T11:28:41Z</time>
      </trkpt>
      <trkpt lat="45.31243" lon="5.74934">
        <ele>1532.4</ele>
        <time>2020-02-08T11:28:42Z</time>
      </trkpt>
      <trkpt lat="45.31242" lon="5.74934">
        <ele>1532.4</ele>
        <time>2020-02-08T11:28:43Z</time>
      </trkpt>
      <trkpt lat="45.31242" lon="5.74935">
        <ele>1532.8</ele>
        <time>2020-02-08T11:28:44Z</time>
      </trkpt>
      <trkpt lat="45.31241" lon="5.74936">
        <ele>1533</ele>
        <time>2020-02-08T11:28:45Z</time>
      </trkpt>
      <trkpt lat="45.31241" lon="5.74936">
        <ele>1532.8</ele>
        <time>2020-02-08T11:28:46Z</time>
      </trkpt>
      <trkpt lat="45.3124" lon="5.74937">
        <ele>1533.6</ele>
        <time>2020-02-08T11:28:47Z</time>
      </trkpt>
      <trkpt lat="45.3124" lon="5.74938">
        <ele>1533.4</ele>
        <time>2020-02-08T11:28:48Z</time>
      </trkpt>
      <trkpt lat="45.31239" lon="5.74939">
        <ele>1533.2</ele>
        <time>2020-02-08T11:28:49Z</time>
      </trkpt>
      <trkpt lat="45.31239" lon="5.74939">
        <ele>1533.4</ele>
        <time>2020-02-08T11:28:50Z</time>
      </trkpt>
      <trkpt lat="45.31238" lon="5.7494">
        <ele>1533.8</ele>
        <time>2020-02-08T11:28:51Z</time>
      </trkpt>
      <trkpt lat="45.31238" lon="5.74941">
        <ele>1533.6</ele>
        <time>2020-02-08T11:28:52Z</time>
      </trkpt>
      <trkpt lat="45.31237" lon="5.74941">
        <ele>1533.6</ele>
        <time>2020-02-08T11:28:53Z</time>
      </trkpt>
      <trkpt lat="45.31237" lon="5.74942">
        <ele>1534.2</ele>
        <time>2020-02-08T11:28:54Z</time>
      </trkpt>
      <trkpt lat="45.31236" lon="5.74943">
        <ele>1534.4</ele>
        <time>2020-02-08T11:28:55Z</time>
      </trkpt>
      <trkpt lat="45.31235" lon="5.74943">
        <ele>1534.4</ele>
        <time>2020-02-08T11:28:56Z</time>
      </trkpt>
      <trkpt lat="45.31234" lon="5.74942">
        <ele>1534</ele>
        <time>2020-02-08T11:28:57Z</time>
      </trkpt>
      <trkpt lat="45.31233" lon="5.74942">
        <ele>1533.8</ele>
        <time>2020-02-08T11:28:58Z</time>
      </trkpt>
      <trkpt lat="45.31232" lon="5.74942">
        <ele>1534.2</ele>
        <time>2020-02-08T11:28:59Z</time>
      </trkpt>
      <trkpt lat="45.31231" lon="5.74942">
        <ele>1534</ele>
        <time>2020-02-08T11:29:00Z</time>
      </trkpt>
      <trkpt lat="45.3123" lon="5.74942">
        <ele>1534.8</ele>
        <time>2020-02-08T11:29:01Z</time>
      </trkpt>
      <trkpt lat="45.31229" lon="5.74941">
        <ele>1534.8</ele>
        <time>2020-02-08T11:29:02Z</time>
      </trkpt>
      <trkpt lat="45.31228" lon="5.74941">
        <ele>1534.8</ele>
        <time>2020-02-08T11:29:03Z</time>
      </trkpt>
      <trkpt lat="45.31227" lon="5.74941">
        <ele>1534.8</ele>
        <time>2020-02-08T11:29:04Z</time>
      </trkpt>
      <trkpt lat="45.31226" lon="5.74941">
        <ele>1534.6</ele>
        <time>2020-02-08T11:29:05Z</time>
      </trkpt>
      <trkpt lat="45.31226" lon="5.74941">
        <ele>1534.8</ele>
        <time>2020-02-08T11:29:06Z</time>
      </trkpt>
      <trkpt lat="45.31225" lon="5.74942">
        <ele>1535.4</ele>
        <time>2020-02-08T11:29:07Z</time>
      </trkpt>
      <trkpt lat="45.31225" lon="5.74943">
        <ele>1535.4</ele>
        <time>2020-02-08T11:29:08Z</time>
      </trkpt>
      <trkpt lat="45.31224" lon="5.74943">
        <ele>1535</ele>
        <time>2020-02-08T11:29:09Z</time>
      </trkpt>
      <trkpt lat="45.31224" lon="5.74944">
        <ele>1535.2</ele>
        <time>2020-02-08T11:29:10Z</time>
      </trkpt>
      <trkpt lat="45.31223" lon="5.74945">
        <ele>1535.6</ele>
        <time>2020-02-08T11:29:11Z</time>
      </trkpt>
      <trkpt lat="45.31223" lon="5.74945">
        <ele>1535.6</ele>
        <time>2020-02-08T11:29:12Z</time>
      </trkpt>
      <trkpt lat="45.31222" lon="5.74946">
        <ele>1536</ele>
        <time>2020-02-08T11:29:13Z</time>
      </trkpt>
      <trkpt lat="45.31222" lon="5.74946">
        <ele>1536.2</ele>
        <time>2020-02-08T11:29:14Z</time>
      </trkpt>
      <trkpt lat="45.31221" lon="5.74947">
        <ele>1536.6</ele>
        <time>2020-02-08T11:29:15Z</time>
      </trkpt>
      <trkpt lat="45.31221" lon="5.74948">
        <ele>1536.6</ele>
        <time>2020-02-08T11:29:16Z</time>
      </trkpt>
      <trkpt lat="45.3122" lon="5.74948">
        <ele>1537</ele>
        <time>2020-02-08T11:29:17Z</time>
      </trkpt>
      <trkpt lat="45.3122" lon="5.74949">
        <ele>1537</ele>
        <time>2020-02-08T11:29:18Z</time>
      </trkpt>
      <trkpt lat="45.31219" lon="5.7495">
        <ele>1537.4</ele>
        <time>2020-02-08T11:29:19Z</time>
      </trkpt>
      <trkpt lat="45.31219" lon="5.7495">
        <ele>1537.2</ele>
        <time>2020-02-08T11:29:20Z</time>
      </trkpt>
      <trkpt lat="45.31217" lon="5.7495">
        <ele>1537.6</ele>
        <time>2020-02-08T11:29:21Z</time>
      </trkpt>
      <trkpt lat="45.31215" lon="5.74951">
        <ele>1538.2</ele>
        <time>2020-02-08T11:29:22Z</time>
      </trkpt>
      <trkpt lat="45.31214" lon="5.74951">
        <ele>1538.2</ele>
        <time>2020-02-08T11:29:23Z</time>
      </trkpt>
      <trkpt lat="45.31212" lon="5.74951">
        <ele>1538.4</ele>
        <time>2020-02-08T11:29:24Z</time>
      </trkpt>
      <trkpt lat="45.31211" lon="5.74952">
        <ele>1538.4</ele>
        <time>2020-02-08T11:29:25Z</time>
      </trkpt>
      <trkpt lat="45.31209" lon="5.74952">
        <ele>1538.8</ele>
        <time>2020-02-08T11:29:26Z</time>
      </trkpt>
      <trkpt lat="45.31208" lon="5.74953">
        <ele>1539.2</ele>
        <time>2020-02-08T11:29:27Z</time>
      </trkpt>
      <trkpt lat="45.31207" lon="5.74954">
        <ele>1539.2</ele>
        <time>2020-02-08T11:29:28Z</time>
      </trkpt>
      <trkpt lat="45.31205" lon="5.74954">
        <ele>1540</ele>
        <time>2020-02-08T11:29:29Z</time>
      </trkpt>
      <trkpt lat="45.31204" lon="5.74955">
        <ele>1540</ele>
        <time>2020-02-08T11:29:30Z</time>
      </trkpt>
      <trkpt lat="45.31203" lon="5.74956">
        <ele>1539.8</ele>
        <time>2020-02-08T11:29:31Z</time>
      </trkpt>
      <trkpt lat="45.31202" lon="5.74957">
        <ele>1540.4</ele>
        <time>2020-02-08T11:29:32Z</time>
      </trkpt>
      <trkpt lat="45.31201" lon="5.74957">
        <ele>1540.8</ele>
        <time>2020-02-08T11:29:33Z</time>
      </trkpt>
      <trkpt lat="45.31199" lon="5.74958">
        <ele>1540.6</ele>
        <time>2020-02-08T11:29:34Z</time>
      </trkpt>
      <trkpt lat="45.31198" lon="5.74959">
        <ele>1540.8</ele>
        <time>2020-02-08T11:29:35Z</time>
      </trkpt>
      <trkpt lat="45.31197" lon="5.74959">
        <ele>1541</ele>
        <time>2020-02-08T11:29:36Z</time>
      </trkpt>
      <trkpt lat="45.31196" lon="5.7496">
        <ele>1541</ele>
        <time>2020-02-08T11:29:37Z</time>
      </trkpt>
      <trkpt lat="45.31195" lon="5.7496">
        <ele>1540.8</ele>
        <time>2020-02-08T11:29:38Z</time>
      </trkpt>
      <trkpt lat="45.31194" lon="5.74961">
        <ele>1540.4</ele>
        <time>2020-02-08T11:29:39Z</time>
      </trkpt>
      <trkpt lat="45.31193" lon="5.74961">
        <ele>1540.4</ele>
        <time>2020-02-08T11:29:40Z</time>
      </trkpt>
      <trkpt lat="45.31192" lon="5.74962">
        <ele>1540.8</ele>
        <time>2020-02-08T11:29:41Z</time>
      </trkpt>
      <trkpt lat="45.31191" lon="5.74963">
        <ele>1540.6</ele>
        <time>2020-02-08T11:29:42Z</time>
      </trkpt>
      <trkpt lat="45.3119" lon="5.74963">
        <ele>1541.2</ele>
        <time>2020-02-08T11:29:43Z</time>
      </trkpt>
      <trkpt lat="45.3119" lon="5.74963">
        <ele>1541.6</ele>
        <time>2020-02-08T11:29:44Z</time>
      </trkpt>
      <trkpt lat="45.3119" lon="5.74963">
        <ele>1541.8</ele>
        <time>2020-02-08T11:29:45Z</time>
      </trkpt>
      <trkpt lat="45.31189" lon="5.74964">
        <ele>1541.8</ele>
        <time>2020-02-08T11:29:46Z</time>
      </trkpt>
      <trkpt lat="45.31189" lon="5.74964">
        <ele>1541.8</ele>
        <time>2020-02-08T11:29:47Z</time>
      </trkpt>
      <trkpt lat="45.31189" lon="5.74964">
        <ele>1541.6</ele>
        <time>2020-02-08T11:29:48Z</time>
      </trkpt>
      <trkpt lat="45.31189" lon="5.74965">
        <ele>1541.8</ele>
        <time>2020-02-08T11:29:49Z</time>
      </trkpt>
      <trkpt lat="45.31188" lon="5.74965">
        <ele>1541.6</ele>
        <time>2020-02-08T11:29:50Z</time>
      </trkpt>
      <trkpt lat="45.31188" lon="5.74965">
        <ele>1541.6</ele>
        <time>2020-02-08T11:29:51Z</time>
      </trkpt>
      <trkpt lat="45.31188" lon="5.74966">
        <ele>1541.8</ele>
        <time>2020-02-08T11:29:52Z</time>
      </trkpt>
      <trkpt lat="45.31188" lon="5.74966">
        <ele>1541.4</ele>
        <time>2020-02-08T11:29:53Z</time>
      </trkpt>
      <trkpt lat="45.31187" lon="5.74966">
        <ele>1541.8</ele>
        <time>2020-02-08T11:29:54Z</time>
      </trkpt>
      <trkpt lat="45.31187" lon="5.74967">
        <ele>1542</ele>
        <time>2020-02-08T11:29:55Z</time>
      </trkpt>
      <trkpt lat="45.31187" lon="5.74967">
        <ele>1542.2</ele>
        <time>2020-02-08T11:29:56Z</time>
      </trkpt>
      <trkpt lat="45.31186" lon="5.74967">
        <ele>1542</ele>
        <time>2020-02-08T11:29:57Z</time>
      </trkpt>
      <trkpt lat="45.31186" lon="5.74968">
        <ele>1542.4</ele>
        <time>2020-02-08T11:29:58Z</time>
      </trkpt>
      <trkpt lat="45.31186" lon="5.74968">
        <ele>1542.8</ele>
        <time>2020-02-08T11:29:59Z</time>
      </trkpt>
      <trkpt lat="45.31186" lon="5.74968">
        <ele>1543.2</ele>
        <time>2020-02-08T11:30:00Z</time>
      </trkpt>
      <trkpt lat="45.31185" lon="5.74968">
        <ele>1543.2</ele>
        <time>2020-02-08T11:30:01Z</time>
      </trkpt>
      <trkpt lat="45.31185" lon="5.74969">
        <ele>1543.6</ele>
        <time>2020-02-08T11:30:02Z</time>
      </trkpt>
      <trkpt lat="45.31185" lon="5.74969">
        <ele>1543.6</ele>
        <time>2020-02-08T11:30:03Z</time>
      </trkpt>
      <trkpt lat="45.31185" lon="5.74969">
        <ele>1544</ele>
        <time>2020-02-08T11:30:04Z</time>
      </trkpt>
      <trkpt lat="45.31184" lon="5.7497">
        <ele>1544</ele>
        <time>2020-02-08T11:30:05Z</time>
      </trkpt>
      <trkpt lat="45.31184" lon="5.7497">
        <ele>1544.4</ele>
        <time>2020-02-08T11:30:06Z</time>
      </trkpt>
      <trkpt lat="45.31184" lon="5.7497">
        <ele>1544.6</ele>
        <time>2020-02-08T11:30:07Z</time>
      </trkpt>
      <trkpt lat="45.31183" lon="5.74971">
        <ele>1545</ele>
        <time>2020-02-08T11:30:08Z</time>
      </trkpt>
      <trkpt lat="45.31183" lon="5.74971">
        <ele>1545.2</ele>
        <time>2020-02-08T11:30:09Z</time>
      </trkpt>
      <trkpt lat="45.31183" lon="5.74971">
        <ele>1545.4</ele>
        <time>2020-02-08T11:30:10Z</time>
      </trkpt>
      <trkpt lat="45.31182" lon="5.74972">
        <ele>1545.6</ele>
        <time>2020-02-08T11:30:11Z</time>
      </trkpt>
      <trkpt lat="45.31181" lon="5.74972">
        <ele>1546</ele>
        <time>2020-02-08T11:30:12Z</time>
      </trkpt>
      <trkpt lat="45.31181" lon="5.74973">
        <ele>1545.8</ele>
        <time>2020-02-08T11:30:13Z</time>
      </trkpt>
      <trkpt lat="45.3118" lon="5.74974">
        <ele>1546.4</ele>
        <time>2020-02-08T11:30:14Z</time>
      </trkpt>
      <trkpt lat="45.31179" lon="5.74974">
        <ele>1546.6</ele>
        <time>2020-02-08T11:30:15Z</time>
      </trkpt>
      <trkpt lat="45.31179" lon="5.74975">
        <ele>1546.6</ele>
        <time>2020-02-08T11:30:16Z</time>
      </trkpt>
      <trkpt lat="45.31178" lon="5.74975">
        <ele>1547.2</ele>
        <time>2020-02-08T11:30:17Z</time>
      </trkpt>
      <trkpt lat="45.31177" lon="5.74976">
        <ele>1547.4</ele>
        <time>2020-02-08T11:30:18Z</time>
      </trkpt>
      <trkpt lat="45.31176" lon="5.74976">
        <ele>1547</ele>
        <time>2020-02-08T11:30:19Z</time>
      </trkpt>
      <trkpt lat="45.31176" lon="5.74977">
        <ele>1547.4</ele>
        <time>2020-02-08T11:30:20Z</time>
      </trkpt>
      <trkpt lat="45.31175" lon="5.74978">
        <ele>1547.6</ele>
        <time>2020-02-08T11:30:21Z</time>
      </trkpt>
      <trkpt lat="45.31174" lon="5.74978">
        <ele>1547.8</ele>
        <time>2020-02-08T11:30:22Z</time>
      </trkpt>
      <trkpt lat="45.31172" lon="5.74979">
        <ele>1548.2</ele>
        <time>2020-02-08T11:30:23Z</time>
      </trkpt>
      <trkpt lat="45.31171" lon="5.7498">
        <ele>1548.2</ele>
        <time>2020-02-08T11:30:24Z</time>
      </trkpt>
      <trkpt lat="45.3117" lon="5.7498">
        <ele>1548.2</ele>
        <time>2020-02-08T11:30:25Z</time>
      </trkpt>
      <trkpt lat="45.31168" lon="5.74981">
        <ele>1548.6</ele>
        <time>2020-02-08T11:30:26Z</time>
      </trkpt>
      <trkpt lat="45.31167" lon="5.74982">
        <ele>1548.6</ele>
        <time>2020-02-08T11:30:27Z</time>
      </trkpt>
      <trkpt lat="45.31166" lon="5.74982">
        <ele>1548.8</ele>
        <time>2020-02-08T11:30:28Z</time>
      </trkpt>
      <trkpt lat="45.31165" lon="5.74983">
        <ele>1549.2</ele>
        <time>2020-02-08T11:30:29Z</time>
      </trkpt>
      <trkpt lat="45.31164" lon="5.74983">
        <ele>1549.2</ele>
        <time>2020-02-08T11:30:30Z</time>
      </trkpt>
      <trkpt lat="45.31163" lon="5.74984">
        <ele>1549.8</ele>
        <time>2020-02-08T11:30:31Z</time>
      </trkpt>
      <trkpt lat="45.31162" lon="5.74984">
        <ele>1550.2</ele>
        <time>2020-02-08T11:30:32Z</time>
      </trkpt>
      <trkpt lat="45.31161" lon="5.74985">
        <ele>1550.2</ele>
        <time>2020-02-08T11:30:33Z</time>
      </trkpt>
      <trkpt lat="45.31161" lon="5.74985">
        <ele>1551.2</ele>
        <time>2020-02-08T11:30:34Z</time>
      </trkpt>
      <trkpt lat="45.3116" lon="5.74986">
        <ele>1551.2</ele>
        <time>2020-02-08T11:30:35Z</time>
      </trkpt>
      <trkpt lat="45.31159" lon="5.74986">
        <ele>1551</ele>
        <time>2020-02-08T11:30:36Z</time>
      </trkpt>
      <trkpt lat="45.31158" lon="5.74987">
        <ele>1551.8</ele>
        <time>2020-02-08T11:30:37Z</time>
      </trkpt>
      <trkpt lat="45.31157" lon="5.74987">
        <ele>1551.8</ele>
        <time>2020-02-08T11:30:38Z</time>
      </trkpt>
      <trkpt lat="45.31156" lon="5.74987">
        <ele>1551.8</ele>
        <time>2020-02-08T11:30:39Z</time>
      </trkpt>
      <trkpt lat="45.31156" lon="5.74988">
        <ele>1552.4</ele>
        <time>2020-02-08T11:30:40Z</time>
      </trkpt>
      <trkpt lat="45.31155" lon="5.74988">
        <ele>1552.8</ele>
        <time>2020-02-08T11:30:41Z</time>
      </trkpt>
      <trkpt lat="45.31154" lon="5.74988">
        <ele>1552.8</ele>
        <time>2020-02-08T11:30:42Z</time>
      </trkpt>
      <trkpt lat="45.31152" lon="5.74988">
        <ele>1553.4</ele>
        <time>2020-02-08T11:30:43Z</time>
      </trkpt>
      <trkpt lat="45.31151" lon="5.74988">
        <ele>1553.8</ele>
        <time>2020-02-08T11:30:44Z</time>
      </trkpt>
      <trkpt lat="45.3115" lon="5.74988">
        <ele>1554.2</ele>
        <time>2020-02-08T11:30:45Z</time>
      </trkpt>
      <trkpt lat="45.31149" lon="5.74988">
        <ele>1554.4</ele>
        <time>2020-02-08T11:30:46Z</time>
      </trkpt>
      <trkpt lat="45.31148" lon="5.74988">
        <ele>1554.4</ele>
        <time>2020-02-08T11:30:47Z</time>
      </trkpt>
      <trkpt lat="45.31146" lon="5.74988">
        <ele>1554.6</ele>
        <time>2020-02-08T11:30:48Z</time>
      </trkpt>
      <trkpt lat="45.31145" lon="5.74988">
        <ele>1554.6</ele>
        <time>2020-02-08T11:30:49Z</time>
      </trkpt>
      <trkpt lat="45.31144" lon="5.74989">
        <ele>1555.2</ele>
        <time>2020-02-08T11:30:50Z</time>
      </trkpt>
      <trkpt lat="45.31144" lon="5.74989">
        <ele>1555.4</ele>
        <time>2020-02-08T11:30:51Z</time>
      </trkpt>
      <trkpt lat="45.31143" lon="5.74989">
        <ele>1555.6</ele>
        <time>2020-02-08T11:30:52Z</time>
      </trkpt>
      <trkpt lat="45.31142" lon="5.7499">
        <ele>1556.2</ele>
        <time>2020-02-08T11:30:53Z</time>
      </trkpt>
      <trkpt lat="45.31141" lon="5.7499">
        <ele>1556.4</ele>
        <time>2020-02-08T11:30:54Z</time>
      </trkpt>
      <trkpt lat="45.3114" lon="5.7499">
        <ele>1556.4</ele>
        <time>2020-02-08T11:30:55Z</time>
      </trkpt>
      <trkpt lat="45.31139" lon="5.74991">
        <ele>1557</ele>
        <time>2020-02-08T11:30:56Z</time>
      </trkpt>
      <trkpt lat="45.31139" lon="5.74991">
        <ele>1557.4</ele>
        <time>2020-02-08T11:30:57Z</time>
      </trkpt>
      <trkpt lat="45.31138" lon="5.74991">
        <ele>1557.6</ele>
        <time>2020-02-08T11:30:58Z</time>
      </trkpt>
      <trkpt lat="45.31137" lon="5.74991">
        <ele>1558</ele>
        <time>2020-02-08T11:30:59Z</time>
      </trkpt>
      <trkpt lat="45.31136" lon="5.74992">
        <ele>1558.2</ele>
        <time>2020-02-08T11:31:00Z</time>
      </trkpt>
      <trkpt lat="45.31135" lon="5.74993">
        <ele>1558.4</ele>
        <time>2020-02-08T11:31:01Z</time>
      </trkpt>
      <trkpt lat="45.31135" lon="5.74993">
        <ele>1559</ele>
        <time>2020-02-08T11:31:02Z</time>
      </trkpt>
      <trkpt lat="45.31134" lon="5.74994">
        <ele>1559.4</ele>
        <time>2020-02-08T11:31:03Z</time>
      </trkpt>
      <trkpt lat="45.31134" lon="5.74995">
        <ele>1559.6</ele>
        <time>2020-02-08T11:31:04Z</time>
      </trkpt>
      <trkpt lat="45.31133" lon="5.74996">
        <ele>1559.8</ele>
        <time>2020-02-08T11:31:05Z</time>
      </trkpt>
      <trkpt lat="45.31133" lon="5.74997">
        <ele>1559.8</ele>
        <time>2020-02-08T11:31:06Z</time>
      </trkpt>
      <trkpt lat="45.31132" lon="5.74998">
        <ele>1560</ele>
        <time>2020-02-08T11:31:07Z</time>
      </trkpt>
      <trkpt lat="45.31131" lon="5.74999">
        <ele>1560.4</ele>
        <time>2020-02-08T11:31:08Z</time>
      </trkpt>
      <trkpt lat="45.31131" lon="5.75">
        <ele>1560.2</ele>
        <time>2020-02-08T11:31:09Z</time>
      </trkpt>
      <trkpt lat="45.3113" lon="5.75">
        <ele>1560.6</ele>
        <time>2020-02-08T11:31:10Z</time>
      </trkpt>
      <trkpt lat="45.3113" lon="5.75001">
        <ele>1561.2</ele>
        <time>2020-02-08T11:31:11Z</time>
      </trkpt>
      <trkpt lat="45.31129" lon="5.75002">
        <ele>1561</ele>
        <time>2020-02-08T11:31:12Z</time>
      </trkpt>
      <trkpt lat="45.31127" lon="5.75003">
        <ele>1561.4</ele>
        <time>2020-02-08T11:31:13Z</time>
      </trkpt>
      <trkpt lat="45.31126" lon="5.75004">
        <ele>1561.8</ele>
        <time>2020-02-08T11:31:14Z</time>
      </trkpt>
      <trkpt lat="45.31124" lon="5.75006">
        <ele>1561.8</ele>
        <time>2020-02-08T11:31:15Z</time>
      </trkpt>
      <trkpt lat="45.31123" lon="5.75007">
        <ele>1562.2</ele>
        <time>2020-02-08T11:31:16Z</time>
      </trkpt>
      <trkpt lat="45.31121" lon="5.75008">
        <ele>1562.6</ele>
        <time>2020-02-08T11:31:17Z</time>
      </trkpt>
      <trkpt lat="45.31119" lon="5.75009">
        <ele>1562.6</ele>
        <time>2020-02-08T11:31:18Z</time>
      </trkpt>
      <trkpt lat="45.31117" lon="5.7501">
        <ele>1562.6</ele>
        <time>2020-02-08T11:31:19Z</time>
      </trkpt>
      <trkpt lat="45.31115" lon="5.75011">
        <ele>1563</ele>
        <time>2020-02-08T11:31:20Z</time>
      </trkpt>
      <trkpt lat="45.31113" lon="5.75012">
        <ele>1563</ele>
        <time>2020-02-08T11:31:21Z</time>
      </trkpt>
      <trkpt lat="45.31111" lon="5.75013">
        <ele>1563</ele>
        <time>2020-02-08T11:31:22Z</time>
      </trkpt>
      <trkpt lat="45.3111" lon="5.75013">
        <ele>1563.2</ele>
        <time>2020-02-08T11:31:23Z</time>
      </trkpt>
      <trkpt lat="45.3111" lon="5.75014">
        <ele>1563.4</ele>
        <time>2020-02-08T11:31:24Z</time>
      </trkpt>
      <trkpt lat="45.31109" lon="5.75014">
        <ele>1563.8</ele>
        <time>2020-02-08T11:31:25Z</time>
      </trkpt>
      <trkpt lat="45.31109" lon="5.75014">
        <ele>1563.8</ele>
        <time>2020-02-08T11:31:26Z</time>
      </trkpt>
      <trkpt lat="45.31108" lon="5.75015">
        <ele>1564.2</ele>
        <time>2020-02-08T11:31:27Z</time>
      </trkpt>
      <trkpt lat="45.31108" lon="5.75015">
        <ele>1564.2</ele>
        <time>2020-02-08T11:31:28Z</time>
      </trkpt>
      <trkpt lat="45.31107" lon="5.75016">
        <ele>1564.8</ele>
        <time>2020-02-08T11:31:29Z</time>
      </trkpt>
      <trkpt lat="45.31107" lon="5.75016">
        <ele>1565.4</ele>
        <time>2020-02-08T11:31:30Z</time>
      </trkpt>
      <trkpt lat="45.31106" lon="5.75016">
        <ele>1565.2</ele>
        <time>2020-02-08T11:31:31Z</time>
      </trkpt>
      <trkpt lat="45.31106" lon="5.75017">
        <ele>1565</ele>
        <time>2020-02-08T11:31:32Z</time>
      </trkpt>
      <trkpt lat="45.31105" lon="5.75017">
        <ele>1564.8</ele>
        <time>2020-02-08T11:31:33Z</time>
      </trkpt>
      <trkpt lat="45.31105" lon="5.75017">
        <ele>1564.8</ele>
        <time>2020-02-08T11:31:34Z</time>
      </trkpt>
      <trkpt lat="45.31104" lon="5.75018">
        <ele>1564.8</ele>
        <time>2020-02-08T11:31:35Z</time>
      </trkpt>
      <trkpt lat="45.31104" lon="5.75018">
        <ele>1565</ele>
        <time>2020-02-08T11:31:36Z</time>
      </trkpt>
      <trkpt lat="45.31104" lon="5.75018">
        <ele>1565</ele>
        <time>2020-02-08T11:31:37Z</time>
      </trkpt>
      <trkpt lat="45.31103" lon="5.75019">
        <ele>1565.2</ele>
        <time>2020-02-08T11:31:38Z</time>
      </trkpt>
      <trkpt lat="45.31103" lon="5.75019">
        <ele>1565.6</ele>
        <time>2020-02-08T11:31:39Z</time>
      </trkpt>
      <trkpt lat="45.31102" lon="5.75019">
        <ele>1566</ele>
        <time>2020-02-08T11:31:40Z</time>
      </trkpt>
      <trkpt lat="45.31102" lon="5.75019">
        <ele>1565.6</ele>
        <time>2020-02-08T11:31:41Z</time>
      </trkpt>
      <trkpt lat="45.31101" lon="5.75019">
        <ele>1566.2</ele>
        <time>2020-02-08T11:31:42Z</time>
      </trkpt>
      <trkpt lat="45.31101" lon="5.7502">
        <ele>1566.4</ele>
        <time>2020-02-08T11:31:43Z</time>
      </trkpt>
      <trkpt lat="45.311" lon="5.7502">
        <ele>1566.2</ele>
        <time>2020-02-08T11:31:44Z</time>
      </trkpt>
      <trkpt lat="45.311" lon="5.7502">
        <ele>1566.8</ele>
        <time>2020-02-08T11:31:45Z</time>
      </trkpt>
      <trkpt lat="45.31099" lon="5.7502">
        <ele>1567.2</ele>
        <time>2020-02-08T11:31:46Z</time>
      </trkpt>
      <trkpt lat="45.31099" lon="5.7502">
        <ele>1567.4</ele>
        <time>2020-02-08T11:31:47Z</time>
      </trkpt>
      <trkpt lat="45.31098" lon="5.7502">
        <ele>1567.6</ele>
        <time>2020-02-08T11:31:48Z</time>
      </trkpt>
      <trkpt lat="45.31098" lon="5.7502">
        <ele>1567.8</ele>
        <time>2020-02-08T11:31:49Z</time>
      </trkpt>
      <trkpt lat="45.31097" lon="5.75021">
        <ele>1568</ele>
        <time>2020-02-08T11:31:50Z</time>
      </trkpt>
      <trkpt lat="45.31097" lon="5.75021">
        <ele>1568.2</ele>
        <time>2020-02-08T11:31:51Z</time>
      </trkpt>
      <trkpt lat="45.31097" lon="5.75021">
        <ele>1568</ele>
        <time>2020-02-08T11:31:52Z</time>
      </trkpt>
      <trkpt lat="45.31096" lon="5.75021">
        <ele>1568.2</ele>
        <time>2020-02-08T11:31:53Z</time>
      </trkpt>
      <trkpt lat="45.31096" lon="5.75021">
        <ele>1568.2</ele>
        <time>2020-02-08T11:31:54Z</time>
      </trkpt>
      <trkpt lat="45.31095" lon="5.75021">
        <ele>1568.2</ele>
        <time>2020-02-08T11:31:55Z</time>
      </trkpt>
      <trkpt lat="45.31095" lon="5.75021">
        <ele>1568.6</ele>
        <time>2020-02-08T11:31:56Z</time>
      </trkpt>
      <trkpt lat="45.31094" lon="5.75022">
        <ele>1568.8</ele>
        <time>2020-02-08T11:31:57Z</time>
      </trkpt>
      <trkpt lat="45.31094" lon="5.75022">
        <ele>1569.2</ele>
        <time>2020-02-08T11:31:58Z</time>
      </trkpt>
      <trkpt lat="45.31093" lon="5.75022">
        <ele>1569.2</ele>
        <time>2020-02-08T11:31:59Z</time>
      </trkpt>
      <trkpt lat="45.31093" lon="5.75023">
        <ele>1569.8</ele>
        <time>2020-02-08T11:32:00Z</time>
      </trkpt>
      <trkpt lat="45.31092" lon="5.75024">
        <ele>1570.4</ele>
        <time>2020-02-08T11:32:01Z</time>
      </trkpt>
      <trkpt lat="45.31091" lon="5.75025">
        <ele>1570.8</ele>
        <time>2020-02-08T11:32:02Z</time>
      </trkpt>
      <trkpt lat="45.3109" lon="5.75026">
        <ele>1571</ele>
        <time>2020-02-08T11:32:03Z</time>
      </trkpt>
      <trkpt lat="45.31089" lon="5.75027">
        <ele>1571.4</ele>
        <time>2020-02-08T11:32:04Z</time>
      </trkpt>
      <trkpt lat="45.31089" lon="5.75028">
        <ele>1571.8</ele>
        <time>2020-02-08T11:32:05Z</time>
      </trkpt>
      <trkpt lat="45.31088" lon="5.75029">
        <ele>1571.8</ele>
        <time>2020-02-08T11:32:06Z</time>
      </trkpt>
      <trkpt lat="45.31087" lon="5.7503">
        <ele>1571.8</ele>
        <time>2020-02-08T11:32:07Z</time>
      </trkpt>
      <trkpt lat="45.31086" lon="5.75031">
        <ele>1571.8</ele>
        <time>2020-02-08T11:32:08Z</time>
      </trkpt>
      <trkpt lat="45.31086" lon="5.75031">
        <ele>1572.4</ele>
        <time>2020-02-08T11:32:09Z</time>
      </trkpt>
      <trkpt lat="45.31085" lon="5.75032">
        <ele>1572.6</ele>
        <time>2020-02-08T11:32:10Z</time>
      </trkpt>
      <trkpt lat="45.31085" lon="5.75032">
        <ele>1572.8</ele>
        <time>2020-02-08T11:32:11Z</time>
      </trkpt>
      <trkpt lat="45.31085" lon="5.75032">
        <ele>1573.6</ele>
        <time>2020-02-08T11:32:12Z</time>
      </trkpt>
      <trkpt lat="45.31084" lon="5.75033">
        <ele>1574</ele>
        <time>2020-02-08T11:32:13Z</time>
      </trkpt>
      <trkpt lat="45.31084" lon="5.75033">
        <ele>1574</ele>
        <time>2020-02-08T11:32:14Z</time>
      </trkpt>
      <trkpt lat="45.31083" lon="5.75034">
        <ele>1574.4</ele>
        <time>2020-02-08T11:32:15Z</time>
      </trkpt>
      <trkpt lat="45.31083" lon="5.75034">
        <ele>1574.8</ele>
        <time>2020-02-08T11:32:16Z</time>
      </trkpt>
      <trkpt lat="45.31083" lon="5.75034">
        <ele>1574.8</ele>
        <time>2020-02-08T11:32:17Z</time>
      </trkpt>
      <trkpt lat="45.31082" lon="5.75035">
        <ele>1575</ele>
        <time>2020-02-08T11:32:18Z</time>
      </trkpt>
      <trkpt lat="45.31082" lon="5.75035">
        <ele>1575.4</ele>
        <time>2020-02-08T11:32:19Z</time>
      </trkpt>
      <trkpt lat="45.31081" lon="5.75035">
        <ele>1575.2</ele>
        <time>2020-02-08T11:32:20Z</time>
      </trkpt>
      <trkpt lat="45.31081" lon="5.75036">
        <ele>1576</ele>
        <time>2020-02-08T11:32:21Z</time>
      </trkpt>
      <trkpt lat="45.3108" lon="5.75036">
        <ele>1576.2</ele>
        <time>2020-02-08T11:32:22Z</time>
      </trkpt>
      <trkpt lat="45.3108" lon="5.75037">
        <ele>1576.4</ele>
        <time>2020-02-08T11:32:23Z</time>
      </trkpt>
      <trkpt lat="45.3108" lon="5.75037">
        <ele>1576.6</ele>
        <time>2020-02-08T11:32:24Z</time>
      </trkpt>
      <trkpt lat="45.31079" lon="5.75037">
        <ele>1577.2</ele>
        <time>2020-02-08T11:32:25Z</time>
      </trkpt>
      <trkpt lat="45.31079" lon="5.75038">
        <ele>1577.4</ele>
        <time>2020-02-08T11:32:26Z</time>
      </trkpt>
      <trkpt lat="45.31078" lon="5.75038">
        <ele>1577.6</ele>
        <time>2020-02-08T11:32:27Z</time>
      </trkpt>
      <trkpt lat="45.31079" lon="5.75037">
        <ele>1578</ele>
        <time>2020-02-08T11:32:28Z</time>
      </trkpt>
      <trkpt lat="45.31079" lon="5.75037">
        <ele>1577.8</ele>
        <time>2020-02-08T11:32:29Z</time>
      </trkpt>
      <trkpt lat="45.3108" lon="5.75036">
        <ele>1577.8</ele>
        <time>2020-02-08T11:32:30Z</time>
      </trkpt>
      <trkpt lat="45.3108" lon="5.75035">
        <ele>1578</ele>
        <time>2020-02-08T11:32:31Z</time>
      </trkpt>
      <trkpt lat="45.31081" lon="5.75034">
        <ele>1578.2</ele>
        <time>2020-02-08T11:32:32Z</time>
      </trkpt>
      <trkpt lat="45.31081" lon="5.75034">
        <ele>1578.2</ele>
        <time>2020-02-08T11:32:33Z</time>
      </trkpt>
      <trkpt lat="45.31082" lon="5.75033">
        <ele>1578.6</ele>
        <time>2020-02-08T11:32:34Z</time>
      </trkpt>
      <trkpt lat="45.31082" lon="5.75032">
        <ele>1578.4</ele>
        <time>2020-02-08T11:32:35Z</time>
      </trkpt>
      <trkpt lat="45.31083" lon="5.75031">
        <ele>1578.4</ele>
        <time>2020-02-08T11:32:36Z</time>
      </trkpt>
      <trkpt lat="45.31083" lon="5.75031">
        <ele>1578.8</ele>
        <time>2020-02-08T11:32:37Z</time>
      </trkpt>
      <trkpt lat="45.31084" lon="5.7503">
        <ele>1579.2</ele>
        <time>2020-02-08T11:32:38Z</time>
      </trkpt>
      <trkpt lat="45.31084" lon="5.75029">
        <ele>1579.4</ele>
        <time>2020-02-08T11:32:39Z</time>
      </trkpt>
      <trkpt lat="45.31085" lon="5.75028">
        <ele>1579.6</ele>
        <time>2020-02-08T11:32:40Z</time>
      </trkpt>
      <trkpt lat="45.31085" lon="5.75028">
        <ele>1579.8</ele>
        <time>2020-02-08T11:32:41Z</time>
      </trkpt>
      <trkpt lat="45.31086" lon="5.75028">
        <ele>1580</ele>
        <time>2020-02-08T11:32:42Z</time>
      </trkpt>
      <trkpt lat="45.31087" lon="5.75028">
        <ele>1580</ele>
        <time>2020-02-08T11:32:43Z</time>
      </trkpt>
      <trkpt lat="45.31088" lon="5.75028">
        <ele>1580</ele>
        <time>2020-02-08T11:32:44Z</time>
      </trkpt>
      <trkpt lat="45.31089" lon="5.75028">
        <ele>1580.4</ele>
        <time>2020-02-08T11:32:45Z</time>
      </trkpt>
      <trkpt lat="45.3109" lon="5.75028">
        <ele>1580.4</ele>
        <time>2020-02-08T11:32:46Z</time>
      </trkpt>
      <trkpt lat="45.31091" lon="5.75028">
        <ele>1580.8</ele>
        <time>2020-02-08T11:32:47Z</time>
      </trkpt>
      <trkpt lat="45.31092" lon="5.75027">
        <ele>1581.2</ele>
        <time>2020-02-08T11:32:48Z</time>
      </trkpt>
      <trkpt lat="45.31093" lon="5.75027">
        <ele>1581</ele>
        <time>2020-02-08T11:32:49Z</time>
      </trkpt>
      <trkpt lat="45.31094" lon="5.75027">
        <ele>1581.4</ele>
        <time>2020-02-08T11:32:50Z</time>
      </trkpt>
      <trkpt lat="45.31095" lon="5.75027">
        <ele>1581.8</ele>
        <time>2020-02-08T11:32:51Z</time>
      </trkpt>
      <trkpt lat="45.31095" lon="5.75028">
        <ele>1581.6</ele>
        <time>2020-02-08T11:32:52Z</time>
      </trkpt>
      <trkpt lat="45.31096" lon="5.75028">
        <ele>1582</ele>
        <time>2020-02-08T11:32:53Z</time>
      </trkpt>
      <trkpt lat="45.31096" lon="5.75028">
        <ele>1582.6</ele>
        <time>2020-02-08T11:32:54Z</time>
      </trkpt>
      <trkpt lat="45.31097" lon="5.75028">
        <ele>1582.6</ele>
        <time>2020-02-08T11:32:55Z</time>
      </trkpt>
      <trkpt lat="45.31097" lon="5.75029">
        <ele>1583</ele>
        <time>2020-02-08T11:32:56Z</time>
      </trkpt>
      <trkpt lat="45.31097" lon="5.75029">
        <ele>1583.2</ele>
        <time>2020-02-08T11:32:57Z</time>
      </trkpt>
      <trkpt lat="45.31098" lon="5.75029">
        <ele>1583.4</ele>
        <time>2020-02-08T11:32:58Z</time>
      </trkpt>
      <trkpt lat="45.31098" lon="5.75029">
        <ele>1583.8</ele>
        <time>2020-02-08T11:32:59Z</time>
      </trkpt>
      <trkpt lat="45.31099" lon="5.7503">
        <ele>1583.8</ele>
        <time>2020-02-08T11:33:00Z</time>
      </trkpt>
      <trkpt lat="45.31099" lon="5.7503">
        <ele>1583.8</ele>
        <time>2020-02-08T11:33:01Z</time>
      </trkpt>
      <trkpt lat="45.311" lon="5.7503">
        <ele>1584.2</ele>
        <time>2020-02-08T11:33:02Z</time>
      </trkpt>
      <trkpt lat="45.311" lon="5.7503">
        <ele>1584.2</ele>
        <time>2020-02-08T11:33:03Z</time>
      </trkpt>
      <trkpt lat="45.31101" lon="5.75031">
        <ele>1584.4</ele>
        <time>2020-02-08T11:33:04Z</time>
      </trkpt>
      <trkpt lat="45.31101" lon="5.75031">
        <ele>1584.8</ele>
        <time>2020-02-08T11:33:05Z</time>
      </trkpt>
      <trkpt lat="45.31102" lon="5.75031">
        <ele>1584.8</ele>
        <time>2020-02-08T11:33:06Z</time>
      </trkpt>
      <trkpt lat="45.31102" lon="5.75031">
        <ele>1585</ele>
        <time>2020-02-08T11:33:07Z</time>
      </trkpt>
      <trkpt lat="45.31103" lon="5.75032">
        <ele>1585.4</ele>
        <time>2020-02-08T11:33:08Z</time>
      </trkpt>
      <trkpt lat="45.31103" lon="5.75032">
        <ele>1585.2</ele>
        <time>2020-02-08T11:33:09Z</time>
      </trkpt>
      <trkpt lat="45.31104" lon="5.75032">
        <ele>1585.2</ele>
        <time>2020-02-08T11:33:10Z</time>
      </trkpt>
      <trkpt lat="45.31105" lon="5.75032">
        <ele>1585.4</ele>
        <time>2020-02-08T11:33:11Z</time>
      </trkpt>
      <trkpt lat="45.31105" lon="5.75033">
        <ele>1585.4</ele>
        <time>2020-02-08T11:33:12Z</time>
      </trkpt>
      <trkpt lat="45.31106" lon="5.75033">
        <ele>1585.6</ele>
        <time>2020-02-08T11:33:13Z</time>
      </trkpt>
      <trkpt lat="45.31107" lon="5.75033">
        <ele>1585.8</ele>
        <time>2020-02-08T11:33:14Z</time>
      </trkpt>
      <trkpt lat="45.31108" lon="5.75034">
        <ele>1585.8</ele>
        <time>2020-02-08T11:33:15Z</time>
      </trkpt>
      <trkpt lat="45.31108" lon="5.75034">
        <ele>1586</ele>
        <time>2020-02-08T11:33:16Z</time>
      </trkpt>
      <trkpt lat="45.31109" lon="5.75034">
        <ele>1586.4</ele>
        <time>2020-02-08T11:33:17Z</time>
      </trkpt>
      <trkpt lat="45.3111" lon="5.75035">
        <ele>1586.8</ele>
        <time>2020-02-08T11:33:18Z</time>
      </trkpt>
      <trkpt lat="45.31111" lon="5.75035">
        <ele>1587</ele>
        <time>2020-02-08T11:33:19Z</time>
      </trkpt>
      <trkpt lat="45.31111" lon="5.75035">
        <ele>1587.2</ele>
        <time>2020-02-08T11:33:20Z</time>
      </trkpt>
      <trkpt lat="45.31112" lon="5.75036">
        <ele>1587.6</ele>
        <time>2020-02-08T11:33:21Z</time>
      </trkpt>
      <trkpt lat="45.31113" lon="5.75036">
        <ele>1587.4</ele>
        <time>2020-02-08T11:33:22Z</time>
      </trkpt>
      <trkpt lat="45.31113" lon="5.75036">
        <ele>1587.6</ele>
        <time>2020-02-08T11:33:23Z</time>
      </trkpt>
      <trkpt lat="45.31114" lon="5.75037">
        <ele>1587.6</ele>
        <time>2020-02-08T11:33:24Z</time>
      </trkpt>
      <trkpt lat="45.31114" lon="5.75037">
        <ele>1588</ele>
        <time>2020-02-08T11:33:25Z</time>
      </trkpt>
      <trkpt lat="45.31114" lon="5.75038">
        <ele>1588.4</ele>
        <time>2020-02-08T11:33:26Z</time>
      </trkpt>
      <trkpt lat="45.31115" lon="5.75038">
        <ele>1588</ele>
        <time>2020-02-08T11:33:27Z</time>
      </trkpt>
      <trkpt lat="45.31115" lon="5.75039">
        <ele>1588.6</ele>
        <time>2020-02-08T11:33:28Z</time>
      </trkpt>
      <trkpt lat="45.31115" lon="5.75039">
        <ele>1588.6</ele>
        <time>2020-02-08T11:33:29Z</time>
      </trkpt>
      <trkpt lat="45.31116" lon="5.7504">
        <ele>1589.2</ele>
        <time>2020-02-08T11:33:30Z</time>
      </trkpt>
      <trkpt lat="45.31116" lon="5.7504">
        <ele>1589.4</ele>
        <time>2020-02-08T11:33:31Z</time>
      </trkpt>
      <trkpt lat="45.31116" lon="5.75041">
        <ele>1589.6</ele>
        <time>2020-02-08T11:33:32Z</time>
      </trkpt>
      <trkpt lat="45.31117" lon="5.75041">
        <ele>1589.4</ele>
        <time>2020-02-08T11:33:33Z</time>
      </trkpt>
      <trkpt lat="45.31117" lon="5.75042">
        <ele>1589.2</ele>
        <time>2020-02-08T11:33:34Z</time>
      </trkpt>
      <trkpt lat="45.31117" lon="5.75042">
        <ele>1589.4</ele>
        <time>2020-02-08T11:33:35Z</time>
      </trkpt>
      <trkpt lat="45.31118" lon="5.75043">
        <ele>1589.8</ele>
        <time>2020-02-08T11:33:36Z</time>
      </trkpt>
      <trkpt lat="45.31118" lon="5.75043">
        <ele>1590.2</ele>
        <time>2020-02-08T11:33:37Z</time>
      </trkpt>
      <trkpt lat="45.31118" lon="5.75043">
        <ele>1590.8</ele>
        <time>2020-02-08T11:33:38Z</time>
      </trkpt>
      <trkpt lat="45.31118" lon="5.75044">
        <ele>1591</ele>
        <time>2020-02-08T11:33:39Z</time>
      </trkpt>
      <trkpt lat="45.31119" lon="5.75044">
        <ele>1591</ele>
        <time>2020-02-08T11:33:40Z</time>
      </trkpt>
      <trkpt lat="45.31119" lon="5.75045">
        <ele>1591</ele>
        <time>2020-02-08T11:33:41Z</time>
      </trkpt>
      <trkpt lat="45.31119" lon="5.75045">
        <ele>1591.4</ele>
        <time>2020-02-08T11:33:42Z</time>
      </trkpt>
      <trkpt lat="45.3112" lon="5.75046">
        <ele>1591.4</ele>
        <time>2020-02-08T11:33:43Z</time>
      </trkpt>
      <trkpt lat="45.3112" lon="5.75047">
        <ele>1591.4</ele>
        <time>2020-02-08T11:33:44Z</time>
      </trkpt>
      <trkpt lat="45.3112" lon="5.75049">
        <ele>1591.8</ele>
        <time>2020-02-08T11:33:45Z</time>
      </trkpt>
      <trkpt lat="45.3112" lon="5.7505">
        <ele>1592</ele>
        <time>2020-02-08T11:33:46Z</time>
      </trkpt>
      <trkpt lat="45.31121" lon="5.75051">
        <ele>1592.4</ele>
        <time>2020-02-08T11:33:47Z</time>
      </trkpt>
      <trkpt lat="45.31121" lon="5.75052">
        <ele>1592.8</ele>
        <time>2020-02-08T11:33:48Z</time>
      </trkpt>
      <trkpt lat="45.31121" lon="5.75053">
        <ele>1593</ele>
        <time>2020-02-08T11:33:49Z</time>
      </trkpt>
      <trkpt lat="45.31121" lon="5.75054">
        <ele>1593.4</ele>
        <time>2020-02-08T11:33:50Z</time>
      </trkpt>
      <trkpt lat="45.31121" lon="5.75054">
        <ele>1593.2</ele>
        <time>2020-02-08T11:33:51Z</time>
      </trkpt>
      <trkpt lat="45.31123" lon="5.75059">
        <ele>1593.8</ele>
        <time>2020-02-08T11:33:52Z</time>
      </trkpt>
      <trkpt lat="45.31123" lon="5.75059">
        <ele>1594.2</ele>
        <time>2020-02-08T11:33:53Z</time>
      </trkpt>
      <trkpt lat="45.31123" lon="5.75059">
        <ele>1594</ele>
        <time>2020-02-08T11:33:54Z</time>
      </trkpt>
      <trkpt lat="45.31124" lon="5.75062">
        <ele>1594.6</ele>
        <time>2020-02-08T11:33:55Z</time>
      </trkpt>
      <trkpt lat="45.31124" lon="5.75062">
        <ele>1594.8</ele>
        <time>2020-02-08T11:33:56Z</time>
      </trkpt>
      <trkpt lat="45.31124" lon="5.75062">
        <ele>1595.2</ele>
        <time>2020-02-08T11:33:57Z</time>
      </trkpt>
      <trkpt lat="45.31124" lon="5.75062">
        <ele>1595.4</ele>
        <time>2020-02-08T11:33:58Z</time>
      </trkpt>
      <trkpt lat="45.31124" lon="5.75062">
        <ele>1595.6</ele>
        <time>2020-02-08T11:33:59Z</time>
      </trkpt>
      <trkpt lat="45.31124" lon="5.75062">
        <ele>1595.8</ele>
        <time>2020-02-08T11:34:00Z</time>
      </trkpt>
      <trkpt lat="45.31124" lon="5.75062">
        <ele>1596</ele>
        <time>2020-02-08T11:34:01Z</time>
      </trkpt>
      <trkpt lat="45.31124" lon="5.75062">
        <ele>1595.8</ele>
        <time>2020-02-08T11:34:02Z</time>
      </trkpt>
      <trkpt lat="45.31124" lon="5.75062">
        <ele>1596.2</ele>
        <time>2020-02-08T11:34:03Z</time>
      </trkpt>
      <trkpt lat="45.31124" lon="5.75062">
        <ele>1595.8</ele>
        <time>2020-02-08T11:34:04Z</time>
      </trkpt>
      <trkpt lat="45.31126" lon="5.75064">
        <ele>1596.6</ele>
        <time>2020-02-08T11:34:05Z</time>
      </trkpt>
      <trkpt lat="45.31126" lon="5.75064">
        <ele>1596.8</ele>
        <time>2020-02-08T11:34:06Z</time>
      </trkpt>
      <trkpt lat="45.31127" lon="5.75068">
        <ele>1597.6</ele>
        <time>2020-02-08T11:34:07Z</time>
      </trkpt>
      <trkpt lat="45.31127" lon="5.75068">
        <ele>1598</ele>
        <time>2020-02-08T11:34:08Z</time>
      </trkpt>
      <trkpt lat="45.31127" lon="5.75071">
        <ele>1598</ele>
        <time>2020-02-08T11:34:09Z</time>
      </trkpt>
      <trkpt lat="45.31127" lon="5.75071">
        <ele>1598.6</ele>
        <time>2020-02-08T11:34:10Z</time>
      </trkpt>
      <trkpt lat="45.31128" lon="5.75073">
        <ele>1599</ele>
        <time>2020-02-08T11:34:11Z</time>
      </trkpt>
      <trkpt lat="45.31128" lon="5.75073">
        <ele>1598.8</ele>
        <time>2020-02-08T11:34:12Z</time>
      </trkpt>
      <trkpt lat="45.31128" lon="5.75073">
        <ele>1599.4</ele>
        <time>2020-02-08T11:34:13Z</time>
      </trkpt>
      <trkpt lat="45.31128" lon="5.75073">
        <ele>1599.6</ele>
        <time>2020-02-08T11:34:14Z</time>
      </trkpt>
      <trkpt lat="45.31128" lon="5.75073">
        <ele>1599.4</ele>
        <time>2020-02-08T11:34:15Z</time>
      </trkpt>
      <trkpt lat="45.31128" lon="5.75073">
        <ele>1599.6</ele>
        <time>2020-02-08T11:34:16Z</time>
      </trkpt>
      <trkpt lat="45.31128" lon="5.75073">
        <ele>1600.2</ele>
        <time>2020-02-08T11:34:17Z</time>
      </trkpt>
      <trkpt lat="45.31131" lon="5.75076">
        <ele>1600</ele>
        <time>2020-02-08T11:34:18Z</time>
      </trkpt>
      <trkpt lat="45.31131" lon="5.75076">
        <ele>1600.2</ele>
        <time>2020-02-08T11:34:19Z</time>
      </trkpt>
      <trkpt lat="45.31131" lon="5.75076">
        <ele>1600.4</ele>
        <time>2020-02-08T11:34:20Z</time>
      </trkpt>
      <trkpt lat="45.31131" lon="5.75076">
        <ele>1600.4</ele>
        <time>2020-02-08T11:34:21Z</time>
      </trkpt>
      <trkpt lat="45.31131" lon="5.75076">
        <ele>1600.8</ele>
        <time>2020-02-08T11:34:22Z</time>
      </trkpt>
      <trkpt lat="45.31133" lon="5.75075">
        <ele>1601</ele>
        <time>2020-02-08T11:34:23Z</time>
      </trkpt>
      <trkpt lat="45.31133" lon="5.75075">
        <ele>1601.2</ele>
        <time>2020-02-08T11:34:24Z</time>
      </trkpt>
      <trkpt lat="45.31133" lon="5.75075">
        <ele>1601.4</ele>
        <time>2020-02-08T11:34:25Z</time>
      </trkpt>
      <trkpt lat="45.31133" lon="5.75075">
        <ele>1601.6</ele>
        <time>2020-02-08T11:34:26Z</time>
      </trkpt>
      <trkpt lat="45.31136" lon="5.75074">
        <ele>1602</ele>
        <time>2020-02-08T11:34:27Z</time>
      </trkpt>
      <trkpt lat="45.31136" lon="5.75074">
        <ele>1602.2</ele>
        <time>2020-02-08T11:34:28Z</time>
      </trkpt>
      <trkpt lat="45.31138" lon="5.75073">
        <ele>1602.6</ele>
        <time>2020-02-08T11:34:29Z</time>
      </trkpt>
      <trkpt lat="45.31138" lon="5.75073">
        <ele>1602.8</ele>
        <time>2020-02-08T11:34:30Z</time>
      </trkpt>
      <trkpt lat="45.3114" lon="5.75073">
        <ele>1602.8</ele>
        <time>2020-02-08T11:34:31Z</time>
      </trkpt>
      <trkpt lat="45.3114" lon="5.75073">
        <ele>1603.2</ele>
        <time>2020-02-08T11:34:32Z</time>
      </trkpt>
      <trkpt lat="45.31143" lon="5.75073">
        <ele>1603</ele>
        <time>2020-02-08T11:34:33Z</time>
      </trkpt>
      <trkpt lat="45.31143" lon="5.75073">
        <ele>1603.2</ele>
        <time>2020-02-08T11:34:34Z</time>
      </trkpt>
      <trkpt lat="45.31145" lon="5.75073">
        <ele>1603.6</ele>
        <time>2020-02-08T11:34:35Z</time>
      </trkpt>
      <trkpt lat="45.31148" lon="5.75073">
        <ele>1603.8</ele>
        <time>2020-02-08T11:34:36Z</time>
      </trkpt>
      <trkpt lat="45.31148" lon="5.75073">
        <ele>1604</ele>
        <time>2020-02-08T11:34:37Z</time>
      </trkpt>
      <trkpt lat="45.3115" lon="5.75073">
        <ele>1604</ele>
        <time>2020-02-08T11:34:38Z</time>
      </trkpt>
      <trkpt lat="45.3115" lon="5.75073">
        <ele>1604.2</ele>
        <time>2020-02-08T11:34:39Z</time>
      </trkpt>
      <trkpt lat="45.31153" lon="5.75073">
        <ele>1604.8</ele>
        <time>2020-02-08T11:34:40Z</time>
      </trkpt>
      <trkpt lat="45.31153" lon="5.75073">
        <ele>1604.8</ele>
        <time>2020-02-08T11:34:41Z</time>
      </trkpt>
      <trkpt lat="45.31155" lon="5.75074">
        <ele>1605</ele>
        <time>2020-02-08T11:34:42Z</time>
      </trkpt>
      <trkpt lat="45.31155" lon="5.75074">
        <ele>1605.2</ele>
        <time>2020-02-08T11:34:43Z</time>
      </trkpt>
      <trkpt lat="45.31157" lon="5.75075">
        <ele>1605.6</ele>
        <time>2020-02-08T11:34:44Z</time>
      </trkpt>
      <trkpt lat="45.31157" lon="5.75075">
        <ele>1605.6</ele>
        <time>2020-02-08T11:34:45Z</time>
      </trkpt>
      <trkpt lat="45.3116" lon="5.75077">
        <ele>1606</ele>
        <time>2020-02-08T11:34:46Z</time>
      </trkpt>
      <trkpt lat="45.3116" lon="5.75077">
        <ele>1606.2</ele>
        <time>2020-02-08T11:34:47Z</time>
      </trkpt>
      <trkpt lat="45.31162" lon="5.75078">
        <ele>1606.8</ele>
        <time>2020-02-08T11:34:48Z</time>
      </trkpt>
      <trkpt lat="45.31162" lon="5.75078">
        <ele>1606.6</ele>
        <time>2020-02-08T11:34:49Z</time>
      </trkpt>
      <trkpt lat="45.31163" lon="5.7508">
        <ele>1606.8</ele>
        <time>2020-02-08T11:34:50Z</time>
      </trkpt>
      <trkpt lat="45.31163" lon="5.7508">
        <ele>1606.8</ele>
        <time>2020-02-08T11:34:51Z</time>
      </trkpt>
      <trkpt lat="45.31164" lon="5.75082">
        <ele>1607</ele>
        <time>2020-02-08T11:34:52Z</time>
      </trkpt>
      <trkpt lat="45.31164" lon="5.75082">
        <ele>1607</ele>
        <time>2020-02-08T11:34:53Z</time>
      </trkpt>
      <trkpt lat="45.31166" lon="5.75085">
        <ele>1607.4</ele>
        <time>2020-02-08T11:34:54Z</time>
      </trkpt>
      <trkpt lat="45.31166" lon="5.75085">
        <ele>1607.4</ele>
        <time>2020-02-08T11:34:55Z</time>
      </trkpt>
      <trkpt lat="45.31169" lon="5.75086">
        <ele>1607.8</ele>
        <time>2020-02-08T11:34:56Z</time>
      </trkpt>
      <trkpt lat="45.31169" lon="5.75086">
        <ele>1608</ele>
        <time>2020-02-08T11:34:57Z</time>
      </trkpt>
      <trkpt lat="45.31171" lon="5.75088">
        <ele>1608</ele>
        <time>2020-02-08T11:34:58Z</time>
      </trkpt>
      <trkpt lat="45.31171" lon="5.75088">
        <ele>1608</ele>
        <time>2020-02-08T11:34:59Z</time>
      </trkpt>
      <trkpt lat="45.31171" lon="5.75091">
        <ele>1608.4</ele>
        <time>2020-02-08T11:35:00Z</time>
      </trkpt>
      <trkpt lat="45.31171" lon="5.75091">
        <ele>1608.8</ele>
        <time>2020-02-08T11:35:01Z</time>
      </trkpt>
      <trkpt lat="45.31171" lon="5.75091">
        <ele>1609</ele>
        <time>2020-02-08T11:35:02Z</time>
      </trkpt>
      <trkpt lat="45.31171" lon="5.75094">
        <ele>1609</ele>
        <time>2020-02-08T11:35:03Z</time>
      </trkpt>
      <trkpt lat="45.31171" lon="5.75094">
        <ele>1609.2</ele>
        <time>2020-02-08T11:35:04Z</time>
      </trkpt>
      <trkpt lat="45.3117" lon="5.75097">
        <ele>1609.6</ele>
        <time>2020-02-08T11:35:05Z</time>
      </trkpt>
      <trkpt lat="45.3117" lon="5.75097">
        <ele>1609.8</ele>
        <time>2020-02-08T11:35:06Z</time>
      </trkpt>
      <trkpt lat="45.3117" lon="5.75097">
        <ele>1610</ele>
        <time>2020-02-08T11:35:07Z</time>
      </trkpt>
      <trkpt lat="45.3117" lon="5.751">
        <ele>1610.4</ele>
        <time>2020-02-08T11:35:08Z</time>
      </trkpt>
      <trkpt lat="45.3117" lon="5.751">
        <ele>1610.2</ele>
        <time>2020-02-08T11:35:09Z</time>
      </trkpt>
      <trkpt lat="45.31171" lon="5.75103">
        <ele>1610.6</ele>
        <time>2020-02-08T11:35:10Z</time>
      </trkpt>
      <trkpt lat="45.31171" lon="5.75103">
        <ele>1610.8</ele>
        <time>2020-02-08T11:35:11Z</time>
      </trkpt>
      <trkpt lat="45.31171" lon="5.75103">
        <ele>1611.2</ele>
        <time>2020-02-08T11:35:12Z</time>
      </trkpt>
      <trkpt lat="45.31171" lon="5.75106">
        <ele>1611.6</ele>
        <time>2020-02-08T11:35:13Z</time>
      </trkpt>
      <trkpt lat="45.31171" lon="5.75106">
        <ele>1611.8</ele>
        <time>2020-02-08T11:35:14Z</time>
      </trkpt>
      <trkpt lat="45.31171" lon="5.75106">
        <ele>1612.2</ele>
        <time>2020-02-08T11:35:15Z</time>
      </trkpt>
      <trkpt lat="45.3117" lon="5.75109">
        <ele>1612.8</ele>
        <time>2020-02-08T11:35:16Z</time>
      </trkpt>
      <trkpt lat="45.3117" lon="5.75109">
        <ele>1613</ele>
        <time>2020-02-08T11:35:17Z</time>
      </trkpt>
      <trkpt lat="45.3117" lon="5.75109">
        <ele>1613</ele>
        <time>2020-02-08T11:35:18Z</time>
      </trkpt>
      <trkpt lat="45.31171" lon="5.75112">
        <ele>1613.6</ele>
        <time>2020-02-08T11:35:19Z</time>
      </trkpt>
      <trkpt lat="45.31171" lon="5.75112">
        <ele>1613.8</ele>
        <time>2020-02-08T11:35:20Z</time>
      </trkpt>
      <trkpt lat="45.31171" lon="5.75112">
        <ele>1614</ele>
        <time>2020-02-08T11:35:21Z</time>
      </trkpt>
      <trkpt lat="45.31171" lon="5.75112">
        <ele>1614.2</ele>
        <time>2020-02-08T11:35:22Z</time>
      </trkpt>
      <trkpt lat="45.31171" lon="5.75112">
        <ele>1614.4</ele>
        <time>2020-02-08T11:35:23Z</time>
      </trkpt>
      <trkpt lat="45.31173" lon="5.7511">
        <ele>1614.6</ele>
        <time>2020-02-08T11:35:24Z</time>
      </trkpt>
      <trkpt lat="45.31173" lon="5.7511">
        <ele>1615</ele>
        <time>2020-02-08T11:35:25Z</time>
      </trkpt>
      <trkpt lat="45.31173" lon="5.7511">
        <ele>1615.2</ele>
        <time>2020-02-08T11:35:26Z</time>
      </trkpt>
      <trkpt lat="45.31175" lon="5.75108">
        <ele>1615.6</ele>
        <time>2020-02-08T11:35:27Z</time>
      </trkpt>
      <trkpt lat="45.31175" lon="5.75108">
        <ele>1615.8</ele>
        <time>2020-02-08T11:35:28Z</time>
      </trkpt>
      <trkpt lat="45.31175" lon="5.75108">
        <ele>1615.6</ele>
        <time>2020-02-08T11:35:29Z</time>
      </trkpt>
      <trkpt lat="45.31176" lon="5.75107">
        <ele>1615.8</ele>
        <time>2020-02-08T11:35:30Z</time>
      </trkpt>
      <trkpt lat="45.31176" lon="5.75107">
        <ele>1616</ele>
        <time>2020-02-08T11:35:31Z</time>
      </trkpt>
      <trkpt lat="45.31176" lon="5.75107">
        <ele>1616</ele>
        <time>2020-02-08T11:35:32Z</time>
      </trkpt>
      <trkpt lat="45.31178" lon="5.75106">
        <ele>1616.2</ele>
        <time>2020-02-08T11:35:33Z</time>
      </trkpt>
      <trkpt lat="45.31178" lon="5.75106">
        <ele>1616.4</ele>
        <time>2020-02-08T11:35:34Z</time>
      </trkpt>
      <trkpt lat="45.31178" lon="5.75106">
        <ele>1616.4</ele>
        <time>2020-02-08T11:35:35Z</time>
      </trkpt>
      <trkpt lat="45.3118" lon="5.75105">
        <ele>1616.8</ele>
        <time>2020-02-08T11:35:36Z</time>
      </trkpt>
      <trkpt lat="45.3118" lon="5.75105">
        <ele>1617</ele>
        <time>2020-02-08T11:35:37Z</time>
      </trkpt>
      <trkpt lat="45.31182" lon="5.75104">
        <ele>1617</ele>
        <time>2020-02-08T11:35:38Z</time>
      </trkpt>
      <trkpt lat="45.31182" lon="5.75104">
        <ele>1617</ele>
        <time>2020-02-08T11:35:39Z</time>
      </trkpt>
      <trkpt lat="45.31184" lon="5.75103">
        <ele>1617.2</ele>
        <time>2020-02-08T11:35:40Z</time>
      </trkpt>
      <trkpt lat="45.31184" lon="5.75103">
        <ele>1617.4</ele>
        <time>2020-02-08T11:35:41Z</time>
      </trkpt>
      <trkpt lat="45.31186" lon="5.75101">
        <ele>1617.6</ele>
        <time>2020-02-08T11:35:42Z</time>
      </trkpt>
      <trkpt lat="45.31186" lon="5.75101">
        <ele>1617.6</ele>
        <time>2020-02-08T11:35:43Z</time>
      </trkpt>
      <trkpt lat="45.31188" lon="5.751">
        <ele>1618</ele>
        <time>2020-02-08T11:35:44Z</time>
      </trkpt>
      <trkpt lat="45.31188" lon="5.751">
        <ele>1618</ele>
        <time>2020-02-08T11:35:45Z</time>
      </trkpt>
      <trkpt lat="45.3119" lon="5.75099">
        <ele>1618.2</ele>
        <time>2020-02-08T11:35:46Z</time>
      </trkpt>
      <trkpt lat="45.3119" lon="5.75099">
        <ele>1618.4</ele>
        <time>2020-02-08T11:35:47Z</time>
      </trkpt>
      <trkpt lat="45.3119" lon="5.75099">
        <ele>1618.8</ele>
        <time>2020-02-08T11:35:48Z</time>
      </trkpt>
      <trkpt lat="45.31192" lon="5.75097">
        <ele>1618.8</ele>
        <time>2020-02-08T11:35:49Z</time>
      </trkpt>
      <trkpt lat="45.31192" lon="5.75097">
        <ele>1619</ele>
        <time>2020-02-08T11:35:50Z</time>
      </trkpt>
      <trkpt lat="45.31194" lon="5.75096">
        <ele>1619.4</ele>
        <time>2020-02-08T11:35:51Z</time>
      </trkpt>
      <trkpt lat="45.31194" lon="5.75096">
        <ele>1619.6</ele>
        <time>2020-02-08T11:35:52Z</time>
      </trkpt>
      <trkpt lat="45.31196" lon="5.75096">
        <ele>1619.8</ele>
        <time>2020-02-08T11:35:53Z</time>
      </trkpt>
      <trkpt lat="45.31196" lon="5.75096">
        <ele>1620.2</ele>
        <time>2020-02-08T11:35:54Z</time>
      </trkpt>
      <trkpt lat="45.31198" lon="5.75095">
        <ele>1620.6</ele>
        <time>2020-02-08T11:35:55Z</time>
      </trkpt>
      <trkpt lat="45.31198" lon="5.75095">
        <ele>1620.8</ele>
        <time>2020-02-08T11:35:56Z</time>
      </trkpt>
      <trkpt lat="45.312" lon="5.75094">
        <ele>1621</ele>
        <time>2020-02-08T11:35:57Z</time>
      </trkpt>
      <trkpt lat="45.312" lon="5.75094">
        <ele>1621</ele>
        <time>2020-02-08T11:35:58Z</time>
      </trkpt>
      <trkpt lat="45.31202" lon="5.75092">
        <ele>1621.6</ele>
        <time>2020-02-08T11:35:59Z</time>
      </trkpt>
      <trkpt lat="45.31202" lon="5.75092">
        <ele>1621.4</ele>
        <time>2020-02-08T11:36:00Z</time>
      </trkpt>
      <trkpt lat="45.31204" lon="5.75091">
        <ele>1621.4</ele>
        <time>2020-02-08T11:36:01Z</time>
      </trkpt>
      <trkpt lat="45.31204" lon="5.75091">
        <ele>1621.4</ele>
        <time>2020-02-08T11:36:02Z</time>
      </trkpt>
      <trkpt lat="45.31206" lon="5.7509">
        <ele>1621.6</ele>
        <time>2020-02-08T11:36:03Z</time>
      </trkpt>
      <trkpt lat="45.31206" lon="5.7509">
        <ele>1621.8</ele>
        <time>2020-02-08T11:36:04Z</time>
      </trkpt>
      <trkpt lat="45.31208" lon="5.75089">
        <ele>1621.8</ele>
        <time>2020-02-08T11:36:05Z</time>
      </trkpt>
      <trkpt lat="45.31208" lon="5.75089">
        <ele>1622.2</ele>
        <time>2020-02-08T11:36:06Z</time>
      </trkpt>
      <trkpt lat="45.3121" lon="5.75089">
        <ele>1622.8</ele>
        <time>2020-02-08T11:36:07Z</time>
      </trkpt>
      <trkpt lat="45.3121" lon="5.75089">
        <ele>1623</ele>
        <time>2020-02-08T11:36:08Z</time>
      </trkpt>
      <trkpt lat="45.31212" lon="5.75089">
        <ele>1623.4</ele>
        <time>2020-02-08T11:36:09Z</time>
      </trkpt>
      <trkpt lat="45.31212" lon="5.75089">
        <ele>1623.6</ele>
        <time>2020-02-08T11:36:10Z</time>
      </trkpt>
      <trkpt lat="45.31215" lon="5.75088">
        <ele>1624.4</ele>
        <time>2020-02-08T11:36:11Z</time>
      </trkpt>
      <trkpt lat="45.31215" lon="5.75088">
        <ele>1624.4</ele>
        <time>2020-02-08T11:36:12Z</time>
      </trkpt>
      <trkpt lat="45.31218" lon="5.75087">
        <ele>1624.8</ele>
        <time>2020-02-08T11:36:13Z</time>
      </trkpt>
      <trkpt lat="45.3122" lon="5.75086">
        <ele>1625</ele>
        <time>2020-02-08T11:36:14Z</time>
      </trkpt>
      <trkpt lat="45.3122" lon="5.75086">
        <ele>1625.2</ele>
        <time>2020-02-08T11:36:15Z</time>
      </trkpt>
      <trkpt lat="45.3122" lon="5.75086">
        <ele>1625.4</ele>
        <time>2020-02-08T11:36:16Z</time>
      </trkpt>
      <trkpt lat="45.31223" lon="5.75084">
        <ele>1625.8</ele>
        <time>2020-02-08T11:36:17Z</time>
      </trkpt>
      <trkpt lat="45.31223" lon="5.75084">
        <ele>1626</ele>
        <time>2020-02-08T11:36:18Z</time>
      </trkpt>
      <trkpt lat="45.31223" lon="5.75084">
        <ele>1626.6</ele>
        <time>2020-02-08T11:36:19Z</time>
      </trkpt>
      <trkpt lat="45.31225" lon="5.75083">
        <ele>1626.4</ele>
        <time>2020-02-08T11:36:20Z</time>
      </trkpt>
      <trkpt lat="45.31225" lon="5.75083">
        <ele>1626.8</ele>
        <time>2020-02-08T11:36:21Z</time>
      </trkpt>
      <trkpt lat="45.31228" lon="5.75083">
        <ele>1627.2</ele>
        <time>2020-02-08T11:36:22Z</time>
      </trkpt>
      <trkpt lat="45.31228" lon="5.75083">
        <ele>1627.6</ele>
        <time>2020-02-08T11:36:23Z</time>
      </trkpt>
      <trkpt lat="45.3123" lon="5.75083">
        <ele>1627.8</ele>
        <time>2020-02-08T11:36:24Z</time>
      </trkpt>
      <trkpt lat="45.3123" lon="5.75083">
        <ele>1628.2</ele>
        <time>2020-02-08T11:36:25Z</time>
      </trkpt>
      <trkpt lat="45.3123" lon="5.75087">
        <ele>1628.2</ele>
        <time>2020-02-08T11:36:26Z</time>
      </trkpt>
      <trkpt lat="45.3123" lon="5.75087">
        <ele>1629</ele>
        <time>2020-02-08T11:36:27Z</time>
      </trkpt>
      <trkpt lat="45.3123" lon="5.75091">
        <ele>1629.2</ele>
        <time>2020-02-08T11:36:28Z</time>
      </trkpt>
      <trkpt lat="45.3123" lon="5.75094">
        <ele>1629.4</ele>
        <time>2020-02-08T11:36:29Z</time>
      </trkpt>
      <trkpt lat="45.3123" lon="5.75094">
        <ele>1630</ele>
        <time>2020-02-08T11:36:30Z</time>
      </trkpt>
      <trkpt lat="45.3123" lon="5.75098">
        <ele>1630.2</ele>
        <time>2020-02-08T11:36:31Z</time>
      </trkpt>
      <trkpt lat="45.3123" lon="5.75098">
        <ele>1630.6</ele>
        <time>2020-02-08T11:36:32Z</time>
      </trkpt>
      <trkpt lat="45.3123" lon="5.75101">
        <ele>1630.8</ele>
        <time>2020-02-08T11:36:33Z</time>
      </trkpt>
      <trkpt lat="45.3123" lon="5.75101">
        <ele>1630.8</ele>
        <time>2020-02-08T11:36:34Z</time>
      </trkpt>
      <trkpt lat="45.31229" lon="5.75105">
        <ele>1631.4</ele>
        <time>2020-02-08T11:36:35Z</time>
      </trkpt>
      <trkpt lat="45.31229" lon="5.75105">
        <ele>1631.6</ele>
        <time>2020-02-08T11:36:36Z</time>
      </trkpt>
      <trkpt lat="45.31228" lon="5.75107">
        <ele>1631.8</ele>
        <time>2020-02-08T11:36:37Z</time>
      </trkpt>
      <trkpt lat="45.31228" lon="5.75107">
        <ele>1632.2</ele>
        <time>2020-02-08T11:36:38Z</time>
      </trkpt>
      <trkpt lat="45.31228" lon="5.7511">
        <ele>1632</ele>
        <time>2020-02-08T11:36:39Z</time>
      </trkpt>
      <trkpt lat="45.31228" lon="5.7511">
        <ele>1632.4</ele>
        <time>2020-02-08T11:36:40Z</time>
      </trkpt>
      <trkpt lat="45.31228" lon="5.75114">
        <ele>1632.8</ele>
        <time>2020-02-08T11:36:41Z</time>
      </trkpt>
      <trkpt lat="45.31228" lon="5.75114">
        <ele>1632.4</ele>
        <time>2020-02-08T11:36:42Z</time>
      </trkpt>
      <trkpt lat="45.31228" lon="5.75117">
        <ele>1633</ele>
        <time>2020-02-08T11:36:43Z</time>
      </trkpt>
      <trkpt lat="45.31228" lon="5.75117">
        <ele>1633.2</ele>
        <time>2020-02-08T11:36:44Z</time>
      </trkpt>
      <trkpt lat="45.31228" lon="5.7512">
        <ele>1633.4</ele>
        <time>2020-02-08T11:36:45Z</time>
      </trkpt>
      <trkpt lat="45.31228" lon="5.7512">
        <ele>1634</ele>
        <time>2020-02-08T11:36:46Z</time>
      </trkpt>
      <trkpt lat="45.31228" lon="5.7512">
        <ele>1633.8</ele>
        <time>2020-02-08T11:36:47Z</time>
      </trkpt>
      <trkpt lat="45.31229" lon="5.75123">
        <ele>1633.8</ele>
        <time>2020-02-08T11:36:48Z</time>
      </trkpt>
      <trkpt lat="45.31229" lon="5.75123">
        <ele>1634</ele>
        <time>2020-02-08T11:36:49Z</time>
      </trkpt>
      <trkpt lat="45.31229" lon="5.75123">
        <ele>1634.4</ele>
        <time>2020-02-08T11:36:50Z</time>
      </trkpt>
      <trkpt lat="45.31231" lon="5.75124">
        <ele>1634.4</ele>
        <time>2020-02-08T11:36:51Z</time>
      </trkpt>
      <trkpt lat="45.31231" lon="5.75124">
        <ele>1634.4</ele>
        <time>2020-02-08T11:36:52Z</time>
      </trkpt>
      <trkpt lat="45.31231" lon="5.75124">
        <ele>1635</ele>
        <time>2020-02-08T11:36:53Z</time>
      </trkpt>
      <trkpt lat="45.31234" lon="5.75124">
        <ele>1634.6</ele>
        <time>2020-02-08T11:36:54Z</time>
      </trkpt>
      <trkpt lat="45.31234" lon="5.75124">
        <ele>1635</ele>
        <time>2020-02-08T11:36:55Z</time>
      </trkpt>
      <trkpt lat="45.31234" lon="5.75124">
        <ele>1635.2</ele>
        <time>2020-02-08T11:36:56Z</time>
      </trkpt>
      <trkpt lat="45.31236" lon="5.75124">
        <ele>1635.6</ele>
        <time>2020-02-08T11:36:57Z</time>
      </trkpt>
      <trkpt lat="45.31236" lon="5.75124">
        <ele>1635.4</ele>
        <time>2020-02-08T11:36:58Z</time>
      </trkpt>
      <trkpt lat="45.31236" lon="5.75124">
        <ele>1635.8</ele>
        <time>2020-02-08T11:36:59Z</time>
      </trkpt>
      <trkpt lat="45.31238" lon="5.75124">
        <ele>1636.4</ele>
        <time>2020-02-08T11:37:00Z</time>
      </trkpt>
      <trkpt lat="45.31238" lon="5.75124">
        <ele>1637</ele>
        <time>2020-02-08T11:37:01Z</time>
      </trkpt>
      <trkpt lat="45.3124" lon="5.75124">
        <ele>1637.4</ele>
        <time>2020-02-08T11:37:02Z</time>
      </trkpt>
      <trkpt lat="45.3124" lon="5.75124">
        <ele>1637.6</ele>
        <time>2020-02-08T11:37:03Z</time>
      </trkpt>
      <trkpt lat="45.3124" lon="5.75124">
        <ele>1637.8</ele>
        <time>2020-02-08T11:37:04Z</time>
      </trkpt>
      <trkpt lat="45.3124" lon="5.75124">
        <ele>1637.8</ele>
        <time>2020-02-08T11:37:05Z</time>
      </trkpt>
      <trkpt lat="45.31242" lon="5.75123">
        <ele>1637.8</ele>
        <time>2020-02-08T11:37:06Z</time>
      </trkpt>
      <trkpt lat="45.31242" lon="5.75123">
        <ele>1638.2</ele>
        <time>2020-02-08T11:37:07Z</time>
      </trkpt>
      <trkpt lat="45.31244" lon="5.75122">
        <ele>1638.2</ele>
        <time>2020-02-08T11:37:08Z</time>
      </trkpt>
      <trkpt lat="45.31244" lon="5.75122">
        <ele>1638.4</ele>
        <time>2020-02-08T11:37:09Z</time>
      </trkpt>
      <trkpt lat="45.31247" lon="5.75121">
        <ele>1638.6</ele>
        <time>2020-02-08T11:37:10Z</time>
      </trkpt>
      <trkpt lat="45.31247" lon="5.75121">
        <ele>1639.2</ele>
        <time>2020-02-08T11:37:11Z</time>
      </trkpt>
      <trkpt lat="45.31249" lon="5.7512">
        <ele>1639.4</ele>
        <time>2020-02-08T11:37:12Z</time>
      </trkpt>
      <trkpt lat="45.31249" lon="5.7512">
        <ele>1639.4</ele>
        <time>2020-02-08T11:37:13Z</time>
      </trkpt>
      <trkpt lat="45.31251" lon="5.75119">
        <ele>1639.6</ele>
        <time>2020-02-08T11:37:14Z</time>
      </trkpt>
      <trkpt lat="45.31251" lon="5.75119">
        <ele>1639.8</ele>
        <time>2020-02-08T11:37:15Z</time>
      </trkpt>
      <trkpt lat="45.31254" lon="5.75117">
        <ele>1640</ele>
        <time>2020-02-08T11:37:16Z</time>
      </trkpt>
      <trkpt lat="45.31254" lon="5.75117">
        <ele>1640.4</ele>
        <time>2020-02-08T11:37:17Z</time>
      </trkpt>
      <trkpt lat="45.31256" lon="5.75116">
        <ele>1640.4</ele>
        <time>2020-02-08T11:37:18Z</time>
      </trkpt>
      <trkpt lat="45.31256" lon="5.75116">
        <ele>1640.8</ele>
        <time>2020-02-08T11:37:19Z</time>
      </trkpt>
      <trkpt lat="45.31258" lon="5.75115">
        <ele>1641</ele>
        <time>2020-02-08T11:37:20Z</time>
      </trkpt>
      <trkpt lat="45.31258" lon="5.75115">
        <ele>1641.4</ele>
        <time>2020-02-08T11:37:21Z</time>
      </trkpt>
      <trkpt lat="45.3126" lon="5.75115">
        <ele>1641.6</ele>
        <time>2020-02-08T11:37:22Z</time>
      </trkpt>
      <trkpt lat="45.3126" lon="5.75115">
        <ele>1641.6</ele>
        <time>2020-02-08T11:37:23Z</time>
      </trkpt>
      <trkpt lat="45.31262" lon="5.75113">
        <ele>1642</ele>
        <time>2020-02-08T11:37:24Z</time>
      </trkpt>
      <trkpt lat="45.31262" lon="5.75113">
        <ele>1642.2</ele>
        <time>2020-02-08T11:37:25Z</time>
      </trkpt>
      <trkpt lat="45.31262" lon="5.75113">
        <ele>1642.6</ele>
        <time>2020-02-08T11:37:26Z</time>
      </trkpt>
      <trkpt lat="45.31265" lon="5.75112">
        <ele>1642.8</ele>
        <time>2020-02-08T11:37:27Z</time>
      </trkpt>
      <trkpt lat="45.31265" lon="5.75112">
        <ele>1643</ele>
        <time>2020-02-08T11:37:28Z</time>
      </trkpt>
      <trkpt lat="45.31267" lon="5.7511">
        <ele>1643.2</ele>
        <time>2020-02-08T11:37:29Z</time>
      </trkpt>
      <trkpt lat="45.31267" lon="5.7511">
        <ele>1643.4</ele>
        <time>2020-02-08T11:37:30Z</time>
      </trkpt>
      <trkpt lat="45.31269" lon="5.75109">
        <ele>1643.6</ele>
        <time>2020-02-08T11:37:31Z</time>
      </trkpt>
      <trkpt lat="45.31269" lon="5.75109">
        <ele>1643.6</ele>
        <time>2020-02-08T11:37:32Z</time>
      </trkpt>
      <trkpt lat="45.31271" lon="5.75107">
        <ele>1643.8</ele>
        <time>2020-02-08T11:37:33Z</time>
      </trkpt>
      <trkpt lat="45.31271" lon="5.75107">
        <ele>1644.2</ele>
        <time>2020-02-08T11:37:34Z</time>
      </trkpt>
      <trkpt lat="45.31271" lon="5.75107">
        <ele>1644.6</ele>
        <time>2020-02-08T11:37:35Z</time>
      </trkpt>
      <trkpt lat="45.31273" lon="5.75106">
        <ele>1644.4</ele>
        <time>2020-02-08T11:37:36Z</time>
      </trkpt>
      <trkpt lat="45.31273" lon="5.75106">
        <ele>1644.6</ele>
        <time>2020-02-08T11:37:37Z</time>
      </trkpt>
      <trkpt lat="45.31276" lon="5.75105">
        <ele>1645</ele>
        <time>2020-02-08T11:37:38Z</time>
      </trkpt>
      <trkpt lat="45.31276" lon="5.75105">
        <ele>1645</ele>
        <time>2020-02-08T11:37:39Z</time>
      </trkpt>
      <trkpt lat="45.31276" lon="5.75105">
        <ele>1645.2</ele>
        <time>2020-02-08T11:37:40Z</time>
      </trkpt>
      <trkpt lat="45.31278" lon="5.75105">
        <ele>1645.6</ele>
        <time>2020-02-08T11:37:41Z</time>
      </trkpt>
      <trkpt lat="45.31278" lon="5.75105">
        <ele>1646</ele>
        <time>2020-02-08T11:37:42Z</time>
      </trkpt>
      <trkpt lat="45.3128" lon="5.75105">
        <ele>1646</ele>
        <time>2020-02-08T11:37:43Z</time>
      </trkpt>
      <trkpt lat="45.3128" lon="5.75105">
        <ele>1646.2</ele>
        <time>2020-02-08T11:37:44Z</time>
      </trkpt>
      <trkpt lat="45.31282" lon="5.75105">
        <ele>1646.4</ele>
        <time>2020-02-08T11:37:45Z</time>
      </trkpt>
      <trkpt lat="45.31282" lon="5.75105">
        <ele>1646.8</ele>
        <time>2020-02-08T11:37:46Z</time>
      </trkpt>
      <trkpt lat="45.31282" lon="5.75105">
        <ele>1647</ele>
        <time>2020-02-08T11:37:47Z</time>
      </trkpt>
      <trkpt lat="45.31285" lon="5.75104">
        <ele>1647.4</ele>
        <time>2020-02-08T11:37:48Z</time>
      </trkpt>
      <trkpt lat="45.31285" lon="5.75104">
        <ele>1647.6</ele>
        <time>2020-02-08T11:37:49Z</time>
      </trkpt>
      <trkpt lat="45.31287" lon="5.75103">
        <ele>1647.8</ele>
        <time>2020-02-08T11:37:50Z</time>
      </trkpt>
      <trkpt lat="45.31287" lon="5.75103">
        <ele>1648</ele>
        <time>2020-02-08T11:37:51Z</time>
      </trkpt>
      <trkpt lat="45.31289" lon="5.75102">
        <ele>1648.2</ele>
        <time>2020-02-08T11:37:52Z</time>
      </trkpt>
      <trkpt lat="45.31289" lon="5.75102">
        <ele>1648.4</ele>
        <time>2020-02-08T11:37:53Z</time>
      </trkpt>
      <trkpt lat="45.31291" lon="5.75101">
        <ele>1648.8</ele>
        <time>2020-02-08T11:37:54Z</time>
      </trkpt>
      <trkpt lat="45.31291" lon="5.75101">
        <ele>1649</ele>
        <time>2020-02-08T11:37:55Z</time>
      </trkpt>
      <trkpt lat="45.31293" lon="5.751">
        <ele>1649.4</ele>
        <time>2020-02-08T11:37:56Z</time>
      </trkpt>
      <trkpt lat="45.31293" lon="5.751">
        <ele>1649.8</ele>
        <time>2020-02-08T11:37:57Z</time>
      </trkpt>
      <trkpt lat="45.31296" lon="5.75098">
        <ele>1650</ele>
        <time>2020-02-08T11:37:58Z</time>
      </trkpt>
      <trkpt lat="45.31296" lon="5.75098">
        <ele>1650.2</ele>
        <time>2020-02-08T11:37:59Z</time>
      </trkpt>
      <trkpt lat="45.31298" lon="5.75098">
        <ele>1650.4</ele>
        <time>2020-02-08T11:38:00Z</time>
      </trkpt>
      <trkpt lat="45.31298" lon="5.75098">
        <ele>1650.6</ele>
        <time>2020-02-08T11:38:01Z</time>
      </trkpt>
      <trkpt lat="45.31298" lon="5.75098">
        <ele>1651</ele>
        <time>2020-02-08T11:38:02Z</time>
      </trkpt>
      <trkpt lat="45.31298" lon="5.75098">
        <ele>1651</ele>
        <time>2020-02-08T11:38:03Z</time>
      </trkpt>
      <trkpt lat="45.313" lon="5.75097">
        <ele>1651.4</ele>
        <time>2020-02-08T11:38:04Z</time>
      </trkpt>
      <trkpt lat="45.313" lon="5.75097">
        <ele>1651.8</ele>
        <time>2020-02-08T11:38:05Z</time>
      </trkpt>
      <trkpt lat="45.31302" lon="5.75097">
        <ele>1652</ele>
        <time>2020-02-08T11:38:06Z</time>
      </trkpt>
      <trkpt lat="45.31302" lon="5.75097">
        <ele>1652.2</ele>
        <time>2020-02-08T11:38:07Z</time>
      </trkpt>
      <trkpt lat="45.31302" lon="5.75097">
        <ele>1652.6</ele>
        <time>2020-02-08T11:38:08Z</time>
      </trkpt>
      <trkpt lat="45.31305" lon="5.75096">
        <ele>1653</ele>
        <time>2020-02-08T11:38:09Z</time>
      </trkpt>
      <trkpt lat="45.31305" lon="5.75096">
        <ele>1653.4</ele>
        <time>2020-02-08T11:38:10Z</time>
      </trkpt>
      <trkpt lat="45.31307" lon="5.75096">
        <ele>1653.4</ele>
        <time>2020-02-08T11:38:11Z</time>
      </trkpt>
      <trkpt lat="45.31307" lon="5.75096">
        <ele>1653.6</ele>
        <time>2020-02-08T11:38:12Z</time>
      </trkpt>
      <trkpt lat="45.3131" lon="5.75096">
        <ele>1653.8</ele>
        <time>2020-02-08T11:38:13Z</time>
      </trkpt>
      <trkpt lat="45.3131" lon="5.75096">
        <ele>1654</ele>
        <time>2020-02-08T11:38:14Z</time>
      </trkpt>
      <trkpt lat="45.3131" lon="5.75096">
        <ele>1654.2</ele>
        <time>2020-02-08T11:38:15Z</time>
      </trkpt>
      <trkpt lat="45.31312" lon="5.75096">
        <ele>1654.6</ele>
        <time>2020-02-08T11:38:16Z</time>
      </trkpt>
      <trkpt lat="45.31312" lon="5.75096">
        <ele>1654.6</ele>
        <time>2020-02-08T11:38:17Z</time>
      </trkpt>
      <trkpt lat="45.31314" lon="5.75096">
        <ele>1654.8</ele>
        <time>2020-02-08T11:38:18Z</time>
      </trkpt>
      <trkpt lat="45.31314" lon="5.75096">
        <ele>1655.2</ele>
        <time>2020-02-08T11:38:19Z</time>
      </trkpt>
      <trkpt lat="45.31314" lon="5.75096">
        <ele>1655.8</ele>
        <time>2020-02-08T11:38:20Z</time>
      </trkpt>
      <trkpt lat="45.31316" lon="5.75096">
        <ele>1655.6</ele>
        <time>2020-02-08T11:38:21Z</time>
      </trkpt>
      <trkpt lat="45.31316" lon="5.75096">
        <ele>1656.4</ele>
        <time>2020-02-08T11:38:22Z</time>
      </trkpt>
      <trkpt lat="45.31316" lon="5.75096">
        <ele>1656.6</ele>
        <time>2020-02-08T11:38:23Z</time>
      </trkpt>
      <trkpt lat="45.31318" lon="5.75096">
        <ele>1656.4</ele>
        <time>2020-02-08T11:38:24Z</time>
      </trkpt>
      <trkpt lat="45.31318" lon="5.75096">
        <ele>1656.8</ele>
        <time>2020-02-08T11:38:25Z</time>
      </trkpt>
      <trkpt lat="45.31318" lon="5.75096">
        <ele>1656.8</ele>
        <time>2020-02-08T11:38:26Z</time>
      </trkpt>
      <trkpt lat="45.3132" lon="5.75097">
        <ele>1656.8</ele>
        <time>2020-02-08T11:38:27Z</time>
      </trkpt>
      <trkpt lat="45.3132" lon="5.75097">
        <ele>1657.2</ele>
        <time>2020-02-08T11:38:28Z</time>
      </trkpt>
      <trkpt lat="45.3132" lon="5.75097">
        <ele>1657</ele>
        <time>2020-02-08T11:38:29Z</time>
      </trkpt>
      <trkpt lat="45.31322" lon="5.75097">
        <ele>1657.4</ele>
        <time>2020-02-08T11:38:30Z</time>
      </trkpt>
      <trkpt lat="45.31322" lon="5.75097">
        <ele>1657.6</ele>
        <time>2020-02-08T11:38:31Z</time>
      </trkpt>
      <trkpt lat="45.31322" lon="5.75097">
        <ele>1657.8</ele>
        <time>2020-02-08T11:38:32Z</time>
      </trkpt>
      <trkpt lat="45.31325" lon="5.75096">
        <ele>1658</ele>
        <time>2020-02-08T11:38:33Z</time>
      </trkpt>
      <trkpt lat="45.31325" lon="5.75096">
        <ele>1658.4</ele>
        <time>2020-02-08T11:38:34Z</time>
      </trkpt>
      <trkpt lat="45.31327" lon="5.75096">
        <ele>1658.6</ele>
        <time>2020-02-08T11:38:35Z</time>
      </trkpt>
      <trkpt lat="45.31327" lon="5.75096">
        <ele>1659.2</ele>
        <time>2020-02-08T11:38:36Z</time>
      </trkpt>
      <trkpt lat="45.31329" lon="5.75096">
        <ele>1659.4</ele>
        <time>2020-02-08T11:38:37Z</time>
      </trkpt>
      <trkpt lat="45.31329" lon="5.75096">
        <ele>1660.4</ele>
        <time>2020-02-08T11:38:38Z</time>
      </trkpt>
      <trkpt lat="45.31329" lon="5.75096">
        <ele>1660.8</ele>
        <time>2020-02-08T11:38:39Z</time>
      </trkpt>
      <trkpt lat="45.31332" lon="5.75096">
        <ele>1661.4</ele>
        <time>2020-02-08T11:38:40Z</time>
      </trkpt>
      <trkpt lat="45.31332" lon="5.75096">
        <ele>1661.6</ele>
        <time>2020-02-08T11:38:41Z</time>
      </trkpt>
      <trkpt lat="45.31334" lon="5.75097">
        <ele>1661.8</ele>
        <time>2020-02-08T11:38:42Z</time>
      </trkpt>
      <trkpt lat="45.31334" lon="5.75097">
        <ele>1661.8</ele>
        <time>2020-02-08T11:38:43Z</time>
      </trkpt>
      <trkpt lat="45.31336" lon="5.751">
        <ele>1662.2</ele>
        <time>2020-02-08T11:38:44Z</time>
      </trkpt>
      <trkpt lat="45.31336" lon="5.751">
        <ele>1662.4</ele>
        <time>2020-02-08T11:38:45Z</time>
      </trkpt>
      <trkpt lat="45.31337" lon="5.75104">
        <ele>1662.2</ele>
        <time>2020-02-08T11:38:46Z</time>
      </trkpt>
      <trkpt lat="45.31337" lon="5.75104">
        <ele>1662.8</ele>
        <time>2020-02-08T11:38:47Z</time>
      </trkpt>
      <trkpt lat="45.31337" lon="5.75108">
        <ele>1662.8</ele>
        <time>2020-02-08T11:38:48Z</time>
      </trkpt>
      <trkpt lat="45.31337" lon="5.75108">
        <ele>1662.8</ele>
        <time>2020-02-08T11:38:49Z</time>
      </trkpt>
      <trkpt lat="45.31337" lon="5.75111">
        <ele>1663.2</ele>
        <time>2020-02-08T11:38:50Z</time>
      </trkpt>
      <trkpt lat="45.31337" lon="5.75111">
        <ele>1663.2</ele>
        <time>2020-02-08T11:38:51Z</time>
      </trkpt>
      <trkpt lat="45.31338" lon="5.75114">
        <ele>1663.4</ele>
        <time>2020-02-08T11:38:52Z</time>
      </trkpt>
      <trkpt lat="45.31338" lon="5.75114">
        <ele>1663.8</ele>
        <time>2020-02-08T11:38:53Z</time>
      </trkpt>
      <trkpt lat="45.31338" lon="5.75117">
        <ele>1664</ele>
        <time>2020-02-08T11:38:54Z</time>
      </trkpt>
      <trkpt lat="45.31338" lon="5.75117">
        <ele>1664.4</ele>
        <time>2020-02-08T11:38:55Z</time>
      </trkpt>
      <trkpt lat="45.31339" lon="5.75119">
        <ele>1664.6</ele>
        <time>2020-02-08T11:38:56Z</time>
      </trkpt>
      <trkpt lat="45.31339" lon="5.75119">
        <ele>1664.6</ele>
        <time>2020-02-08T11:38:57Z</time>
      </trkpt>
      <trkpt lat="45.31339" lon="5.75122">
        <ele>1665.2</ele>
        <time>2020-02-08T11:38:58Z</time>
      </trkpt>
      <trkpt lat="45.31339" lon="5.75122">
        <ele>1665.6</ele>
        <time>2020-02-08T11:38:59Z</time>
      </trkpt>
      <trkpt lat="45.31339" lon="5.75122">
        <ele>1665.4</ele>
        <time>2020-02-08T11:39:00Z</time>
      </trkpt>
      <trkpt lat="45.31339" lon="5.75126">
        <ele>1665.6</ele>
        <time>2020-02-08T11:39:01Z</time>
      </trkpt>
      <trkpt lat="45.31339" lon="5.75126">
        <ele>1666</ele>
        <time>2020-02-08T11:39:02Z</time>
      </trkpt>
      <trkpt lat="45.3134" lon="5.75129">
        <ele>1666</ele>
        <time>2020-02-08T11:39:03Z</time>
      </trkpt>
      <trkpt lat="45.3134" lon="5.75129">
        <ele>1666.4</ele>
        <time>2020-02-08T11:39:04Z</time>
      </trkpt>
      <trkpt lat="45.31341" lon="5.75131">
        <ele>1666.6</ele>
        <time>2020-02-08T11:39:05Z</time>
      </trkpt>
      <trkpt lat="45.31341" lon="5.75131">
        <ele>1666.6</ele>
        <time>2020-02-08T11:39:06Z</time>
      </trkpt>
      <trkpt lat="45.31341" lon="5.75131">
        <ele>1667</ele>
        <time>2020-02-08T11:39:07Z</time>
      </trkpt>
      <trkpt lat="45.31342" lon="5.75134">
        <ele>1667</ele>
        <time>2020-02-08T11:39:08Z</time>
      </trkpt>
      <trkpt lat="45.31342" lon="5.75134">
        <ele>1667.2</ele>
        <time>2020-02-08T11:39:09Z</time>
      </trkpt>
      <trkpt lat="45.31342" lon="5.75134">
        <ele>1667.4</ele>
        <time>2020-02-08T11:39:10Z</time>
      </trkpt>
      <trkpt lat="45.31343" lon="5.75136">
        <ele>1667.4</ele>
        <time>2020-02-08T11:39:11Z</time>
      </trkpt>
      <trkpt lat="45.31343" lon="5.75136">
        <ele>1668</ele>
        <time>2020-02-08T11:39:12Z</time>
      </trkpt>
      <trkpt lat="45.31343" lon="5.75136">
        <ele>1668.2</ele>
        <time>2020-02-08T11:39:13Z</time>
      </trkpt>
      <trkpt lat="45.31346" lon="5.75139">
        <ele>1668.4</ele>
        <time>2020-02-08T11:39:14Z</time>
      </trkpt>
      <trkpt lat="45.31346" lon="5.75139">
        <ele>1668.4</ele>
        <time>2020-02-08T11:39:15Z</time>
      </trkpt>
      <trkpt lat="45.31346" lon="5.75139">
        <ele>1668.6</ele>
        <time>2020-02-08T11:39:16Z</time>
      </trkpt>
      <trkpt lat="45.31346" lon="5.75139">
        <ele>1669.2</ele>
        <time>2020-02-08T11:39:17Z</time>
      </trkpt>
      <trkpt lat="45.31346" lon="5.75139">
        <ele>1669.2</ele>
        <time>2020-02-08T11:39:18Z</time>
      </trkpt>
      <trkpt lat="45.31347" lon="5.75141">
        <ele>1669.8</ele>
        <time>2020-02-08T11:39:19Z</time>
      </trkpt>
      <trkpt lat="45.31347" lon="5.75141">
        <ele>1670</ele>
        <time>2020-02-08T11:39:20Z</time>
      </trkpt>
      <trkpt lat="45.31349" lon="5.75143">
        <ele>1670</ele>
        <time>2020-02-08T11:39:21Z</time>
      </trkpt>
      <trkpt lat="45.31349" lon="5.75143">
        <ele>1670.2</ele>
        <time>2020-02-08T11:39:22Z</time>
      </trkpt>
      <trkpt lat="45.3135" lon="5.75145">
        <ele>1670.2</ele>
        <time>2020-02-08T11:39:23Z</time>
      </trkpt>
      <trkpt lat="45.3135" lon="5.75145">
        <ele>1670.4</ele>
        <time>2020-02-08T11:39:24Z</time>
      </trkpt>
      <trkpt lat="45.3135" lon="5.75145">
        <ele>1670.6</ele>
        <time>2020-02-08T11:39:25Z</time>
      </trkpt>
      <trkpt lat="45.31352" lon="5.75148">
        <ele>1670.8</ele>
        <time>2020-02-08T11:39:26Z</time>
      </trkpt>
      <trkpt lat="45.31352" lon="5.75148">
        <ele>1671.4</ele>
        <time>2020-02-08T11:39:27Z</time>
      </trkpt>
      <trkpt lat="45.31353" lon="5.75151">
        <ele>1671.6</ele>
        <time>2020-02-08T11:39:28Z</time>
      </trkpt>
      <trkpt lat="45.31353" lon="5.75151">
        <ele>1671.8</ele>
        <time>2020-02-08T11:39:29Z</time>
      </trkpt>
      <trkpt lat="45.31354" lon="5.75153">
        <ele>1672.2</ele>
        <time>2020-02-08T11:39:30Z</time>
      </trkpt>
      <trkpt lat="45.31354" lon="5.75153">
        <ele>1672.2</ele>
        <time>2020-02-08T11:39:31Z</time>
      </trkpt>
      <trkpt lat="45.31356" lon="5.75155">
        <ele>1672.4</ele>
        <time>2020-02-08T11:39:32Z</time>
      </trkpt>
      <trkpt lat="45.31356" lon="5.75155">
        <ele>1673</ele>
        <time>2020-02-08T11:39:33Z</time>
      </trkpt>
      <trkpt lat="45.31356" lon="5.75155">
        <ele>1673.2</ele>
        <time>2020-02-08T11:39:34Z</time>
      </trkpt>
      <trkpt lat="45.31358" lon="5.75157">
        <ele>1673.8</ele>
        <time>2020-02-08T11:39:35Z</time>
      </trkpt>
      <trkpt lat="45.31358" lon="5.75157">
        <ele>1674</ele>
        <time>2020-02-08T11:39:36Z</time>
      </trkpt>
      <trkpt lat="45.31358" lon="5.75157">
        <ele>1674</ele>
        <time>2020-02-08T11:39:37Z</time>
      </trkpt>
      <trkpt lat="45.3136" lon="5.75158">
        <ele>1674.8</ele>
        <time>2020-02-08T11:39:38Z</time>
      </trkpt>
      <trkpt lat="45.3136" lon="5.75158">
        <ele>1675.2</ele>
        <time>2020-02-08T11:39:39Z</time>
      </trkpt>
      <trkpt lat="45.3136" lon="5.75158">
        <ele>1675.8</ele>
        <time>2020-02-08T11:39:40Z</time>
      </trkpt>
      <trkpt lat="45.31363" lon="5.75158">
        <ele>1675.8</ele>
        <time>2020-02-08T11:39:41Z</time>
      </trkpt>
      <trkpt lat="45.31363" lon="5.75158">
        <ele>1676.4</ele>
        <time>2020-02-08T11:39:42Z</time>
      </trkpt>
      <trkpt lat="45.31363" lon="5.75158">
        <ele>1676.6</ele>
        <time>2020-02-08T11:39:43Z</time>
      </trkpt>
      <trkpt lat="45.31366" lon="5.75159">
        <ele>1677</ele>
        <time>2020-02-08T11:39:44Z</time>
      </trkpt>
      <trkpt lat="45.31366" lon="5.75159">
        <ele>1677.6</ele>
        <time>2020-02-08T11:39:45Z</time>
      </trkpt>
      <trkpt lat="45.31368" lon="5.75159">
        <ele>1678.2</ele>
        <time>2020-02-08T11:39:46Z</time>
      </trkpt>
      <trkpt lat="45.31368" lon="5.75159">
        <ele>1678.4</ele>
        <time>2020-02-08T11:39:47Z</time>
      </trkpt>
      <trkpt lat="45.31368" lon="5.75159">
        <ele>1678.2</ele>
        <time>2020-02-08T11:39:48Z</time>
      </trkpt>
      <trkpt lat="45.3137" lon="5.75161">
        <ele>1678.6</ele>
        <time>2020-02-08T11:39:49Z</time>
      </trkpt>
      <trkpt lat="45.3137" lon="5.75161">
        <ele>1678.8</ele>
        <time>2020-02-08T11:39:50Z</time>
      </trkpt>
      <trkpt lat="45.3137" lon="5.75161">
        <ele>1678.8</ele>
        <time>2020-02-08T11:39:51Z</time>
      </trkpt>
      <trkpt lat="45.31372" lon="5.75161">
        <ele>1679.2</ele>
        <time>2020-02-08T11:39:52Z</time>
      </trkpt>
      <trkpt lat="45.31372" lon="5.75161">
        <ele>1679.2</ele>
        <time>2020-02-08T11:39:53Z</time>
      </trkpt>
      <trkpt lat="45.31372" lon="5.75161">
        <ele>1679.4</ele>
        <time>2020-02-08T11:39:54Z</time>
      </trkpt>
      <trkpt lat="45.31372" lon="5.75161">
        <ele>1680</ele>
        <time>2020-02-08T11:39:55Z</time>
      </trkpt>
      <trkpt lat="45.31375" lon="5.75161">
        <ele>1679.8</ele>
        <time>2020-02-08T11:39:56Z</time>
      </trkpt>
      <trkpt lat="45.31375" lon="5.75161">
        <ele>1680.6</ele>
        <time>2020-02-08T11:39:57Z</time>
      </trkpt>
      <trkpt lat="45.31377" lon="5.75161">
        <ele>1680.8</ele>
        <time>2020-02-08T11:39:58Z</time>
      </trkpt>
      <trkpt lat="45.31377" lon="5.75161">
        <ele>1681</ele>
        <time>2020-02-08T11:39:59Z</time>
      </trkpt>
      <trkpt lat="45.31379" lon="5.75162">
        <ele>1681.6</ele>
        <time>2020-02-08T11:40:00Z</time>
      </trkpt>
      <trkpt lat="45.31379" lon="5.75162">
        <ele>1681.8</ele>
        <time>2020-02-08T11:40:01Z</time>
      </trkpt>
      <trkpt lat="45.31379" lon="5.75162">
        <ele>1682</ele>
        <time>2020-02-08T11:40:02Z</time>
      </trkpt>
      <trkpt lat="45.31382" lon="5.75163">
        <ele>1682.4</ele>
        <time>2020-02-08T11:40:03Z</time>
      </trkpt>
      <trkpt lat="45.31382" lon="5.75163">
        <ele>1682.6</ele>
        <time>2020-02-08T11:40:04Z</time>
      </trkpt>
      <trkpt lat="45.31382" lon="5.75163">
        <ele>1682.6</ele>
        <time>2020-02-08T11:40:05Z</time>
      </trkpt>
      <trkpt lat="45.31383" lon="5.75164">
        <ele>1683</ele>
        <time>2020-02-08T11:40:06Z</time>
      </trkpt>
      <trkpt lat="45.31383" lon="5.75164">
        <ele>1683</ele>
        <time>2020-02-08T11:40:07Z</time>
      </trkpt>
      <trkpt lat="45.31385" lon="5.75166">
        <ele>1683.6</ele>
        <time>2020-02-08T11:40:08Z</time>
      </trkpt>
      <trkpt lat="45.31385" lon="5.75166">
        <ele>1684</ele>
        <time>2020-02-08T11:40:09Z</time>
      </trkpt>
      <trkpt lat="45.31386" lon="5.75168">
        <ele>1683.6</ele>
        <time>2020-02-08T11:40:10Z</time>
      </trkpt>
      <trkpt lat="45.31386" lon="5.75168">
        <ele>1684.4</ele>
        <time>2020-02-08T11:40:11Z</time>
      </trkpt>
      <trkpt lat="45.31388" lon="5.75169">
        <ele>1684.4</ele>
        <time>2020-02-08T11:40:12Z</time>
      </trkpt>
      <trkpt lat="45.31388" lon="5.75169">
        <ele>1684.2</ele>
        <time>2020-02-08T11:40:13Z</time>
      </trkpt>
      <trkpt lat="45.3139" lon="5.75171">
        <ele>1684.6</ele>
        <time>2020-02-08T11:40:14Z</time>
      </trkpt>
      <trkpt lat="45.3139" lon="5.75171">
        <ele>1684.8</ele>
        <time>2020-02-08T11:40:15Z</time>
      </trkpt>
      <trkpt lat="45.31392" lon="5.75172">
        <ele>1684.8</ele>
        <time>2020-02-08T11:40:16Z</time>
      </trkpt>
      <trkpt lat="45.31392" lon="5.75172">
        <ele>1685.6</ele>
        <time>2020-02-08T11:40:17Z</time>
      </trkpt>
      <trkpt lat="45.31394" lon="5.75172">
        <ele>1685.6</ele>
        <time>2020-02-08T11:40:18Z</time>
      </trkpt>
      <trkpt lat="45.31394" lon="5.75172">
        <ele>1685.8</ele>
        <time>2020-02-08T11:40:19Z</time>
      </trkpt>
      <trkpt lat="45.31395" lon="5.75173">
        <ele>1686</ele>
        <time>2020-02-08T11:40:20Z</time>
      </trkpt>
      <trkpt lat="45.31395" lon="5.75173">
        <ele>1686</ele>
        <time>2020-02-08T11:40:21Z</time>
      </trkpt>
      <trkpt lat="45.31395" lon="5.75173">
        <ele>1686.2</ele>
        <time>2020-02-08T11:40:22Z</time>
      </trkpt>
      <trkpt lat="45.31398" lon="5.75174">
        <ele>1686.8</ele>
        <time>2020-02-08T11:40:23Z</time>
      </trkpt>
      <trkpt lat="45.31398" lon="5.75174">
        <ele>1686.8</ele>
        <time>2020-02-08T11:40:24Z</time>
      </trkpt>
      <trkpt lat="45.314" lon="5.75175">
        <ele>1687</ele>
        <time>2020-02-08T11:40:25Z</time>
      </trkpt>
      <trkpt lat="45.314" lon="5.75175">
        <ele>1687.4</ele>
        <time>2020-02-08T11:40:26Z</time>
      </trkpt>
      <trkpt lat="45.314" lon="5.75175">
        <ele>1687.4</ele>
        <time>2020-02-08T11:40:27Z</time>
      </trkpt>
      <trkpt lat="45.31403" lon="5.75175">
        <ele>1687.6</ele>
        <time>2020-02-08T11:40:28Z</time>
      </trkpt>
      <trkpt lat="45.31403" lon="5.75175">
        <ele>1688</ele>
        <time>2020-02-08T11:40:29Z</time>
      </trkpt>
      <trkpt lat="45.31403" lon="5.75175">
        <ele>1687.8</ele>
        <time>2020-02-08T11:40:30Z</time>
      </trkpt>
      <trkpt lat="45.31405" lon="5.75175">
        <ele>1688.2</ele>
        <time>2020-02-08T11:40:31Z</time>
      </trkpt>
      <trkpt lat="45.31405" lon="5.75175">
        <ele>1688.4</ele>
        <time>2020-02-08T11:40:32Z</time>
      </trkpt>
      <trkpt lat="45.31405" lon="5.75175">
        <ele>1688.4</ele>
        <time>2020-02-08T11:40:33Z</time>
      </trkpt>
      <trkpt lat="45.31408" lon="5.75175">
        <ele>1689</ele>
        <time>2020-02-08T11:40:34Z</time>
      </trkpt>
      <trkpt lat="45.31408" lon="5.75175">
        <ele>1689.4</ele>
        <time>2020-02-08T11:40:35Z</time>
      </trkpt>
      <trkpt lat="45.3141" lon="5.75175">
        <ele>1689.2</ele>
        <time>2020-02-08T11:40:36Z</time>
      </trkpt>
      <trkpt lat="45.3141" lon="5.75175">
        <ele>1690</ele>
        <time>2020-02-08T11:40:37Z</time>
      </trkpt>
      <trkpt lat="45.3141" lon="5.75175">
        <ele>1690.2</ele>
        <time>2020-02-08T11:40:38Z</time>
      </trkpt>
      <trkpt lat="45.31412" lon="5.75175">
        <ele>1690</ele>
        <time>2020-02-08T11:40:39Z</time>
      </trkpt>
      <trkpt lat="45.31412" lon="5.75175">
        <ele>1690.6</ele>
        <time>2020-02-08T11:40:40Z</time>
      </trkpt>
      <trkpt lat="45.31412" lon="5.75175">
        <ele>1691</ele>
        <time>2020-02-08T11:40:41Z</time>
      </trkpt>
      <trkpt lat="45.31414" lon="5.75176">
        <ele>1690.8</ele>
        <time>2020-02-08T11:40:42Z</time>
      </trkpt>
      <trkpt lat="45.31414" lon="5.75176">
        <ele>1691.4</ele>
        <time>2020-02-08T11:40:43Z</time>
      </trkpt>
      <trkpt lat="45.31416" lon="5.75176">
        <ele>1691.6</ele>
        <time>2020-02-08T11:40:44Z</time>
      </trkpt>
      <trkpt lat="45.31416" lon="5.75176">
        <ele>1691.8</ele>
        <time>2020-02-08T11:40:45Z</time>
      </trkpt>
      <trkpt lat="45.31416" lon="5.75176">
        <ele>1692.4</ele>
        <time>2020-02-08T11:40:46Z</time>
      </trkpt>
      <trkpt lat="45.31419" lon="5.75177">
        <ele>1692.8</ele>
        <time>2020-02-08T11:40:47Z</time>
      </trkpt>
      <trkpt lat="45.31419" lon="5.75177">
        <ele>1692.6</ele>
        <time>2020-02-08T11:40:48Z</time>
      </trkpt>
      <trkpt lat="45.31421" lon="5.75177">
        <ele>1693</ele>
        <time>2020-02-08T11:40:49Z</time>
      </trkpt>
      <trkpt lat="45.31421" lon="5.75177">
        <ele>1693.2</ele>
        <time>2020-02-08T11:40:50Z</time>
      </trkpt>
      <trkpt lat="45.31423" lon="5.75178">
        <ele>1693.4</ele>
        <time>2020-02-08T11:40:51Z</time>
      </trkpt>
      <trkpt lat="45.31423" lon="5.75178">
        <ele>1693.6</ele>
        <time>2020-02-08T11:40:52Z</time>
      </trkpt>
      <trkpt lat="45.31425" lon="5.75179">
        <ele>1693.8</ele>
        <time>2020-02-08T11:40:53Z</time>
      </trkpt>
      <trkpt lat="45.31425" lon="5.75179">
        <ele>1694</ele>
        <time>2020-02-08T11:40:54Z</time>
      </trkpt>
      <trkpt lat="45.31427" lon="5.7518">
        <ele>1693.6</ele>
        <time>2020-02-08T11:40:55Z</time>
      </trkpt>
      <trkpt lat="45.31427" lon="5.7518">
        <ele>1694</ele>
        <time>2020-02-08T11:40:56Z</time>
      </trkpt>
      <trkpt lat="45.31429" lon="5.75181">
        <ele>1694.2</ele>
        <time>2020-02-08T11:40:57Z</time>
      </trkpt>
      <trkpt lat="45.31429" lon="5.75181">
        <ele>1694.6</ele>
        <time>2020-02-08T11:40:58Z</time>
      </trkpt>
      <trkpt lat="45.31432" lon="5.75182">
        <ele>1694.8</ele>
        <time>2020-02-08T11:40:59Z</time>
      </trkpt>
      <trkpt lat="45.31432" lon="5.75182">
        <ele>1695</ele>
        <time>2020-02-08T11:41:00Z</time>
      </trkpt>
      <trkpt lat="45.31434" lon="5.75183">
        <ele>1694.8</ele>
        <time>2020-02-08T11:41:01Z</time>
      </trkpt>
      <trkpt lat="45.31434" lon="5.75183">
        <ele>1695</ele>
        <time>2020-02-08T11:41:02Z</time>
      </trkpt>
      <trkpt lat="45.31436" lon="5.75184">
        <ele>1695.2</ele>
        <time>2020-02-08T11:41:03Z</time>
      </trkpt>
      <trkpt lat="45.31436" lon="5.75184">
        <ele>1695</ele>
        <time>2020-02-08T11:41:04Z</time>
      </trkpt>
      <trkpt lat="45.31438" lon="5.75186">
        <ele>1695.2</ele>
        <time>2020-02-08T11:41:05Z</time>
      </trkpt>
      <trkpt lat="45.31438" lon="5.75186">
        <ele>1695.2</ele>
        <time>2020-02-08T11:41:06Z</time>
      </trkpt>
      <trkpt lat="45.31439" lon="5.75187">
        <ele>1696</ele>
        <time>2020-02-08T11:41:07Z</time>
      </trkpt>
      <trkpt lat="45.31439" lon="5.75187">
        <ele>1696.2</ele>
        <time>2020-02-08T11:41:08Z</time>
      </trkpt>
      <trkpt lat="45.31441" lon="5.75188">
        <ele>1696.4</ele>
        <time>2020-02-08T11:41:09Z</time>
      </trkpt>
      <trkpt lat="45.31441" lon="5.75188">
        <ele>1696.4</ele>
        <time>2020-02-08T11:41:10Z</time>
      </trkpt>
      <trkpt lat="45.31443" lon="5.75189">
        <ele>1696.2</ele>
        <time>2020-02-08T11:41:11Z</time>
      </trkpt>
      <trkpt lat="45.31443" lon="5.75189">
        <ele>1696.6</ele>
        <time>2020-02-08T11:41:12Z</time>
      </trkpt>
      <trkpt lat="45.31445" lon="5.75191">
        <ele>1696.4</ele>
        <time>2020-02-08T11:41:13Z</time>
      </trkpt>
      <trkpt lat="45.31445" lon="5.75191">
        <ele>1696.6</ele>
        <time>2020-02-08T11:41:14Z</time>
      </trkpt>
      <trkpt lat="45.31445" lon="5.75191">
        <ele>1696.6</ele>
        <time>2020-02-08T11:41:15Z</time>
      </trkpt>
      <trkpt lat="45.31447" lon="5.75191">
        <ele>1696.8</ele>
        <time>2020-02-08T11:41:16Z</time>
      </trkpt>
      <trkpt lat="45.31447" lon="5.75191">
        <ele>1697</ele>
        <time>2020-02-08T11:41:17Z</time>
      </trkpt>
      <trkpt lat="45.31449" lon="5.75192">
        <ele>1697</ele>
        <time>2020-02-08T11:41:18Z</time>
      </trkpt>
      <trkpt lat="45.31449" lon="5.75192">
        <ele>1697.6</ele>
        <time>2020-02-08T11:41:19Z</time>
      </trkpt>
      <trkpt lat="45.31451" lon="5.75192">
        <ele>1697.6</ele>
        <time>2020-02-08T11:41:20Z</time>
      </trkpt>
      <trkpt lat="45.31451" lon="5.75192">
        <ele>1697.6</ele>
        <time>2020-02-08T11:41:21Z</time>
      </trkpt>
      <trkpt lat="45.31453" lon="5.75193">
        <ele>1698</ele>
        <time>2020-02-08T11:41:22Z</time>
      </trkpt>
      <trkpt lat="45.31453" lon="5.75193">
        <ele>1698.2</ele>
        <time>2020-02-08T11:41:23Z</time>
      </trkpt>
      <trkpt lat="45.31455" lon="5.75194">
        <ele>1698</ele>
        <time>2020-02-08T11:41:24Z</time>
      </trkpt>
      <trkpt lat="45.31455" lon="5.75194">
        <ele>1698.4</ele>
        <time>2020-02-08T11:41:25Z</time>
      </trkpt>
      <trkpt lat="45.31456" lon="5.75195">
        <ele>1698.8</ele>
        <time>2020-02-08T11:41:26Z</time>
      </trkpt>
      <trkpt lat="45.31456" lon="5.75195">
        <ele>1698.6</ele>
        <time>2020-02-08T11:41:27Z</time>
      </trkpt>
      <trkpt lat="45.31459" lon="5.75195">
        <ele>1699</ele>
        <time>2020-02-08T11:41:28Z</time>
      </trkpt>
      <trkpt lat="45.31459" lon="5.75195">
        <ele>1699.2</ele>
        <time>2020-02-08T11:41:29Z</time>
      </trkpt>
      <trkpt lat="45.31461" lon="5.75196">
        <ele>1699.2</ele>
        <time>2020-02-08T11:41:30Z</time>
      </trkpt>
      <trkpt lat="45.31461" lon="5.75196">
        <ele>1699.6</ele>
        <time>2020-02-08T11:41:31Z</time>
      </trkpt>
      <trkpt lat="45.31462" lon="5.75196">
        <ele>1699.4</ele>
        <time>2020-02-08T11:41:32Z</time>
      </trkpt>
      <trkpt lat="45.31462" lon="5.75196">
        <ele>1699.4</ele>
        <time>2020-02-08T11:41:33Z</time>
      </trkpt>
      <trkpt lat="45.31465" lon="5.75197">
        <ele>1700.4</ele>
        <time>2020-02-08T11:41:34Z</time>
      </trkpt>
      <trkpt lat="45.31465" lon="5.75197">
        <ele>1700.4</ele>
        <time>2020-02-08T11:41:35Z</time>
      </trkpt>
      <trkpt lat="45.31467" lon="5.75197">
        <ele>1701</ele>
        <time>2020-02-08T11:41:36Z</time>
      </trkpt>
      <trkpt lat="45.31467" lon="5.75197">
        <ele>1701.4</ele>
        <time>2020-02-08T11:41:37Z</time>
      </trkpt>
      <trkpt lat="45.31467" lon="5.75197">
        <ele>1701.4</ele>
        <time>2020-02-08T11:41:38Z</time>
      </trkpt>
      <trkpt lat="45.31469" lon="5.75198">
        <ele>1702.2</ele>
        <time>2020-02-08T11:41:39Z</time>
      </trkpt>
      <trkpt lat="45.31469" lon="5.75198">
        <ele>1702.6</ele>
        <time>2020-02-08T11:41:40Z</time>
      </trkpt>
      <trkpt lat="45.31469" lon="5.75198">
        <ele>1702.4</ele>
        <time>2020-02-08T11:41:41Z</time>
      </trkpt>
      <trkpt lat="45.31472" lon="5.75198">
        <ele>1702.8</ele>
        <time>2020-02-08T11:41:42Z</time>
      </trkpt>
      <trkpt lat="45.31472" lon="5.75198">
        <ele>1702.8</ele>
        <time>2020-02-08T11:41:43Z</time>
      </trkpt>
      <trkpt lat="45.31474" lon="5.75199">
        <ele>1702.8</ele>
        <time>2020-02-08T11:41:44Z</time>
      </trkpt>
      <trkpt lat="45.31474" lon="5.75199">
        <ele>1703.4</ele>
        <time>2020-02-08T11:41:45Z</time>
      </trkpt>
      <trkpt lat="45.31474" lon="5.75199">
        <ele>1704</ele>
        <time>2020-02-08T11:41:46Z</time>
      </trkpt>
      <trkpt lat="45.31476" lon="5.752">
        <ele>1704.2</ele>
        <time>2020-02-08T11:41:47Z</time>
      </trkpt>
      <trkpt lat="45.31476" lon="5.752">
        <ele>1704.8</ele>
        <time>2020-02-08T11:41:48Z</time>
      </trkpt>
      <trkpt lat="45.31476" lon="5.752">
        <ele>1705.2</ele>
        <time>2020-02-08T11:41:49Z</time>
      </trkpt>
      <trkpt lat="45.31479" lon="5.752">
        <ele>1705.2</ele>
        <time>2020-02-08T11:41:50Z</time>
      </trkpt>
      <trkpt lat="45.31479" lon="5.752">
        <ele>1705.8</ele>
        <time>2020-02-08T11:41:51Z</time>
      </trkpt>
      <trkpt lat="45.31479" lon="5.752">
        <ele>1705.6</ele>
        <time>2020-02-08T11:41:52Z</time>
      </trkpt>
      <trkpt lat="45.31481" lon="5.752">
        <ele>1706</ele>
        <time>2020-02-08T11:41:53Z</time>
      </trkpt>
      <trkpt lat="45.31481" lon="5.752">
        <ele>1706.4</ele>
        <time>2020-02-08T11:41:54Z</time>
      </trkpt>
      <trkpt lat="45.31481" lon="5.752">
        <ele>1706.4</ele>
        <time>2020-02-08T11:41:55Z</time>
      </trkpt>
      <trkpt lat="45.31484" lon="5.75201">
        <ele>1706.6</ele>
        <time>2020-02-08T11:41:56Z</time>
      </trkpt>
      <trkpt lat="45.31484" lon="5.75201">
        <ele>1707.2</ele>
        <time>2020-02-08T11:41:57Z</time>
      </trkpt>
      <trkpt lat="45.31486" lon="5.75202">
        <ele>1706.8</ele>
        <time>2020-02-08T11:41:58Z</time>
      </trkpt>
      <trkpt lat="45.31486" lon="5.75202">
        <ele>1707.4</ele>
        <time>2020-02-08T11:41:59Z</time>
      </trkpt>
      <trkpt lat="45.31486" lon="5.75202">
        <ele>1707.8</ele>
        <time>2020-02-08T11:42:00Z</time>
      </trkpt>
      <trkpt lat="45.31488" lon="5.75202">
        <ele>1707.6</ele>
        <time>2020-02-08T11:42:01Z</time>
      </trkpt>
      <trkpt lat="45.31488" lon="5.75202">
        <ele>1708.2</ele>
        <time>2020-02-08T11:42:02Z</time>
      </trkpt>
      <trkpt lat="45.31488" lon="5.75202">
        <ele>1708.6</ele>
        <time>2020-02-08T11:42:03Z</time>
      </trkpt>
      <trkpt lat="45.31491" lon="5.75202">
        <ele>1708.2</ele>
        <time>2020-02-08T11:42:04Z</time>
      </trkpt>
      <trkpt lat="45.31491" lon="5.75202">
        <ele>1709</ele>
        <time>2020-02-08T11:42:05Z</time>
      </trkpt>
      <trkpt lat="45.31493" lon="5.75202">
        <ele>1709</ele>
        <time>2020-02-08T11:42:06Z</time>
      </trkpt>
      <trkpt lat="45.31493" lon="5.75202">
        <ele>1709</ele>
        <time>2020-02-08T11:42:07Z</time>
      </trkpt>
      <trkpt lat="45.31495" lon="5.75203">
        <ele>1709.8</ele>
        <time>2020-02-08T11:42:08Z</time>
      </trkpt>
      <trkpt lat="45.31495" lon="5.75203">
        <ele>1710</ele>
        <time>2020-02-08T11:42:09Z</time>
      </trkpt>
      <trkpt lat="45.31495" lon="5.75203">
        <ele>1709.8</ele>
        <time>2020-02-08T11:42:10Z</time>
      </trkpt>
      <trkpt lat="45.31497" lon="5.75203">
        <ele>1710.4</ele>
        <time>2020-02-08T11:42:11Z</time>
      </trkpt>
      <trkpt lat="45.31497" lon="5.75203">
        <ele>1710.6</ele>
        <time>2020-02-08T11:42:12Z</time>
      </trkpt>
      <trkpt lat="45.31499" lon="5.75204">
        <ele>1710.6</ele>
        <time>2020-02-08T11:42:13Z</time>
      </trkpt>
      <trkpt lat="45.31499" lon="5.75204">
        <ele>1711.4</ele>
        <time>2020-02-08T11:42:14Z</time>
      </trkpt>
      <trkpt lat="45.31499" lon="5.75204">
        <ele>1711.4</ele>
        <time>2020-02-08T11:42:15Z</time>
      </trkpt>
      <trkpt lat="45.31501" lon="5.75204">
        <ele>1711.4</ele>
        <time>2020-02-08T11:42:16Z</time>
      </trkpt>
      <trkpt lat="45.31501" lon="5.75204">
        <ele>1712</ele>
        <time>2020-02-08T11:42:17Z</time>
      </trkpt>
      <trkpt lat="45.31501" lon="5.75204">
        <ele>1712.2</ele>
        <time>2020-02-08T11:42:18Z</time>
      </trkpt>
      <trkpt lat="45.31504" lon="5.75205">
        <ele>1712.4</ele>
        <time>2020-02-08T11:42:19Z</time>
      </trkpt>
      <trkpt lat="45.31504" lon="5.75205">
        <ele>1712.6</ele>
        <time>2020-02-08T11:42:20Z</time>
      </trkpt>
      <trkpt lat="45.31506" lon="5.75206">
        <ele>1712.6</ele>
        <time>2020-02-08T11:42:21Z</time>
      </trkpt>
      <trkpt lat="45.31506" lon="5.75206">
        <ele>1713.2</ele>
        <time>2020-02-08T11:42:22Z</time>
      </trkpt>
      <trkpt lat="45.31508" lon="5.75207">
        <ele>1713.2</ele>
        <time>2020-02-08T11:42:23Z</time>
      </trkpt>
      <trkpt lat="45.31508" lon="5.75207">
        <ele>1714</ele>
        <time>2020-02-08T11:42:24Z</time>
      </trkpt>
      <trkpt lat="45.3151" lon="5.75207">
        <ele>1714</ele>
        <time>2020-02-08T11:42:25Z</time>
      </trkpt>
      <trkpt lat="45.3151" lon="5.75207">
        <ele>1713.8</ele>
        <time>2020-02-08T11:42:26Z</time>
      </trkpt>
      <trkpt lat="45.31512" lon="5.75208">
        <ele>1714.4</ele>
        <time>2020-02-08T11:42:27Z</time>
      </trkpt>
      <trkpt lat="45.31512" lon="5.75208">
        <ele>1714.4</ele>
        <time>2020-02-08T11:42:28Z</time>
      </trkpt>
      <trkpt lat="45.31512" lon="5.75208">
        <ele>1714.8</ele>
        <time>2020-02-08T11:42:29Z</time>
      </trkpt>
      <trkpt lat="45.31514" lon="5.75209">
        <ele>1715.2</ele>
        <time>2020-02-08T11:42:30Z</time>
      </trkpt>
      <trkpt lat="45.31514" lon="5.75209">
        <ele>1715.4</ele>
        <time>2020-02-08T11:42:31Z</time>
      </trkpt>
      <trkpt lat="45.31516" lon="5.75211">
        <ele>1715.8</ele>
        <time>2020-02-08T11:42:32Z</time>
      </trkpt>
      <trkpt lat="45.31516" lon="5.75211">
        <ele>1716</ele>
        <time>2020-02-08T11:42:33Z</time>
      </trkpt>
      <trkpt lat="45.31518" lon="5.75212">
        <ele>1716.4</ele>
        <time>2020-02-08T11:42:34Z</time>
      </trkpt>
      <trkpt lat="45.31518" lon="5.75212">
        <ele>1716.6</ele>
        <time>2020-02-08T11:42:35Z</time>
      </trkpt>
      <trkpt lat="45.3152" lon="5.75214">
        <ele>1717</ele>
        <time>2020-02-08T11:42:36Z</time>
      </trkpt>
      <trkpt lat="45.3152" lon="5.75214">
        <ele>1716.8</ele>
        <time>2020-02-08T11:42:37Z</time>
      </trkpt>
      <trkpt lat="45.31522" lon="5.75216">
        <ele>1717.2</ele>
        <time>2020-02-08T11:42:38Z</time>
      </trkpt>
      <trkpt lat="45.31522" lon="5.75216">
        <ele>1717.6</ele>
        <time>2020-02-08T11:42:39Z</time>
      </trkpt>
      <trkpt lat="45.31524" lon="5.75217">
        <ele>1717.6</ele>
        <time>2020-02-08T11:42:40Z</time>
      </trkpt>
      <trkpt lat="45.31524" lon="5.75217">
        <ele>1718.2</ele>
        <time>2020-02-08T11:42:41Z</time>
      </trkpt>
      <trkpt lat="45.31526" lon="5.75219">
        <ele>1718.4</ele>
        <time>2020-02-08T11:42:42Z</time>
      </trkpt>
      <trkpt lat="45.31526" lon="5.75219">
        <ele>1718.2</ele>
        <time>2020-02-08T11:42:43Z</time>
      </trkpt>
      <trkpt lat="45.31528" lon="5.75221">
        <ele>1718.8</ele>
        <time>2020-02-08T11:42:44Z</time>
      </trkpt>
      <trkpt lat="45.31528" lon="5.75221">
        <ele>1718.8</ele>
        <time>2020-02-08T11:42:45Z</time>
      </trkpt>
      <trkpt lat="45.3153" lon="5.75223">
        <ele>1719.4</ele>
        <time>2020-02-08T11:42:46Z</time>
      </trkpt>
      <trkpt lat="45.3153" lon="5.75223">
        <ele>1719.8</ele>
        <time>2020-02-08T11:42:47Z</time>
      </trkpt>
      <trkpt lat="45.31532" lon="5.75224">
        <ele>1719.4</ele>
        <time>2020-02-08T11:42:48Z</time>
      </trkpt>
      <trkpt lat="45.31532" lon="5.75224">
        <ele>1720.2</ele>
        <time>2020-02-08T11:42:49Z</time>
      </trkpt>
      <trkpt lat="45.31533" lon="5.75226">
        <ele>1720.2</ele>
        <time>2020-02-08T11:42:50Z</time>
      </trkpt>
      <trkpt lat="45.31533" lon="5.75226">
        <ele>1720.2</ele>
        <time>2020-02-08T11:42:51Z</time>
      </trkpt>
      <trkpt lat="45.31535" lon="5.75228">
        <ele>1720.8</ele>
        <time>2020-02-08T11:42:52Z</time>
      </trkpt>
      <trkpt lat="45.31535" lon="5.75228">
        <ele>1720.8</ele>
        <time>2020-02-08T11:42:53Z</time>
      </trkpt>
      <trkpt lat="45.31535" lon="5.75228">
        <ele>1720.8</ele>
        <time>2020-02-08T11:42:54Z</time>
      </trkpt>
      <trkpt lat="45.31537" lon="5.75231">
        <ele>1721.2</ele>
        <time>2020-02-08T11:42:55Z</time>
      </trkpt>
      <trkpt lat="45.31537" lon="5.75231">
        <ele>1721.2</ele>
        <time>2020-02-08T11:42:56Z</time>
      </trkpt>
      <trkpt lat="45.31537" lon="5.75231">
        <ele>1721.2</ele>
        <time>2020-02-08T11:42:57Z</time>
      </trkpt>
      <trkpt lat="45.31539" lon="5.75233">
        <ele>1721.4</ele>
        <time>2020-02-08T11:42:58Z</time>
      </trkpt>
      <trkpt lat="45.31539" lon="5.75233">
        <ele>1721.4</ele>
        <time>2020-02-08T11:42:59Z</time>
      </trkpt>
      <trkpt lat="45.3154" lon="5.75235">
        <ele>1721.8</ele>
        <time>2020-02-08T11:43:00Z</time>
      </trkpt>
      <trkpt lat="45.3154" lon="5.75235">
        <ele>1722</ele>
        <time>2020-02-08T11:43:01Z</time>
      </trkpt>
      <trkpt lat="45.3154" lon="5.75235">
        <ele>1722</ele>
        <time>2020-02-08T11:43:02Z</time>
      </trkpt>
      <trkpt lat="45.31543" lon="5.75237">
        <ele>1722.8</ele>
        <time>2020-02-08T11:43:03Z</time>
      </trkpt>
      <trkpt lat="45.31543" lon="5.75237">
        <ele>1723</ele>
        <time>2020-02-08T11:43:04Z</time>
      </trkpt>
      <trkpt lat="45.31543" lon="5.75237">
        <ele>1723</ele>
        <time>2020-02-08T11:43:05Z</time>
      </trkpt>
      <trkpt lat="45.31544" lon="5.7524">
        <ele>1723.4</ele>
        <time>2020-02-08T11:43:06Z</time>
      </trkpt>
      <trkpt lat="45.31544" lon="5.7524">
        <ele>1723.6</ele>
        <time>2020-02-08T11:43:07Z</time>
      </trkpt>
      <trkpt lat="45.31544" lon="5.7524">
        <ele>1723.6</ele>
        <time>2020-02-08T11:43:08Z</time>
      </trkpt>
      <trkpt lat="45.31545" lon="5.75243">
        <ele>1724</ele>
        <time>2020-02-08T11:43:09Z</time>
      </trkpt>
      <trkpt lat="45.31545" lon="5.75243">
        <ele>1724</ele>
        <time>2020-02-08T11:43:10Z</time>
      </trkpt>
      <trkpt lat="45.31545" lon="5.75243">
        <ele>1724.2</ele>
        <time>2020-02-08T11:43:11Z</time>
      </trkpt>
      <trkpt lat="45.31547" lon="5.75246">
        <ele>1724.8</ele>
        <time>2020-02-08T11:43:12Z</time>
      </trkpt>
      <trkpt lat="45.31547" lon="5.75246">
        <ele>1724.8</ele>
        <time>2020-02-08T11:43:13Z</time>
      </trkpt>
      <trkpt lat="45.31548" lon="5.75248">
        <ele>1725.4</ele>
        <time>2020-02-08T11:43:14Z</time>
      </trkpt>
      <trkpt lat="45.31548" lon="5.75248">
        <ele>1725.6</ele>
        <time>2020-02-08T11:43:15Z</time>
      </trkpt>
      <trkpt lat="45.31548" lon="5.75248">
        <ele>1726</ele>
        <time>2020-02-08T11:43:16Z</time>
      </trkpt>
      <trkpt lat="45.3155" lon="5.75251">
        <ele>1726.6</ele>
        <time>2020-02-08T11:43:17Z</time>
      </trkpt>
      <trkpt lat="45.3155" lon="5.75251">
        <ele>1726.8</ele>
        <time>2020-02-08T11:43:18Z</time>
      </trkpt>
      <trkpt lat="45.31551" lon="5.75252">
        <ele>1726.6</ele>
        <time>2020-02-08T11:43:19Z</time>
      </trkpt>
      <trkpt lat="45.31551" lon="5.75252">
        <ele>1727.2</ele>
        <time>2020-02-08T11:43:20Z</time>
      </trkpt>
      <trkpt lat="45.31553" lon="5.75254">
        <ele>1727.4</ele>
        <time>2020-02-08T11:43:21Z</time>
      </trkpt>
      <trkpt lat="45.31553" lon="5.75254">
        <ele>1727.4</ele>
        <time>2020-02-08T11:43:22Z</time>
      </trkpt>
      <trkpt lat="45.31555" lon="5.75256">
        <ele>1727.6</ele>
        <time>2020-02-08T11:43:23Z</time>
      </trkpt>
      <trkpt lat="45.31555" lon="5.75256">
        <ele>1727.4</ele>
        <time>2020-02-08T11:43:24Z</time>
      </trkpt>
      <trkpt lat="45.31555" lon="5.75256">
        <ele>1728</ele>
        <time>2020-02-08T11:43:25Z</time>
      </trkpt>
      <trkpt lat="45.31556" lon="5.75258">
        <ele>1728.4</ele>
        <time>2020-02-08T11:43:26Z</time>
      </trkpt>
      <trkpt lat="45.31556" lon="5.75258">
        <ele>1728.2</ele>
        <time>2020-02-08T11:43:27Z</time>
      </trkpt>
      <trkpt lat="45.31556" lon="5.75258">
        <ele>1727.8</ele>
        <time>2020-02-08T11:43:28Z</time>
      </trkpt>
      <trkpt lat="45.31557" lon="5.75256">
        <ele>1728</ele>
        <time>2020-02-08T11:43:29Z</time>
      </trkpt>
      <trkpt lat="45.31557" lon="5.75256">
        <ele>1728.4</ele>
        <time>2020-02-08T11:43:30Z</time>
      </trkpt>
      <trkpt lat="45.31559" lon="5.75253">
        <ele>1728.6</ele>
        <time>2020-02-08T11:43:31Z</time>
      </trkpt>
      <trkpt lat="45.31559" lon="5.75253">
        <ele>1728.8</ele>
        <time>2020-02-08T11:43:32Z</time>
      </trkpt>
      <trkpt lat="45.3156" lon="5.75251">
        <ele>1729.6</ele>
        <time>2020-02-08T11:43:33Z</time>
      </trkpt>
      <trkpt lat="45.3156" lon="5.75251">
        <ele>1729.8</ele>
        <time>2020-02-08T11:43:34Z</time>
      </trkpt>
      <trkpt lat="45.31562" lon="5.75251">
        <ele>1730</ele>
        <time>2020-02-08T11:43:35Z</time>
      </trkpt>
      <trkpt lat="45.31562" lon="5.75251">
        <ele>1730.6</ele>
        <time>2020-02-08T11:43:36Z</time>
      </trkpt>
      <trkpt lat="45.31562" lon="5.75251">
        <ele>1730.8</ele>
        <time>2020-02-08T11:43:37Z</time>
      </trkpt>
      <trkpt lat="45.31564" lon="5.75253">
        <ele>1730.8</ele>
        <time>2020-02-08T11:43:38Z</time>
      </trkpt>
      <trkpt lat="45.31564" lon="5.75253">
        <ele>1731.4</ele>
        <time>2020-02-08T11:43:39Z</time>
      </trkpt>
      <trkpt lat="45.31564" lon="5.75253">
        <ele>1731.6</ele>
        <time>2020-02-08T11:43:40Z</time>
      </trkpt>
      <trkpt lat="45.31566" lon="5.75254">
        <ele>1732</ele>
        <time>2020-02-08T11:43:41Z</time>
      </trkpt>
      <trkpt lat="45.31566" lon="5.75254">
        <ele>1732.2</ele>
        <time>2020-02-08T11:43:42Z</time>
      </trkpt>
      <trkpt lat="45.31568" lon="5.75256">
        <ele>1732.2</ele>
        <time>2020-02-08T11:43:43Z</time>
      </trkpt>
      <trkpt lat="45.31568" lon="5.75256">
        <ele>1733.2</ele>
        <time>2020-02-08T11:43:44Z</time>
      </trkpt>
      <trkpt lat="45.31569" lon="5.75257">
        <ele>1733.2</ele>
        <time>2020-02-08T11:43:45Z</time>
      </trkpt>
      <trkpt lat="45.31569" lon="5.75257">
        <ele>1733.4</ele>
        <time>2020-02-08T11:43:46Z</time>
      </trkpt>
      <trkpt lat="45.31571" lon="5.75258">
        <ele>1733.8</ele>
        <time>2020-02-08T11:43:47Z</time>
      </trkpt>
      <trkpt lat="45.31571" lon="5.75258">
        <ele>1734</ele>
        <time>2020-02-08T11:43:48Z</time>
      </trkpt>
      <trkpt lat="45.31571" lon="5.75258">
        <ele>1734</ele>
        <time>2020-02-08T11:43:49Z</time>
      </trkpt>
      <trkpt lat="45.31573" lon="5.75261">
        <ele>1734.2</ele>
        <time>2020-02-08T11:43:50Z</time>
      </trkpt>
      <trkpt lat="45.31573" lon="5.75261">
        <ele>1734</ele>
        <time>2020-02-08T11:43:51Z</time>
      </trkpt>
      <trkpt lat="45.31575" lon="5.75262">
        <ele>1734.4</ele>
        <time>2020-02-08T11:43:52Z</time>
      </trkpt>
      <trkpt lat="45.31575" lon="5.75262">
        <ele>1734.8</ele>
        <time>2020-02-08T11:43:53Z</time>
      </trkpt>
      <trkpt lat="45.31575" lon="5.75262">
        <ele>1734.8</ele>
        <time>2020-02-08T11:43:54Z</time>
      </trkpt>
      <trkpt lat="45.31577" lon="5.75264">
        <ele>1735.4</ele>
        <time>2020-02-08T11:43:55Z</time>
      </trkpt>
      <trkpt lat="45.31577" lon="5.75264">
        <ele>1735.8</ele>
        <time>2020-02-08T11:43:56Z</time>
      </trkpt>
      <trkpt lat="45.31579" lon="5.75266">
        <ele>1735.6</ele>
        <time>2020-02-08T11:43:57Z</time>
      </trkpt>
      <trkpt lat="45.31579" lon="5.75266">
        <ele>1736.4</ele>
        <time>2020-02-08T11:43:58Z</time>
      </trkpt>
      <trkpt lat="45.31581" lon="5.75267">
        <ele>1736.6</ele>
        <time>2020-02-08T11:43:59Z</time>
      </trkpt>
      <trkpt lat="45.31581" lon="5.75267">
        <ele>1736.4</ele>
        <time>2020-02-08T11:44:00Z</time>
      </trkpt>
      <trkpt lat="45.31582" lon="5.75268">
        <ele>1736.6</ele>
        <time>2020-02-08T11:44:01Z</time>
      </trkpt>
      <trkpt lat="45.31582" lon="5.75268">
        <ele>1737</ele>
        <time>2020-02-08T11:44:02Z</time>
      </trkpt>
      <trkpt lat="45.31584" lon="5.7527">
        <ele>1737.4</ele>
        <time>2020-02-08T11:44:03Z</time>
      </trkpt>
      <trkpt lat="45.31584" lon="5.7527">
        <ele>1737.6</ele>
        <time>2020-02-08T11:44:04Z</time>
      </trkpt>
      <trkpt lat="45.31586" lon="5.75272">
        <ele>1737.8</ele>
        <time>2020-02-08T11:44:05Z</time>
      </trkpt>
      <trkpt lat="45.31586" lon="5.75272">
        <ele>1737.8</ele>
        <time>2020-02-08T11:44:06Z</time>
      </trkpt>
      <trkpt lat="45.31587" lon="5.75274">
        <ele>1737.8</ele>
        <time>2020-02-08T11:44:07Z</time>
      </trkpt>
      <trkpt lat="45.31587" lon="5.75274">
        <ele>1738.4</ele>
        <time>2020-02-08T11:44:08Z</time>
      </trkpt>
      <trkpt lat="45.31589" lon="5.75276">
        <ele>1738</ele>
        <time>2020-02-08T11:44:09Z</time>
      </trkpt>
      <trkpt lat="45.31589" lon="5.75276">
        <ele>1738.4</ele>
        <time>2020-02-08T11:44:10Z</time>
      </trkpt>
      <trkpt lat="45.31591" lon="5.75278">
        <ele>1739</ele>
        <time>2020-02-08T11:44:11Z</time>
      </trkpt>
      <trkpt lat="45.31591" lon="5.75278">
        <ele>1738.8</ele>
        <time>2020-02-08T11:44:12Z</time>
      </trkpt>
      <trkpt lat="45.31593" lon="5.7528">
        <ele>1739.4</ele>
        <time>2020-02-08T11:44:13Z</time>
      </trkpt>
      <trkpt lat="45.31593" lon="5.7528">
        <ele>1739.6</ele>
        <time>2020-02-08T11:44:14Z</time>
      </trkpt>
      <trkpt lat="45.31594" lon="5.75281">
        <ele>1740</ele>
        <time>2020-02-08T11:44:15Z</time>
      </trkpt>
      <trkpt lat="45.31594" lon="5.75281">
        <ele>1740.4</ele>
        <time>2020-02-08T11:44:16Z</time>
      </trkpt>
      <trkpt lat="45.31596" lon="5.75283">
        <ele>1740.8</ele>
        <time>2020-02-08T11:44:17Z</time>
      </trkpt>
      <trkpt lat="45.31596" lon="5.75283">
        <ele>1740.6</ele>
        <time>2020-02-08T11:44:18Z</time>
      </trkpt>
      <trkpt lat="45.31597" lon="5.75284">
        <ele>1741</ele>
        <time>2020-02-08T11:44:19Z</time>
      </trkpt>
      <trkpt lat="45.31597" lon="5.75284">
        <ele>1741</ele>
        <time>2020-02-08T11:44:20Z</time>
      </trkpt>
      <trkpt lat="45.31599" lon="5.75285">
        <ele>1741.4</ele>
        <time>2020-02-08T11:44:21Z</time>
      </trkpt>
      <trkpt lat="45.31599" lon="5.75285">
        <ele>1741.6</ele>
        <time>2020-02-08T11:44:22Z</time>
      </trkpt>
      <trkpt lat="45.31599" lon="5.75285">
        <ele>1741.6</ele>
        <time>2020-02-08T11:44:23Z</time>
      </trkpt>
      <trkpt lat="45.31602" lon="5.75287">
        <ele>1742.2</ele>
        <time>2020-02-08T11:44:24Z</time>
      </trkpt>
      <trkpt lat="45.31602" lon="5.75287">
        <ele>1742.6</ele>
        <time>2020-02-08T11:44:25Z</time>
      </trkpt>
      <trkpt lat="45.31602" lon="5.75287">
        <ele>1742.6</ele>
        <time>2020-02-08T11:44:26Z</time>
      </trkpt>
      <trkpt lat="45.31604" lon="5.75289">
        <ele>1743</ele>
        <time>2020-02-08T11:44:27Z</time>
      </trkpt>
      <trkpt lat="45.31604" lon="5.75289">
        <ele>1743.2</ele>
        <time>2020-02-08T11:44:28Z</time>
      </trkpt>
      <trkpt lat="45.31606" lon="5.7529">
        <ele>1743.6</ele>
        <time>2020-02-08T11:44:29Z</time>
      </trkpt>
      <trkpt lat="45.31606" lon="5.7529">
        <ele>1743.8</ele>
        <time>2020-02-08T11:44:30Z</time>
      </trkpt>
      <trkpt lat="45.31608" lon="5.75292">
        <ele>1744.2</ele>
        <time>2020-02-08T11:44:31Z</time>
      </trkpt>
      <trkpt lat="45.31608" lon="5.75292">
        <ele>1744.4</ele>
        <time>2020-02-08T11:44:32Z</time>
      </trkpt>
      <trkpt lat="45.31608" lon="5.75292">
        <ele>1744.6</ele>
        <time>2020-02-08T11:44:33Z</time>
      </trkpt>
      <trkpt lat="45.3161" lon="5.75293">
        <ele>1745.2</ele>
        <time>2020-02-08T11:44:34Z</time>
      </trkpt>
      <trkpt lat="45.3161" lon="5.75293">
        <ele>1745.2</ele>
        <time>2020-02-08T11:44:35Z</time>
      </trkpt>
      <trkpt lat="45.3161" lon="5.75293">
        <ele>1745.6</ele>
        <time>2020-02-08T11:44:36Z</time>
      </trkpt>
      <trkpt lat="45.31612" lon="5.75294">
        <ele>1746</ele>
        <time>2020-02-08T11:44:37Z</time>
      </trkpt>
      <trkpt lat="45.31612" lon="5.75294">
        <ele>1745.8</ele>
        <time>2020-02-08T11:44:38Z</time>
      </trkpt>
      <trkpt lat="45.31614" lon="5.75295">
        <ele>1746.6</ele>
        <time>2020-02-08T11:44:39Z</time>
      </trkpt>
      <trkpt lat="45.31614" lon="5.75295">
        <ele>1746.8</ele>
        <time>2020-02-08T11:44:40Z</time>
      </trkpt>
      <trkpt lat="45.31614" lon="5.75295">
        <ele>1747.4</ele>
        <time>2020-02-08T11:44:41Z</time>
      </trkpt>
      <trkpt lat="45.31616" lon="5.75296">
        <ele>1747.2</ele>
        <time>2020-02-08T11:44:42Z</time>
      </trkpt>
      <trkpt lat="45.31616" lon="5.75296">
        <ele>1747.6</ele>
        <time>2020-02-08T11:44:43Z</time>
      </trkpt>
      <trkpt lat="45.31618" lon="5.75297">
        <ele>1748</ele>
        <time>2020-02-08T11:44:44Z</time>
      </trkpt>
      <trkpt lat="45.31618" lon="5.75297">
        <ele>1748</ele>
        <time>2020-02-08T11:44:45Z</time>
      </trkpt>
      <trkpt lat="45.3162" lon="5.75299">
        <ele>1748.4</ele>
        <time>2020-02-08T11:44:46Z</time>
      </trkpt>
      <trkpt lat="45.3162" lon="5.75299">
        <ele>1748.4</ele>
        <time>2020-02-08T11:44:47Z</time>
      </trkpt>
      <trkpt lat="45.31622" lon="5.75301">
        <ele>1748.8</ele>
        <time>2020-02-08T11:44:48Z</time>
      </trkpt>
      <trkpt lat="45.31622" lon="5.75301">
        <ele>1749</ele>
        <time>2020-02-08T11:44:49Z</time>
      </trkpt>
      <trkpt lat="45.31624" lon="5.75302">
        <ele>1748.8</ele>
        <time>2020-02-08T11:44:50Z</time>
      </trkpt>
      <trkpt lat="45.31624" lon="5.75302">
        <ele>1749.2</ele>
        <time>2020-02-08T11:44:51Z</time>
      </trkpt>
      <trkpt lat="45.31625" lon="5.75304">
        <ele>1749.6</ele>
        <time>2020-02-08T11:44:52Z</time>
      </trkpt>
      <trkpt lat="45.31625" lon="5.75304">
        <ele>1749.4</ele>
        <time>2020-02-08T11:44:53Z</time>
      </trkpt>
      <trkpt lat="45.31628" lon="5.75305">
        <ele>1749.4</ele>
        <time>2020-02-08T11:44:54Z</time>
      </trkpt>
      <trkpt lat="45.31628" lon="5.75305">
        <ele>1749.6</ele>
        <time>2020-02-08T11:44:55Z</time>
      </trkpt>
      <trkpt lat="45.3163" lon="5.75307">
        <ele>1750</ele>
        <time>2020-02-08T11:44:56Z</time>
      </trkpt>
      <trkpt lat="45.3163" lon="5.75307">
        <ele>1750.2</ele>
        <time>2020-02-08T11:44:57Z</time>
      </trkpt>
      <trkpt lat="45.31633" lon="5.75307">
        <ele>1750.2</ele>
        <time>2020-02-08T11:44:58Z</time>
      </trkpt>
      <trkpt lat="45.31633" lon="5.75307">
        <ele>1750.6</ele>
        <time>2020-02-08T11:44:59Z</time>
      </trkpt>
      <trkpt lat="45.31635" lon="5.75308">
        <ele>1750.8</ele>
        <time>2020-02-08T11:45:00Z</time>
      </trkpt>
      <trkpt lat="45.31635" lon="5.75308">
        <ele>1750.6</ele>
        <time>2020-02-08T11:45:01Z</time>
      </trkpt>
      <trkpt lat="45.31637" lon="5.75308">
        <ele>1751.2</ele>
        <time>2020-02-08T11:45:02Z</time>
      </trkpt>
      <trkpt lat="45.31637" lon="5.75308">
        <ele>1751.2</ele>
        <time>2020-02-08T11:45:03Z</time>
      </trkpt>
      <trkpt lat="45.31639" lon="5.75307">
        <ele>1751.6</ele>
        <time>2020-02-08T11:45:04Z</time>
      </trkpt>
      <trkpt lat="45.31639" lon="5.75307">
        <ele>1751.4</ele>
        <time>2020-02-08T11:45:05Z</time>
      </trkpt>
      <trkpt lat="45.31641" lon="5.75306">
        <ele>1752</ele>
        <time>2020-02-08T11:45:06Z</time>
      </trkpt>
      <trkpt lat="45.31641" lon="5.75306">
        <ele>1752</ele>
        <time>2020-02-08T11:45:07Z</time>
      </trkpt>
      <trkpt lat="45.31642" lon="5.75305">
        <ele>1752.2</ele>
        <time>2020-02-08T11:45:08Z</time>
      </trkpt>
      <trkpt lat="45.31642" lon="5.75305">
        <ele>1752.8</ele>
        <time>2020-02-08T11:45:09Z</time>
      </trkpt>
      <trkpt lat="45.31642" lon="5.75305">
        <ele>1753.2</ele>
        <time>2020-02-08T11:45:10Z</time>
      </trkpt>
      <trkpt lat="45.31644" lon="5.75303">
        <ele>1753.2</ele>
        <time>2020-02-08T11:45:11Z</time>
      </trkpt>
      <trkpt lat="45.31644" lon="5.75303">
        <ele>1753.8</ele>
        <time>2020-02-08T11:45:12Z</time>
      </trkpt>
      <trkpt lat="45.31644" lon="5.75303">
        <ele>1753.8</ele>
        <time>2020-02-08T11:45:13Z</time>
      </trkpt>
      <trkpt lat="45.31645" lon="5.75299">
        <ele>1754</ele>
        <time>2020-02-08T11:45:14Z</time>
      </trkpt>
      <trkpt lat="45.31645" lon="5.75299">
        <ele>1754.2</ele>
        <time>2020-02-08T11:45:15Z</time>
      </trkpt>
      <trkpt lat="45.31646" lon="5.75296">
        <ele>1755</ele>
        <time>2020-02-08T11:45:16Z</time>
      </trkpt>
      <trkpt lat="45.31646" lon="5.75296">
        <ele>1754.8</ele>
        <time>2020-02-08T11:45:17Z</time>
      </trkpt>
      <trkpt lat="45.31646" lon="5.75293">
        <ele>1754.8</ele>
        <time>2020-02-08T11:45:18Z</time>
      </trkpt>
      <trkpt lat="45.31646" lon="5.75293">
        <ele>1755</ele>
        <time>2020-02-08T11:45:19Z</time>
      </trkpt>
      <trkpt lat="45.31646" lon="5.75289">
        <ele>1755.4</ele>
        <time>2020-02-08T11:45:20Z</time>
      </trkpt>
      <trkpt lat="45.31646" lon="5.75289">
        <ele>1755.4</ele>
        <time>2020-02-08T11:45:21Z</time>
      </trkpt>
      <trkpt lat="45.31646" lon="5.75285">
        <ele>1755.8</ele>
        <time>2020-02-08T11:45:22Z</time>
      </trkpt>
      <trkpt lat="45.31646" lon="5.75285">
        <ele>1756</ele>
        <time>2020-02-08T11:45:23Z</time>
      </trkpt>
      <trkpt lat="45.31646" lon="5.75283">
        <ele>1756.4</ele>
        <time>2020-02-08T11:45:24Z</time>
      </trkpt>
      <trkpt lat="45.31646" lon="5.75283">
        <ele>1756.4</ele>
        <time>2020-02-08T11:45:25Z</time>
      </trkpt>
      <trkpt lat="45.31646" lon="5.7528">
        <ele>1756.6</ele>
        <time>2020-02-08T11:45:26Z</time>
      </trkpt>
      <trkpt lat="45.31646" lon="5.7528">
        <ele>1756.6</ele>
        <time>2020-02-08T11:45:27Z</time>
      </trkpt>
      <trkpt lat="45.31646" lon="5.7528">
        <ele>1756.6</ele>
        <time>2020-02-08T11:45:28Z</time>
      </trkpt>
      <trkpt lat="45.31646" lon="5.75276">
        <ele>1757.2</ele>
        <time>2020-02-08T11:45:29Z</time>
      </trkpt>
      <trkpt lat="45.31646" lon="5.75276">
        <ele>1757.4</ele>
        <time>2020-02-08T11:45:30Z</time>
      </trkpt>
      <trkpt lat="45.31646" lon="5.75276">
        <ele>1757.4</ele>
        <time>2020-02-08T11:45:31Z</time>
      </trkpt>
      <trkpt lat="45.31646" lon="5.75272">
        <ele>1757.6</ele>
        <time>2020-02-08T11:45:32Z</time>
      </trkpt>
      <trkpt lat="45.31646" lon="5.75272">
        <ele>1757.4</ele>
        <time>2020-02-08T11:45:33Z</time>
      </trkpt>
      <trkpt lat="45.31646" lon="5.7527">
        <ele>1757.8</ele>
        <time>2020-02-08T11:45:34Z</time>
      </trkpt>
      <trkpt lat="45.31646" lon="5.7527">
        <ele>1758.2</ele>
        <time>2020-02-08T11:45:35Z</time>
      </trkpt>
      <trkpt lat="45.31648" lon="5.75267">
        <ele>1758.4</ele>
        <time>2020-02-08T11:45:36Z</time>
      </trkpt>
      <trkpt lat="45.31648" lon="5.75267">
        <ele>1759.4</ele>
        <time>2020-02-08T11:45:37Z</time>
      </trkpt>
      <trkpt lat="45.31648" lon="5.75267">
        <ele>1759.6</ele>
        <time>2020-02-08T11:45:38Z</time>
      </trkpt>
      <trkpt lat="45.3165" lon="5.75267">
        <ele>1760.6</ele>
        <time>2020-02-08T11:45:39Z</time>
      </trkpt>
      <trkpt lat="45.3165" lon="5.75267">
        <ele>1760.8</ele>
        <time>2020-02-08T11:45:40Z</time>
      </trkpt>
      <trkpt lat="45.31652" lon="5.75268">
        <ele>1760.6</ele>
        <time>2020-02-08T11:45:41Z</time>
      </trkpt>
      <trkpt lat="45.31652" lon="5.75268">
        <ele>1761.4</ele>
        <time>2020-02-08T11:45:42Z</time>
      </trkpt>
      <trkpt lat="45.31654" lon="5.75269">
        <ele>1761.6</ele>
        <time>2020-02-08T11:45:43Z</time>
      </trkpt>
      <trkpt lat="45.31654" lon="5.75269">
        <ele>1762.2</ele>
        <time>2020-02-08T11:45:44Z</time>
      </trkpt>
      <trkpt lat="45.31656" lon="5.7527">
        <ele>1762.4</ele>
        <time>2020-02-08T11:45:45Z</time>
      </trkpt>
      <trkpt lat="45.31656" lon="5.7527">
        <ele>1762.2</ele>
        <time>2020-02-08T11:45:46Z</time>
      </trkpt>
      <trkpt lat="45.31656" lon="5.7527">
        <ele>1762.8</ele>
        <time>2020-02-08T11:45:47Z</time>
      </trkpt>
      <trkpt lat="45.31658" lon="5.75272">
        <ele>1762.8</ele>
        <time>2020-02-08T11:45:48Z</time>
      </trkpt>
      <trkpt lat="45.31658" lon="5.75272">
        <ele>1763.2</ele>
        <time>2020-02-08T11:45:49Z</time>
      </trkpt>
      <trkpt lat="45.3166" lon="5.75274">
        <ele>1763</ele>
        <time>2020-02-08T11:45:50Z</time>
      </trkpt>
      <trkpt lat="45.3166" lon="5.75274">
        <ele>1763.2</ele>
        <time>2020-02-08T11:45:51Z</time>
      </trkpt>
      <trkpt lat="45.31662" lon="5.75276">
        <ele>1763.4</ele>
        <time>2020-02-08T11:45:52Z</time>
      </trkpt>
      <trkpt lat="45.31662" lon="5.75276">
        <ele>1763.6</ele>
        <time>2020-02-08T11:45:53Z</time>
      </trkpt>
      <trkpt lat="45.31664" lon="5.75278">
        <ele>1764.2</ele>
        <time>2020-02-08T11:45:54Z</time>
      </trkpt>
      <trkpt lat="45.31664" lon="5.75278">
        <ele>1764</ele>
        <time>2020-02-08T11:45:55Z</time>
      </trkpt>
      <trkpt lat="45.31666" lon="5.7528">
        <ele>1764.4</ele>
        <time>2020-02-08T11:45:56Z</time>
      </trkpt>
      <trkpt lat="45.31666" lon="5.7528">
        <ele>1764.8</ele>
        <time>2020-02-08T11:45:57Z</time>
      </trkpt>
      <trkpt lat="45.31668" lon="5.75282">
        <ele>1765</ele>
        <time>2020-02-08T11:45:58Z</time>
      </trkpt>
      <trkpt lat="45.31668" lon="5.75282">
        <ele>1765.2</ele>
        <time>2020-02-08T11:45:59Z</time>
      </trkpt>
      <trkpt lat="45.31671" lon="5.75284">
        <ele>1765.2</ele>
        <time>2020-02-08T11:46:00Z</time>
      </trkpt>
      <trkpt lat="45.31671" lon="5.75284">
        <ele>1765.2</ele>
        <time>2020-02-08T11:46:01Z</time>
      </trkpt>
      <trkpt lat="45.31673" lon="5.75286">
        <ele>1765.8</ele>
        <time>2020-02-08T11:46:02Z</time>
      </trkpt>
      <trkpt lat="45.31673" lon="5.75286">
        <ele>1765.8</ele>
        <time>2020-02-08T11:46:03Z</time>
      </trkpt>
      <trkpt lat="45.31675" lon="5.75287">
        <ele>1766</ele>
        <time>2020-02-08T11:46:04Z</time>
      </trkpt>
      <trkpt lat="45.31675" lon="5.75287">
        <ele>1766.2</ele>
        <time>2020-02-08T11:46:05Z</time>
      </trkpt>
      <trkpt lat="45.31678" lon="5.75287">
        <ele>1766.2</ele>
        <time>2020-02-08T11:46:06Z</time>
      </trkpt>
      <trkpt lat="45.31678" lon="5.75287">
        <ele>1766.2</ele>
        <time>2020-02-08T11:46:07Z</time>
      </trkpt>
      <trkpt lat="45.3168" lon="5.75288">
        <ele>1766.6</ele>
        <time>2020-02-08T11:46:08Z</time>
      </trkpt>
      <trkpt lat="45.3168" lon="5.75288">
        <ele>1766.6</ele>
        <time>2020-02-08T11:46:09Z</time>
      </trkpt>
      <trkpt lat="45.31683" lon="5.75288">
        <ele>1766.4</ele>
        <time>2020-02-08T11:46:10Z</time>
      </trkpt>
      <trkpt lat="45.31683" lon="5.75288">
        <ele>1766.8</ele>
        <time>2020-02-08T11:46:11Z</time>
      </trkpt>
      <trkpt lat="45.31686" lon="5.75289">
        <ele>1766.8</ele>
        <time>2020-02-08T11:46:12Z</time>
      </trkpt>
      <trkpt lat="45.31686" lon="5.75289">
        <ele>1767.2</ele>
        <time>2020-02-08T11:46:13Z</time>
      </trkpt>
      <trkpt lat="45.31688" lon="5.75289">
        <ele>1767.2</ele>
        <time>2020-02-08T11:46:14Z</time>
      </trkpt>
      <trkpt lat="45.31688" lon="5.75289">
        <ele>1767.6</ele>
        <time>2020-02-08T11:46:15Z</time>
      </trkpt>
      <trkpt lat="45.31691" lon="5.7529">
        <ele>1767.8</ele>
        <time>2020-02-08T11:46:16Z</time>
      </trkpt>
      <trkpt lat="45.31691" lon="5.7529">
        <ele>1767.4</ele>
        <time>2020-02-08T11:46:17Z</time>
      </trkpt>
      <trkpt lat="45.31693" lon="5.7529">
        <ele>1767.8</ele>
        <time>2020-02-08T11:46:18Z</time>
      </trkpt>
      <trkpt lat="45.31693" lon="5.7529">
        <ele>1767.6</ele>
        <time>2020-02-08T11:46:19Z</time>
      </trkpt>
      <trkpt lat="45.31696" lon="5.75289">
        <ele>1768.6</ele>
        <time>2020-02-08T11:46:20Z</time>
      </trkpt>
      <trkpt lat="45.31696" lon="5.75289">
        <ele>1768.6</ele>
        <time>2020-02-08T11:46:21Z</time>
      </trkpt>
      <trkpt lat="45.31699" lon="5.75289">
        <ele>1768.8</ele>
        <time>2020-02-08T11:46:22Z</time>
      </trkpt>
      <trkpt lat="45.31699" lon="5.75289">
        <ele>1769.4</ele>
        <time>2020-02-08T11:46:23Z</time>
      </trkpt>
      <trkpt lat="45.31701" lon="5.7529">
        <ele>1769.2</ele>
        <time>2020-02-08T11:46:24Z</time>
      </trkpt>
      <trkpt lat="45.31701" lon="5.7529">
        <ele>1769.8</ele>
        <time>2020-02-08T11:46:25Z</time>
      </trkpt>
      <trkpt lat="45.31703" lon="5.7529">
        <ele>1770</ele>
        <time>2020-02-08T11:46:26Z</time>
      </trkpt>
      <trkpt lat="45.31703" lon="5.7529">
        <ele>1770</ele>
        <time>2020-02-08T11:46:27Z</time>
      </trkpt>
      <trkpt lat="45.31706" lon="5.7529">
        <ele>1770.8</ele>
        <time>2020-02-08T11:46:28Z</time>
      </trkpt>
      <trkpt lat="45.31706" lon="5.7529">
        <ele>1771</ele>
        <time>2020-02-08T11:46:29Z</time>
      </trkpt>
      <trkpt lat="45.31709" lon="5.7529">
        <ele>1770.8</ele>
        <time>2020-02-08T11:46:30Z</time>
      </trkpt>
      <trkpt lat="45.31709" lon="5.7529">
        <ele>1771.4</ele>
        <time>2020-02-08T11:46:31Z</time>
      </trkpt>
      <trkpt lat="45.31712" lon="5.75289">
        <ele>1771.8</ele>
        <time>2020-02-08T11:46:32Z</time>
      </trkpt>
      <trkpt lat="45.31712" lon="5.75289">
        <ele>1771.8</ele>
        <time>2020-02-08T11:46:33Z</time>
      </trkpt>
      <trkpt lat="45.31715" lon="5.7529">
        <ele>1771.6</ele>
        <time>2020-02-08T11:46:34Z</time>
      </trkpt>
      <trkpt lat="45.31715" lon="5.7529">
        <ele>1771.4</ele>
        <time>2020-02-08T11:46:35Z</time>
      </trkpt>
      <trkpt lat="45.31718" lon="5.75289">
        <ele>1771.4</ele>
        <time>2020-02-08T11:46:36Z</time>
      </trkpt>
      <trkpt lat="45.31718" lon="5.75289">
        <ele>1772</ele>
        <time>2020-02-08T11:46:37Z</time>
      </trkpt>
      <trkpt lat="45.31721" lon="5.75289">
        <ele>1772</ele>
        <time>2020-02-08T11:46:38Z</time>
      </trkpt>
      <trkpt lat="45.31721" lon="5.75289">
        <ele>1772</ele>
        <time>2020-02-08T11:46:39Z</time>
      </trkpt>
      <trkpt lat="45.31724" lon="5.75289">
        <ele>1772</ele>
        <time>2020-02-08T11:46:40Z</time>
      </trkpt>
      <trkpt lat="45.31724" lon="5.75289">
        <ele>1772.2</ele>
        <time>2020-02-08T11:46:41Z</time>
      </trkpt>
      <trkpt lat="45.31726" lon="5.7529">
        <ele>1772.4</ele>
        <time>2020-02-08T11:46:42Z</time>
      </trkpt>
      <trkpt lat="45.31726" lon="5.7529">
        <ele>1773.2</ele>
        <time>2020-02-08T11:46:43Z</time>
      </trkpt>
      <trkpt lat="45.31729" lon="5.7529">
        <ele>1773.6</ele>
        <time>2020-02-08T11:46:44Z</time>
      </trkpt>
      <trkpt lat="45.31729" lon="5.7529">
        <ele>1773.8</ele>
        <time>2020-02-08T11:46:45Z</time>
      </trkpt>
      <trkpt lat="45.31732" lon="5.7529">
        <ele>1774</ele>
        <time>2020-02-08T11:46:46Z</time>
      </trkpt>
      <trkpt lat="45.31732" lon="5.7529">
        <ele>1774.6</ele>
        <time>2020-02-08T11:46:47Z</time>
      </trkpt>
      <trkpt lat="45.31735" lon="5.7529">
        <ele>1774.6</ele>
        <time>2020-02-08T11:46:48Z</time>
      </trkpt>
      <trkpt lat="45.31735" lon="5.7529">
        <ele>1774.4</ele>
        <time>2020-02-08T11:46:49Z</time>
      </trkpt>
      <trkpt lat="45.31738" lon="5.75292">
        <ele>1774.4</ele>
        <time>2020-02-08T11:46:50Z</time>
      </trkpt>
      <trkpt lat="45.31738" lon="5.75292">
        <ele>1774.6</ele>
        <time>2020-02-08T11:46:51Z</time>
      </trkpt>
      <trkpt lat="45.31741" lon="5.75293">
        <ele>1774.8</ele>
        <time>2020-02-08T11:46:52Z</time>
      </trkpt>
      <trkpt lat="45.31741" lon="5.75293">
        <ele>1774.6</ele>
        <time>2020-02-08T11:46:53Z</time>
      </trkpt>
      <trkpt lat="45.31744" lon="5.75294">
        <ele>1774.8</ele>
        <time>2020-02-08T11:46:54Z</time>
      </trkpt>
      <trkpt lat="45.31744" lon="5.75294">
        <ele>1775.2</ele>
        <time>2020-02-08T11:46:55Z</time>
      </trkpt>
      <trkpt lat="45.31746" lon="5.75296">
        <ele>1775.4</ele>
        <time>2020-02-08T11:46:56Z</time>
      </trkpt>
      <trkpt lat="45.31746" lon="5.75296">
        <ele>1775.4</ele>
        <time>2020-02-08T11:46:57Z</time>
      </trkpt>
      <trkpt lat="45.31748" lon="5.75297">
        <ele>1775.6</ele>
        <time>2020-02-08T11:46:58Z</time>
      </trkpt>
      <trkpt lat="45.31748" lon="5.75297">
        <ele>1775.8</ele>
        <time>2020-02-08T11:46:59Z</time>
      </trkpt>
      <trkpt lat="45.31751" lon="5.75298">
        <ele>1775.6</ele>
        <time>2020-02-08T11:47:00Z</time>
      </trkpt>
      <trkpt lat="45.31751" lon="5.75298">
        <ele>1775.6</ele>
        <time>2020-02-08T11:47:01Z</time>
      </trkpt>
      <trkpt lat="45.31753" lon="5.75299">
        <ele>1775.6</ele>
        <time>2020-02-08T11:47:02Z</time>
      </trkpt>
      <trkpt lat="45.31753" lon="5.75299">
        <ele>1776</ele>
        <time>2020-02-08T11:47:03Z</time>
      </trkpt>
      <trkpt lat="45.31756" lon="5.753">
        <ele>1775.6</ele>
        <time>2020-02-08T11:47:04Z</time>
      </trkpt>
      <trkpt lat="45.31756" lon="5.753">
        <ele>1775.6</ele>
        <time>2020-02-08T11:47:05Z</time>
      </trkpt>
      <trkpt lat="45.31759" lon="5.75301">
        <ele>1775.6</ele>
        <time>2020-02-08T11:47:06Z</time>
      </trkpt>
      <trkpt lat="45.31759" lon="5.75301">
        <ele>1775.4</ele>
        <time>2020-02-08T11:47:07Z</time>
      </trkpt>
      <trkpt lat="45.31762" lon="5.75303">
        <ele>1775.4</ele>
        <time>2020-02-08T11:47:08Z</time>
      </trkpt>
      <trkpt lat="45.31762" lon="5.75303">
        <ele>1775.4</ele>
        <time>2020-02-08T11:47:09Z</time>
      </trkpt>
      <trkpt lat="45.31764" lon="5.75304">
        <ele>1775.4</ele>
        <time>2020-02-08T11:47:10Z</time>
      </trkpt>
      <trkpt lat="45.31764" lon="5.75304">
        <ele>1775.4</ele>
        <time>2020-02-08T11:47:11Z</time>
      </trkpt>
      <trkpt lat="45.31767" lon="5.75306">
        <ele>1775.4</ele>
        <time>2020-02-08T11:47:12Z</time>
      </trkpt>
      <trkpt lat="45.31767" lon="5.75306">
        <ele>1775.6</ele>
        <time>2020-02-08T11:47:13Z</time>
      </trkpt>
      <trkpt lat="45.3177" lon="5.75307">
        <ele>1775.6</ele>
        <time>2020-02-08T11:47:14Z</time>
      </trkpt>
      <trkpt lat="45.3177" lon="5.75307">
        <ele>1775.8</ele>
        <time>2020-02-08T11:47:15Z</time>
      </trkpt>
      <trkpt lat="45.31773" lon="5.75308">
        <ele>1775.4</ele>
        <time>2020-02-08T11:47:16Z</time>
      </trkpt>
      <trkpt lat="45.31773" lon="5.75308">
        <ele>1775.6</ele>
        <time>2020-02-08T11:47:17Z</time>
      </trkpt>
      <trkpt lat="45.31775" lon="5.75308">
        <ele>1775.8</ele>
        <time>2020-02-08T11:47:18Z</time>
      </trkpt>
      <trkpt lat="45.31775" lon="5.75308">
        <ele>1775.4</ele>
        <time>2020-02-08T11:47:19Z</time>
      </trkpt>
      <trkpt lat="45.31778" lon="5.75309">
        <ele>1775.6</ele>
        <time>2020-02-08T11:47:20Z</time>
      </trkpt>
      <trkpt lat="45.31778" lon="5.75309">
        <ele>1775.8</ele>
        <time>2020-02-08T11:47:21Z</time>
      </trkpt>
      <trkpt lat="45.31781" lon="5.75309">
        <ele>1776</ele>
        <time>2020-02-08T11:47:22Z</time>
      </trkpt>
      <trkpt lat="45.31781" lon="5.75309">
        <ele>1776.2</ele>
        <time>2020-02-08T11:47:23Z</time>
      </trkpt>
      <trkpt lat="45.31783" lon="5.7531">
        <ele>1776</ele>
        <time>2020-02-08T11:47:24Z</time>
      </trkpt>
      <trkpt lat="45.31783" lon="5.7531">
        <ele>1776.2</ele>
        <time>2020-02-08T11:47:25Z</time>
      </trkpt>
      <trkpt lat="45.31783" lon="5.7531">
        <ele>1776.4</ele>
        <time>2020-02-08T11:47:26Z</time>
      </trkpt>
      <trkpt lat="45.31783" lon="5.7531">
        <ele>1776.4</ele>
        <time>2020-02-08T11:47:27Z</time>
      </trkpt>
      <trkpt lat="45.31783" lon="5.7531">
        <ele>1776.2</ele>
        <time>2020-02-08T11:47:28Z</time>
      </trkpt>
      <trkpt lat="45.31783" lon="5.7531">
        <ele>1776</ele>
        <time>2020-02-08T11:47:29Z</time>
      </trkpt>
      <trkpt lat="45.31783" lon="5.7531">
        <ele>1776</ele>
        <time>2020-02-08T11:47:30Z</time>
      </trkpt>
      <trkpt lat="45.31783" lon="5.7531">
        <ele>1775.8</ele>
        <time>2020-02-08T11:47:31Z</time>
      </trkpt>
      <trkpt lat="45.31783" lon="5.7531">
        <ele>1775.8</ele>
        <time>2020-02-08T11:47:32Z</time>
      </trkpt>
      <trkpt lat="45.31783" lon="5.7531">
        <ele>1775.6</ele>
        <time>2020-02-08T11:47:33Z</time>
      </trkpt>
      <trkpt lat="45.31783" lon="5.7531">
        <ele>1775.2</ele>
        <time>2020-02-08T11:47:34Z</time>
      </trkpt>
      <trkpt lat="45.31783" lon="5.7531">
        <ele>1775.2</ele>
        <time>2020-02-08T11:47:35Z</time>
      </trkpt>
      <trkpt lat="45.31783" lon="5.7531">
        <ele>1775.2</ele>
        <time>2020-02-08T11:47:36Z</time>
      </trkpt>
      <trkpt lat="45.31783" lon="5.7531">
        <ele>1775.4</ele>
        <time>2020-02-08T11:47:37Z</time>
      </trkpt>
      <trkpt lat="45.31783" lon="5.7531">
        <ele>1775.6</ele>
        <time>2020-02-08T11:47:38Z</time>
      </trkpt>
      <trkpt lat="45.31783" lon="5.7531">
        <ele>1775.6</ele>
        <time>2020-02-08T11:47:39Z</time>
      </trkpt>
      <trkpt lat="45.31783" lon="5.7531">
        <ele>1776</ele>
        <time>2020-02-08T11:47:40Z</time>
      </trkpt>
      <trkpt lat="45.31783" lon="5.7531">
        <ele>1776</ele>
        <time>2020-02-08T11:47:41Z</time>
      </trkpt>
      <trkpt lat="45.31783" lon="5.7531">
        <ele>1776</ele>
        <time>2020-02-08T11:47:42Z</time>
      </trkpt>
      <trkpt lat="45.31783" lon="5.7531">
        <ele>1776</ele>
        <time>2020-02-08T11:47:43Z</time>
      </trkpt>
      <trkpt lat="45.31783" lon="5.7531">
        <ele>1776.2</ele>
        <time>2020-02-08T11:47:44Z</time>
      </trkpt>
      <trkpt lat="45.31783" lon="5.7531">
        <ele>1776.2</ele>
        <time>2020-02-08T11:47:45Z</time>
      </trkpt>
      <trkpt lat="45.31783" lon="5.7531">
        <ele>1776.4</ele>
        <time>2020-02-08T11:47:46Z</time>
      </trkpt>
      <trkpt lat="45.31783" lon="5.7531">
        <ele>1776.2</ele>
        <time>2020-02-08T11:47:47Z</time>
      </trkpt>
      <trkpt lat="45.31783" lon="5.7531">
        <ele>1776</ele>
        <time>2020-02-08T11:47:48Z</time>
      </trkpt>
      <trkpt lat="45.31783" lon="5.7531">
        <ele>1776</ele>
        <time>2020-02-08T11:47:49Z</time>
      </trkpt>
      <trkpt lat="45.31783" lon="5.7531">
        <ele>1776.2</ele>
        <time>2020-02-08T11:47:50Z</time>
      </trkpt>
      <trkpt lat="45.31783" lon="5.7531">
        <ele>1776</ele>
        <time>2020-02-08T11:47:51Z</time>
      </trkpt>
      <trkpt lat="45.31783" lon="5.7531">
        <ele>1776</ele>
        <time>2020-02-08T11:47:52Z</time>
      </trkpt>
      <trkpt lat="45.31783" lon="5.7531">
        <ele>1776.2</ele>
        <time>2020-02-08T11:47:53Z</time>
      </trkpt>
      <trkpt lat="45.31783" lon="5.7531">
        <ele>1776.6</ele>
        <time>2020-02-08T11:47:54Z</time>
      </trkpt>
      <trkpt lat="45.31783" lon="5.7531">
        <ele>1776.6</ele>
        <time>2020-02-08T11:47:55Z</time>
      </trkpt>
      <trkpt lat="45.31783" lon="5.7531">
        <ele>1776.6</ele>
        <time>2020-02-08T11:47:56Z</time>
      </trkpt>
      <trkpt lat="45.31783" lon="5.7531">
        <ele>1776.8</ele>
        <time>2020-02-08T11:47:57Z</time>
      </trkpt>
      <trkpt lat="45.31783" lon="5.7531">
        <ele>1777</ele>
        <time>2020-02-08T11:47:58Z</time>
      </trkpt>
      <trkpt lat="45.31783" lon="5.7531">
        <ele>1776.8</ele>
        <time>2020-02-08T11:47:59Z</time>
      </trkpt>
      <trkpt lat="45.31783" lon="5.7531">
        <ele>1776.6</ele>
        <time>2020-02-08T11:48:00Z</time>
      </trkpt>
      <trkpt lat="45.31783" lon="5.7531">
        <ele>1776.6</ele>
        <time>2020-02-08T11:48:01Z</time>
      </trkpt>
      <trkpt lat="45.31783" lon="5.7531">
        <ele>1776.4</ele>
        <time>2020-02-08T11:48:02Z</time>
      </trkpt>
      <trkpt lat="45.31783" lon="5.7531">
        <ele>1776</ele>
        <time>2020-02-08T11:48:03Z</time>
      </trkpt>
      <trkpt lat="45.31783" lon="5.7531">
        <ele>1776</ele>
        <time>2020-02-08T11:48:04Z</time>
      </trkpt>
      <trkpt lat="45.31783" lon="5.7531">
        <ele>1775.8</ele>
        <time>2020-02-08T11:48:05Z</time>
      </trkpt>
      <trkpt lat="45.31783" lon="5.7531">
        <ele>1775.4</ele>
        <time>2020-02-08T11:48:06Z</time>
      </trkpt>
      <trkpt lat="45.31783" lon="5.7531">
        <ele>1775</ele>
        <time>2020-02-08T11:48:07Z</time>
      </trkpt>
      <trkpt lat="45.31783" lon="5.7531">
        <ele>1774.8</ele>
        <time>2020-02-08T11:48:08Z</time>
      </trkpt>
      <trkpt lat="45.31783" lon="5.7531">
        <ele>1774.4</ele>
        <time>2020-02-08T11:48:09Z</time>
      </trkpt>
      <trkpt lat="45.31783" lon="5.7531">
        <ele>1774.2</ele>
        <time>2020-02-08T11:48:10Z</time>
      </trkpt>
      <trkpt lat="45.31783" lon="5.7531">
        <ele>1774.2</ele>
        <time>2020-02-08T11:48:11Z</time>
      </trkpt>
      <trkpt lat="45.31783" lon="5.7531">
        <ele>1774.2</ele>
        <time>2020-02-08T11:48:12Z</time>
      </trkpt>
      <trkpt lat="45.31783" lon="5.7531">
        <ele>1774</ele>
        <time>2020-02-08T11:48:13Z</time>
      </trkpt>
      <trkpt lat="45.31783" lon="5.7531">
        <ele>1774</ele>
        <time>2020-02-08T11:48:14Z</time>
      </trkpt>
      <trkpt lat="45.31783" lon="5.7531">
        <ele>1773.8</ele>
        <time>2020-02-08T11:48:15Z</time>
      </trkpt>
      <trkpt lat="45.31783" lon="5.7531">
        <ele>1773.4</ele>
        <time>2020-02-08T11:48:16Z</time>
      </trkpt>
      <trkpt lat="45.31783" lon="5.7531">
        <ele>1773.6</ele>
        <time>2020-02-08T11:48:17Z</time>
      </trkpt>
      <trkpt lat="45.31783" lon="5.7531">
        <ele>1773.6</ele>
        <time>2020-02-08T11:48:18Z</time>
      </trkpt>
      <trkpt lat="45.31783" lon="5.7531">
        <ele>1773.6</ele>
        <time>2020-02-08T11:48:19Z</time>
      </trkpt>
      <trkpt lat="45.31783" lon="5.7531">
        <ele>1773.6</ele>
        <time>2020-02-08T11:48:20Z</time>
      </trkpt>
      <trkpt lat="45.31783" lon="5.7531">
        <ele>1773.6</ele>
        <time>2020-02-08T11:48:21Z</time>
      </trkpt>
      <trkpt lat="45.31783" lon="5.7531">
        <ele>1773.4</ele>
        <time>2020-02-08T11:48:22Z</time>
      </trkpt>
      <trkpt lat="45.31783" lon="5.7531">
        <ele>1773.2</ele>
        <time>2020-02-08T11:48:23Z</time>
      </trkpt>
      <trkpt lat="45.31783" lon="5.7531">
        <ele>1773.4</ele>
        <time>2020-02-08T11:48:24Z</time>
      </trkpt>
      <trkpt lat="45.31783" lon="5.7531">
        <ele>1773.4</ele>
        <time>2020-02-08T11:48:25Z</time>
      </trkpt>
      <trkpt lat="45.31783" lon="5.7531">
        <ele>1773.6</ele>
        <time>2020-02-08T11:48:26Z</time>
      </trkpt>
      <trkpt lat="45.31783" lon="5.7531">
        <ele>1773.2</ele>
        <time>2020-02-08T11:48:27Z</time>
      </trkpt>
      <trkpt lat="45.31783" lon="5.7531">
        <ele>1773.6</ele>
        <time>2020-02-08T11:48:28Z</time>
      </trkpt>
      <trkpt lat="45.31783" lon="5.7531">
        <ele>1773.6</ele>
        <time>2020-02-08T11:48:29Z</time>
      </trkpt>
      <trkpt lat="45.31783" lon="5.7531">
        <ele>1773.8</ele>
        <time>2020-02-08T11:48:30Z</time>
      </trkpt>
      <trkpt lat="45.31783" lon="5.7531">
        <ele>1773.8</ele>
        <time>2020-02-08T11:48:31Z</time>
      </trkpt>
      <trkpt lat="45.31783" lon="5.7531">
        <ele>1773.4</ele>
        <time>2020-02-08T11:48:32Z</time>
      </trkpt>
      <trkpt lat="45.31783" lon="5.7531">
        <ele>1773.4</ele>
        <time>2020-02-08T11:48:33Z</time>
      </trkpt>
      <trkpt lat="45.31783" lon="5.7531">
        <ele>1773.4</ele>
        <time>2020-02-08T11:48:34Z</time>
      </trkpt>
      <trkpt lat="45.31783" lon="5.7531">
        <ele>1773.8</ele>
        <time>2020-02-08T11:48:35Z</time>
      </trkpt>
      <trkpt lat="45.31782" lon="5.75307">
        <ele>1773.4</ele>
        <time>2020-02-08T11:48:36Z</time>
      </trkpt>
      <trkpt lat="45.31782" lon="5.75307">
        <ele>1773.8</ele>
        <time>2020-02-08T11:48:37Z</time>
      </trkpt>
      <trkpt lat="45.31782" lon="5.75307">
        <ele>1774.4</ele>
        <time>2020-02-08T11:48:38Z</time>
      </trkpt>
      <trkpt lat="45.31782" lon="5.75307">
        <ele>1775</ele>
        <time>2020-02-08T11:48:39Z</time>
      </trkpt>
      <trkpt lat="45.31782" lon="5.75307">
        <ele>1774.8</ele>
        <time>2020-02-08T11:48:40Z</time>
      </trkpt>
      <trkpt lat="45.31782" lon="5.75307">
        <ele>1775</ele>
        <time>2020-02-08T11:48:41Z</time>
      </trkpt>
      <trkpt lat="45.31782" lon="5.75307">
        <ele>1775.4</ele>
        <time>2020-02-08T11:48:42Z</time>
      </trkpt>
      <trkpt lat="45.31782" lon="5.75307">
        <ele>1775.6</ele>
        <time>2020-02-08T11:48:43Z</time>
      </trkpt>
      <trkpt lat="45.31782" lon="5.75307">
        <ele>1776.2</ele>
        <time>2020-02-08T11:48:44Z</time>
      </trkpt>
      <trkpt lat="45.31782" lon="5.75307">
        <ele>1776.2</ele>
        <time>2020-02-08T11:48:45Z</time>
      </trkpt>
      <trkpt lat="45.31782" lon="5.75307">
        <ele>1776.4</ele>
        <time>2020-02-08T11:48:46Z</time>
      </trkpt>
      <trkpt lat="45.31782" lon="5.75307">
        <ele>1776</ele>
        <time>2020-02-08T11:48:47Z</time>
      </trkpt>
      <trkpt lat="45.31782" lon="5.75307">
        <ele>1776.6</ele>
        <time>2020-02-08T11:48:48Z</time>
      </trkpt>
      <trkpt lat="45.31782" lon="5.75307">
        <ele>1776.6</ele>
        <time>2020-02-08T11:48:49Z</time>
      </trkpt>
      <trkpt lat="45.31782" lon="5.75307">
        <ele>1776.6</ele>
        <time>2020-02-08T11:48:50Z</time>
      </trkpt>
      <trkpt lat="45.31782" lon="5.75307">
        <ele>1776.2</ele>
        <time>2020-02-08T11:48:51Z</time>
      </trkpt>
      <trkpt lat="45.31782" lon="5.75307">
        <ele>1776.2</ele>
        <time>2020-02-08T11:48:52Z</time>
      </trkpt>
      <trkpt lat="45.31782" lon="5.75307">
        <ele>1776</ele>
        <time>2020-02-08T11:48:53Z</time>
      </trkpt>
      <trkpt lat="45.31782" lon="5.75307">
        <ele>1776.2</ele>
        <time>2020-02-08T11:48:54Z</time>
      </trkpt>
      <trkpt lat="45.31782" lon="5.75307">
        <ele>1776.8</ele>
        <time>2020-02-08T11:48:55Z</time>
      </trkpt>
      <trkpt lat="45.31782" lon="5.75307">
        <ele>1776.6</ele>
        <time>2020-02-08T11:48:56Z</time>
      </trkpt>
      <trkpt lat="45.31782" lon="5.75307">
        <ele>1776.2</ele>
        <time>2020-02-08T11:48:57Z</time>
      </trkpt>
      <trkpt lat="45.31782" lon="5.75307">
        <ele>1776</ele>
        <time>2020-02-08T11:48:58Z</time>
      </trkpt>
      <trkpt lat="45.31782" lon="5.75307">
        <ele>1775.6</ele>
        <time>2020-02-08T11:48:59Z</time>
      </trkpt>
      <trkpt lat="45.31782" lon="5.75307">
        <ele>1775.2</ele>
        <time>2020-02-08T11:49:00Z</time>
      </trkpt>
      <trkpt lat="45.31782" lon="5.75307">
        <ele>1775</ele>
        <time>2020-02-08T11:49:01Z</time>
      </trkpt>
      <trkpt lat="45.31784" lon="5.75308">
        <ele>1774.8</ele>
        <time>2020-02-08T11:49:02Z</time>
      </trkpt>
      <trkpt lat="45.31784" lon="5.75308">
        <ele>1775</ele>
        <time>2020-02-08T11:49:03Z</time>
      </trkpt>
      <trkpt lat="45.31784" lon="5.75308">
        <ele>1774.8</ele>
        <time>2020-02-08T11:49:04Z</time>
      </trkpt>
      <trkpt lat="45.31784" lon="5.75308">
        <ele>1774.8</ele>
        <time>2020-02-08T11:49:05Z</time>
      </trkpt>
      <trkpt lat="45.31784" lon="5.75308">
        <ele>1775.2</ele>
        <time>2020-02-08T11:49:06Z</time>
      </trkpt>
      <trkpt lat="45.31784" lon="5.75308">
        <ele>1776.2</ele>
        <time>2020-02-08T11:49:07Z</time>
      </trkpt>
      <trkpt lat="45.31784" lon="5.75308">
        <ele>1776.4</ele>
        <time>2020-02-08T11:49:08Z</time>
      </trkpt>
      <trkpt lat="45.31784" lon="5.75308">
        <ele>1776.4</ele>
        <time>2020-02-08T11:49:09Z</time>
      </trkpt>
      <trkpt lat="45.31784" lon="5.75308">
        <ele>1776.4</ele>
        <time>2020-02-08T11:49:10Z</time>
      </trkpt>
      <trkpt lat="45.31784" lon="5.75308">
        <ele>1776.6</ele>
        <time>2020-02-08T11:49:11Z</time>
      </trkpt>
      <trkpt lat="45.31784" lon="5.75308">
        <ele>1776.4</ele>
        <time>2020-02-08T11:49:12Z</time>
      </trkpt>
      <trkpt lat="45.31784" lon="5.75308">
        <ele>1776.2</ele>
        <time>2020-02-08T11:49:13Z</time>
      </trkpt>
      <trkpt lat="45.31784" lon="5.75308">
        <ele>1775.8</ele>
        <time>2020-02-08T11:49:14Z</time>
      </trkpt>
      <trkpt lat="45.31784" lon="5.75308">
        <ele>1776</ele>
        <time>2020-02-08T11:49:15Z</time>
      </trkpt>
      <trkpt lat="45.31784" lon="5.75308">
        <ele>1776.2</ele>
        <time>2020-02-08T11:49:16Z</time>
      </trkpt>
      <trkpt lat="45.31784" lon="5.75308">
        <ele>1776.6</ele>
        <time>2020-02-08T11:49:17Z</time>
      </trkpt>
      <trkpt lat="45.31784" lon="5.75308">
        <ele>1776.8</ele>
        <time>2020-02-08T11:49:18Z</time>
      </trkpt>
      <trkpt lat="45.31784" lon="5.75308">
        <ele>1776.6</ele>
        <time>2020-02-08T11:49:19Z</time>
      </trkpt>
      <trkpt lat="45.31784" lon="5.75308">
        <ele>1776.6</ele>
        <time>2020-02-08T11:49:20Z</time>
      </trkpt>
      <trkpt lat="45.31784" lon="5.75308">
        <ele>1776.4</ele>
        <time>2020-02-08T11:49:21Z</time>
      </trkpt>
      <trkpt lat="45.31784" lon="5.75308">
        <ele>1776.4</ele>
        <time>2020-02-08T11:49:22Z</time>
      </trkpt>
      <trkpt lat="45.31784" lon="5.75308">
        <ele>1776.4</ele>
        <time>2020-02-08T11:49:23Z</time>
      </trkpt>
      <trkpt lat="45.31784" lon="5.75308">
        <ele>1776.2</ele>
        <time>2020-02-08T11:49:24Z</time>
      </trkpt>
      <trkpt lat="45.31784" lon="5.75308">
        <ele>1775.6</ele>
        <time>2020-02-08T11:49:25Z</time>
      </trkpt>
      <trkpt lat="45.31784" lon="5.75308">
        <ele>1775.4</ele>
        <time>2020-02-08T11:49:26Z</time>
      </trkpt>
      <trkpt lat="45.31784" lon="5.75308">
        <ele>1775</ele>
        <time>2020-02-08T11:49:27Z</time>
      </trkpt>
      <trkpt lat="45.31784" lon="5.75308">
        <ele>1775.2</ele>
        <time>2020-02-08T11:49:28Z</time>
      </trkpt>
      <trkpt lat="45.31784" lon="5.75308">
        <ele>1775.2</ele>
        <time>2020-02-08T11:49:29Z</time>
      </trkpt>
      <trkpt lat="45.31784" lon="5.75308">
        <ele>1775.2</ele>
        <time>2020-02-08T11:49:30Z</time>
      </trkpt>
      <trkpt lat="45.31784" lon="5.75308">
        <ele>1774.8</ele>
        <time>2020-02-08T11:49:31Z</time>
      </trkpt>
      <trkpt lat="45.31784" lon="5.75308">
        <ele>1774.4</ele>
        <time>2020-02-08T11:49:32Z</time>
      </trkpt>
      <trkpt lat="45.31784" lon="5.75308">
        <ele>1774.2</ele>
        <time>2020-02-08T11:49:33Z</time>
      </trkpt>
      <trkpt lat="45.31784" lon="5.75308">
        <ele>1774.8</ele>
        <time>2020-02-08T11:49:34Z</time>
      </trkpt>
      <trkpt lat="45.31784" lon="5.75308">
        <ele>1775.4</ele>
        <time>2020-02-08T11:49:35Z</time>
      </trkpt>
      <trkpt lat="45.31784" lon="5.75308">
        <ele>1775.8</ele>
        <time>2020-02-08T11:49:36Z</time>
      </trkpt>
      <trkpt lat="45.31784" lon="5.75308">
        <ele>1776</ele>
        <time>2020-02-08T11:49:37Z</time>
      </trkpt>
      <trkpt lat="45.31784" lon="5.75308">
        <ele>1776.2</ele>
        <time>2020-02-08T11:49:38Z</time>
      </trkpt>
      <trkpt lat="45.31784" lon="5.75308">
        <ele>1776.4</ele>
        <time>2020-02-08T11:49:39Z</time>
      </trkpt>
      <trkpt lat="45.31784" lon="5.75308">
        <ele>1776.6</ele>
        <time>2020-02-08T11:49:40Z</time>
      </trkpt>
      <trkpt lat="45.31784" lon="5.75308">
        <ele>1776.8</ele>
        <time>2020-02-08T11:49:41Z</time>
      </trkpt>
      <trkpt lat="45.31784" lon="5.75308">
        <ele>1776.6</ele>
        <time>2020-02-08T11:49:42Z</time>
      </trkpt>
      <trkpt lat="45.31784" lon="5.75308">
        <ele>1777.2</ele>
        <time>2020-02-08T11:49:43Z</time>
      </trkpt>
      <trkpt lat="45.31784" lon="5.75308">
        <ele>1776.8</ele>
        <time>2020-02-08T11:49:44Z</time>
      </trkpt>
      <trkpt lat="45.31784" lon="5.75308">
        <ele>1776.2</ele>
        <time>2020-02-08T11:49:45Z</time>
      </trkpt>
      <trkpt lat="45.31784" lon="5.75308">
        <ele>1775.4</ele>
        <time>2020-02-08T11:49:46Z</time>
      </trkpt>
      <trkpt lat="45.31784" lon="5.75308">
        <ele>1775.2</ele>
        <time>2020-02-08T11:49:47Z</time>
      </trkpt>
      <trkpt lat="45.31784" lon="5.75308">
        <ele>1775.8</ele>
        <time>2020-02-08T11:49:48Z</time>
      </trkpt>
      <trkpt lat="45.31784" lon="5.75308">
        <ele>1776.6</ele>
        <time>2020-02-08T11:49:49Z</time>
      </trkpt>
      <trkpt lat="45.31784" lon="5.75308">
        <ele>1775.6</ele>
        <time>2020-02-08T11:49:50Z</time>
      </trkpt>
      <trkpt lat="45.31784" lon="5.75308">
        <ele>1775.2</ele>
        <time>2020-02-08T11:49:51Z</time>
      </trkpt>
      <trkpt lat="45.31784" lon="5.75308">
        <ele>1775.8</ele>
        <time>2020-02-08T11:49:52Z</time>
      </trkpt>
      <trkpt lat="45.31784" lon="5.75308">
        <ele>1776.2</ele>
        <time>2020-02-08T11:49:53Z</time>
      </trkpt>
      <trkpt lat="45.31784" lon="5.75308">
        <ele>1776.8</ele>
        <time>2020-02-08T11:49:54Z</time>
      </trkpt>
      <trkpt lat="45.31784" lon="5.75308">
        <ele>1777.2</ele>
        <time>2020-02-08T11:49:55Z</time>
      </trkpt>
      <trkpt lat="45.31784" lon="5.75308">
        <ele>1777.2</ele>
        <time>2020-02-08T11:49:56Z</time>
      </trkpt>
      <trkpt lat="45.31784" lon="5.75308">
        <ele>1777.4</ele>
        <time>2020-02-08T11:49:57Z</time>
      </trkpt>
      <trkpt lat="45.31784" lon="5.75308">
        <ele>1777.6</ele>
        <time>2020-02-08T11:49:58Z</time>
      </trkpt>
      <trkpt lat="45.31784" lon="5.75308">
        <ele>1777.6</ele>
        <time>2020-02-08T11:49:59Z</time>
      </trkpt>
      <trkpt lat="45.31784" lon="5.75308">
        <ele>1777</ele>
        <time>2020-02-08T11:50:00Z</time>
      </trkpt>
      <trkpt lat="45.31784" lon="5.75308">
        <ele>1777.2</ele>
        <time>2020-02-08T11:50:01Z</time>
      </trkpt>
      <trkpt lat="45.31784" lon="5.75308">
        <ele>1777.2</ele>
        <time>2020-02-08T11:50:02Z</time>
      </trkpt>
      <trkpt lat="45.31784" lon="5.75308">
        <ele>1776.8</ele>
        <time>2020-02-08T11:50:03Z</time>
      </trkpt>
      <trkpt lat="45.31784" lon="5.75308">
        <ele>1776.8</ele>
        <time>2020-02-08T11:50:04Z</time>
      </trkpt>
      <trkpt lat="45.31784" lon="5.75308">
        <ele>1777.2</ele>
        <time>2020-02-08T11:50:05Z</time>
      </trkpt>
      <trkpt lat="45.31784" lon="5.75308">
        <ele>1777.4</ele>
        <time>2020-02-08T11:50:06Z</time>
      </trkpt>
      <trkpt lat="45.31784" lon="5.75308">
        <ele>1777.4</ele>
        <time>2020-02-08T11:50:07Z</time>
      </trkpt>
      <trkpt lat="45.31784" lon="5.75311">
        <ele>1777.4</ele>
        <time>2020-02-08T11:50:08Z</time>
      </trkpt>
      <trkpt lat="45.31784" lon="5.75311">
        <ele>1777.2</ele>
        <time>2020-02-08T11:50:09Z</time>
      </trkpt>
      <trkpt lat="45.31782" lon="5.75317">
        <ele>1777.2</ele>
        <time>2020-02-08T11:50:10Z</time>
      </trkpt>
      <trkpt lat="45.31778" lon="5.7532">
        <ele>1777</ele>
        <time>2020-02-08T11:50:11Z</time>
      </trkpt>
      <trkpt lat="45.31776" lon="5.75321">
        <ele>1776.4</ele>
        <time>2020-02-08T11:50:12Z</time>
      </trkpt>
      <trkpt lat="45.31772" lon="5.75322">
        <ele>1776.2</ele>
        <time>2020-02-08T11:50:13Z</time>
      </trkpt>
      <trkpt lat="45.31769" lon="5.75323">
        <ele>1775.8</ele>
        <time>2020-02-08T11:50:14Z</time>
      </trkpt>
      <trkpt lat="45.31765" lon="5.75324">
        <ele>1775.4</ele>
        <time>2020-02-08T11:50:15Z</time>
      </trkpt>
      <trkpt lat="45.31762" lon="5.75324">
        <ele>1775.2</ele>
        <time>2020-02-08T11:50:16Z</time>
      </trkpt>
      <trkpt lat="45.31759" lon="5.75324">
        <ele>1775.6</ele>
        <time>2020-02-08T11:50:17Z</time>
      </trkpt>
      <trkpt lat="45.31757" lon="5.75324">
        <ele>1775.4</ele>
        <time>2020-02-08T11:50:18Z</time>
      </trkpt>
      <trkpt lat="45.31754" lon="5.75324">
        <ele>1774.6</ele>
        <time>2020-02-08T11:50:19Z</time>
      </trkpt>
      <trkpt lat="45.31751" lon="5.75324">
        <ele>1774</ele>
        <time>2020-02-08T11:50:20Z</time>
      </trkpt>
      <trkpt lat="45.31748" lon="5.75324">
        <ele>1773.6</ele>
        <time>2020-02-08T11:50:21Z</time>
      </trkpt>
      <trkpt lat="45.31745" lon="5.75324">
        <ele>1773.6</ele>
        <time>2020-02-08T11:50:22Z</time>
      </trkpt>
      <trkpt lat="45.31742" lon="5.75324">
        <ele>1773.4</ele>
        <time>2020-02-08T11:50:23Z</time>
      </trkpt>
      <trkpt lat="45.31739" lon="5.75323">
        <ele>1773</ele>
        <time>2020-02-08T11:50:24Z</time>
      </trkpt>
      <trkpt lat="45.31735" lon="5.75323">
        <ele>1772.6</ele>
        <time>2020-02-08T11:50:25Z</time>
      </trkpt>
      <trkpt lat="45.31731" lon="5.75323">
        <ele>1772.4</ele>
        <time>2020-02-08T11:50:26Z</time>
      </trkpt>
      <trkpt lat="45.31727" lon="5.75323">
        <ele>1771.8</ele>
        <time>2020-02-08T11:50:27Z</time>
      </trkpt>
      <trkpt lat="45.31723" lon="5.75322">
        <ele>1771.2</ele>
        <time>2020-02-08T11:50:28Z</time>
      </trkpt>
      <trkpt lat="45.31718" lon="5.75322">
        <ele>1770.4</ele>
        <time>2020-02-08T11:50:29Z</time>
      </trkpt>
      <trkpt lat="45.31714" lon="5.75322">
        <ele>1770.2</ele>
        <time>2020-02-08T11:50:30Z</time>
      </trkpt>
      <trkpt lat="45.31709" lon="5.75322">
        <ele>1770.2</ele>
        <time>2020-02-08T11:50:31Z</time>
      </trkpt>
      <trkpt lat="45.31705" lon="5.75322">
        <ele>1770</ele>
        <time>2020-02-08T11:50:32Z</time>
      </trkpt>
      <trkpt lat="45.317" lon="5.75322">
        <ele>1769.8</ele>
        <time>2020-02-08T11:50:33Z</time>
      </trkpt>
      <trkpt lat="45.31695" lon="5.75322">
        <ele>1769.4</ele>
        <time>2020-02-08T11:50:34Z</time>
      </trkpt>
      <trkpt lat="45.3169" lon="5.75322">
        <ele>1769.2</ele>
        <time>2020-02-08T11:50:35Z</time>
      </trkpt>
      <trkpt lat="45.31686" lon="5.75321">
        <ele>1768</ele>
        <time>2020-02-08T11:50:36Z</time>
      </trkpt>
      <trkpt lat="45.31681" lon="5.7532">
        <ele>1767.4</ele>
        <time>2020-02-08T11:50:37Z</time>
      </trkpt>
      <trkpt lat="45.31677" lon="5.75319">
        <ele>1766.8</ele>
        <time>2020-02-08T11:50:38Z</time>
      </trkpt>
      <trkpt lat="45.31672" lon="5.75319">
        <ele>1765.8</ele>
        <time>2020-02-08T11:50:39Z</time>
      </trkpt>
      <trkpt lat="45.31668" lon="5.75318">
        <ele>1764.8</ele>
        <time>2020-02-08T11:50:40Z</time>
      </trkpt>
      <trkpt lat="45.31663" lon="5.75317">
        <ele>1764.4</ele>
        <time>2020-02-08T11:50:41Z</time>
      </trkpt>
      <trkpt lat="45.31658" lon="5.75316">
        <ele>1763.8</ele>
        <time>2020-02-08T11:50:42Z</time>
      </trkpt>
      <trkpt lat="45.31653" lon="5.75314">
        <ele>1763.2</ele>
        <time>2020-02-08T11:50:43Z</time>
      </trkpt>
      <trkpt lat="45.31648" lon="5.75312">
        <ele>1762.4</ele>
        <time>2020-02-08T11:50:44Z</time>
      </trkpt>
      <trkpt lat="45.31643" lon="5.75309">
        <ele>1761.8</ele>
        <time>2020-02-08T11:50:45Z</time>
      </trkpt>
      <trkpt lat="45.31638" lon="5.75305">
        <ele>1761</ele>
        <time>2020-02-08T11:50:46Z</time>
      </trkpt>
      <trkpt lat="45.31633" lon="5.75302">
        <ele>1760.4</ele>
        <time>2020-02-08T11:50:47Z</time>
      </trkpt>
      <trkpt lat="45.31628" lon="5.75298">
        <ele>1760</ele>
        <time>2020-02-08T11:50:48Z</time>
      </trkpt>
      <trkpt lat="45.31623" lon="5.75295">
        <ele>1759.2</ele>
        <time>2020-02-08T11:50:49Z</time>
      </trkpt>
      <trkpt lat="45.31618" lon="5.75291">
        <ele>1758.6</ele>
        <time>2020-02-08T11:50:50Z</time>
      </trkpt>
      <trkpt lat="45.31613" lon="5.75287">
        <ele>1758.2</ele>
        <time>2020-02-08T11:50:51Z</time>
      </trkpt>
      <trkpt lat="45.31608" lon="5.75284">
        <ele>1756.8</ele>
        <time>2020-02-08T11:50:52Z</time>
      </trkpt>
      <trkpt lat="45.31602" lon="5.75281">
        <ele>1756</ele>
        <time>2020-02-08T11:50:53Z</time>
      </trkpt>
      <trkpt lat="45.31596" lon="5.75278">
        <ele>1754.6</ele>
        <time>2020-02-08T11:50:54Z</time>
      </trkpt>
      <trkpt lat="45.31589" lon="5.75274">
        <ele>1753</ele>
        <time>2020-02-08T11:50:55Z</time>
      </trkpt>
      <trkpt lat="45.31583" lon="5.75269">
        <ele>1751.2</ele>
        <time>2020-02-08T11:50:56Z</time>
      </trkpt>
      <trkpt lat="45.31576" lon="5.75264">
        <ele>1750.2</ele>
        <time>2020-02-08T11:50:57Z</time>
      </trkpt>
      <trkpt lat="45.3157" lon="5.75259">
        <ele>1748.6</ele>
        <time>2020-02-08T11:50:58Z</time>
      </trkpt>
      <trkpt lat="45.31565" lon="5.75252">
        <ele>1747.6</ele>
        <time>2020-02-08T11:50:59Z</time>
      </trkpt>
      <trkpt lat="45.31561" lon="5.75244">
        <ele>1745.4</ele>
        <time>2020-02-08T11:51:00Z</time>
      </trkpt>
      <trkpt lat="45.31558" lon="5.75237">
        <ele>1743.4</ele>
        <time>2020-02-08T11:51:01Z</time>
      </trkpt>
      <trkpt lat="45.31556" lon="5.75231">
        <ele>1742.2</ele>
        <time>2020-02-08T11:51:02Z</time>
      </trkpt>
      <trkpt lat="45.31554" lon="5.75232">
        <ele>1740.2</ele>
        <time>2020-02-08T11:51:03Z</time>
      </trkpt>
      <trkpt lat="45.31553" lon="5.75239">
        <ele>1737.8</ele>
        <time>2020-02-08T11:51:04Z</time>
      </trkpt>
      <trkpt lat="45.31551" lon="5.75241">
        <ele>1736.4</ele>
        <time>2020-02-08T11:51:05Z</time>
      </trkpt>
      <trkpt lat="45.31548" lon="5.75241">
        <ele>1735</ele>
        <time>2020-02-08T11:51:06Z</time>
      </trkpt>
      <trkpt lat="45.31545" lon="5.75244">
        <ele>1733.2</ele>
        <time>2020-02-08T11:51:07Z</time>
      </trkpt>
      <trkpt lat="45.31544" lon="5.7525">
        <ele>1731.8</ele>
        <time>2020-02-08T11:51:08Z</time>
      </trkpt>
      <trkpt lat="45.31541" lon="5.75256">
        <ele>1730.6</ele>
        <time>2020-02-08T11:51:09Z</time>
      </trkpt>
      <trkpt lat="45.31534" lon="5.75258">
        <ele>1729.6</ele>
        <time>2020-02-08T11:51:10Z</time>
      </trkpt>
      <trkpt lat="45.31526" lon="5.75258">
        <ele>1728.8</ele>
        <time>2020-02-08T11:51:11Z</time>
      </trkpt>
      <trkpt lat="45.31518" lon="5.75258">
        <ele>1727.4</ele>
        <time>2020-02-08T11:51:12Z</time>
      </trkpt>
      <trkpt lat="45.31511" lon="5.75257">
        <ele>1725.8</ele>
        <time>2020-02-08T11:51:13Z</time>
      </trkpt>
      <trkpt lat="45.31504" lon="5.75256">
        <ele>1724.6</ele>
        <time>2020-02-08T11:51:14Z</time>
      </trkpt>
      <trkpt lat="45.31497" lon="5.75253">
        <ele>1723.6</ele>
        <time>2020-02-08T11:51:15Z</time>
      </trkpt>
      <trkpt lat="45.3149" lon="5.75251">
        <ele>1722.2</ele>
        <time>2020-02-08T11:51:16Z</time>
      </trkpt>
      <trkpt lat="45.31484" lon="5.7525">
        <ele>1720.6</ele>
        <time>2020-02-08T11:51:17Z</time>
      </trkpt>
      <trkpt lat="45.31478" lon="5.75249">
        <ele>1719</ele>
        <time>2020-02-08T11:51:18Z</time>
      </trkpt>
      <trkpt lat="45.31472" lon="5.75248">
        <ele>1717.6</ele>
        <time>2020-02-08T11:51:19Z</time>
      </trkpt>
      <trkpt lat="45.31466" lon="5.75247">
        <ele>1716</ele>
        <time>2020-02-08T11:51:20Z</time>
      </trkpt>
      <trkpt lat="45.31459" lon="5.75247">
        <ele>1714.8</ele>
        <time>2020-02-08T11:51:21Z</time>
      </trkpt>
      <trkpt lat="45.31453" lon="5.75249">
        <ele>1714</ele>
        <time>2020-02-08T11:51:22Z</time>
      </trkpt>
      <trkpt lat="45.31448" lon="5.75252">
        <ele>1713.2</ele>
        <time>2020-02-08T11:51:23Z</time>
      </trkpt>
      <trkpt lat="45.31442" lon="5.75254">
        <ele>1712.2</ele>
        <time>2020-02-08T11:51:24Z</time>
      </trkpt>
      <trkpt lat="45.31437" lon="5.75256">
        <ele>1711.2</ele>
        <time>2020-02-08T11:51:25Z</time>
      </trkpt>
      <trkpt lat="45.31433" lon="5.75258">
        <ele>1710.4</ele>
        <time>2020-02-08T11:51:26Z</time>
      </trkpt>
      <trkpt lat="45.31428" lon="5.7526">
        <ele>1709.6</ele>
        <time>2020-02-08T11:51:27Z</time>
      </trkpt>
      <trkpt lat="45.31423" lon="5.75261">
        <ele>1708.6</ele>
        <time>2020-02-08T11:51:28Z</time>
      </trkpt>
      <trkpt lat="45.31419" lon="5.75262">
        <ele>1707.6</ele>
        <time>2020-02-08T11:51:29Z</time>
      </trkpt>
      <trkpt lat="45.31414" lon="5.75263">
        <ele>1706.2</ele>
        <time>2020-02-08T11:51:30Z</time>
      </trkpt>
      <trkpt lat="45.31409" lon="5.75265">
        <ele>1705.2</ele>
        <time>2020-02-08T11:51:31Z</time>
      </trkpt>
      <trkpt lat="45.31404" lon="5.75267">
        <ele>1704.6</ele>
        <time>2020-02-08T11:51:32Z</time>
      </trkpt>
      <trkpt lat="45.314" lon="5.75268">
        <ele>1703.6</ele>
        <time>2020-02-08T11:51:33Z</time>
      </trkpt>
      <trkpt lat="45.31396" lon="5.7527">
        <ele>1703</ele>
        <time>2020-02-08T11:51:34Z</time>
      </trkpt>
      <trkpt lat="45.31393" lon="5.75271">
        <ele>1702.4</ele>
        <time>2020-02-08T11:51:35Z</time>
      </trkpt>
      <trkpt lat="45.3139" lon="5.75271">
        <ele>1701.8</ele>
        <time>2020-02-08T11:51:36Z</time>
      </trkpt>
      <trkpt lat="45.31386" lon="5.75272">
        <ele>1701.2</ele>
        <time>2020-02-08T11:51:37Z</time>
      </trkpt>
      <trkpt lat="45.31381" lon="5.75272">
        <ele>1700.6</ele>
        <time>2020-02-08T11:51:38Z</time>
      </trkpt>
      <trkpt lat="45.31376" lon="5.75273">
        <ele>1699.8</ele>
        <time>2020-02-08T11:51:39Z</time>
      </trkpt>
      <trkpt lat="45.31371" lon="5.75276">
        <ele>1698.6</ele>
        <time>2020-02-08T11:51:40Z</time>
      </trkpt>
      <trkpt lat="45.31368" lon="5.75279">
        <ele>1697.8</ele>
        <time>2020-02-08T11:51:41Z</time>
      </trkpt>
      <trkpt lat="45.31365" lon="5.75283">
        <ele>1697.2</ele>
        <time>2020-02-08T11:51:42Z</time>
      </trkpt>
      <trkpt lat="45.31364" lon="5.75286">
        <ele>1696.8</ele>
        <time>2020-02-08T11:51:43Z</time>
      </trkpt>
      <trkpt lat="45.31363" lon="5.7529">
        <ele>1696.6</ele>
        <time>2020-02-08T11:51:44Z</time>
      </trkpt>
      <trkpt lat="45.31363" lon="5.75294">
        <ele>1696.2</ele>
        <time>2020-02-08T11:51:45Z</time>
      </trkpt>
      <trkpt lat="45.31362" lon="5.75298">
        <ele>1696</ele>
        <time>2020-02-08T11:51:46Z</time>
      </trkpt>
      <trkpt lat="45.31363" lon="5.75301">
        <ele>1696</ele>
        <time>2020-02-08T11:51:47Z</time>
      </trkpt>
      <trkpt lat="45.31363" lon="5.75305">
        <ele>1696</ele>
        <time>2020-02-08T11:51:48Z</time>
      </trkpt>
      <trkpt lat="45.31363" lon="5.75309">
        <ele>1696</ele>
        <time>2020-02-08T11:51:49Z</time>
      </trkpt>
      <trkpt lat="45.31363" lon="5.75312">
        <ele>1696</ele>
        <time>2020-02-08T11:51:50Z</time>
      </trkpt>
      <trkpt lat="45.31363" lon="5.75316">
        <ele>1695.6</ele>
        <time>2020-02-08T11:51:51Z</time>
      </trkpt>
      <trkpt lat="45.31364" lon="5.75319">
        <ele>1695.2</ele>
        <time>2020-02-08T11:51:52Z</time>
      </trkpt>
      <trkpt lat="45.31364" lon="5.75323">
        <ele>1694.8</ele>
        <time>2020-02-08T11:51:53Z</time>
      </trkpt>
      <trkpt lat="45.31365" lon="5.75326">
        <ele>1694.6</ele>
        <time>2020-02-08T11:51:54Z</time>
      </trkpt>
      <trkpt lat="45.31366" lon="5.75329">
        <ele>1694.6</ele>
        <time>2020-02-08T11:51:55Z</time>
      </trkpt>
      <trkpt lat="45.31367" lon="5.75333">
        <ele>1694.6</ele>
        <time>2020-02-08T11:51:56Z</time>
      </trkpt>
      <trkpt lat="45.31369" lon="5.75337">
        <ele>1694.6</ele>
        <time>2020-02-08T11:51:57Z</time>
      </trkpt>
      <trkpt lat="45.3137" lon="5.7534">
        <ele>1695</ele>
        <time>2020-02-08T11:51:58Z</time>
      </trkpt>
      <trkpt lat="45.31372" lon="5.75343">
        <ele>1694.8</ele>
        <time>2020-02-08T11:51:59Z</time>
      </trkpt>
      <trkpt lat="45.31373" lon="5.75346">
        <ele>1694.8</ele>
        <time>2020-02-08T11:52:00Z</time>
      </trkpt>
      <trkpt lat="45.31374" lon="5.7535">
        <ele>1694.8</ele>
        <time>2020-02-08T11:52:01Z</time>
      </trkpt>
      <trkpt lat="45.31375" lon="5.75353">
        <ele>1695</ele>
        <time>2020-02-08T11:52:02Z</time>
      </trkpt>
      <trkpt lat="45.31376" lon="5.75357">
        <ele>1694.6</ele>
        <time>2020-02-08T11:52:03Z</time>
      </trkpt>
      <trkpt lat="45.31376" lon="5.7536">
        <ele>1694.4</ele>
        <time>2020-02-08T11:52:04Z</time>
      </trkpt>
      <trkpt lat="45.31377" lon="5.75364">
        <ele>1693.8</ele>
        <time>2020-02-08T11:52:05Z</time>
      </trkpt>
      <trkpt lat="45.31378" lon="5.75368">
        <ele>1693.8</ele>
        <time>2020-02-08T11:52:06Z</time>
      </trkpt>
      <trkpt lat="45.31378" lon="5.75371">
        <ele>1693.6</ele>
        <time>2020-02-08T11:52:07Z</time>
      </trkpt>
      <trkpt lat="45.31378" lon="5.75374">
        <ele>1693.2</ele>
        <time>2020-02-08T11:52:08Z</time>
      </trkpt>
      <trkpt lat="45.31376" lon="5.75377">
        <ele>1693.2</ele>
        <time>2020-02-08T11:52:09Z</time>
      </trkpt>
      <trkpt lat="45.31373" lon="5.75378">
        <ele>1693.2</ele>
        <time>2020-02-08T11:52:10Z</time>
      </trkpt>
      <trkpt lat="45.3137" lon="5.75379">
        <ele>1693.2</ele>
        <time>2020-02-08T11:52:11Z</time>
      </trkpt>
      <trkpt lat="45.31366" lon="5.75379">
        <ele>1693.2</ele>
        <time>2020-02-08T11:52:12Z</time>
      </trkpt>
      <trkpt lat="45.31362" lon="5.75378">
        <ele>1693.2</ele>
        <time>2020-02-08T11:52:13Z</time>
      </trkpt>
      <trkpt lat="45.31359" lon="5.75377">
        <ele>1693.4</ele>
        <time>2020-02-08T11:52:14Z</time>
      </trkpt>
      <trkpt lat="45.31356" lon="5.75377">
        <ele>1693.6</ele>
        <time>2020-02-08T11:52:15Z</time>
      </trkpt>
      <trkpt lat="45.31352" lon="5.75376">
        <ele>1693.8</ele>
        <time>2020-02-08T11:52:16Z</time>
      </trkpt>
      <trkpt lat="45.31349" lon="5.75376">
        <ele>1693.6</ele>
        <time>2020-02-08T11:52:17Z</time>
      </trkpt>
      <trkpt lat="45.31345" lon="5.75376">
        <ele>1693.4</ele>
        <time>2020-02-08T11:52:18Z</time>
      </trkpt>
      <trkpt lat="45.31341" lon="5.75377">
        <ele>1693.4</ele>
        <time>2020-02-08T11:52:19Z</time>
      </trkpt>
      <trkpt lat="45.31338" lon="5.75379">
        <ele>1693.2</ele>
        <time>2020-02-08T11:52:20Z</time>
      </trkpt>
      <trkpt lat="45.31334" lon="5.75381">
        <ele>1693.2</ele>
        <time>2020-02-08T11:52:21Z</time>
      </trkpt>
      <trkpt lat="45.31331" lon="5.75383">
        <ele>1693</ele>
        <time>2020-02-08T11:52:22Z</time>
      </trkpt>
      <trkpt lat="45.31327" lon="5.75386">
        <ele>1692.8</ele>
        <time>2020-02-08T11:52:23Z</time>
      </trkpt>
      <trkpt lat="45.31324" lon="5.75389">
        <ele>1692.8</ele>
        <time>2020-02-08T11:52:24Z</time>
      </trkpt>
      <trkpt lat="45.3132" lon="5.75392">
        <ele>1692.6</ele>
        <time>2020-02-08T11:52:25Z</time>
      </trkpt>
      <trkpt lat="45.31317" lon="5.75396">
        <ele>1692.8</ele>
        <time>2020-02-08T11:52:26Z</time>
      </trkpt>
      <trkpt lat="45.31314" lon="5.75398">
        <ele>1692.8</ele>
        <time>2020-02-08T11:52:27Z</time>
      </trkpt>
      <trkpt lat="45.31311" lon="5.75401">
        <ele>1693</ele>
        <time>2020-02-08T11:52:28Z</time>
      </trkpt>
      <trkpt lat="45.31308" lon="5.75404">
        <ele>1693.2</ele>
        <time>2020-02-08T11:52:29Z</time>
      </trkpt>
      <trkpt lat="45.31305" lon="5.75406">
        <ele>1693</ele>
        <time>2020-02-08T11:52:30Z</time>
      </trkpt>
      <trkpt lat="45.31302" lon="5.75407">
        <ele>1693.2</ele>
        <time>2020-02-08T11:52:31Z</time>
      </trkpt>
      <trkpt lat="45.31299" lon="5.75408">
        <ele>1693.2</ele>
        <time>2020-02-08T11:52:32Z</time>
      </trkpt>
      <trkpt lat="45.31296" lon="5.7541">
        <ele>1692.8</ele>
        <time>2020-02-08T11:52:33Z</time>
      </trkpt>
      <trkpt lat="45.31293" lon="5.7541">
        <ele>1693</ele>
        <time>2020-02-08T11:52:34Z</time>
      </trkpt>
      <trkpt lat="45.3129" lon="5.75411">
        <ele>1693.2</ele>
        <time>2020-02-08T11:52:35Z</time>
      </trkpt>
      <trkpt lat="45.31286" lon="5.75412">
        <ele>1693.6</ele>
        <time>2020-02-08T11:52:36Z</time>
      </trkpt>
      <trkpt lat="45.31283" lon="5.75414">
        <ele>1693.6</ele>
        <time>2020-02-08T11:52:37Z</time>
      </trkpt>
      <trkpt lat="45.31279" lon="5.75415">
        <ele>1693.4</ele>
        <time>2020-02-08T11:52:38Z</time>
      </trkpt>
      <trkpt lat="45.31276" lon="5.75416">
        <ele>1693.6</ele>
        <time>2020-02-08T11:52:39Z</time>
      </trkpt>
      <trkpt lat="45.31273" lon="5.75418">
        <ele>1693.6</ele>
        <time>2020-02-08T11:52:40Z</time>
      </trkpt>
      <trkpt lat="45.3127" lon="5.75419">
        <ele>1693.2</ele>
        <time>2020-02-08T11:52:41Z</time>
      </trkpt>
      <trkpt lat="45.31266" lon="5.75421">
        <ele>1693.2</ele>
        <time>2020-02-08T11:52:42Z</time>
      </trkpt>
      <trkpt lat="45.31263" lon="5.75423">
        <ele>1693.2</ele>
        <time>2020-02-08T11:52:43Z</time>
      </trkpt>
      <trkpt lat="45.31259" lon="5.75425">
        <ele>1693.4</ele>
        <time>2020-02-08T11:52:44Z</time>
      </trkpt>
      <trkpt lat="45.31256" lon="5.75427">
        <ele>1693.2</ele>
        <time>2020-02-08T11:52:45Z</time>
      </trkpt>
      <trkpt lat="45.31252" lon="5.75429">
        <ele>1693.8</ele>
        <time>2020-02-08T11:52:46Z</time>
      </trkpt>
      <trkpt lat="45.31249" lon="5.75432">
        <ele>1694.2</ele>
        <time>2020-02-08T11:52:47Z</time>
      </trkpt>
      <trkpt lat="45.31246" lon="5.75435">
        <ele>1694.8</ele>
        <time>2020-02-08T11:52:48Z</time>
      </trkpt>
      <trkpt lat="45.31243" lon="5.75438">
        <ele>1694.8</ele>
        <time>2020-02-08T11:52:49Z</time>
      </trkpt>
      <trkpt lat="45.3124" lon="5.75442">
        <ele>1695.2</ele>
        <time>2020-02-08T11:52:50Z</time>
      </trkpt>
      <trkpt lat="45.31238" lon="5.75444">
        <ele>1695.2</ele>
        <time>2020-02-08T11:52:51Z</time>
      </trkpt>
      <trkpt lat="45.31235" lon="5.75447">
        <ele>1695.8</ele>
        <time>2020-02-08T11:52:52Z</time>
      </trkpt>
      <trkpt lat="45.31232" lon="5.7545">
        <ele>1696.4</ele>
        <time>2020-02-08T11:52:53Z</time>
      </trkpt>
      <trkpt lat="45.3123" lon="5.75453">
        <ele>1697.6</ele>
        <time>2020-02-08T11:52:54Z</time>
      </trkpt>
      <trkpt lat="45.31228" lon="5.75455">
        <ele>1698</ele>
        <time>2020-02-08T11:52:55Z</time>
      </trkpt>
      <trkpt lat="45.31226" lon="5.75457">
        <ele>1698.4</ele>
        <time>2020-02-08T11:52:56Z</time>
      </trkpt>
      <trkpt lat="45.31224" lon="5.75459">
        <ele>1698.6</ele>
        <time>2020-02-08T11:52:57Z</time>
      </trkpt>
      <trkpt lat="45.31222" lon="5.75461">
        <ele>1698</ele>
        <time>2020-02-08T11:52:58Z</time>
      </trkpt>
      <trkpt lat="45.3122" lon="5.75463">
        <ele>1697.8</ele>
        <time>2020-02-08T11:52:59Z</time>
      </trkpt>
      <trkpt lat="45.31218" lon="5.75466">
        <ele>1697.6</ele>
        <time>2020-02-08T11:53:00Z</time>
      </trkpt>
      <trkpt lat="45.31216" lon="5.75468">
        <ele>1697.6</ele>
        <time>2020-02-08T11:53:01Z</time>
      </trkpt>
      <trkpt lat="45.31214" lon="5.7547">
        <ele>1697.2</ele>
        <time>2020-02-08T11:53:02Z</time>
      </trkpt>
      <trkpt lat="45.31212" lon="5.75471">
        <ele>1696.8</ele>
        <time>2020-02-08T11:53:03Z</time>
      </trkpt>
      <trkpt lat="45.3121" lon="5.75473">
        <ele>1696.8</ele>
        <time>2020-02-08T11:53:04Z</time>
      </trkpt>
      <trkpt lat="45.31208" lon="5.75474">
        <ele>1696.4</ele>
        <time>2020-02-08T11:53:05Z</time>
      </trkpt>
      <trkpt lat="45.31205" lon="5.75475">
        <ele>1696</ele>
        <time>2020-02-08T11:53:06Z</time>
      </trkpt>
      <trkpt lat="45.31203" lon="5.75476">
        <ele>1695.4</ele>
        <time>2020-02-08T11:53:07Z</time>
      </trkpt>
      <trkpt lat="45.31201" lon="5.75477">
        <ele>1695.2</ele>
        <time>2020-02-08T11:53:08Z</time>
      </trkpt>
      <trkpt lat="45.31199" lon="5.75478">
        <ele>1695</ele>
        <time>2020-02-08T11:53:09Z</time>
      </trkpt>
      <trkpt lat="45.31196" lon="5.75479">
        <ele>1694.6</ele>
        <time>2020-02-08T11:53:10Z</time>
      </trkpt>
      <trkpt lat="45.31194" lon="5.75479">
        <ele>1694.6</ele>
        <time>2020-02-08T11:53:11Z</time>
      </trkpt>
      <trkpt lat="45.31192" lon="5.75479">
        <ele>1694.4</ele>
        <time>2020-02-08T11:53:12Z</time>
      </trkpt>
      <trkpt lat="45.31189" lon="5.75479">
        <ele>1693.8</ele>
        <time>2020-02-08T11:53:13Z</time>
      </trkpt>
      <trkpt lat="45.31186" lon="5.75479">
        <ele>1694.2</ele>
        <time>2020-02-08T11:53:14Z</time>
      </trkpt>
      <trkpt lat="45.31185" lon="5.75478">
        <ele>1694.2</ele>
        <time>2020-02-08T11:53:15Z</time>
      </trkpt>
      <trkpt lat="45.31182" lon="5.75478">
        <ele>1694</ele>
        <time>2020-02-08T11:53:16Z</time>
      </trkpt>
      <trkpt lat="45.3118" lon="5.75477">
        <ele>1694</ele>
        <time>2020-02-08T11:53:17Z</time>
      </trkpt>
      <trkpt lat="45.31177" lon="5.75477">
        <ele>1694</ele>
        <time>2020-02-08T11:53:18Z</time>
      </trkpt>
      <trkpt lat="45.31175" lon="5.75477">
        <ele>1694.4</ele>
        <time>2020-02-08T11:53:19Z</time>
      </trkpt>
      <trkpt lat="45.31172" lon="5.75476">
        <ele>1694.4</ele>
        <time>2020-02-08T11:53:20Z</time>
      </trkpt>
      <trkpt lat="45.31169" lon="5.75476">
        <ele>1694.2</ele>
        <time>2020-02-08T11:53:21Z</time>
      </trkpt>
      <trkpt lat="45.31167" lon="5.75475">
        <ele>1694.6</ele>
        <time>2020-02-08T11:53:22Z</time>
      </trkpt>
      <trkpt lat="45.31164" lon="5.75475">
        <ele>1694.8</ele>
        <time>2020-02-08T11:53:23Z</time>
      </trkpt>
      <trkpt lat="45.3116" lon="5.75475">
        <ele>1694.6</ele>
        <time>2020-02-08T11:53:24Z</time>
      </trkpt>
      <trkpt lat="45.31157" lon="5.75475">
        <ele>1694.4</ele>
        <time>2020-02-08T11:53:25Z</time>
      </trkpt>
      <trkpt lat="45.31155" lon="5.75475">
        <ele>1694.4</ele>
        <time>2020-02-08T11:53:26Z</time>
      </trkpt>
      <trkpt lat="45.31152" lon="5.75475">
        <ele>1694</ele>
        <time>2020-02-08T11:53:27Z</time>
      </trkpt>
      <trkpt lat="45.31149" lon="5.75475">
        <ele>1694</ele>
        <time>2020-02-08T11:53:28Z</time>
      </trkpt>
      <trkpt lat="45.31146" lon="5.75475">
        <ele>1694.6</ele>
        <time>2020-02-08T11:53:29Z</time>
      </trkpt>
      <trkpt lat="45.31143" lon="5.75475">
        <ele>1694.4</ele>
        <time>2020-02-08T11:53:30Z</time>
      </trkpt>
      <trkpt lat="45.3114" lon="5.75474">
        <ele>1694.6</ele>
        <time>2020-02-08T11:53:31Z</time>
      </trkpt>
      <trkpt lat="45.31137" lon="5.75474">
        <ele>1694.6</ele>
        <time>2020-02-08T11:53:32Z</time>
      </trkpt>
      <trkpt lat="45.31135" lon="5.75474">
        <ele>1695</ele>
        <time>2020-02-08T11:53:33Z</time>
      </trkpt>
      <trkpt lat="45.31132" lon="5.75473">
        <ele>1694.8</ele>
        <time>2020-02-08T11:53:34Z</time>
      </trkpt>
      <trkpt lat="45.31129" lon="5.75472">
        <ele>1694.6</ele>
        <time>2020-02-08T11:53:35Z</time>
      </trkpt>
      <trkpt lat="45.31126" lon="5.75471">
        <ele>1694.8</ele>
        <time>2020-02-08T11:53:36Z</time>
      </trkpt>
      <trkpt lat="45.31124" lon="5.7547">
        <ele>1695</ele>
        <time>2020-02-08T11:53:37Z</time>
      </trkpt>
      <trkpt lat="45.31121" lon="5.75469">
        <ele>1695</ele>
        <time>2020-02-08T11:53:38Z</time>
      </trkpt>
      <trkpt lat="45.31118" lon="5.75468">
        <ele>1694.6</ele>
        <time>2020-02-08T11:53:39Z</time>
      </trkpt>
      <trkpt lat="45.31116" lon="5.75467">
        <ele>1694.6</ele>
        <time>2020-02-08T11:53:40Z</time>
      </trkpt>
      <trkpt lat="45.31113" lon="5.75466">
        <ele>1695</ele>
        <time>2020-02-08T11:53:41Z</time>
      </trkpt>
      <trkpt lat="45.31111" lon="5.75464">
        <ele>1695.2</ele>
        <time>2020-02-08T11:53:42Z</time>
      </trkpt>
      <trkpt lat="45.31109" lon="5.75462">
        <ele>1695.2</ele>
        <time>2020-02-08T11:53:43Z</time>
      </trkpt>
      <trkpt lat="45.31107" lon="5.75461">
        <ele>1695.2</ele>
        <time>2020-02-08T11:53:44Z</time>
      </trkpt>
      <trkpt lat="45.31105" lon="5.7546">
        <ele>1695.2</ele>
        <time>2020-02-08T11:53:45Z</time>
      </trkpt>
      <trkpt lat="45.31103" lon="5.75458">
        <ele>1695.2</ele>
        <time>2020-02-08T11:53:46Z</time>
      </trkpt>
      <trkpt lat="45.31103" lon="5.75458">
        <ele>1695.4</ele>
        <time>2020-02-08T11:53:47Z</time>
      </trkpt>
      <trkpt lat="45.31101" lon="5.75455">
        <ele>1695.4</ele>
        <time>2020-02-08T11:53:48Z</time>
      </trkpt>
      <trkpt lat="45.31098" lon="5.75454">
        <ele>1695.2</ele>
        <time>2020-02-08T11:53:49Z</time>
      </trkpt>
      <trkpt lat="45.31095" lon="5.75452">
        <ele>1695</ele>
        <time>2020-02-08T11:53:50Z</time>
      </trkpt>
      <trkpt lat="45.31092" lon="5.75449">
        <ele>1694.6</ele>
        <time>2020-02-08T11:53:51Z</time>
      </trkpt>
      <trkpt lat="45.31087" lon="5.75447">
        <ele>1694.2</ele>
        <time>2020-02-08T11:53:52Z</time>
      </trkpt>
      <trkpt lat="45.31083" lon="5.75444">
        <ele>1694</ele>
        <time>2020-02-08T11:53:53Z</time>
      </trkpt>
      <trkpt lat="45.31078" lon="5.7544">
        <ele>1693.6</ele>
        <time>2020-02-08T11:53:54Z</time>
      </trkpt>
      <trkpt lat="45.31073" lon="5.75436">
        <ele>1693</ele>
        <time>2020-02-08T11:53:55Z</time>
      </trkpt>
      <trkpt lat="45.31068" lon="5.75432">
        <ele>1692.6</ele>
        <time>2020-02-08T11:53:56Z</time>
      </trkpt>
      <trkpt lat="45.31063" lon="5.75427">
        <ele>1692</ele>
        <time>2020-02-08T11:53:57Z</time>
      </trkpt>
      <trkpt lat="45.31057" lon="5.75423">
        <ele>1691.6</ele>
        <time>2020-02-08T11:53:58Z</time>
      </trkpt>
      <trkpt lat="45.31052" lon="5.75419">
        <ele>1691.4</ele>
        <time>2020-02-08T11:53:59Z</time>
      </trkpt>
      <trkpt lat="45.31046" lon="5.75415">
        <ele>1690.8</ele>
        <time>2020-02-08T11:54:00Z</time>
      </trkpt>
      <trkpt lat="45.3104" lon="5.75412">
        <ele>1690</ele>
        <time>2020-02-08T11:54:01Z</time>
      </trkpt>
      <trkpt lat="45.31034" lon="5.7541">
        <ele>1689</ele>
        <time>2020-02-08T11:54:02Z</time>
      </trkpt>
      <trkpt lat="45.31027" lon="5.75408">
        <ele>1688.4</ele>
        <time>2020-02-08T11:54:03Z</time>
      </trkpt>
      <trkpt lat="45.3102" lon="5.75407">
        <ele>1687.8</ele>
        <time>2020-02-08T11:54:04Z</time>
      </trkpt>
      <trkpt lat="45.31013" lon="5.75406">
        <ele>1687</ele>
        <time>2020-02-08T11:54:05Z</time>
      </trkpt>
      <trkpt lat="45.31005" lon="5.75407">
        <ele>1686</ele>
        <time>2020-02-08T11:54:06Z</time>
      </trkpt>
      <trkpt lat="45.30998" lon="5.75407">
        <ele>1684.8</ele>
        <time>2020-02-08T11:54:07Z</time>
      </trkpt>
      <trkpt lat="45.3099" lon="5.75407">
        <ele>1683.4</ele>
        <time>2020-02-08T11:54:08Z</time>
      </trkpt>
      <trkpt lat="45.30982" lon="5.75408">
        <ele>1681.8</ele>
        <time>2020-02-08T11:54:09Z</time>
      </trkpt>
      <trkpt lat="45.30974" lon="5.75409">
        <ele>1680.8</ele>
        <time>2020-02-08T11:54:10Z</time>
      </trkpt>
      <trkpt lat="45.30965" lon="5.75409">
        <ele>1680.2</ele>
        <time>2020-02-08T11:54:11Z</time>
      </trkpt>
      <trkpt lat="45.30956" lon="5.75407">
        <ele>1679.4</ele>
        <time>2020-02-08T11:54:12Z</time>
      </trkpt>
      <trkpt lat="45.30947" lon="5.75403">
        <ele>1678.6</ele>
        <time>2020-02-08T11:54:13Z</time>
      </trkpt>
      <trkpt lat="45.30938" lon="5.75397">
        <ele>1677.8</ele>
        <time>2020-02-08T11:54:14Z</time>
      </trkpt>
      <trkpt lat="45.30929" lon="5.7539">
        <ele>1676.6</ele>
        <time>2020-02-08T11:54:15Z</time>
      </trkpt>
      <trkpt lat="45.30921" lon="5.75383">
        <ele>1675.4</ele>
        <time>2020-02-08T11:54:16Z</time>
      </trkpt>
      <trkpt lat="45.30913" lon="5.75376">
        <ele>1674.2</ele>
        <time>2020-02-08T11:54:17Z</time>
      </trkpt>
      <trkpt lat="45.30905" lon="5.75369">
        <ele>1673</ele>
        <time>2020-02-08T11:54:18Z</time>
      </trkpt>
      <trkpt lat="45.30897" lon="5.75362">
        <ele>1671.8</ele>
        <time>2020-02-08T11:54:19Z</time>
      </trkpt>
      <trkpt lat="45.30889" lon="5.75354">
        <ele>1670.6</ele>
        <time>2020-02-08T11:54:20Z</time>
      </trkpt>
      <trkpt lat="45.30881" lon="5.75347">
        <ele>1669.6</ele>
        <time>2020-02-08T11:54:21Z</time>
      </trkpt>
      <trkpt lat="45.30872" lon="5.75341">
        <ele>1668.4</ele>
        <time>2020-02-08T11:54:22Z</time>
      </trkpt>
      <trkpt lat="45.30863" lon="5.75337">
        <ele>1667.4</ele>
        <time>2020-02-08T11:54:23Z</time>
      </trkpt>
      <trkpt lat="45.30854" lon="5.75335">
        <ele>1666.4</ele>
        <time>2020-02-08T11:54:24Z</time>
      </trkpt>
      <trkpt lat="45.30845" lon="5.75332">
        <ele>1665.8</ele>
        <time>2020-02-08T11:54:25Z</time>
      </trkpt>
      <trkpt lat="45.30836" lon="5.75329">
        <ele>1665</ele>
        <time>2020-02-08T11:54:26Z</time>
      </trkpt>
      <trkpt lat="45.30828" lon="5.75324">
        <ele>1664.2</ele>
        <time>2020-02-08T11:54:27Z</time>
      </trkpt>
      <trkpt lat="45.30828" lon="5.75324">
        <ele>1663.6</ele>
        <time>2020-02-08T11:54:28Z</time>
      </trkpt>
      <trkpt lat="45.30813" lon="5.75312">
        <ele>1662.6</ele>
        <time>2020-02-08T11:54:29Z</time>
      </trkpt>
      <trkpt lat="45.3081" lon="5.75308">
        <ele>1661.8</ele>
        <time>2020-02-08T11:54:30Z</time>
      </trkpt>
      <trkpt lat="45.30806" lon="5.75305">
        <ele>1661</ele>
        <time>2020-02-08T11:54:31Z</time>
      </trkpt>
      <trkpt lat="45.30795" lon="5.75293">
        <ele>1660</ele>
        <time>2020-02-08T11:54:32Z</time>
      </trkpt>
      <trkpt lat="45.3079" lon="5.75287">
        <ele>1659</ele>
        <time>2020-02-08T11:54:33Z</time>
      </trkpt>
      <trkpt lat="45.30778" lon="5.75272">
        <ele>1658</ele>
        <time>2020-02-08T11:54:34Z</time>
      </trkpt>
      <trkpt lat="45.30775" lon="5.75269">
        <ele>1657</ele>
        <time>2020-02-08T11:54:35Z</time>
      </trkpt>
      <trkpt lat="45.30768" lon="5.75261">
        <ele>1656.2</ele>
        <time>2020-02-08T11:54:36Z</time>
      </trkpt>
      <trkpt lat="45.30763" lon="5.75253">
        <ele>1655.4</ele>
        <time>2020-02-08T11:54:37Z</time>
      </trkpt>
      <trkpt lat="45.30757" lon="5.75244">
        <ele>1654.6</ele>
        <time>2020-02-08T11:54:38Z</time>
      </trkpt>
      <trkpt lat="45.30752" lon="5.75236">
        <ele>1653.6</ele>
        <time>2020-02-08T11:54:39Z</time>
      </trkpt>
      <trkpt lat="45.30747" lon="5.75226">
        <ele>1652.2</ele>
        <time>2020-02-08T11:54:40Z</time>
      </trkpt>
      <trkpt lat="45.30742" lon="5.75218">
        <ele>1651.4</ele>
        <time>2020-02-08T11:54:41Z</time>
      </trkpt>
      <trkpt lat="45.30735" lon="5.75215">
        <ele>1650.2</ele>
        <time>2020-02-08T11:54:42Z</time>
      </trkpt>
      <trkpt lat="45.3073" lon="5.7522">
        <ele>1649.6</ele>
        <time>2020-02-08T11:54:43Z</time>
      </trkpt>
      <trkpt lat="45.3073" lon="5.7522">
        <ele>1648.8</ele>
        <time>2020-02-08T11:54:44Z</time>
      </trkpt>
      <trkpt lat="45.30728" lon="5.75239">
        <ele>1647.6</ele>
        <time>2020-02-08T11:54:45Z</time>
      </trkpt>
      <trkpt lat="45.3073" lon="5.75247">
        <ele>1646.2</ele>
        <time>2020-02-08T11:54:46Z</time>
      </trkpt>
      <trkpt lat="45.30733" lon="5.75255">
        <ele>1645.2</ele>
        <time>2020-02-08T11:54:47Z</time>
      </trkpt>
      <trkpt lat="45.3074" lon="5.75276">
        <ele>1644</ele>
        <time>2020-02-08T11:54:48Z</time>
      </trkpt>
      <trkpt lat="45.30742" lon="5.75281">
        <ele>1642.8</ele>
        <time>2020-02-08T11:54:49Z</time>
      </trkpt>
      <trkpt lat="45.30746" lon="5.75291">
        <ele>1641.8</ele>
        <time>2020-02-08T11:54:50Z</time>
      </trkpt>
      <trkpt lat="45.30749" lon="5.75295">
        <ele>1640.8</ele>
        <time>2020-02-08T11:54:51Z</time>
      </trkpt>
      <trkpt lat="45.30751" lon="5.75299">
        <ele>1640</ele>
        <time>2020-02-08T11:54:52Z</time>
      </trkpt>
      <trkpt lat="45.30761" lon="5.75314">
        <ele>1639.2</ele>
        <time>2020-02-08T11:54:53Z</time>
      </trkpt>
      <trkpt lat="45.30766" lon="5.7532">
        <ele>1637.8</ele>
        <time>2020-02-08T11:54:54Z</time>
      </trkpt>
      <trkpt lat="45.30779" lon="5.75338">
        <ele>1636.8</ele>
        <time>2020-02-08T11:54:55Z</time>
      </trkpt>
      <trkpt lat="45.30784" lon="5.75344">
        <ele>1635.6</ele>
        <time>2020-02-08T11:54:56Z</time>
      </trkpt>
      <trkpt lat="45.30792" lon="5.75354">
        <ele>1634</ele>
        <time>2020-02-08T11:54:57Z</time>
      </trkpt>
      <trkpt lat="45.308" lon="5.75366">
        <ele>1632.8</ele>
        <time>2020-02-08T11:54:58Z</time>
      </trkpt>
      <trkpt lat="45.30808" lon="5.75378">
        <ele>1631.4</ele>
        <time>2020-02-08T11:54:59Z</time>
      </trkpt>
      <trkpt lat="45.30815" lon="5.75389">
        <ele>1629.8</ele>
        <time>2020-02-08T11:55:00Z</time>
      </trkpt>
      <trkpt lat="45.30821" lon="5.754">
        <ele>1628.4</ele>
        <time>2020-02-08T11:55:01Z</time>
      </trkpt>
      <trkpt lat="45.30828" lon="5.75409">
        <ele>1627.2</ele>
        <time>2020-02-08T11:55:02Z</time>
      </trkpt>
      <trkpt lat="45.30828" lon="5.75409">
        <ele>1626</ele>
        <time>2020-02-08T11:55:03Z</time>
      </trkpt>
      <trkpt lat="45.3084" lon="5.75427">
        <ele>1624.8</ele>
        <time>2020-02-08T11:55:04Z</time>
      </trkpt>
      <trkpt lat="45.30851" lon="5.75443">
        <ele>1623.6</ele>
        <time>2020-02-08T11:55:05Z</time>
      </trkpt>
      <trkpt lat="45.30854" lon="5.75449">
        <ele>1622.4</ele>
        <time>2020-02-08T11:55:06Z</time>
      </trkpt>
      <trkpt lat="45.3086" lon="5.75462">
        <ele>1621</ele>
        <time>2020-02-08T11:55:07Z</time>
      </trkpt>
      <trkpt lat="45.30864" lon="5.75478">
        <ele>1619.8</ele>
        <time>2020-02-08T11:55:08Z</time>
      </trkpt>
      <trkpt lat="45.30866" lon="5.75494">
        <ele>1618.4</ele>
        <time>2020-02-08T11:55:09Z</time>
      </trkpt>
      <trkpt lat="45.30868" lon="5.75509">
        <ele>1616.8</ele>
        <time>2020-02-08T11:55:10Z</time>
      </trkpt>
      <trkpt lat="45.30872" lon="5.75524">
        <ele>1615.4</ele>
        <time>2020-02-08T11:55:11Z</time>
      </trkpt>
      <trkpt lat="45.30876" lon="5.75537">
        <ele>1614.2</ele>
        <time>2020-02-08T11:55:12Z</time>
      </trkpt>
      <trkpt lat="45.30881" lon="5.75549">
        <ele>1612.8</ele>
        <time>2020-02-08T11:55:13Z</time>
      </trkpt>
      <trkpt lat="45.30887" lon="5.75562">
        <ele>1611.6</ele>
        <time>2020-02-08T11:55:14Z</time>
      </trkpt>
      <trkpt lat="45.30887" lon="5.75562">
        <ele>1611</ele>
        <time>2020-02-08T11:55:15Z</time>
      </trkpt>
      <trkpt lat="45.30878" lon="5.75574">
        <ele>1610</ele>
        <time>2020-02-08T11:55:16Z</time>
      </trkpt>
      <trkpt lat="45.30875" lon="5.75571">
        <ele>1609.6</ele>
        <time>2020-02-08T11:55:17Z</time>
      </trkpt>
      <trkpt lat="45.30872" lon="5.75568">
        <ele>1609.4</ele>
        <time>2020-02-08T11:55:18Z</time>
      </trkpt>
      <trkpt lat="45.30863" lon="5.75559">
        <ele>1608.6</ele>
        <time>2020-02-08T11:55:19Z</time>
      </trkpt>
      <trkpt lat="45.3086" lon="5.75555">
        <ele>1607.8</ele>
        <time>2020-02-08T11:55:20Z</time>
      </trkpt>
      <trkpt lat="45.30849" lon="5.75545">
        <ele>1606.8</ele>
        <time>2020-02-08T11:55:21Z</time>
      </trkpt>
      <trkpt lat="45.30845" lon="5.75541">
        <ele>1605.8</ele>
        <time>2020-02-08T11:55:22Z</time>
      </trkpt>
      <trkpt lat="45.30834" lon="5.75532">
        <ele>1604.6</ele>
        <time>2020-02-08T11:55:23Z</time>
      </trkpt>
      <trkpt lat="45.3083" lon="5.75529">
        <ele>1604</ele>
        <time>2020-02-08T11:55:24Z</time>
      </trkpt>
      <trkpt lat="45.30817" lon="5.75518">
        <ele>1602.8</ele>
        <time>2020-02-08T11:55:25Z</time>
      </trkpt>
      <trkpt lat="45.30812" lon="5.75513">
        <ele>1602</ele>
        <time>2020-02-08T11:55:26Z</time>
      </trkpt>
      <trkpt lat="45.30796" lon="5.75501">
        <ele>1600.8</ele>
        <time>2020-02-08T11:55:27Z</time>
      </trkpt>
      <trkpt lat="45.30791" lon="5.75499">
        <ele>1599.6</ele>
        <time>2020-02-08T11:55:28Z</time>
      </trkpt>
      <trkpt lat="45.30782" lon="5.75495">
        <ele>1599</ele>
        <time>2020-02-08T11:55:29Z</time>
      </trkpt>
      <trkpt lat="45.30772" lon="5.75492">
        <ele>1597.8</ele>
        <time>2020-02-08T11:55:30Z</time>
      </trkpt>
      <trkpt lat="45.30762" lon="5.75488">
        <ele>1596.6</ele>
        <time>2020-02-08T11:55:31Z</time>
      </trkpt>
      <trkpt lat="45.30753" lon="5.75481">
        <ele>1595.4</ele>
        <time>2020-02-08T11:55:32Z</time>
      </trkpt>
      <trkpt lat="45.30744" lon="5.75474">
        <ele>1594.6</ele>
        <time>2020-02-08T11:55:33Z</time>
      </trkpt>
      <trkpt lat="45.30736" lon="5.75465">
        <ele>1593</ele>
        <time>2020-02-08T11:55:34Z</time>
      </trkpt>
      <trkpt lat="45.30736" lon="5.75465">
        <ele>1591.6</ele>
        <time>2020-02-08T11:55:35Z</time>
      </trkpt>
      <trkpt lat="45.30723" lon="5.75448">
        <ele>1590.2</ele>
        <time>2020-02-08T11:55:36Z</time>
      </trkpt>
      <trkpt lat="45.30712" lon="5.75438">
        <ele>1589.2</ele>
        <time>2020-02-08T11:55:37Z</time>
      </trkpt>
      <trkpt lat="45.30708" lon="5.75434">
        <ele>1588</ele>
        <time>2020-02-08T11:55:38Z</time>
      </trkpt>
      <trkpt lat="45.307" lon="5.75428">
        <ele>1587</ele>
        <time>2020-02-08T11:55:39Z</time>
      </trkpt>
      <trkpt lat="45.30692" lon="5.75421">
        <ele>1585.8</ele>
        <time>2020-02-08T11:55:40Z</time>
      </trkpt>
      <trkpt lat="45.30684" lon="5.75415">
        <ele>1584.4</ele>
        <time>2020-02-08T11:55:41Z</time>
      </trkpt>
      <trkpt lat="45.30676" lon="5.75409">
        <ele>1583.6</ele>
        <time>2020-02-08T11:55:42Z</time>
      </trkpt>
      <trkpt lat="45.30667" lon="5.75403">
        <ele>1582.6</ele>
        <time>2020-02-08T11:55:43Z</time>
      </trkpt>
      <trkpt lat="45.30659" lon="5.75396">
        <ele>1581.4</ele>
        <time>2020-02-08T11:55:44Z</time>
      </trkpt>
      <trkpt lat="45.30652" lon="5.75387">
        <ele>1580.4</ele>
        <time>2020-02-08T11:55:45Z</time>
      </trkpt>
      <trkpt lat="45.30644" lon="5.75379">
        <ele>1579.2</ele>
        <time>2020-02-08T11:55:46Z</time>
      </trkpt>
      <trkpt lat="45.30635" lon="5.75375">
        <ele>1577.8</ele>
        <time>2020-02-08T11:55:47Z</time>
      </trkpt>
      <trkpt lat="45.30626" lon="5.75371">
        <ele>1576.8</ele>
        <time>2020-02-08T11:55:48Z</time>
      </trkpt>
      <trkpt lat="45.30617" lon="5.75367">
        <ele>1575.6</ele>
        <time>2020-02-08T11:55:49Z</time>
      </trkpt>
      <trkpt lat="45.30607" lon="5.75364">
        <ele>1574.4</ele>
        <time>2020-02-08T11:55:50Z</time>
      </trkpt>
      <trkpt lat="45.30597" lon="5.75359">
        <ele>1573.2</ele>
        <time>2020-02-08T11:55:51Z</time>
      </trkpt>
      <trkpt lat="45.30587" lon="5.75353">
        <ele>1572</ele>
        <time>2020-02-08T11:55:52Z</time>
      </trkpt>
      <trkpt lat="45.30576" lon="5.75348">
        <ele>1570.4</ele>
        <time>2020-02-08T11:55:53Z</time>
      </trkpt>
      <trkpt lat="45.30567" lon="5.75343">
        <ele>1569</ele>
        <time>2020-02-08T11:55:54Z</time>
      </trkpt>
      <trkpt lat="45.30558" lon="5.75339">
        <ele>1567.4</ele>
        <time>2020-02-08T11:55:55Z</time>
      </trkpt>
      <trkpt lat="45.30548" lon="5.75334">
        <ele>1566</ele>
        <time>2020-02-08T11:55:56Z</time>
      </trkpt>
      <trkpt lat="45.30539" lon="5.75327">
        <ele>1564.6</ele>
        <time>2020-02-08T11:55:57Z</time>
      </trkpt>
      <trkpt lat="45.3053" lon="5.75321">
        <ele>1563.2</ele>
        <time>2020-02-08T11:55:58Z</time>
      </trkpt>
      <trkpt lat="45.30522" lon="5.75314">
        <ele>1561.8</ele>
        <time>2020-02-08T11:55:59Z</time>
      </trkpt>
      <trkpt lat="45.30522" lon="5.75314">
        <ele>1560.4</ele>
        <time>2020-02-08T11:56:00Z</time>
      </trkpt>
      <trkpt lat="45.30506" lon="5.75303">
        <ele>1559</ele>
        <time>2020-02-08T11:56:01Z</time>
      </trkpt>
      <trkpt lat="45.30502" lon="5.75303">
        <ele>1558</ele>
        <time>2020-02-08T11:56:02Z</time>
      </trkpt>
      <trkpt lat="45.30497" lon="5.75303">
        <ele>1557</ele>
        <time>2020-02-08T11:56:03Z</time>
      </trkpt>
      <trkpt lat="45.30486" lon="5.75305">
        <ele>1555.8</ele>
        <time>2020-02-08T11:56:04Z</time>
      </trkpt>
      <trkpt lat="45.30482" lon="5.75307">
        <ele>1554.8</ele>
        <time>2020-02-08T11:56:05Z</time>
      </trkpt>
      <trkpt lat="45.30472" lon="5.75312">
        <ele>1553.8</ele>
        <time>2020-02-08T11:56:06Z</time>
      </trkpt>
      <trkpt lat="45.30469" lon="5.75313">
        <ele>1553</ele>
        <time>2020-02-08T11:56:07Z</time>
      </trkpt>
      <trkpt lat="45.30459" lon="5.75313">
        <ele>1552.4</ele>
        <time>2020-02-08T11:56:08Z</time>
      </trkpt>
      <trkpt lat="45.30455" lon="5.75313">
        <ele>1551.8</ele>
        <time>2020-02-08T11:56:09Z</time>
      </trkpt>
      <trkpt lat="45.30445" lon="5.75311">
        <ele>1551.2</ele>
        <time>2020-02-08T11:56:10Z</time>
      </trkpt>
      <trkpt lat="45.30443" lon="5.7531">
        <ele>1551</ele>
        <time>2020-02-08T11:56:11Z</time>
      </trkpt>
      <trkpt lat="45.30438" lon="5.75308">
        <ele>1550.6</ele>
        <time>2020-02-08T11:56:12Z</time>
      </trkpt>
      <trkpt lat="45.30438" lon="5.75308">
        <ele>1550.2</ele>
        <time>2020-02-08T11:56:13Z</time>
      </trkpt>
      <trkpt lat="45.30438" lon="5.75308">
        <ele>1549.6</ele>
        <time>2020-02-08T11:56:14Z</time>
      </trkpt>
      <trkpt lat="45.30442" lon="5.75318">
        <ele>1548.8</ele>
        <time>2020-02-08T11:56:15Z</time>
      </trkpt>
      <trkpt lat="45.30445" lon="5.75327">
        <ele>1547.2</ele>
        <time>2020-02-08T11:56:16Z</time>
      </trkpt>
      <trkpt lat="45.30449" lon="5.75336">
        <ele>1545.8</ele>
        <time>2020-02-08T11:56:17Z</time>
      </trkpt>
      <trkpt lat="45.30452" lon="5.75346">
        <ele>1544.4</ele>
        <time>2020-02-08T11:56:18Z</time>
      </trkpt>
      <trkpt lat="45.30461" lon="5.75368">
        <ele>1541.6</ele>
        <time>2020-02-08T11:56:19Z</time>
      </trkpt>
      <trkpt lat="45.30462" lon="5.75373">
        <ele>1540</ele>
        <time>2020-02-08T11:56:20Z</time>
      </trkpt>
      <trkpt lat="45.30465" lon="5.75383">
        <ele>1538.2</ele>
        <time>2020-02-08T11:56:21Z</time>
      </trkpt>
      <trkpt lat="45.30468" lon="5.75399">
        <ele>1536.4</ele>
        <time>2020-02-08T11:56:22Z</time>
      </trkpt>
      <trkpt lat="45.30468" lon="5.75402">
        <ele>1533.4</ele>
        <time>2020-02-08T11:56:23Z</time>
      </trkpt>
      <trkpt lat="45.30467" lon="5.75409">
        <ele>1531</ele>
        <time>2020-02-08T11:56:24Z</time>
      </trkpt>
      <trkpt lat="45.30467" lon="5.75409">
        <ele>1528.8</ele>
        <time>2020-02-08T11:56:25Z</time>
      </trkpt>
      <trkpt lat="45.3044" lon="5.75423">
        <ele>1527.2</ele>
        <time>2020-02-08T11:56:26Z</time>
      </trkpt>
      <trkpt lat="45.30435" lon="5.75428">
        <ele>1525.6</ele>
        <time>2020-02-08T11:56:27Z</time>
      </trkpt>
      <trkpt lat="45.30431" lon="5.75433">
        <ele>1524</ele>
        <time>2020-02-08T11:56:28Z</time>
      </trkpt>
      <trkpt lat="45.30426" lon="5.75443">
        <ele>1522.8</ele>
        <time>2020-02-08T11:56:29Z</time>
      </trkpt>
      <trkpt lat="45.30426" lon="5.75448">
        <ele>1521.4</ele>
        <time>2020-02-08T11:56:30Z</time>
      </trkpt>
      <trkpt lat="45.30426" lon="5.75454">
        <ele>1520.2</ele>
        <time>2020-02-08T11:56:31Z</time>
      </trkpt>
      <trkpt lat="45.30426" lon="5.75469">
        <ele>1519</ele>
        <time>2020-02-08T11:56:32Z</time>
      </trkpt>
      <trkpt lat="45.30427" lon="5.75474">
        <ele>1517.8</ele>
        <time>2020-02-08T11:56:33Z</time>
      </trkpt>
      <trkpt lat="45.30429" lon="5.75487">
        <ele>1517.2</ele>
        <time>2020-02-08T11:56:34Z</time>
      </trkpt>
      <trkpt lat="45.30429" lon="5.75491">
        <ele>1516.2</ele>
        <time>2020-02-08T11:56:35Z</time>
      </trkpt>
      <trkpt lat="45.30431" lon="5.75503">
        <ele>1515.4</ele>
        <time>2020-02-08T11:56:36Z</time>
      </trkpt>
      <trkpt lat="45.30432" lon="5.75507">
        <ele>1514.2</ele>
        <time>2020-02-08T11:56:37Z</time>
      </trkpt>
      <trkpt lat="45.30432" lon="5.75522">
        <ele>1513.4</ele>
        <time>2020-02-08T11:56:38Z</time>
      </trkpt>
      <trkpt lat="45.30432" lon="5.75528">
        <ele>1512.8</ele>
        <time>2020-02-08T11:56:39Z</time>
      </trkpt>
      <trkpt lat="45.30434" lon="5.75542">
        <ele>1512</ele>
        <time>2020-02-08T11:56:40Z</time>
      </trkpt>
      <trkpt lat="45.30434" lon="5.75546">
        <ele>1511.2</ele>
        <time>2020-02-08T11:56:41Z</time>
      </trkpt>
      <trkpt lat="45.30437" lon="5.75558">
        <ele>1510.4</ele>
        <time>2020-02-08T11:56:42Z</time>
      </trkpt>
      <trkpt lat="45.30439" lon="5.75562">
        <ele>1509.4</ele>
        <time>2020-02-08T11:56:43Z</time>
      </trkpt>
      <trkpt lat="45.30443" lon="5.75576">
        <ele>1508.6</ele>
        <time>2020-02-08T11:56:44Z</time>
      </trkpt>
      <trkpt lat="45.30443" lon="5.75582">
        <ele>1507.4</ele>
        <time>2020-02-08T11:56:45Z</time>
      </trkpt>
      <trkpt lat="45.30443" lon="5.75601">
        <ele>1506.4</ele>
        <time>2020-02-08T11:56:46Z</time>
      </trkpt>
      <trkpt lat="45.30442" lon="5.75607">
        <ele>1505.2</ele>
        <time>2020-02-08T11:56:47Z</time>
      </trkpt>
      <trkpt lat="45.3044" lon="5.75625">
        <ele>1504.2</ele>
        <time>2020-02-08T11:56:48Z</time>
      </trkpt>
      <trkpt lat="45.30439" lon="5.7563">
        <ele>1503</ele>
        <time>2020-02-08T11:56:49Z</time>
      </trkpt>
      <trkpt lat="45.30438" lon="5.75647">
        <ele>1501.8</ele>
        <time>2020-02-08T11:56:50Z</time>
      </trkpt>
      <trkpt lat="45.30438" lon="5.75653">
        <ele>1500.8</ele>
        <time>2020-02-08T11:56:51Z</time>
      </trkpt>
      <trkpt lat="45.30435" lon="5.75668">
        <ele>1500</ele>
        <time>2020-02-08T11:56:52Z</time>
      </trkpt>
      <trkpt lat="45.30433" lon="5.75673">
        <ele>1499</ele>
        <time>2020-02-08T11:56:53Z</time>
      </trkpt>
      <trkpt lat="45.30421" lon="5.75686">
        <ele>1497.6</ele>
        <time>2020-02-08T11:56:54Z</time>
      </trkpt>
      <trkpt lat="45.30413" lon="5.75688">
        <ele>1496.4</ele>
        <time>2020-02-08T11:56:55Z</time>
      </trkpt>
      <trkpt lat="45.30388" lon="5.7569">
        <ele>1495</ele>
        <time>2020-02-08T11:56:56Z</time>
      </trkpt>
      <trkpt lat="45.3038" lon="5.75689">
        <ele>1493.8</ele>
        <time>2020-02-08T11:56:57Z</time>
      </trkpt>
      <trkpt lat="45.30363" lon="5.75686">
        <ele>1492.6</ele>
        <time>2020-02-08T11:56:58Z</time>
      </trkpt>
      <trkpt lat="45.30353" lon="5.75682">
        <ele>1492</ele>
        <time>2020-02-08T11:56:59Z</time>
      </trkpt>
      <trkpt lat="45.30342" lon="5.75679">
        <ele>1491.2</ele>
        <time>2020-02-08T11:57:00Z</time>
      </trkpt>
      <trkpt lat="45.30331" lon="5.75676">
        <ele>1490.4</ele>
        <time>2020-02-08T11:57:01Z</time>
      </trkpt>
      <trkpt lat="45.30321" lon="5.75672">
        <ele>1489</ele>
        <time>2020-02-08T11:57:02Z</time>
      </trkpt>
      <trkpt lat="45.30311" lon="5.75669">
        <ele>1488</ele>
        <time>2020-02-08T11:57:03Z</time>
      </trkpt>
      <trkpt lat="45.30301" lon="5.75666">
        <ele>1487</ele>
        <time>2020-02-08T11:57:04Z</time>
      </trkpt>
      <trkpt lat="45.30292" lon="5.75663">
        <ele>1486.2</ele>
        <time>2020-02-08T11:57:05Z</time>
      </trkpt>
      <trkpt lat="45.30283" lon="5.7566">
        <ele>1485.2</ele>
        <time>2020-02-08T11:57:06Z</time>
      </trkpt>
      <trkpt lat="45.30274" lon="5.75658">
        <ele>1483.6</ele>
        <time>2020-02-08T11:57:07Z</time>
      </trkpt>
      <trkpt lat="45.30264" lon="5.75656">
        <ele>1482.8</ele>
        <time>2020-02-08T11:57:08Z</time>
      </trkpt>
      <trkpt lat="45.30254" lon="5.75655">
        <ele>1481.8</ele>
        <time>2020-02-08T11:57:09Z</time>
      </trkpt>
      <trkpt lat="45.30245" lon="5.75651">
        <ele>1480.6</ele>
        <time>2020-02-08T11:57:10Z</time>
      </trkpt>
      <trkpt lat="45.30245" lon="5.75651">
        <ele>1479.4</ele>
        <time>2020-02-08T11:57:11Z</time>
      </trkpt>
      <trkpt lat="45.30233" lon="5.75637">
        <ele>1478</ele>
        <time>2020-02-08T11:57:12Z</time>
      </trkpt>
      <trkpt lat="45.30229" lon="5.75629">
        <ele>1476.6</ele>
        <time>2020-02-08T11:57:13Z</time>
      </trkpt>
      <trkpt lat="45.30225" lon="5.75622">
        <ele>1475.4</ele>
        <time>2020-02-08T11:57:14Z</time>
      </trkpt>
      <trkpt lat="45.30214" lon="5.75604">
        <ele>1474.2</ele>
        <time>2020-02-08T11:57:15Z</time>
      </trkpt>
      <trkpt lat="45.30211" lon="5.756">
        <ele>1473</ele>
        <time>2020-02-08T11:57:16Z</time>
      </trkpt>
      <trkpt lat="45.30205" lon="5.75593">
        <ele>1471.8</ele>
        <time>2020-02-08T11:57:17Z</time>
      </trkpt>
      <trkpt lat="45.30203" lon="5.75589">
        <ele>1471</ele>
        <time>2020-02-08T11:57:18Z</time>
      </trkpt>
      <trkpt lat="45.302" lon="5.75585">
        <ele>1470</ele>
        <time>2020-02-08T11:57:19Z</time>
      </trkpt>
      <trkpt lat="45.30192" lon="5.75574">
        <ele>1469</ele>
        <time>2020-02-08T11:57:20Z</time>
      </trkpt>
      <trkpt lat="45.30189" lon="5.75569">
        <ele>1468</ele>
        <time>2020-02-08T11:57:21Z</time>
      </trkpt>
      <trkpt lat="45.30181" lon="5.75558">
        <ele>1466.8</ele>
        <time>2020-02-08T11:57:22Z</time>
      </trkpt>
      <trkpt lat="45.30178" lon="5.75555">
        <ele>1465.8</ele>
        <time>2020-02-08T11:57:23Z</time>
      </trkpt>
      <trkpt lat="45.30166" lon="5.75544">
        <ele>1465</ele>
        <time>2020-02-08T11:57:24Z</time>
      </trkpt>
      <trkpt lat="45.3016" lon="5.7554">
        <ele>1464</ele>
        <time>2020-02-08T11:57:25Z</time>
      </trkpt>
      <trkpt lat="45.30146" lon="5.75531">
        <ele>1462.6</ele>
        <time>2020-02-08T11:57:26Z</time>
      </trkpt>
      <trkpt lat="45.30144" lon="5.7553">
        <ele>1461.4</ele>
        <time>2020-02-08T11:57:27Z</time>
      </trkpt>
      <trkpt lat="45.30139" lon="5.75527">
        <ele>1460.4</ele>
        <time>2020-02-08T11:57:28Z</time>
      </trkpt>
      <trkpt lat="45.30123" lon="5.75518">
        <ele>1459.8</ele>
        <time>2020-02-08T11:57:29Z</time>
      </trkpt>
      <trkpt lat="45.30119" lon="5.75515">
        <ele>1459</ele>
        <time>2020-02-08T11:57:30Z</time>
      </trkpt>
      <trkpt lat="45.30114" lon="5.75513">
        <ele>1457.6</ele>
        <time>2020-02-08T11:57:31Z</time>
      </trkpt>
      <trkpt lat="45.30102" lon="5.75506">
        <ele>1456.8</ele>
        <time>2020-02-08T11:57:32Z</time>
      </trkpt>
      <trkpt lat="45.30099" lon="5.75503">
        <ele>1456</ele>
        <time>2020-02-08T11:57:33Z</time>
      </trkpt>
      <trkpt lat="45.3009" lon="5.75494">
        <ele>1454.8</ele>
        <time>2020-02-08T11:57:34Z</time>
      </trkpt>
      <trkpt lat="45.30087" lon="5.75491">
        <ele>1453.8</ele>
        <time>2020-02-08T11:57:35Z</time>
      </trkpt>
      <trkpt lat="45.30079" lon="5.75481">
        <ele>1452.4</ele>
        <time>2020-02-08T11:57:36Z</time>
      </trkpt>
      <trkpt lat="45.30076" lon="5.75477">
        <ele>1451.2</ele>
        <time>2020-02-08T11:57:37Z</time>
      </trkpt>
      <trkpt lat="45.30067" lon="5.75463">
        <ele>1450</ele>
        <time>2020-02-08T11:57:38Z</time>
      </trkpt>
      <trkpt lat="45.30062" lon="5.75457">
        <ele>1448.8</ele>
        <time>2020-02-08T11:57:39Z</time>
      </trkpt>
      <trkpt lat="45.30051" lon="5.75438">
        <ele>1447.6</ele>
        <time>2020-02-08T11:57:40Z</time>
      </trkpt>
      <trkpt lat="45.30049" lon="5.75432">
        <ele>1446.2</ele>
        <time>2020-02-08T11:57:41Z</time>
      </trkpt>
      <trkpt lat="45.30045" lon="5.75421">
        <ele>1445.2</ele>
        <time>2020-02-08T11:57:42Z</time>
      </trkpt>
      <trkpt lat="45.30034" lon="5.75402">
        <ele>1443.8</ele>
        <time>2020-02-08T11:57:43Z</time>
      </trkpt>
      <trkpt lat="45.3003" lon="5.75396">
        <ele>1442.6</ele>
        <time>2020-02-08T11:57:44Z</time>
      </trkpt>
      <trkpt lat="45.30022" lon="5.75383">
        <ele>1441.6</ele>
        <time>2020-02-08T11:57:45Z</time>
      </trkpt>
      <trkpt lat="45.30012" lon="5.75373">
        <ele>1440.8</ele>
        <time>2020-02-08T11:57:46Z</time>
      </trkpt>
      <trkpt lat="45.30001" lon="5.75363">
        <ele>1439.6</ele>
        <time>2020-02-08T11:57:47Z</time>
      </trkpt>
      <trkpt lat="45.2999" lon="5.75353">
        <ele>1438.4</ele>
        <time>2020-02-08T11:57:48Z</time>
      </trkpt>
      <trkpt lat="45.29981" lon="5.75342">
        <ele>1437</ele>
        <time>2020-02-08T11:57:49Z</time>
      </trkpt>
      <trkpt lat="45.29973" lon="5.75332">
        <ele>1435.4</ele>
        <time>2020-02-08T11:57:50Z</time>
      </trkpt>
      <trkpt lat="45.29965" lon="5.75324">
        <ele>1434.8</ele>
        <time>2020-02-08T11:57:51Z</time>
      </trkpt>
      <trkpt lat="45.29959" lon="5.75314">
        <ele>1433.6</ele>
        <time>2020-02-08T11:57:52Z</time>
      </trkpt>
      <trkpt lat="45.29952" lon="5.75304">
        <ele>1432.4</ele>
        <time>2020-02-08T11:57:53Z</time>
      </trkpt>
      <trkpt lat="45.29947" lon="5.75293">
        <ele>1431.4</ele>
        <time>2020-02-08T11:57:54Z</time>
      </trkpt>
      <trkpt lat="45.29943" lon="5.75279">
        <ele>1430.2</ele>
        <time>2020-02-08T11:57:55Z</time>
      </trkpt>
      <trkpt lat="45.2994" lon="5.75264">
        <ele>1428.8</ele>
        <time>2020-02-08T11:57:56Z</time>
      </trkpt>
      <trkpt lat="45.29939" lon="5.75246">
        <ele>1427.8</ele>
        <time>2020-02-08T11:57:57Z</time>
      </trkpt>
      <trkpt lat="45.29938" lon="5.75233">
        <ele>1427</ele>
        <time>2020-02-08T11:57:58Z</time>
      </trkpt>
      <trkpt lat="45.29938" lon="5.75233">
        <ele>1425.8</ele>
        <time>2020-02-08T11:57:59Z</time>
      </trkpt>
      <trkpt lat="45.29927" lon="5.75223">
        <ele>1424.8</ele>
        <time>2020-02-08T11:58:00Z</time>
      </trkpt>
      <trkpt lat="45.29924" lon="5.75225">
        <ele>1424</ele>
        <time>2020-02-08T11:58:01Z</time>
      </trkpt>
      <trkpt lat="45.29921" lon="5.75226">
        <ele>1423.4</ele>
        <time>2020-02-08T11:58:02Z</time>
      </trkpt>
      <trkpt lat="45.29912" lon="5.75232">
        <ele>1423</ele>
        <time>2020-02-08T11:58:03Z</time>
      </trkpt>
      <trkpt lat="45.2991" lon="5.75235">
        <ele>1422.4</ele>
        <time>2020-02-08T11:58:04Z</time>
      </trkpt>
      <trkpt lat="45.29903" lon="5.75244">
        <ele>1421.2</ele>
        <time>2020-02-08T11:58:05Z</time>
      </trkpt>
      <trkpt lat="45.29901" lon="5.75247">
        <ele>1420.8</ele>
        <time>2020-02-08T11:58:06Z</time>
      </trkpt>
      <trkpt lat="45.29894" lon="5.75254">
        <ele>1420.2</ele>
        <time>2020-02-08T11:58:07Z</time>
      </trkpt>
      <trkpt lat="45.29892" lon="5.75256">
        <ele>1419.4</ele>
        <time>2020-02-08T11:58:08Z</time>
      </trkpt>
      <trkpt lat="45.29886" lon="5.75262">
        <ele>1419.4</ele>
        <time>2020-02-08T11:58:09Z</time>
      </trkpt>
      <trkpt lat="45.29884" lon="5.75263">
        <ele>1418.8</ele>
        <time>2020-02-08T11:58:10Z</time>
      </trkpt>
      <trkpt lat="45.29874" lon="5.75266">
        <ele>1418.6</ele>
        <time>2020-02-08T11:58:11Z</time>
      </trkpt>
      <trkpt lat="45.2987" lon="5.75266">
        <ele>1417.6</ele>
        <time>2020-02-08T11:58:12Z</time>
      </trkpt>
      <trkpt lat="45.29865" lon="5.75264">
        <ele>1416.8</ele>
        <time>2020-02-08T11:58:13Z</time>
      </trkpt>
      <trkpt lat="45.2986" lon="5.75261">
        <ele>1416.2</ele>
        <time>2020-02-08T11:58:14Z</time>
      </trkpt>
      <trkpt lat="45.29854" lon="5.75258">
        <ele>1415.4</ele>
        <time>2020-02-08T11:58:15Z</time>
      </trkpt>
      <trkpt lat="45.29848" lon="5.75255">
        <ele>1415.2</ele>
        <time>2020-02-08T11:58:16Z</time>
      </trkpt>
      <trkpt lat="45.29846" lon="5.75254">
        <ele>1415.4</ele>
        <time>2020-02-08T11:58:17Z</time>
      </trkpt>
      <trkpt lat="45.29843" lon="5.75252">
        <ele>1415.4</ele>
        <time>2020-02-08T11:58:18Z</time>
      </trkpt>
      <trkpt lat="45.29839" lon="5.75249">
        <ele>1415</ele>
        <time>2020-02-08T11:58:19Z</time>
      </trkpt>
      <trkpt lat="45.29839" lon="5.75249">
        <ele>1414.6</ele>
        <time>2020-02-08T11:58:20Z</time>
      </trkpt>
      <trkpt lat="45.29827" lon="5.7525">
        <ele>1415</ele>
        <time>2020-02-08T11:58:21Z</time>
      </trkpt>
      <trkpt lat="45.29825" lon="5.75253">
        <ele>1414.8</ele>
        <time>2020-02-08T11:58:22Z</time>
      </trkpt>
      <trkpt lat="45.29824" lon="5.75255">
        <ele>1414.6</ele>
        <time>2020-02-08T11:58:23Z</time>
      </trkpt>
      <trkpt lat="45.29817" lon="5.75264">
        <ele>1414</ele>
        <time>2020-02-08T11:58:24Z</time>
      </trkpt>
      <trkpt lat="45.29816" lon="5.75266">
        <ele>1413.2</ele>
        <time>2020-02-08T11:58:25Z</time>
      </trkpt>
      <trkpt lat="45.29815" lon="5.75269">
        <ele>1412.8</ele>
        <time>2020-02-08T11:58:26Z</time>
      </trkpt>
      <trkpt lat="45.2981" lon="5.7528">
        <ele>1412.4</ele>
        <time>2020-02-08T11:58:27Z</time>
      </trkpt>
      <trkpt lat="45.29809" lon="5.75284">
        <ele>1411.8</ele>
        <time>2020-02-08T11:58:28Z</time>
      </trkpt>
      <trkpt lat="45.29808" lon="5.75297">
        <ele>1411.4</ele>
        <time>2020-02-08T11:58:29Z</time>
      </trkpt>
      <trkpt lat="45.29808" lon="5.75301">
        <ele>1411</ele>
        <time>2020-02-08T11:58:30Z</time>
      </trkpt>
      <trkpt lat="45.29809" lon="5.75313">
        <ele>1410.2</ele>
        <time>2020-02-08T11:58:31Z</time>
      </trkpt>
      <trkpt lat="45.29809" lon="5.75316">
        <ele>1409.6</ele>
        <time>2020-02-08T11:58:32Z</time>
      </trkpt>
      <trkpt lat="45.29809" lon="5.7532">
        <ele>1408.8</ele>
        <time>2020-02-08T11:58:33Z</time>
      </trkpt>
      <trkpt lat="45.2981" lon="5.75333">
        <ele>1408.2</ele>
        <time>2020-02-08T11:58:34Z</time>
      </trkpt>
      <trkpt lat="45.2981" lon="5.75337">
        <ele>1407.2</ele>
        <time>2020-02-08T11:58:35Z</time>
      </trkpt>
      <trkpt lat="45.29813" lon="5.75351">
        <ele>1407</ele>
        <time>2020-02-08T11:58:36Z</time>
      </trkpt>
      <trkpt lat="45.29814" lon="5.75355">
        <ele>1406.4</ele>
        <time>2020-02-08T11:58:37Z</time>
      </trkpt>
      <trkpt lat="45.29818" lon="5.75368">
        <ele>1405.6</ele>
        <time>2020-02-08T11:58:38Z</time>
      </trkpt>
      <trkpt lat="45.29819" lon="5.75373">
        <ele>1405</ele>
        <time>2020-02-08T11:58:39Z</time>
      </trkpt>
      <trkpt lat="45.29821" lon="5.75386">
        <ele>1404.2</ele>
        <time>2020-02-08T11:58:40Z</time>
      </trkpt>
      <trkpt lat="45.29821" lon="5.7539">
        <ele>1403.8</ele>
        <time>2020-02-08T11:58:41Z</time>
      </trkpt>
      <trkpt lat="45.29823" lon="5.75404">
        <ele>1403.2</ele>
        <time>2020-02-08T11:58:42Z</time>
      </trkpt>
      <trkpt lat="45.29824" lon="5.75409">
        <ele>1402.4</ele>
        <time>2020-02-08T11:58:43Z</time>
      </trkpt>
      <trkpt lat="45.29826" lon="5.75424">
        <ele>1401.8</ele>
        <time>2020-02-08T11:58:44Z</time>
      </trkpt>
      <trkpt lat="45.29828" lon="5.75429">
        <ele>1401</ele>
        <time>2020-02-08T11:58:45Z</time>
      </trkpt>
      <trkpt lat="45.29832" lon="5.75444">
        <ele>1400.2</ele>
        <time>2020-02-08T11:58:46Z</time>
      </trkpt>
      <trkpt lat="45.29833" lon="5.7545">
        <ele>1399.4</ele>
        <time>2020-02-08T11:58:47Z</time>
      </trkpt>
      <trkpt lat="45.29838" lon="5.75466">
        <ele>1398.4</ele>
        <time>2020-02-08T11:58:48Z</time>
      </trkpt>
      <trkpt lat="45.29839" lon="5.75471">
        <ele>1397.8</ele>
        <time>2020-02-08T11:58:49Z</time>
      </trkpt>
      <trkpt lat="45.29843" lon="5.75488">
        <ele>1396.8</ele>
        <time>2020-02-08T11:58:50Z</time>
      </trkpt>
      <trkpt lat="45.29844" lon="5.75494">
        <ele>1395.6</ele>
        <time>2020-02-08T11:58:51Z</time>
      </trkpt>
      <trkpt lat="45.29846" lon="5.75511">
        <ele>1394.8</ele>
        <time>2020-02-08T11:58:52Z</time>
      </trkpt>
      <trkpt lat="45.29847" lon="5.75516">
        <ele>1393.8</ele>
        <time>2020-02-08T11:58:53Z</time>
      </trkpt>
      <trkpt lat="45.29845" lon="5.75535">
        <ele>1393</ele>
        <time>2020-02-08T11:58:54Z</time>
      </trkpt>
      <trkpt lat="45.29842" lon="5.75543">
        <ele>1392</ele>
        <time>2020-02-08T11:58:55Z</time>
      </trkpt>
      <trkpt lat="45.29828" lon="5.75566">
        <ele>1391</ele>
        <time>2020-02-08T11:58:56Z</time>
      </trkpt>
      <trkpt lat="45.29823" lon="5.75572">
        <ele>1390</ele>
        <time>2020-02-08T11:58:57Z</time>
      </trkpt>
      <trkpt lat="45.29812" lon="5.75584">
        <ele>1389.2</ele>
        <time>2020-02-08T11:58:58Z</time>
      </trkpt>
      <trkpt lat="45.29803" lon="5.75596">
        <ele>1388.4</ele>
        <time>2020-02-08T11:58:59Z</time>
      </trkpt>
      <trkpt lat="45.29792" lon="5.75605">
        <ele>1387.6</ele>
        <time>2020-02-08T11:59:00Z</time>
      </trkpt>
      <trkpt lat="45.29784" lon="5.75613">
        <ele>1386.8</ele>
        <time>2020-02-08T11:59:01Z</time>
      </trkpt>
      <trkpt lat="45.29776" lon="5.75622">
        <ele>1386.2</ele>
        <time>2020-02-08T11:59:02Z</time>
      </trkpt>
      <trkpt lat="45.29776" lon="5.75622">
        <ele>1385.2</ele>
        <time>2020-02-08T11:59:03Z</time>
      </trkpt>
      <trkpt lat="45.29765" lon="5.7564">
        <ele>1384.4</ele>
        <time>2020-02-08T11:59:04Z</time>
      </trkpt>
      <trkpt lat="45.2976" lon="5.75655">
        <ele>1383.4</ele>
        <time>2020-02-08T11:59:05Z</time>
      </trkpt>
      <trkpt lat="45.29759" lon="5.75658">
        <ele>1382.4</ele>
        <time>2020-02-08T11:59:06Z</time>
      </trkpt>
      <trkpt lat="45.29756" lon="5.75664">
        <ele>1381.8</ele>
        <time>2020-02-08T11:59:07Z</time>
      </trkpt>
      <trkpt lat="45.29752" lon="5.75683">
        <ele>1380.8</ele>
        <time>2020-02-08T11:59:08Z</time>
      </trkpt>
      <trkpt lat="45.29751" lon="5.75687">
        <ele>1380</ele>
        <time>2020-02-08T11:59:09Z</time>
      </trkpt>
      <trkpt lat="45.29751" lon="5.75692">
        <ele>1379.2</ele>
        <time>2020-02-08T11:59:10Z</time>
      </trkpt>
      <trkpt lat="45.2975" lon="5.75705">
        <ele>1378.8</ele>
        <time>2020-02-08T11:59:11Z</time>
      </trkpt>
      <trkpt lat="45.2975" lon="5.7571">
        <ele>1378.2</ele>
        <time>2020-02-08T11:59:12Z</time>
      </trkpt>
      <trkpt lat="45.2975" lon="5.75722">
        <ele>1377.6</ele>
        <time>2020-02-08T11:59:13Z</time>
      </trkpt>
      <trkpt lat="45.29751" lon="5.75727">
        <ele>1377.2</ele>
        <time>2020-02-08T11:59:14Z</time>
      </trkpt>
      <trkpt lat="45.29755" lon="5.7574">
        <ele>1376.4</ele>
        <time>2020-02-08T11:59:15Z</time>
      </trkpt>
      <trkpt lat="45.29756" lon="5.75745">
        <ele>1376</ele>
        <time>2020-02-08T11:59:16Z</time>
      </trkpt>
      <trkpt lat="45.29761" lon="5.75763">
        <ele>1375.4</ele>
        <time>2020-02-08T11:59:17Z</time>
      </trkpt>
      <trkpt lat="45.29763" lon="5.75772">
        <ele>1374.8</ele>
        <time>2020-02-08T11:59:18Z</time>
      </trkpt>
      <trkpt lat="45.29769" lon="5.75793">
        <ele>1374.2</ele>
        <time>2020-02-08T11:59:19Z</time>
      </trkpt>
      <trkpt lat="45.29771" lon="5.75798">
        <ele>1373.8</ele>
        <time>2020-02-08T11:59:20Z</time>
      </trkpt>
      <trkpt lat="45.29773" lon="5.75807">
        <ele>1373</ele>
        <time>2020-02-08T11:59:21Z</time>
      </trkpt>
      <trkpt lat="45.29774" lon="5.7581">
        <ele>1372.4</ele>
        <time>2020-02-08T11:59:22Z</time>
      </trkpt>
      <trkpt lat="45.29775" lon="5.75814">
        <ele>1372</ele>
        <time>2020-02-08T11:59:23Z</time>
      </trkpt>
      <trkpt lat="45.29775" lon="5.75827">
        <ele>1371</ele>
        <time>2020-02-08T11:59:24Z</time>
      </trkpt>
      <trkpt lat="45.29774" lon="5.75832">
        <ele>1370.8</ele>
        <time>2020-02-08T11:59:25Z</time>
      </trkpt>
      <trkpt lat="45.29771" lon="5.75845">
        <ele>1370.2</ele>
        <time>2020-02-08T11:59:26Z</time>
      </trkpt>
      <trkpt lat="45.29769" lon="5.75849">
        <ele>1369.6</ele>
        <time>2020-02-08T11:59:27Z</time>
      </trkpt>
      <trkpt lat="45.29763" lon="5.75857">
        <ele>1369.2</ele>
        <time>2020-02-08T11:59:28Z</time>
      </trkpt>
      <trkpt lat="45.2976" lon="5.75857">
        <ele>1368.8</ele>
        <time>2020-02-08T11:59:29Z</time>
      </trkpt>
      <trkpt lat="45.29751" lon="5.75857">
        <ele>1368.2</ele>
        <time>2020-02-08T11:59:30Z</time>
      </trkpt>
      <trkpt lat="45.29748" lon="5.75856">
        <ele>1367.6</ele>
        <time>2020-02-08T11:59:31Z</time>
      </trkpt>
      <trkpt lat="45.2974" lon="5.75852">
        <ele>1366.8</ele>
        <time>2020-02-08T11:59:32Z</time>
      </trkpt>
      <trkpt lat="45.29738" lon="5.7585">
        <ele>1366.2</ele>
        <time>2020-02-08T11:59:33Z</time>
      </trkpt>
      <trkpt lat="45.2973" lon="5.75844">
        <ele>1365.4</ele>
        <time>2020-02-08T11:59:34Z</time>
      </trkpt>
      <trkpt lat="45.29725" lon="5.75841">
        <ele>1364.6</ele>
        <time>2020-02-08T11:59:35Z</time>
      </trkpt>
      <trkpt lat="45.2972" lon="5.7584">
        <ele>1363.8</ele>
        <time>2020-02-08T11:59:36Z</time>
      </trkpt>
      <trkpt lat="45.29715" lon="5.75839">
        <ele>1363</ele>
        <time>2020-02-08T11:59:37Z</time>
      </trkpt>
      <trkpt lat="45.29712" lon="5.75841">
        <ele>1362.4</ele>
        <time>2020-02-08T11:59:38Z</time>
      </trkpt>
      <trkpt lat="45.29709" lon="5.75842">
        <ele>1361.8</ele>
        <time>2020-02-08T11:59:39Z</time>
      </trkpt>
      <trkpt lat="45.29701" lon="5.7585">
        <ele>1361</ele>
        <time>2020-02-08T11:59:40Z</time>
      </trkpt>
      <trkpt lat="45.29699" lon="5.75854">
        <ele>1360.8</ele>
        <time>2020-02-08T11:59:41Z</time>
      </trkpt>
      <trkpt lat="45.29691" lon="5.75866">
        <ele>1360.2</ele>
        <time>2020-02-08T11:59:42Z</time>
      </trkpt>
      <trkpt lat="45.29689" lon="5.7587">
        <ele>1359.6</ele>
        <time>2020-02-08T11:59:43Z</time>
      </trkpt>
      <trkpt lat="45.29683" lon="5.75881">
        <ele>1359</ele>
        <time>2020-02-08T11:59:44Z</time>
      </trkpt>
      <trkpt lat="45.29682" lon="5.75884">
        <ele>1358.6</ele>
        <time>2020-02-08T11:59:45Z</time>
      </trkpt>
      <trkpt lat="45.29676" lon="5.75895">
        <ele>1359.2</ele>
        <time>2020-02-08T11:59:46Z</time>
      </trkpt>
      <trkpt lat="45.29673" lon="5.75901">
        <ele>1359.4</ele>
        <time>2020-02-08T11:59:47Z</time>
      </trkpt>
      <trkpt lat="45.29673" lon="5.75901">
        <ele>1358.8</ele>
        <time>2020-02-08T11:59:48Z</time>
      </trkpt>
      <trkpt lat="45.29673" lon="5.75901">
        <ele>1358.8</ele>
        <time>2020-02-08T11:59:49Z</time>
      </trkpt>
      <trkpt lat="45.29667" lon="5.75916">
        <ele>1359</ele>
        <time>2020-02-08T11:59:50Z</time>
      </trkpt>
      <trkpt lat="45.29666" lon="5.75918">
        <ele>1359.2</ele>
        <time>2020-02-08T11:59:51Z</time>
      </trkpt>
      <trkpt lat="45.29666" lon="5.7592">
        <ele>1359.4</ele>
        <time>2020-02-08T11:59:52Z</time>
      </trkpt>
      <trkpt lat="45.29664" lon="5.75927">
        <ele>1359.4</ele>
        <time>2020-02-08T11:59:53Z</time>
      </trkpt>
      <trkpt lat="45.29664" lon="5.75927">
        <ele>1359.6</ele>
        <time>2020-02-08T11:59:54Z</time>
      </trkpt>
      <trkpt lat="45.29664" lon="5.75927">
        <ele>1359.4</ele>
        <time>2020-02-08T11:59:55Z</time>
      </trkpt>
      <trkpt lat="45.29657" lon="5.75938">
        <ele>1359.6</ele>
        <time>2020-02-08T11:59:56Z</time>
      </trkpt>
      <trkpt lat="45.29657" lon="5.75938">
        <ele>1359.8</ele>
        <time>2020-02-08T11:59:57Z</time>
      </trkpt>
      <trkpt lat="45.29657" lon="5.75938">
        <ele>1359.6</ele>
        <time>2020-02-08T11:59:58Z</time>
      </trkpt>
      <trkpt lat="45.29658" lon="5.75942">
        <ele>1359.4</ele>
        <time>2020-02-08T11:59:59Z</time>
      </trkpt>
      <trkpt lat="45.29658" lon="5.75946">
        <ele>1358.8</ele>
        <time>2020-02-08T12:00:00Z</time>
      </trkpt>
      <trkpt lat="45.29658" lon="5.7595">
        <ele>1358.6</ele>
        <time>2020-02-08T12:00:01Z</time>
      </trkpt>
      <trkpt lat="45.29658" lon="5.75954">
        <ele>1358.6</ele>
        <time>2020-02-08T12:00:02Z</time>
      </trkpt>
      <trkpt lat="45.29658" lon="5.75957">
        <ele>1358.2</ele>
        <time>2020-02-08T12:00:03Z</time>
      </trkpt>
      <trkpt lat="45.29658" lon="5.75961">
        <ele>1358.4</ele>
        <time>2020-02-08T12:00:04Z</time>
      </trkpt>
      <trkpt lat="45.29658" lon="5.75964">
        <ele>1358.2</ele>
        <time>2020-02-08T12:00:05Z</time>
      </trkpt>
      <trkpt lat="45.29658" lon="5.75968">
        <ele>1358.4</ele>
        <time>2020-02-08T12:00:06Z</time>
      </trkpt>
      <trkpt lat="45.29659" lon="5.75973">
        <ele>1358.4</ele>
        <time>2020-02-08T12:00:07Z</time>
      </trkpt>
      <trkpt lat="45.29661" lon="5.75978">
        <ele>1358.8</ele>
        <time>2020-02-08T12:00:08Z</time>
      </trkpt>
      <trkpt lat="45.29662" lon="5.75984">
        <ele>1359.2</ele>
        <time>2020-02-08T12:00:09Z</time>
      </trkpt>
      <trkpt lat="45.29663" lon="5.75989">
        <ele>1359.6</ele>
        <time>2020-02-08T12:00:10Z</time>
      </trkpt>
      <trkpt lat="45.29665" lon="5.75995">
        <ele>1359.8</ele>
        <time>2020-02-08T12:00:11Z</time>
      </trkpt>
      <trkpt lat="45.29665" lon="5.75995">
        <ele>1359.8</ele>
        <time>2020-02-08T12:00:12Z</time>
      </trkpt>
      <trkpt lat="45.29665" lon="5.75995">
        <ele>1359.8</ele>
        <time>2020-02-08T12:00:13Z</time>
      </trkpt>
      <trkpt lat="45.29666" lon="5.75999">
        <ele>1359.8</ele>
        <time>2020-02-08T12:00:14Z</time>
      </trkpt>
      <trkpt lat="45.29666" lon="5.76003">
        <ele>1359.8</ele>
        <time>2020-02-08T12:00:15Z</time>
      </trkpt>
      <trkpt lat="45.29667" lon="5.76006">
        <ele>1359.2</ele>
        <time>2020-02-08T12:00:16Z</time>
      </trkpt>
      <trkpt lat="45.29668" lon="5.7601">
        <ele>1359.4</ele>
        <time>2020-02-08T12:00:17Z</time>
      </trkpt>
      <trkpt lat="45.29668" lon="5.76013">
        <ele>1360</ele>
        <time>2020-02-08T12:00:18Z</time>
      </trkpt>
      <trkpt lat="45.29668" lon="5.76017">
        <ele>1360.2</ele>
        <time>2020-02-08T12:00:19Z</time>
      </trkpt>
      <trkpt lat="45.29669" lon="5.7602">
        <ele>1360.4</ele>
        <time>2020-02-08T12:00:20Z</time>
      </trkpt>
      <trkpt lat="45.29669" lon="5.76024">
        <ele>1360.4</ele>
        <time>2020-02-08T12:00:21Z</time>
      </trkpt>
      <trkpt lat="45.29667" lon="5.76042">
        <ele>1360</ele>
        <time>2020-02-08T12:00:22Z</time>
      </trkpt>
      <trkpt lat="45.29667" lon="5.76044">
        <ele>1360</ele>
        <time>2020-02-08T12:00:23Z</time>
      </trkpt>
      <trkpt lat="45.29667" lon="5.76047">
        <ele>1361</ele>
        <time>2020-02-08T12:00:24Z</time>
      </trkpt>
      <trkpt lat="45.29665" lon="5.76057">
        <ele>1360.2</ele>
        <time>2020-02-08T12:00:25Z</time>
      </trkpt>
      <trkpt lat="45.29664" lon="5.7606">
        <ele>1360</ele>
        <time>2020-02-08T12:00:26Z</time>
      </trkpt>
      <trkpt lat="45.29663" lon="5.76063">
        <ele>1359.8</ele>
        <time>2020-02-08T12:00:27Z</time>
      </trkpt>
      <trkpt lat="45.29658" lon="5.76074">
        <ele>1359.6</ele>
        <time>2020-02-08T12:00:28Z</time>
      </trkpt>
      <trkpt lat="45.29656" lon="5.76076">
        <ele>1359</ele>
        <time>2020-02-08T12:00:29Z</time>
      </trkpt>
      <trkpt lat="45.29655" lon="5.76078">
        <ele>1358.8</ele>
        <time>2020-02-08T12:00:30Z</time>
      </trkpt>
      <trkpt lat="45.29647" lon="5.76087">
        <ele>1358.6</ele>
        <time>2020-02-08T12:00:31Z</time>
      </trkpt>
      <trkpt lat="45.29645" lon="5.7609">
        <ele>1358.6</ele>
        <time>2020-02-08T12:00:32Z</time>
      </trkpt>
      <trkpt lat="45.29639" lon="5.76098">
        <ele>1358.4</ele>
        <time>2020-02-08T12:00:33Z</time>
      </trkpt>
      <trkpt lat="45.29637" lon="5.76102">
        <ele>1358.6</ele>
        <time>2020-02-08T12:00:34Z</time>
      </trkpt>
      <trkpt lat="45.29633" lon="5.76109">
        <ele>1358.4</ele>
        <time>2020-02-08T12:00:35Z</time>
      </trkpt>
      <trkpt lat="45.29633" lon="5.76109">
        <ele>1358.8</ele>
        <time>2020-02-08T12:00:36Z</time>
      </trkpt>
      <trkpt lat="45.29633" lon="5.76109">
        <ele>1359.6</ele>
        <time>2020-02-08T12:00:37Z</time>
      </trkpt>
      <trkpt lat="45.2963" lon="5.76113">
        <ele>1359.8</ele>
        <time>2020-02-08T12:00:38Z</time>
      </trkpt>
      <trkpt lat="45.29627" lon="5.76117">
        <ele>1359.8</ele>
        <time>2020-02-08T12:00:39Z</time>
      </trkpt>
      <trkpt lat="45.29623" lon="5.76122">
        <ele>1359.8</ele>
        <time>2020-02-08T12:00:40Z</time>
      </trkpt>
      <trkpt lat="45.2962" lon="5.76126">
        <ele>1359.6</ele>
        <time>2020-02-08T12:00:41Z</time>
      </trkpt>
      <trkpt lat="45.29616" lon="5.7613">
        <ele>1360</ele>
        <time>2020-02-08T12:00:42Z</time>
      </trkpt>
      <trkpt lat="45.29616" lon="5.7613">
        <ele>1360.4</ele>
        <time>2020-02-08T12:00:43Z</time>
      </trkpt>
      <trkpt lat="45.29616" lon="5.7613">
        <ele>1360.8</ele>
        <time>2020-02-08T12:00:44Z</time>
      </trkpt>
      <trkpt lat="45.29615" lon="5.76135">
        <ele>1361.2</ele>
        <time>2020-02-08T12:00:45Z</time>
      </trkpt>
      <trkpt lat="45.29613" lon="5.7614">
        <ele>1361</ele>
        <time>2020-02-08T12:00:46Z</time>
      </trkpt>
      <trkpt lat="45.29612" lon="5.76144">
        <ele>1361</ele>
        <time>2020-02-08T12:00:47Z</time>
      </trkpt>
      <trkpt lat="45.2961" lon="5.76149">
        <ele>1360.4</ele>
        <time>2020-02-08T12:00:48Z</time>
      </trkpt>
      <trkpt lat="45.29606" lon="5.76165">
        <ele>1359.8</ele>
        <time>2020-02-08T12:00:49Z</time>
      </trkpt>
      <trkpt lat="45.29604" lon="5.76174">
        <ele>1359</ele>
        <time>2020-02-08T12:00:50Z</time>
      </trkpt>
      <trkpt lat="45.296" lon="5.7619">
        <ele>1358</ele>
        <time>2020-02-08T12:00:51Z</time>
      </trkpt>
      <trkpt lat="45.29598" lon="5.76195">
        <ele>1357.2</ele>
        <time>2020-02-08T12:00:52Z</time>
      </trkpt>
      <trkpt lat="45.29595" lon="5.76205">
        <ele>1356.4</ele>
        <time>2020-02-08T12:00:53Z</time>
      </trkpt>
      <trkpt lat="45.29593" lon="5.76217">
        <ele>1355.8</ele>
        <time>2020-02-08T12:00:54Z</time>
      </trkpt>
      <trkpt lat="45.29591" lon="5.76229">
        <ele>1354.6</ele>
        <time>2020-02-08T12:00:55Z</time>
      </trkpt>
      <trkpt lat="45.29589" lon="5.76241">
        <ele>1353.2</ele>
        <time>2020-02-08T12:00:56Z</time>
      </trkpt>
      <trkpt lat="45.29588" lon="5.76252">
        <ele>1352</ele>
        <time>2020-02-08T12:00:57Z</time>
      </trkpt>
      <trkpt lat="45.29585" lon="5.76262">
        <ele>1351.2</ele>
        <time>2020-02-08T12:00:58Z</time>
      </trkpt>
      <trkpt lat="45.29583" lon="5.76271">
        <ele>1350.6</ele>
        <time>2020-02-08T12:00:59Z</time>
      </trkpt>
      <trkpt lat="45.29581" lon="5.7628">
        <ele>1350.2</ele>
        <time>2020-02-08T12:01:00Z</time>
      </trkpt>
      <trkpt lat="45.29579" lon="5.76288">
        <ele>1349.8</ele>
        <time>2020-02-08T12:01:01Z</time>
      </trkpt>
      <trkpt lat="45.29577" lon="5.76295">
        <ele>1349.4</ele>
        <time>2020-02-08T12:01:02Z</time>
      </trkpt>
      <trkpt lat="45.29576" lon="5.76301">
        <ele>1349</ele>
        <time>2020-02-08T12:01:03Z</time>
      </trkpt>
      <trkpt lat="45.29575" lon="5.76303">
        <ele>1349.2</ele>
        <time>2020-02-08T12:01:04Z</time>
      </trkpt>
      <trkpt lat="45.29575" lon="5.76303">
        <ele>1349</ele>
        <time>2020-02-08T12:01:05Z</time>
      </trkpt>
      <trkpt lat="45.29575" lon="5.76303">
        <ele>1349.2</ele>
        <time>2020-02-08T12:01:06Z</time>
      </trkpt>
      <trkpt lat="45.29575" lon="5.76303">
        <ele>1349.4</ele>
        <time>2020-02-08T12:01:07Z</time>
      </trkpt>
      <trkpt lat="45.29575" lon="5.76303">
        <ele>1349.2</ele>
        <time>2020-02-08T12:01:08Z</time>
      </trkpt>
      <trkpt lat="45.29575" lon="5.76303">
        <ele>1349</ele>
        <time>2020-02-08T12:01:09Z</time>
      </trkpt>
      <trkpt lat="45.29575" lon="5.76303">
        <ele>1349</ele>
        <time>2020-02-08T12:01:10Z</time>
      </trkpt>
      <trkpt lat="45.29575" lon="5.76303">
        <ele>1348.8</ele>
        <time>2020-02-08T12:01:11Z</time>
      </trkpt>
      <trkpt lat="45.29575" lon="5.76303">
        <ele>1348.6</ele>
        <time>2020-02-08T12:01:12Z</time>
      </trkpt>
      <trkpt lat="45.29575" lon="5.76303">
        <ele>1348.4</ele>
        <time>2020-02-08T12:01:13Z</time>
      </trkpt>
      <trkpt lat="45.29575" lon="5.76303">
        <ele>1348.4</ele>
        <time>2020-02-08T12:01:14Z</time>
      </trkpt>
      <trkpt lat="45.29575" lon="5.76303">
        <ele>1348.6</ele>
        <time>2020-02-08T12:01:15Z</time>
      </trkpt>
      <trkpt lat="45.29575" lon="5.76303">
        <ele>1348.4</ele>
        <time>2020-02-08T12:01:16Z</time>
      </trkpt>
      <trkpt lat="45.29575" lon="5.76303">
        <ele>1348.6</ele>
        <time>2020-02-08T12:01:17Z</time>
      </trkpt>
      <trkpt lat="45.29575" lon="5.76303">
        <ele>1348.6</ele>
        <time>2020-02-08T12:01:18Z</time>
      </trkpt>
      <trkpt lat="45.29577" lon="5.76303">
        <ele>1348.8</ele>
        <time>2020-02-08T12:01:19Z</time>
      </trkpt>
      <trkpt lat="45.29577" lon="5.76303">
        <ele>1348.2</ele>
        <time>2020-02-08T12:01:20Z</time>
      </trkpt>
      <trkpt lat="45.29577" lon="5.76303">
        <ele>1348.8</ele>
        <time>2020-02-08T12:01:21Z</time>
      </trkpt>
      <trkpt lat="45.29577" lon="5.76303">
        <ele>1349.2</ele>
        <time>2020-02-08T12:01:22Z</time>
      </trkpt>
      <trkpt lat="45.29577" lon="5.76303">
        <ele>1349.6</ele>
        <time>2020-02-08T12:01:23Z</time>
      </trkpt>
      <trkpt lat="45.29577" lon="5.76303">
        <ele>1349.8</ele>
        <time>2020-02-08T12:01:24Z</time>
      </trkpt>
      <trkpt lat="45.29577" lon="5.76303">
        <ele>1350</ele>
        <time>2020-02-08T12:01:25Z</time>
      </trkpt>
      <trkpt lat="45.29577" lon="5.76303">
        <ele>1349.8</ele>
        <time>2020-02-08T12:01:26Z</time>
      </trkpt>
      <trkpt lat="45.29577" lon="5.76303">
        <ele>1349.8</ele>
        <time>2020-02-08T12:01:27Z</time>
      </trkpt>
      <trkpt lat="45.29577" lon="5.76303">
        <ele>1349.4</ele>
        <time>2020-02-08T12:01:28Z</time>
      </trkpt>
      <trkpt lat="45.29577" lon="5.76303">
        <ele>1349.4</ele>
        <time>2020-02-08T12:01:29Z</time>
      </trkpt>
      <trkpt lat="45.29577" lon="5.76303">
        <ele>1349.6</ele>
        <time>2020-02-08T12:01:30Z</time>
      </trkpt>
      <trkpt lat="45.29577" lon="5.76303">
        <ele>1349.8</ele>
        <time>2020-02-08T12:01:31Z</time>
      </trkpt>
      <trkpt lat="45.29577" lon="5.76303">
        <ele>1350</ele>
        <time>2020-02-08T12:01:32Z</time>
      </trkpt>
      <trkpt lat="45.29575" lon="5.76302">
        <ele>1350</ele>
        <time>2020-02-08T12:01:33Z</time>
      </trkpt>
      <trkpt lat="45.29575" lon="5.76302">
        <ele>1350.2</ele>
        <time>2020-02-08T12:01:34Z</time>
      </trkpt>
      <trkpt lat="45.29575" lon="5.76302">
        <ele>1350.6</ele>
        <time>2020-02-08T12:01:35Z</time>
      </trkpt>
      <trkpt lat="45.29575" lon="5.76302">
        <ele>1350.6</ele>
        <time>2020-02-08T12:01:36Z</time>
      </trkpt>
      <trkpt lat="45.29575" lon="5.76302">
        <ele>1350.4</ele>
        <time>2020-02-08T12:01:37Z</time>
      </trkpt>
      <trkpt lat="45.29575" lon="5.76302">
        <ele>1350.6</ele>
        <time>2020-02-08T12:01:38Z</time>
      </trkpt>
      <trkpt lat="45.29575" lon="5.76302">
        <ele>1350.6</ele>
        <time>2020-02-08T12:01:39Z</time>
      </trkpt>
      <trkpt lat="45.29575" lon="5.76302">
        <ele>1350</ele>
        <time>2020-02-08T12:01:40Z</time>
      </trkpt>
      <trkpt lat="45.29575" lon="5.76302">
        <ele>1349.8</ele>
        <time>2020-02-08T12:01:41Z</time>
      </trkpt>
      <trkpt lat="45.29575" lon="5.76302">
        <ele>1349.2</ele>
        <time>2020-02-08T12:01:42Z</time>
      </trkpt>
      <trkpt lat="45.29575" lon="5.76302">
        <ele>1349.4</ele>
        <time>2020-02-08T12:01:43Z</time>
      </trkpt>
      <trkpt lat="45.29576" lon="5.76304">
        <ele>1349.6</ele>
        <time>2020-02-08T12:01:44Z</time>
      </trkpt>
      <trkpt lat="45.29576" lon="5.76304">
        <ele>1349.6</ele>
        <time>2020-02-08T12:01:45Z</time>
      </trkpt>
      <trkpt lat="45.29576" lon="5.76304">
        <ele>1349.4</ele>
        <time>2020-02-08T12:01:46Z</time>
      </trkpt>
      <trkpt lat="45.29575" lon="5.76307">
        <ele>1349.8</ele>
        <time>2020-02-08T12:01:47Z</time>
      </trkpt>
      <trkpt lat="45.29575" lon="5.76307">
        <ele>1350</ele>
        <time>2020-02-08T12:01:48Z</time>
      </trkpt>
      <trkpt lat="45.29575" lon="5.76307">
        <ele>1349.8</ele>
        <time>2020-02-08T12:01:49Z</time>
      </trkpt>
      <trkpt lat="45.29574" lon="5.76309">
        <ele>1349.8</ele>
        <time>2020-02-08T12:01:50Z</time>
      </trkpt>
      <trkpt lat="45.29574" lon="5.76309">
        <ele>1350</ele>
        <time>2020-02-08T12:01:51Z</time>
      </trkpt>
      <trkpt lat="45.29574" lon="5.76309">
        <ele>1350.2</ele>
        <time>2020-02-08T12:01:52Z</time>
      </trkpt>
      <trkpt lat="45.29573" lon="5.76312">
        <ele>1350.2</ele>
        <time>2020-02-08T12:01:53Z</time>
      </trkpt>
      <trkpt lat="45.29573" lon="5.76312">
        <ele>1350.2</ele>
        <time>2020-02-08T12:01:54Z</time>
      </trkpt>
      <trkpt lat="45.29573" lon="5.76312">
        <ele>1350.4</ele>
        <time>2020-02-08T12:01:55Z</time>
      </trkpt>
      <trkpt lat="45.29572" lon="5.76314">
        <ele>1350.4</ele>
        <time>2020-02-08T12:01:56Z</time>
      </trkpt>
      <trkpt lat="45.29572" lon="5.76314">
        <ele>1350.8</ele>
        <time>2020-02-08T12:01:57Z</time>
      </trkpt>
      <trkpt lat="45.29572" lon="5.76314">
        <ele>1350.8</ele>
        <time>2020-02-08T12:01:58Z</time>
      </trkpt>
      <trkpt lat="45.29571" lon="5.76317">
        <ele>1350.8</ele>
        <time>2020-02-08T12:01:59Z</time>
      </trkpt>
      <trkpt lat="45.29571" lon="5.76317">
        <ele>1351</ele>
        <time>2020-02-08T12:02:00Z</time>
      </trkpt>
      <trkpt lat="45.29571" lon="5.76317">
        <ele>1350.8</ele>
        <time>2020-02-08T12:02:01Z</time>
      </trkpt>
      <trkpt lat="45.2957" lon="5.7632">
        <ele>1351.4</ele>
        <time>2020-02-08T12:02:02Z</time>
      </trkpt>
      <trkpt lat="45.2957" lon="5.7632">
        <ele>1351.8</ele>
        <time>2020-02-08T12:02:03Z</time>
      </trkpt>
      <trkpt lat="45.2957" lon="5.7632">
        <ele>1351.6</ele>
        <time>2020-02-08T12:02:04Z</time>
      </trkpt>
      <trkpt lat="45.29569" lon="5.76322">
        <ele>1352</ele>
        <time>2020-02-08T12:02:05Z</time>
      </trkpt>
      <trkpt lat="45.29569" lon="5.76322">
        <ele>1352</ele>
        <time>2020-02-08T12:02:06Z</time>
      </trkpt>
      <trkpt lat="45.29569" lon="5.76322">
        <ele>1352.2</ele>
        <time>2020-02-08T12:02:07Z</time>
      </trkpt>
      <trkpt lat="45.29568" lon="5.76325">
        <ele>1352.6</ele>
        <time>2020-02-08T12:02:08Z</time>
      </trkpt>
      <trkpt lat="45.29568" lon="5.76325">
        <ele>1353</ele>
        <time>2020-02-08T12:02:09Z</time>
      </trkpt>
      <trkpt lat="45.29568" lon="5.76325">
        <ele>1352.8</ele>
        <time>2020-02-08T12:02:10Z</time>
      </trkpt>
      <trkpt lat="45.29567" lon="5.76328">
        <ele>1353.4</ele>
        <time>2020-02-08T12:02:11Z</time>
      </trkpt>
      <trkpt lat="45.29567" lon="5.76328">
        <ele>1353.4</ele>
        <time>2020-02-08T12:02:12Z</time>
      </trkpt>
      <trkpt lat="45.29567" lon="5.76328">
        <ele>1353.6</ele>
        <time>2020-02-08T12:02:13Z</time>
      </trkpt>
      <trkpt lat="45.29566" lon="5.76331">
        <ele>1354.2</ele>
        <time>2020-02-08T12:02:14Z</time>
      </trkpt>
      <trkpt lat="45.29566" lon="5.76331">
        <ele>1354.2</ele>
        <time>2020-02-08T12:02:15Z</time>
      </trkpt>
      <trkpt lat="45.29566" lon="5.76331">
        <ele>1354.2</ele>
        <time>2020-02-08T12:02:16Z</time>
      </trkpt>
      <trkpt lat="45.29566" lon="5.76333">
        <ele>1354.6</ele>
        <time>2020-02-08T12:02:17Z</time>
      </trkpt>
      <trkpt lat="45.29566" lon="5.76333">
        <ele>1354.6</ele>
        <time>2020-02-08T12:02:18Z</time>
      </trkpt>
      <trkpt lat="45.29565" lon="5.76335">
        <ele>1354.6</ele>
        <time>2020-02-08T12:02:19Z</time>
      </trkpt>
      <trkpt lat="45.29565" lon="5.76335">
        <ele>1354.8</ele>
        <time>2020-02-08T12:02:20Z</time>
      </trkpt>
      <trkpt lat="45.29565" lon="5.76335">
        <ele>1354.8</ele>
        <time>2020-02-08T12:02:21Z</time>
      </trkpt>
      <trkpt lat="45.29563" lon="5.76339">
        <ele>1355</ele>
        <time>2020-02-08T12:02:22Z</time>
      </trkpt>
      <trkpt lat="45.29563" lon="5.76339">
        <ele>1355</ele>
        <time>2020-02-08T12:02:23Z</time>
      </trkpt>
      <trkpt lat="45.29563" lon="5.76342">
        <ele>1355.2</ele>
        <time>2020-02-08T12:02:24Z</time>
      </trkpt>
      <trkpt lat="45.29563" lon="5.76342">
        <ele>1355.6</ele>
        <time>2020-02-08T12:02:25Z</time>
      </trkpt>
      <trkpt lat="45.29562" lon="5.76345">
        <ele>1355.6</ele>
        <time>2020-02-08T12:02:26Z</time>
      </trkpt>
      <trkpt lat="45.29562" lon="5.76345">
        <ele>1356</ele>
        <time>2020-02-08T12:02:27Z</time>
      </trkpt>
      <trkpt lat="45.29562" lon="5.76345">
        <ele>1356.4</ele>
        <time>2020-02-08T12:02:28Z</time>
      </trkpt>
      <trkpt lat="45.29562" lon="5.76348">
        <ele>1356.2</ele>
        <time>2020-02-08T12:02:29Z</time>
      </trkpt>
      <trkpt lat="45.29562" lon="5.76348">
        <ele>1356.8</ele>
        <time>2020-02-08T12:02:30Z</time>
      </trkpt>
      <trkpt lat="45.29561" lon="5.76351">
        <ele>1356.8</ele>
        <time>2020-02-08T12:02:31Z</time>
      </trkpt>
      <trkpt lat="45.29561" lon="5.76351">
        <ele>1357.2</ele>
        <time>2020-02-08T12:02:32Z</time>
      </trkpt>
      <trkpt lat="45.29561" lon="5.76351">
        <ele>1357.2</ele>
        <time>2020-02-08T12:02:33Z</time>
      </trkpt>
      <trkpt lat="45.2956" lon="5.76354">
        <ele>1357</ele>
        <time>2020-02-08T12:02:34Z</time>
      </trkpt>
      <trkpt lat="45.2956" lon="5.76354">
        <ele>1357.4</ele>
        <time>2020-02-08T12:02:35Z</time>
      </trkpt>
      <trkpt lat="45.29559" lon="5.76357">
        <ele>1357.4</ele>
        <time>2020-02-08T12:02:36Z</time>
      </trkpt>
      <trkpt lat="45.29559" lon="5.76357">
        <ele>1358</ele>
        <time>2020-02-08T12:02:37Z</time>
      </trkpt>
      <trkpt lat="45.29558" lon="5.76359">
        <ele>1358</ele>
        <time>2020-02-08T12:02:38Z</time>
      </trkpt>
      <trkpt lat="45.29558" lon="5.76359">
        <ele>1358.4</ele>
        <time>2020-02-08T12:02:39Z</time>
      </trkpt>
      <trkpt lat="45.29558" lon="5.76363">
        <ele>1358.4</ele>
        <time>2020-02-08T12:02:40Z</time>
      </trkpt>
      <trkpt lat="45.29558" lon="5.76363">
        <ele>1358.6</ele>
        <time>2020-02-08T12:02:41Z</time>
      </trkpt>
      <trkpt lat="45.29557" lon="5.76366">
        <ele>1358.4</ele>
        <time>2020-02-08T12:02:42Z</time>
      </trkpt>
      <trkpt lat="45.29557" lon="5.76366">
        <ele>1358.2</ele>
        <time>2020-02-08T12:02:43Z</time>
      </trkpt>
      <trkpt lat="45.29556" lon="5.7637">
        <ele>1358.4</ele>
        <time>2020-02-08T12:02:44Z</time>
      </trkpt>
      <trkpt lat="45.29556" lon="5.7637">
        <ele>1358.4</ele>
        <time>2020-02-08T12:02:45Z</time>
      </trkpt>
      <trkpt lat="45.29555" lon="5.76373">
        <ele>1358.8</ele>
        <time>2020-02-08T12:02:46Z</time>
      </trkpt>
      <trkpt lat="45.29555" lon="5.76373">
        <ele>1358.8</ele>
        <time>2020-02-08T12:02:47Z</time>
      </trkpt>
      <trkpt lat="45.29555" lon="5.76376">
        <ele>1359</ele>
        <time>2020-02-08T12:02:48Z</time>
      </trkpt>
      <trkpt lat="45.29555" lon="5.76376">
        <ele>1359</ele>
        <time>2020-02-08T12:02:49Z</time>
      </trkpt>
      <trkpt lat="45.29554" lon="5.76379">
        <ele>1358.8</ele>
        <time>2020-02-08T12:02:50Z</time>
      </trkpt>
      <trkpt lat="45.29554" lon="5.76379">
        <ele>1359</ele>
        <time>2020-02-08T12:02:51Z</time>
      </trkpt>
      <trkpt lat="45.29554" lon="5.76379">
        <ele>1359</ele>
        <time>2020-02-08T12:02:52Z</time>
      </trkpt>
      <trkpt lat="45.29553" lon="5.76382">
        <ele>1359</ele>
        <time>2020-02-08T12:02:53Z</time>
      </trkpt>
      <trkpt lat="45.29553" lon="5.76382">
        <ele>1359</ele>
        <time>2020-02-08T12:02:54Z</time>
      </trkpt>
      <trkpt lat="45.29552" lon="5.76385">
        <ele>1359.4</ele>
        <time>2020-02-08T12:02:55Z</time>
      </trkpt>
      <trkpt lat="45.29552" lon="5.76385">
        <ele>1359.6</ele>
        <time>2020-02-08T12:02:56Z</time>
      </trkpt>
      <trkpt lat="45.29551" lon="5.76387">
        <ele>1359.8</ele>
        <time>2020-02-08T12:02:57Z</time>
      </trkpt>
      <trkpt lat="45.29551" lon="5.76387">
        <ele>1359.4</ele>
        <time>2020-02-08T12:02:58Z</time>
      </trkpt>
      <trkpt lat="45.29549" lon="5.76389">
        <ele>1359.8</ele>
        <time>2020-02-08T12:02:59Z</time>
      </trkpt>
      <trkpt lat="45.29549" lon="5.76389">
        <ele>1360.2</ele>
        <time>2020-02-08T12:03:00Z</time>
      </trkpt>
      <trkpt lat="45.29547" lon="5.76391">
        <ele>1360</ele>
        <time>2020-02-08T12:03:01Z</time>
      </trkpt>
      <trkpt lat="45.29547" lon="5.76391">
        <ele>1360.4</ele>
        <time>2020-02-08T12:03:02Z</time>
      </trkpt>
      <trkpt lat="45.29544" lon="5.76393">
        <ele>1360.6</ele>
        <time>2020-02-08T12:03:03Z</time>
      </trkpt>
      <trkpt lat="45.29544" lon="5.76393">
        <ele>1361.2</ele>
        <time>2020-02-08T12:03:04Z</time>
      </trkpt>
      <trkpt lat="45.29541" lon="5.76395">
        <ele>1361.4</ele>
        <time>2020-02-08T12:03:05Z</time>
      </trkpt>
      <trkpt lat="45.29541" lon="5.76395">
        <ele>1361.6</ele>
        <time>2020-02-08T12:03:06Z</time>
      </trkpt>
      <trkpt lat="45.29539" lon="5.76397">
        <ele>1362</ele>
        <time>2020-02-08T12:03:07Z</time>
      </trkpt>
      <trkpt lat="45.29539" lon="5.76397">
        <ele>1361.8</ele>
        <time>2020-02-08T12:03:08Z</time>
      </trkpt>
      <trkpt lat="45.29536" lon="5.76399">
        <ele>1362</ele>
        <time>2020-02-08T12:03:09Z</time>
      </trkpt>
      <trkpt lat="45.29536" lon="5.76399">
        <ele>1362.2</ele>
        <time>2020-02-08T12:03:10Z</time>
      </trkpt>
      <trkpt lat="45.29534" lon="5.76401">
        <ele>1362.2</ele>
        <time>2020-02-08T12:03:11Z</time>
      </trkpt>
      <trkpt lat="45.29534" lon="5.76401">
        <ele>1362.4</ele>
        <time>2020-02-08T12:03:12Z</time>
      </trkpt>
      <trkpt lat="45.29531" lon="5.76403">
        <ele>1362.6</ele>
        <time>2020-02-08T12:03:13Z</time>
      </trkpt>
      <trkpt lat="45.29531" lon="5.76403">
        <ele>1363</ele>
        <time>2020-02-08T12:03:14Z</time>
      </trkpt>
      <trkpt lat="45.29528" lon="5.76405">
        <ele>1362.8</ele>
        <time>2020-02-08T12:03:15Z</time>
      </trkpt>
      <trkpt lat="45.29528" lon="5.76405">
        <ele>1363</ele>
        <time>2020-02-08T12:03:16Z</time>
      </trkpt>
      <trkpt lat="45.29525" lon="5.76407">
        <ele>1363</ele>
        <time>2020-02-08T12:03:17Z</time>
      </trkpt>
      <trkpt lat="45.29525" lon="5.76407">
        <ele>1363.4</ele>
        <time>2020-02-08T12:03:18Z</time>
      </trkpt>
      <trkpt lat="45.29523" lon="5.76409">
        <ele>1363.6</ele>
        <time>2020-02-08T12:03:19Z</time>
      </trkpt>
      <trkpt lat="45.29523" lon="5.76409">
        <ele>1364</ele>
        <time>2020-02-08T12:03:20Z</time>
      </trkpt>
      <trkpt lat="45.2952" lon="5.76412">
        <ele>1364.4</ele>
        <time>2020-02-08T12:03:21Z</time>
      </trkpt>
      <trkpt lat="45.2952" lon="5.76412">
        <ele>1364.8</ele>
        <time>2020-02-08T12:03:22Z</time>
      </trkpt>
      <trkpt lat="45.29518" lon="5.76414">
        <ele>1365</ele>
        <time>2020-02-08T12:03:23Z</time>
      </trkpt>
      <trkpt lat="45.29518" lon="5.76414">
        <ele>1365.2</ele>
        <time>2020-02-08T12:03:24Z</time>
      </trkpt>
      <trkpt lat="45.29515" lon="5.76416">
        <ele>1365.2</ele>
        <time>2020-02-08T12:03:25Z</time>
      </trkpt>
      <trkpt lat="45.29515" lon="5.76416">
        <ele>1365.2</ele>
        <time>2020-02-08T12:03:26Z</time>
      </trkpt>
      <trkpt lat="45.29513" lon="5.76418">
        <ele>1365.4</ele>
        <time>2020-02-08T12:03:27Z</time>
      </trkpt>
      <trkpt lat="45.29513" lon="5.76418">
        <ele>1365.6</ele>
        <time>2020-02-08T12:03:28Z</time>
      </trkpt>
      <trkpt lat="45.2951" lon="5.7642">
        <ele>1365.8</ele>
        <time>2020-02-08T12:03:29Z</time>
      </trkpt>
      <trkpt lat="45.2951" lon="5.7642">
        <ele>1365.8</ele>
        <time>2020-02-08T12:03:30Z</time>
      </trkpt>
      <trkpt lat="45.29507" lon="5.76422">
        <ele>1366</ele>
        <time>2020-02-08T12:03:31Z</time>
      </trkpt>
      <trkpt lat="45.29507" lon="5.76422">
        <ele>1366.4</ele>
        <time>2020-02-08T12:03:32Z</time>
      </trkpt>
      <trkpt lat="45.29504" lon="5.76424">
        <ele>1366.6</ele>
        <time>2020-02-08T12:03:33Z</time>
      </trkpt>
      <trkpt lat="45.29504" lon="5.76424">
        <ele>1367</ele>
        <time>2020-02-08T12:03:34Z</time>
      </trkpt>
      <trkpt lat="45.29502" lon="5.76426">
        <ele>1367.2</ele>
        <time>2020-02-08T12:03:35Z</time>
      </trkpt>
      <trkpt lat="45.29502" lon="5.76426">
        <ele>1367.2</ele>
        <time>2020-02-08T12:03:36Z</time>
      </trkpt>
      <trkpt lat="45.29499" lon="5.76429">
        <ele>1367.6</ele>
        <time>2020-02-08T12:03:37Z</time>
      </trkpt>
      <trkpt lat="45.29499" lon="5.76429">
        <ele>1367.8</ele>
        <time>2020-02-08T12:03:38Z</time>
      </trkpt>
      <trkpt lat="45.29497" lon="5.76431">
        <ele>1368.2</ele>
        <time>2020-02-08T12:03:39Z</time>
      </trkpt>
      <trkpt lat="45.29497" lon="5.76431">
        <ele>1368.4</ele>
        <time>2020-02-08T12:03:40Z</time>
      </trkpt>
      <trkpt lat="45.29494" lon="5.76433">
        <ele>1368.6</ele>
        <time>2020-02-08T12:03:41Z</time>
      </trkpt>
      <trkpt lat="45.29494" lon="5.76433">
        <ele>1368.6</ele>
        <time>2020-02-08T12:03:42Z</time>
      </trkpt>
      <trkpt lat="45.29491" lon="5.76436">
        <ele>1369</ele>
        <time>2020-02-08T12:03:43Z</time>
      </trkpt>
      <trkpt lat="45.29491" lon="5.76436">
        <ele>1369</ele>
        <time>2020-02-08T12:03:44Z</time>
      </trkpt>
      <trkpt lat="45.29489" lon="5.76439">
        <ele>1369.8</ele>
        <time>2020-02-08T12:03:45Z</time>
      </trkpt>
      <trkpt lat="45.29489" lon="5.76439">
        <ele>1370</ele>
        <time>2020-02-08T12:03:46Z</time>
      </trkpt>
      <trkpt lat="45.29488" lon="5.76442">
        <ele>1370.2</ele>
        <time>2020-02-08T12:03:47Z</time>
      </trkpt>
      <trkpt lat="45.29488" lon="5.76442">
        <ele>1370.2</ele>
        <time>2020-02-08T12:03:48Z</time>
      </trkpt>
      <trkpt lat="45.29486" lon="5.76445">
        <ele>1370.2</ele>
        <time>2020-02-08T12:03:49Z</time>
      </trkpt>
      <trkpt lat="45.29486" lon="5.76445">
        <ele>1370.6</ele>
        <time>2020-02-08T12:03:50Z</time>
      </trkpt>
      <trkpt lat="45.29485" lon="5.76449">
        <ele>1370.6</ele>
        <time>2020-02-08T12:03:51Z</time>
      </trkpt>
      <trkpt lat="45.29485" lon="5.76449">
        <ele>1370.8</ele>
        <time>2020-02-08T12:03:52Z</time>
      </trkpt>
      <trkpt lat="45.29483" lon="5.76452">
        <ele>1370.6</ele>
        <time>2020-02-08T12:03:53Z</time>
      </trkpt>
      <trkpt lat="45.29483" lon="5.76452">
        <ele>1370.8</ele>
        <time>2020-02-08T12:03:54Z</time>
      </trkpt>
      <trkpt lat="45.29482" lon="5.76455">
        <ele>1370.8</ele>
        <time>2020-02-08T12:03:55Z</time>
      </trkpt>
      <trkpt lat="45.29482" lon="5.76455">
        <ele>1371.2</ele>
        <time>2020-02-08T12:03:56Z</time>
      </trkpt>
      <trkpt lat="45.29482" lon="5.76457">
        <ele>1371.4</ele>
        <time>2020-02-08T12:03:57Z</time>
      </trkpt>
      <trkpt lat="45.29482" lon="5.76457">
        <ele>1371.4</ele>
        <time>2020-02-08T12:03:58Z</time>
      </trkpt>
      <trkpt lat="45.29481" lon="5.7646">
        <ele>1371.6</ele>
        <time>2020-02-08T12:03:59Z</time>
      </trkpt>
      <trkpt lat="45.29481" lon="5.7646">
        <ele>1371.6</ele>
        <time>2020-02-08T12:04:00Z</time>
      </trkpt>
      <trkpt lat="45.29481" lon="5.7646">
        <ele>1372.2</ele>
        <time>2020-02-08T12:04:01Z</time>
      </trkpt>
      <trkpt lat="45.29479" lon="5.76462">
        <ele>1372.4</ele>
        <time>2020-02-08T12:04:02Z</time>
      </trkpt>
      <trkpt lat="45.29479" lon="5.76462">
        <ele>1372.6</ele>
        <time>2020-02-08T12:04:03Z</time>
      </trkpt>
      <trkpt lat="45.29479" lon="5.76462">
        <ele>1373.4</ele>
        <time>2020-02-08T12:04:04Z</time>
      </trkpt>
      <trkpt lat="45.29478" lon="5.76464">
        <ele>1373.8</ele>
        <time>2020-02-08T12:04:05Z</time>
      </trkpt>
      <trkpt lat="45.29478" lon="5.76464">
        <ele>1373.6</ele>
        <time>2020-02-08T12:04:06Z</time>
      </trkpt>
      <trkpt lat="45.29478" lon="5.76464">
        <ele>1374</ele>
        <time>2020-02-08T12:04:07Z</time>
      </trkpt>
      <trkpt lat="45.29477" lon="5.76467">
        <ele>1374</ele>
        <time>2020-02-08T12:04:08Z</time>
      </trkpt>
      <trkpt lat="45.29477" lon="5.76467">
        <ele>1374.6</ele>
        <time>2020-02-08T12:04:09Z</time>
      </trkpt>
      <trkpt lat="45.29476" lon="5.7647">
        <ele>1374.8</ele>
        <time>2020-02-08T12:04:10Z</time>
      </trkpt>
      <trkpt lat="45.29476" lon="5.7647">
        <ele>1375</ele>
        <time>2020-02-08T12:04:11Z</time>
      </trkpt>
      <trkpt lat="45.29475" lon="5.76473">
        <ele>1375</ele>
        <time>2020-02-08T12:04:12Z</time>
      </trkpt>
      <trkpt lat="45.29475" lon="5.76473">
        <ele>1375</ele>
        <time>2020-02-08T12:04:13Z</time>
      </trkpt>
      <trkpt lat="45.29473" lon="5.76475">
        <ele>1375</ele>
        <time>2020-02-08T12:04:14Z</time>
      </trkpt>
      <trkpt lat="45.29473" lon="5.76475">
        <ele>1375.2</ele>
        <time>2020-02-08T12:04:15Z</time>
      </trkpt>
      <trkpt lat="45.29472" lon="5.76478">
        <ele>1375.2</ele>
        <time>2020-02-08T12:04:16Z</time>
      </trkpt>
      <trkpt lat="45.29472" lon="5.76478">
        <ele>1375.2</ele>
        <time>2020-02-08T12:04:17Z</time>
      </trkpt>
      <trkpt lat="45.29471" lon="5.76481">
        <ele>1375.2</ele>
        <time>2020-02-08T12:04:18Z</time>
      </trkpt>
      <trkpt lat="45.29471" lon="5.76481">
        <ele>1375</ele>
        <time>2020-02-08T12:04:19Z</time>
      </trkpt>
      <trkpt lat="45.29469" lon="5.76483">
        <ele>1375.2</ele>
        <time>2020-02-08T12:04:20Z</time>
      </trkpt>
      <trkpt lat="45.29469" lon="5.76483">
        <ele>1375</ele>
        <time>2020-02-08T12:04:21Z</time>
      </trkpt>
      <trkpt lat="45.29469" lon="5.76486">
        <ele>1375.2</ele>
        <time>2020-02-08T12:04:22Z</time>
      </trkpt>
      <trkpt lat="45.29469" lon="5.76486">
        <ele>1375.2</ele>
        <time>2020-02-08T12:04:23Z</time>
      </trkpt>
      <trkpt lat="45.29468" lon="5.7649">
        <ele>1375.2</ele>
        <time>2020-02-08T12:04:24Z</time>
      </trkpt>
      <trkpt lat="45.29468" lon="5.7649">
        <ele>1375.4</ele>
        <time>2020-02-08T12:04:25Z</time>
      </trkpt>
      <trkpt lat="45.29468" lon="5.76494">
        <ele>1375.8</ele>
        <time>2020-02-08T12:04:26Z</time>
      </trkpt>
      <trkpt lat="45.29468" lon="5.76494">
        <ele>1376</ele>
        <time>2020-02-08T12:04:27Z</time>
      </trkpt>
      <trkpt lat="45.29467" lon="5.76498">
        <ele>1375.8</ele>
        <time>2020-02-08T12:04:28Z</time>
      </trkpt>
      <trkpt lat="45.29467" lon="5.76498">
        <ele>1375.8</ele>
        <time>2020-02-08T12:04:29Z</time>
      </trkpt>
      <trkpt lat="45.29467" lon="5.76498">
        <ele>1376</ele>
        <time>2020-02-08T12:04:30Z</time>
      </trkpt>
    </trkseg>
  </trk>
</gpx>